<?xml version="1.0" encoding="UTF-8" standalone="no" ?>
<gpx xmlns="http://www.topografix.com/GPX/1/1" xmlns:xsi="http://www.w3.org/2001/XMLSchema-instance" xsi:schemaLocation="http://www.topografix.com/GPX/1/1 http://www.topografix.com/GPX/1/1/gpx.xsd" version="1.1" creator="VisuGPX - https://www.visugpx.com">
  <metadata>
    <name>Grans- La maison du taureau</name>
    <desc><![CDATA[Balade 1/2 journée au départ de Grans]]></desc>
  </metadata>
  <trk>
    <name><![CDATA[Hiking]]></name>
    <trkseg>
      <trkpt lat="43.60259" lon="5.06583">
        <ele>67</ele>
        <time>2019-12-16T12:42:29Z</time>
      </trkpt>
      <trkpt lat="43.6026" lon="5.06582">
        <ele>67</ele>
        <time>2019-12-16T12:42:30Z</time>
      </trkpt>
      <trkpt lat="43.6026" lon="5.0658">
        <ele>67</ele>
        <time>2019-12-16T12:42:31Z</time>
      </trkpt>
      <trkpt lat="43.6026" lon="5.06579">
        <ele>67</ele>
        <time>2019-12-16T12:42:32Z</time>
      </trkpt>
      <trkpt lat="43.6026" lon="5.06577">
        <ele>67</ele>
        <time>2019-12-16T12:42:33Z</time>
      </trkpt>
      <trkpt lat="43.60261" lon="5.06576">
        <ele>67</ele>
        <time>2019-12-16T12:42:34Z</time>
      </trkpt>
      <trkpt lat="43.60261" lon="5.06574">
        <ele>67</ele>
        <time>2019-12-16T12:42:35Z</time>
      </trkpt>
      <trkpt lat="43.60261" lon="5.06573">
        <ele>67</ele>
        <time>2019-12-16T12:42:36Z</time>
      </trkpt>
      <trkpt lat="43.60262" lon="5.06571">
        <ele>67</ele>
        <time>2019-12-16T12:42:37Z</time>
      </trkpt>
      <trkpt lat="43.60262" lon="5.0657">
        <ele>67</ele>
        <time>2019-12-16T12:42:38Z</time>
      </trkpt>
      <trkpt lat="43.60262" lon="5.06568">
        <ele>67</ele>
        <time>2019-12-16T12:42:39Z</time>
      </trkpt>
      <trkpt lat="43.60263" lon="5.06567">
        <ele>67</ele>
        <time>2019-12-16T12:42:40Z</time>
      </trkpt>
      <trkpt lat="43.60263" lon="5.06566">
        <ele>67</ele>
        <time>2019-12-16T12:42:41Z</time>
      </trkpt>
      <trkpt lat="43.60263" lon="5.06565">
        <ele>67</ele>
        <time>2019-12-16T12:42:42Z</time>
      </trkpt>
      <trkpt lat="43.60263" lon="5.06563">
        <ele>67</ele>
        <time>2019-12-16T12:42:43Z</time>
      </trkpt>
      <trkpt lat="43.60264" lon="5.06562">
        <ele>67</ele>
        <time>2019-12-16T12:42:44Z</time>
      </trkpt>
      <trkpt lat="43.60264" lon="5.06561">
        <ele>67</ele>
        <time>2019-12-16T12:42:45Z</time>
      </trkpt>
      <trkpt lat="43.60264" lon="5.0656">
        <ele>67</ele>
        <time>2019-12-16T12:42:46Z</time>
      </trkpt>
      <trkpt lat="43.60264" lon="5.06559">
        <ele>67</ele>
        <time>2019-12-16T12:42:47Z</time>
      </trkpt>
      <trkpt lat="43.60265" lon="5.06558">
        <ele>67</ele>
        <time>2019-12-16T12:42:48Z</time>
      </trkpt>
      <trkpt lat="43.60265" lon="5.06556">
        <ele>67</ele>
        <time>2019-12-16T12:42:49Z</time>
      </trkpt>
      <trkpt lat="43.60265" lon="5.06555">
        <ele>67</ele>
        <time>2019-12-16T12:42:50Z</time>
      </trkpt>
      <trkpt lat="43.60265" lon="5.06554">
        <ele>67</ele>
        <time>2019-12-16T12:42:51Z</time>
      </trkpt>
      <trkpt lat="43.60265" lon="5.06553">
        <ele>67</ele>
        <time>2019-12-16T12:42:52Z</time>
      </trkpt>
      <trkpt lat="43.60265" lon="5.06552">
        <ele>67</ele>
        <time>2019-12-16T12:42:53Z</time>
      </trkpt>
      <trkpt lat="43.60265" lon="5.06551">
        <ele>67</ele>
        <time>2019-12-16T12:42:54Z</time>
      </trkpt>
      <trkpt lat="43.60265" lon="5.0655">
        <ele>67</ele>
        <time>2019-12-16T12:42:55Z</time>
      </trkpt>
      <trkpt lat="43.60265" lon="5.06549">
        <ele>67</ele>
        <time>2019-12-16T12:42:56Z</time>
      </trkpt>
      <trkpt lat="43.60265" lon="5.06549">
        <ele>67</ele>
        <time>2019-12-16T12:42:57Z</time>
      </trkpt>
      <trkpt lat="43.60265" lon="5.06548">
        <ele>67</ele>
        <time>2019-12-16T12:42:58Z</time>
      </trkpt>
      <trkpt lat="43.60265" lon="5.06547">
        <ele>67</ele>
        <time>2019-12-16T12:42:59Z</time>
      </trkpt>
      <trkpt lat="43.60264" lon="5.06545">
        <ele>67</ele>
        <time>2019-12-16T12:43:00Z</time>
      </trkpt>
      <trkpt lat="43.60264" lon="5.06544">
        <ele>67</ele>
        <time>2019-12-16T12:43:01Z</time>
      </trkpt>
      <trkpt lat="43.60263" lon="5.06543">
        <ele>67</ele>
        <time>2019-12-16T12:43:02Z</time>
      </trkpt>
      <trkpt lat="43.60263" lon="5.06541">
        <ele>67</ele>
        <time>2019-12-16T12:43:03Z</time>
      </trkpt>
      <trkpt lat="43.60262" lon="5.0654">
        <ele>67</ele>
        <time>2019-12-16T12:43:04Z</time>
      </trkpt>
      <trkpt lat="43.60262" lon="5.06538">
        <ele>67</ele>
        <time>2019-12-16T12:43:05Z</time>
      </trkpt>
      <trkpt lat="43.60262" lon="5.06537">
        <ele>67</ele>
        <time>2019-12-16T12:43:06Z</time>
      </trkpt>
      <trkpt lat="43.60263" lon="5.06536">
        <ele>67</ele>
        <time>2019-12-16T12:43:07Z</time>
      </trkpt>
      <trkpt lat="43.60263" lon="5.06535">
        <ele>67</ele>
        <time>2019-12-16T12:43:08Z</time>
      </trkpt>
      <trkpt lat="43.60264" lon="5.06534">
        <ele>67</ele>
        <time>2019-12-16T12:43:09Z</time>
      </trkpt>
      <trkpt lat="43.60265" lon="5.06533">
        <ele>67</ele>
        <time>2019-12-16T12:43:10Z</time>
      </trkpt>
      <trkpt lat="43.60265" lon="5.06532">
        <ele>67</ele>
        <time>2019-12-16T12:43:11Z</time>
      </trkpt>
      <trkpt lat="43.60266" lon="5.06532">
        <ele>67</ele>
        <time>2019-12-16T12:43:12Z</time>
      </trkpt>
      <trkpt lat="43.60266" lon="5.06531">
        <ele>67</ele>
        <time>2019-12-16T12:43:13Z</time>
      </trkpt>
      <trkpt lat="43.60267" lon="5.06531">
        <ele>67</ele>
        <time>2019-12-16T12:43:14Z</time>
      </trkpt>
      <trkpt lat="43.60267" lon="5.06531">
        <ele>67</ele>
        <time>2019-12-16T12:43:15Z</time>
      </trkpt>
      <trkpt lat="43.60267" lon="5.06531">
        <ele>67</ele>
        <time>2019-12-16T12:43:16Z</time>
      </trkpt>
      <trkpt lat="43.60268" lon="5.06531">
        <ele>67</ele>
        <time>2019-12-16T12:43:17Z</time>
      </trkpt>
      <trkpt lat="43.60268" lon="5.06531">
        <ele>67</ele>
        <time>2019-12-16T12:43:18Z</time>
      </trkpt>
      <trkpt lat="43.60269" lon="5.06531">
        <ele>67</ele>
        <time>2019-12-16T12:43:19Z</time>
      </trkpt>
      <trkpt lat="43.60269" lon="5.06531">
        <ele>67</ele>
        <time>2019-12-16T12:43:20Z</time>
      </trkpt>
      <trkpt lat="43.60269" lon="5.06531">
        <ele>67</ele>
        <time>2019-12-16T12:43:21Z</time>
      </trkpt>
      <trkpt lat="43.6027" lon="5.06531">
        <ele>67</ele>
        <time>2019-12-16T12:43:22Z</time>
      </trkpt>
      <trkpt lat="43.6027" lon="5.06531">
        <ele>67</ele>
        <time>2019-12-16T12:43:23Z</time>
      </trkpt>
      <trkpt lat="43.60271" lon="5.06531">
        <ele>67</ele>
        <time>2019-12-16T12:43:24Z</time>
      </trkpt>
      <trkpt lat="43.60272" lon="5.06531">
        <ele>67</ele>
        <time>2019-12-16T12:43:25Z</time>
      </trkpt>
      <trkpt lat="43.60272" lon="5.06531">
        <ele>67</ele>
        <time>2019-12-16T12:43:26Z</time>
      </trkpt>
      <trkpt lat="43.60273" lon="5.0653">
        <ele>67</ele>
        <time>2019-12-16T12:43:27Z</time>
      </trkpt>
      <trkpt lat="43.60273" lon="5.0653">
        <ele>67</ele>
        <time>2019-12-16T12:43:28Z</time>
      </trkpt>
      <trkpt lat="43.60274" lon="5.0653">
        <ele>67</ele>
        <time>2019-12-16T12:43:29Z</time>
      </trkpt>
      <trkpt lat="43.60275" lon="5.0653">
        <ele>67</ele>
        <time>2019-12-16T12:43:30Z</time>
      </trkpt>
      <trkpt lat="43.60275" lon="5.0653">
        <ele>67</ele>
        <time>2019-12-16T12:43:31Z</time>
      </trkpt>
      <trkpt lat="43.60276" lon="5.06529">
        <ele>67</ele>
        <time>2019-12-16T12:43:32Z</time>
      </trkpt>
      <trkpt lat="43.60276" lon="5.06529">
        <ele>67</ele>
        <time>2019-12-16T12:43:33Z</time>
      </trkpt>
      <trkpt lat="43.60277" lon="5.06529">
        <ele>67</ele>
        <time>2019-12-16T12:43:34Z</time>
      </trkpt>
      <trkpt lat="43.60277" lon="5.06528">
        <ele>67</ele>
        <time>2019-12-16T12:43:35Z</time>
      </trkpt>
      <trkpt lat="43.60278" lon="5.06528">
        <ele>67</ele>
        <time>2019-12-16T12:43:36Z</time>
      </trkpt>
      <trkpt lat="43.60278" lon="5.06527">
        <ele>67</ele>
        <time>2019-12-16T12:43:37Z</time>
      </trkpt>
      <trkpt lat="43.60278" lon="5.06526">
        <ele>67</ele>
        <time>2019-12-16T12:43:38Z</time>
      </trkpt>
      <trkpt lat="43.60279" lon="5.06526">
        <ele>67</ele>
        <time>2019-12-16T12:43:39Z</time>
      </trkpt>
      <trkpt lat="43.60279" lon="5.06525">
        <ele>67</ele>
        <time>2019-12-16T12:43:40Z</time>
      </trkpt>
      <trkpt lat="43.60279" lon="5.06524">
        <ele>67</ele>
        <time>2019-12-16T12:43:41Z</time>
      </trkpt>
      <trkpt lat="43.6028" lon="5.06523">
        <ele>67</ele>
        <time>2019-12-16T12:43:42Z</time>
      </trkpt>
      <trkpt lat="43.6028" lon="5.06522">
        <ele>67</ele>
        <time>2019-12-16T12:43:43Z</time>
      </trkpt>
      <trkpt lat="43.6028" lon="5.06521">
        <ele>67</ele>
        <time>2019-12-16T12:43:44Z</time>
      </trkpt>
      <trkpt lat="43.60281" lon="5.0652">
        <ele>67</ele>
        <time>2019-12-16T12:43:45Z</time>
      </trkpt>
      <trkpt lat="43.60281" lon="5.06519">
        <ele>67</ele>
        <time>2019-12-16T12:43:46Z</time>
      </trkpt>
      <trkpt lat="43.60281" lon="5.06518">
        <ele>67</ele>
        <time>2019-12-16T12:43:47Z</time>
      </trkpt>
      <trkpt lat="43.60282" lon="5.06516">
        <ele>67</ele>
        <time>2019-12-16T12:43:48Z</time>
      </trkpt>
      <trkpt lat="43.60282" lon="5.06515">
        <ele>67</ele>
        <time>2019-12-16T12:43:49Z</time>
      </trkpt>
      <trkpt lat="43.60282" lon="5.06514">
        <ele>67</ele>
        <time>2019-12-16T12:43:50Z</time>
      </trkpt>
      <trkpt lat="43.60282" lon="5.06513">
        <ele>67</ele>
        <time>2019-12-16T12:43:51Z</time>
      </trkpt>
      <trkpt lat="43.60283" lon="5.06512">
        <ele>67</ele>
        <time>2019-12-16T12:43:52Z</time>
      </trkpt>
      <trkpt lat="43.60283" lon="5.06511">
        <ele>67</ele>
        <time>2019-12-16T12:43:53Z</time>
      </trkpt>
      <trkpt lat="43.60283" lon="5.0651">
        <ele>67</ele>
        <time>2019-12-16T12:43:54Z</time>
      </trkpt>
      <trkpt lat="43.60283" lon="5.06509">
        <ele>67</ele>
        <time>2019-12-16T12:43:55Z</time>
      </trkpt>
      <trkpt lat="43.60283" lon="5.06507">
        <ele>67</ele>
        <time>2019-12-16T12:43:56Z</time>
      </trkpt>
      <trkpt lat="43.60283" lon="5.06506">
        <ele>67</ele>
        <time>2019-12-16T12:43:57Z</time>
      </trkpt>
      <trkpt lat="43.60283" lon="5.06505">
        <ele>67</ele>
        <time>2019-12-16T12:43:58Z</time>
      </trkpt>
      <trkpt lat="43.60284" lon="5.06504">
        <ele>67</ele>
        <time>2019-12-16T12:43:59Z</time>
      </trkpt>
      <trkpt lat="43.60284" lon="5.06503">
        <ele>67</ele>
        <time>2019-12-16T12:44:00Z</time>
      </trkpt>
      <trkpt lat="43.60284" lon="5.06502">
        <ele>67</ele>
        <time>2019-12-16T12:44:01Z</time>
      </trkpt>
      <trkpt lat="43.60284" lon="5.06501">
        <ele>67</ele>
        <time>2019-12-16T12:44:02Z</time>
      </trkpt>
      <trkpt lat="43.60284" lon="5.065">
        <ele>70</ele>
        <time>2019-12-16T12:44:03Z</time>
      </trkpt>
      <trkpt lat="43.60284" lon="5.06499">
        <ele>70</ele>
        <time>2019-12-16T12:44:04Z</time>
      </trkpt>
      <trkpt lat="43.60284" lon="5.06497">
        <ele>70</ele>
        <time>2019-12-16T12:44:05Z</time>
      </trkpt>
      <trkpt lat="43.60284" lon="5.06496">
        <ele>70</ele>
        <time>2019-12-16T12:44:06Z</time>
      </trkpt>
      <trkpt lat="43.60284" lon="5.06495">
        <ele>70</ele>
        <time>2019-12-16T12:44:07Z</time>
      </trkpt>
      <trkpt lat="43.60284" lon="5.06494">
        <ele>70</ele>
        <time>2019-12-16T12:44:08Z</time>
      </trkpt>
      <trkpt lat="43.60284" lon="5.06493">
        <ele>70</ele>
        <time>2019-12-16T12:44:09Z</time>
      </trkpt>
      <trkpt lat="43.60284" lon="5.06492">
        <ele>70</ele>
        <time>2019-12-16T12:44:10Z</time>
      </trkpt>
      <trkpt lat="43.60284" lon="5.0649">
        <ele>70</ele>
        <time>2019-12-16T12:44:11Z</time>
      </trkpt>
      <trkpt lat="43.60284" lon="5.06489">
        <ele>70</ele>
        <time>2019-12-16T12:44:12Z</time>
      </trkpt>
      <trkpt lat="43.60284" lon="5.06488">
        <ele>70</ele>
        <time>2019-12-16T12:44:13Z</time>
      </trkpt>
      <trkpt lat="43.60284" lon="5.06487">
        <ele>70</ele>
        <time>2019-12-16T12:44:14Z</time>
      </trkpt>
      <trkpt lat="43.60284" lon="5.06485">
        <ele>70</ele>
        <time>2019-12-16T12:44:15Z</time>
      </trkpt>
      <trkpt lat="43.60284" lon="5.06484">
        <ele>70</ele>
        <time>2019-12-16T12:44:16Z</time>
      </trkpt>
      <trkpt lat="43.60284" lon="5.06483">
        <ele>70</ele>
        <time>2019-12-16T12:44:17Z</time>
      </trkpt>
      <trkpt lat="43.60284" lon="5.06481">
        <ele>70</ele>
        <time>2019-12-16T12:44:18Z</time>
      </trkpt>
      <trkpt lat="43.60284" lon="5.0648">
        <ele>70</ele>
        <time>2019-12-16T12:44:19Z</time>
      </trkpt>
      <trkpt lat="43.60284" lon="5.06479">
        <ele>70</ele>
        <time>2019-12-16T12:44:20Z</time>
      </trkpt>
      <trkpt lat="43.60283" lon="5.06477">
        <ele>70</ele>
        <time>2019-12-16T12:44:21Z</time>
      </trkpt>
      <trkpt lat="43.60283" lon="5.06476">
        <ele>70</ele>
        <time>2019-12-16T12:44:22Z</time>
      </trkpt>
      <trkpt lat="43.60283" lon="5.06475">
        <ele>70</ele>
        <time>2019-12-16T12:44:23Z</time>
      </trkpt>
      <trkpt lat="43.60283" lon="5.06473">
        <ele>70</ele>
        <time>2019-12-16T12:44:24Z</time>
      </trkpt>
      <trkpt lat="43.60283" lon="5.06472">
        <ele>70</ele>
        <time>2019-12-16T12:44:25Z</time>
      </trkpt>
      <trkpt lat="43.60283" lon="5.06471">
        <ele>70</ele>
        <time>2019-12-16T12:44:26Z</time>
      </trkpt>
      <trkpt lat="43.60283" lon="5.0647">
        <ele>70</ele>
        <time>2019-12-16T12:44:27Z</time>
      </trkpt>
      <trkpt lat="43.60284" lon="5.06469">
        <ele>71</ele>
        <time>2019-12-16T12:44:28Z</time>
      </trkpt>
      <trkpt lat="43.60284" lon="5.06468">
        <ele>71</ele>
        <time>2019-12-16T12:44:29Z</time>
      </trkpt>
      <trkpt lat="43.60285" lon="5.06467">
        <ele>71</ele>
        <time>2019-12-16T12:44:30Z</time>
      </trkpt>
      <trkpt lat="43.60285" lon="5.06466">
        <ele>71</ele>
        <time>2019-12-16T12:44:31Z</time>
      </trkpt>
      <trkpt lat="43.60285" lon="5.06465">
        <ele>71</ele>
        <time>2019-12-16T12:44:32Z</time>
      </trkpt>
      <trkpt lat="43.60286" lon="5.06463">
        <ele>71</ele>
        <time>2019-12-16T12:44:33Z</time>
      </trkpt>
      <trkpt lat="43.60286" lon="5.06462">
        <ele>71</ele>
        <time>2019-12-16T12:44:34Z</time>
      </trkpt>
      <trkpt lat="43.60286" lon="5.06461">
        <ele>71</ele>
        <time>2019-12-16T12:44:35Z</time>
      </trkpt>
      <trkpt lat="43.60286" lon="5.06459">
        <ele>71</ele>
        <time>2019-12-16T12:44:36Z</time>
      </trkpt>
      <trkpt lat="43.60286" lon="5.06458">
        <ele>71</ele>
        <time>2019-12-16T12:44:37Z</time>
      </trkpt>
      <trkpt lat="43.60286" lon="5.06456">
        <ele>71</ele>
        <time>2019-12-16T12:44:38Z</time>
      </trkpt>
      <trkpt lat="43.60286" lon="5.06455">
        <ele>71</ele>
        <time>2019-12-16T12:44:39Z</time>
      </trkpt>
      <trkpt lat="43.60287" lon="5.06454">
        <ele>71</ele>
        <time>2019-12-16T12:44:40Z</time>
      </trkpt>
      <trkpt lat="43.60287" lon="5.06453">
        <ele>71</ele>
        <time>2019-12-16T12:44:41Z</time>
      </trkpt>
      <trkpt lat="43.60287" lon="5.06451">
        <ele>71</ele>
        <time>2019-12-16T12:44:42Z</time>
      </trkpt>
      <trkpt lat="43.60288" lon="5.0645">
        <ele>71</ele>
        <time>2019-12-16T12:44:43Z</time>
      </trkpt>
      <trkpt lat="43.60288" lon="5.0645">
        <ele>71</ele>
        <time>2019-12-16T12:44:44Z</time>
      </trkpt>
      <trkpt lat="43.60289" lon="5.06449">
        <ele>71</ele>
        <time>2019-12-16T12:44:45Z</time>
      </trkpt>
      <trkpt lat="43.6029" lon="5.06448">
        <ele>71</ele>
        <time>2019-12-16T12:44:46Z</time>
      </trkpt>
      <trkpt lat="43.60291" lon="5.06447">
        <ele>71</ele>
        <time>2019-12-16T12:44:47Z</time>
      </trkpt>
      <trkpt lat="43.60291" lon="5.06446">
        <ele>71</ele>
        <time>2019-12-16T12:44:48Z</time>
      </trkpt>
      <trkpt lat="43.60292" lon="5.06445">
        <ele>71</ele>
        <time>2019-12-16T12:44:49Z</time>
      </trkpt>
      <trkpt lat="43.60293" lon="5.06445">
        <ele>71</ele>
        <time>2019-12-16T12:44:50Z</time>
      </trkpt>
      <trkpt lat="43.60294" lon="5.06444">
        <ele>71</ele>
        <time>2019-12-16T12:44:51Z</time>
      </trkpt>
      <trkpt lat="43.60295" lon="5.06443">
        <ele>71</ele>
        <time>2019-12-16T12:44:52Z</time>
      </trkpt>
      <trkpt lat="43.60296" lon="5.06442">
        <ele>71</ele>
        <time>2019-12-16T12:44:53Z</time>
      </trkpt>
      <trkpt lat="43.60297" lon="5.06441">
        <ele>71</ele>
        <time>2019-12-16T12:44:54Z</time>
      </trkpt>
      <trkpt lat="43.60298" lon="5.0644">
        <ele>71</ele>
        <time>2019-12-16T12:44:55Z</time>
      </trkpt>
      <trkpt lat="43.60299" lon="5.0644">
        <ele>71</ele>
        <time>2019-12-16T12:44:56Z</time>
      </trkpt>
      <trkpt lat="43.60299" lon="5.06439">
        <ele>71</ele>
        <time>2019-12-16T12:44:57Z</time>
      </trkpt>
      <trkpt lat="43.603" lon="5.06438">
        <ele>71</ele>
        <time>2019-12-16T12:44:58Z</time>
      </trkpt>
      <trkpt lat="43.60301" lon="5.06437">
        <ele>71</ele>
        <time>2019-12-16T12:44:59Z</time>
      </trkpt>
      <trkpt lat="43.60302" lon="5.06436">
        <ele>71</ele>
        <time>2019-12-16T12:45:00Z</time>
      </trkpt>
      <trkpt lat="43.60303" lon="5.06435">
        <ele>71</ele>
        <time>2019-12-16T12:45:01Z</time>
      </trkpt>
      <trkpt lat="43.60303" lon="5.06434">
        <ele>71</ele>
        <time>2019-12-16T12:45:02Z</time>
      </trkpt>
      <trkpt lat="43.60304" lon="5.06433">
        <ele>71</ele>
        <time>2019-12-16T12:45:03Z</time>
      </trkpt>
      <trkpt lat="43.60305" lon="5.06432">
        <ele>71</ele>
        <time>2019-12-16T12:45:04Z</time>
      </trkpt>
      <trkpt lat="43.60306" lon="5.0643">
        <ele>71</ele>
        <time>2019-12-16T12:45:05Z</time>
      </trkpt>
      <trkpt lat="43.60306" lon="5.06429">
        <ele>71</ele>
        <time>2019-12-16T12:45:06Z</time>
      </trkpt>
      <trkpt lat="43.60307" lon="5.06428">
        <ele>71</ele>
        <time>2019-12-16T12:45:07Z</time>
      </trkpt>
      <trkpt lat="43.60307" lon="5.06427">
        <ele>71</ele>
        <time>2019-12-16T12:45:08Z</time>
      </trkpt>
      <trkpt lat="43.60308" lon="5.06426">
        <ele>71</ele>
        <time>2019-12-16T12:45:09Z</time>
      </trkpt>
      <trkpt lat="43.60309" lon="5.06425">
        <ele>71</ele>
        <time>2019-12-16T12:45:10Z</time>
      </trkpt>
      <trkpt lat="43.60309" lon="5.06424">
        <ele>71</ele>
        <time>2019-12-16T12:45:11Z</time>
      </trkpt>
      <trkpt lat="43.60309" lon="5.06423">
        <ele>71</ele>
        <time>2019-12-16T12:45:12Z</time>
      </trkpt>
      <trkpt lat="43.6031" lon="5.06421">
        <ele>71</ele>
        <time>2019-12-16T12:45:13Z</time>
      </trkpt>
      <trkpt lat="43.6031" lon="5.0642">
        <ele>71</ele>
        <time>2019-12-16T12:45:14Z</time>
      </trkpt>
      <trkpt lat="43.60311" lon="5.06419">
        <ele>71</ele>
        <time>2019-12-16T12:45:15Z</time>
      </trkpt>
      <trkpt lat="43.60311" lon="5.06418">
        <ele>71</ele>
        <time>2019-12-16T12:45:16Z</time>
      </trkpt>
      <trkpt lat="43.60312" lon="5.06417">
        <ele>75</ele>
        <time>2019-12-16T12:45:17Z</time>
      </trkpt>
      <trkpt lat="43.60312" lon="5.06415">
        <ele>75</ele>
        <time>2019-12-16T12:45:18Z</time>
      </trkpt>
      <trkpt lat="43.60312" lon="5.06414">
        <ele>75</ele>
        <time>2019-12-16T12:45:19Z</time>
      </trkpt>
      <trkpt lat="43.60313" lon="5.06413">
        <ele>75</ele>
        <time>2019-12-16T12:45:20Z</time>
      </trkpt>
      <trkpt lat="43.60313" lon="5.06412">
        <ele>75</ele>
        <time>2019-12-16T12:45:21Z</time>
      </trkpt>
      <trkpt lat="43.60314" lon="5.06411">
        <ele>75</ele>
        <time>2019-12-16T12:45:22Z</time>
      </trkpt>
      <trkpt lat="43.60314" lon="5.0641">
        <ele>75</ele>
        <time>2019-12-16T12:45:23Z</time>
      </trkpt>
      <trkpt lat="43.60315" lon="5.06408">
        <ele>75</ele>
        <time>2019-12-16T12:45:24Z</time>
      </trkpt>
      <trkpt lat="43.60315" lon="5.06407">
        <ele>75</ele>
        <time>2019-12-16T12:45:25Z</time>
      </trkpt>
      <trkpt lat="43.60316" lon="5.06406">
        <ele>75</ele>
        <time>2019-12-16T12:45:26Z</time>
      </trkpt>
      <trkpt lat="43.60316" lon="5.06405">
        <ele>75</ele>
        <time>2019-12-16T12:45:27Z</time>
      </trkpt>
      <trkpt lat="43.60317" lon="5.06404">
        <ele>75</ele>
        <time>2019-12-16T12:45:28Z</time>
      </trkpt>
      <trkpt lat="43.60318" lon="5.06403">
        <ele>75</ele>
        <time>2019-12-16T12:45:29Z</time>
      </trkpt>
      <trkpt lat="43.60319" lon="5.06402">
        <ele>75</ele>
        <time>2019-12-16T12:45:30Z</time>
      </trkpt>
      <trkpt lat="43.60319" lon="5.06401">
        <ele>75</ele>
        <time>2019-12-16T12:45:31Z</time>
      </trkpt>
      <trkpt lat="43.6032" lon="5.064">
        <ele>75</ele>
        <time>2019-12-16T12:45:32Z</time>
      </trkpt>
      <trkpt lat="43.60321" lon="5.06399">
        <ele>75</ele>
        <time>2019-12-16T12:45:33Z</time>
      </trkpt>
      <trkpt lat="43.60322" lon="5.06398">
        <ele>75</ele>
        <time>2019-12-16T12:45:34Z</time>
      </trkpt>
      <trkpt lat="43.60322" lon="5.06397">
        <ele>75</ele>
        <time>2019-12-16T12:45:35Z</time>
      </trkpt>
      <trkpt lat="43.60323" lon="5.06397">
        <ele>75</ele>
        <time>2019-12-16T12:45:36Z</time>
      </trkpt>
      <trkpt lat="43.60324" lon="5.06396">
        <ele>75</ele>
        <time>2019-12-16T12:45:37Z</time>
      </trkpt>
      <trkpt lat="43.60325" lon="5.06395">
        <ele>75</ele>
        <time>2019-12-16T12:45:38Z</time>
      </trkpt>
      <trkpt lat="43.60326" lon="5.06394">
        <ele>75</ele>
        <time>2019-12-16T12:45:39Z</time>
      </trkpt>
      <trkpt lat="43.60326" lon="5.06393">
        <ele>75</ele>
        <time>2019-12-16T12:45:40Z</time>
      </trkpt>
      <trkpt lat="43.60327" lon="5.06393">
        <ele>76</ele>
        <time>2019-12-16T12:45:41Z</time>
      </trkpt>
      <trkpt lat="43.60328" lon="5.06392">
        <ele>76</ele>
        <time>2019-12-16T12:45:42Z</time>
      </trkpt>
      <trkpt lat="43.60329" lon="5.06391">
        <ele>76</ele>
        <time>2019-12-16T12:45:43Z</time>
      </trkpt>
      <trkpt lat="43.6033" lon="5.06391">
        <ele>76</ele>
        <time>2019-12-16T12:45:44Z</time>
      </trkpt>
      <trkpt lat="43.60331" lon="5.0639">
        <ele>76</ele>
        <time>2019-12-16T12:45:45Z</time>
      </trkpt>
      <trkpt lat="43.60332" lon="5.06389">
        <ele>76</ele>
        <time>2019-12-16T12:45:46Z</time>
      </trkpt>
      <trkpt lat="43.60332" lon="5.06388">
        <ele>76</ele>
        <time>2019-12-16T12:45:47Z</time>
      </trkpt>
      <trkpt lat="43.60333" lon="5.06388">
        <ele>76</ele>
        <time>2019-12-16T12:45:48Z</time>
      </trkpt>
      <trkpt lat="43.60334" lon="5.06387">
        <ele>71</ele>
        <time>2019-12-16T12:45:49Z</time>
      </trkpt>
      <trkpt lat="43.60335" lon="5.06386">
        <ele>71</ele>
        <time>2019-12-16T12:45:50Z</time>
      </trkpt>
      <trkpt lat="43.60335" lon="5.06385">
        <ele>71</ele>
        <time>2019-12-16T12:45:51Z</time>
      </trkpt>
      <trkpt lat="43.60336" lon="5.06385">
        <ele>71</ele>
        <time>2019-12-16T12:45:52Z</time>
      </trkpt>
      <trkpt lat="43.60337" lon="5.06384">
        <ele>72</ele>
        <time>2019-12-16T12:45:53Z</time>
      </trkpt>
      <trkpt lat="43.60337" lon="5.06383">
        <ele>72</ele>
        <time>2019-12-16T12:45:54Z</time>
      </trkpt>
      <trkpt lat="43.60338" lon="5.06382">
        <ele>72</ele>
        <time>2019-12-16T12:45:55Z</time>
      </trkpt>
      <trkpt lat="43.60338" lon="5.06381">
        <ele>72</ele>
        <time>2019-12-16T12:45:56Z</time>
      </trkpt>
      <trkpt lat="43.60339" lon="5.0638">
        <ele>72</ele>
        <time>2019-12-16T12:45:57Z</time>
      </trkpt>
      <trkpt lat="43.60339" lon="5.0638">
        <ele>72</ele>
        <time>2019-12-16T12:45:58Z</time>
      </trkpt>
      <trkpt lat="43.6034" lon="5.06379">
        <ele>72</ele>
        <time>2019-12-16T12:45:59Z</time>
      </trkpt>
      <trkpt lat="43.6034" lon="5.06378">
        <ele>72</ele>
        <time>2019-12-16T12:46:00Z</time>
      </trkpt>
      <trkpt lat="43.60341" lon="5.06377">
        <ele>72</ele>
        <time>2019-12-16T12:46:01Z</time>
      </trkpt>
      <trkpt lat="43.60341" lon="5.06377">
        <ele>72</ele>
        <time>2019-12-16T12:46:02Z</time>
      </trkpt>
      <trkpt lat="43.60342" lon="5.06376">
        <ele>72</ele>
        <time>2019-12-16T12:46:03Z</time>
      </trkpt>
      <trkpt lat="43.60343" lon="5.06375">
        <ele>72</ele>
        <time>2019-12-16T12:46:04Z</time>
      </trkpt>
      <trkpt lat="43.60343" lon="5.06375">
        <ele>72</ele>
        <time>2019-12-16T12:46:05Z</time>
      </trkpt>
      <trkpt lat="43.60344" lon="5.06374">
        <ele>72</ele>
        <time>2019-12-16T12:46:06Z</time>
      </trkpt>
      <trkpt lat="43.60345" lon="5.06374">
        <ele>72</ele>
        <time>2019-12-16T12:46:07Z</time>
      </trkpt>
      <trkpt lat="43.60346" lon="5.06373">
        <ele>72</ele>
        <time>2019-12-16T12:46:08Z</time>
      </trkpt>
      <trkpt lat="43.60346" lon="5.06373">
        <ele>72</ele>
        <time>2019-12-16T12:46:09Z</time>
      </trkpt>
      <trkpt lat="43.60347" lon="5.06372">
        <ele>72</ele>
        <time>2019-12-16T12:46:10Z</time>
      </trkpt>
      <trkpt lat="43.60348" lon="5.06371">
        <ele>72</ele>
        <time>2019-12-16T12:46:11Z</time>
      </trkpt>
      <trkpt lat="43.60348" lon="5.06371">
        <ele>72</ele>
        <time>2019-12-16T12:46:12Z</time>
      </trkpt>
      <trkpt lat="43.60349" lon="5.0637">
        <ele>72</ele>
        <time>2019-12-16T12:46:13Z</time>
      </trkpt>
      <trkpt lat="43.60349" lon="5.06369">
        <ele>72</ele>
        <time>2019-12-16T12:46:14Z</time>
      </trkpt>
      <trkpt lat="43.6035" lon="5.06368">
        <ele>72</ele>
        <time>2019-12-16T12:46:15Z</time>
      </trkpt>
      <trkpt lat="43.6035" lon="5.06367">
        <ele>72</ele>
        <time>2019-12-16T12:46:16Z</time>
      </trkpt>
      <trkpt lat="43.60351" lon="5.06366">
        <ele>72</ele>
        <time>2019-12-16T12:46:17Z</time>
      </trkpt>
      <trkpt lat="43.60351" lon="5.06365">
        <ele>73</ele>
        <time>2019-12-16T12:46:18Z</time>
      </trkpt>
      <trkpt lat="43.60351" lon="5.06364">
        <ele>73</ele>
        <time>2019-12-16T12:46:19Z</time>
      </trkpt>
      <trkpt lat="43.60351" lon="5.06363">
        <ele>73</ele>
        <time>2019-12-16T12:46:20Z</time>
      </trkpt>
      <trkpt lat="43.60351" lon="5.06362">
        <ele>73</ele>
        <time>2019-12-16T12:46:21Z</time>
      </trkpt>
      <trkpt lat="43.60351" lon="5.06361">
        <ele>73</ele>
        <time>2019-12-16T12:46:22Z</time>
      </trkpt>
      <trkpt lat="43.60352" lon="5.0636">
        <ele>73</ele>
        <time>2019-12-16T12:46:23Z</time>
      </trkpt>
      <trkpt lat="43.60352" lon="5.0636">
        <ele>73</ele>
        <time>2019-12-16T12:46:24Z</time>
      </trkpt>
      <trkpt lat="43.60353" lon="5.06359">
        <ele>73</ele>
        <time>2019-12-16T12:46:25Z</time>
      </trkpt>
      <trkpt lat="43.60354" lon="5.06359">
        <ele>73</ele>
        <time>2019-12-16T12:46:26Z</time>
      </trkpt>
      <trkpt lat="43.60355" lon="5.06358">
        <ele>73</ele>
        <time>2019-12-16T12:46:27Z</time>
      </trkpt>
      <trkpt lat="43.60355" lon="5.06358">
        <ele>73</ele>
        <time>2019-12-16T12:46:28Z</time>
      </trkpt>
      <trkpt lat="43.60356" lon="5.06357">
        <ele>73</ele>
        <time>2019-12-16T12:46:29Z</time>
      </trkpt>
      <trkpt lat="43.60356" lon="5.06356">
        <ele>73</ele>
        <time>2019-12-16T12:46:30Z</time>
      </trkpt>
      <trkpt lat="43.60357" lon="5.06356">
        <ele>73</ele>
        <time>2019-12-16T12:46:31Z</time>
      </trkpt>
      <trkpt lat="43.60357" lon="5.06355">
        <ele>73</ele>
        <time>2019-12-16T12:46:32Z</time>
      </trkpt>
      <trkpt lat="43.60357" lon="5.06354">
        <ele>73</ele>
        <time>2019-12-16T12:46:33Z</time>
      </trkpt>
      <trkpt lat="43.60357" lon="5.06353">
        <ele>73</ele>
        <time>2019-12-16T12:46:34Z</time>
      </trkpt>
      <trkpt lat="43.60357" lon="5.06352">
        <ele>73</ele>
        <time>2019-12-16T12:46:35Z</time>
      </trkpt>
      <trkpt lat="43.60357" lon="5.06351">
        <ele>73</ele>
        <time>2019-12-16T12:46:36Z</time>
      </trkpt>
      <trkpt lat="43.60357" lon="5.0635">
        <ele>73</ele>
        <time>2019-12-16T12:46:37Z</time>
      </trkpt>
      <trkpt lat="43.60358" lon="5.0635">
        <ele>73</ele>
        <time>2019-12-16T12:46:38Z</time>
      </trkpt>
      <trkpt lat="43.60359" lon="5.06349">
        <ele>73</ele>
        <time>2019-12-16T12:46:39Z</time>
      </trkpt>
      <trkpt lat="43.60359" lon="5.06349">
        <ele>73</ele>
        <time>2019-12-16T12:46:40Z</time>
      </trkpt>
      <trkpt lat="43.6036" lon="5.06349">
        <ele>73</ele>
        <time>2019-12-16T12:46:41Z</time>
      </trkpt>
      <trkpt lat="43.60361" lon="5.06349">
        <ele>73</ele>
        <time>2019-12-16T12:46:42Z</time>
      </trkpt>
      <trkpt lat="43.60362" lon="5.06349">
        <ele>73</ele>
        <time>2019-12-16T12:46:43Z</time>
      </trkpt>
      <trkpt lat="43.60362" lon="5.06349">
        <ele>73</ele>
        <time>2019-12-16T12:46:44Z</time>
      </trkpt>
      <trkpt lat="43.60362" lon="5.06349">
        <ele>73</ele>
        <time>2019-12-16T12:46:45Z</time>
      </trkpt>
      <trkpt lat="43.60363" lon="5.06349">
        <ele>73</ele>
        <time>2019-12-16T12:46:46Z</time>
      </trkpt>
      <trkpt lat="43.60363" lon="5.06349">
        <ele>73</ele>
        <time>2019-12-16T12:46:47Z</time>
      </trkpt>
      <trkpt lat="43.60364" lon="5.06348">
        <ele>73</ele>
        <time>2019-12-16T12:46:48Z</time>
      </trkpt>
      <trkpt lat="43.60364" lon="5.06348">
        <ele>73</ele>
        <time>2019-12-16T12:46:49Z</time>
      </trkpt>
      <trkpt lat="43.60365" lon="5.06347">
        <ele>72</ele>
        <time>2019-12-16T12:46:50Z</time>
      </trkpt>
      <trkpt lat="43.60366" lon="5.06346">
        <ele>72</ele>
        <time>2019-12-16T12:46:51Z</time>
      </trkpt>
      <trkpt lat="43.60367" lon="5.06345">
        <ele>72</ele>
        <time>2019-12-16T12:46:52Z</time>
      </trkpt>
      <trkpt lat="43.60367" lon="5.06344">
        <ele>72</ele>
        <time>2019-12-16T12:46:53Z</time>
      </trkpt>
      <trkpt lat="43.60368" lon="5.06343">
        <ele>72</ele>
        <time>2019-12-16T12:46:54Z</time>
      </trkpt>
      <trkpt lat="43.60368" lon="5.06342">
        <ele>72</ele>
        <time>2019-12-16T12:46:55Z</time>
      </trkpt>
      <trkpt lat="43.60368" lon="5.06341">
        <ele>72</ele>
        <time>2019-12-16T12:46:56Z</time>
      </trkpt>
      <trkpt lat="43.60369" lon="5.0634">
        <ele>72</ele>
        <time>2019-12-16T12:46:57Z</time>
      </trkpt>
      <trkpt lat="43.60369" lon="5.0634">
        <ele>72</ele>
        <time>2019-12-16T12:46:58Z</time>
      </trkpt>
      <trkpt lat="43.60369" lon="5.06339">
        <ele>72</ele>
        <time>2019-12-16T12:46:59Z</time>
      </trkpt>
      <trkpt lat="43.6037" lon="5.06338">
        <ele>72</ele>
        <time>2019-12-16T12:47:00Z</time>
      </trkpt>
      <trkpt lat="43.6037" lon="5.06337">
        <ele>72</ele>
        <time>2019-12-16T12:47:01Z</time>
      </trkpt>
      <trkpt lat="43.6037" lon="5.06336">
        <ele>72</ele>
        <time>2019-12-16T12:47:02Z</time>
      </trkpt>
      <trkpt lat="43.60371" lon="5.06335">
        <ele>72</ele>
        <time>2019-12-16T12:47:03Z</time>
      </trkpt>
      <trkpt lat="43.60371" lon="5.06334">
        <ele>72</ele>
        <time>2019-12-16T12:47:04Z</time>
      </trkpt>
      <trkpt lat="43.60371" lon="5.06333">
        <ele>76</ele>
        <time>2019-12-16T12:47:05Z</time>
      </trkpt>
      <trkpt lat="43.60371" lon="5.06332">
        <ele>76</ele>
        <time>2019-12-16T12:47:06Z</time>
      </trkpt>
      <trkpt lat="43.60372" lon="5.06332">
        <ele>76</ele>
        <time>2019-12-16T12:47:07Z</time>
      </trkpt>
      <trkpt lat="43.60372" lon="5.06331">
        <ele>76</ele>
        <time>2019-12-16T12:47:08Z</time>
      </trkpt>
      <trkpt lat="43.60373" lon="5.06331">
        <ele>76</ele>
        <time>2019-12-16T12:47:09Z</time>
      </trkpt>
      <trkpt lat="43.60374" lon="5.0633">
        <ele>76</ele>
        <time>2019-12-16T12:47:10Z</time>
      </trkpt>
      <trkpt lat="43.60374" lon="5.0633">
        <ele>76</ele>
        <time>2019-12-16T12:47:11Z</time>
      </trkpt>
      <trkpt lat="43.60375" lon="5.0633">
        <ele>76</ele>
        <time>2019-12-16T12:47:12Z</time>
      </trkpt>
      <trkpt lat="43.60375" lon="5.06329">
        <ele>76</ele>
        <time>2019-12-16T12:47:13Z</time>
      </trkpt>
      <trkpt lat="43.60376" lon="5.06329">
        <ele>76</ele>
        <time>2019-12-16T12:47:14Z</time>
      </trkpt>
      <trkpt lat="43.60377" lon="5.06328">
        <ele>76</ele>
        <time>2019-12-16T12:47:15Z</time>
      </trkpt>
      <trkpt lat="43.60378" lon="5.06328">
        <ele>76</ele>
        <time>2019-12-16T12:47:16Z</time>
      </trkpt>
      <trkpt lat="43.60378" lon="5.06327">
        <ele>76</ele>
        <time>2019-12-16T12:47:17Z</time>
      </trkpt>
      <trkpt lat="43.60379" lon="5.06326">
        <ele>75</ele>
        <time>2019-12-16T12:47:18Z</time>
      </trkpt>
      <trkpt lat="43.6038" lon="5.06325">
        <ele>75</ele>
        <time>2019-12-16T12:47:19Z</time>
      </trkpt>
      <trkpt lat="43.6038" lon="5.06324">
        <ele>75</ele>
        <time>2019-12-16T12:47:20Z</time>
      </trkpt>
      <trkpt lat="43.60381" lon="5.06323">
        <ele>75</ele>
        <time>2019-12-16T12:47:21Z</time>
      </trkpt>
      <trkpt lat="43.60382" lon="5.06322">
        <ele>75</ele>
        <time>2019-12-16T12:47:22Z</time>
      </trkpt>
      <trkpt lat="43.60382" lon="5.06322">
        <ele>75</ele>
        <time>2019-12-16T12:47:23Z</time>
      </trkpt>
      <trkpt lat="43.60383" lon="5.06321">
        <ele>75</ele>
        <time>2019-12-16T12:47:24Z</time>
      </trkpt>
      <trkpt lat="43.60384" lon="5.06319">
        <ele>75</ele>
        <time>2019-12-16T12:47:25Z</time>
      </trkpt>
      <trkpt lat="43.60384" lon="5.06318">
        <ele>75</ele>
        <time>2019-12-16T12:47:26Z</time>
      </trkpt>
      <trkpt lat="43.60385" lon="5.06317">
        <ele>75</ele>
        <time>2019-12-16T12:47:27Z</time>
      </trkpt>
      <trkpt lat="43.60385" lon="5.06316">
        <ele>75</ele>
        <time>2019-12-16T12:47:28Z</time>
      </trkpt>
      <trkpt lat="43.60386" lon="5.06315">
        <ele>75</ele>
        <time>2019-12-16T12:47:29Z</time>
      </trkpt>
      <trkpt lat="43.60387" lon="5.06314">
        <ele>75</ele>
        <time>2019-12-16T12:47:30Z</time>
      </trkpt>
      <trkpt lat="43.60387" lon="5.06313">
        <ele>75</ele>
        <time>2019-12-16T12:47:31Z</time>
      </trkpt>
      <trkpt lat="43.60388" lon="5.06312">
        <ele>75</ele>
        <time>2019-12-16T12:47:32Z</time>
      </trkpt>
      <trkpt lat="43.60388" lon="5.06312">
        <ele>75</ele>
        <time>2019-12-16T12:47:33Z</time>
      </trkpt>
      <trkpt lat="43.60389" lon="5.06311">
        <ele>75</ele>
        <time>2019-12-16T12:47:34Z</time>
      </trkpt>
      <trkpt lat="43.6039" lon="5.0631">
        <ele>75</ele>
        <time>2019-12-16T12:47:35Z</time>
      </trkpt>
      <trkpt lat="43.6039" lon="5.06309">
        <ele>75</ele>
        <time>2019-12-16T12:47:36Z</time>
      </trkpt>
      <trkpt lat="43.60391" lon="5.06308">
        <ele>75</ele>
        <time>2019-12-16T12:47:37Z</time>
      </trkpt>
      <trkpt lat="43.60391" lon="5.06307">
        <ele>75</ele>
        <time>2019-12-16T12:47:38Z</time>
      </trkpt>
      <trkpt lat="43.60392" lon="5.06306">
        <ele>75</ele>
        <time>2019-12-16T12:47:39Z</time>
      </trkpt>
      <trkpt lat="43.60392" lon="5.06305">
        <ele>75</ele>
        <time>2019-12-16T12:47:40Z</time>
      </trkpt>
      <trkpt lat="43.60393" lon="5.06305">
        <ele>75</ele>
        <time>2019-12-16T12:47:41Z</time>
      </trkpt>
      <trkpt lat="43.60393" lon="5.06304">
        <ele>75</ele>
        <time>2019-12-16T12:47:42Z</time>
      </trkpt>
      <trkpt lat="43.60393" lon="5.06302">
        <ele>75</ele>
        <time>2019-12-16T12:47:43Z</time>
      </trkpt>
      <trkpt lat="43.60394" lon="5.06302">
        <ele>75</ele>
        <time>2019-12-16T12:47:44Z</time>
      </trkpt>
      <trkpt lat="43.60394" lon="5.063">
        <ele>75</ele>
        <time>2019-12-16T12:47:45Z</time>
      </trkpt>
      <trkpt lat="43.60394" lon="5.06299">
        <ele>75</ele>
        <time>2019-12-16T12:47:46Z</time>
      </trkpt>
      <trkpt lat="43.60394" lon="5.06298">
        <ele>75</ele>
        <time>2019-12-16T12:47:47Z</time>
      </trkpt>
      <trkpt lat="43.60394" lon="5.06297">
        <ele>75</ele>
        <time>2019-12-16T12:47:48Z</time>
      </trkpt>
      <trkpt lat="43.60394" lon="5.06296">
        <ele>75</ele>
        <time>2019-12-16T12:47:49Z</time>
      </trkpt>
      <trkpt lat="43.60394" lon="5.06295">
        <ele>75</ele>
        <time>2019-12-16T12:47:50Z</time>
      </trkpt>
      <trkpt lat="43.60394" lon="5.06293">
        <ele>75</ele>
        <time>2019-12-16T12:47:51Z</time>
      </trkpt>
      <trkpt lat="43.60394" lon="5.06292">
        <ele>75</ele>
        <time>2019-12-16T12:47:52Z</time>
      </trkpt>
      <trkpt lat="43.60394" lon="5.06291">
        <ele>75</ele>
        <time>2019-12-16T12:47:53Z</time>
      </trkpt>
      <trkpt lat="43.60394" lon="5.0629">
        <ele>75</ele>
        <time>2019-12-16T12:47:54Z</time>
      </trkpt>
      <trkpt lat="43.60394" lon="5.06289">
        <ele>76</ele>
        <time>2019-12-16T12:47:55Z</time>
      </trkpt>
      <trkpt lat="43.60394" lon="5.06288">
        <ele>76</ele>
        <time>2019-12-16T12:47:56Z</time>
      </trkpt>
      <trkpt lat="43.60394" lon="5.06286">
        <ele>76</ele>
        <time>2019-12-16T12:47:57Z</time>
      </trkpt>
      <trkpt lat="43.60394" lon="5.06285">
        <ele>76</ele>
        <time>2019-12-16T12:47:58Z</time>
      </trkpt>
      <trkpt lat="43.60394" lon="5.06284">
        <ele>76</ele>
        <time>2019-12-16T12:47:59Z</time>
      </trkpt>
      <trkpt lat="43.60394" lon="5.06282">
        <ele>76</ele>
        <time>2019-12-16T12:48:00Z</time>
      </trkpt>
      <trkpt lat="43.60394" lon="5.06281">
        <ele>76</ele>
        <time>2019-12-16T12:48:01Z</time>
      </trkpt>
      <trkpt lat="43.60394" lon="5.06279">
        <ele>76</ele>
        <time>2019-12-16T12:48:02Z</time>
      </trkpt>
      <trkpt lat="43.60394" lon="5.06278">
        <ele>76</ele>
        <time>2019-12-16T12:48:03Z</time>
      </trkpt>
      <trkpt lat="43.60394" lon="5.06276">
        <ele>76</ele>
        <time>2019-12-16T12:48:04Z</time>
      </trkpt>
      <trkpt lat="43.60394" lon="5.06275">
        <ele>76</ele>
        <time>2019-12-16T12:48:05Z</time>
      </trkpt>
      <trkpt lat="43.60393" lon="5.06273">
        <ele>76</ele>
        <time>2019-12-16T12:48:06Z</time>
      </trkpt>
      <trkpt lat="43.60393" lon="5.06272">
        <ele>76</ele>
        <time>2019-12-16T12:48:07Z</time>
      </trkpt>
      <trkpt lat="43.60393" lon="5.0627">
        <ele>76</ele>
        <time>2019-12-16T12:48:08Z</time>
      </trkpt>
      <trkpt lat="43.60393" lon="5.06269">
        <ele>76</ele>
        <time>2019-12-16T12:48:09Z</time>
      </trkpt>
      <trkpt lat="43.60392" lon="5.06267">
        <ele>76</ele>
        <time>2019-12-16T12:48:10Z</time>
      </trkpt>
      <trkpt lat="43.60392" lon="5.06266">
        <ele>76</ele>
        <time>2019-12-16T12:48:11Z</time>
      </trkpt>
      <trkpt lat="43.60392" lon="5.06264">
        <ele>76</ele>
        <time>2019-12-16T12:48:12Z</time>
      </trkpt>
      <trkpt lat="43.60392" lon="5.06263">
        <ele>76</ele>
        <time>2019-12-16T12:48:13Z</time>
      </trkpt>
      <trkpt lat="43.60391" lon="5.06262">
        <ele>76</ele>
        <time>2019-12-16T12:48:14Z</time>
      </trkpt>
      <trkpt lat="43.60391" lon="5.0626">
        <ele>76</ele>
        <time>2019-12-16T12:48:15Z</time>
      </trkpt>
      <trkpt lat="43.60391" lon="5.06259">
        <ele>76</ele>
        <time>2019-12-16T12:48:16Z</time>
      </trkpt>
      <trkpt lat="43.60391" lon="5.06258">
        <ele>76</ele>
        <time>2019-12-16T12:48:17Z</time>
      </trkpt>
      <trkpt lat="43.60391" lon="5.06257">
        <ele>76</ele>
        <time>2019-12-16T12:48:18Z</time>
      </trkpt>
      <trkpt lat="43.60391" lon="5.06256">
        <ele>76</ele>
        <time>2019-12-16T12:48:19Z</time>
      </trkpt>
      <trkpt lat="43.60391" lon="5.06255">
        <ele>76</ele>
        <time>2019-12-16T12:48:20Z</time>
      </trkpt>
      <trkpt lat="43.60391" lon="5.06254">
        <ele>76</ele>
        <time>2019-12-16T12:48:21Z</time>
      </trkpt>
      <trkpt lat="43.60391" lon="5.06254">
        <ele>76</ele>
        <time>2019-12-16T12:48:22Z</time>
      </trkpt>
      <trkpt lat="43.60391" lon="5.06253">
        <ele>76</ele>
        <time>2019-12-16T12:48:23Z</time>
      </trkpt>
      <trkpt lat="43.60391" lon="5.06253">
        <ele>76</ele>
        <time>2019-12-16T12:48:24Z</time>
      </trkpt>
      <trkpt lat="43.60391" lon="5.06253">
        <ele>76</ele>
        <time>2019-12-16T12:48:25Z</time>
      </trkpt>
      <trkpt lat="43.60391" lon="5.06253">
        <ele>76</ele>
        <time>2019-12-16T12:48:26Z</time>
      </trkpt>
      <trkpt lat="43.60391" lon="5.06253">
        <ele>76</ele>
        <time>2019-12-16T12:48:27Z</time>
      </trkpt>
      <trkpt lat="43.60391" lon="5.06253">
        <ele>76</ele>
        <time>2019-12-16T12:48:28Z</time>
      </trkpt>
      <trkpt lat="43.60391" lon="5.06253">
        <ele>76</ele>
        <time>2019-12-16T12:48:29Z</time>
      </trkpt>
      <trkpt lat="43.60391" lon="5.06253">
        <ele>76</ele>
        <time>2019-12-16T12:48:30Z</time>
      </trkpt>
      <trkpt lat="43.60391" lon="5.06253">
        <ele>76</ele>
        <time>2019-12-16T12:48:31Z</time>
      </trkpt>
      <trkpt lat="43.60391" lon="5.06253">
        <ele>76</ele>
        <time>2019-12-16T12:48:32Z</time>
      </trkpt>
      <trkpt lat="43.60391" lon="5.06253">
        <ele>76</ele>
        <time>2019-12-16T12:48:33Z</time>
      </trkpt>
      <trkpt lat="43.60391" lon="5.06253">
        <ele>76</ele>
        <time>2019-12-16T12:48:34Z</time>
      </trkpt>
      <trkpt lat="43.60391" lon="5.06253">
        <ele>76</ele>
        <time>2019-12-16T12:48:35Z</time>
      </trkpt>
      <trkpt lat="43.60391" lon="5.06253">
        <ele>76</ele>
        <time>2019-12-16T12:48:36Z</time>
      </trkpt>
      <trkpt lat="43.60391" lon="5.06252">
        <ele>76</ele>
        <time>2019-12-16T12:48:37Z</time>
      </trkpt>
      <trkpt lat="43.60391" lon="5.06252">
        <ele>76</ele>
        <time>2019-12-16T12:48:38Z</time>
      </trkpt>
      <trkpt lat="43.60391" lon="5.06252">
        <ele>76</ele>
        <time>2019-12-16T12:48:39Z</time>
      </trkpt>
      <trkpt lat="43.60391" lon="5.06252">
        <ele>76</ele>
        <time>2019-12-16T12:48:40Z</time>
      </trkpt>
      <trkpt lat="43.60391" lon="5.06252">
        <ele>76</ele>
        <time>2019-12-16T12:48:41Z</time>
      </trkpt>
      <trkpt lat="43.60391" lon="5.06251">
        <ele>76</ele>
        <time>2019-12-16T12:48:42Z</time>
      </trkpt>
      <trkpt lat="43.60391" lon="5.06249">
        <ele>78</ele>
        <time>2019-12-16T12:48:43Z</time>
      </trkpt>
      <trkpt lat="43.60391" lon="5.06248">
        <ele>78</ele>
        <time>2019-12-16T12:48:44Z</time>
      </trkpt>
      <trkpt lat="43.6039" lon="5.06246">
        <ele>78</ele>
        <time>2019-12-16T12:48:45Z</time>
      </trkpt>
      <trkpt lat="43.6039" lon="5.06244">
        <ele>78</ele>
        <time>2019-12-16T12:48:46Z</time>
      </trkpt>
      <trkpt lat="43.6039" lon="5.06243">
        <ele>78</ele>
        <time>2019-12-16T12:48:47Z</time>
      </trkpt>
      <trkpt lat="43.6039" lon="5.06241">
        <ele>78</ele>
        <time>2019-12-16T12:48:48Z</time>
      </trkpt>
      <trkpt lat="43.60391" lon="5.0624">
        <ele>78</ele>
        <time>2019-12-16T12:48:49Z</time>
      </trkpt>
      <trkpt lat="43.60391" lon="5.06238">
        <ele>78</ele>
        <time>2019-12-16T12:48:50Z</time>
      </trkpt>
      <trkpt lat="43.60391" lon="5.06237">
        <ele>78</ele>
        <time>2019-12-16T12:48:51Z</time>
      </trkpt>
      <trkpt lat="43.60391" lon="5.06235">
        <ele>78</ele>
        <time>2019-12-16T12:48:52Z</time>
      </trkpt>
      <trkpt lat="43.60391" lon="5.06233">
        <ele>78</ele>
        <time>2019-12-16T12:48:53Z</time>
      </trkpt>
      <trkpt lat="43.60391" lon="5.06232">
        <ele>78</ele>
        <time>2019-12-16T12:48:54Z</time>
      </trkpt>
      <trkpt lat="43.60391" lon="5.0623">
        <ele>78</ele>
        <time>2019-12-16T12:48:55Z</time>
      </trkpt>
      <trkpt lat="43.60391" lon="5.06229">
        <ele>78</ele>
        <time>2019-12-16T12:48:56Z</time>
      </trkpt>
      <trkpt lat="43.60391" lon="5.06227">
        <ele>78</ele>
        <time>2019-12-16T12:48:57Z</time>
      </trkpt>
      <trkpt lat="43.60391" lon="5.06226">
        <ele>78</ele>
        <time>2019-12-16T12:48:58Z</time>
      </trkpt>
      <trkpt lat="43.60391" lon="5.06224">
        <ele>78</ele>
        <time>2019-12-16T12:48:59Z</time>
      </trkpt>
      <trkpt lat="43.60391" lon="5.06223">
        <ele>78</ele>
        <time>2019-12-16T12:49:00Z</time>
      </trkpt>
      <trkpt lat="43.60391" lon="5.06221">
        <ele>78</ele>
        <time>2019-12-16T12:49:01Z</time>
      </trkpt>
      <trkpt lat="43.60391" lon="5.0622">
        <ele>78</ele>
        <time>2019-12-16T12:49:02Z</time>
      </trkpt>
      <trkpt lat="43.60391" lon="5.06218">
        <ele>78</ele>
        <time>2019-12-16T12:49:03Z</time>
      </trkpt>
      <trkpt lat="43.60391" lon="5.06217">
        <ele>78</ele>
        <time>2019-12-16T12:49:04Z</time>
      </trkpt>
      <trkpt lat="43.60391" lon="5.06215">
        <ele>78</ele>
        <time>2019-12-16T12:49:05Z</time>
      </trkpt>
      <trkpt lat="43.60391" lon="5.06214">
        <ele>78</ele>
        <time>2019-12-16T12:49:06Z</time>
      </trkpt>
      <trkpt lat="43.60391" lon="5.06212">
        <ele>78</ele>
        <time>2019-12-16T12:49:07Z</time>
      </trkpt>
      <trkpt lat="43.60391" lon="5.06211">
        <ele>78</ele>
        <time>2019-12-16T12:49:08Z</time>
      </trkpt>
      <trkpt lat="43.60391" lon="5.06209">
        <ele>78</ele>
        <time>2019-12-16T12:49:09Z</time>
      </trkpt>
      <trkpt lat="43.60391" lon="5.06208">
        <ele>78</ele>
        <time>2019-12-16T12:49:10Z</time>
      </trkpt>
      <trkpt lat="43.60391" lon="5.06206">
        <ele>78</ele>
        <time>2019-12-16T12:49:11Z</time>
      </trkpt>
      <trkpt lat="43.60391" lon="5.06205">
        <ele>78</ele>
        <time>2019-12-16T12:49:12Z</time>
      </trkpt>
      <trkpt lat="43.60391" lon="5.06203">
        <ele>78</ele>
        <time>2019-12-16T12:49:13Z</time>
      </trkpt>
      <trkpt lat="43.60392" lon="5.06202">
        <ele>78</ele>
        <time>2019-12-16T12:49:14Z</time>
      </trkpt>
      <trkpt lat="43.60392" lon="5.062">
        <ele>78</ele>
        <time>2019-12-16T12:49:15Z</time>
      </trkpt>
      <trkpt lat="43.60392" lon="5.06199">
        <ele>78</ele>
        <time>2019-12-16T12:49:16Z</time>
      </trkpt>
      <trkpt lat="43.60392" lon="5.06197">
        <ele>78</ele>
        <time>2019-12-16T12:49:17Z</time>
      </trkpt>
      <trkpt lat="43.60392" lon="5.06196">
        <ele>78</ele>
        <time>2019-12-16T12:49:18Z</time>
      </trkpt>
      <trkpt lat="43.60392" lon="5.06194">
        <ele>78</ele>
        <time>2019-12-16T12:49:19Z</time>
      </trkpt>
      <trkpt lat="43.60393" lon="5.06193">
        <ele>78</ele>
        <time>2019-12-16T12:49:20Z</time>
      </trkpt>
      <trkpt lat="43.60393" lon="5.06192">
        <ele>78</ele>
        <time>2019-12-16T12:49:21Z</time>
      </trkpt>
      <trkpt lat="43.60393" lon="5.0619">
        <ele>78</ele>
        <time>2019-12-16T12:49:22Z</time>
      </trkpt>
      <trkpt lat="43.60393" lon="5.06189">
        <ele>78</ele>
        <time>2019-12-16T12:49:23Z</time>
      </trkpt>
      <trkpt lat="43.60393" lon="5.06187">
        <ele>78</ele>
        <time>2019-12-16T12:49:24Z</time>
      </trkpt>
      <trkpt lat="43.60394" lon="5.06186">
        <ele>78</ele>
        <time>2019-12-16T12:49:25Z</time>
      </trkpt>
      <trkpt lat="43.60394" lon="5.06185">
        <ele>78</ele>
        <time>2019-12-16T12:49:26Z</time>
      </trkpt>
      <trkpt lat="43.60394" lon="5.06184">
        <ele>78</ele>
        <time>2019-12-16T12:49:27Z</time>
      </trkpt>
      <trkpt lat="43.60394" lon="5.06182">
        <ele>78</ele>
        <time>2019-12-16T12:49:28Z</time>
      </trkpt>
      <trkpt lat="43.60394" lon="5.06181">
        <ele>78</ele>
        <time>2019-12-16T12:49:29Z</time>
      </trkpt>
      <trkpt lat="43.60394" lon="5.0618">
        <ele>78</ele>
        <time>2019-12-16T12:49:30Z</time>
      </trkpt>
      <trkpt lat="43.60393" lon="5.06179">
        <ele>78</ele>
        <time>2019-12-16T12:49:31Z</time>
      </trkpt>
      <trkpt lat="43.60393" lon="5.06178">
        <ele>78</ele>
        <time>2019-12-16T12:49:32Z</time>
      </trkpt>
      <trkpt lat="43.60393" lon="5.06177">
        <ele>78</ele>
        <time>2019-12-16T12:49:33Z</time>
      </trkpt>
      <trkpt lat="43.60392" lon="5.06177">
        <ele>78</ele>
        <time>2019-12-16T12:49:34Z</time>
      </trkpt>
      <trkpt lat="43.60391" lon="5.06176">
        <ele>78</ele>
        <time>2019-12-16T12:49:35Z</time>
      </trkpt>
      <trkpt lat="43.6039" lon="5.06176">
        <ele>78</ele>
        <time>2019-12-16T12:49:36Z</time>
      </trkpt>
      <trkpt lat="43.60389" lon="5.06175">
        <ele>78</ele>
        <time>2019-12-16T12:49:37Z</time>
      </trkpt>
      <trkpt lat="43.60388" lon="5.06175">
        <ele>78</ele>
        <time>2019-12-16T12:49:38Z</time>
      </trkpt>
      <trkpt lat="43.60387" lon="5.06174">
        <ele>79</ele>
        <time>2019-12-16T12:49:39Z</time>
      </trkpt>
      <trkpt lat="43.60386" lon="5.06174">
        <ele>79</ele>
        <time>2019-12-16T12:49:40Z</time>
      </trkpt>
      <trkpt lat="43.60385" lon="5.06173">
        <ele>79</ele>
        <time>2019-12-16T12:49:41Z</time>
      </trkpt>
      <trkpt lat="43.60384" lon="5.06172">
        <ele>79</ele>
        <time>2019-12-16T12:49:42Z</time>
      </trkpt>
      <trkpt lat="43.60383" lon="5.06172">
        <ele>79</ele>
        <time>2019-12-16T12:49:43Z</time>
      </trkpt>
      <trkpt lat="43.60383" lon="5.06171">
        <ele>79</ele>
        <time>2019-12-16T12:49:44Z</time>
      </trkpt>
      <trkpt lat="43.60382" lon="5.06169">
        <ele>79</ele>
        <time>2019-12-16T12:49:45Z</time>
      </trkpt>
      <trkpt lat="43.60382" lon="5.06168">
        <ele>79</ele>
        <time>2019-12-16T12:49:46Z</time>
      </trkpt>
      <trkpt lat="43.60382" lon="5.06166">
        <ele>79</ele>
        <time>2019-12-16T12:49:47Z</time>
      </trkpt>
      <trkpt lat="43.60382" lon="5.06165">
        <ele>79</ele>
        <time>2019-12-16T12:49:48Z</time>
      </trkpt>
      <trkpt lat="43.60382" lon="5.06163">
        <ele>79</ele>
        <time>2019-12-16T12:49:49Z</time>
      </trkpt>
      <trkpt lat="43.60383" lon="5.06162">
        <ele>79</ele>
        <time>2019-12-16T12:49:50Z</time>
      </trkpt>
      <trkpt lat="43.60383" lon="5.06161">
        <ele>79</ele>
        <time>2019-12-16T12:49:51Z</time>
      </trkpt>
      <trkpt lat="43.60384" lon="5.06159">
        <ele>79</ele>
        <time>2019-12-16T12:49:52Z</time>
      </trkpt>
      <trkpt lat="43.60385" lon="5.06158">
        <ele>79</ele>
        <time>2019-12-16T12:49:53Z</time>
      </trkpt>
      <trkpt lat="43.60386" lon="5.06157">
        <ele>79</ele>
        <time>2019-12-16T12:49:54Z</time>
      </trkpt>
      <trkpt lat="43.60387" lon="5.06156">
        <ele>79</ele>
        <time>2019-12-16T12:49:55Z</time>
      </trkpt>
      <trkpt lat="43.60388" lon="5.06154">
        <ele>79</ele>
        <time>2019-12-16T12:49:56Z</time>
      </trkpt>
      <trkpt lat="43.60389" lon="5.06153">
        <ele>79</ele>
        <time>2019-12-16T12:49:57Z</time>
      </trkpt>
      <trkpt lat="43.6039" lon="5.06152">
        <ele>79</ele>
        <time>2019-12-16T12:49:58Z</time>
      </trkpt>
      <trkpt lat="43.60391" lon="5.06151">
        <ele>79</ele>
        <time>2019-12-16T12:49:59Z</time>
      </trkpt>
      <trkpt lat="43.60391" lon="5.0615">
        <ele>79</ele>
        <time>2019-12-16T12:50:00Z</time>
      </trkpt>
      <trkpt lat="43.60392" lon="5.06149">
        <ele>79</ele>
        <time>2019-12-16T12:50:01Z</time>
      </trkpt>
      <trkpt lat="43.60392" lon="5.06148">
        <ele>79</ele>
        <time>2019-12-16T12:50:02Z</time>
      </trkpt>
      <trkpt lat="43.60393" lon="5.06147">
        <ele>79</ele>
        <time>2019-12-16T12:50:03Z</time>
      </trkpt>
      <trkpt lat="43.60393" lon="5.06146">
        <ele>79</ele>
        <time>2019-12-16T12:50:04Z</time>
      </trkpt>
      <trkpt lat="43.60394" lon="5.06145">
        <ele>79</ele>
        <time>2019-12-16T12:50:05Z</time>
      </trkpt>
      <trkpt lat="43.60395" lon="5.06144">
        <ele>79</ele>
        <time>2019-12-16T12:50:06Z</time>
      </trkpt>
      <trkpt lat="43.60395" lon="5.06143">
        <ele>79</ele>
        <time>2019-12-16T12:50:07Z</time>
      </trkpt>
      <trkpt lat="43.60396" lon="5.06142">
        <ele>79</ele>
        <time>2019-12-16T12:50:08Z</time>
      </trkpt>
      <trkpt lat="43.60396" lon="5.06141">
        <ele>79</ele>
        <time>2019-12-16T12:50:09Z</time>
      </trkpt>
      <trkpt lat="43.60397" lon="5.0614">
        <ele>79</ele>
        <time>2019-12-16T12:50:10Z</time>
      </trkpt>
      <trkpt lat="43.60398" lon="5.06139">
        <ele>79</ele>
        <time>2019-12-16T12:50:11Z</time>
      </trkpt>
      <trkpt lat="43.60398" lon="5.06139">
        <ele>79</ele>
        <time>2019-12-16T12:50:12Z</time>
      </trkpt>
      <trkpt lat="43.60399" lon="5.06138">
        <ele>79</ele>
        <time>2019-12-16T12:50:13Z</time>
      </trkpt>
      <trkpt lat="43.60399" lon="5.06137">
        <ele>79</ele>
        <time>2019-12-16T12:50:14Z</time>
      </trkpt>
      <trkpt lat="43.604" lon="5.06135">
        <ele>79</ele>
        <time>2019-12-16T12:50:15Z</time>
      </trkpt>
      <trkpt lat="43.604" lon="5.06134">
        <ele>79</ele>
        <time>2019-12-16T12:50:16Z</time>
      </trkpt>
      <trkpt lat="43.60401" lon="5.06133">
        <ele>79</ele>
        <time>2019-12-16T12:50:17Z</time>
      </trkpt>
      <trkpt lat="43.60401" lon="5.06132">
        <ele>79</ele>
        <time>2019-12-16T12:50:18Z</time>
      </trkpt>
      <trkpt lat="43.60402" lon="5.06131">
        <ele>79</ele>
        <time>2019-12-16T12:50:19Z</time>
      </trkpt>
      <trkpt lat="43.60402" lon="5.0613">
        <ele>79</ele>
        <time>2019-12-16T12:50:20Z</time>
      </trkpt>
      <trkpt lat="43.60403" lon="5.06129">
        <ele>79</ele>
        <time>2019-12-16T12:50:21Z</time>
      </trkpt>
      <trkpt lat="43.60404" lon="5.06128">
        <ele>79</ele>
        <time>2019-12-16T12:50:22Z</time>
      </trkpt>
      <trkpt lat="43.60404" lon="5.06126">
        <ele>79</ele>
        <time>2019-12-16T12:50:23Z</time>
      </trkpt>
      <trkpt lat="43.60405" lon="5.06126">
        <ele>79</ele>
        <time>2019-12-16T12:50:24Z</time>
      </trkpt>
      <trkpt lat="43.60406" lon="5.06125">
        <ele>79</ele>
        <time>2019-12-16T12:50:25Z</time>
      </trkpt>
      <trkpt lat="43.60407" lon="5.06124">
        <ele>79</ele>
        <time>2019-12-16T12:50:26Z</time>
      </trkpt>
      <trkpt lat="43.60408" lon="5.06123">
        <ele>79</ele>
        <time>2019-12-16T12:50:27Z</time>
      </trkpt>
      <trkpt lat="43.6041" lon="5.06122">
        <ele>79</ele>
        <time>2019-12-16T12:50:28Z</time>
      </trkpt>
      <trkpt lat="43.60411" lon="5.06122">
        <ele>79</ele>
        <time>2019-12-16T12:50:29Z</time>
      </trkpt>
      <trkpt lat="43.60411" lon="5.06121">
        <ele>79</ele>
        <time>2019-12-16T12:50:30Z</time>
      </trkpt>
      <trkpt lat="43.60412" lon="5.06119">
        <ele>79</ele>
        <time>2019-12-16T12:50:31Z</time>
      </trkpt>
      <trkpt lat="43.60412" lon="5.06118">
        <ele>79</ele>
        <time>2019-12-16T12:50:32Z</time>
      </trkpt>
      <trkpt lat="43.60412" lon="5.06117">
        <ele>79</ele>
        <time>2019-12-16T12:50:33Z</time>
      </trkpt>
      <trkpt lat="43.60412" lon="5.06116">
        <ele>79</ele>
        <time>2019-12-16T12:50:34Z</time>
      </trkpt>
      <trkpt lat="43.60412" lon="5.06115">
        <ele>79</ele>
        <time>2019-12-16T12:50:35Z</time>
      </trkpt>
      <trkpt lat="43.60412" lon="5.06114">
        <ele>79</ele>
        <time>2019-12-16T12:50:36Z</time>
      </trkpt>
      <trkpt lat="43.60412" lon="5.06113">
        <ele>79</ele>
        <time>2019-12-16T12:50:37Z</time>
      </trkpt>
      <trkpt lat="43.60412" lon="5.06112">
        <ele>79</ele>
        <time>2019-12-16T12:50:38Z</time>
      </trkpt>
      <trkpt lat="43.60411" lon="5.06112">
        <ele>79</ele>
        <time>2019-12-16T12:50:39Z</time>
      </trkpt>
      <trkpt lat="43.60411" lon="5.06111">
        <ele>79</ele>
        <time>2019-12-16T12:50:40Z</time>
      </trkpt>
      <trkpt lat="43.6041" lon="5.0611">
        <ele>79</ele>
        <time>2019-12-16T12:50:41Z</time>
      </trkpt>
      <trkpt lat="43.6041" lon="5.0611">
        <ele>79</ele>
        <time>2019-12-16T12:50:42Z</time>
      </trkpt>
      <trkpt lat="43.6041" lon="5.06109">
        <ele>79</ele>
        <time>2019-12-16T12:50:43Z</time>
      </trkpt>
      <trkpt lat="43.60409" lon="5.06109">
        <ele>79</ele>
        <time>2019-12-16T12:50:44Z</time>
      </trkpt>
      <trkpt lat="43.60409" lon="5.06109">
        <ele>79</ele>
        <time>2019-12-16T12:50:45Z</time>
      </trkpt>
      <trkpt lat="43.60408" lon="5.06109">
        <ele>79</ele>
        <time>2019-12-16T12:50:46Z</time>
      </trkpt>
      <trkpt lat="43.60408" lon="5.06109">
        <ele>79</ele>
        <time>2019-12-16T12:50:47Z</time>
      </trkpt>
      <trkpt lat="43.60407" lon="5.06109">
        <ele>79</ele>
        <time>2019-12-16T12:50:48Z</time>
      </trkpt>
      <trkpt lat="43.60407" lon="5.06109">
        <ele>79</ele>
        <time>2019-12-16T12:50:49Z</time>
      </trkpt>
      <trkpt lat="43.60407" lon="5.06109">
        <ele>80</ele>
        <time>2019-12-16T12:50:50Z</time>
      </trkpt>
      <trkpt lat="43.60406" lon="5.06109">
        <ele>80</ele>
        <time>2019-12-16T12:50:51Z</time>
      </trkpt>
      <trkpt lat="43.60406" lon="5.06108">
        <ele>80</ele>
        <time>2019-12-16T12:50:52Z</time>
      </trkpt>
      <trkpt lat="43.60405" lon="5.06108">
        <ele>80</ele>
        <time>2019-12-16T12:50:53Z</time>
      </trkpt>
      <trkpt lat="43.60404" lon="5.06107">
        <ele>80</ele>
        <time>2019-12-16T12:50:54Z</time>
      </trkpt>
      <trkpt lat="43.60404" lon="5.06107">
        <ele>80</ele>
        <time>2019-12-16T12:50:55Z</time>
      </trkpt>
      <trkpt lat="43.60403" lon="5.06106">
        <ele>80</ele>
        <time>2019-12-16T12:50:56Z</time>
      </trkpt>
      <trkpt lat="43.60402" lon="5.06104">
        <ele>80</ele>
        <time>2019-12-16T12:50:57Z</time>
      </trkpt>
      <trkpt lat="43.60401" lon="5.06103">
        <ele>80</ele>
        <time>2019-12-16T12:50:58Z</time>
      </trkpt>
      <trkpt lat="43.604" lon="5.06102">
        <ele>80</ele>
        <time>2019-12-16T12:50:59Z</time>
      </trkpt>
      <trkpt lat="43.60399" lon="5.06101">
        <ele>80</ele>
        <time>2019-12-16T12:51:00Z</time>
      </trkpt>
      <trkpt lat="43.60398" lon="5.06101">
        <ele>80</ele>
        <time>2019-12-16T12:51:01Z</time>
      </trkpt>
      <trkpt lat="43.60397" lon="5.061">
        <ele>80</ele>
        <time>2019-12-16T12:51:02Z</time>
      </trkpt>
      <trkpt lat="43.60396" lon="5.061">
        <ele>80</ele>
        <time>2019-12-16T12:51:03Z</time>
      </trkpt>
      <trkpt lat="43.60395" lon="5.06099">
        <ele>80</ele>
        <time>2019-12-16T12:51:04Z</time>
      </trkpt>
      <trkpt lat="43.60394" lon="5.06099">
        <ele>80</ele>
        <time>2019-12-16T12:51:05Z</time>
      </trkpt>
      <trkpt lat="43.60393" lon="5.06099">
        <ele>80</ele>
        <time>2019-12-16T12:51:06Z</time>
      </trkpt>
      <trkpt lat="43.60392" lon="5.06098">
        <ele>80</ele>
        <time>2019-12-16T12:51:07Z</time>
      </trkpt>
      <trkpt lat="43.60391" lon="5.06097">
        <ele>80</ele>
        <time>2019-12-16T12:51:08Z</time>
      </trkpt>
      <trkpt lat="43.60389" lon="5.06096">
        <ele>80</ele>
        <time>2019-12-16T12:51:09Z</time>
      </trkpt>
      <trkpt lat="43.60388" lon="5.06095">
        <ele>80</ele>
        <time>2019-12-16T12:51:10Z</time>
      </trkpt>
      <trkpt lat="43.60388" lon="5.06095">
        <ele>80</ele>
        <time>2019-12-16T12:51:11Z</time>
      </trkpt>
      <trkpt lat="43.60387" lon="5.06094">
        <ele>80</ele>
        <time>2019-12-16T12:51:12Z</time>
      </trkpt>
      <trkpt lat="43.60386" lon="5.06094">
        <ele>80</ele>
        <time>2019-12-16T12:51:13Z</time>
      </trkpt>
      <trkpt lat="43.60385" lon="5.06094">
        <ele>80</ele>
        <time>2019-12-16T12:51:14Z</time>
      </trkpt>
      <trkpt lat="43.60384" lon="5.06093">
        <ele>80</ele>
        <time>2019-12-16T12:51:15Z</time>
      </trkpt>
      <trkpt lat="43.60383" lon="5.06093">
        <ele>80</ele>
        <time>2019-12-16T12:51:16Z</time>
      </trkpt>
      <trkpt lat="43.60382" lon="5.06093">
        <ele>80</ele>
        <time>2019-12-16T12:51:17Z</time>
      </trkpt>
      <trkpt lat="43.60381" lon="5.06093">
        <ele>80</ele>
        <time>2019-12-16T12:51:18Z</time>
      </trkpt>
      <trkpt lat="43.60381" lon="5.06093">
        <ele>80</ele>
        <time>2019-12-16T12:51:19Z</time>
      </trkpt>
      <trkpt lat="43.6038" lon="5.06093">
        <ele>80</ele>
        <time>2019-12-16T12:51:20Z</time>
      </trkpt>
      <trkpt lat="43.60379" lon="5.06093">
        <ele>80</ele>
        <time>2019-12-16T12:51:21Z</time>
      </trkpt>
      <trkpt lat="43.60378" lon="5.06093">
        <ele>80</ele>
        <time>2019-12-16T12:51:22Z</time>
      </trkpt>
      <trkpt lat="43.60377" lon="5.06093">
        <ele>80</ele>
        <time>2019-12-16T12:51:23Z</time>
      </trkpt>
      <trkpt lat="43.60376" lon="5.06093">
        <ele>80</ele>
        <time>2019-12-16T12:51:24Z</time>
      </trkpt>
      <trkpt lat="43.60375" lon="5.06092">
        <ele>80</ele>
        <time>2019-12-16T12:51:25Z</time>
      </trkpt>
      <trkpt lat="43.60374" lon="5.06092">
        <ele>80</ele>
        <time>2019-12-16T12:51:26Z</time>
      </trkpt>
      <trkpt lat="43.60373" lon="5.06092">
        <ele>80</ele>
        <time>2019-12-16T12:51:27Z</time>
      </trkpt>
      <trkpt lat="43.60372" lon="5.06092">
        <ele>80</ele>
        <time>2019-12-16T12:51:28Z</time>
      </trkpt>
      <trkpt lat="43.60371" lon="5.06092">
        <ele>80</ele>
        <time>2019-12-16T12:51:29Z</time>
      </trkpt>
      <trkpt lat="43.6037" lon="5.06091">
        <ele>81</ele>
        <time>2019-12-16T12:51:30Z</time>
      </trkpt>
      <trkpt lat="43.60369" lon="5.06091">
        <ele>81</ele>
        <time>2019-12-16T12:51:31Z</time>
      </trkpt>
      <trkpt lat="43.60368" lon="5.06091">
        <ele>81</ele>
        <time>2019-12-16T12:51:32Z</time>
      </trkpt>
      <trkpt lat="43.60368" lon="5.0609">
        <ele>81</ele>
        <time>2019-12-16T12:51:33Z</time>
      </trkpt>
      <trkpt lat="43.60367" lon="5.0609">
        <ele>81</ele>
        <time>2019-12-16T12:51:34Z</time>
      </trkpt>
      <trkpt lat="43.60366" lon="5.06089">
        <ele>81</ele>
        <time>2019-12-16T12:51:35Z</time>
      </trkpt>
      <trkpt lat="43.60365" lon="5.06089">
        <ele>81</ele>
        <time>2019-12-16T12:51:36Z</time>
      </trkpt>
      <trkpt lat="43.60364" lon="5.06088">
        <ele>81</ele>
        <time>2019-12-16T12:51:37Z</time>
      </trkpt>
      <trkpt lat="43.60363" lon="5.06088">
        <ele>81</ele>
        <time>2019-12-16T12:51:38Z</time>
      </trkpt>
      <trkpt lat="43.60362" lon="5.06087">
        <ele>81</ele>
        <time>2019-12-16T12:51:39Z</time>
      </trkpt>
      <trkpt lat="43.60361" lon="5.06087">
        <ele>81</ele>
        <time>2019-12-16T12:51:40Z</time>
      </trkpt>
      <trkpt lat="43.6036" lon="5.06086">
        <ele>81</ele>
        <time>2019-12-16T12:51:41Z</time>
      </trkpt>
      <trkpt lat="43.60359" lon="5.06086">
        <ele>81</ele>
        <time>2019-12-16T12:51:42Z</time>
      </trkpt>
      <trkpt lat="43.60358" lon="5.06085">
        <ele>81</ele>
        <time>2019-12-16T12:51:43Z</time>
      </trkpt>
      <trkpt lat="43.60357" lon="5.06085">
        <ele>81</ele>
        <time>2019-12-16T12:51:44Z</time>
      </trkpt>
      <trkpt lat="43.60356" lon="5.06084">
        <ele>81</ele>
        <time>2019-12-16T12:51:45Z</time>
      </trkpt>
      <trkpt lat="43.60354" lon="5.06084">
        <ele>81</ele>
        <time>2019-12-16T12:51:46Z</time>
      </trkpt>
      <trkpt lat="43.60353" lon="5.06083">
        <ele>81</ele>
        <time>2019-12-16T12:51:47Z</time>
      </trkpt>
      <trkpt lat="43.60352" lon="5.06083">
        <ele>82</ele>
        <time>2019-12-16T12:51:48Z</time>
      </trkpt>
      <trkpt lat="43.60351" lon="5.06083">
        <ele>82</ele>
        <time>2019-12-16T12:51:49Z</time>
      </trkpt>
      <trkpt lat="43.60349" lon="5.06083">
        <ele>82</ele>
        <time>2019-12-16T12:51:50Z</time>
      </trkpt>
      <trkpt lat="43.60348" lon="5.06082">
        <ele>82</ele>
        <time>2019-12-16T12:51:51Z</time>
      </trkpt>
      <trkpt lat="43.60347" lon="5.06082">
        <ele>82</ele>
        <time>2019-12-16T12:51:52Z</time>
      </trkpt>
      <trkpt lat="43.60346" lon="5.06082">
        <ele>82</ele>
        <time>2019-12-16T12:51:53Z</time>
      </trkpt>
      <trkpt lat="43.60345" lon="5.06082">
        <ele>82</ele>
        <time>2019-12-16T12:51:54Z</time>
      </trkpt>
      <trkpt lat="43.60344" lon="5.06082">
        <ele>82</ele>
        <time>2019-12-16T12:51:55Z</time>
      </trkpt>
      <trkpt lat="43.60342" lon="5.06081">
        <ele>82</ele>
        <time>2019-12-16T12:51:56Z</time>
      </trkpt>
      <trkpt lat="43.60342" lon="5.06081">
        <ele>83</ele>
        <time>2019-12-16T12:51:57Z</time>
      </trkpt>
      <trkpt lat="43.60341" lon="5.06081">
        <ele>83</ele>
        <time>2019-12-16T12:51:58Z</time>
      </trkpt>
      <trkpt lat="43.6034" lon="5.06081">
        <ele>83</ele>
        <time>2019-12-16T12:51:59Z</time>
      </trkpt>
      <trkpt lat="43.60339" lon="5.0608">
        <ele>83</ele>
        <time>2019-12-16T12:52:00Z</time>
      </trkpt>
      <trkpt lat="43.60338" lon="5.0608">
        <ele>83</ele>
        <time>2019-12-16T12:52:01Z</time>
      </trkpt>
      <trkpt lat="43.60337" lon="5.0608">
        <ele>83</ele>
        <time>2019-12-16T12:52:02Z</time>
      </trkpt>
      <trkpt lat="43.60336" lon="5.0608">
        <ele>83</ele>
        <time>2019-12-16T12:52:03Z</time>
      </trkpt>
      <trkpt lat="43.60336" lon="5.06079">
        <ele>83</ele>
        <time>2019-12-16T12:52:04Z</time>
      </trkpt>
      <trkpt lat="43.60335" lon="5.06079">
        <ele>83</ele>
        <time>2019-12-16T12:52:05Z</time>
      </trkpt>
      <trkpt lat="43.60334" lon="5.06079">
        <ele>83</ele>
        <time>2019-12-16T12:52:06Z</time>
      </trkpt>
      <trkpt lat="43.60333" lon="5.06079">
        <ele>83</ele>
        <time>2019-12-16T12:52:07Z</time>
      </trkpt>
      <trkpt lat="43.60332" lon="5.06079">
        <ele>83</ele>
        <time>2019-12-16T12:52:08Z</time>
      </trkpt>
      <trkpt lat="43.60332" lon="5.06079">
        <ele>83</ele>
        <time>2019-12-16T12:52:09Z</time>
      </trkpt>
      <trkpt lat="43.60331" lon="5.06078">
        <ele>83</ele>
        <time>2019-12-16T12:52:10Z</time>
      </trkpt>
      <trkpt lat="43.6033" lon="5.06078">
        <ele>83</ele>
        <time>2019-12-16T12:52:11Z</time>
      </trkpt>
      <trkpt lat="43.60329" lon="5.06078">
        <ele>83</ele>
        <time>2019-12-16T12:52:12Z</time>
      </trkpt>
      <trkpt lat="43.60328" lon="5.06078">
        <ele>83</ele>
        <time>2019-12-16T12:52:13Z</time>
      </trkpt>
      <trkpt lat="43.60328" lon="5.06078">
        <ele>83</ele>
        <time>2019-12-16T12:52:14Z</time>
      </trkpt>
      <trkpt lat="43.60327" lon="5.06078">
        <ele>83</ele>
        <time>2019-12-16T12:52:15Z</time>
      </trkpt>
      <trkpt lat="43.60326" lon="5.06078">
        <ele>83</ele>
        <time>2019-12-16T12:52:16Z</time>
      </trkpt>
      <trkpt lat="43.60326" lon="5.06078">
        <ele>83</ele>
        <time>2019-12-16T12:52:17Z</time>
      </trkpt>
      <trkpt lat="43.60325" lon="5.06077">
        <ele>83</ele>
        <time>2019-12-16T12:52:18Z</time>
      </trkpt>
      <trkpt lat="43.60325" lon="5.06077">
        <ele>83</ele>
        <time>2019-12-16T12:52:19Z</time>
      </trkpt>
      <trkpt lat="43.60324" lon="5.06077">
        <ele>83</ele>
        <time>2019-12-16T12:52:20Z</time>
      </trkpt>
      <trkpt lat="43.60324" lon="5.06077">
        <ele>83</ele>
        <time>2019-12-16T12:52:21Z</time>
      </trkpt>
      <trkpt lat="43.60323" lon="5.06077">
        <ele>83</ele>
        <time>2019-12-16T12:52:22Z</time>
      </trkpt>
      <trkpt lat="43.60322" lon="5.06076">
        <ele>83</ele>
        <time>2019-12-16T12:52:23Z</time>
      </trkpt>
      <trkpt lat="43.6032" lon="5.06076">
        <ele>83</ele>
        <time>2019-12-16T12:52:24Z</time>
      </trkpt>
      <trkpt lat="43.60319" lon="5.06076">
        <ele>83</ele>
        <time>2019-12-16T12:52:25Z</time>
      </trkpt>
      <trkpt lat="43.60317" lon="5.06076">
        <ele>84</ele>
        <time>2019-12-16T12:52:26Z</time>
      </trkpt>
      <trkpt lat="43.60315" lon="5.06075">
        <ele>84</ele>
        <time>2019-12-16T12:52:27Z</time>
      </trkpt>
      <trkpt lat="43.60313" lon="5.06075">
        <ele>84</ele>
        <time>2019-12-16T12:52:28Z</time>
      </trkpt>
      <trkpt lat="43.60311" lon="5.06075">
        <ele>84</ele>
        <time>2019-12-16T12:52:29Z</time>
      </trkpt>
      <trkpt lat="43.6031" lon="5.06075">
        <ele>84</ele>
        <time>2019-12-16T12:52:30Z</time>
      </trkpt>
      <trkpt lat="43.60308" lon="5.06075">
        <ele>84</ele>
        <time>2019-12-16T12:52:31Z</time>
      </trkpt>
      <trkpt lat="43.60306" lon="5.06074">
        <ele>84</ele>
        <time>2019-12-16T12:52:32Z</time>
      </trkpt>
      <trkpt lat="43.60305" lon="5.06074">
        <ele>84</ele>
        <time>2019-12-16T12:52:33Z</time>
      </trkpt>
      <trkpt lat="43.60304" lon="5.06074">
        <ele>84</ele>
        <time>2019-12-16T12:52:34Z</time>
      </trkpt>
      <trkpt lat="43.60303" lon="5.06073">
        <ele>84</ele>
        <time>2019-12-16T12:52:35Z</time>
      </trkpt>
      <trkpt lat="43.60302" lon="5.06073">
        <ele>84</ele>
        <time>2019-12-16T12:52:36Z</time>
      </trkpt>
      <trkpt lat="43.60301" lon="5.06073">
        <ele>84</ele>
        <time>2019-12-16T12:52:37Z</time>
      </trkpt>
      <trkpt lat="43.603" lon="5.06073">
        <ele>84</ele>
        <time>2019-12-16T12:52:38Z</time>
      </trkpt>
      <trkpt lat="43.60299" lon="5.06072">
        <ele>84</ele>
        <time>2019-12-16T12:52:39Z</time>
      </trkpt>
      <trkpt lat="43.60298" lon="5.06072">
        <ele>84</ele>
        <time>2019-12-16T12:52:40Z</time>
      </trkpt>
      <trkpt lat="43.60298" lon="5.06072">
        <ele>84</ele>
        <time>2019-12-16T12:52:41Z</time>
      </trkpt>
      <trkpt lat="43.60297" lon="5.06072">
        <ele>84</ele>
        <time>2019-12-16T12:52:42Z</time>
      </trkpt>
      <trkpt lat="43.60296" lon="5.06072">
        <ele>84</ele>
        <time>2019-12-16T12:52:43Z</time>
      </trkpt>
      <trkpt lat="43.60295" lon="5.06072">
        <ele>84</ele>
        <time>2019-12-16T12:52:44Z</time>
      </trkpt>
      <trkpt lat="43.60295" lon="5.06071">
        <ele>84</ele>
        <time>2019-12-16T12:52:45Z</time>
      </trkpt>
      <trkpt lat="43.60294" lon="5.06071">
        <ele>84</ele>
        <time>2019-12-16T12:52:46Z</time>
      </trkpt>
      <trkpt lat="43.60293" lon="5.06071">
        <ele>84</ele>
        <time>2019-12-16T12:52:47Z</time>
      </trkpt>
      <trkpt lat="43.60292" lon="5.06071">
        <ele>84</ele>
        <time>2019-12-16T12:52:48Z</time>
      </trkpt>
      <trkpt lat="43.60291" lon="5.06071">
        <ele>84</ele>
        <time>2019-12-16T12:52:49Z</time>
      </trkpt>
      <trkpt lat="43.6029" lon="5.06071">
        <ele>84</ele>
        <time>2019-12-16T12:52:50Z</time>
      </trkpt>
      <trkpt lat="43.60289" lon="5.0607">
        <ele>84</ele>
        <time>2019-12-16T12:52:51Z</time>
      </trkpt>
      <trkpt lat="43.60288" lon="5.0607">
        <ele>84</ele>
        <time>2019-12-16T12:52:52Z</time>
      </trkpt>
      <trkpt lat="43.60287" lon="5.0607">
        <ele>84</ele>
        <time>2019-12-16T12:52:53Z</time>
      </trkpt>
      <trkpt lat="43.60286" lon="5.0607">
        <ele>84</ele>
        <time>2019-12-16T12:52:54Z</time>
      </trkpt>
      <trkpt lat="43.60285" lon="5.0607">
        <ele>84</ele>
        <time>2019-12-16T12:52:55Z</time>
      </trkpt>
      <trkpt lat="43.60284" lon="5.06069">
        <ele>84</ele>
        <time>2019-12-16T12:52:56Z</time>
      </trkpt>
      <trkpt lat="43.60283" lon="5.06069">
        <ele>84</ele>
        <time>2019-12-16T12:52:57Z</time>
      </trkpt>
      <trkpt lat="43.60282" lon="5.06069">
        <ele>84</ele>
        <time>2019-12-16T12:52:58Z</time>
      </trkpt>
      <trkpt lat="43.60281" lon="5.06069">
        <ele>84</ele>
        <time>2019-12-16T12:52:59Z</time>
      </trkpt>
      <trkpt lat="43.6028" lon="5.06069">
        <ele>84</ele>
        <time>2019-12-16T12:53:00Z</time>
      </trkpt>
      <trkpt lat="43.60279" lon="5.06069">
        <ele>84</ele>
        <time>2019-12-16T12:53:01Z</time>
      </trkpt>
      <trkpt lat="43.60278" lon="5.06069">
        <ele>84</ele>
        <time>2019-12-16T12:53:02Z</time>
      </trkpt>
      <trkpt lat="43.60277" lon="5.06069">
        <ele>84</ele>
        <time>2019-12-16T12:53:03Z</time>
      </trkpt>
      <trkpt lat="43.60276" lon="5.06069">
        <ele>84</ele>
        <time>2019-12-16T12:53:04Z</time>
      </trkpt>
      <trkpt lat="43.60275" lon="5.06069">
        <ele>84</ele>
        <time>2019-12-16T12:53:05Z</time>
      </trkpt>
      <trkpt lat="43.60274" lon="5.06069">
        <ele>84</ele>
        <time>2019-12-16T12:53:06Z</time>
      </trkpt>
      <trkpt lat="43.60273" lon="5.06069">
        <ele>84</ele>
        <time>2019-12-16T12:53:07Z</time>
      </trkpt>
      <trkpt lat="43.60272" lon="5.06069">
        <ele>84</ele>
        <time>2019-12-16T12:53:08Z</time>
      </trkpt>
      <trkpt lat="43.60271" lon="5.06069">
        <ele>84</ele>
        <time>2019-12-16T12:53:09Z</time>
      </trkpt>
      <trkpt lat="43.6027" lon="5.06069">
        <ele>84</ele>
        <time>2019-12-16T12:53:10Z</time>
      </trkpt>
      <trkpt lat="43.60269" lon="5.06069">
        <ele>84</ele>
        <time>2019-12-16T12:53:11Z</time>
      </trkpt>
      <trkpt lat="43.60269" lon="5.06069">
        <ele>84</ele>
        <time>2019-12-16T12:53:12Z</time>
      </trkpt>
      <trkpt lat="43.60268" lon="5.06069">
        <ele>84</ele>
        <time>2019-12-16T12:53:13Z</time>
      </trkpt>
      <trkpt lat="43.60267" lon="5.06069">
        <ele>84</ele>
        <time>2019-12-16T12:53:14Z</time>
      </trkpt>
      <trkpt lat="43.60266" lon="5.0607">
        <ele>84</ele>
        <time>2019-12-16T12:53:15Z</time>
      </trkpt>
      <trkpt lat="43.60265" lon="5.0607">
        <ele>84</ele>
        <time>2019-12-16T12:53:16Z</time>
      </trkpt>
      <trkpt lat="43.60264" lon="5.0607">
        <ele>84</ele>
        <time>2019-12-16T12:53:17Z</time>
      </trkpt>
      <trkpt lat="43.60263" lon="5.0607">
        <ele>84</ele>
        <time>2019-12-16T12:53:18Z</time>
      </trkpt>
      <trkpt lat="43.60262" lon="5.0607">
        <ele>84</ele>
        <time>2019-12-16T12:53:19Z</time>
      </trkpt>
      <trkpt lat="43.60261" lon="5.0607">
        <ele>85</ele>
        <time>2019-12-16T12:53:20Z</time>
      </trkpt>
      <trkpt lat="43.6026" lon="5.0607">
        <ele>85</ele>
        <time>2019-12-16T12:53:21Z</time>
      </trkpt>
      <trkpt lat="43.6026" lon="5.06069">
        <ele>85</ele>
        <time>2019-12-16T12:53:22Z</time>
      </trkpt>
      <trkpt lat="43.60259" lon="5.06069">
        <ele>85</ele>
        <time>2019-12-16T12:53:23Z</time>
      </trkpt>
      <trkpt lat="43.60259" lon="5.06068">
        <ele>85</ele>
        <time>2019-12-16T12:53:24Z</time>
      </trkpt>
      <trkpt lat="43.60259" lon="5.06068">
        <ele>85</ele>
        <time>2019-12-16T12:53:25Z</time>
      </trkpt>
      <trkpt lat="43.60258" lon="5.06067">
        <ele>85</ele>
        <time>2019-12-16T12:53:26Z</time>
      </trkpt>
      <trkpt lat="43.60258" lon="5.06066">
        <ele>84</ele>
        <time>2019-12-16T12:53:27Z</time>
      </trkpt>
      <trkpt lat="43.60258" lon="5.06066">
        <ele>84</ele>
        <time>2019-12-16T12:53:28Z</time>
      </trkpt>
      <trkpt lat="43.60258" lon="5.06066">
        <ele>84</ele>
        <time>2019-12-16T12:53:29Z</time>
      </trkpt>
      <trkpt lat="43.60258" lon="5.06066">
        <ele>84</ele>
        <time>2019-12-16T12:53:30Z</time>
      </trkpt>
      <trkpt lat="43.60258" lon="5.06066">
        <ele>84</ele>
        <time>2019-12-16T12:53:31Z</time>
      </trkpt>
      <trkpt lat="43.60258" lon="5.06065">
        <ele>84</ele>
        <time>2019-12-16T12:53:32Z</time>
      </trkpt>
      <trkpt lat="43.60258" lon="5.06065">
        <ele>84</ele>
        <time>2019-12-16T12:53:33Z</time>
      </trkpt>
      <trkpt lat="43.60258" lon="5.06065">
        <ele>84</ele>
        <time>2019-12-16T12:53:34Z</time>
      </trkpt>
      <trkpt lat="43.60258" lon="5.06065">
        <ele>84</ele>
        <time>2019-12-16T12:53:35Z</time>
      </trkpt>
      <trkpt lat="43.60258" lon="5.06066">
        <ele>84</ele>
        <time>2019-12-16T12:53:36Z</time>
      </trkpt>
      <trkpt lat="43.60258" lon="5.06066">
        <ele>84</ele>
        <time>2019-12-16T12:53:37Z</time>
      </trkpt>
      <trkpt lat="43.60258" lon="5.06066">
        <ele>84</ele>
        <time>2019-12-16T12:53:38Z</time>
      </trkpt>
      <trkpt lat="43.60258" lon="5.06066">
        <ele>84</ele>
        <time>2019-12-16T12:53:39Z</time>
      </trkpt>
      <trkpt lat="43.60258" lon="5.06066">
        <ele>84</ele>
        <time>2019-12-16T12:53:40Z</time>
      </trkpt>
      <trkpt lat="43.60258" lon="5.06065">
        <ele>84</ele>
        <time>2019-12-16T12:53:41Z</time>
      </trkpt>
      <trkpt lat="43.60258" lon="5.06065">
        <ele>84</ele>
        <time>2019-12-16T12:53:42Z</time>
      </trkpt>
      <trkpt lat="43.60258" lon="5.06065">
        <ele>84</ele>
        <time>2019-12-16T12:53:43Z</time>
      </trkpt>
      <trkpt lat="43.60258" lon="5.06065">
        <ele>84</ele>
        <time>2019-12-16T12:53:44Z</time>
      </trkpt>
      <trkpt lat="43.60258" lon="5.06064">
        <ele>84</ele>
        <time>2019-12-16T12:53:45Z</time>
      </trkpt>
      <trkpt lat="43.60258" lon="5.06063">
        <ele>84</ele>
        <time>2019-12-16T12:53:46Z</time>
      </trkpt>
      <trkpt lat="43.60258" lon="5.06062">
        <ele>84</ele>
        <time>2019-12-16T12:53:47Z</time>
      </trkpt>
      <trkpt lat="43.60258" lon="5.06061">
        <ele>84</ele>
        <time>2019-12-16T12:53:48Z</time>
      </trkpt>
      <trkpt lat="43.60258" lon="5.0606">
        <ele>84</ele>
        <time>2019-12-16T12:53:49Z</time>
      </trkpt>
      <trkpt lat="43.60258" lon="5.06059">
        <ele>84</ele>
        <time>2019-12-16T12:53:50Z</time>
      </trkpt>
      <trkpt lat="43.60258" lon="5.06058">
        <ele>84</ele>
        <time>2019-12-16T12:53:51Z</time>
      </trkpt>
      <trkpt lat="43.60258" lon="5.06056">
        <ele>84</ele>
        <time>2019-12-16T12:53:52Z</time>
      </trkpt>
      <trkpt lat="43.60258" lon="5.06055">
        <ele>84</ele>
        <time>2019-12-16T12:53:53Z</time>
      </trkpt>
      <trkpt lat="43.60258" lon="5.06054">
        <ele>84</ele>
        <time>2019-12-16T12:53:54Z</time>
      </trkpt>
      <trkpt lat="43.60258" lon="5.06052">
        <ele>84</ele>
        <time>2019-12-16T12:53:55Z</time>
      </trkpt>
      <trkpt lat="43.60258" lon="5.0605">
        <ele>84</ele>
        <time>2019-12-16T12:53:56Z</time>
      </trkpt>
      <trkpt lat="43.60258" lon="5.06049">
        <ele>84</ele>
        <time>2019-12-16T12:53:57Z</time>
      </trkpt>
      <trkpt lat="43.60258" lon="5.06047">
        <ele>84</ele>
        <time>2019-12-16T12:53:58Z</time>
      </trkpt>
      <trkpt lat="43.60259" lon="5.06046">
        <ele>84</ele>
        <time>2019-12-16T12:53:59Z</time>
      </trkpt>
      <trkpt lat="43.60259" lon="5.06044">
        <ele>84</ele>
        <time>2019-12-16T12:54:00Z</time>
      </trkpt>
      <trkpt lat="43.60259" lon="5.06043">
        <ele>84</ele>
        <time>2019-12-16T12:54:01Z</time>
      </trkpt>
      <trkpt lat="43.60259" lon="5.06041">
        <ele>84</ele>
        <time>2019-12-16T12:54:02Z</time>
      </trkpt>
      <trkpt lat="43.60259" lon="5.0604">
        <ele>84</ele>
        <time>2019-12-16T12:54:03Z</time>
      </trkpt>
      <trkpt lat="43.60259" lon="5.06038">
        <ele>84</ele>
        <time>2019-12-16T12:54:04Z</time>
      </trkpt>
      <trkpt lat="43.60259" lon="5.06036">
        <ele>84</ele>
        <time>2019-12-16T12:54:05Z</time>
      </trkpt>
      <trkpt lat="43.60259" lon="5.06035">
        <ele>84</ele>
        <time>2019-12-16T12:54:06Z</time>
      </trkpt>
      <trkpt lat="43.6026" lon="5.06033">
        <ele>84</ele>
        <time>2019-12-16T12:54:07Z</time>
      </trkpt>
      <trkpt lat="43.6026" lon="5.06032">
        <ele>84</ele>
        <time>2019-12-16T12:54:08Z</time>
      </trkpt>
      <trkpt lat="43.6026" lon="5.0603">
        <ele>84</ele>
        <time>2019-12-16T12:54:09Z</time>
      </trkpt>
      <trkpt lat="43.6026" lon="5.06029">
        <ele>84</ele>
        <time>2019-12-16T12:54:10Z</time>
      </trkpt>
      <trkpt lat="43.6026" lon="5.06027">
        <ele>84</ele>
        <time>2019-12-16T12:54:11Z</time>
      </trkpt>
      <trkpt lat="43.6026" lon="5.06026">
        <ele>84</ele>
        <time>2019-12-16T12:54:12Z</time>
      </trkpt>
      <trkpt lat="43.6026" lon="5.06024">
        <ele>84</ele>
        <time>2019-12-16T12:54:13Z</time>
      </trkpt>
      <trkpt lat="43.6026" lon="5.06023">
        <ele>84</ele>
        <time>2019-12-16T12:54:14Z</time>
      </trkpt>
      <trkpt lat="43.60259" lon="5.06021">
        <ele>84</ele>
        <time>2019-12-16T12:54:15Z</time>
      </trkpt>
      <trkpt lat="43.60259" lon="5.0602">
        <ele>84</ele>
        <time>2019-12-16T12:54:16Z</time>
      </trkpt>
      <trkpt lat="43.6026" lon="5.06019">
        <ele>84</ele>
        <time>2019-12-16T12:54:17Z</time>
      </trkpt>
      <trkpt lat="43.6026" lon="5.06017">
        <ele>84</ele>
        <time>2019-12-16T12:54:18Z</time>
      </trkpt>
      <trkpt lat="43.6026" lon="5.06016">
        <ele>84</ele>
        <time>2019-12-16T12:54:19Z</time>
      </trkpt>
      <trkpt lat="43.6026" lon="5.06015">
        <ele>85</ele>
        <time>2019-12-16T12:54:20Z</time>
      </trkpt>
      <trkpt lat="43.6026" lon="5.06014">
        <ele>85</ele>
        <time>2019-12-16T12:54:21Z</time>
      </trkpt>
      <trkpt lat="43.6026" lon="5.06012">
        <ele>85</ele>
        <time>2019-12-16T12:54:22Z</time>
      </trkpt>
      <trkpt lat="43.6026" lon="5.06011">
        <ele>85</ele>
        <time>2019-12-16T12:54:23Z</time>
      </trkpt>
      <trkpt lat="43.6026" lon="5.0601">
        <ele>85</ele>
        <time>2019-12-16T12:54:24Z</time>
      </trkpt>
      <trkpt lat="43.6026" lon="5.06008">
        <ele>85</ele>
        <time>2019-12-16T12:54:25Z</time>
      </trkpt>
      <trkpt lat="43.6026" lon="5.06007">
        <ele>85</ele>
        <time>2019-12-16T12:54:26Z</time>
      </trkpt>
      <trkpt lat="43.60259" lon="5.06005">
        <ele>85</ele>
        <time>2019-12-16T12:54:27Z</time>
      </trkpt>
      <trkpt lat="43.60259" lon="5.06004">
        <ele>85</ele>
        <time>2019-12-16T12:54:28Z</time>
      </trkpt>
      <trkpt lat="43.60259" lon="5.06002">
        <ele>85</ele>
        <time>2019-12-16T12:54:29Z</time>
      </trkpt>
      <trkpt lat="43.60259" lon="5.06001">
        <ele>85</ele>
        <time>2019-12-16T12:54:30Z</time>
      </trkpt>
      <trkpt lat="43.60259" lon="5.06">
        <ele>85</ele>
        <time>2019-12-16T12:54:31Z</time>
      </trkpt>
      <trkpt lat="43.60259" lon="5.06">
        <ele>84</ele>
        <time>2019-12-16T12:54:32Z</time>
      </trkpt>
      <trkpt lat="43.60259" lon="5.05999">
        <ele>84</ele>
        <time>2019-12-16T12:54:33Z</time>
      </trkpt>
      <trkpt lat="43.60259" lon="5.05999">
        <ele>84</ele>
        <time>2019-12-16T12:54:34Z</time>
      </trkpt>
      <trkpt lat="43.60259" lon="5.05999">
        <ele>84</ele>
        <time>2019-12-16T12:54:35Z</time>
      </trkpt>
      <trkpt lat="43.60259" lon="5.05999">
        <ele>84</ele>
        <time>2019-12-16T12:54:36Z</time>
      </trkpt>
      <trkpt lat="43.60259" lon="5.05999">
        <ele>84</ele>
        <time>2019-12-16T12:54:37Z</time>
      </trkpt>
      <trkpt lat="43.60259" lon="5.05998">
        <ele>84</ele>
        <time>2019-12-16T12:54:38Z</time>
      </trkpt>
      <trkpt lat="43.60259" lon="5.05998">
        <ele>84</ele>
        <time>2019-12-16T12:54:39Z</time>
      </trkpt>
      <trkpt lat="43.60259" lon="5.05997">
        <ele>84</ele>
        <time>2019-12-16T12:54:40Z</time>
      </trkpt>
      <trkpt lat="43.60259" lon="5.05996">
        <ele>84</ele>
        <time>2019-12-16T12:54:41Z</time>
      </trkpt>
      <trkpt lat="43.60259" lon="5.05994">
        <ele>84</ele>
        <time>2019-12-16T12:54:42Z</time>
      </trkpt>
      <trkpt lat="43.60259" lon="5.05993">
        <ele>84</ele>
        <time>2019-12-16T12:54:43Z</time>
      </trkpt>
      <trkpt lat="43.60259" lon="5.05992">
        <ele>84</ele>
        <time>2019-12-16T12:54:44Z</time>
      </trkpt>
      <trkpt lat="43.60259" lon="5.0599">
        <ele>84</ele>
        <time>2019-12-16T12:54:45Z</time>
      </trkpt>
      <trkpt lat="43.60258" lon="5.05989">
        <ele>84</ele>
        <time>2019-12-16T12:54:46Z</time>
      </trkpt>
      <trkpt lat="43.60258" lon="5.05987">
        <ele>84</ele>
        <time>2019-12-16T12:54:47Z</time>
      </trkpt>
      <trkpt lat="43.60258" lon="5.05986">
        <ele>84</ele>
        <time>2019-12-16T12:54:48Z</time>
      </trkpt>
      <trkpt lat="43.60258" lon="5.05985">
        <ele>84</ele>
        <time>2019-12-16T12:54:49Z</time>
      </trkpt>
      <trkpt lat="43.60258" lon="5.05983">
        <ele>84</ele>
        <time>2019-12-16T12:54:50Z</time>
      </trkpt>
      <trkpt lat="43.60258" lon="5.05982">
        <ele>84</ele>
        <time>2019-12-16T12:54:51Z</time>
      </trkpt>
      <trkpt lat="43.60257" lon="5.0598">
        <ele>84</ele>
        <time>2019-12-16T12:54:52Z</time>
      </trkpt>
      <trkpt lat="43.60257" lon="5.05979">
        <ele>84</ele>
        <time>2019-12-16T12:54:53Z</time>
      </trkpt>
      <trkpt lat="43.60257" lon="5.05977">
        <ele>84</ele>
        <time>2019-12-16T12:54:54Z</time>
      </trkpt>
      <trkpt lat="43.60257" lon="5.05976">
        <ele>83</ele>
        <time>2019-12-16T12:54:55Z</time>
      </trkpt>
      <trkpt lat="43.60256" lon="5.05974">
        <ele>83</ele>
        <time>2019-12-16T12:54:56Z</time>
      </trkpt>
      <trkpt lat="43.60256" lon="5.05973">
        <ele>83</ele>
        <time>2019-12-16T12:54:57Z</time>
      </trkpt>
      <trkpt lat="43.60256" lon="5.05971">
        <ele>83</ele>
        <time>2019-12-16T12:54:58Z</time>
      </trkpt>
      <trkpt lat="43.60255" lon="5.05969">
        <ele>83</ele>
        <time>2019-12-16T12:54:59Z</time>
      </trkpt>
      <trkpt lat="43.60255" lon="5.05968">
        <ele>83</ele>
        <time>2019-12-16T12:55:00Z</time>
      </trkpt>
      <trkpt lat="43.60254" lon="5.05966">
        <ele>83</ele>
        <time>2019-12-16T12:55:01Z</time>
      </trkpt>
      <trkpt lat="43.60254" lon="5.05964">
        <ele>83</ele>
        <time>2019-12-16T12:55:02Z</time>
      </trkpt>
      <trkpt lat="43.60253" lon="5.05963">
        <ele>83</ele>
        <time>2019-12-16T12:55:03Z</time>
      </trkpt>
      <trkpt lat="43.60253" lon="5.05961">
        <ele>83</ele>
        <time>2019-12-16T12:55:04Z</time>
      </trkpt>
      <trkpt lat="43.60253" lon="5.05959">
        <ele>83</ele>
        <time>2019-12-16T12:55:05Z</time>
      </trkpt>
      <trkpt lat="43.60252" lon="5.05958">
        <ele>83</ele>
        <time>2019-12-16T12:55:06Z</time>
      </trkpt>
      <trkpt lat="43.60251" lon="5.05956">
        <ele>83</ele>
        <time>2019-12-16T12:55:07Z</time>
      </trkpt>
      <trkpt lat="43.60251" lon="5.05955">
        <ele>83</ele>
        <time>2019-12-16T12:55:08Z</time>
      </trkpt>
      <trkpt lat="43.6025" lon="5.05953">
        <ele>83</ele>
        <time>2019-12-16T12:55:09Z</time>
      </trkpt>
      <trkpt lat="43.6025" lon="5.05952">
        <ele>83</ele>
        <time>2019-12-16T12:55:10Z</time>
      </trkpt>
      <trkpt lat="43.60249" lon="5.05951">
        <ele>83</ele>
        <time>2019-12-16T12:55:11Z</time>
      </trkpt>
      <trkpt lat="43.60249" lon="5.05949">
        <ele>83</ele>
        <time>2019-12-16T12:55:12Z</time>
      </trkpt>
      <trkpt lat="43.60248" lon="5.05948">
        <ele>83</ele>
        <time>2019-12-16T12:55:13Z</time>
      </trkpt>
      <trkpt lat="43.60247" lon="5.05947">
        <ele>83</ele>
        <time>2019-12-16T12:55:14Z</time>
      </trkpt>
      <trkpt lat="43.60247" lon="5.05945">
        <ele>83</ele>
        <time>2019-12-16T12:55:15Z</time>
      </trkpt>
      <trkpt lat="43.60246" lon="5.05944">
        <ele>83</ele>
        <time>2019-12-16T12:55:16Z</time>
      </trkpt>
      <trkpt lat="43.60245" lon="5.05942">
        <ele>83</ele>
        <time>2019-12-16T12:55:17Z</time>
      </trkpt>
      <trkpt lat="43.60245" lon="5.05941">
        <ele>83</ele>
        <time>2019-12-16T12:55:18Z</time>
      </trkpt>
      <trkpt lat="43.60244" lon="5.0594">
        <ele>83</ele>
        <time>2019-12-16T12:55:19Z</time>
      </trkpt>
      <trkpt lat="43.60243" lon="5.05938">
        <ele>83</ele>
        <time>2019-12-16T12:55:20Z</time>
      </trkpt>
      <trkpt lat="43.60243" lon="5.05937">
        <ele>83</ele>
        <time>2019-12-16T12:55:21Z</time>
      </trkpt>
      <trkpt lat="43.60242" lon="5.05935">
        <ele>83</ele>
        <time>2019-12-16T12:55:22Z</time>
      </trkpt>
      <trkpt lat="43.60241" lon="5.05933">
        <ele>83</ele>
        <time>2019-12-16T12:55:23Z</time>
      </trkpt>
      <trkpt lat="43.6024" lon="5.05932">
        <ele>83</ele>
        <time>2019-12-16T12:55:24Z</time>
      </trkpt>
      <trkpt lat="43.6024" lon="5.0593">
        <ele>83</ele>
        <time>2019-12-16T12:55:25Z</time>
      </trkpt>
      <trkpt lat="43.60239" lon="5.05929">
        <ele>83</ele>
        <time>2019-12-16T12:55:26Z</time>
      </trkpt>
      <trkpt lat="43.60239" lon="5.05927">
        <ele>83</ele>
        <time>2019-12-16T12:55:27Z</time>
      </trkpt>
      <trkpt lat="43.60239" lon="5.05926">
        <ele>83</ele>
        <time>2019-12-16T12:55:28Z</time>
      </trkpt>
      <trkpt lat="43.60238" lon="5.05924">
        <ele>83</ele>
        <time>2019-12-16T12:55:29Z</time>
      </trkpt>
      <trkpt lat="43.60238" lon="5.05923">
        <ele>83</ele>
        <time>2019-12-16T12:55:30Z</time>
      </trkpt>
      <trkpt lat="43.60238" lon="5.05921">
        <ele>83</ele>
        <time>2019-12-16T12:55:31Z</time>
      </trkpt>
      <trkpt lat="43.60238" lon="5.0592">
        <ele>83</ele>
        <time>2019-12-16T12:55:32Z</time>
      </trkpt>
      <trkpt lat="43.60237" lon="5.05918">
        <ele>83</ele>
        <time>2019-12-16T12:55:33Z</time>
      </trkpt>
      <trkpt lat="43.60237" lon="5.05917">
        <ele>83</ele>
        <time>2019-12-16T12:55:34Z</time>
      </trkpt>
      <trkpt lat="43.60237" lon="5.05915">
        <ele>83</ele>
        <time>2019-12-16T12:55:35Z</time>
      </trkpt>
      <trkpt lat="43.60237" lon="5.05913">
        <ele>83</ele>
        <time>2019-12-16T12:55:36Z</time>
      </trkpt>
      <trkpt lat="43.60236" lon="5.05912">
        <ele>82</ele>
        <time>2019-12-16T12:55:37Z</time>
      </trkpt>
      <trkpt lat="43.60236" lon="5.0591">
        <ele>82</ele>
        <time>2019-12-16T12:55:38Z</time>
      </trkpt>
      <trkpt lat="43.60235" lon="5.05908">
        <ele>82</ele>
        <time>2019-12-16T12:55:39Z</time>
      </trkpt>
      <trkpt lat="43.60235" lon="5.05906">
        <ele>82</ele>
        <time>2019-12-16T12:55:40Z</time>
      </trkpt>
      <trkpt lat="43.60234" lon="5.05905">
        <ele>82</ele>
        <time>2019-12-16T12:55:41Z</time>
      </trkpt>
      <trkpt lat="43.60234" lon="5.05903">
        <ele>82</ele>
        <time>2019-12-16T12:55:42Z</time>
      </trkpt>
      <trkpt lat="43.60234" lon="5.05901">
        <ele>82</ele>
        <time>2019-12-16T12:55:43Z</time>
      </trkpt>
      <trkpt lat="43.60233" lon="5.059">
        <ele>82</ele>
        <time>2019-12-16T12:55:44Z</time>
      </trkpt>
      <trkpt lat="43.60233" lon="5.05898">
        <ele>82</ele>
        <time>2019-12-16T12:55:45Z</time>
      </trkpt>
      <trkpt lat="43.60233" lon="5.05896">
        <ele>82</ele>
        <time>2019-12-16T12:55:46Z</time>
      </trkpt>
      <trkpt lat="43.60232" lon="5.05895">
        <ele>82</ele>
        <time>2019-12-16T12:55:47Z</time>
      </trkpt>
      <trkpt lat="43.60232" lon="5.05893">
        <ele>82</ele>
        <time>2019-12-16T12:55:48Z</time>
      </trkpt>
      <trkpt lat="43.60232" lon="5.05892">
        <ele>82</ele>
        <time>2019-12-16T12:55:49Z</time>
      </trkpt>
      <trkpt lat="43.60232" lon="5.0589">
        <ele>82</ele>
        <time>2019-12-16T12:55:50Z</time>
      </trkpt>
      <trkpt lat="43.60232" lon="5.05888">
        <ele>82</ele>
        <time>2019-12-16T12:55:51Z</time>
      </trkpt>
      <trkpt lat="43.60232" lon="5.05887">
        <ele>82</ele>
        <time>2019-12-16T12:55:52Z</time>
      </trkpt>
      <trkpt lat="43.60232" lon="5.05885">
        <ele>82</ele>
        <time>2019-12-16T12:55:53Z</time>
      </trkpt>
      <trkpt lat="43.60232" lon="5.05883">
        <ele>82</ele>
        <time>2019-12-16T12:55:54Z</time>
      </trkpt>
      <trkpt lat="43.60232" lon="5.05882">
        <ele>82</ele>
        <time>2019-12-16T12:55:55Z</time>
      </trkpt>
      <trkpt lat="43.60232" lon="5.0588">
        <ele>82</ele>
        <time>2019-12-16T12:55:56Z</time>
      </trkpt>
      <trkpt lat="43.60232" lon="5.05878">
        <ele>82</ele>
        <time>2019-12-16T12:55:57Z</time>
      </trkpt>
      <trkpt lat="43.60232" lon="5.05877">
        <ele>82</ele>
        <time>2019-12-16T12:55:58Z</time>
      </trkpt>
      <trkpt lat="43.60232" lon="5.05875">
        <ele>82</ele>
        <time>2019-12-16T12:55:59Z</time>
      </trkpt>
      <trkpt lat="43.60232" lon="5.05873">
        <ele>82</ele>
        <time>2019-12-16T12:56:00Z</time>
      </trkpt>
      <trkpt lat="43.60232" lon="5.05872">
        <ele>82</ele>
        <time>2019-12-16T12:56:01Z</time>
      </trkpt>
      <trkpt lat="43.60232" lon="5.0587">
        <ele>82</ele>
        <time>2019-12-16T12:56:02Z</time>
      </trkpt>
      <trkpt lat="43.60232" lon="5.05868">
        <ele>82</ele>
        <time>2019-12-16T12:56:03Z</time>
      </trkpt>
      <trkpt lat="43.60232" lon="5.05866">
        <ele>82</ele>
        <time>2019-12-16T12:56:04Z</time>
      </trkpt>
      <trkpt lat="43.60233" lon="5.05865">
        <ele>82</ele>
        <time>2019-12-16T12:56:05Z</time>
      </trkpt>
      <trkpt lat="43.60233" lon="5.05863">
        <ele>82</ele>
        <time>2019-12-16T12:56:06Z</time>
      </trkpt>
      <trkpt lat="43.60233" lon="5.05861">
        <ele>82</ele>
        <time>2019-12-16T12:56:07Z</time>
      </trkpt>
      <trkpt lat="43.60233" lon="5.0586">
        <ele>82</ele>
        <time>2019-12-16T12:56:08Z</time>
      </trkpt>
      <trkpt lat="43.60233" lon="5.05858">
        <ele>82</ele>
        <time>2019-12-16T12:56:09Z</time>
      </trkpt>
      <trkpt lat="43.60233" lon="5.05856">
        <ele>82</ele>
        <time>2019-12-16T12:56:10Z</time>
      </trkpt>
      <trkpt lat="43.60233" lon="5.05854">
        <ele>82</ele>
        <time>2019-12-16T12:56:11Z</time>
      </trkpt>
      <trkpt lat="43.60233" lon="5.05853">
        <ele>82</ele>
        <time>2019-12-16T12:56:12Z</time>
      </trkpt>
      <trkpt lat="43.60233" lon="5.05851">
        <ele>82</ele>
        <time>2019-12-16T12:56:13Z</time>
      </trkpt>
      <trkpt lat="43.60233" lon="5.05849">
        <ele>82</ele>
        <time>2019-12-16T12:56:14Z</time>
      </trkpt>
      <trkpt lat="43.60233" lon="5.05847">
        <ele>82</ele>
        <time>2019-12-16T12:56:15Z</time>
      </trkpt>
      <trkpt lat="43.60233" lon="5.05846">
        <ele>82</ele>
        <time>2019-12-16T12:56:16Z</time>
      </trkpt>
      <trkpt lat="43.60233" lon="5.05844">
        <ele>82</ele>
        <time>2019-12-16T12:56:17Z</time>
      </trkpt>
      <trkpt lat="43.60234" lon="5.05842">
        <ele>82</ele>
        <time>2019-12-16T12:56:18Z</time>
      </trkpt>
      <trkpt lat="43.60234" lon="5.05841">
        <ele>82</ele>
        <time>2019-12-16T12:56:19Z</time>
      </trkpt>
      <trkpt lat="43.60234" lon="5.05839">
        <ele>82</ele>
        <time>2019-12-16T12:56:20Z</time>
      </trkpt>
      <trkpt lat="43.60234" lon="5.05837">
        <ele>82</ele>
        <time>2019-12-16T12:56:21Z</time>
      </trkpt>
      <trkpt lat="43.60234" lon="5.05836">
        <ele>82</ele>
        <time>2019-12-16T12:56:22Z</time>
      </trkpt>
      <trkpt lat="43.60235" lon="5.05834">
        <ele>82</ele>
        <time>2019-12-16T12:56:23Z</time>
      </trkpt>
      <trkpt lat="43.60235" lon="5.05832">
        <ele>82</ele>
        <time>2019-12-16T12:56:24Z</time>
      </trkpt>
      <trkpt lat="43.60236" lon="5.0583">
        <ele>82</ele>
        <time>2019-12-16T12:56:25Z</time>
      </trkpt>
      <trkpt lat="43.60236" lon="5.05829">
        <ele>82</ele>
        <time>2019-12-16T12:56:26Z</time>
      </trkpt>
      <trkpt lat="43.60236" lon="5.05827">
        <ele>82</ele>
        <time>2019-12-16T12:56:27Z</time>
      </trkpt>
      <trkpt lat="43.60237" lon="5.05825">
        <ele>82</ele>
        <time>2019-12-16T12:56:28Z</time>
      </trkpt>
      <trkpt lat="43.60237" lon="5.05823">
        <ele>82</ele>
        <time>2019-12-16T12:56:29Z</time>
      </trkpt>
      <trkpt lat="43.60238" lon="5.05822">
        <ele>82</ele>
        <time>2019-12-16T12:56:30Z</time>
      </trkpt>
      <trkpt lat="43.60238" lon="5.0582">
        <ele>82</ele>
        <time>2019-12-16T12:56:31Z</time>
      </trkpt>
      <trkpt lat="43.60239" lon="5.05818">
        <ele>82</ele>
        <time>2019-12-16T12:56:32Z</time>
      </trkpt>
      <trkpt lat="43.60239" lon="5.05816">
        <ele>82</ele>
        <time>2019-12-16T12:56:33Z</time>
      </trkpt>
      <trkpt lat="43.6024" lon="5.05815">
        <ele>82</ele>
        <time>2019-12-16T12:56:34Z</time>
      </trkpt>
      <trkpt lat="43.6024" lon="5.05813">
        <ele>82</ele>
        <time>2019-12-16T12:56:35Z</time>
      </trkpt>
      <trkpt lat="43.60241" lon="5.05811">
        <ele>82</ele>
        <time>2019-12-16T12:56:36Z</time>
      </trkpt>
      <trkpt lat="43.60241" lon="5.0581">
        <ele>82</ele>
        <time>2019-12-16T12:56:37Z</time>
      </trkpt>
      <trkpt lat="43.60242" lon="5.05808">
        <ele>82</ele>
        <time>2019-12-16T12:56:38Z</time>
      </trkpt>
      <trkpt lat="43.60242" lon="5.05807">
        <ele>82</ele>
        <time>2019-12-16T12:56:39Z</time>
      </trkpt>
      <trkpt lat="43.60243" lon="5.05805">
        <ele>82</ele>
        <time>2019-12-16T12:56:40Z</time>
      </trkpt>
      <trkpt lat="43.60243" lon="5.05804">
        <ele>82</ele>
        <time>2019-12-16T12:56:41Z</time>
      </trkpt>
      <trkpt lat="43.60244" lon="5.05802">
        <ele>82</ele>
        <time>2019-12-16T12:56:42Z</time>
      </trkpt>
      <trkpt lat="43.60244" lon="5.05801">
        <ele>82</ele>
        <time>2019-12-16T12:56:43Z</time>
      </trkpt>
      <trkpt lat="43.60245" lon="5.058">
        <ele>82</ele>
        <time>2019-12-16T12:56:44Z</time>
      </trkpt>
      <trkpt lat="43.60245" lon="5.05798">
        <ele>82</ele>
        <time>2019-12-16T12:56:45Z</time>
      </trkpt>
      <trkpt lat="43.60246" lon="5.05797">
        <ele>82</ele>
        <time>2019-12-16T12:56:46Z</time>
      </trkpt>
      <trkpt lat="43.60246" lon="5.05795">
        <ele>82</ele>
        <time>2019-12-16T12:56:47Z</time>
      </trkpt>
      <trkpt lat="43.60246" lon="5.05793">
        <ele>82</ele>
        <time>2019-12-16T12:56:48Z</time>
      </trkpt>
      <trkpt lat="43.60246" lon="5.05792">
        <ele>82</ele>
        <time>2019-12-16T12:56:49Z</time>
      </trkpt>
      <trkpt lat="43.60246" lon="5.0579">
        <ele>82</ele>
        <time>2019-12-16T12:56:50Z</time>
      </trkpt>
      <trkpt lat="43.60246" lon="5.05789">
        <ele>82</ele>
        <time>2019-12-16T12:56:51Z</time>
      </trkpt>
      <trkpt lat="43.60246" lon="5.05787">
        <ele>82</ele>
        <time>2019-12-16T12:56:52Z</time>
      </trkpt>
      <trkpt lat="43.60246" lon="5.05785">
        <ele>82</ele>
        <time>2019-12-16T12:56:53Z</time>
      </trkpt>
      <trkpt lat="43.60246" lon="5.05784">
        <ele>82</ele>
        <time>2019-12-16T12:56:54Z</time>
      </trkpt>
      <trkpt lat="43.60246" lon="5.05782">
        <ele>82</ele>
        <time>2019-12-16T12:56:55Z</time>
      </trkpt>
      <trkpt lat="43.60246" lon="5.0578">
        <ele>82</ele>
        <time>2019-12-16T12:56:56Z</time>
      </trkpt>
      <trkpt lat="43.60246" lon="5.05778">
        <ele>82</ele>
        <time>2019-12-16T12:56:57Z</time>
      </trkpt>
      <trkpt lat="43.60246" lon="5.05777">
        <ele>82</ele>
        <time>2019-12-16T12:56:58Z</time>
      </trkpt>
      <trkpt lat="43.60246" lon="5.05775">
        <ele>82</ele>
        <time>2019-12-16T12:56:59Z</time>
      </trkpt>
      <trkpt lat="43.60246" lon="5.05773">
        <ele>82</ele>
        <time>2019-12-16T12:57:00Z</time>
      </trkpt>
      <trkpt lat="43.60246" lon="5.05771">
        <ele>82</ele>
        <time>2019-12-16T12:57:01Z</time>
      </trkpt>
      <trkpt lat="43.60246" lon="5.0577">
        <ele>82</ele>
        <time>2019-12-16T12:57:02Z</time>
      </trkpt>
      <trkpt lat="43.60246" lon="5.05768">
        <ele>82</ele>
        <time>2019-12-16T12:57:03Z</time>
      </trkpt>
      <trkpt lat="43.60247" lon="5.05766">
        <ele>82</ele>
        <time>2019-12-16T12:57:04Z</time>
      </trkpt>
      <trkpt lat="43.60247" lon="5.05765">
        <ele>82</ele>
        <time>2019-12-16T12:57:05Z</time>
      </trkpt>
      <trkpt lat="43.60247" lon="5.05763">
        <ele>82</ele>
        <time>2019-12-16T12:57:06Z</time>
      </trkpt>
      <trkpt lat="43.60247" lon="5.05761">
        <ele>82</ele>
        <time>2019-12-16T12:57:07Z</time>
      </trkpt>
      <trkpt lat="43.60247" lon="5.0576">
        <ele>82</ele>
        <time>2019-12-16T12:57:08Z</time>
      </trkpt>
      <trkpt lat="43.60247" lon="5.05758">
        <ele>82</ele>
        <time>2019-12-16T12:57:09Z</time>
      </trkpt>
      <trkpt lat="43.60247" lon="5.05756">
        <ele>82</ele>
        <time>2019-12-16T12:57:10Z</time>
      </trkpt>
      <trkpt lat="43.60248" lon="5.05754">
        <ele>82</ele>
        <time>2019-12-16T12:57:11Z</time>
      </trkpt>
      <trkpt lat="43.60248" lon="5.05753">
        <ele>82</ele>
        <time>2019-12-16T12:57:12Z</time>
      </trkpt>
      <trkpt lat="43.60248" lon="5.05751">
        <ele>82</ele>
        <time>2019-12-16T12:57:13Z</time>
      </trkpt>
      <trkpt lat="43.60248" lon="5.0575">
        <ele>82</ele>
        <time>2019-12-16T12:57:14Z</time>
      </trkpt>
      <trkpt lat="43.60248" lon="5.05748">
        <ele>82</ele>
        <time>2019-12-16T12:57:15Z</time>
      </trkpt>
      <trkpt lat="43.60249" lon="5.05746">
        <ele>82</ele>
        <time>2019-12-16T12:57:16Z</time>
      </trkpt>
      <trkpt lat="43.60249" lon="5.05744">
        <ele>82</ele>
        <time>2019-12-16T12:57:17Z</time>
      </trkpt>
      <trkpt lat="43.60249" lon="5.05743">
        <ele>82</ele>
        <time>2019-12-16T12:57:18Z</time>
      </trkpt>
      <trkpt lat="43.60249" lon="5.05741">
        <ele>83</ele>
        <time>2019-12-16T12:57:19Z</time>
      </trkpt>
      <trkpt lat="43.60249" lon="5.05739">
        <ele>83</ele>
        <time>2019-12-16T12:57:20Z</time>
      </trkpt>
      <trkpt lat="43.60249" lon="5.05738">
        <ele>83</ele>
        <time>2019-12-16T12:57:21Z</time>
      </trkpt>
      <trkpt lat="43.60249" lon="5.05736">
        <ele>83</ele>
        <time>2019-12-16T12:57:22Z</time>
      </trkpt>
      <trkpt lat="43.60249" lon="5.05734">
        <ele>83</ele>
        <time>2019-12-16T12:57:23Z</time>
      </trkpt>
      <trkpt lat="43.60249" lon="5.05733">
        <ele>83</ele>
        <time>2019-12-16T12:57:24Z</time>
      </trkpt>
      <trkpt lat="43.60249" lon="5.05731">
        <ele>83</ele>
        <time>2019-12-16T12:57:25Z</time>
      </trkpt>
      <trkpt lat="43.60249" lon="5.05729">
        <ele>83</ele>
        <time>2019-12-16T12:57:26Z</time>
      </trkpt>
      <trkpt lat="43.60249" lon="5.05728">
        <ele>83</ele>
        <time>2019-12-16T12:57:27Z</time>
      </trkpt>
      <trkpt lat="43.60249" lon="5.05726">
        <ele>83</ele>
        <time>2019-12-16T12:57:28Z</time>
      </trkpt>
      <trkpt lat="43.60249" lon="5.05724">
        <ele>83</ele>
        <time>2019-12-16T12:57:29Z</time>
      </trkpt>
      <trkpt lat="43.60249" lon="5.05723">
        <ele>83</ele>
        <time>2019-12-16T12:57:30Z</time>
      </trkpt>
      <trkpt lat="43.60249" lon="5.05721">
        <ele>83</ele>
        <time>2019-12-16T12:57:31Z</time>
      </trkpt>
      <trkpt lat="43.60249" lon="5.0572">
        <ele>83</ele>
        <time>2019-12-16T12:57:32Z</time>
      </trkpt>
      <trkpt lat="43.60249" lon="5.05718">
        <ele>83</ele>
        <time>2019-12-16T12:57:33Z</time>
      </trkpt>
      <trkpt lat="43.60248" lon="5.05717">
        <ele>83</ele>
        <time>2019-12-16T12:57:34Z</time>
      </trkpt>
      <trkpt lat="43.60248" lon="5.05715">
        <ele>83</ele>
        <time>2019-12-16T12:57:35Z</time>
      </trkpt>
      <trkpt lat="43.60248" lon="5.05714">
        <ele>84</ele>
        <time>2019-12-16T12:57:36Z</time>
      </trkpt>
      <trkpt lat="43.60248" lon="5.05712">
        <ele>84</ele>
        <time>2019-12-16T12:57:37Z</time>
      </trkpt>
      <trkpt lat="43.60248" lon="5.05711">
        <ele>84</ele>
        <time>2019-12-16T12:57:38Z</time>
      </trkpt>
      <trkpt lat="43.60247" lon="5.05709">
        <ele>84</ele>
        <time>2019-12-16T12:57:39Z</time>
      </trkpt>
      <trkpt lat="43.60247" lon="5.05708">
        <ele>84</ele>
        <time>2019-12-16T12:57:40Z</time>
      </trkpt>
      <trkpt lat="43.60247" lon="5.05707">
        <ele>84</ele>
        <time>2019-12-16T12:57:41Z</time>
      </trkpt>
      <trkpt lat="43.60247" lon="5.05705">
        <ele>84</ele>
        <time>2019-12-16T12:57:42Z</time>
      </trkpt>
      <trkpt lat="43.60247" lon="5.05704">
        <ele>84</ele>
        <time>2019-12-16T12:57:43Z</time>
      </trkpt>
      <trkpt lat="43.60246" lon="5.05703">
        <ele>84</ele>
        <time>2019-12-16T12:57:44Z</time>
      </trkpt>
      <trkpt lat="43.60246" lon="5.05702">
        <ele>84</ele>
        <time>2019-12-16T12:57:45Z</time>
      </trkpt>
      <trkpt lat="43.60246" lon="5.057">
        <ele>84</ele>
        <time>2019-12-16T12:57:46Z</time>
      </trkpt>
      <trkpt lat="43.60246" lon="5.05699">
        <ele>84</ele>
        <time>2019-12-16T12:57:47Z</time>
      </trkpt>
      <trkpt lat="43.60246" lon="5.05698">
        <ele>84</ele>
        <time>2019-12-16T12:57:48Z</time>
      </trkpt>
      <trkpt lat="43.60245" lon="5.05697">
        <ele>84</ele>
        <time>2019-12-16T12:57:49Z</time>
      </trkpt>
      <trkpt lat="43.60245" lon="5.05695">
        <ele>84</ele>
        <time>2019-12-16T12:57:50Z</time>
      </trkpt>
      <trkpt lat="43.60245" lon="5.05694">
        <ele>84</ele>
        <time>2019-12-16T12:57:51Z</time>
      </trkpt>
      <trkpt lat="43.60245" lon="5.05693">
        <ele>84</ele>
        <time>2019-12-16T12:57:52Z</time>
      </trkpt>
      <trkpt lat="43.60245" lon="5.05692">
        <ele>84</ele>
        <time>2019-12-16T12:57:53Z</time>
      </trkpt>
      <trkpt lat="43.60245" lon="5.0569">
        <ele>84</ele>
        <time>2019-12-16T12:57:54Z</time>
      </trkpt>
      <trkpt lat="43.60245" lon="5.05689">
        <ele>84</ele>
        <time>2019-12-16T12:57:55Z</time>
      </trkpt>
      <trkpt lat="43.60245" lon="5.05688">
        <ele>84</ele>
        <time>2019-12-16T12:57:56Z</time>
      </trkpt>
      <trkpt lat="43.60245" lon="5.05686">
        <ele>84</ele>
        <time>2019-12-16T12:57:57Z</time>
      </trkpt>
      <trkpt lat="43.60245" lon="5.05685">
        <ele>84</ele>
        <time>2019-12-16T12:57:58Z</time>
      </trkpt>
      <trkpt lat="43.60245" lon="5.05683">
        <ele>84</ele>
        <time>2019-12-16T12:57:59Z</time>
      </trkpt>
      <trkpt lat="43.60245" lon="5.05682">
        <ele>84</ele>
        <time>2019-12-16T12:58:00Z</time>
      </trkpt>
      <trkpt lat="43.60245" lon="5.0568">
        <ele>84</ele>
        <time>2019-12-16T12:58:01Z</time>
      </trkpt>
      <trkpt lat="43.60245" lon="5.05679">
        <ele>84</ele>
        <time>2019-12-16T12:58:02Z</time>
      </trkpt>
      <trkpt lat="43.60245" lon="5.05677">
        <ele>84</ele>
        <time>2019-12-16T12:58:03Z</time>
      </trkpt>
      <trkpt lat="43.60245" lon="5.05675">
        <ele>85</ele>
        <time>2019-12-16T12:58:04Z</time>
      </trkpt>
      <trkpt lat="43.60246" lon="5.05673">
        <ele>85</ele>
        <time>2019-12-16T12:58:05Z</time>
      </trkpt>
      <trkpt lat="43.60246" lon="5.05672">
        <ele>85</ele>
        <time>2019-12-16T12:58:06Z</time>
      </trkpt>
      <trkpt lat="43.60246" lon="5.0567">
        <ele>85</ele>
        <time>2019-12-16T12:58:07Z</time>
      </trkpt>
      <trkpt lat="43.60246" lon="5.05668">
        <ele>85</ele>
        <time>2019-12-16T12:58:08Z</time>
      </trkpt>
      <trkpt lat="43.60246" lon="5.05667">
        <ele>85</ele>
        <time>2019-12-16T12:58:09Z</time>
      </trkpt>
      <trkpt lat="43.60246" lon="5.05665">
        <ele>85</ele>
        <time>2019-12-16T12:58:10Z</time>
      </trkpt>
      <trkpt lat="43.60246" lon="5.05663">
        <ele>85</ele>
        <time>2019-12-16T12:58:11Z</time>
      </trkpt>
      <trkpt lat="43.60247" lon="5.05662">
        <ele>85</ele>
        <time>2019-12-16T12:58:12Z</time>
      </trkpt>
      <trkpt lat="43.60247" lon="5.0566">
        <ele>85</ele>
        <time>2019-12-16T12:58:13Z</time>
      </trkpt>
      <trkpt lat="43.60247" lon="5.05658">
        <ele>85</ele>
        <time>2019-12-16T12:58:14Z</time>
      </trkpt>
      <trkpt lat="43.60247" lon="5.05656">
        <ele>85</ele>
        <time>2019-12-16T12:58:15Z</time>
      </trkpt>
      <trkpt lat="43.60247" lon="5.05655">
        <ele>85</ele>
        <time>2019-12-16T12:58:16Z</time>
      </trkpt>
      <trkpt lat="43.60247" lon="5.05653">
        <ele>85</ele>
        <time>2019-12-16T12:58:17Z</time>
      </trkpt>
      <trkpt lat="43.60247" lon="5.05652">
        <ele>85</ele>
        <time>2019-12-16T12:58:18Z</time>
      </trkpt>
      <trkpt lat="43.60247" lon="5.0565">
        <ele>85</ele>
        <time>2019-12-16T12:58:19Z</time>
      </trkpt>
      <trkpt lat="43.60248" lon="5.05648">
        <ele>85</ele>
        <time>2019-12-16T12:58:20Z</time>
      </trkpt>
      <trkpt lat="43.60248" lon="5.05647">
        <ele>85</ele>
        <time>2019-12-16T12:58:21Z</time>
      </trkpt>
      <trkpt lat="43.60248" lon="5.05645">
        <ele>85</ele>
        <time>2019-12-16T12:58:22Z</time>
      </trkpt>
      <trkpt lat="43.60248" lon="5.05644">
        <ele>85</ele>
        <time>2019-12-16T12:58:23Z</time>
      </trkpt>
      <trkpt lat="43.60249" lon="5.05642">
        <ele>85</ele>
        <time>2019-12-16T12:58:24Z</time>
      </trkpt>
      <trkpt lat="43.60249" lon="5.05641">
        <ele>85</ele>
        <time>2019-12-16T12:58:25Z</time>
      </trkpt>
      <trkpt lat="43.60249" lon="5.05639">
        <ele>85</ele>
        <time>2019-12-16T12:58:26Z</time>
      </trkpt>
      <trkpt lat="43.60249" lon="5.05638">
        <ele>85</ele>
        <time>2019-12-16T12:58:27Z</time>
      </trkpt>
      <trkpt lat="43.6025" lon="5.05636">
        <ele>85</ele>
        <time>2019-12-16T12:58:28Z</time>
      </trkpt>
      <trkpt lat="43.6025" lon="5.05635">
        <ele>84</ele>
        <time>2019-12-16T12:58:29Z</time>
      </trkpt>
      <trkpt lat="43.6025" lon="5.05634">
        <ele>84</ele>
        <time>2019-12-16T12:58:30Z</time>
      </trkpt>
      <trkpt lat="43.60251" lon="5.05632">
        <ele>84</ele>
        <time>2019-12-16T12:58:31Z</time>
      </trkpt>
      <trkpt lat="43.60251" lon="5.05631">
        <ele>84</ele>
        <time>2019-12-16T12:58:32Z</time>
      </trkpt>
      <trkpt lat="43.60251" lon="5.05629">
        <ele>84</ele>
        <time>2019-12-16T12:58:33Z</time>
      </trkpt>
      <trkpt lat="43.60252" lon="5.05628">
        <ele>84</ele>
        <time>2019-12-16T12:58:34Z</time>
      </trkpt>
      <trkpt lat="43.60252" lon="5.05626">
        <ele>84</ele>
        <time>2019-12-16T12:58:35Z</time>
      </trkpt>
      <trkpt lat="43.60252" lon="5.05625">
        <ele>84</ele>
        <time>2019-12-16T12:58:36Z</time>
      </trkpt>
      <trkpt lat="43.60253" lon="5.05624">
        <ele>84</ele>
        <time>2019-12-16T12:58:37Z</time>
      </trkpt>
      <trkpt lat="43.60253" lon="5.05622">
        <ele>84</ele>
        <time>2019-12-16T12:58:38Z</time>
      </trkpt>
      <trkpt lat="43.60254" lon="5.05621">
        <ele>85</ele>
        <time>2019-12-16T12:58:39Z</time>
      </trkpt>
      <trkpt lat="43.60254" lon="5.05619">
        <ele>85</ele>
        <time>2019-12-16T12:58:40Z</time>
      </trkpt>
      <trkpt lat="43.60254" lon="5.05618">
        <ele>85</ele>
        <time>2019-12-16T12:58:41Z</time>
      </trkpt>
      <trkpt lat="43.60255" lon="5.05616">
        <ele>85</ele>
        <time>2019-12-16T12:58:42Z</time>
      </trkpt>
      <trkpt lat="43.60255" lon="5.05615">
        <ele>85</ele>
        <time>2019-12-16T12:58:43Z</time>
      </trkpt>
      <trkpt lat="43.60256" lon="5.05613">
        <ele>85</ele>
        <time>2019-12-16T12:58:44Z</time>
      </trkpt>
      <trkpt lat="43.60256" lon="5.05612">
        <ele>85</ele>
        <time>2019-12-16T12:58:45Z</time>
      </trkpt>
      <trkpt lat="43.60256" lon="5.0561">
        <ele>85</ele>
        <time>2019-12-16T12:58:46Z</time>
      </trkpt>
      <trkpt lat="43.60256" lon="5.05609">
        <ele>85</ele>
        <time>2019-12-16T12:58:47Z</time>
      </trkpt>
      <trkpt lat="43.60257" lon="5.05607">
        <ele>85</ele>
        <time>2019-12-16T12:58:48Z</time>
      </trkpt>
      <trkpt lat="43.60257" lon="5.05606">
        <ele>85</ele>
        <time>2019-12-16T12:58:49Z</time>
      </trkpt>
      <trkpt lat="43.60257" lon="5.05604">
        <ele>85</ele>
        <time>2019-12-16T12:58:50Z</time>
      </trkpt>
      <trkpt lat="43.60257" lon="5.05603">
        <ele>85</ele>
        <time>2019-12-16T12:58:51Z</time>
      </trkpt>
      <trkpt lat="43.60257" lon="5.05601">
        <ele>85</ele>
        <time>2019-12-16T12:58:52Z</time>
      </trkpt>
      <trkpt lat="43.60257" lon="5.05599">
        <ele>85</ele>
        <time>2019-12-16T12:58:53Z</time>
      </trkpt>
      <trkpt lat="43.60257" lon="5.05598">
        <ele>85</ele>
        <time>2019-12-16T12:58:54Z</time>
      </trkpt>
      <trkpt lat="43.60257" lon="5.05596">
        <ele>86</ele>
        <time>2019-12-16T12:58:55Z</time>
      </trkpt>
      <trkpt lat="43.60257" lon="5.05594">
        <ele>86</ele>
        <time>2019-12-16T12:58:56Z</time>
      </trkpt>
      <trkpt lat="43.60257" lon="5.05593">
        <ele>86</ele>
        <time>2019-12-16T12:58:57Z</time>
      </trkpt>
      <trkpt lat="43.60257" lon="5.05591">
        <ele>86</ele>
        <time>2019-12-16T12:58:58Z</time>
      </trkpt>
      <trkpt lat="43.60257" lon="5.0559">
        <ele>86</ele>
        <time>2019-12-16T12:58:59Z</time>
      </trkpt>
      <trkpt lat="43.60257" lon="5.05588">
        <ele>86</ele>
        <time>2019-12-16T12:59:00Z</time>
      </trkpt>
      <trkpt lat="43.60257" lon="5.05587">
        <ele>86</ele>
        <time>2019-12-16T12:59:01Z</time>
      </trkpt>
      <trkpt lat="43.60257" lon="5.05585">
        <ele>86</ele>
        <time>2019-12-16T12:59:02Z</time>
      </trkpt>
      <trkpt lat="43.60257" lon="5.05583">
        <ele>86</ele>
        <time>2019-12-16T12:59:03Z</time>
      </trkpt>
      <trkpt lat="43.60257" lon="5.05582">
        <ele>87</ele>
        <time>2019-12-16T12:59:04Z</time>
      </trkpt>
      <trkpt lat="43.60257" lon="5.0558">
        <ele>87</ele>
        <time>2019-12-16T12:59:05Z</time>
      </trkpt>
      <trkpt lat="43.60257" lon="5.05579">
        <ele>87</ele>
        <time>2019-12-16T12:59:06Z</time>
      </trkpt>
      <trkpt lat="43.60258" lon="5.05577">
        <ele>87</ele>
        <time>2019-12-16T12:59:07Z</time>
      </trkpt>
      <trkpt lat="43.60258" lon="5.05576">
        <ele>87</ele>
        <time>2019-12-16T12:59:08Z</time>
      </trkpt>
      <trkpt lat="43.60258" lon="5.05574">
        <ele>87</ele>
        <time>2019-12-16T12:59:09Z</time>
      </trkpt>
      <trkpt lat="43.60258" lon="5.05573">
        <ele>87</ele>
        <time>2019-12-16T12:59:10Z</time>
      </trkpt>
      <trkpt lat="43.60258" lon="5.05571">
        <ele>87</ele>
        <time>2019-12-16T12:59:11Z</time>
      </trkpt>
      <trkpt lat="43.60258" lon="5.0557">
        <ele>87</ele>
        <time>2019-12-16T12:59:12Z</time>
      </trkpt>
      <trkpt lat="43.60258" lon="5.05568">
        <ele>87</ele>
        <time>2019-12-16T12:59:13Z</time>
      </trkpt>
      <trkpt lat="43.60258" lon="5.05567">
        <ele>87</ele>
        <time>2019-12-16T12:59:14Z</time>
      </trkpt>
      <trkpt lat="43.60259" lon="5.05565">
        <ele>87</ele>
        <time>2019-12-16T12:59:15Z</time>
      </trkpt>
      <trkpt lat="43.60259" lon="5.05564">
        <ele>87</ele>
        <time>2019-12-16T12:59:16Z</time>
      </trkpt>
      <trkpt lat="43.60259" lon="5.05562">
        <ele>87</ele>
        <time>2019-12-16T12:59:17Z</time>
      </trkpt>
      <trkpt lat="43.60259" lon="5.0556">
        <ele>87</ele>
        <time>2019-12-16T12:59:18Z</time>
      </trkpt>
      <trkpt lat="43.60259" lon="5.05559">
        <ele>87</ele>
        <time>2019-12-16T12:59:19Z</time>
      </trkpt>
      <trkpt lat="43.60259" lon="5.05557">
        <ele>87</ele>
        <time>2019-12-16T12:59:20Z</time>
      </trkpt>
      <trkpt lat="43.60259" lon="5.05555">
        <ele>87</ele>
        <time>2019-12-16T12:59:21Z</time>
      </trkpt>
      <trkpt lat="43.60259" lon="5.05554">
        <ele>87</ele>
        <time>2019-12-16T12:59:22Z</time>
      </trkpt>
      <trkpt lat="43.60259" lon="5.05552">
        <ele>87</ele>
        <time>2019-12-16T12:59:23Z</time>
      </trkpt>
      <trkpt lat="43.6026" lon="5.0555">
        <ele>87</ele>
        <time>2019-12-16T12:59:24Z</time>
      </trkpt>
      <trkpt lat="43.6026" lon="5.05549">
        <ele>87</ele>
        <time>2019-12-16T12:59:25Z</time>
      </trkpt>
      <trkpt lat="43.6026" lon="5.05547">
        <ele>87</ele>
        <time>2019-12-16T12:59:26Z</time>
      </trkpt>
      <trkpt lat="43.6026" lon="5.05545">
        <ele>87</ele>
        <time>2019-12-16T12:59:27Z</time>
      </trkpt>
      <trkpt lat="43.6026" lon="5.05544">
        <ele>87</ele>
        <time>2019-12-16T12:59:28Z</time>
      </trkpt>
      <trkpt lat="43.60261" lon="5.05542">
        <ele>87</ele>
        <time>2019-12-16T12:59:29Z</time>
      </trkpt>
      <trkpt lat="43.60261" lon="5.05541">
        <ele>87</ele>
        <time>2019-12-16T12:59:30Z</time>
      </trkpt>
      <trkpt lat="43.60262" lon="5.05539">
        <ele>87</ele>
        <time>2019-12-16T12:59:31Z</time>
      </trkpt>
      <trkpt lat="43.60262" lon="5.05538">
        <ele>87</ele>
        <time>2019-12-16T12:59:32Z</time>
      </trkpt>
      <trkpt lat="43.60263" lon="5.05536">
        <ele>87</ele>
        <time>2019-12-16T12:59:33Z</time>
      </trkpt>
      <trkpt lat="43.60263" lon="5.05535">
        <ele>87</ele>
        <time>2019-12-16T12:59:34Z</time>
      </trkpt>
      <trkpt lat="43.60264" lon="5.05533">
        <ele>87</ele>
        <time>2019-12-16T12:59:35Z</time>
      </trkpt>
      <trkpt lat="43.60265" lon="5.05532">
        <ele>87</ele>
        <time>2019-12-16T12:59:36Z</time>
      </trkpt>
      <trkpt lat="43.60265" lon="5.05531">
        <ele>87</ele>
        <time>2019-12-16T12:59:37Z</time>
      </trkpt>
      <trkpt lat="43.60266" lon="5.05529">
        <ele>87</ele>
        <time>2019-12-16T12:59:38Z</time>
      </trkpt>
      <trkpt lat="43.60266" lon="5.05528">
        <ele>87</ele>
        <time>2019-12-16T12:59:39Z</time>
      </trkpt>
      <trkpt lat="43.60267" lon="5.05526">
        <ele>87</ele>
        <time>2019-12-16T12:59:40Z</time>
      </trkpt>
      <trkpt lat="43.60267" lon="5.05525">
        <ele>87</ele>
        <time>2019-12-16T12:59:41Z</time>
      </trkpt>
      <trkpt lat="43.60268" lon="5.05523">
        <ele>87</ele>
        <time>2019-12-16T12:59:42Z</time>
      </trkpt>
      <trkpt lat="43.60268" lon="5.05522">
        <ele>87</ele>
        <time>2019-12-16T12:59:43Z</time>
      </trkpt>
      <trkpt lat="43.60268" lon="5.0552">
        <ele>87</ele>
        <time>2019-12-16T12:59:44Z</time>
      </trkpt>
      <trkpt lat="43.60269" lon="5.05519">
        <ele>87</ele>
        <time>2019-12-16T12:59:45Z</time>
      </trkpt>
      <trkpt lat="43.60269" lon="5.05517">
        <ele>87</ele>
        <time>2019-12-16T12:59:46Z</time>
      </trkpt>
      <trkpt lat="43.60269" lon="5.05516">
        <ele>87</ele>
        <time>2019-12-16T12:59:47Z</time>
      </trkpt>
      <trkpt lat="43.60269" lon="5.05514">
        <ele>87</ele>
        <time>2019-12-16T12:59:48Z</time>
      </trkpt>
      <trkpt lat="43.60269" lon="5.05512">
        <ele>87</ele>
        <time>2019-12-16T12:59:49Z</time>
      </trkpt>
      <trkpt lat="43.6027" lon="5.05511">
        <ele>87</ele>
        <time>2019-12-16T12:59:50Z</time>
      </trkpt>
      <trkpt lat="43.6027" lon="5.05509">
        <ele>87</ele>
        <time>2019-12-16T12:59:51Z</time>
      </trkpt>
      <trkpt lat="43.6027" lon="5.05508">
        <ele>87</ele>
        <time>2019-12-16T12:59:52Z</time>
      </trkpt>
      <trkpt lat="43.6027" lon="5.05506">
        <ele>87</ele>
        <time>2019-12-16T12:59:53Z</time>
      </trkpt>
      <trkpt lat="43.6027" lon="5.05505">
        <ele>87</ele>
        <time>2019-12-16T12:59:54Z</time>
      </trkpt>
      <trkpt lat="43.6027" lon="5.05503">
        <ele>87</ele>
        <time>2019-12-16T12:59:55Z</time>
      </trkpt>
      <trkpt lat="43.6027" lon="5.05501">
        <ele>87</ele>
        <time>2019-12-16T12:59:56Z</time>
      </trkpt>
      <trkpt lat="43.6027" lon="5.055">
        <ele>87</ele>
        <time>2019-12-16T12:59:57Z</time>
      </trkpt>
      <trkpt lat="43.6027" lon="5.05498">
        <ele>87</ele>
        <time>2019-12-16T12:59:58Z</time>
      </trkpt>
      <trkpt lat="43.60269" lon="5.05497">
        <ele>87</ele>
        <time>2019-12-16T12:59:59Z</time>
      </trkpt>
      <trkpt lat="43.60269" lon="5.05495">
        <ele>87</ele>
        <time>2019-12-16T13:00:00Z</time>
      </trkpt>
      <trkpt lat="43.60269" lon="5.05494">
        <ele>87</ele>
        <time>2019-12-16T13:00:01Z</time>
      </trkpt>
      <trkpt lat="43.60269" lon="5.05493">
        <ele>87</ele>
        <time>2019-12-16T13:00:02Z</time>
      </trkpt>
      <trkpt lat="43.60269" lon="5.05491">
        <ele>87</ele>
        <time>2019-12-16T13:00:03Z</time>
      </trkpt>
      <trkpt lat="43.60269" lon="5.0549">
        <ele>87</ele>
        <time>2019-12-16T13:00:04Z</time>
      </trkpt>
      <trkpt lat="43.60269" lon="5.05488">
        <ele>87</ele>
        <time>2019-12-16T13:00:05Z</time>
      </trkpt>
      <trkpt lat="43.60269" lon="5.05487">
        <ele>87</ele>
        <time>2019-12-16T13:00:06Z</time>
      </trkpt>
      <trkpt lat="43.60268" lon="5.05486">
        <ele>87</ele>
        <time>2019-12-16T13:00:07Z</time>
      </trkpt>
      <trkpt lat="43.60268" lon="5.05485">
        <ele>87</ele>
        <time>2019-12-16T13:00:08Z</time>
      </trkpt>
      <trkpt lat="43.60268" lon="5.05484">
        <ele>87</ele>
        <time>2019-12-16T13:00:09Z</time>
      </trkpt>
      <trkpt lat="43.60268" lon="5.05482">
        <ele>87</ele>
        <time>2019-12-16T13:00:10Z</time>
      </trkpt>
      <trkpt lat="43.60268" lon="5.05481">
        <ele>87</ele>
        <time>2019-12-16T13:00:11Z</time>
      </trkpt>
      <trkpt lat="43.60268" lon="5.05479">
        <ele>87</ele>
        <time>2019-12-16T13:00:12Z</time>
      </trkpt>
      <trkpt lat="43.60268" lon="5.05477">
        <ele>87</ele>
        <time>2019-12-16T13:00:13Z</time>
      </trkpt>
      <trkpt lat="43.60268" lon="5.05476">
        <ele>87</ele>
        <time>2019-12-16T13:00:14Z</time>
      </trkpt>
      <trkpt lat="43.60268" lon="5.05474">
        <ele>87</ele>
        <time>2019-12-16T13:00:15Z</time>
      </trkpt>
      <trkpt lat="43.60268" lon="5.05472">
        <ele>87</ele>
        <time>2019-12-16T13:00:16Z</time>
      </trkpt>
      <trkpt lat="43.60268" lon="5.05471">
        <ele>87</ele>
        <time>2019-12-16T13:00:17Z</time>
      </trkpt>
      <trkpt lat="43.60268" lon="5.05469">
        <ele>87</ele>
        <time>2019-12-16T13:00:18Z</time>
      </trkpt>
      <trkpt lat="43.60268" lon="5.05468">
        <ele>87</ele>
        <time>2019-12-16T13:00:19Z</time>
      </trkpt>
      <trkpt lat="43.60268" lon="5.05466">
        <ele>87</ele>
        <time>2019-12-16T13:00:20Z</time>
      </trkpt>
      <trkpt lat="43.60268" lon="5.05464">
        <ele>87</ele>
        <time>2019-12-16T13:00:21Z</time>
      </trkpt>
      <trkpt lat="43.60268" lon="5.05463">
        <ele>87</ele>
        <time>2019-12-16T13:00:22Z</time>
      </trkpt>
      <trkpt lat="43.60267" lon="5.05461">
        <ele>87</ele>
        <time>2019-12-16T13:00:23Z</time>
      </trkpt>
      <trkpt lat="43.60267" lon="5.0546">
        <ele>87</ele>
        <time>2019-12-16T13:00:24Z</time>
      </trkpt>
      <trkpt lat="43.60267" lon="5.05458">
        <ele>87</ele>
        <time>2019-12-16T13:00:25Z</time>
      </trkpt>
      <trkpt lat="43.60267" lon="5.05457">
        <ele>87</ele>
        <time>2019-12-16T13:00:26Z</time>
      </trkpt>
      <trkpt lat="43.60267" lon="5.05455">
        <ele>87</ele>
        <time>2019-12-16T13:00:27Z</time>
      </trkpt>
      <trkpt lat="43.60267" lon="5.05454">
        <ele>87</ele>
        <time>2019-12-16T13:00:28Z</time>
      </trkpt>
      <trkpt lat="43.60266" lon="5.05452">
        <ele>87</ele>
        <time>2019-12-16T13:00:29Z</time>
      </trkpt>
      <trkpt lat="43.60266" lon="5.05451">
        <ele>87</ele>
        <time>2019-12-16T13:00:30Z</time>
      </trkpt>
      <trkpt lat="43.60266" lon="5.0545">
        <ele>87</ele>
        <time>2019-12-16T13:00:31Z</time>
      </trkpt>
      <trkpt lat="43.60265" lon="5.05448">
        <ele>88</ele>
        <time>2019-12-16T13:00:32Z</time>
      </trkpt>
      <trkpt lat="43.60265" lon="5.05447">
        <ele>88</ele>
        <time>2019-12-16T13:00:33Z</time>
      </trkpt>
      <trkpt lat="43.60265" lon="5.05445">
        <ele>88</ele>
        <time>2019-12-16T13:00:34Z</time>
      </trkpt>
      <trkpt lat="43.60264" lon="5.05444">
        <ele>88</ele>
        <time>2019-12-16T13:00:35Z</time>
      </trkpt>
      <trkpt lat="43.60264" lon="5.05443">
        <ele>88</ele>
        <time>2019-12-16T13:00:36Z</time>
      </trkpt>
      <trkpt lat="43.60263" lon="5.05441">
        <ele>88</ele>
        <time>2019-12-16T13:00:37Z</time>
      </trkpt>
      <trkpt lat="43.60263" lon="5.0544">
        <ele>88</ele>
        <time>2019-12-16T13:00:38Z</time>
      </trkpt>
      <trkpt lat="43.60263" lon="5.05438">
        <ele>88</ele>
        <time>2019-12-16T13:00:39Z</time>
      </trkpt>
      <trkpt lat="43.60262" lon="5.05437">
        <ele>88</ele>
        <time>2019-12-16T13:00:40Z</time>
      </trkpt>
      <trkpt lat="43.60261" lon="5.05436">
        <ele>88</ele>
        <time>2019-12-16T13:00:41Z</time>
      </trkpt>
      <trkpt lat="43.60261" lon="5.05434">
        <ele>88</ele>
        <time>2019-12-16T13:00:42Z</time>
      </trkpt>
      <trkpt lat="43.6026" lon="5.05433">
        <ele>88</ele>
        <time>2019-12-16T13:00:43Z</time>
      </trkpt>
      <trkpt lat="43.6026" lon="5.05431">
        <ele>88</ele>
        <time>2019-12-16T13:00:44Z</time>
      </trkpt>
      <trkpt lat="43.60259" lon="5.05429">
        <ele>88</ele>
        <time>2019-12-16T13:00:45Z</time>
      </trkpt>
      <trkpt lat="43.60259" lon="5.05428">
        <ele>88</ele>
        <time>2019-12-16T13:00:46Z</time>
      </trkpt>
      <trkpt lat="43.60259" lon="5.05426">
        <ele>89</ele>
        <time>2019-12-16T13:00:47Z</time>
      </trkpt>
      <trkpt lat="43.60259" lon="5.05425">
        <ele>89</ele>
        <time>2019-12-16T13:00:48Z</time>
      </trkpt>
      <trkpt lat="43.60258" lon="5.05423">
        <ele>89</ele>
        <time>2019-12-16T13:00:49Z</time>
      </trkpt>
      <trkpt lat="43.60258" lon="5.05422">
        <ele>89</ele>
        <time>2019-12-16T13:00:50Z</time>
      </trkpt>
      <trkpt lat="43.60258" lon="5.0542">
        <ele>89</ele>
        <time>2019-12-16T13:00:51Z</time>
      </trkpt>
      <trkpt lat="43.60258" lon="5.05418">
        <ele>89</ele>
        <time>2019-12-16T13:00:52Z</time>
      </trkpt>
      <trkpt lat="43.60258" lon="5.05417">
        <ele>89</ele>
        <time>2019-12-16T13:00:53Z</time>
      </trkpt>
      <trkpt lat="43.60258" lon="5.05415">
        <ele>89</ele>
        <time>2019-12-16T13:00:54Z</time>
      </trkpt>
      <trkpt lat="43.60258" lon="5.05413">
        <ele>89</ele>
        <time>2019-12-16T13:00:55Z</time>
      </trkpt>
      <trkpt lat="43.60257" lon="5.05412">
        <ele>89</ele>
        <time>2019-12-16T13:00:56Z</time>
      </trkpt>
      <trkpt lat="43.60257" lon="5.0541">
        <ele>89</ele>
        <time>2019-12-16T13:00:57Z</time>
      </trkpt>
      <trkpt lat="43.60256" lon="5.05409">
        <ele>89</ele>
        <time>2019-12-16T13:00:58Z</time>
      </trkpt>
      <trkpt lat="43.60256" lon="5.05408">
        <ele>89</ele>
        <time>2019-12-16T13:00:59Z</time>
      </trkpt>
      <trkpt lat="43.60255" lon="5.05407">
        <ele>89</ele>
        <time>2019-12-16T13:01:00Z</time>
      </trkpt>
      <trkpt lat="43.60254" lon="5.05406">
        <ele>89</ele>
        <time>2019-12-16T13:01:01Z</time>
      </trkpt>
      <trkpt lat="43.60253" lon="5.05406">
        <ele>89</ele>
        <time>2019-12-16T13:01:02Z</time>
      </trkpt>
      <trkpt lat="43.60253" lon="5.05405">
        <ele>89</ele>
        <time>2019-12-16T13:01:03Z</time>
      </trkpt>
      <trkpt lat="43.60252" lon="5.05405">
        <ele>89</ele>
        <time>2019-12-16T13:01:04Z</time>
      </trkpt>
      <trkpt lat="43.6025" lon="5.05405">
        <ele>89</ele>
        <time>2019-12-16T13:01:05Z</time>
      </trkpt>
      <trkpt lat="43.6025" lon="5.05405">
        <ele>90</ele>
        <time>2019-12-16T13:01:06Z</time>
      </trkpt>
      <trkpt lat="43.60249" lon="5.05405">
        <ele>90</ele>
        <time>2019-12-16T13:01:07Z</time>
      </trkpt>
      <trkpt lat="43.60247" lon="5.05405">
        <ele>90</ele>
        <time>2019-12-16T13:01:08Z</time>
      </trkpt>
      <trkpt lat="43.60247" lon="5.05406">
        <ele>90</ele>
        <time>2019-12-16T13:01:09Z</time>
      </trkpt>
      <trkpt lat="43.60246" lon="5.05407">
        <ele>90</ele>
        <time>2019-12-16T13:01:10Z</time>
      </trkpt>
      <trkpt lat="43.60245" lon="5.05407">
        <ele>90</ele>
        <time>2019-12-16T13:01:11Z</time>
      </trkpt>
      <trkpt lat="43.60244" lon="5.05408">
        <ele>90</ele>
        <time>2019-12-16T13:01:12Z</time>
      </trkpt>
      <trkpt lat="43.60243" lon="5.05409">
        <ele>90</ele>
        <time>2019-12-16T13:01:13Z</time>
      </trkpt>
      <trkpt lat="43.60242" lon="5.0541">
        <ele>90</ele>
        <time>2019-12-16T13:01:14Z</time>
      </trkpt>
      <trkpt lat="43.60241" lon="5.0541">
        <ele>90</ele>
        <time>2019-12-16T13:01:15Z</time>
      </trkpt>
      <trkpt lat="43.6024" lon="5.05411">
        <ele>90</ele>
        <time>2019-12-16T13:01:16Z</time>
      </trkpt>
      <trkpt lat="43.60239" lon="5.05411">
        <ele>90</ele>
        <time>2019-12-16T13:01:17Z</time>
      </trkpt>
      <trkpt lat="43.60237" lon="5.05411">
        <ele>90</ele>
        <time>2019-12-16T13:01:18Z</time>
      </trkpt>
      <trkpt lat="43.60236" lon="5.05411">
        <ele>90</ele>
        <time>2019-12-16T13:01:19Z</time>
      </trkpt>
      <trkpt lat="43.60235" lon="5.0541">
        <ele>90</ele>
        <time>2019-12-16T13:01:20Z</time>
      </trkpt>
      <trkpt lat="43.60234" lon="5.0541">
        <ele>90</ele>
        <time>2019-12-16T13:01:21Z</time>
      </trkpt>
      <trkpt lat="43.60233" lon="5.05409">
        <ele>90</ele>
        <time>2019-12-16T13:01:22Z</time>
      </trkpt>
      <trkpt lat="43.60232" lon="5.05408">
        <ele>90</ele>
        <time>2019-12-16T13:01:23Z</time>
      </trkpt>
      <trkpt lat="43.60231" lon="5.05407">
        <ele>90</ele>
        <time>2019-12-16T13:01:24Z</time>
      </trkpt>
      <trkpt lat="43.60231" lon="5.05406">
        <ele>90</ele>
        <time>2019-12-16T13:01:25Z</time>
      </trkpt>
      <trkpt lat="43.6023" lon="5.05405">
        <ele>90</ele>
        <time>2019-12-16T13:01:26Z</time>
      </trkpt>
      <trkpt lat="43.60229" lon="5.05404">
        <ele>90</ele>
        <time>2019-12-16T13:01:27Z</time>
      </trkpt>
      <trkpt lat="43.60229" lon="5.05403">
        <ele>90</ele>
        <time>2019-12-16T13:01:28Z</time>
      </trkpt>
      <trkpt lat="43.60228" lon="5.05402">
        <ele>90</ele>
        <time>2019-12-16T13:01:29Z</time>
      </trkpt>
      <trkpt lat="43.60227" lon="5.05401">
        <ele>90</ele>
        <time>2019-12-16T13:01:30Z</time>
      </trkpt>
      <trkpt lat="43.60227" lon="5.054">
        <ele>90</ele>
        <time>2019-12-16T13:01:31Z</time>
      </trkpt>
      <trkpt lat="43.60226" lon="5.05398">
        <ele>90</ele>
        <time>2019-12-16T13:01:32Z</time>
      </trkpt>
      <trkpt lat="43.60226" lon="5.05396">
        <ele>90</ele>
        <time>2019-12-16T13:01:33Z</time>
      </trkpt>
      <trkpt lat="43.60226" lon="5.05395">
        <ele>90</ele>
        <time>2019-12-16T13:01:34Z</time>
      </trkpt>
      <trkpt lat="43.60225" lon="5.05395">
        <ele>90</ele>
        <time>2019-12-16T13:01:35Z</time>
      </trkpt>
      <trkpt lat="43.60225" lon="5.05394">
        <ele>90</ele>
        <time>2019-12-16T13:01:36Z</time>
      </trkpt>
      <trkpt lat="43.60225" lon="5.05394">
        <ele>90</ele>
        <time>2019-12-16T13:01:37Z</time>
      </trkpt>
      <trkpt lat="43.60224" lon="5.05393">
        <ele>90</ele>
        <time>2019-12-16T13:01:38Z</time>
      </trkpt>
      <trkpt lat="43.60224" lon="5.05392">
        <ele>90</ele>
        <time>2019-12-16T13:01:39Z</time>
      </trkpt>
      <trkpt lat="43.60223" lon="5.05391">
        <ele>90</ele>
        <time>2019-12-16T13:01:40Z</time>
      </trkpt>
      <trkpt lat="43.60223" lon="5.0539">
        <ele>90</ele>
        <time>2019-12-16T13:01:41Z</time>
      </trkpt>
      <trkpt lat="43.60222" lon="5.05389">
        <ele>90</ele>
        <time>2019-12-16T13:01:42Z</time>
      </trkpt>
      <trkpt lat="43.60222" lon="5.05387">
        <ele>90</ele>
        <time>2019-12-16T13:01:43Z</time>
      </trkpt>
      <trkpt lat="43.60221" lon="5.05386">
        <ele>90</ele>
        <time>2019-12-16T13:01:44Z</time>
      </trkpt>
      <trkpt lat="43.6022" lon="5.05385">
        <ele>90</ele>
        <time>2019-12-16T13:01:45Z</time>
      </trkpt>
      <trkpt lat="43.6022" lon="5.05384">
        <ele>90</ele>
        <time>2019-12-16T13:01:46Z</time>
      </trkpt>
      <trkpt lat="43.60219" lon="5.05383">
        <ele>90</ele>
        <time>2019-12-16T13:01:47Z</time>
      </trkpt>
      <trkpt lat="43.60218" lon="5.05382">
        <ele>90</ele>
        <time>2019-12-16T13:01:48Z</time>
      </trkpt>
      <trkpt lat="43.60218" lon="5.0538">
        <ele>90</ele>
        <time>2019-12-16T13:01:49Z</time>
      </trkpt>
      <trkpt lat="43.60217" lon="5.05379">
        <ele>90</ele>
        <time>2019-12-16T13:01:50Z</time>
      </trkpt>
      <trkpt lat="43.60217" lon="5.05378">
        <ele>90</ele>
        <time>2019-12-16T13:01:51Z</time>
      </trkpt>
      <trkpt lat="43.60216" lon="5.05377">
        <ele>90</ele>
        <time>2019-12-16T13:01:52Z</time>
      </trkpt>
      <trkpt lat="43.60216" lon="5.05375">
        <ele>90</ele>
        <time>2019-12-16T13:01:53Z</time>
      </trkpt>
      <trkpt lat="43.60215" lon="5.05374">
        <ele>90</ele>
        <time>2019-12-16T13:01:54Z</time>
      </trkpt>
      <trkpt lat="43.60215" lon="5.05372">
        <ele>90</ele>
        <time>2019-12-16T13:01:55Z</time>
      </trkpt>
      <trkpt lat="43.60215" lon="5.05371">
        <ele>90</ele>
        <time>2019-12-16T13:01:56Z</time>
      </trkpt>
      <trkpt lat="43.60214" lon="5.05369">
        <ele>90</ele>
        <time>2019-12-16T13:01:57Z</time>
      </trkpt>
      <trkpt lat="43.60214" lon="5.05367">
        <ele>90</ele>
        <time>2019-12-16T13:01:58Z</time>
      </trkpt>
      <trkpt lat="43.60214" lon="5.05366">
        <ele>90</ele>
        <time>2019-12-16T13:01:59Z</time>
      </trkpt>
      <trkpt lat="43.60214" lon="5.05364">
        <ele>90</ele>
        <time>2019-12-16T13:02:00Z</time>
      </trkpt>
      <trkpt lat="43.60213" lon="5.05363">
        <ele>90</ele>
        <time>2019-12-16T13:02:01Z</time>
      </trkpt>
      <trkpt lat="43.60213" lon="5.05362">
        <ele>90</ele>
        <time>2019-12-16T13:02:02Z</time>
      </trkpt>
      <trkpt lat="43.60213" lon="5.0536">
        <ele>90</ele>
        <time>2019-12-16T13:02:03Z</time>
      </trkpt>
      <trkpt lat="43.60212" lon="5.05359">
        <ele>90</ele>
        <time>2019-12-16T13:02:04Z</time>
      </trkpt>
      <trkpt lat="43.60212" lon="5.05358">
        <ele>90</ele>
        <time>2019-12-16T13:02:05Z</time>
      </trkpt>
      <trkpt lat="43.60212" lon="5.05356">
        <ele>90</ele>
        <time>2019-12-16T13:02:06Z</time>
      </trkpt>
      <trkpt lat="43.60211" lon="5.05355">
        <ele>90</ele>
        <time>2019-12-16T13:02:07Z</time>
      </trkpt>
      <trkpt lat="43.60211" lon="5.05354">
        <ele>90</ele>
        <time>2019-12-16T13:02:08Z</time>
      </trkpt>
      <trkpt lat="43.60211" lon="5.05352">
        <ele>90</ele>
        <time>2019-12-16T13:02:09Z</time>
      </trkpt>
      <trkpt lat="43.6021" lon="5.05351">
        <ele>90</ele>
        <time>2019-12-16T13:02:10Z</time>
      </trkpt>
      <trkpt lat="43.6021" lon="5.0535">
        <ele>90</ele>
        <time>2019-12-16T13:02:11Z</time>
      </trkpt>
      <trkpt lat="43.6021" lon="5.05348">
        <ele>90</ele>
        <time>2019-12-16T13:02:12Z</time>
      </trkpt>
      <trkpt lat="43.6021" lon="5.05347">
        <ele>90</ele>
        <time>2019-12-16T13:02:13Z</time>
      </trkpt>
      <trkpt lat="43.60209" lon="5.05345">
        <ele>90</ele>
        <time>2019-12-16T13:02:14Z</time>
      </trkpt>
      <trkpt lat="43.60209" lon="5.05344">
        <ele>90</ele>
        <time>2019-12-16T13:02:15Z</time>
      </trkpt>
      <trkpt lat="43.60209" lon="5.05342">
        <ele>90</ele>
        <time>2019-12-16T13:02:16Z</time>
      </trkpt>
      <trkpt lat="43.60209" lon="5.05341">
        <ele>90</ele>
        <time>2019-12-16T13:02:17Z</time>
      </trkpt>
      <trkpt lat="43.60208" lon="5.05339">
        <ele>90</ele>
        <time>2019-12-16T13:02:18Z</time>
      </trkpt>
      <trkpt lat="43.60208" lon="5.05338">
        <ele>90</ele>
        <time>2019-12-16T13:02:19Z</time>
      </trkpt>
      <trkpt lat="43.60208" lon="5.05336">
        <ele>90</ele>
        <time>2019-12-16T13:02:20Z</time>
      </trkpt>
      <trkpt lat="43.60208" lon="5.05334">
        <ele>90</ele>
        <time>2019-12-16T13:02:21Z</time>
      </trkpt>
      <trkpt lat="43.60207" lon="5.05333">
        <ele>90</ele>
        <time>2019-12-16T13:02:22Z</time>
      </trkpt>
      <trkpt lat="43.60207" lon="5.05331">
        <ele>90</ele>
        <time>2019-12-16T13:02:23Z</time>
      </trkpt>
      <trkpt lat="43.60207" lon="5.0533">
        <ele>90</ele>
        <time>2019-12-16T13:02:24Z</time>
      </trkpt>
      <trkpt lat="43.60206" lon="5.05328">
        <ele>90</ele>
        <time>2019-12-16T13:02:25Z</time>
      </trkpt>
      <trkpt lat="43.60206" lon="5.05327">
        <ele>90</ele>
        <time>2019-12-16T13:02:26Z</time>
      </trkpt>
      <trkpt lat="43.60206" lon="5.05325">
        <ele>90</ele>
        <time>2019-12-16T13:02:27Z</time>
      </trkpt>
      <trkpt lat="43.60205" lon="5.05323">
        <ele>90</ele>
        <time>2019-12-16T13:02:28Z</time>
      </trkpt>
      <trkpt lat="43.60205" lon="5.05322">
        <ele>90</ele>
        <time>2019-12-16T13:02:29Z</time>
      </trkpt>
      <trkpt lat="43.60204" lon="5.0532">
        <ele>90</ele>
        <time>2019-12-16T13:02:30Z</time>
      </trkpt>
      <trkpt lat="43.60204" lon="5.05319">
        <ele>90</ele>
        <time>2019-12-16T13:02:31Z</time>
      </trkpt>
      <trkpt lat="43.60203" lon="5.05317">
        <ele>90</ele>
        <time>2019-12-16T13:02:32Z</time>
      </trkpt>
      <trkpt lat="43.60202" lon="5.05316">
        <ele>90</ele>
        <time>2019-12-16T13:02:33Z</time>
      </trkpt>
      <trkpt lat="43.60202" lon="5.05314">
        <ele>90</ele>
        <time>2019-12-16T13:02:34Z</time>
      </trkpt>
      <trkpt lat="43.60201" lon="5.05313">
        <ele>90</ele>
        <time>2019-12-16T13:02:35Z</time>
      </trkpt>
      <trkpt lat="43.602" lon="5.05312">
        <ele>90</ele>
        <time>2019-12-16T13:02:36Z</time>
      </trkpt>
      <trkpt lat="43.60199" lon="5.05311">
        <ele>90</ele>
        <time>2019-12-16T13:02:37Z</time>
      </trkpt>
      <trkpt lat="43.60198" lon="5.0531">
        <ele>90</ele>
        <time>2019-12-16T13:02:38Z</time>
      </trkpt>
      <trkpt lat="43.60198" lon="5.05309">
        <ele>90</ele>
        <time>2019-12-16T13:02:39Z</time>
      </trkpt>
      <trkpt lat="43.60197" lon="5.05308">
        <ele>90</ele>
        <time>2019-12-16T13:02:40Z</time>
      </trkpt>
      <trkpt lat="43.60196" lon="5.05307">
        <ele>90</ele>
        <time>2019-12-16T13:02:41Z</time>
      </trkpt>
      <trkpt lat="43.60196" lon="5.05306">
        <ele>90</ele>
        <time>2019-12-16T13:02:42Z</time>
      </trkpt>
      <trkpt lat="43.60195" lon="5.05304">
        <ele>90</ele>
        <time>2019-12-16T13:02:43Z</time>
      </trkpt>
      <trkpt lat="43.60195" lon="5.05302">
        <ele>90</ele>
        <time>2019-12-16T13:02:44Z</time>
      </trkpt>
      <trkpt lat="43.60195" lon="5.05301">
        <ele>90</ele>
        <time>2019-12-16T13:02:45Z</time>
      </trkpt>
      <trkpt lat="43.60195" lon="5.05299">
        <ele>90</ele>
        <time>2019-12-16T13:02:46Z</time>
      </trkpt>
      <trkpt lat="43.60195" lon="5.05298">
        <ele>90</ele>
        <time>2019-12-16T13:02:47Z</time>
      </trkpt>
      <trkpt lat="43.60194" lon="5.05297">
        <ele>90</ele>
        <time>2019-12-16T13:02:48Z</time>
      </trkpt>
      <trkpt lat="43.60194" lon="5.05295">
        <ele>90</ele>
        <time>2019-12-16T13:02:49Z</time>
      </trkpt>
      <trkpt lat="43.60193" lon="5.05294">
        <ele>90</ele>
        <time>2019-12-16T13:02:50Z</time>
      </trkpt>
      <trkpt lat="43.60192" lon="5.05293">
        <ele>90</ele>
        <time>2019-12-16T13:02:51Z</time>
      </trkpt>
      <trkpt lat="43.60192" lon="5.05292">
        <ele>90</ele>
        <time>2019-12-16T13:02:52Z</time>
      </trkpt>
      <trkpt lat="43.60192" lon="5.05291">
        <ele>90</ele>
        <time>2019-12-16T13:02:53Z</time>
      </trkpt>
      <trkpt lat="43.60191" lon="5.05289">
        <ele>90</ele>
        <time>2019-12-16T13:02:54Z</time>
      </trkpt>
      <trkpt lat="43.60191" lon="5.05288">
        <ele>90</ele>
        <time>2019-12-16T13:02:55Z</time>
      </trkpt>
      <trkpt lat="43.60191" lon="5.05286">
        <ele>90</ele>
        <time>2019-12-16T13:02:56Z</time>
      </trkpt>
      <trkpt lat="43.60191" lon="5.05285">
        <ele>90</ele>
        <time>2019-12-16T13:02:57Z</time>
      </trkpt>
      <trkpt lat="43.60191" lon="5.05284">
        <ele>90</ele>
        <time>2019-12-16T13:02:58Z</time>
      </trkpt>
      <trkpt lat="43.60191" lon="5.05282">
        <ele>90</ele>
        <time>2019-12-16T13:02:59Z</time>
      </trkpt>
      <trkpt lat="43.60191" lon="5.05281">
        <ele>90</ele>
        <time>2019-12-16T13:03:00Z</time>
      </trkpt>
      <trkpt lat="43.60191" lon="5.05279">
        <ele>90</ele>
        <time>2019-12-16T13:03:01Z</time>
      </trkpt>
      <trkpt lat="43.60191" lon="5.05278">
        <ele>89</ele>
        <time>2019-12-16T13:03:02Z</time>
      </trkpt>
      <trkpt lat="43.60191" lon="5.05276">
        <ele>89</ele>
        <time>2019-12-16T13:03:03Z</time>
      </trkpt>
      <trkpt lat="43.60191" lon="5.05275">
        <ele>89</ele>
        <time>2019-12-16T13:03:04Z</time>
      </trkpt>
      <trkpt lat="43.60191" lon="5.05273">
        <ele>89</ele>
        <time>2019-12-16T13:03:05Z</time>
      </trkpt>
      <trkpt lat="43.60191" lon="5.05272">
        <ele>89</ele>
        <time>2019-12-16T13:03:06Z</time>
      </trkpt>
      <trkpt lat="43.60191" lon="5.0527">
        <ele>89</ele>
        <time>2019-12-16T13:03:07Z</time>
      </trkpt>
      <trkpt lat="43.60191" lon="5.05269">
        <ele>89</ele>
        <time>2019-12-16T13:03:08Z</time>
      </trkpt>
      <trkpt lat="43.60191" lon="5.05267">
        <ele>89</ele>
        <time>2019-12-16T13:03:09Z</time>
      </trkpt>
      <trkpt lat="43.60191" lon="5.05266">
        <ele>89</ele>
        <time>2019-12-16T13:03:10Z</time>
      </trkpt>
      <trkpt lat="43.60191" lon="5.05265">
        <ele>89</ele>
        <time>2019-12-16T13:03:11Z</time>
      </trkpt>
      <trkpt lat="43.60191" lon="5.05263">
        <ele>89</ele>
        <time>2019-12-16T13:03:12Z</time>
      </trkpt>
      <trkpt lat="43.60191" lon="5.05262">
        <ele>89</ele>
        <time>2019-12-16T13:03:13Z</time>
      </trkpt>
      <trkpt lat="43.6019" lon="5.0526">
        <ele>89</ele>
        <time>2019-12-16T13:03:14Z</time>
      </trkpt>
      <trkpt lat="43.6019" lon="5.05259">
        <ele>89</ele>
        <time>2019-12-16T13:03:15Z</time>
      </trkpt>
      <trkpt lat="43.6019" lon="5.05258">
        <ele>89</ele>
        <time>2019-12-16T13:03:16Z</time>
      </trkpt>
      <trkpt lat="43.60189" lon="5.05256">
        <ele>89</ele>
        <time>2019-12-16T13:03:17Z</time>
      </trkpt>
      <trkpt lat="43.60189" lon="5.05255">
        <ele>89</ele>
        <time>2019-12-16T13:03:18Z</time>
      </trkpt>
      <trkpt lat="43.60188" lon="5.05254">
        <ele>89</ele>
        <time>2019-12-16T13:03:19Z</time>
      </trkpt>
      <trkpt lat="43.60188" lon="5.05252">
        <ele>89</ele>
        <time>2019-12-16T13:03:20Z</time>
      </trkpt>
      <trkpt lat="43.60188" lon="5.05251">
        <ele>89</ele>
        <time>2019-12-16T13:03:21Z</time>
      </trkpt>
      <trkpt lat="43.60187" lon="5.0525">
        <ele>89</ele>
        <time>2019-12-16T13:03:22Z</time>
      </trkpt>
      <trkpt lat="43.60187" lon="5.05249">
        <ele>89</ele>
        <time>2019-12-16T13:03:23Z</time>
      </trkpt>
      <trkpt lat="43.60186" lon="5.05248">
        <ele>89</ele>
        <time>2019-12-16T13:03:24Z</time>
      </trkpt>
      <trkpt lat="43.60186" lon="5.05246">
        <ele>89</ele>
        <time>2019-12-16T13:03:25Z</time>
      </trkpt>
      <trkpt lat="43.60186" lon="5.05245">
        <ele>89</ele>
        <time>2019-12-16T13:03:26Z</time>
      </trkpt>
      <trkpt lat="43.60185" lon="5.05244">
        <ele>89</ele>
        <time>2019-12-16T13:03:27Z</time>
      </trkpt>
      <trkpt lat="43.60185" lon="5.05243">
        <ele>89</ele>
        <time>2019-12-16T13:03:28Z</time>
      </trkpt>
      <trkpt lat="43.60185" lon="5.05242">
        <ele>89</ele>
        <time>2019-12-16T13:03:29Z</time>
      </trkpt>
      <trkpt lat="43.60185" lon="5.05241">
        <ele>89</ele>
        <time>2019-12-16T13:03:30Z</time>
      </trkpt>
      <trkpt lat="43.60185" lon="5.0524">
        <ele>89</ele>
        <time>2019-12-16T13:03:31Z</time>
      </trkpt>
      <trkpt lat="43.60185" lon="5.05239">
        <ele>89</ele>
        <time>2019-12-16T13:03:32Z</time>
      </trkpt>
      <trkpt lat="43.60185" lon="5.05237">
        <ele>89</ele>
        <time>2019-12-16T13:03:33Z</time>
      </trkpt>
      <trkpt lat="43.60185" lon="5.05236">
        <ele>89</ele>
        <time>2019-12-16T13:03:34Z</time>
      </trkpt>
      <trkpt lat="43.60186" lon="5.05235">
        <ele>89</ele>
        <time>2019-12-16T13:03:35Z</time>
      </trkpt>
      <trkpt lat="43.60186" lon="5.05234">
        <ele>89</ele>
        <time>2019-12-16T13:03:36Z</time>
      </trkpt>
      <trkpt lat="43.60187" lon="5.05233">
        <ele>89</ele>
        <time>2019-12-16T13:03:37Z</time>
      </trkpt>
      <trkpt lat="43.60187" lon="5.05232">
        <ele>89</ele>
        <time>2019-12-16T13:03:38Z</time>
      </trkpt>
      <trkpt lat="43.60187" lon="5.0523">
        <ele>89</ele>
        <time>2019-12-16T13:03:39Z</time>
      </trkpt>
      <trkpt lat="43.60188" lon="5.05229">
        <ele>89</ele>
        <time>2019-12-16T13:03:40Z</time>
      </trkpt>
      <trkpt lat="43.60188" lon="5.05228">
        <ele>89</ele>
        <time>2019-12-16T13:03:41Z</time>
      </trkpt>
      <trkpt lat="43.60189" lon="5.05227">
        <ele>89</ele>
        <time>2019-12-16T13:03:42Z</time>
      </trkpt>
      <trkpt lat="43.60189" lon="5.05226">
        <ele>89</ele>
        <time>2019-12-16T13:03:43Z</time>
      </trkpt>
      <trkpt lat="43.6019" lon="5.05225">
        <ele>89</ele>
        <time>2019-12-16T13:03:44Z</time>
      </trkpt>
      <trkpt lat="43.6019" lon="5.05224">
        <ele>89</ele>
        <time>2019-12-16T13:03:45Z</time>
      </trkpt>
      <trkpt lat="43.6019" lon="5.05223">
        <ele>89</ele>
        <time>2019-12-16T13:03:46Z</time>
      </trkpt>
      <trkpt lat="43.60191" lon="5.05222">
        <ele>89</ele>
        <time>2019-12-16T13:03:47Z</time>
      </trkpt>
      <trkpt lat="43.60191" lon="5.05221">
        <ele>89</ele>
        <time>2019-12-16T13:03:48Z</time>
      </trkpt>
      <trkpt lat="43.60191" lon="5.0522">
        <ele>89</ele>
        <time>2019-12-16T13:03:49Z</time>
      </trkpt>
      <trkpt lat="43.60191" lon="5.05219">
        <ele>89</ele>
        <time>2019-12-16T13:03:50Z</time>
      </trkpt>
      <trkpt lat="43.60191" lon="5.05218">
        <ele>89</ele>
        <time>2019-12-16T13:03:51Z</time>
      </trkpt>
      <trkpt lat="43.60191" lon="5.05217">
        <ele>89</ele>
        <time>2019-12-16T13:03:52Z</time>
      </trkpt>
      <trkpt lat="43.60192" lon="5.05216">
        <ele>89</ele>
        <time>2019-12-16T13:03:53Z</time>
      </trkpt>
      <trkpt lat="43.60192" lon="5.05214">
        <ele>89</ele>
        <time>2019-12-16T13:03:54Z</time>
      </trkpt>
      <trkpt lat="43.60192" lon="5.05213">
        <ele>89</ele>
        <time>2019-12-16T13:03:55Z</time>
      </trkpt>
      <trkpt lat="43.60192" lon="5.05212">
        <ele>89</ele>
        <time>2019-12-16T13:03:56Z</time>
      </trkpt>
      <trkpt lat="43.60192" lon="5.0521">
        <ele>89</ele>
        <time>2019-12-16T13:03:57Z</time>
      </trkpt>
      <trkpt lat="43.60192" lon="5.05209">
        <ele>89</ele>
        <time>2019-12-16T13:03:58Z</time>
      </trkpt>
      <trkpt lat="43.60193" lon="5.05208">
        <ele>89</ele>
        <time>2019-12-16T13:03:59Z</time>
      </trkpt>
      <trkpt lat="43.60193" lon="5.05207">
        <ele>89</ele>
        <time>2019-12-16T13:04:00Z</time>
      </trkpt>
      <trkpt lat="43.60193" lon="5.05206">
        <ele>89</ele>
        <time>2019-12-16T13:04:01Z</time>
      </trkpt>
      <trkpt lat="43.60194" lon="5.05206">
        <ele>89</ele>
        <time>2019-12-16T13:04:02Z</time>
      </trkpt>
      <trkpt lat="43.60194" lon="5.05205">
        <ele>89</ele>
        <time>2019-12-16T13:04:03Z</time>
      </trkpt>
      <trkpt lat="43.60195" lon="5.05204">
        <ele>89</ele>
        <time>2019-12-16T13:04:04Z</time>
      </trkpt>
      <trkpt lat="43.60196" lon="5.05204">
        <ele>89</ele>
        <time>2019-12-16T13:04:05Z</time>
      </trkpt>
      <trkpt lat="43.60197" lon="5.05204">
        <ele>89</ele>
        <time>2019-12-16T13:04:06Z</time>
      </trkpt>
      <trkpt lat="43.60197" lon="5.05203">
        <ele>89</ele>
        <time>2019-12-16T13:04:07Z</time>
      </trkpt>
      <trkpt lat="43.60198" lon="5.05203">
        <ele>89</ele>
        <time>2019-12-16T13:04:08Z</time>
      </trkpt>
      <trkpt lat="43.60198" lon="5.05203">
        <ele>89</ele>
        <time>2019-12-16T13:04:09Z</time>
      </trkpt>
      <trkpt lat="43.60199" lon="5.05203">
        <ele>89</ele>
        <time>2019-12-16T13:04:10Z</time>
      </trkpt>
      <trkpt lat="43.60199" lon="5.05203">
        <ele>90</ele>
        <time>2019-12-16T13:04:11Z</time>
      </trkpt>
      <trkpt lat="43.602" lon="5.05202">
        <ele>90</ele>
        <time>2019-12-16T13:04:12Z</time>
      </trkpt>
      <trkpt lat="43.602" lon="5.05202">
        <ele>90</ele>
        <time>2019-12-16T13:04:13Z</time>
      </trkpt>
      <trkpt lat="43.60201" lon="5.05202">
        <ele>90</ele>
        <time>2019-12-16T13:04:14Z</time>
      </trkpt>
      <trkpt lat="43.60201" lon="5.05201">
        <ele>90</ele>
        <time>2019-12-16T13:04:15Z</time>
      </trkpt>
      <trkpt lat="43.60202" lon="5.05201">
        <ele>90</ele>
        <time>2019-12-16T13:04:16Z</time>
      </trkpt>
      <trkpt lat="43.60203" lon="5.05201">
        <ele>90</ele>
        <time>2019-12-16T13:04:17Z</time>
      </trkpt>
      <trkpt lat="43.60204" lon="5.052">
        <ele>90</ele>
        <time>2019-12-16T13:04:18Z</time>
      </trkpt>
      <trkpt lat="43.60204" lon="5.052">
        <ele>90</ele>
        <time>2019-12-16T13:04:19Z</time>
      </trkpt>
      <trkpt lat="43.60205" lon="5.052">
        <ele>90</ele>
        <time>2019-12-16T13:04:20Z</time>
      </trkpt>
      <trkpt lat="43.60206" lon="5.052">
        <ele>90</ele>
        <time>2019-12-16T13:04:21Z</time>
      </trkpt>
      <trkpt lat="43.60207" lon="5.052">
        <ele>90</ele>
        <time>2019-12-16T13:04:22Z</time>
      </trkpt>
      <trkpt lat="43.60207" lon="5.052">
        <ele>90</ele>
        <time>2019-12-16T13:04:23Z</time>
      </trkpt>
      <trkpt lat="43.60208" lon="5.052">
        <ele>90</ele>
        <time>2019-12-16T13:04:24Z</time>
      </trkpt>
      <trkpt lat="43.60208" lon="5.052">
        <ele>90</ele>
        <time>2019-12-16T13:04:25Z</time>
      </trkpt>
      <trkpt lat="43.60209" lon="5.05199">
        <ele>90</ele>
        <time>2019-12-16T13:04:26Z</time>
      </trkpt>
      <trkpt lat="43.60209" lon="5.05198">
        <ele>90</ele>
        <time>2019-12-16T13:04:27Z</time>
      </trkpt>
      <trkpt lat="43.6021" lon="5.05197">
        <ele>90</ele>
        <time>2019-12-16T13:04:28Z</time>
      </trkpt>
      <trkpt lat="43.6021" lon="5.05196">
        <ele>90</ele>
        <time>2019-12-16T13:04:29Z</time>
      </trkpt>
      <trkpt lat="43.6021" lon="5.05196">
        <ele>90</ele>
        <time>2019-12-16T13:04:30Z</time>
      </trkpt>
      <trkpt lat="43.6021" lon="5.05195">
        <ele>90</ele>
        <time>2019-12-16T13:04:31Z</time>
      </trkpt>
      <trkpt lat="43.60211" lon="5.05195">
        <ele>90</ele>
        <time>2019-12-16T13:04:32Z</time>
      </trkpt>
      <trkpt lat="43.60212" lon="5.05194">
        <ele>90</ele>
        <time>2019-12-16T13:04:33Z</time>
      </trkpt>
      <trkpt lat="43.60213" lon="5.05193">
        <ele>90</ele>
        <time>2019-12-16T13:04:34Z</time>
      </trkpt>
      <trkpt lat="43.60214" lon="5.05193">
        <ele>90</ele>
        <time>2019-12-16T13:04:35Z</time>
      </trkpt>
      <trkpt lat="43.60215" lon="5.05193">
        <ele>90</ele>
        <time>2019-12-16T13:04:36Z</time>
      </trkpt>
      <trkpt lat="43.60216" lon="5.05192">
        <ele>90</ele>
        <time>2019-12-16T13:04:37Z</time>
      </trkpt>
      <trkpt lat="43.60216" lon="5.05192">
        <ele>90</ele>
        <time>2019-12-16T13:04:38Z</time>
      </trkpt>
      <trkpt lat="43.60217" lon="5.05191">
        <ele>90</ele>
        <time>2019-12-16T13:04:39Z</time>
      </trkpt>
      <trkpt lat="43.60218" lon="5.0519">
        <ele>90</ele>
        <time>2019-12-16T13:04:40Z</time>
      </trkpt>
      <trkpt lat="43.60219" lon="5.0519">
        <ele>90</ele>
        <time>2019-12-16T13:04:41Z</time>
      </trkpt>
      <trkpt lat="43.6022" lon="5.05189">
        <ele>90</ele>
        <time>2019-12-16T13:04:42Z</time>
      </trkpt>
      <trkpt lat="43.6022" lon="5.05188">
        <ele>90</ele>
        <time>2019-12-16T13:04:43Z</time>
      </trkpt>
      <trkpt lat="43.60221" lon="5.05187">
        <ele>90</ele>
        <time>2019-12-16T13:04:44Z</time>
      </trkpt>
      <trkpt lat="43.60222" lon="5.05186">
        <ele>90</ele>
        <time>2019-12-16T13:04:45Z</time>
      </trkpt>
      <trkpt lat="43.60223" lon="5.05185">
        <ele>90</ele>
        <time>2019-12-16T13:04:46Z</time>
      </trkpt>
      <trkpt lat="43.60224" lon="5.05184">
        <ele>90</ele>
        <time>2019-12-16T13:04:47Z</time>
      </trkpt>
      <trkpt lat="43.60225" lon="5.05183">
        <ele>90</ele>
        <time>2019-12-16T13:04:48Z</time>
      </trkpt>
      <trkpt lat="43.60226" lon="5.05182">
        <ele>90</ele>
        <time>2019-12-16T13:04:49Z</time>
      </trkpt>
      <trkpt lat="43.60227" lon="5.05181">
        <ele>90</ele>
        <time>2019-12-16T13:04:50Z</time>
      </trkpt>
      <trkpt lat="43.60228" lon="5.0518">
        <ele>90</ele>
        <time>2019-12-16T13:04:51Z</time>
      </trkpt>
      <trkpt lat="43.60229" lon="5.05179">
        <ele>90</ele>
        <time>2019-12-16T13:04:52Z</time>
      </trkpt>
      <trkpt lat="43.6023" lon="5.05178">
        <ele>90</ele>
        <time>2019-12-16T13:04:53Z</time>
      </trkpt>
      <trkpt lat="43.6023" lon="5.05178">
        <ele>90</ele>
        <time>2019-12-16T13:04:54Z</time>
      </trkpt>
      <trkpt lat="43.60231" lon="5.05177">
        <ele>90</ele>
        <time>2019-12-16T13:04:55Z</time>
      </trkpt>
      <trkpt lat="43.60232" lon="5.05177">
        <ele>90</ele>
        <time>2019-12-16T13:04:56Z</time>
      </trkpt>
      <trkpt lat="43.60232" lon="5.05176">
        <ele>90</ele>
        <time>2019-12-16T13:04:57Z</time>
      </trkpt>
      <trkpt lat="43.60233" lon="5.05176">
        <ele>90</ele>
        <time>2019-12-16T13:04:58Z</time>
      </trkpt>
      <trkpt lat="43.60234" lon="5.05175">
        <ele>90</ele>
        <time>2019-12-16T13:04:59Z</time>
      </trkpt>
      <trkpt lat="43.60234" lon="5.05174">
        <ele>90</ele>
        <time>2019-12-16T13:05:00Z</time>
      </trkpt>
      <trkpt lat="43.60235" lon="5.05174">
        <ele>90</ele>
        <time>2019-12-16T13:05:01Z</time>
      </trkpt>
      <trkpt lat="43.60236" lon="5.05173">
        <ele>90</ele>
        <time>2019-12-16T13:05:02Z</time>
      </trkpt>
      <trkpt lat="43.60236" lon="5.05172">
        <ele>90</ele>
        <time>2019-12-16T13:05:03Z</time>
      </trkpt>
      <trkpt lat="43.60237" lon="5.0517">
        <ele>90</ele>
        <time>2019-12-16T13:05:04Z</time>
      </trkpt>
      <trkpt lat="43.60238" lon="5.05169">
        <ele>91</ele>
        <time>2019-12-16T13:05:05Z</time>
      </trkpt>
      <trkpt lat="43.60238" lon="5.05168">
        <ele>91</ele>
        <time>2019-12-16T13:05:06Z</time>
      </trkpt>
      <trkpt lat="43.60238" lon="5.05167">
        <ele>91</ele>
        <time>2019-12-16T13:05:07Z</time>
      </trkpt>
      <trkpt lat="43.60238" lon="5.05166">
        <ele>89</ele>
        <time>2019-12-16T13:05:08Z</time>
      </trkpt>
      <trkpt lat="43.60238" lon="5.05166">
        <ele>89</ele>
        <time>2019-12-16T13:05:09Z</time>
      </trkpt>
      <trkpt lat="43.60237" lon="5.05164">
        <ele>89</ele>
        <time>2019-12-16T13:05:10Z</time>
      </trkpt>
      <trkpt lat="43.60237" lon="5.05163">
        <ele>88</ele>
        <time>2019-12-16T13:05:11Z</time>
      </trkpt>
      <trkpt lat="43.60236" lon="5.05161">
        <ele>88</ele>
        <time>2019-12-16T13:05:12Z</time>
      </trkpt>
      <trkpt lat="43.60235" lon="5.0516">
        <ele>88</ele>
        <time>2019-12-16T13:05:13Z</time>
      </trkpt>
      <trkpt lat="43.60234" lon="5.05159">
        <ele>88</ele>
        <time>2019-12-16T13:05:14Z</time>
      </trkpt>
      <trkpt lat="43.60233" lon="5.05157">
        <ele>88</ele>
        <time>2019-12-16T13:05:15Z</time>
      </trkpt>
      <trkpt lat="43.60233" lon="5.05156">
        <ele>88</ele>
        <time>2019-12-16T13:05:16Z</time>
      </trkpt>
      <trkpt lat="43.60232" lon="5.05155">
        <ele>87</ele>
        <time>2019-12-16T13:05:17Z</time>
      </trkpt>
      <trkpt lat="43.60232" lon="5.05153">
        <ele>87</ele>
        <time>2019-12-16T13:05:18Z</time>
      </trkpt>
      <trkpt lat="43.60232" lon="5.05152">
        <ele>87</ele>
        <time>2019-12-16T13:05:19Z</time>
      </trkpt>
      <trkpt lat="43.60232" lon="5.0515">
        <ele>87</ele>
        <time>2019-12-16T13:05:20Z</time>
      </trkpt>
      <trkpt lat="43.60232" lon="5.05149">
        <ele>87</ele>
        <time>2019-12-16T13:05:21Z</time>
      </trkpt>
      <trkpt lat="43.60232" lon="5.05147">
        <ele>87</ele>
        <time>2019-12-16T13:05:22Z</time>
      </trkpt>
      <trkpt lat="43.60232" lon="5.05146">
        <ele>87</ele>
        <time>2019-12-16T13:05:23Z</time>
      </trkpt>
      <trkpt lat="43.60233" lon="5.05145">
        <ele>87</ele>
        <time>2019-12-16T13:05:24Z</time>
      </trkpt>
      <trkpt lat="43.60233" lon="5.05143">
        <ele>87</ele>
        <time>2019-12-16T13:05:25Z</time>
      </trkpt>
      <trkpt lat="43.60233" lon="5.05142">
        <ele>86</ele>
        <time>2019-12-16T13:05:26Z</time>
      </trkpt>
      <trkpt lat="43.60233" lon="5.05141">
        <ele>86</ele>
        <time>2019-12-16T13:05:27Z</time>
      </trkpt>
      <trkpt lat="43.60233" lon="5.0514">
        <ele>86</ele>
        <time>2019-12-16T13:05:28Z</time>
      </trkpt>
      <trkpt lat="43.60233" lon="5.0514">
        <ele>86</ele>
        <time>2019-12-16T13:05:29Z</time>
      </trkpt>
      <trkpt lat="43.60233" lon="5.05139">
        <ele>86</ele>
        <time>2019-12-16T13:05:30Z</time>
      </trkpt>
      <trkpt lat="43.60233" lon="5.05139">
        <ele>86</ele>
        <time>2019-12-16T13:05:31Z</time>
      </trkpt>
      <trkpt lat="43.60233" lon="5.05138">
        <ele>86</ele>
        <time>2019-12-16T13:05:32Z</time>
      </trkpt>
      <trkpt lat="43.60233" lon="5.05137">
        <ele>86</ele>
        <time>2019-12-16T13:05:33Z</time>
      </trkpt>
      <trkpt lat="43.60233" lon="5.05137">
        <ele>86</ele>
        <time>2019-12-16T13:05:34Z</time>
      </trkpt>
      <trkpt lat="43.60232" lon="5.05136">
        <ele>86</ele>
        <time>2019-12-16T13:05:35Z</time>
      </trkpt>
      <trkpt lat="43.60232" lon="5.05135">
        <ele>86</ele>
        <time>2019-12-16T13:05:36Z</time>
      </trkpt>
      <trkpt lat="43.60231" lon="5.05134">
        <ele>86</ele>
        <time>2019-12-16T13:05:37Z</time>
      </trkpt>
      <trkpt lat="43.60231" lon="5.05134">
        <ele>86</ele>
        <time>2019-12-16T13:05:38Z</time>
      </trkpt>
      <trkpt lat="43.60231" lon="5.05134">
        <ele>86</ele>
        <time>2019-12-16T13:05:39Z</time>
      </trkpt>
      <trkpt lat="43.6023" lon="5.05134">
        <ele>86</ele>
        <time>2019-12-16T13:05:40Z</time>
      </trkpt>
      <trkpt lat="43.6023" lon="5.05133">
        <ele>86</ele>
        <time>2019-12-16T13:05:41Z</time>
      </trkpt>
      <trkpt lat="43.6023" lon="5.05133">
        <ele>86</ele>
        <time>2019-12-16T13:05:42Z</time>
      </trkpt>
      <trkpt lat="43.6023" lon="5.05133">
        <ele>86</ele>
        <time>2019-12-16T13:05:43Z</time>
      </trkpt>
      <trkpt lat="43.60231" lon="5.05133">
        <ele>86</ele>
        <time>2019-12-16T13:05:44Z</time>
      </trkpt>
      <trkpt lat="43.60231" lon="5.05133">
        <ele>86</ele>
        <time>2019-12-16T13:05:45Z</time>
      </trkpt>
      <trkpt lat="43.60231" lon="5.05133">
        <ele>86</ele>
        <time>2019-12-16T13:05:46Z</time>
      </trkpt>
      <trkpt lat="43.6023" lon="5.05132">
        <ele>86</ele>
        <time>2019-12-16T13:05:47Z</time>
      </trkpt>
      <trkpt lat="43.6023" lon="5.05132">
        <ele>86</ele>
        <time>2019-12-16T13:05:48Z</time>
      </trkpt>
      <trkpt lat="43.6023" lon="5.05132">
        <ele>85</ele>
        <time>2019-12-16T13:05:49Z</time>
      </trkpt>
      <trkpt lat="43.6023" lon="5.05132">
        <ele>85</ele>
        <time>2019-12-16T13:05:50Z</time>
      </trkpt>
      <trkpt lat="43.6023" lon="5.05132">
        <ele>85</ele>
        <time>2019-12-16T13:05:51Z</time>
      </trkpt>
      <trkpt lat="43.6023" lon="5.05132">
        <ele>85</ele>
        <time>2019-12-16T13:05:52Z</time>
      </trkpt>
      <trkpt lat="43.6023" lon="5.05132">
        <ele>85</ele>
        <time>2019-12-16T13:05:53Z</time>
      </trkpt>
      <trkpt lat="43.6023" lon="5.05132">
        <ele>85</ele>
        <time>2019-12-16T13:05:54Z</time>
      </trkpt>
      <trkpt lat="43.6023" lon="5.05132">
        <ele>85</ele>
        <time>2019-12-16T13:05:55Z</time>
      </trkpt>
      <trkpt lat="43.6023" lon="5.05132">
        <ele>85</ele>
        <time>2019-12-16T13:05:56Z</time>
      </trkpt>
      <trkpt lat="43.6023" lon="5.05132">
        <ele>85</ele>
        <time>2019-12-16T13:05:57Z</time>
      </trkpt>
      <trkpt lat="43.6023" lon="5.05132">
        <ele>85</ele>
        <time>2019-12-16T13:05:58Z</time>
      </trkpt>
      <trkpt lat="43.6023" lon="5.05132">
        <ele>85</ele>
        <time>2019-12-16T13:05:59Z</time>
      </trkpt>
      <trkpt lat="43.6023" lon="5.05132">
        <ele>85</ele>
        <time>2019-12-16T13:06:00Z</time>
      </trkpt>
      <trkpt lat="43.6023" lon="5.05132">
        <ele>85</ele>
        <time>2019-12-16T13:06:01Z</time>
      </trkpt>
      <trkpt lat="43.6023" lon="5.05132">
        <ele>85</ele>
        <time>2019-12-16T13:06:02Z</time>
      </trkpt>
      <trkpt lat="43.6023" lon="5.05132">
        <ele>85</ele>
        <time>2019-12-16T13:06:03Z</time>
      </trkpt>
      <trkpt lat="43.6023" lon="5.05132">
        <ele>85</ele>
        <time>2019-12-16T13:06:04Z</time>
      </trkpt>
      <trkpt lat="43.6023" lon="5.05131">
        <ele>85</ele>
        <time>2019-12-16T13:06:05Z</time>
      </trkpt>
      <trkpt lat="43.6023" lon="5.05131">
        <ele>85</ele>
        <time>2019-12-16T13:06:06Z</time>
      </trkpt>
      <trkpt lat="43.6023" lon="5.05129">
        <ele>85</ele>
        <time>2019-12-16T13:06:07Z</time>
      </trkpt>
      <trkpt lat="43.6023" lon="5.05128">
        <ele>85</ele>
        <time>2019-12-16T13:06:08Z</time>
      </trkpt>
      <trkpt lat="43.6023" lon="5.05126">
        <ele>85</ele>
        <time>2019-12-16T13:06:09Z</time>
      </trkpt>
      <trkpt lat="43.60231" lon="5.05125">
        <ele>85</ele>
        <time>2019-12-16T13:06:10Z</time>
      </trkpt>
      <trkpt lat="43.60231" lon="5.05124">
        <ele>85</ele>
        <time>2019-12-16T13:06:11Z</time>
      </trkpt>
      <trkpt lat="43.60231" lon="5.05123">
        <ele>85</ele>
        <time>2019-12-16T13:06:12Z</time>
      </trkpt>
      <trkpt lat="43.60231" lon="5.05123">
        <ele>85</ele>
        <time>2019-12-16T13:06:13Z</time>
      </trkpt>
      <trkpt lat="43.60232" lon="5.05122">
        <ele>85</ele>
        <time>2019-12-16T13:06:14Z</time>
      </trkpt>
      <trkpt lat="43.60232" lon="5.05121">
        <ele>84</ele>
        <time>2019-12-16T13:06:15Z</time>
      </trkpt>
      <trkpt lat="43.60232" lon="5.0512">
        <ele>84</ele>
        <time>2019-12-16T13:06:16Z</time>
      </trkpt>
      <trkpt lat="43.60232" lon="5.05119">
        <ele>84</ele>
        <time>2019-12-16T13:06:17Z</time>
      </trkpt>
      <trkpt lat="43.60232" lon="5.05118">
        <ele>84</ele>
        <time>2019-12-16T13:06:18Z</time>
      </trkpt>
      <trkpt lat="43.60232" lon="5.05117">
        <ele>84</ele>
        <time>2019-12-16T13:06:19Z</time>
      </trkpt>
      <trkpt lat="43.60231" lon="5.05116">
        <ele>84</ele>
        <time>2019-12-16T13:06:20Z</time>
      </trkpt>
      <trkpt lat="43.60231" lon="5.05116">
        <ele>84</ele>
        <time>2019-12-16T13:06:21Z</time>
      </trkpt>
      <trkpt lat="43.60231" lon="5.05115">
        <ele>84</ele>
        <time>2019-12-16T13:06:22Z</time>
      </trkpt>
      <trkpt lat="43.60231" lon="5.05114">
        <ele>84</ele>
        <time>2019-12-16T13:06:23Z</time>
      </trkpt>
      <trkpt lat="43.60231" lon="5.05114">
        <ele>84</ele>
        <time>2019-12-16T13:06:24Z</time>
      </trkpt>
      <trkpt lat="43.60231" lon="5.05114">
        <ele>84</ele>
        <time>2019-12-16T13:06:25Z</time>
      </trkpt>
      <trkpt lat="43.60231" lon="5.05114">
        <ele>84</ele>
        <time>2019-12-16T13:06:26Z</time>
      </trkpt>
      <trkpt lat="43.60231" lon="5.05113">
        <ele>84</ele>
        <time>2019-12-16T13:06:27Z</time>
      </trkpt>
      <trkpt lat="43.60231" lon="5.05113">
        <ele>84</ele>
        <time>2019-12-16T13:06:28Z</time>
      </trkpt>
      <trkpt lat="43.60231" lon="5.05113">
        <ele>84</ele>
        <time>2019-12-16T13:06:29Z</time>
      </trkpt>
      <trkpt lat="43.60231" lon="5.05113">
        <ele>84</ele>
        <time>2019-12-16T13:06:30Z</time>
      </trkpt>
      <trkpt lat="43.60231" lon="5.05113">
        <ele>84</ele>
        <time>2019-12-16T13:06:31Z</time>
      </trkpt>
      <trkpt lat="43.60231" lon="5.05113">
        <ele>84</ele>
        <time>2019-12-16T13:06:32Z</time>
      </trkpt>
      <trkpt lat="43.60231" lon="5.05113">
        <ele>84</ele>
        <time>2019-12-16T13:06:33Z</time>
      </trkpt>
      <trkpt lat="43.60231" lon="5.05113">
        <ele>84</ele>
        <time>2019-12-16T13:06:34Z</time>
      </trkpt>
      <trkpt lat="43.60231" lon="5.05113">
        <ele>84</ele>
        <time>2019-12-16T13:06:35Z</time>
      </trkpt>
      <trkpt lat="43.60231" lon="5.05113">
        <ele>84</ele>
        <time>2019-12-16T13:06:36Z</time>
      </trkpt>
      <trkpt lat="43.60231" lon="5.05113">
        <ele>84</ele>
        <time>2019-12-16T13:06:37Z</time>
      </trkpt>
      <trkpt lat="43.60231" lon="5.05113">
        <ele>84</ele>
        <time>2019-12-16T13:06:38Z</time>
      </trkpt>
      <trkpt lat="43.60231" lon="5.05113">
        <ele>84</ele>
        <time>2019-12-16T13:06:39Z</time>
      </trkpt>
      <trkpt lat="43.6023" lon="5.05113">
        <ele>84</ele>
        <time>2019-12-16T13:06:40Z</time>
      </trkpt>
      <trkpt lat="43.6023" lon="5.05114">
        <ele>84</ele>
        <time>2019-12-16T13:06:41Z</time>
      </trkpt>
      <trkpt lat="43.6023" lon="5.05114">
        <ele>84</ele>
        <time>2019-12-16T13:06:42Z</time>
      </trkpt>
      <trkpt lat="43.6023" lon="5.05114">
        <ele>84</ele>
        <time>2019-12-16T13:06:43Z</time>
      </trkpt>
      <trkpt lat="43.6023" lon="5.05114">
        <ele>84</ele>
        <time>2019-12-16T13:06:44Z</time>
      </trkpt>
      <trkpt lat="43.6023" lon="5.05115">
        <ele>84</ele>
        <time>2019-12-16T13:06:45Z</time>
      </trkpt>
      <trkpt lat="43.60229" lon="5.05116">
        <ele>84</ele>
        <time>2019-12-16T13:06:46Z</time>
      </trkpt>
      <trkpt lat="43.60229" lon="5.05117">
        <ele>84</ele>
        <time>2019-12-16T13:06:47Z</time>
      </trkpt>
      <trkpt lat="43.60229" lon="5.05118">
        <ele>84</ele>
        <time>2019-12-16T13:06:48Z</time>
      </trkpt>
      <trkpt lat="43.60228" lon="5.05119">
        <ele>84</ele>
        <time>2019-12-16T13:06:49Z</time>
      </trkpt>
      <trkpt lat="43.60228" lon="5.05119">
        <ele>84</ele>
        <time>2019-12-16T13:06:50Z</time>
      </trkpt>
      <trkpt lat="43.60227" lon="5.05119">
        <ele>84</ele>
        <time>2019-12-16T13:06:51Z</time>
      </trkpt>
      <trkpt lat="43.60226" lon="5.05119">
        <ele>84</ele>
        <time>2019-12-16T13:06:52Z</time>
      </trkpt>
      <trkpt lat="43.60226" lon="5.05118">
        <ele>84</ele>
        <time>2019-12-16T13:06:53Z</time>
      </trkpt>
      <trkpt lat="43.60225" lon="5.05118">
        <ele>84</ele>
        <time>2019-12-16T13:06:54Z</time>
      </trkpt>
      <trkpt lat="43.60225" lon="5.05117">
        <ele>84</ele>
        <time>2019-12-16T13:06:55Z</time>
      </trkpt>
      <trkpt lat="43.60225" lon="5.05117">
        <ele>84</ele>
        <time>2019-12-16T13:06:56Z</time>
      </trkpt>
      <trkpt lat="43.60224" lon="5.05117">
        <ele>84</ele>
        <time>2019-12-16T13:06:57Z</time>
      </trkpt>
      <trkpt lat="43.60224" lon="5.05117">
        <ele>84</ele>
        <time>2019-12-16T13:06:58Z</time>
      </trkpt>
      <trkpt lat="43.60224" lon="5.05117">
        <ele>84</ele>
        <time>2019-12-16T13:06:59Z</time>
      </trkpt>
      <trkpt lat="43.60224" lon="5.05117">
        <ele>84</ele>
        <time>2019-12-16T13:07:00Z</time>
      </trkpt>
      <trkpt lat="43.60224" lon="5.05117">
        <ele>84</ele>
        <time>2019-12-16T13:07:01Z</time>
      </trkpt>
      <trkpt lat="43.60224" lon="5.05117">
        <ele>84</ele>
        <time>2019-12-16T13:07:02Z</time>
      </trkpt>
      <trkpt lat="43.60224" lon="5.05117">
        <ele>84</ele>
        <time>2019-12-16T13:07:03Z</time>
      </trkpt>
      <trkpt lat="43.60224" lon="5.05117">
        <ele>84</ele>
        <time>2019-12-16T13:07:04Z</time>
      </trkpt>
      <trkpt lat="43.60224" lon="5.05117">
        <ele>84</ele>
        <time>2019-12-16T13:07:05Z</time>
      </trkpt>
      <trkpt lat="43.60224" lon="5.05117">
        <ele>84</ele>
        <time>2019-12-16T13:07:06Z</time>
      </trkpt>
      <trkpt lat="43.60224" lon="5.05117">
        <ele>84</ele>
        <time>2019-12-16T13:07:07Z</time>
      </trkpt>
      <trkpt lat="43.60224" lon="5.05117">
        <ele>84</ele>
        <time>2019-12-16T13:07:08Z</time>
      </trkpt>
      <trkpt lat="43.60224" lon="5.05117">
        <ele>84</ele>
        <time>2019-12-16T13:07:09Z</time>
      </trkpt>
      <trkpt lat="43.60224" lon="5.05117">
        <ele>84</ele>
        <time>2019-12-16T13:07:10Z</time>
      </trkpt>
      <trkpt lat="43.60224" lon="5.05117">
        <ele>84</ele>
        <time>2019-12-16T13:07:11Z</time>
      </trkpt>
      <trkpt lat="43.60224" lon="5.05117">
        <ele>84</ele>
        <time>2019-12-16T13:07:12Z</time>
      </trkpt>
      <trkpt lat="43.60224" lon="5.05117">
        <ele>84</ele>
        <time>2019-12-16T13:07:13Z</time>
      </trkpt>
      <trkpt lat="43.60224" lon="5.05117">
        <ele>84</ele>
        <time>2019-12-16T13:07:14Z</time>
      </trkpt>
      <trkpt lat="43.60224" lon="5.05117">
        <ele>84</ele>
        <time>2019-12-16T13:07:15Z</time>
      </trkpt>
      <trkpt lat="43.60224" lon="5.05117">
        <ele>84</ele>
        <time>2019-12-16T13:07:16Z</time>
      </trkpt>
      <trkpt lat="43.60224" lon="5.05117">
        <ele>84</ele>
        <time>2019-12-16T13:07:17Z</time>
      </trkpt>
      <trkpt lat="43.60224" lon="5.05117">
        <ele>84</ele>
        <time>2019-12-16T13:07:18Z</time>
      </trkpt>
      <trkpt lat="43.60224" lon="5.05117">
        <ele>84</ele>
        <time>2019-12-16T13:07:19Z</time>
      </trkpt>
      <trkpt lat="43.60224" lon="5.05117">
        <ele>84</ele>
        <time>2019-12-16T13:07:20Z</time>
      </trkpt>
      <trkpt lat="43.60224" lon="5.05117">
        <ele>84</ele>
        <time>2019-12-16T13:07:21Z</time>
      </trkpt>
      <trkpt lat="43.60225" lon="5.05117">
        <ele>84</ele>
        <time>2019-12-16T13:07:22Z</time>
      </trkpt>
      <trkpt lat="43.60225" lon="5.05117">
        <ele>84</ele>
        <time>2019-12-16T13:07:23Z</time>
      </trkpt>
      <trkpt lat="43.60225" lon="5.05117">
        <ele>84</ele>
        <time>2019-12-16T13:07:24Z</time>
      </trkpt>
      <trkpt lat="43.60225" lon="5.05117">
        <ele>84</ele>
        <time>2019-12-16T13:07:25Z</time>
      </trkpt>
      <trkpt lat="43.60225" lon="5.05117">
        <ele>84</ele>
        <time>2019-12-16T13:07:26Z</time>
      </trkpt>
      <trkpt lat="43.60225" lon="5.05117">
        <ele>84</ele>
        <time>2019-12-16T13:07:27Z</time>
      </trkpt>
      <trkpt lat="43.60225" lon="5.05117">
        <ele>84</ele>
        <time>2019-12-16T13:07:28Z</time>
      </trkpt>
      <trkpt lat="43.60225" lon="5.05117">
        <ele>84</ele>
        <time>2019-12-16T13:07:29Z</time>
      </trkpt>
      <trkpt lat="43.60225" lon="5.05117">
        <ele>84</ele>
        <time>2019-12-16T13:07:30Z</time>
      </trkpt>
      <trkpt lat="43.60225" lon="5.05117">
        <ele>84</ele>
        <time>2019-12-16T13:07:31Z</time>
      </trkpt>
      <trkpt lat="43.60225" lon="5.05117">
        <ele>84</ele>
        <time>2019-12-16T13:07:32Z</time>
      </trkpt>
      <trkpt lat="43.60226" lon="5.05117">
        <ele>84</ele>
        <time>2019-12-16T13:07:33Z</time>
      </trkpt>
      <trkpt lat="43.60226" lon="5.05117">
        <ele>84</ele>
        <time>2019-12-16T13:07:34Z</time>
      </trkpt>
      <trkpt lat="43.60226" lon="5.05117">
        <ele>84</ele>
        <time>2019-12-16T13:07:35Z</time>
      </trkpt>
      <trkpt lat="43.60226" lon="5.05117">
        <ele>84</ele>
        <time>2019-12-16T13:07:36Z</time>
      </trkpt>
      <trkpt lat="43.60226" lon="5.05117">
        <ele>84</ele>
        <time>2019-12-16T13:07:37Z</time>
      </trkpt>
      <trkpt lat="43.60226" lon="5.05117">
        <ele>84</ele>
        <time>2019-12-16T13:07:38Z</time>
      </trkpt>
      <trkpt lat="43.60226" lon="5.05117">
        <ele>84</ele>
        <time>2019-12-16T13:07:39Z</time>
      </trkpt>
      <trkpt lat="43.60226" lon="5.05117">
        <ele>84</ele>
        <time>2019-12-16T13:07:40Z</time>
      </trkpt>
      <trkpt lat="43.60226" lon="5.05117">
        <ele>84</ele>
        <time>2019-12-16T13:07:41Z</time>
      </trkpt>
      <trkpt lat="43.60226" lon="5.05117">
        <ele>84</ele>
        <time>2019-12-16T13:07:42Z</time>
      </trkpt>
      <trkpt lat="43.60226" lon="5.05117">
        <ele>84</ele>
        <time>2019-12-16T13:07:43Z</time>
      </trkpt>
      <trkpt lat="43.60226" lon="5.05117">
        <ele>84</ele>
        <time>2019-12-16T13:07:44Z</time>
      </trkpt>
      <trkpt lat="43.60226" lon="5.05117">
        <ele>84</ele>
        <time>2019-12-16T13:07:45Z</time>
      </trkpt>
      <trkpt lat="43.60226" lon="5.05117">
        <ele>84</ele>
        <time>2019-12-16T13:07:46Z</time>
      </trkpt>
      <trkpt lat="43.60226" lon="5.05117">
        <ele>84</ele>
        <time>2019-12-16T13:07:47Z</time>
      </trkpt>
      <trkpt lat="43.60226" lon="5.05117">
        <ele>84</ele>
        <time>2019-12-16T13:07:48Z</time>
      </trkpt>
      <trkpt lat="43.60226" lon="5.05117">
        <ele>84</ele>
        <time>2019-12-16T13:07:49Z</time>
      </trkpt>
      <trkpt lat="43.60226" lon="5.05117">
        <ele>84</ele>
        <time>2019-12-16T13:07:50Z</time>
      </trkpt>
      <trkpt lat="43.60226" lon="5.05117">
        <ele>84</ele>
        <time>2019-12-16T13:07:51Z</time>
      </trkpt>
      <trkpt lat="43.60226" lon="5.05117">
        <ele>84</ele>
        <time>2019-12-16T13:07:52Z</time>
      </trkpt>
      <trkpt lat="43.60226" lon="5.05117">
        <ele>84</ele>
        <time>2019-12-16T13:07:53Z</time>
      </trkpt>
      <trkpt lat="43.60226" lon="5.05117">
        <ele>84</ele>
        <time>2019-12-16T13:07:54Z</time>
      </trkpt>
      <trkpt lat="43.60226" lon="5.05117">
        <ele>84</ele>
        <time>2019-12-16T13:07:55Z</time>
      </trkpt>
      <trkpt lat="43.60226" lon="5.05117">
        <ele>84</ele>
        <time>2019-12-16T13:07:56Z</time>
      </trkpt>
      <trkpt lat="43.60226" lon="5.05117">
        <ele>84</ele>
        <time>2019-12-16T13:07:57Z</time>
      </trkpt>
      <trkpt lat="43.60225" lon="5.05118">
        <ele>84</ele>
        <time>2019-12-16T13:07:58Z</time>
      </trkpt>
      <trkpt lat="43.60225" lon="5.05118">
        <ele>84</ele>
        <time>2019-12-16T13:07:59Z</time>
      </trkpt>
      <trkpt lat="43.60224" lon="5.05118">
        <ele>84</ele>
        <time>2019-12-16T13:08:00Z</time>
      </trkpt>
      <trkpt lat="43.60224" lon="5.05119">
        <ele>84</ele>
        <time>2019-12-16T13:08:01Z</time>
      </trkpt>
      <trkpt lat="43.60224" lon="5.05119">
        <ele>84</ele>
        <time>2019-12-16T13:08:02Z</time>
      </trkpt>
      <trkpt lat="43.60224" lon="5.05119">
        <ele>84</ele>
        <time>2019-12-16T13:08:03Z</time>
      </trkpt>
      <trkpt lat="43.60224" lon="5.05119">
        <ele>84</ele>
        <time>2019-12-16T13:08:04Z</time>
      </trkpt>
      <trkpt lat="43.60224" lon="5.05119">
        <ele>84</ele>
        <time>2019-12-16T13:08:05Z</time>
      </trkpt>
      <trkpt lat="43.60224" lon="5.05119">
        <ele>84</ele>
        <time>2019-12-16T13:08:06Z</time>
      </trkpt>
      <trkpt lat="43.60224" lon="5.05119">
        <ele>84</ele>
        <time>2019-12-16T13:08:07Z</time>
      </trkpt>
      <trkpt lat="43.60224" lon="5.05119">
        <ele>84</ele>
        <time>2019-12-16T13:08:08Z</time>
      </trkpt>
      <trkpt lat="43.60224" lon="5.05119">
        <ele>84</ele>
        <time>2019-12-16T13:08:09Z</time>
      </trkpt>
      <trkpt lat="43.60224" lon="5.05119">
        <ele>84</ele>
        <time>2019-12-16T13:08:10Z</time>
      </trkpt>
      <trkpt lat="43.60224" lon="5.05119">
        <ele>84</ele>
        <time>2019-12-16T13:08:11Z</time>
      </trkpt>
      <trkpt lat="43.60224" lon="5.05119">
        <ele>84</ele>
        <time>2019-12-16T13:08:12Z</time>
      </trkpt>
      <trkpt lat="43.60224" lon="5.0512">
        <ele>84</ele>
        <time>2019-12-16T13:08:13Z</time>
      </trkpt>
      <trkpt lat="43.60224" lon="5.0512">
        <ele>85</ele>
        <time>2019-12-16T13:08:14Z</time>
      </trkpt>
      <trkpt lat="43.60224" lon="5.0512">
        <ele>85</ele>
        <time>2019-12-16T13:08:15Z</time>
      </trkpt>
      <trkpt lat="43.60224" lon="5.0512">
        <ele>85</ele>
        <time>2019-12-16T13:08:16Z</time>
      </trkpt>
      <trkpt lat="43.60224" lon="5.0512">
        <ele>85</ele>
        <time>2019-12-16T13:08:17Z</time>
      </trkpt>
      <trkpt lat="43.60224" lon="5.05121">
        <ele>85</ele>
        <time>2019-12-16T13:08:18Z</time>
      </trkpt>
      <trkpt lat="43.60224" lon="5.05121">
        <ele>85</ele>
        <time>2019-12-16T13:08:19Z</time>
      </trkpt>
      <trkpt lat="43.60224" lon="5.05121">
        <ele>85</ele>
        <time>2019-12-16T13:08:20Z</time>
      </trkpt>
      <trkpt lat="43.60224" lon="5.05122">
        <ele>85</ele>
        <time>2019-12-16T13:08:21Z</time>
      </trkpt>
      <trkpt lat="43.60225" lon="5.05123">
        <ele>85</ele>
        <time>2019-12-16T13:08:22Z</time>
      </trkpt>
      <trkpt lat="43.60225" lon="5.05123">
        <ele>85</ele>
        <time>2019-12-16T13:08:23Z</time>
      </trkpt>
      <trkpt lat="43.60225" lon="5.05124">
        <ele>85</ele>
        <time>2019-12-16T13:08:24Z</time>
      </trkpt>
      <trkpt lat="43.60225" lon="5.05125">
        <ele>85</ele>
        <time>2019-12-16T13:08:25Z</time>
      </trkpt>
      <trkpt lat="43.60226" lon="5.05126">
        <ele>85</ele>
        <time>2019-12-16T13:08:26Z</time>
      </trkpt>
      <trkpt lat="43.60226" lon="5.05126">
        <ele>85</ele>
        <time>2019-12-16T13:08:27Z</time>
      </trkpt>
      <trkpt lat="43.60227" lon="5.05127">
        <ele>85</ele>
        <time>2019-12-16T13:08:28Z</time>
      </trkpt>
      <trkpt lat="43.60227" lon="5.05128">
        <ele>85</ele>
        <time>2019-12-16T13:08:29Z</time>
      </trkpt>
      <trkpt lat="43.60227" lon="5.05129">
        <ele>85</ele>
        <time>2019-12-16T13:08:30Z</time>
      </trkpt>
      <trkpt lat="43.60228" lon="5.0513">
        <ele>85</ele>
        <time>2019-12-16T13:08:31Z</time>
      </trkpt>
      <trkpt lat="43.60228" lon="5.05131">
        <ele>85</ele>
        <time>2019-12-16T13:08:32Z</time>
      </trkpt>
      <trkpt lat="43.60229" lon="5.05132">
        <ele>85</ele>
        <time>2019-12-16T13:08:33Z</time>
      </trkpt>
      <trkpt lat="43.60229" lon="5.05134">
        <ele>86</ele>
        <time>2019-12-16T13:08:34Z</time>
      </trkpt>
      <trkpt lat="43.6023" lon="5.05135">
        <ele>86</ele>
        <time>2019-12-16T13:08:35Z</time>
      </trkpt>
      <trkpt lat="43.6023" lon="5.05136">
        <ele>86</ele>
        <time>2019-12-16T13:08:36Z</time>
      </trkpt>
      <trkpt lat="43.6023" lon="5.05137">
        <ele>86</ele>
        <time>2019-12-16T13:08:37Z</time>
      </trkpt>
      <trkpt lat="43.60231" lon="5.05138">
        <ele>86</ele>
        <time>2019-12-16T13:08:38Z</time>
      </trkpt>
      <trkpt lat="43.60231" lon="5.05139">
        <ele>86</ele>
        <time>2019-12-16T13:08:39Z</time>
      </trkpt>
      <trkpt lat="43.60231" lon="5.0514">
        <ele>86</ele>
        <time>2019-12-16T13:08:40Z</time>
      </trkpt>
      <trkpt lat="43.60232" lon="5.05141">
        <ele>86</ele>
        <time>2019-12-16T13:08:41Z</time>
      </trkpt>
      <trkpt lat="43.60232" lon="5.05142">
        <ele>86</ele>
        <time>2019-12-16T13:08:42Z</time>
      </trkpt>
      <trkpt lat="43.60232" lon="5.05143">
        <ele>86</ele>
        <time>2019-12-16T13:08:43Z</time>
      </trkpt>
      <trkpt lat="43.60233" lon="5.05144">
        <ele>87</ele>
        <time>2019-12-16T13:08:44Z</time>
      </trkpt>
      <trkpt lat="43.60233" lon="5.05145">
        <ele>87</ele>
        <time>2019-12-16T13:08:45Z</time>
      </trkpt>
      <trkpt lat="43.60233" lon="5.05146">
        <ele>87</ele>
        <time>2019-12-16T13:08:46Z</time>
      </trkpt>
      <trkpt lat="43.60233" lon="5.05147">
        <ele>87</ele>
        <time>2019-12-16T13:08:47Z</time>
      </trkpt>
      <trkpt lat="43.60234" lon="5.05148">
        <ele>87</ele>
        <time>2019-12-16T13:08:48Z</time>
      </trkpt>
      <trkpt lat="43.60234" lon="5.05149">
        <ele>87</ele>
        <time>2019-12-16T13:08:49Z</time>
      </trkpt>
      <trkpt lat="43.60234" lon="5.0515">
        <ele>87</ele>
        <time>2019-12-16T13:08:50Z</time>
      </trkpt>
      <trkpt lat="43.60235" lon="5.05151">
        <ele>87</ele>
        <time>2019-12-16T13:08:51Z</time>
      </trkpt>
      <trkpt lat="43.60235" lon="5.05152">
        <ele>87</ele>
        <time>2019-12-16T13:08:52Z</time>
      </trkpt>
      <trkpt lat="43.60235" lon="5.05153">
        <ele>87</ele>
        <time>2019-12-16T13:08:53Z</time>
      </trkpt>
      <trkpt lat="43.60235" lon="5.05153">
        <ele>88</ele>
        <time>2019-12-16T13:08:54Z</time>
      </trkpt>
      <trkpt lat="43.60236" lon="5.05154">
        <ele>88</ele>
        <time>2019-12-16T13:08:55Z</time>
      </trkpt>
      <trkpt lat="43.60236" lon="5.05155">
        <ele>88</ele>
        <time>2019-12-16T13:08:56Z</time>
      </trkpt>
      <trkpt lat="43.60236" lon="5.05156">
        <ele>88</ele>
        <time>2019-12-16T13:08:57Z</time>
      </trkpt>
      <trkpt lat="43.60237" lon="5.05156">
        <ele>88</ele>
        <time>2019-12-16T13:08:58Z</time>
      </trkpt>
      <trkpt lat="43.60237" lon="5.05157">
        <ele>88</ele>
        <time>2019-12-16T13:08:59Z</time>
      </trkpt>
      <trkpt lat="43.60237" lon="5.05158">
        <ele>88</ele>
        <time>2019-12-16T13:09:00Z</time>
      </trkpt>
      <trkpt lat="43.60238" lon="5.05159">
        <ele>88</ele>
        <time>2019-12-16T13:09:01Z</time>
      </trkpt>
      <trkpt lat="43.60238" lon="5.0516">
        <ele>88</ele>
        <time>2019-12-16T13:09:02Z</time>
      </trkpt>
      <trkpt lat="43.60239" lon="5.05161">
        <ele>89</ele>
        <time>2019-12-16T13:09:03Z</time>
      </trkpt>
      <trkpt lat="43.60239" lon="5.05162">
        <ele>89</ele>
        <time>2019-12-16T13:09:04Z</time>
      </trkpt>
      <trkpt lat="43.60239" lon="5.05163">
        <ele>89</ele>
        <time>2019-12-16T13:09:05Z</time>
      </trkpt>
      <trkpt lat="43.6024" lon="5.05165">
        <ele>89</ele>
        <time>2019-12-16T13:09:06Z</time>
      </trkpt>
      <trkpt lat="43.6024" lon="5.05166">
        <ele>89</ele>
        <time>2019-12-16T13:09:07Z</time>
      </trkpt>
      <trkpt lat="43.6024" lon="5.05167">
        <ele>91</ele>
        <time>2019-12-16T13:09:08Z</time>
      </trkpt>
      <trkpt lat="43.60241" lon="5.05168">
        <ele>91</ele>
        <time>2019-12-16T13:09:09Z</time>
      </trkpt>
      <trkpt lat="43.60241" lon="5.05169">
        <ele>91</ele>
        <time>2019-12-16T13:09:10Z</time>
      </trkpt>
      <trkpt lat="43.60241" lon="5.0517">
        <ele>91</ele>
        <time>2019-12-16T13:09:11Z</time>
      </trkpt>
      <trkpt lat="43.60241" lon="5.0517">
        <ele>91</ele>
        <time>2019-12-16T13:09:12Z</time>
      </trkpt>
      <trkpt lat="43.60241" lon="5.05171">
        <ele>91</ele>
        <time>2019-12-16T13:09:13Z</time>
      </trkpt>
      <trkpt lat="43.60241" lon="5.05172">
        <ele>91</ele>
        <time>2019-12-16T13:09:14Z</time>
      </trkpt>
      <trkpt lat="43.60241" lon="5.05172">
        <ele>91</ele>
        <time>2019-12-16T13:09:15Z</time>
      </trkpt>
      <trkpt lat="43.6024" lon="5.05173">
        <ele>91</ele>
        <time>2019-12-16T13:09:16Z</time>
      </trkpt>
      <trkpt lat="43.6024" lon="5.05173">
        <ele>91</ele>
        <time>2019-12-16T13:09:17Z</time>
      </trkpt>
      <trkpt lat="43.60239" lon="5.05174">
        <ele>91</ele>
        <time>2019-12-16T13:09:18Z</time>
      </trkpt>
      <trkpt lat="43.60238" lon="5.05175">
        <ele>90</ele>
        <time>2019-12-16T13:09:19Z</time>
      </trkpt>
      <trkpt lat="43.60238" lon="5.05176">
        <ele>90</ele>
        <time>2019-12-16T13:09:20Z</time>
      </trkpt>
      <trkpt lat="43.60237" lon="5.05176">
        <ele>90</ele>
        <time>2019-12-16T13:09:21Z</time>
      </trkpt>
      <trkpt lat="43.60237" lon="5.05177">
        <ele>90</ele>
        <time>2019-12-16T13:09:22Z</time>
      </trkpt>
      <trkpt lat="43.60236" lon="5.05178">
        <ele>90</ele>
        <time>2019-12-16T13:09:23Z</time>
      </trkpt>
      <trkpt lat="43.60236" lon="5.05179">
        <ele>90</ele>
        <time>2019-12-16T13:09:24Z</time>
      </trkpt>
      <trkpt lat="43.60235" lon="5.0518">
        <ele>90</ele>
        <time>2019-12-16T13:09:25Z</time>
      </trkpt>
      <trkpt lat="43.60234" lon="5.0518">
        <ele>90</ele>
        <time>2019-12-16T13:09:26Z</time>
      </trkpt>
      <trkpt lat="43.60233" lon="5.05182">
        <ele>90</ele>
        <time>2019-12-16T13:09:27Z</time>
      </trkpt>
      <trkpt lat="43.60232" lon="5.05183">
        <ele>90</ele>
        <time>2019-12-16T13:09:28Z</time>
      </trkpt>
      <trkpt lat="43.60232" lon="5.05184">
        <ele>90</ele>
        <time>2019-12-16T13:09:29Z</time>
      </trkpt>
      <trkpt lat="43.60231" lon="5.05185">
        <ele>90</ele>
        <time>2019-12-16T13:09:30Z</time>
      </trkpt>
      <trkpt lat="43.6023" lon="5.05186">
        <ele>90</ele>
        <time>2019-12-16T13:09:31Z</time>
      </trkpt>
      <trkpt lat="43.60229" lon="5.05187">
        <ele>90</ele>
        <time>2019-12-16T13:09:32Z</time>
      </trkpt>
      <trkpt lat="43.60228" lon="5.05188">
        <ele>90</ele>
        <time>2019-12-16T13:09:33Z</time>
      </trkpt>
      <trkpt lat="43.60227" lon="5.05189">
        <ele>90</ele>
        <time>2019-12-16T13:09:34Z</time>
      </trkpt>
      <trkpt lat="43.60226" lon="5.0519">
        <ele>90</ele>
        <time>2019-12-16T13:09:35Z</time>
      </trkpt>
      <trkpt lat="43.60225" lon="5.05191">
        <ele>90</ele>
        <time>2019-12-16T13:09:36Z</time>
      </trkpt>
      <trkpt lat="43.60224" lon="5.05192">
        <ele>90</ele>
        <time>2019-12-16T13:09:37Z</time>
      </trkpt>
      <trkpt lat="43.60224" lon="5.05193">
        <ele>90</ele>
        <time>2019-12-16T13:09:38Z</time>
      </trkpt>
      <trkpt lat="43.60223" lon="5.05193">
        <ele>90</ele>
        <time>2019-12-16T13:09:39Z</time>
      </trkpt>
      <trkpt lat="43.60222" lon="5.05194">
        <ele>90</ele>
        <time>2019-12-16T13:09:40Z</time>
      </trkpt>
      <trkpt lat="43.60221" lon="5.05195">
        <ele>90</ele>
        <time>2019-12-16T13:09:41Z</time>
      </trkpt>
      <trkpt lat="43.60221" lon="5.05196">
        <ele>90</ele>
        <time>2019-12-16T13:09:42Z</time>
      </trkpt>
      <trkpt lat="43.6022" lon="5.05196">
        <ele>90</ele>
        <time>2019-12-16T13:09:43Z</time>
      </trkpt>
      <trkpt lat="43.60219" lon="5.05197">
        <ele>90</ele>
        <time>2019-12-16T13:09:44Z</time>
      </trkpt>
      <trkpt lat="43.60218" lon="5.05198">
        <ele>90</ele>
        <time>2019-12-16T13:09:45Z</time>
      </trkpt>
      <trkpt lat="43.60217" lon="5.05198">
        <ele>90</ele>
        <time>2019-12-16T13:09:46Z</time>
      </trkpt>
      <trkpt lat="43.60216" lon="5.05199">
        <ele>90</ele>
        <time>2019-12-16T13:09:47Z</time>
      </trkpt>
      <trkpt lat="43.60216" lon="5.052">
        <ele>90</ele>
        <time>2019-12-16T13:09:48Z</time>
      </trkpt>
      <trkpt lat="43.60214" lon="5.052">
        <ele>90</ele>
        <time>2019-12-16T13:09:49Z</time>
      </trkpt>
      <trkpt lat="43.60214" lon="5.05201">
        <ele>90</ele>
        <time>2019-12-16T13:09:50Z</time>
      </trkpt>
      <trkpt lat="43.60213" lon="5.05202">
        <ele>90</ele>
        <time>2019-12-16T13:09:51Z</time>
      </trkpt>
      <trkpt lat="43.60212" lon="5.05202">
        <ele>90</ele>
        <time>2019-12-16T13:09:52Z</time>
      </trkpt>
      <trkpt lat="43.60211" lon="5.05203">
        <ele>90</ele>
        <time>2019-12-16T13:09:53Z</time>
      </trkpt>
      <trkpt lat="43.6021" lon="5.05203">
        <ele>90</ele>
        <time>2019-12-16T13:09:54Z</time>
      </trkpt>
      <trkpt lat="43.60209" lon="5.05203">
        <ele>90</ele>
        <time>2019-12-16T13:09:55Z</time>
      </trkpt>
      <trkpt lat="43.60208" lon="5.05203">
        <ele>90</ele>
        <time>2019-12-16T13:09:56Z</time>
      </trkpt>
      <trkpt lat="43.60207" lon="5.05204">
        <ele>90</ele>
        <time>2019-12-16T13:09:57Z</time>
      </trkpt>
      <trkpt lat="43.60206" lon="5.05204">
        <ele>90</ele>
        <time>2019-12-16T13:09:58Z</time>
      </trkpt>
      <trkpt lat="43.60205" lon="5.05204">
        <ele>90</ele>
        <time>2019-12-16T13:09:59Z</time>
      </trkpt>
      <trkpt lat="43.60204" lon="5.05204">
        <ele>90</ele>
        <time>2019-12-16T13:10:00Z</time>
      </trkpt>
      <trkpt lat="43.60203" lon="5.05205">
        <ele>90</ele>
        <time>2019-12-16T13:10:01Z</time>
      </trkpt>
      <trkpt lat="43.60201" lon="5.05205">
        <ele>90</ele>
        <time>2019-12-16T13:10:02Z</time>
      </trkpt>
      <trkpt lat="43.602" lon="5.05205">
        <ele>90</ele>
        <time>2019-12-16T13:10:03Z</time>
      </trkpt>
      <trkpt lat="43.60199" lon="5.05205">
        <ele>90</ele>
        <time>2019-12-16T13:10:04Z</time>
      </trkpt>
      <trkpt lat="43.60198" lon="5.05205">
        <ele>89</ele>
        <time>2019-12-16T13:10:05Z</time>
      </trkpt>
      <trkpt lat="43.60198" lon="5.05206">
        <ele>89</ele>
        <time>2019-12-16T13:10:06Z</time>
      </trkpt>
      <trkpt lat="43.60197" lon="5.05206">
        <ele>89</ele>
        <time>2019-12-16T13:10:07Z</time>
      </trkpt>
      <trkpt lat="43.60196" lon="5.05207">
        <ele>89</ele>
        <time>2019-12-16T13:10:08Z</time>
      </trkpt>
      <trkpt lat="43.60196" lon="5.05208">
        <ele>89</ele>
        <time>2019-12-16T13:10:09Z</time>
      </trkpt>
      <trkpt lat="43.60195" lon="5.05209">
        <ele>89</ele>
        <time>2019-12-16T13:10:10Z</time>
      </trkpt>
      <trkpt lat="43.60194" lon="5.0521">
        <ele>89</ele>
        <time>2019-12-16T13:10:11Z</time>
      </trkpt>
      <trkpt lat="43.60194" lon="5.05211">
        <ele>89</ele>
        <time>2019-12-16T13:10:12Z</time>
      </trkpt>
      <trkpt lat="43.60194" lon="5.05213">
        <ele>89</ele>
        <time>2019-12-16T13:10:13Z</time>
      </trkpt>
      <trkpt lat="43.60193" lon="5.05214">
        <ele>89</ele>
        <time>2019-12-16T13:10:14Z</time>
      </trkpt>
      <trkpt lat="43.60193" lon="5.05215">
        <ele>89</ele>
        <time>2019-12-16T13:10:15Z</time>
      </trkpt>
      <trkpt lat="43.60193" lon="5.05216">
        <ele>89</ele>
        <time>2019-12-16T13:10:16Z</time>
      </trkpt>
      <trkpt lat="43.60192" lon="5.05218">
        <ele>89</ele>
        <time>2019-12-16T13:10:17Z</time>
      </trkpt>
      <trkpt lat="43.60192" lon="5.05219">
        <ele>89</ele>
        <time>2019-12-16T13:10:18Z</time>
      </trkpt>
      <trkpt lat="43.60192" lon="5.0522">
        <ele>89</ele>
        <time>2019-12-16T13:10:19Z</time>
      </trkpt>
      <trkpt lat="43.60192" lon="5.05221">
        <ele>89</ele>
        <time>2019-12-16T13:10:20Z</time>
      </trkpt>
      <trkpt lat="43.60192" lon="5.05222">
        <ele>89</ele>
        <time>2019-12-16T13:10:21Z</time>
      </trkpt>
      <trkpt lat="43.60192" lon="5.05223">
        <ele>89</ele>
        <time>2019-12-16T13:10:22Z</time>
      </trkpt>
      <trkpt lat="43.60192" lon="5.05224">
        <ele>89</ele>
        <time>2019-12-16T13:10:23Z</time>
      </trkpt>
      <trkpt lat="43.60192" lon="5.05226">
        <ele>89</ele>
        <time>2019-12-16T13:10:24Z</time>
      </trkpt>
      <trkpt lat="43.60191" lon="5.05226">
        <ele>89</ele>
        <time>2019-12-16T13:10:25Z</time>
      </trkpt>
      <trkpt lat="43.60191" lon="5.05227">
        <ele>89</ele>
        <time>2019-12-16T13:10:26Z</time>
      </trkpt>
      <trkpt lat="43.60191" lon="5.05228">
        <ele>89</ele>
        <time>2019-12-16T13:10:27Z</time>
      </trkpt>
      <trkpt lat="43.60191" lon="5.05229">
        <ele>89</ele>
        <time>2019-12-16T13:10:28Z</time>
      </trkpt>
      <trkpt lat="43.6019" lon="5.0523">
        <ele>89</ele>
        <time>2019-12-16T13:10:29Z</time>
      </trkpt>
      <trkpt lat="43.6019" lon="5.05231">
        <ele>89</ele>
        <time>2019-12-16T13:10:30Z</time>
      </trkpt>
      <trkpt lat="43.60189" lon="5.05232">
        <ele>89</ele>
        <time>2019-12-16T13:10:31Z</time>
      </trkpt>
      <trkpt lat="43.60188" lon="5.05233">
        <ele>89</ele>
        <time>2019-12-16T13:10:32Z</time>
      </trkpt>
      <trkpt lat="43.60188" lon="5.05233">
        <ele>89</ele>
        <time>2019-12-16T13:10:33Z</time>
      </trkpt>
      <trkpt lat="43.60187" lon="5.05234">
        <ele>89</ele>
        <time>2019-12-16T13:10:34Z</time>
      </trkpt>
      <trkpt lat="43.60186" lon="5.05235">
        <ele>89</ele>
        <time>2019-12-16T13:10:35Z</time>
      </trkpt>
      <trkpt lat="43.60185" lon="5.05235">
        <ele>89</ele>
        <time>2019-12-16T13:10:36Z</time>
      </trkpt>
      <trkpt lat="43.60185" lon="5.05236">
        <ele>89</ele>
        <time>2019-12-16T13:10:37Z</time>
      </trkpt>
      <trkpt lat="43.60184" lon="5.05236">
        <ele>89</ele>
        <time>2019-12-16T13:10:38Z</time>
      </trkpt>
      <trkpt lat="43.60183" lon="5.05237">
        <ele>89</ele>
        <time>2019-12-16T13:10:39Z</time>
      </trkpt>
      <trkpt lat="43.60183" lon="5.05237">
        <ele>89</ele>
        <time>2019-12-16T13:10:40Z</time>
      </trkpt>
      <trkpt lat="43.60182" lon="5.05237">
        <ele>89</ele>
        <time>2019-12-16T13:10:41Z</time>
      </trkpt>
      <trkpt lat="43.60182" lon="5.05237">
        <ele>89</ele>
        <time>2019-12-16T13:10:42Z</time>
      </trkpt>
      <trkpt lat="43.60181" lon="5.05237">
        <ele>89</ele>
        <time>2019-12-16T13:10:43Z</time>
      </trkpt>
      <trkpt lat="43.6018" lon="5.05237">
        <ele>89</ele>
        <time>2019-12-16T13:10:44Z</time>
      </trkpt>
      <trkpt lat="43.60179" lon="5.05237">
        <ele>88</ele>
        <time>2019-12-16T13:10:45Z</time>
      </trkpt>
      <trkpt lat="43.60178" lon="5.05237">
        <ele>88</ele>
        <time>2019-12-16T13:10:46Z</time>
      </trkpt>
      <trkpt lat="43.60176" lon="5.05237">
        <ele>88</ele>
        <time>2019-12-16T13:10:47Z</time>
      </trkpt>
      <trkpt lat="43.60175" lon="5.05237">
        <ele>88</ele>
        <time>2019-12-16T13:10:48Z</time>
      </trkpt>
      <trkpt lat="43.60174" lon="5.05237">
        <ele>88</ele>
        <time>2019-12-16T13:10:49Z</time>
      </trkpt>
      <trkpt lat="43.60174" lon="5.05236">
        <ele>88</ele>
        <time>2019-12-16T13:10:50Z</time>
      </trkpt>
      <trkpt lat="43.60173" lon="5.05236">
        <ele>88</ele>
        <time>2019-12-16T13:10:51Z</time>
      </trkpt>
      <trkpt lat="43.60172" lon="5.05235">
        <ele>88</ele>
        <time>2019-12-16T13:10:52Z</time>
      </trkpt>
      <trkpt lat="43.60171" lon="5.05235">
        <ele>88</ele>
        <time>2019-12-16T13:10:53Z</time>
      </trkpt>
      <trkpt lat="43.6017" lon="5.05234">
        <ele>88</ele>
        <time>2019-12-16T13:10:54Z</time>
      </trkpt>
      <trkpt lat="43.6017" lon="5.05233">
        <ele>88</ele>
        <time>2019-12-16T13:10:55Z</time>
      </trkpt>
      <trkpt lat="43.60169" lon="5.05233">
        <ele>88</ele>
        <time>2019-12-16T13:10:56Z</time>
      </trkpt>
      <trkpt lat="43.60168" lon="5.05232">
        <ele>88</ele>
        <time>2019-12-16T13:10:57Z</time>
      </trkpt>
      <trkpt lat="43.60167" lon="5.05231">
        <ele>88</ele>
        <time>2019-12-16T13:10:58Z</time>
      </trkpt>
      <trkpt lat="43.60166" lon="5.0523">
        <ele>87</ele>
        <time>2019-12-16T13:10:59Z</time>
      </trkpt>
      <trkpt lat="43.60165" lon="5.05229">
        <ele>87</ele>
        <time>2019-12-16T13:11:00Z</time>
      </trkpt>
      <trkpt lat="43.60164" lon="5.05228">
        <ele>87</ele>
        <time>2019-12-16T13:11:01Z</time>
      </trkpt>
      <trkpt lat="43.60164" lon="5.05227">
        <ele>87</ele>
        <time>2019-12-16T13:11:02Z</time>
      </trkpt>
      <trkpt lat="43.60163" lon="5.05226">
        <ele>87</ele>
        <time>2019-12-16T13:11:03Z</time>
      </trkpt>
      <trkpt lat="43.60162" lon="5.05225">
        <ele>87</ele>
        <time>2019-12-16T13:11:04Z</time>
      </trkpt>
      <trkpt lat="43.60161" lon="5.05224">
        <ele>87</ele>
        <time>2019-12-16T13:11:05Z</time>
      </trkpt>
      <trkpt lat="43.6016" lon="5.05223">
        <ele>87</ele>
        <time>2019-12-16T13:11:06Z</time>
      </trkpt>
      <trkpt lat="43.60159" lon="5.05222">
        <ele>87</ele>
        <time>2019-12-16T13:11:07Z</time>
      </trkpt>
      <trkpt lat="43.60158" lon="5.05221">
        <ele>87</ele>
        <time>2019-12-16T13:11:08Z</time>
      </trkpt>
      <trkpt lat="43.60158" lon="5.0522">
        <ele>87</ele>
        <time>2019-12-16T13:11:09Z</time>
      </trkpt>
      <trkpt lat="43.60157" lon="5.05219">
        <ele>87</ele>
        <time>2019-12-16T13:11:10Z</time>
      </trkpt>
      <trkpt lat="43.60156" lon="5.05218">
        <ele>87</ele>
        <time>2019-12-16T13:11:11Z</time>
      </trkpt>
      <trkpt lat="43.60155" lon="5.05217">
        <ele>87</ele>
        <time>2019-12-16T13:11:12Z</time>
      </trkpt>
      <trkpt lat="43.60154" lon="5.05216">
        <ele>87</ele>
        <time>2019-12-16T13:11:13Z</time>
      </trkpt>
      <trkpt lat="43.60154" lon="5.05216">
        <ele>87</ele>
        <time>2019-12-16T13:11:14Z</time>
      </trkpt>
      <trkpt lat="43.60153" lon="5.05215">
        <ele>87</ele>
        <time>2019-12-16T13:11:15Z</time>
      </trkpt>
      <trkpt lat="43.60152" lon="5.05214">
        <ele>87</ele>
        <time>2019-12-16T13:11:16Z</time>
      </trkpt>
      <trkpt lat="43.60151" lon="5.05213">
        <ele>87</ele>
        <time>2019-12-16T13:11:17Z</time>
      </trkpt>
      <trkpt lat="43.6015" lon="5.05212">
        <ele>87</ele>
        <time>2019-12-16T13:11:18Z</time>
      </trkpt>
      <trkpt lat="43.60149" lon="5.05211">
        <ele>87</ele>
        <time>2019-12-16T13:11:19Z</time>
      </trkpt>
      <trkpt lat="43.60148" lon="5.0521">
        <ele>87</ele>
        <time>2019-12-16T13:11:20Z</time>
      </trkpt>
      <trkpt lat="43.60148" lon="5.0521">
        <ele>87</ele>
        <time>2019-12-16T13:11:21Z</time>
      </trkpt>
      <trkpt lat="43.60147" lon="5.05209">
        <ele>87</ele>
        <time>2019-12-16T13:11:22Z</time>
      </trkpt>
      <trkpt lat="43.60145" lon="5.05209">
        <ele>87</ele>
        <time>2019-12-16T13:11:23Z</time>
      </trkpt>
      <trkpt lat="43.60145" lon="5.05208">
        <ele>87</ele>
        <time>2019-12-16T13:11:24Z</time>
      </trkpt>
      <trkpt lat="43.60143" lon="5.05207">
        <ele>87</ele>
        <time>2019-12-16T13:11:25Z</time>
      </trkpt>
      <trkpt lat="43.60142" lon="5.05207">
        <ele>87</ele>
        <time>2019-12-16T13:11:26Z</time>
      </trkpt>
      <trkpt lat="43.60141" lon="5.05206">
        <ele>87</ele>
        <time>2019-12-16T13:11:27Z</time>
      </trkpt>
      <trkpt lat="43.6014" lon="5.05206">
        <ele>87</ele>
        <time>2019-12-16T13:11:28Z</time>
      </trkpt>
      <trkpt lat="43.60139" lon="5.05205">
        <ele>87</ele>
        <time>2019-12-16T13:11:29Z</time>
      </trkpt>
      <trkpt lat="43.60138" lon="5.05205">
        <ele>87</ele>
        <time>2019-12-16T13:11:30Z</time>
      </trkpt>
      <trkpt lat="43.60136" lon="5.05204">
        <ele>87</ele>
        <time>2019-12-16T13:11:31Z</time>
      </trkpt>
      <trkpt lat="43.60135" lon="5.05204">
        <ele>87</ele>
        <time>2019-12-16T13:11:32Z</time>
      </trkpt>
      <trkpt lat="43.60134" lon="5.05203">
        <ele>87</ele>
        <time>2019-12-16T13:11:33Z</time>
      </trkpt>
      <trkpt lat="43.60133" lon="5.05203">
        <ele>87</ele>
        <time>2019-12-16T13:11:34Z</time>
      </trkpt>
      <trkpt lat="43.60132" lon="5.05202">
        <ele>87</ele>
        <time>2019-12-16T13:11:35Z</time>
      </trkpt>
      <trkpt lat="43.60131" lon="5.05201">
        <ele>87</ele>
        <time>2019-12-16T13:11:36Z</time>
      </trkpt>
      <trkpt lat="43.60131" lon="5.052">
        <ele>87</ele>
        <time>2019-12-16T13:11:37Z</time>
      </trkpt>
      <trkpt lat="43.6013" lon="5.05199">
        <ele>87</ele>
        <time>2019-12-16T13:11:38Z</time>
      </trkpt>
      <trkpt lat="43.6013" lon="5.05197">
        <ele>87</ele>
        <time>2019-12-16T13:11:39Z</time>
      </trkpt>
      <trkpt lat="43.60129" lon="5.05196">
        <ele>87</ele>
        <time>2019-12-16T13:11:40Z</time>
      </trkpt>
      <trkpt lat="43.60129" lon="5.05195">
        <ele>87</ele>
        <time>2019-12-16T13:11:41Z</time>
      </trkpt>
      <trkpt lat="43.60129" lon="5.05193">
        <ele>87</ele>
        <time>2019-12-16T13:11:42Z</time>
      </trkpt>
      <trkpt lat="43.60129" lon="5.05191">
        <ele>87</ele>
        <time>2019-12-16T13:11:43Z</time>
      </trkpt>
      <trkpt lat="43.60129" lon="5.0519">
        <ele>87</ele>
        <time>2019-12-16T13:11:44Z</time>
      </trkpt>
      <trkpt lat="43.60129" lon="5.05188">
        <ele>87</ele>
        <time>2019-12-16T13:11:45Z</time>
      </trkpt>
      <trkpt lat="43.6013" lon="5.05187">
        <ele>87</ele>
        <time>2019-12-16T13:11:46Z</time>
      </trkpt>
      <trkpt lat="43.6013" lon="5.05185">
        <ele>87</ele>
        <time>2019-12-16T13:11:47Z</time>
      </trkpt>
      <trkpt lat="43.60131" lon="5.05184">
        <ele>87</ele>
        <time>2019-12-16T13:11:48Z</time>
      </trkpt>
      <trkpt lat="43.60131" lon="5.05182">
        <ele>87</ele>
        <time>2019-12-16T13:11:49Z</time>
      </trkpt>
      <trkpt lat="43.60132" lon="5.05181">
        <ele>87</ele>
        <time>2019-12-16T13:11:50Z</time>
      </trkpt>
      <trkpt lat="43.60132" lon="5.05179">
        <ele>87</ele>
        <time>2019-12-16T13:11:51Z</time>
      </trkpt>
      <trkpt lat="43.60132" lon="5.05178">
        <ele>87</ele>
        <time>2019-12-16T13:11:52Z</time>
      </trkpt>
      <trkpt lat="43.60133" lon="5.05176">
        <ele>87</ele>
        <time>2019-12-16T13:11:53Z</time>
      </trkpt>
      <trkpt lat="43.60133" lon="5.05175">
        <ele>87</ele>
        <time>2019-12-16T13:11:54Z</time>
      </trkpt>
      <trkpt lat="43.60133" lon="5.05173">
        <ele>87</ele>
        <time>2019-12-16T13:11:55Z</time>
      </trkpt>
      <trkpt lat="43.60133" lon="5.05172">
        <ele>87</ele>
        <time>2019-12-16T13:11:56Z</time>
      </trkpt>
      <trkpt lat="43.60133" lon="5.0517">
        <ele>87</ele>
        <time>2019-12-16T13:11:57Z</time>
      </trkpt>
      <trkpt lat="43.60133" lon="5.05169">
        <ele>87</ele>
        <time>2019-12-16T13:11:58Z</time>
      </trkpt>
      <trkpt lat="43.60133" lon="5.05168">
        <ele>87</ele>
        <time>2019-12-16T13:11:59Z</time>
      </trkpt>
      <trkpt lat="43.60133" lon="5.05167">
        <ele>85</ele>
        <time>2019-12-16T13:12:00Z</time>
      </trkpt>
      <trkpt lat="43.60132" lon="5.05165">
        <ele>85</ele>
        <time>2019-12-16T13:12:01Z</time>
      </trkpt>
      <trkpt lat="43.60132" lon="5.05164">
        <ele>85</ele>
        <time>2019-12-16T13:12:02Z</time>
      </trkpt>
      <trkpt lat="43.60132" lon="5.05163">
        <ele>85</ele>
        <time>2019-12-16T13:12:03Z</time>
      </trkpt>
      <trkpt lat="43.60131" lon="5.05162">
        <ele>85</ele>
        <time>2019-12-16T13:12:04Z</time>
      </trkpt>
      <trkpt lat="43.60131" lon="5.05161">
        <ele>85</ele>
        <time>2019-12-16T13:12:05Z</time>
      </trkpt>
      <trkpt lat="43.6013" lon="5.0516">
        <ele>85</ele>
        <time>2019-12-16T13:12:06Z</time>
      </trkpt>
      <trkpt lat="43.60129" lon="5.05158">
        <ele>85</ele>
        <time>2019-12-16T13:12:07Z</time>
      </trkpt>
      <trkpt lat="43.60129" lon="5.05157">
        <ele>85</ele>
        <time>2019-12-16T13:12:08Z</time>
      </trkpt>
      <trkpt lat="43.60128" lon="5.05156">
        <ele>85</ele>
        <time>2019-12-16T13:12:09Z</time>
      </trkpt>
      <trkpt lat="43.60128" lon="5.05155">
        <ele>85</ele>
        <time>2019-12-16T13:12:10Z</time>
      </trkpt>
      <trkpt lat="43.60127" lon="5.05154">
        <ele>85</ele>
        <time>2019-12-16T13:12:11Z</time>
      </trkpt>
      <trkpt lat="43.60127" lon="5.05153">
        <ele>85</ele>
        <time>2019-12-16T13:12:12Z</time>
      </trkpt>
      <trkpt lat="43.60126" lon="5.05152">
        <ele>85</ele>
        <time>2019-12-16T13:12:13Z</time>
      </trkpt>
      <trkpt lat="43.60126" lon="5.05151">
        <ele>85</ele>
        <time>2019-12-16T13:12:14Z</time>
      </trkpt>
      <trkpt lat="43.60125" lon="5.0515">
        <ele>85</ele>
        <time>2019-12-16T13:12:15Z</time>
      </trkpt>
      <trkpt lat="43.60125" lon="5.05149">
        <ele>85</ele>
        <time>2019-12-16T13:12:16Z</time>
      </trkpt>
      <trkpt lat="43.60124" lon="5.05147">
        <ele>85</ele>
        <time>2019-12-16T13:12:17Z</time>
      </trkpt>
      <trkpt lat="43.60123" lon="5.05146">
        <ele>85</ele>
        <time>2019-12-16T13:12:18Z</time>
      </trkpt>
      <trkpt lat="43.60123" lon="5.05145">
        <ele>85</ele>
        <time>2019-12-16T13:12:19Z</time>
      </trkpt>
      <trkpt lat="43.60122" lon="5.05144">
        <ele>85</ele>
        <time>2019-12-16T13:12:20Z</time>
      </trkpt>
      <trkpt lat="43.60121" lon="5.05143">
        <ele>85</ele>
        <time>2019-12-16T13:12:21Z</time>
      </trkpt>
      <trkpt lat="43.60121" lon="5.05142">
        <ele>85</ele>
        <time>2019-12-16T13:12:22Z</time>
      </trkpt>
      <trkpt lat="43.6012" lon="5.05141">
        <ele>85</ele>
        <time>2019-12-16T13:12:23Z</time>
      </trkpt>
      <trkpt lat="43.60119" lon="5.0514">
        <ele>85</ele>
        <time>2019-12-16T13:12:24Z</time>
      </trkpt>
      <trkpt lat="43.60118" lon="5.05138">
        <ele>84</ele>
        <time>2019-12-16T13:12:25Z</time>
      </trkpt>
      <trkpt lat="43.60118" lon="5.05137">
        <ele>84</ele>
        <time>2019-12-16T13:12:26Z</time>
      </trkpt>
      <trkpt lat="43.60117" lon="5.05136">
        <ele>84</ele>
        <time>2019-12-16T13:12:27Z</time>
      </trkpt>
      <trkpt lat="43.60116" lon="5.05135">
        <ele>84</ele>
        <time>2019-12-16T13:12:28Z</time>
      </trkpt>
      <trkpt lat="43.60115" lon="5.05134">
        <ele>84</ele>
        <time>2019-12-16T13:12:29Z</time>
      </trkpt>
      <trkpt lat="43.60114" lon="5.05132">
        <ele>84</ele>
        <time>2019-12-16T13:12:30Z</time>
      </trkpt>
      <trkpt lat="43.60113" lon="5.05131">
        <ele>84</ele>
        <time>2019-12-16T13:12:31Z</time>
      </trkpt>
      <trkpt lat="43.60112" lon="5.0513">
        <ele>84</ele>
        <time>2019-12-16T13:12:32Z</time>
      </trkpt>
      <trkpt lat="43.60111" lon="5.05129">
        <ele>84</ele>
        <time>2019-12-16T13:12:33Z</time>
      </trkpt>
      <trkpt lat="43.6011" lon="5.05127">
        <ele>84</ele>
        <time>2019-12-16T13:12:34Z</time>
      </trkpt>
      <trkpt lat="43.60109" lon="5.05126">
        <ele>84</ele>
        <time>2019-12-16T13:12:35Z</time>
      </trkpt>
      <trkpt lat="43.60109" lon="5.05125">
        <ele>84</ele>
        <time>2019-12-16T13:12:36Z</time>
      </trkpt>
      <trkpt lat="43.60108" lon="5.05124">
        <ele>84</ele>
        <time>2019-12-16T13:12:37Z</time>
      </trkpt>
      <trkpt lat="43.60107" lon="5.05122">
        <ele>84</ele>
        <time>2019-12-16T13:12:38Z</time>
      </trkpt>
      <trkpt lat="43.60106" lon="5.05121">
        <ele>84</ele>
        <time>2019-12-16T13:12:39Z</time>
      </trkpt>
      <trkpt lat="43.60105" lon="5.0512">
        <ele>84</ele>
        <time>2019-12-16T13:12:40Z</time>
      </trkpt>
      <trkpt lat="43.60104" lon="5.05118">
        <ele>84</ele>
        <time>2019-12-16T13:12:41Z</time>
      </trkpt>
      <trkpt lat="43.60104" lon="5.05117">
        <ele>84</ele>
        <time>2019-12-16T13:12:42Z</time>
      </trkpt>
      <trkpt lat="43.60103" lon="5.05116">
        <ele>84</ele>
        <time>2019-12-16T13:12:43Z</time>
      </trkpt>
      <trkpt lat="43.60102" lon="5.05114">
        <ele>84</ele>
        <time>2019-12-16T13:12:44Z</time>
      </trkpt>
      <trkpt lat="43.60102" lon="5.05113">
        <ele>84</ele>
        <time>2019-12-16T13:12:45Z</time>
      </trkpt>
      <trkpt lat="43.60102" lon="5.05112">
        <ele>83</ele>
        <time>2019-12-16T13:12:46Z</time>
      </trkpt>
      <trkpt lat="43.60101" lon="5.05111">
        <ele>83</ele>
        <time>2019-12-16T13:12:47Z</time>
      </trkpt>
      <trkpt lat="43.60101" lon="5.05109">
        <ele>83</ele>
        <time>2019-12-16T13:12:48Z</time>
      </trkpt>
      <trkpt lat="43.60101" lon="5.05108">
        <ele>83</ele>
        <time>2019-12-16T13:12:49Z</time>
      </trkpt>
      <trkpt lat="43.60101" lon="5.05107">
        <ele>83</ele>
        <time>2019-12-16T13:12:50Z</time>
      </trkpt>
      <trkpt lat="43.601" lon="5.05105">
        <ele>83</ele>
        <time>2019-12-16T13:12:51Z</time>
      </trkpt>
      <trkpt lat="43.601" lon="5.05104">
        <ele>83</ele>
        <time>2019-12-16T13:12:52Z</time>
      </trkpt>
      <trkpt lat="43.601" lon="5.05103">
        <ele>83</ele>
        <time>2019-12-16T13:12:53Z</time>
      </trkpt>
      <trkpt lat="43.601" lon="5.05102">
        <ele>83</ele>
        <time>2019-12-16T13:12:54Z</time>
      </trkpt>
      <trkpt lat="43.601" lon="5.05101">
        <ele>83</ele>
        <time>2019-12-16T13:12:55Z</time>
      </trkpt>
      <trkpt lat="43.601" lon="5.05099">
        <ele>83</ele>
        <time>2019-12-16T13:12:56Z</time>
      </trkpt>
      <trkpt lat="43.601" lon="5.05098">
        <ele>83</ele>
        <time>2019-12-16T13:12:57Z</time>
      </trkpt>
      <trkpt lat="43.60099" lon="5.05097">
        <ele>83</ele>
        <time>2019-12-16T13:12:58Z</time>
      </trkpt>
      <trkpt lat="43.60099" lon="5.05096">
        <ele>83</ele>
        <time>2019-12-16T13:12:59Z</time>
      </trkpt>
      <trkpt lat="43.60099" lon="5.05095">
        <ele>83</ele>
        <time>2019-12-16T13:13:00Z</time>
      </trkpt>
      <trkpt lat="43.60098" lon="5.05094">
        <ele>83</ele>
        <time>2019-12-16T13:13:01Z</time>
      </trkpt>
      <trkpt lat="43.60098" lon="5.05093">
        <ele>83</ele>
        <time>2019-12-16T13:13:02Z</time>
      </trkpt>
      <trkpt lat="43.60098" lon="5.05092">
        <ele>83</ele>
        <time>2019-12-16T13:13:03Z</time>
      </trkpt>
      <trkpt lat="43.60097" lon="5.05091">
        <ele>82</ele>
        <time>2019-12-16T13:13:04Z</time>
      </trkpt>
      <trkpt lat="43.60097" lon="5.0509">
        <ele>82</ele>
        <time>2019-12-16T13:13:05Z</time>
      </trkpt>
      <trkpt lat="43.60097" lon="5.05089">
        <ele>82</ele>
        <time>2019-12-16T13:13:06Z</time>
      </trkpt>
      <trkpt lat="43.60096" lon="5.05088">
        <ele>82</ele>
        <time>2019-12-16T13:13:07Z</time>
      </trkpt>
      <trkpt lat="43.60096" lon="5.05088">
        <ele>82</ele>
        <time>2019-12-16T13:13:08Z</time>
      </trkpt>
      <trkpt lat="43.60096" lon="5.05087">
        <ele>82</ele>
        <time>2019-12-16T13:13:09Z</time>
      </trkpt>
      <trkpt lat="43.60096" lon="5.05087">
        <ele>82</ele>
        <time>2019-12-16T13:13:10Z</time>
      </trkpt>
      <trkpt lat="43.60096" lon="5.05086">
        <ele>82</ele>
        <time>2019-12-16T13:13:11Z</time>
      </trkpt>
      <trkpt lat="43.60096" lon="5.05086">
        <ele>82</ele>
        <time>2019-12-16T13:13:12Z</time>
      </trkpt>
      <trkpt lat="43.60096" lon="5.05086">
        <ele>82</ele>
        <time>2019-12-16T13:13:13Z</time>
      </trkpt>
      <trkpt lat="43.60096" lon="5.05086">
        <ele>82</ele>
        <time>2019-12-16T13:13:14Z</time>
      </trkpt>
      <trkpt lat="43.60096" lon="5.05086">
        <ele>82</ele>
        <time>2019-12-16T13:13:15Z</time>
      </trkpt>
      <trkpt lat="43.60096" lon="5.05086">
        <ele>82</ele>
        <time>2019-12-16T13:13:16Z</time>
      </trkpt>
      <trkpt lat="43.60096" lon="5.05086">
        <ele>82</ele>
        <time>2019-12-16T13:13:17Z</time>
      </trkpt>
      <trkpt lat="43.60096" lon="5.05086">
        <ele>82</ele>
        <time>2019-12-16T13:13:18Z</time>
      </trkpt>
      <trkpt lat="43.60096" lon="5.05086">
        <ele>82</ele>
        <time>2019-12-16T13:13:19Z</time>
      </trkpt>
      <trkpt lat="43.60096" lon="5.05086">
        <ele>82</ele>
        <time>2019-12-16T13:13:20Z</time>
      </trkpt>
      <trkpt lat="43.60096" lon="5.05086">
        <ele>82</ele>
        <time>2019-12-16T13:13:21Z</time>
      </trkpt>
      <trkpt lat="43.60096" lon="5.05086">
        <ele>82</ele>
        <time>2019-12-16T13:13:22Z</time>
      </trkpt>
      <trkpt lat="43.60096" lon="5.05086">
        <ele>82</ele>
        <time>2019-12-16T13:13:23Z</time>
      </trkpt>
      <trkpt lat="43.60096" lon="5.05086">
        <ele>82</ele>
        <time>2019-12-16T13:13:24Z</time>
      </trkpt>
      <trkpt lat="43.60096" lon="5.05086">
        <ele>82</ele>
        <time>2019-12-16T13:13:25Z</time>
      </trkpt>
      <trkpt lat="43.60096" lon="5.05086">
        <ele>82</ele>
        <time>2019-12-16T13:13:26Z</time>
      </trkpt>
      <trkpt lat="43.60096" lon="5.05086">
        <ele>82</ele>
        <time>2019-12-16T13:13:27Z</time>
      </trkpt>
      <trkpt lat="43.60096" lon="5.05086">
        <ele>82</ele>
        <time>2019-12-16T13:13:28Z</time>
      </trkpt>
      <trkpt lat="43.60096" lon="5.05086">
        <ele>82</ele>
        <time>2019-12-16T13:13:29Z</time>
      </trkpt>
      <trkpt lat="43.60096" lon="5.05086">
        <ele>82</ele>
        <time>2019-12-16T13:13:30Z</time>
      </trkpt>
      <trkpt lat="43.60096" lon="5.05086">
        <ele>82</ele>
        <time>2019-12-16T13:13:31Z</time>
      </trkpt>
      <trkpt lat="43.60096" lon="5.05086">
        <ele>82</ele>
        <time>2019-12-16T13:13:32Z</time>
      </trkpt>
      <trkpt lat="43.60096" lon="5.05086">
        <ele>82</ele>
        <time>2019-12-16T13:13:33Z</time>
      </trkpt>
      <trkpt lat="43.60096" lon="5.05086">
        <ele>82</ele>
        <time>2019-12-16T13:13:34Z</time>
      </trkpt>
      <trkpt lat="43.60096" lon="5.05086">
        <ele>82</ele>
        <time>2019-12-16T13:13:35Z</time>
      </trkpt>
      <trkpt lat="43.60096" lon="5.05086">
        <ele>82</ele>
        <time>2019-12-16T13:13:36Z</time>
      </trkpt>
      <trkpt lat="43.60096" lon="5.05086">
        <ele>82</ele>
        <time>2019-12-16T13:13:37Z</time>
      </trkpt>
      <trkpt lat="43.60096" lon="5.05086">
        <ele>82</ele>
        <time>2019-12-16T13:13:38Z</time>
      </trkpt>
      <trkpt lat="43.60096" lon="5.05086">
        <ele>82</ele>
        <time>2019-12-16T13:13:39Z</time>
      </trkpt>
      <trkpt lat="43.60096" lon="5.05086">
        <ele>82</ele>
        <time>2019-12-16T13:13:40Z</time>
      </trkpt>
      <trkpt lat="43.60096" lon="5.05086">
        <ele>82</ele>
        <time>2019-12-16T13:13:41Z</time>
      </trkpt>
      <trkpt lat="43.60096" lon="5.05086">
        <ele>82</ele>
        <time>2019-12-16T13:13:42Z</time>
      </trkpt>
      <trkpt lat="43.60096" lon="5.05086">
        <ele>82</ele>
        <time>2019-12-16T13:13:43Z</time>
      </trkpt>
      <trkpt lat="43.60096" lon="5.05086">
        <ele>82</ele>
        <time>2019-12-16T13:13:44Z</time>
      </trkpt>
      <trkpt lat="43.60096" lon="5.05086">
        <ele>82</ele>
        <time>2019-12-16T13:13:45Z</time>
      </trkpt>
      <trkpt lat="43.60096" lon="5.05086">
        <ele>82</ele>
        <time>2019-12-16T13:13:46Z</time>
      </trkpt>
      <trkpt lat="43.60096" lon="5.05086">
        <ele>82</ele>
        <time>2019-12-16T13:13:47Z</time>
      </trkpt>
      <trkpt lat="43.60096" lon="5.05086">
        <ele>82</ele>
        <time>2019-12-16T13:13:48Z</time>
      </trkpt>
      <trkpt lat="43.60096" lon="5.05086">
        <ele>82</ele>
        <time>2019-12-16T13:13:49Z</time>
      </trkpt>
      <trkpt lat="43.60096" lon="5.05086">
        <ele>82</ele>
        <time>2019-12-16T13:13:50Z</time>
      </trkpt>
      <trkpt lat="43.60096" lon="5.05086">
        <ele>82</ele>
        <time>2019-12-16T13:13:51Z</time>
      </trkpt>
      <trkpt lat="43.60096" lon="5.05086">
        <ele>82</ele>
        <time>2019-12-16T13:13:52Z</time>
      </trkpt>
      <trkpt lat="43.60096" lon="5.05086">
        <ele>82</ele>
        <time>2019-12-16T13:13:53Z</time>
      </trkpt>
      <trkpt lat="43.60096" lon="5.05086">
        <ele>82</ele>
        <time>2019-12-16T13:13:54Z</time>
      </trkpt>
      <trkpt lat="43.60096" lon="5.05086">
        <ele>82</ele>
        <time>2019-12-16T13:13:55Z</time>
      </trkpt>
      <trkpt lat="43.60096" lon="5.05086">
        <ele>82</ele>
        <time>2019-12-16T13:13:56Z</time>
      </trkpt>
      <trkpt lat="43.60096" lon="5.05086">
        <ele>82</ele>
        <time>2019-12-16T13:13:57Z</time>
      </trkpt>
      <trkpt lat="43.60096" lon="5.05086">
        <ele>82</ele>
        <time>2019-12-16T13:13:58Z</time>
      </trkpt>
      <trkpt lat="43.60096" lon="5.05086">
        <ele>82</ele>
        <time>2019-12-16T13:13:59Z</time>
      </trkpt>
      <trkpt lat="43.60096" lon="5.05086">
        <ele>82</ele>
        <time>2019-12-16T13:14:00Z</time>
      </trkpt>
      <trkpt lat="43.60096" lon="5.05086">
        <ele>82</ele>
        <time>2019-12-16T13:14:01Z</time>
      </trkpt>
      <trkpt lat="43.60096" lon="5.05086">
        <ele>82</ele>
        <time>2019-12-16T13:14:02Z</time>
      </trkpt>
      <trkpt lat="43.60096" lon="5.05086">
        <ele>82</ele>
        <time>2019-12-16T13:14:03Z</time>
      </trkpt>
      <trkpt lat="43.60096" lon="5.05086">
        <ele>82</ele>
        <time>2019-12-16T13:14:04Z</time>
      </trkpt>
      <trkpt lat="43.60096" lon="5.05086">
        <ele>82</ele>
        <time>2019-12-16T13:14:05Z</time>
      </trkpt>
      <trkpt lat="43.60096" lon="5.05086">
        <ele>82</ele>
        <time>2019-12-16T13:14:06Z</time>
      </trkpt>
      <trkpt lat="43.60096" lon="5.05086">
        <ele>82</ele>
        <time>2019-12-16T13:14:07Z</time>
      </trkpt>
      <trkpt lat="43.60096" lon="5.05086">
        <ele>82</ele>
        <time>2019-12-16T13:14:08Z</time>
      </trkpt>
      <trkpt lat="43.60096" lon="5.05086">
        <ele>82</ele>
        <time>2019-12-16T13:14:09Z</time>
      </trkpt>
      <trkpt lat="43.60096" lon="5.05086">
        <ele>82</ele>
        <time>2019-12-16T13:14:10Z</time>
      </trkpt>
      <trkpt lat="43.60096" lon="5.05086">
        <ele>82</ele>
        <time>2019-12-16T13:14:11Z</time>
      </trkpt>
      <trkpt lat="43.60096" lon="5.05086">
        <ele>82</ele>
        <time>2019-12-16T13:14:12Z</time>
      </trkpt>
      <trkpt lat="43.60096" lon="5.05086">
        <ele>82</ele>
        <time>2019-12-16T13:14:13Z</time>
      </trkpt>
      <trkpt lat="43.60096" lon="5.05086">
        <ele>82</ele>
        <time>2019-12-16T13:14:14Z</time>
      </trkpt>
      <trkpt lat="43.60096" lon="5.05086">
        <ele>82</ele>
        <time>2019-12-16T13:14:15Z</time>
      </trkpt>
      <trkpt lat="43.60096" lon="5.05086">
        <ele>82</ele>
        <time>2019-12-16T13:14:16Z</time>
      </trkpt>
      <trkpt lat="43.60096" lon="5.05086">
        <ele>82</ele>
        <time>2019-12-16T13:14:17Z</time>
      </trkpt>
      <trkpt lat="43.60096" lon="5.05086">
        <ele>82</ele>
        <time>2019-12-16T13:14:18Z</time>
      </trkpt>
      <trkpt lat="43.60096" lon="5.05086">
        <ele>82</ele>
        <time>2019-12-16T13:14:19Z</time>
      </trkpt>
      <trkpt lat="43.60096" lon="5.05085">
        <ele>82</ele>
        <time>2019-12-16T13:14:20Z</time>
      </trkpt>
      <trkpt lat="43.60096" lon="5.05084">
        <ele>82</ele>
        <time>2019-12-16T13:14:21Z</time>
      </trkpt>
      <trkpt lat="43.60096" lon="5.05083">
        <ele>79</ele>
        <time>2019-12-16T13:14:22Z</time>
      </trkpt>
      <trkpt lat="43.60096" lon="5.05082">
        <ele>79</ele>
        <time>2019-12-16T13:14:23Z</time>
      </trkpt>
      <trkpt lat="43.60096" lon="5.05082">
        <ele>79</ele>
        <time>2019-12-16T13:14:24Z</time>
      </trkpt>
      <trkpt lat="43.60096" lon="5.05081">
        <ele>79</ele>
        <time>2019-12-16T13:14:25Z</time>
      </trkpt>
      <trkpt lat="43.60096" lon="5.05081">
        <ele>79</ele>
        <time>2019-12-16T13:14:26Z</time>
      </trkpt>
      <trkpt lat="43.60096" lon="5.05081">
        <ele>79</ele>
        <time>2019-12-16T13:14:27Z</time>
      </trkpt>
      <trkpt lat="43.60096" lon="5.05081">
        <ele>79</ele>
        <time>2019-12-16T13:14:28Z</time>
      </trkpt>
      <trkpt lat="43.60096" lon="5.05081">
        <ele>79</ele>
        <time>2019-12-16T13:14:29Z</time>
      </trkpt>
      <trkpt lat="43.60096" lon="5.05081">
        <ele>79</ele>
        <time>2019-12-16T13:14:30Z</time>
      </trkpt>
      <trkpt lat="43.60096" lon="5.05081">
        <ele>79</ele>
        <time>2019-12-16T13:14:31Z</time>
      </trkpt>
      <trkpt lat="43.60096" lon="5.05081">
        <ele>79</ele>
        <time>2019-12-16T13:14:32Z</time>
      </trkpt>
      <trkpt lat="43.60096" lon="5.05081">
        <ele>79</ele>
        <time>2019-12-16T13:14:33Z</time>
      </trkpt>
      <trkpt lat="43.60096" lon="5.05081">
        <ele>79</ele>
        <time>2019-12-16T13:14:34Z</time>
      </trkpt>
      <trkpt lat="43.60096" lon="5.05081">
        <ele>79</ele>
        <time>2019-12-16T13:14:35Z</time>
      </trkpt>
      <trkpt lat="43.60096" lon="5.05081">
        <ele>79</ele>
        <time>2019-12-16T13:14:36Z</time>
      </trkpt>
      <trkpt lat="43.60096" lon="5.05081">
        <ele>79</ele>
        <time>2019-12-16T13:14:37Z</time>
      </trkpt>
      <trkpt lat="43.60096" lon="5.05081">
        <ele>79</ele>
        <time>2019-12-16T13:14:38Z</time>
      </trkpt>
      <trkpt lat="43.60096" lon="5.05081">
        <ele>79</ele>
        <time>2019-12-16T13:14:39Z</time>
      </trkpt>
      <trkpt lat="43.60096" lon="5.05081">
        <ele>79</ele>
        <time>2019-12-16T13:14:40Z</time>
      </trkpt>
      <trkpt lat="43.60096" lon="5.05081">
        <ele>79</ele>
        <time>2019-12-16T13:14:41Z</time>
      </trkpt>
      <trkpt lat="43.60096" lon="5.05081">
        <ele>79</ele>
        <time>2019-12-16T13:14:42Z</time>
      </trkpt>
      <trkpt lat="43.60096" lon="5.05081">
        <ele>79</ele>
        <time>2019-12-16T13:14:43Z</time>
      </trkpt>
      <trkpt lat="43.60096" lon="5.05081">
        <ele>79</ele>
        <time>2019-12-16T13:14:44Z</time>
      </trkpt>
      <trkpt lat="43.60096" lon="5.05081">
        <ele>79</ele>
        <time>2019-12-16T13:14:45Z</time>
      </trkpt>
      <trkpt lat="43.60096" lon="5.05081">
        <ele>79</ele>
        <time>2019-12-16T13:14:46Z</time>
      </trkpt>
      <trkpt lat="43.60096" lon="5.05081">
        <ele>79</ele>
        <time>2019-12-16T13:14:47Z</time>
      </trkpt>
      <trkpt lat="43.60096" lon="5.05081">
        <ele>79</ele>
        <time>2019-12-16T13:14:48Z</time>
      </trkpt>
      <trkpt lat="43.60096" lon="5.05081">
        <ele>79</ele>
        <time>2019-12-16T13:14:49Z</time>
      </trkpt>
      <trkpt lat="43.60096" lon="5.05081">
        <ele>79</ele>
        <time>2019-12-16T13:14:50Z</time>
      </trkpt>
      <trkpt lat="43.60096" lon="5.05082">
        <ele>79</ele>
        <time>2019-12-16T13:14:51Z</time>
      </trkpt>
      <trkpt lat="43.60096" lon="5.05082">
        <ele>79</ele>
        <time>2019-12-16T13:14:52Z</time>
      </trkpt>
      <trkpt lat="43.60096" lon="5.05082">
        <ele>79</ele>
        <time>2019-12-16T13:14:53Z</time>
      </trkpt>
      <trkpt lat="43.60096" lon="5.05083">
        <ele>79</ele>
        <time>2019-12-16T13:14:54Z</time>
      </trkpt>
      <trkpt lat="43.60096" lon="5.05083">
        <ele>79</ele>
        <time>2019-12-16T13:14:55Z</time>
      </trkpt>
      <trkpt lat="43.60096" lon="5.05084">
        <ele>82</ele>
        <time>2019-12-16T13:14:56Z</time>
      </trkpt>
      <trkpt lat="43.60096" lon="5.05084">
        <ele>82</ele>
        <time>2019-12-16T13:14:57Z</time>
      </trkpt>
      <trkpt lat="43.60096" lon="5.05084">
        <ele>82</ele>
        <time>2019-12-16T13:14:58Z</time>
      </trkpt>
      <trkpt lat="43.60096" lon="5.05084">
        <ele>82</ele>
        <time>2019-12-16T13:14:59Z</time>
      </trkpt>
      <trkpt lat="43.60096" lon="5.05084">
        <ele>82</ele>
        <time>2019-12-16T13:15:00Z</time>
      </trkpt>
      <trkpt lat="43.60096" lon="5.05084">
        <ele>82</ele>
        <time>2019-12-16T13:15:01Z</time>
      </trkpt>
      <trkpt lat="43.60096" lon="5.05084">
        <ele>82</ele>
        <time>2019-12-16T13:15:02Z</time>
      </trkpt>
      <trkpt lat="43.60096" lon="5.05084">
        <ele>82</ele>
        <time>2019-12-16T13:15:03Z</time>
      </trkpt>
      <trkpt lat="43.60096" lon="5.05084">
        <ele>82</ele>
        <time>2019-12-16T13:15:04Z</time>
      </trkpt>
      <trkpt lat="43.60096" lon="5.05084">
        <ele>82</ele>
        <time>2019-12-16T13:15:05Z</time>
      </trkpt>
      <trkpt lat="43.60096" lon="5.05084">
        <ele>82</ele>
        <time>2019-12-16T13:15:06Z</time>
      </trkpt>
      <trkpt lat="43.60096" lon="5.05084">
        <ele>82</ele>
        <time>2019-12-16T13:15:07Z</time>
      </trkpt>
      <trkpt lat="43.60096" lon="5.05084">
        <ele>82</ele>
        <time>2019-12-16T13:15:08Z</time>
      </trkpt>
      <trkpt lat="43.60096" lon="5.05084">
        <ele>82</ele>
        <time>2019-12-16T13:15:09Z</time>
      </trkpt>
      <trkpt lat="43.60096" lon="5.05084">
        <ele>82</ele>
        <time>2019-12-16T13:15:10Z</time>
      </trkpt>
      <trkpt lat="43.60097" lon="5.05084">
        <ele>82</ele>
        <time>2019-12-16T13:15:11Z</time>
      </trkpt>
      <trkpt lat="43.60097" lon="5.05084">
        <ele>82</ele>
        <time>2019-12-16T13:15:12Z</time>
      </trkpt>
      <trkpt lat="43.60098" lon="5.05085">
        <ele>82</ele>
        <time>2019-12-16T13:15:13Z</time>
      </trkpt>
      <trkpt lat="43.60099" lon="5.05085">
        <ele>82</ele>
        <time>2019-12-16T13:15:14Z</time>
      </trkpt>
      <trkpt lat="43.601" lon="5.05085">
        <ele>82</ele>
        <time>2019-12-16T13:15:15Z</time>
      </trkpt>
      <trkpt lat="43.601" lon="5.05085">
        <ele>83</ele>
        <time>2019-12-16T13:15:16Z</time>
      </trkpt>
      <trkpt lat="43.60101" lon="5.05085">
        <ele>83</ele>
        <time>2019-12-16T13:15:17Z</time>
      </trkpt>
      <trkpt lat="43.60102" lon="5.05085">
        <ele>83</ele>
        <time>2019-12-16T13:15:18Z</time>
      </trkpt>
      <trkpt lat="43.60103" lon="5.05084">
        <ele>83</ele>
        <time>2019-12-16T13:15:19Z</time>
      </trkpt>
      <trkpt lat="43.60104" lon="5.05084">
        <ele>83</ele>
        <time>2019-12-16T13:15:20Z</time>
      </trkpt>
      <trkpt lat="43.60105" lon="5.05083">
        <ele>79</ele>
        <time>2019-12-16T13:15:21Z</time>
      </trkpt>
      <trkpt lat="43.60105" lon="5.05082">
        <ele>78</ele>
        <time>2019-12-16T13:15:22Z</time>
      </trkpt>
      <trkpt lat="43.60106" lon="5.05081">
        <ele>78</ele>
        <time>2019-12-16T13:15:23Z</time>
      </trkpt>
      <trkpt lat="43.60107" lon="5.0508">
        <ele>78</ele>
        <time>2019-12-16T13:15:24Z</time>
      </trkpt>
      <trkpt lat="43.60107" lon="5.05079">
        <ele>78</ele>
        <time>2019-12-16T13:15:25Z</time>
      </trkpt>
      <trkpt lat="43.60107" lon="5.05078">
        <ele>78</ele>
        <time>2019-12-16T13:15:26Z</time>
      </trkpt>
      <trkpt lat="43.60108" lon="5.05077">
        <ele>78</ele>
        <time>2019-12-16T13:15:27Z</time>
      </trkpt>
      <trkpt lat="43.60107" lon="5.05075">
        <ele>78</ele>
        <time>2019-12-16T13:15:28Z</time>
      </trkpt>
      <trkpt lat="43.60107" lon="5.05075">
        <ele>78</ele>
        <time>2019-12-16T13:15:29Z</time>
      </trkpt>
      <trkpt lat="43.60106" lon="5.05074">
        <ele>78</ele>
        <time>2019-12-16T13:15:30Z</time>
      </trkpt>
      <trkpt lat="43.60106" lon="5.05073">
        <ele>78</ele>
        <time>2019-12-16T13:15:31Z</time>
      </trkpt>
      <trkpt lat="43.60105" lon="5.05072">
        <ele>78</ele>
        <time>2019-12-16T13:15:32Z</time>
      </trkpt>
      <trkpt lat="43.60104" lon="5.05071">
        <ele>78</ele>
        <time>2019-12-16T13:15:33Z</time>
      </trkpt>
      <trkpt lat="43.60103" lon="5.05071">
        <ele>78</ele>
        <time>2019-12-16T13:15:34Z</time>
      </trkpt>
      <trkpt lat="43.60102" lon="5.0507">
        <ele>78</ele>
        <time>2019-12-16T13:15:35Z</time>
      </trkpt>
      <trkpt lat="43.60101" lon="5.0507">
        <ele>78</ele>
        <time>2019-12-16T13:15:36Z</time>
      </trkpt>
      <trkpt lat="43.601" lon="5.05069">
        <ele>78</ele>
        <time>2019-12-16T13:15:37Z</time>
      </trkpt>
      <trkpt lat="43.60099" lon="5.05069">
        <ele>78</ele>
        <time>2019-12-16T13:15:38Z</time>
      </trkpt>
      <trkpt lat="43.60098" lon="5.05069">
        <ele>78</ele>
        <time>2019-12-16T13:15:39Z</time>
      </trkpt>
      <trkpt lat="43.60097" lon="5.05068">
        <ele>78</ele>
        <time>2019-12-16T13:15:40Z</time>
      </trkpt>
      <trkpt lat="43.60096" lon="5.05068">
        <ele>78</ele>
        <time>2019-12-16T13:15:41Z</time>
      </trkpt>
      <trkpt lat="43.60096" lon="5.05068">
        <ele>78</ele>
        <time>2019-12-16T13:15:42Z</time>
      </trkpt>
      <trkpt lat="43.60095" lon="5.05068">
        <ele>78</ele>
        <time>2019-12-16T13:15:43Z</time>
      </trkpt>
      <trkpt lat="43.60094" lon="5.05068">
        <ele>78</ele>
        <time>2019-12-16T13:15:44Z</time>
      </trkpt>
      <trkpt lat="43.60093" lon="5.05068">
        <ele>78</ele>
        <time>2019-12-16T13:15:45Z</time>
      </trkpt>
      <trkpt lat="43.60092" lon="5.05068">
        <ele>78</ele>
        <time>2019-12-16T13:15:46Z</time>
      </trkpt>
      <trkpt lat="43.60092" lon="5.05068">
        <ele>78</ele>
        <time>2019-12-16T13:15:47Z</time>
      </trkpt>
      <trkpt lat="43.60091" lon="5.05068">
        <ele>78</ele>
        <time>2019-12-16T13:15:48Z</time>
      </trkpt>
      <trkpt lat="43.6009" lon="5.05068">
        <ele>79</ele>
        <time>2019-12-16T13:15:49Z</time>
      </trkpt>
      <trkpt lat="43.60089" lon="5.05068">
        <ele>79</ele>
        <time>2019-12-16T13:15:50Z</time>
      </trkpt>
      <trkpt lat="43.60088" lon="5.05068">
        <ele>79</ele>
        <time>2019-12-16T13:15:51Z</time>
      </trkpt>
      <trkpt lat="43.60087" lon="5.05068">
        <ele>79</ele>
        <time>2019-12-16T13:15:52Z</time>
      </trkpt>
      <trkpt lat="43.60086" lon="5.05068">
        <ele>79</ele>
        <time>2019-12-16T13:15:53Z</time>
      </trkpt>
      <trkpt lat="43.60086" lon="5.05069">
        <ele>79</ele>
        <time>2019-12-16T13:15:54Z</time>
      </trkpt>
      <trkpt lat="43.60086" lon="5.0507">
        <ele>79</ele>
        <time>2019-12-16T13:15:55Z</time>
      </trkpt>
      <trkpt lat="43.60085" lon="5.05071">
        <ele>79</ele>
        <time>2019-12-16T13:15:56Z</time>
      </trkpt>
      <trkpt lat="43.60085" lon="5.05072">
        <ele>79</ele>
        <time>2019-12-16T13:15:57Z</time>
      </trkpt>
      <trkpt lat="43.60085" lon="5.05073">
        <ele>79</ele>
        <time>2019-12-16T13:15:58Z</time>
      </trkpt>
      <trkpt lat="43.60085" lon="5.05073">
        <ele>79</ele>
        <time>2019-12-16T13:15:59Z</time>
      </trkpt>
      <trkpt lat="43.60085" lon="5.05074">
        <ele>79</ele>
        <time>2019-12-16T13:16:00Z</time>
      </trkpt>
      <trkpt lat="43.60085" lon="5.05075">
        <ele>79</ele>
        <time>2019-12-16T13:16:01Z</time>
      </trkpt>
      <trkpt lat="43.60085" lon="5.05075">
        <ele>80</ele>
        <time>2019-12-16T13:16:02Z</time>
      </trkpt>
      <trkpt lat="43.60085" lon="5.05076">
        <ele>80</ele>
        <time>2019-12-16T13:16:03Z</time>
      </trkpt>
      <trkpt lat="43.60086" lon="5.05077">
        <ele>80</ele>
        <time>2019-12-16T13:16:04Z</time>
      </trkpt>
      <trkpt lat="43.60086" lon="5.05078">
        <ele>80</ele>
        <time>2019-12-16T13:16:05Z</time>
      </trkpt>
      <trkpt lat="43.60086" lon="5.0508">
        <ele>80</ele>
        <time>2019-12-16T13:16:06Z</time>
      </trkpt>
      <trkpt lat="43.60086" lon="5.05081">
        <ele>80</ele>
        <time>2019-12-16T13:16:07Z</time>
      </trkpt>
      <trkpt lat="43.60086" lon="5.05082">
        <ele>80</ele>
        <time>2019-12-16T13:16:08Z</time>
      </trkpt>
      <trkpt lat="43.60086" lon="5.05084">
        <ele>81</ele>
        <time>2019-12-16T13:16:09Z</time>
      </trkpt>
      <trkpt lat="43.60086" lon="5.05085">
        <ele>81</ele>
        <time>2019-12-16T13:16:10Z</time>
      </trkpt>
      <trkpt lat="43.60086" lon="5.05087">
        <ele>82</ele>
        <time>2019-12-16T13:16:11Z</time>
      </trkpt>
      <trkpt lat="43.60086" lon="5.05088">
        <ele>82</ele>
        <time>2019-12-16T13:16:12Z</time>
      </trkpt>
      <trkpt lat="43.60086" lon="5.0509">
        <ele>82</ele>
        <time>2019-12-16T13:16:13Z</time>
      </trkpt>
      <trkpt lat="43.60087" lon="5.05091">
        <ele>82</ele>
        <time>2019-12-16T13:16:14Z</time>
      </trkpt>
      <trkpt lat="43.60087" lon="5.05093">
        <ele>82</ele>
        <time>2019-12-16T13:16:15Z</time>
      </trkpt>
      <trkpt lat="43.60088" lon="5.05095">
        <ele>82</ele>
        <time>2019-12-16T13:16:16Z</time>
      </trkpt>
      <trkpt lat="43.60089" lon="5.05097">
        <ele>82</ele>
        <time>2019-12-16T13:16:17Z</time>
      </trkpt>
      <trkpt lat="43.60089" lon="5.05099">
        <ele>83</ele>
        <time>2019-12-16T13:16:18Z</time>
      </trkpt>
      <trkpt lat="43.60089" lon="5.051">
        <ele>83</ele>
        <time>2019-12-16T13:16:19Z</time>
      </trkpt>
      <trkpt lat="43.60089" lon="5.05101">
        <ele>83</ele>
        <time>2019-12-16T13:16:20Z</time>
      </trkpt>
      <trkpt lat="43.60088" lon="5.05102">
        <ele>83</ele>
        <time>2019-12-16T13:16:21Z</time>
      </trkpt>
      <trkpt lat="43.60087" lon="5.05103">
        <ele>83</ele>
        <time>2019-12-16T13:16:22Z</time>
      </trkpt>
      <trkpt lat="43.60086" lon="5.05104">
        <ele>83</ele>
        <time>2019-12-16T13:16:23Z</time>
      </trkpt>
      <trkpt lat="43.60085" lon="5.05105">
        <ele>83</ele>
        <time>2019-12-16T13:16:24Z</time>
      </trkpt>
      <trkpt lat="43.60083" lon="5.05106">
        <ele>83</ele>
        <time>2019-12-16T13:16:25Z</time>
      </trkpt>
      <trkpt lat="43.60082" lon="5.05107">
        <ele>83</ele>
        <time>2019-12-16T13:16:26Z</time>
      </trkpt>
      <trkpt lat="43.60082" lon="5.05109">
        <ele>83</ele>
        <time>2019-12-16T13:16:27Z</time>
      </trkpt>
      <trkpt lat="43.60081" lon="5.0511">
        <ele>83</ele>
        <time>2019-12-16T13:16:28Z</time>
      </trkpt>
      <trkpt lat="43.6008" lon="5.05111">
        <ele>83</ele>
        <time>2019-12-16T13:16:29Z</time>
      </trkpt>
      <trkpt lat="43.60079" lon="5.05112">
        <ele>83</ele>
        <time>2019-12-16T13:16:30Z</time>
      </trkpt>
      <trkpt lat="43.60079" lon="5.05113">
        <ele>83</ele>
        <time>2019-12-16T13:16:31Z</time>
      </trkpt>
      <trkpt lat="43.60078" lon="5.05114">
        <ele>83</ele>
        <time>2019-12-16T13:16:32Z</time>
      </trkpt>
      <trkpt lat="43.60077" lon="5.05115">
        <ele>83</ele>
        <time>2019-12-16T13:16:33Z</time>
      </trkpt>
      <trkpt lat="43.60076" lon="5.05116">
        <ele>83</ele>
        <time>2019-12-16T13:16:34Z</time>
      </trkpt>
      <trkpt lat="43.60075" lon="5.05117">
        <ele>83</ele>
        <time>2019-12-16T13:16:35Z</time>
      </trkpt>
      <trkpt lat="43.60074" lon="5.05118">
        <ele>83</ele>
        <time>2019-12-16T13:16:36Z</time>
      </trkpt>
      <trkpt lat="43.60073" lon="5.05119">
        <ele>83</ele>
        <time>2019-12-16T13:16:37Z</time>
      </trkpt>
      <trkpt lat="43.60073" lon="5.0512">
        <ele>83</ele>
        <time>2019-12-16T13:16:38Z</time>
      </trkpt>
      <trkpt lat="43.60072" lon="5.05122">
        <ele>83</ele>
        <time>2019-12-16T13:16:39Z</time>
      </trkpt>
      <trkpt lat="43.60071" lon="5.05123">
        <ele>83</ele>
        <time>2019-12-16T13:16:40Z</time>
      </trkpt>
      <trkpt lat="43.6007" lon="5.05125">
        <ele>83</ele>
        <time>2019-12-16T13:16:41Z</time>
      </trkpt>
      <trkpt lat="43.60069" lon="5.05126">
        <ele>83</ele>
        <time>2019-12-16T13:16:42Z</time>
      </trkpt>
      <trkpt lat="43.60068" lon="5.05127">
        <ele>83</ele>
        <time>2019-12-16T13:16:43Z</time>
      </trkpt>
      <trkpt lat="43.60067" lon="5.05128">
        <ele>83</ele>
        <time>2019-12-16T13:16:44Z</time>
      </trkpt>
      <trkpt lat="43.60066" lon="5.05129">
        <ele>83</ele>
        <time>2019-12-16T13:16:45Z</time>
      </trkpt>
      <trkpt lat="43.60065" lon="5.05129">
        <ele>83</ele>
        <time>2019-12-16T13:16:46Z</time>
      </trkpt>
      <trkpt lat="43.60063" lon="5.05129">
        <ele>84</ele>
        <time>2019-12-16T13:16:47Z</time>
      </trkpt>
      <trkpt lat="43.60062" lon="5.05129">
        <ele>84</ele>
        <time>2019-12-16T13:16:48Z</time>
      </trkpt>
      <trkpt lat="43.6006" lon="5.05129">
        <ele>84</ele>
        <time>2019-12-16T13:16:49Z</time>
      </trkpt>
      <trkpt lat="43.60059" lon="5.05129">
        <ele>84</ele>
        <time>2019-12-16T13:16:50Z</time>
      </trkpt>
      <trkpt lat="43.60058" lon="5.05128">
        <ele>83</ele>
        <time>2019-12-16T13:16:51Z</time>
      </trkpt>
      <trkpt lat="43.60056" lon="5.05128">
        <ele>83</ele>
        <time>2019-12-16T13:16:52Z</time>
      </trkpt>
      <trkpt lat="43.60055" lon="5.05127">
        <ele>83</ele>
        <time>2019-12-16T13:16:53Z</time>
      </trkpt>
      <trkpt lat="43.60054" lon="5.05126">
        <ele>83</ele>
        <time>2019-12-16T13:16:54Z</time>
      </trkpt>
      <trkpt lat="43.60053" lon="5.05126">
        <ele>83</ele>
        <time>2019-12-16T13:16:55Z</time>
      </trkpt>
      <trkpt lat="43.60051" lon="5.05125">
        <ele>83</ele>
        <time>2019-12-16T13:16:56Z</time>
      </trkpt>
      <trkpt lat="43.6005" lon="5.05124">
        <ele>83</ele>
        <time>2019-12-16T13:16:57Z</time>
      </trkpt>
      <trkpt lat="43.60049" lon="5.05123">
        <ele>83</ele>
        <time>2019-12-16T13:16:58Z</time>
      </trkpt>
      <trkpt lat="43.60048" lon="5.05122">
        <ele>83</ele>
        <time>2019-12-16T13:16:59Z</time>
      </trkpt>
      <trkpt lat="43.60047" lon="5.05121">
        <ele>83</ele>
        <time>2019-12-16T13:17:00Z</time>
      </trkpt>
      <trkpt lat="43.60046" lon="5.0512">
        <ele>83</ele>
        <time>2019-12-16T13:17:01Z</time>
      </trkpt>
      <trkpt lat="43.60045" lon="5.05119">
        <ele>83</ele>
        <time>2019-12-16T13:17:02Z</time>
      </trkpt>
      <trkpt lat="43.60044" lon="5.05118">
        <ele>83</ele>
        <time>2019-12-16T13:17:03Z</time>
      </trkpt>
      <trkpt lat="43.60043" lon="5.05117">
        <ele>83</ele>
        <time>2019-12-16T13:17:04Z</time>
      </trkpt>
      <trkpt lat="43.60042" lon="5.05116">
        <ele>83</ele>
        <time>2019-12-16T13:17:05Z</time>
      </trkpt>
      <trkpt lat="43.60041" lon="5.05114">
        <ele>83</ele>
        <time>2019-12-16T13:17:06Z</time>
      </trkpt>
      <trkpt lat="43.6004" lon="5.05113">
        <ele>83</ele>
        <time>2019-12-16T13:17:07Z</time>
      </trkpt>
      <trkpt lat="43.60039" lon="5.05112">
        <ele>83</ele>
        <time>2019-12-16T13:17:08Z</time>
      </trkpt>
      <trkpt lat="43.60039" lon="5.05111">
        <ele>83</ele>
        <time>2019-12-16T13:17:09Z</time>
      </trkpt>
      <trkpt lat="43.60038" lon="5.0511">
        <ele>83</ele>
        <time>2019-12-16T13:17:10Z</time>
      </trkpt>
      <trkpt lat="43.60037" lon="5.05109">
        <ele>83</ele>
        <time>2019-12-16T13:17:11Z</time>
      </trkpt>
      <trkpt lat="43.60036" lon="5.05108">
        <ele>83</ele>
        <time>2019-12-16T13:17:12Z</time>
      </trkpt>
      <trkpt lat="43.60035" lon="5.05107">
        <ele>83</ele>
        <time>2019-12-16T13:17:13Z</time>
      </trkpt>
      <trkpt lat="43.60034" lon="5.05106">
        <ele>83</ele>
        <time>2019-12-16T13:17:14Z</time>
      </trkpt>
      <trkpt lat="43.60034" lon="5.05105">
        <ele>83</ele>
        <time>2019-12-16T13:17:15Z</time>
      </trkpt>
      <trkpt lat="43.60033" lon="5.05104">
        <ele>83</ele>
        <time>2019-12-16T13:17:16Z</time>
      </trkpt>
      <trkpt lat="43.60032" lon="5.05103">
        <ele>83</ele>
        <time>2019-12-16T13:17:17Z</time>
      </trkpt>
      <trkpt lat="43.60031" lon="5.05102">
        <ele>83</ele>
        <time>2019-12-16T13:17:18Z</time>
      </trkpt>
      <trkpt lat="43.6003" lon="5.05101">
        <ele>83</ele>
        <time>2019-12-16T13:17:19Z</time>
      </trkpt>
      <trkpt lat="43.6003" lon="5.051">
        <ele>83</ele>
        <time>2019-12-16T13:17:20Z</time>
      </trkpt>
      <trkpt lat="43.60029" lon="5.05099">
        <ele>83</ele>
        <time>2019-12-16T13:17:21Z</time>
      </trkpt>
      <trkpt lat="43.60028" lon="5.05098">
        <ele>83</ele>
        <time>2019-12-16T13:17:22Z</time>
      </trkpt>
      <trkpt lat="43.60027" lon="5.05097">
        <ele>83</ele>
        <time>2019-12-16T13:17:23Z</time>
      </trkpt>
      <trkpt lat="43.60026" lon="5.05096">
        <ele>83</ele>
        <time>2019-12-16T13:17:24Z</time>
      </trkpt>
      <trkpt lat="43.60025" lon="5.05095">
        <ele>83</ele>
        <time>2019-12-16T13:17:25Z</time>
      </trkpt>
      <trkpt lat="43.60024" lon="5.05094">
        <ele>83</ele>
        <time>2019-12-16T13:17:26Z</time>
      </trkpt>
      <trkpt lat="43.60024" lon="5.05093">
        <ele>83</ele>
        <time>2019-12-16T13:17:27Z</time>
      </trkpt>
      <trkpt lat="43.60023" lon="5.05091">
        <ele>83</ele>
        <time>2019-12-16T13:17:28Z</time>
      </trkpt>
      <trkpt lat="43.60022" lon="5.0509">
        <ele>83</ele>
        <time>2019-12-16T13:17:29Z</time>
      </trkpt>
      <trkpt lat="43.60022" lon="5.05089">
        <ele>83</ele>
        <time>2019-12-16T13:17:30Z</time>
      </trkpt>
      <trkpt lat="43.60021" lon="5.05087">
        <ele>83</ele>
        <time>2019-12-16T13:17:31Z</time>
      </trkpt>
      <trkpt lat="43.60021" lon="5.05086">
        <ele>83</ele>
        <time>2019-12-16T13:17:32Z</time>
      </trkpt>
      <trkpt lat="43.6002" lon="5.05084">
        <ele>83</ele>
        <time>2019-12-16T13:17:33Z</time>
      </trkpt>
      <trkpt lat="43.6002" lon="5.05083">
        <ele>80</ele>
        <time>2019-12-16T13:17:34Z</time>
      </trkpt>
      <trkpt lat="43.60019" lon="5.05081">
        <ele>80</ele>
        <time>2019-12-16T13:17:35Z</time>
      </trkpt>
      <trkpt lat="43.60019" lon="5.0508">
        <ele>80</ele>
        <time>2019-12-16T13:17:36Z</time>
      </trkpt>
      <trkpt lat="43.60018" lon="5.05078">
        <ele>80</ele>
        <time>2019-12-16T13:17:37Z</time>
      </trkpt>
      <trkpt lat="43.60018" lon="5.05077">
        <ele>80</ele>
        <time>2019-12-16T13:17:38Z</time>
      </trkpt>
      <trkpt lat="43.60017" lon="5.05075">
        <ele>80</ele>
        <time>2019-12-16T13:17:39Z</time>
      </trkpt>
      <trkpt lat="43.60017" lon="5.05074">
        <ele>80</ele>
        <time>2019-12-16T13:17:40Z</time>
      </trkpt>
      <trkpt lat="43.60016" lon="5.05072">
        <ele>80</ele>
        <time>2019-12-16T13:17:41Z</time>
      </trkpt>
      <trkpt lat="43.60016" lon="5.05071">
        <ele>80</ele>
        <time>2019-12-16T13:17:42Z</time>
      </trkpt>
      <trkpt lat="43.60015" lon="5.0507">
        <ele>80</ele>
        <time>2019-12-16T13:17:43Z</time>
      </trkpt>
      <trkpt lat="43.60014" lon="5.05068">
        <ele>79</ele>
        <time>2019-12-16T13:17:44Z</time>
      </trkpt>
      <trkpt lat="43.60014" lon="5.05067">
        <ele>79</ele>
        <time>2019-12-16T13:17:45Z</time>
      </trkpt>
      <trkpt lat="43.60013" lon="5.05066">
        <ele>79</ele>
        <time>2019-12-16T13:17:46Z</time>
      </trkpt>
      <trkpt lat="43.60012" lon="5.05065">
        <ele>79</ele>
        <time>2019-12-16T13:17:47Z</time>
      </trkpt>
      <trkpt lat="43.60012" lon="5.05064">
        <ele>79</ele>
        <time>2019-12-16T13:17:48Z</time>
      </trkpt>
      <trkpt lat="43.60011" lon="5.05063">
        <ele>79</ele>
        <time>2019-12-16T13:17:49Z</time>
      </trkpt>
      <trkpt lat="43.6001" lon="5.05062">
        <ele>79</ele>
        <time>2019-12-16T13:17:50Z</time>
      </trkpt>
      <trkpt lat="43.60009" lon="5.05061">
        <ele>79</ele>
        <time>2019-12-16T13:17:51Z</time>
      </trkpt>
      <trkpt lat="43.60008" lon="5.05061">
        <ele>79</ele>
        <time>2019-12-16T13:17:52Z</time>
      </trkpt>
      <trkpt lat="43.60008" lon="5.0506">
        <ele>79</ele>
        <time>2019-12-16T13:17:53Z</time>
      </trkpt>
      <trkpt lat="43.60007" lon="5.05059">
        <ele>79</ele>
        <time>2019-12-16T13:17:54Z</time>
      </trkpt>
      <trkpt lat="43.60006" lon="5.05059">
        <ele>79</ele>
        <time>2019-12-16T13:17:55Z</time>
      </trkpt>
      <trkpt lat="43.60005" lon="5.05058">
        <ele>79</ele>
        <time>2019-12-16T13:17:56Z</time>
      </trkpt>
      <trkpt lat="43.60004" lon="5.05058">
        <ele>79</ele>
        <time>2019-12-16T13:17:57Z</time>
      </trkpt>
      <trkpt lat="43.60003" lon="5.05058">
        <ele>79</ele>
        <time>2019-12-16T13:17:58Z</time>
      </trkpt>
      <trkpt lat="43.60002" lon="5.05057">
        <ele>79</ele>
        <time>2019-12-16T13:17:59Z</time>
      </trkpt>
      <trkpt lat="43.60001" lon="5.05057">
        <ele>79</ele>
        <time>2019-12-16T13:18:00Z</time>
      </trkpt>
      <trkpt lat="43.6" lon="5.05057">
        <ele>79</ele>
        <time>2019-12-16T13:18:01Z</time>
      </trkpt>
      <trkpt lat="43.59999" lon="5.05056">
        <ele>79</ele>
        <time>2019-12-16T13:18:02Z</time>
      </trkpt>
      <trkpt lat="43.59998" lon="5.05056">
        <ele>79</ele>
        <time>2019-12-16T13:18:03Z</time>
      </trkpt>
      <trkpt lat="43.59997" lon="5.05056">
        <ele>78</ele>
        <time>2019-12-16T13:18:04Z</time>
      </trkpt>
      <trkpt lat="43.59995" lon="5.05056">
        <ele>78</ele>
        <time>2019-12-16T13:18:05Z</time>
      </trkpt>
      <trkpt lat="43.59994" lon="5.05056">
        <ele>78</ele>
        <time>2019-12-16T13:18:06Z</time>
      </trkpt>
      <trkpt lat="43.59993" lon="5.05056">
        <ele>78</ele>
        <time>2019-12-16T13:18:07Z</time>
      </trkpt>
      <trkpt lat="43.59992" lon="5.05056">
        <ele>78</ele>
        <time>2019-12-16T13:18:08Z</time>
      </trkpt>
      <trkpt lat="43.59991" lon="5.05056">
        <ele>78</ele>
        <time>2019-12-16T13:18:09Z</time>
      </trkpt>
      <trkpt lat="43.5999" lon="5.05056">
        <ele>78</ele>
        <time>2019-12-16T13:18:10Z</time>
      </trkpt>
      <trkpt lat="43.59988" lon="5.05056">
        <ele>78</ele>
        <time>2019-12-16T13:18:11Z</time>
      </trkpt>
      <trkpt lat="43.59987" lon="5.05056">
        <ele>78</ele>
        <time>2019-12-16T13:18:12Z</time>
      </trkpt>
      <trkpt lat="43.59986" lon="5.05056">
        <ele>78</ele>
        <time>2019-12-16T13:18:13Z</time>
      </trkpt>
      <trkpt lat="43.59985" lon="5.05056">
        <ele>78</ele>
        <time>2019-12-16T13:18:14Z</time>
      </trkpt>
      <trkpt lat="43.59984" lon="5.05056">
        <ele>78</ele>
        <time>2019-12-16T13:18:15Z</time>
      </trkpt>
      <trkpt lat="43.59983" lon="5.05056">
        <ele>78</ele>
        <time>2019-12-16T13:18:16Z</time>
      </trkpt>
      <trkpt lat="43.59982" lon="5.05056">
        <ele>78</ele>
        <time>2019-12-16T13:18:17Z</time>
      </trkpt>
      <trkpt lat="43.59981" lon="5.05056">
        <ele>78</ele>
        <time>2019-12-16T13:18:18Z</time>
      </trkpt>
      <trkpt lat="43.5998" lon="5.05056">
        <ele>78</ele>
        <time>2019-12-16T13:18:19Z</time>
      </trkpt>
      <trkpt lat="43.5998" lon="5.05056">
        <ele>78</ele>
        <time>2019-12-16T13:18:20Z</time>
      </trkpt>
      <trkpt lat="43.59978" lon="5.05055">
        <ele>78</ele>
        <time>2019-12-16T13:18:21Z</time>
      </trkpt>
      <trkpt lat="43.59978" lon="5.05055">
        <ele>78</ele>
        <time>2019-12-16T13:18:22Z</time>
      </trkpt>
      <trkpt lat="43.59977" lon="5.05055">
        <ele>78</ele>
        <time>2019-12-16T13:18:23Z</time>
      </trkpt>
      <trkpt lat="43.59976" lon="5.05055">
        <ele>78</ele>
        <time>2019-12-16T13:18:24Z</time>
      </trkpt>
      <trkpt lat="43.59975" lon="5.05054">
        <ele>78</ele>
        <time>2019-12-16T13:18:25Z</time>
      </trkpt>
      <trkpt lat="43.59974" lon="5.05054">
        <ele>78</ele>
        <time>2019-12-16T13:18:26Z</time>
      </trkpt>
      <trkpt lat="43.59973" lon="5.05054">
        <ele>78</ele>
        <time>2019-12-16T13:18:27Z</time>
      </trkpt>
      <trkpt lat="43.59972" lon="5.05054">
        <ele>78</ele>
        <time>2019-12-16T13:18:28Z</time>
      </trkpt>
      <trkpt lat="43.59971" lon="5.05054">
        <ele>78</ele>
        <time>2019-12-16T13:18:29Z</time>
      </trkpt>
      <trkpt lat="43.5997" lon="5.05054">
        <ele>78</ele>
        <time>2019-12-16T13:18:30Z</time>
      </trkpt>
      <trkpt lat="43.59968" lon="5.05054">
        <ele>78</ele>
        <time>2019-12-16T13:18:31Z</time>
      </trkpt>
      <trkpt lat="43.59967" lon="5.05054">
        <ele>78</ele>
        <time>2019-12-16T13:18:32Z</time>
      </trkpt>
      <trkpt lat="43.59966" lon="5.05054">
        <ele>78</ele>
        <time>2019-12-16T13:18:33Z</time>
      </trkpt>
      <trkpt lat="43.59965" lon="5.05054">
        <ele>78</ele>
        <time>2019-12-16T13:18:34Z</time>
      </trkpt>
      <trkpt lat="43.59964" lon="5.05055">
        <ele>78</ele>
        <time>2019-12-16T13:18:35Z</time>
      </trkpt>
      <trkpt lat="43.59962" lon="5.05055">
        <ele>78</ele>
        <time>2019-12-16T13:18:36Z</time>
      </trkpt>
      <trkpt lat="43.59961" lon="5.05055">
        <ele>78</ele>
        <time>2019-12-16T13:18:37Z</time>
      </trkpt>
      <trkpt lat="43.5996" lon="5.05056">
        <ele>78</ele>
        <time>2019-12-16T13:18:38Z</time>
      </trkpt>
      <trkpt lat="43.59959" lon="5.05056">
        <ele>78</ele>
        <time>2019-12-16T13:18:39Z</time>
      </trkpt>
      <trkpt lat="43.59958" lon="5.05056">
        <ele>78</ele>
        <time>2019-12-16T13:18:40Z</time>
      </trkpt>
      <trkpt lat="43.59957" lon="5.05057">
        <ele>78</ele>
        <time>2019-12-16T13:18:41Z</time>
      </trkpt>
      <trkpt lat="43.59955" lon="5.05057">
        <ele>78</ele>
        <time>2019-12-16T13:18:42Z</time>
      </trkpt>
      <trkpt lat="43.59954" lon="5.05057">
        <ele>78</ele>
        <time>2019-12-16T13:18:43Z</time>
      </trkpt>
      <trkpt lat="43.59953" lon="5.05057">
        <ele>78</ele>
        <time>2019-12-16T13:18:44Z</time>
      </trkpt>
      <trkpt lat="43.59952" lon="5.05057">
        <ele>78</ele>
        <time>2019-12-16T13:18:45Z</time>
      </trkpt>
      <trkpt lat="43.59951" lon="5.05058">
        <ele>78</ele>
        <time>2019-12-16T13:18:46Z</time>
      </trkpt>
      <trkpt lat="43.5995" lon="5.05058">
        <ele>78</ele>
        <time>2019-12-16T13:18:47Z</time>
      </trkpt>
      <trkpt lat="43.59948" lon="5.05058">
        <ele>78</ele>
        <time>2019-12-16T13:18:48Z</time>
      </trkpt>
      <trkpt lat="43.59947" lon="5.05058">
        <ele>78</ele>
        <time>2019-12-16T13:18:49Z</time>
      </trkpt>
      <trkpt lat="43.59946" lon="5.05057">
        <ele>78</ele>
        <time>2019-12-16T13:18:50Z</time>
      </trkpt>
      <trkpt lat="43.59945" lon="5.05057">
        <ele>78</ele>
        <time>2019-12-16T13:18:51Z</time>
      </trkpt>
      <trkpt lat="43.59944" lon="5.05057">
        <ele>78</ele>
        <time>2019-12-16T13:18:52Z</time>
      </trkpt>
      <trkpt lat="43.59943" lon="5.05057">
        <ele>78</ele>
        <time>2019-12-16T13:18:53Z</time>
      </trkpt>
      <trkpt lat="43.59942" lon="5.05057">
        <ele>78</ele>
        <time>2019-12-16T13:18:54Z</time>
      </trkpt>
      <trkpt lat="43.5994" lon="5.05056">
        <ele>78</ele>
        <time>2019-12-16T13:18:55Z</time>
      </trkpt>
      <trkpt lat="43.59939" lon="5.05056">
        <ele>78</ele>
        <time>2019-12-16T13:18:56Z</time>
      </trkpt>
      <trkpt lat="43.59938" lon="5.05056">
        <ele>78</ele>
        <time>2019-12-16T13:18:57Z</time>
      </trkpt>
      <trkpt lat="43.59937" lon="5.05055">
        <ele>78</ele>
        <time>2019-12-16T13:18:58Z</time>
      </trkpt>
      <trkpt lat="43.59936" lon="5.05055">
        <ele>78</ele>
        <time>2019-12-16T13:18:59Z</time>
      </trkpt>
      <trkpt lat="43.59935" lon="5.05055">
        <ele>77</ele>
        <time>2019-12-16T13:19:00Z</time>
      </trkpt>
      <trkpt lat="43.59934" lon="5.05054">
        <ele>77</ele>
        <time>2019-12-16T13:19:01Z</time>
      </trkpt>
      <trkpt lat="43.59933" lon="5.05054">
        <ele>77</ele>
        <time>2019-12-16T13:19:02Z</time>
      </trkpt>
      <trkpt lat="43.59932" lon="5.05054">
        <ele>77</ele>
        <time>2019-12-16T13:19:03Z</time>
      </trkpt>
      <trkpt lat="43.59931" lon="5.05054">
        <ele>77</ele>
        <time>2019-12-16T13:19:04Z</time>
      </trkpt>
      <trkpt lat="43.5993" lon="5.05053">
        <ele>77</ele>
        <time>2019-12-16T13:19:05Z</time>
      </trkpt>
      <trkpt lat="43.59928" lon="5.05053">
        <ele>77</ele>
        <time>2019-12-16T13:19:06Z</time>
      </trkpt>
      <trkpt lat="43.59928" lon="5.05053">
        <ele>77</ele>
        <time>2019-12-16T13:19:07Z</time>
      </trkpt>
      <trkpt lat="43.59926" lon="5.05053">
        <ele>77</ele>
        <time>2019-12-16T13:19:08Z</time>
      </trkpt>
      <trkpt lat="43.59925" lon="5.05053">
        <ele>77</ele>
        <time>2019-12-16T13:19:09Z</time>
      </trkpt>
      <trkpt lat="43.59924" lon="5.05053">
        <ele>77</ele>
        <time>2019-12-16T13:19:10Z</time>
      </trkpt>
      <trkpt lat="43.59923" lon="5.05053">
        <ele>77</ele>
        <time>2019-12-16T13:19:11Z</time>
      </trkpt>
      <trkpt lat="43.59922" lon="5.05053">
        <ele>77</ele>
        <time>2019-12-16T13:19:12Z</time>
      </trkpt>
      <trkpt lat="43.59921" lon="5.05054">
        <ele>77</ele>
        <time>2019-12-16T13:19:13Z</time>
      </trkpt>
      <trkpt lat="43.59919" lon="5.05054">
        <ele>77</ele>
        <time>2019-12-16T13:19:14Z</time>
      </trkpt>
      <trkpt lat="43.59918" lon="5.05054">
        <ele>77</ele>
        <time>2019-12-16T13:19:15Z</time>
      </trkpt>
      <trkpt lat="43.59917" lon="5.05054">
        <ele>77</ele>
        <time>2019-12-16T13:19:16Z</time>
      </trkpt>
      <trkpt lat="43.59917" lon="5.05054">
        <ele>77</ele>
        <time>2019-12-16T13:19:17Z</time>
      </trkpt>
      <trkpt lat="43.59916" lon="5.05054">
        <ele>77</ele>
        <time>2019-12-16T13:19:18Z</time>
      </trkpt>
      <trkpt lat="43.59915" lon="5.05054">
        <ele>77</ele>
        <time>2019-12-16T13:19:19Z</time>
      </trkpt>
      <trkpt lat="43.59915" lon="5.05054">
        <ele>77</ele>
        <time>2019-12-16T13:19:20Z</time>
      </trkpt>
      <trkpt lat="43.59915" lon="5.05054">
        <ele>77</ele>
        <time>2019-12-16T13:19:21Z</time>
      </trkpt>
      <trkpt lat="43.59915" lon="5.05054">
        <ele>77</ele>
        <time>2019-12-16T13:19:22Z</time>
      </trkpt>
      <trkpt lat="43.59915" lon="5.05054">
        <ele>77</ele>
        <time>2019-12-16T13:19:23Z</time>
      </trkpt>
      <trkpt lat="43.59915" lon="5.05054">
        <ele>77</ele>
        <time>2019-12-16T13:19:24Z</time>
      </trkpt>
      <trkpt lat="43.59915" lon="5.05054">
        <ele>77</ele>
        <time>2019-12-16T13:19:25Z</time>
      </trkpt>
      <trkpt lat="43.59914" lon="5.05054">
        <ele>77</ele>
        <time>2019-12-16T13:19:26Z</time>
      </trkpt>
      <trkpt lat="43.59913" lon="5.05054">
        <ele>77</ele>
        <time>2019-12-16T13:19:27Z</time>
      </trkpt>
      <trkpt lat="43.59912" lon="5.05055">
        <ele>77</ele>
        <time>2019-12-16T13:19:28Z</time>
      </trkpt>
      <trkpt lat="43.5991" lon="5.05055">
        <ele>77</ele>
        <time>2019-12-16T13:19:29Z</time>
      </trkpt>
      <trkpt lat="43.59909" lon="5.05055">
        <ele>77</ele>
        <time>2019-12-16T13:19:30Z</time>
      </trkpt>
      <trkpt lat="43.59908" lon="5.05055">
        <ele>77</ele>
        <time>2019-12-16T13:19:31Z</time>
      </trkpt>
      <trkpt lat="43.59906" lon="5.05055">
        <ele>76</ele>
        <time>2019-12-16T13:19:32Z</time>
      </trkpt>
      <trkpt lat="43.59905" lon="5.05055">
        <ele>76</ele>
        <time>2019-12-16T13:19:33Z</time>
      </trkpt>
      <trkpt lat="43.59904" lon="5.05055">
        <ele>76</ele>
        <time>2019-12-16T13:19:34Z</time>
      </trkpt>
      <trkpt lat="43.59903" lon="5.05055">
        <ele>76</ele>
        <time>2019-12-16T13:19:35Z</time>
      </trkpt>
      <trkpt lat="43.59901" lon="5.05055">
        <ele>76</ele>
        <time>2019-12-16T13:19:36Z</time>
      </trkpt>
      <trkpt lat="43.599" lon="5.05055">
        <ele>76</ele>
        <time>2019-12-16T13:19:37Z</time>
      </trkpt>
      <trkpt lat="43.59899" lon="5.05055">
        <ele>76</ele>
        <time>2019-12-16T13:19:38Z</time>
      </trkpt>
      <trkpt lat="43.59897" lon="5.05055">
        <ele>76</ele>
        <time>2019-12-16T13:19:39Z</time>
      </trkpt>
      <trkpt lat="43.59896" lon="5.05055">
        <ele>76</ele>
        <time>2019-12-16T13:19:40Z</time>
      </trkpt>
      <trkpt lat="43.59895" lon="5.05055">
        <ele>76</ele>
        <time>2019-12-16T13:19:41Z</time>
      </trkpt>
      <trkpt lat="43.59893" lon="5.05055">
        <ele>76</ele>
        <time>2019-12-16T13:19:42Z</time>
      </trkpt>
      <trkpt lat="43.59892" lon="5.05055">
        <ele>76</ele>
        <time>2019-12-16T13:19:43Z</time>
      </trkpt>
      <trkpt lat="43.59891" lon="5.05055">
        <ele>76</ele>
        <time>2019-12-16T13:19:44Z</time>
      </trkpt>
      <trkpt lat="43.59889" lon="5.05055">
        <ele>76</ele>
        <time>2019-12-16T13:19:45Z</time>
      </trkpt>
      <trkpt lat="43.59888" lon="5.05055">
        <ele>76</ele>
        <time>2019-12-16T13:19:46Z</time>
      </trkpt>
      <trkpt lat="43.59887" lon="5.05055">
        <ele>76</ele>
        <time>2019-12-16T13:19:47Z</time>
      </trkpt>
      <trkpt lat="43.59886" lon="5.05055">
        <ele>76</ele>
        <time>2019-12-16T13:19:48Z</time>
      </trkpt>
      <trkpt lat="43.59885" lon="5.05055">
        <ele>76</ele>
        <time>2019-12-16T13:19:49Z</time>
      </trkpt>
      <trkpt lat="43.59884" lon="5.05056">
        <ele>76</ele>
        <time>2019-12-16T13:19:50Z</time>
      </trkpt>
      <trkpt lat="43.59883" lon="5.05056">
        <ele>76</ele>
        <time>2019-12-16T13:19:51Z</time>
      </trkpt>
      <trkpt lat="43.59882" lon="5.05056">
        <ele>76</ele>
        <time>2019-12-16T13:19:52Z</time>
      </trkpt>
      <trkpt lat="43.5988" lon="5.05056">
        <ele>76</ele>
        <time>2019-12-16T13:19:53Z</time>
      </trkpt>
      <trkpt lat="43.59879" lon="5.05056">
        <ele>76</ele>
        <time>2019-12-16T13:19:54Z</time>
      </trkpt>
      <trkpt lat="43.59878" lon="5.05057">
        <ele>76</ele>
        <time>2019-12-16T13:19:55Z</time>
      </trkpt>
      <trkpt lat="43.59877" lon="5.05057">
        <ele>76</ele>
        <time>2019-12-16T13:19:56Z</time>
      </trkpt>
      <trkpt lat="43.59876" lon="5.05057">
        <ele>76</ele>
        <time>2019-12-16T13:19:57Z</time>
      </trkpt>
      <trkpt lat="43.59875" lon="5.05057">
        <ele>76</ele>
        <time>2019-12-16T13:19:58Z</time>
      </trkpt>
      <trkpt lat="43.59874" lon="5.05057">
        <ele>76</ele>
        <time>2019-12-16T13:19:59Z</time>
      </trkpt>
      <trkpt lat="43.59873" lon="5.05058">
        <ele>76</ele>
        <time>2019-12-16T13:20:00Z</time>
      </trkpt>
      <trkpt lat="43.59872" lon="5.05058">
        <ele>76</ele>
        <time>2019-12-16T13:20:01Z</time>
      </trkpt>
      <trkpt lat="43.59871" lon="5.05058">
        <ele>76</ele>
        <time>2019-12-16T13:20:02Z</time>
      </trkpt>
      <trkpt lat="43.5987" lon="5.05058">
        <ele>76</ele>
        <time>2019-12-16T13:20:03Z</time>
      </trkpt>
      <trkpt lat="43.59869" lon="5.05059">
        <ele>76</ele>
        <time>2019-12-16T13:20:04Z</time>
      </trkpt>
      <trkpt lat="43.59868" lon="5.05059">
        <ele>76</ele>
        <time>2019-12-16T13:20:05Z</time>
      </trkpt>
      <trkpt lat="43.59867" lon="5.05059">
        <ele>76</ele>
        <time>2019-12-16T13:20:06Z</time>
      </trkpt>
      <trkpt lat="43.59866" lon="5.0506">
        <ele>76</ele>
        <time>2019-12-16T13:20:07Z</time>
      </trkpt>
      <trkpt lat="43.59865" lon="5.0506">
        <ele>76</ele>
        <time>2019-12-16T13:20:08Z</time>
      </trkpt>
      <trkpt lat="43.59864" lon="5.05061">
        <ele>76</ele>
        <time>2019-12-16T13:20:09Z</time>
      </trkpt>
      <trkpt lat="43.59863" lon="5.05061">
        <ele>76</ele>
        <time>2019-12-16T13:20:10Z</time>
      </trkpt>
      <trkpt lat="43.59862" lon="5.05062">
        <ele>76</ele>
        <time>2019-12-16T13:20:11Z</time>
      </trkpt>
      <trkpt lat="43.59861" lon="5.05062">
        <ele>76</ele>
        <time>2019-12-16T13:20:12Z</time>
      </trkpt>
      <trkpt lat="43.5986" lon="5.05063">
        <ele>77</ele>
        <time>2019-12-16T13:20:13Z</time>
      </trkpt>
      <trkpt lat="43.59859" lon="5.05064">
        <ele>77</ele>
        <time>2019-12-16T13:20:14Z</time>
      </trkpt>
      <trkpt lat="43.59858" lon="5.05064">
        <ele>77</ele>
        <time>2019-12-16T13:20:15Z</time>
      </trkpt>
      <trkpt lat="43.59857" lon="5.05065">
        <ele>77</ele>
        <time>2019-12-16T13:20:16Z</time>
      </trkpt>
      <trkpt lat="43.59856" lon="5.05066">
        <ele>77</ele>
        <time>2019-12-16T13:20:17Z</time>
      </trkpt>
      <trkpt lat="43.59855" lon="5.05066">
        <ele>77</ele>
        <time>2019-12-16T13:20:18Z</time>
      </trkpt>
      <trkpt lat="43.59854" lon="5.05067">
        <ele>77</ele>
        <time>2019-12-16T13:20:19Z</time>
      </trkpt>
      <trkpt lat="43.59853" lon="5.05068">
        <ele>77</ele>
        <time>2019-12-16T13:20:20Z</time>
      </trkpt>
      <trkpt lat="43.59852" lon="5.05069">
        <ele>77</ele>
        <time>2019-12-16T13:20:21Z</time>
      </trkpt>
      <trkpt lat="43.59851" lon="5.0507">
        <ele>77</ele>
        <time>2019-12-16T13:20:22Z</time>
      </trkpt>
      <trkpt lat="43.5985" lon="5.0507">
        <ele>77</ele>
        <time>2019-12-16T13:20:23Z</time>
      </trkpt>
      <trkpt lat="43.59849" lon="5.05071">
        <ele>77</ele>
        <time>2019-12-16T13:20:24Z</time>
      </trkpt>
      <trkpt lat="43.59848" lon="5.05072">
        <ele>78</ele>
        <time>2019-12-16T13:20:25Z</time>
      </trkpt>
      <trkpt lat="43.59847" lon="5.05073">
        <ele>78</ele>
        <time>2019-12-16T13:20:26Z</time>
      </trkpt>
      <trkpt lat="43.59846" lon="5.05074">
        <ele>78</ele>
        <time>2019-12-16T13:20:27Z</time>
      </trkpt>
      <trkpt lat="43.59845" lon="5.05075">
        <ele>78</ele>
        <time>2019-12-16T13:20:28Z</time>
      </trkpt>
      <trkpt lat="43.59844" lon="5.05076">
        <ele>78</ele>
        <time>2019-12-16T13:20:29Z</time>
      </trkpt>
      <trkpt lat="43.59843" lon="5.05077">
        <ele>78</ele>
        <time>2019-12-16T13:20:30Z</time>
      </trkpt>
      <trkpt lat="43.59842" lon="5.05077">
        <ele>78</ele>
        <time>2019-12-16T13:20:31Z</time>
      </trkpt>
      <trkpt lat="43.59841" lon="5.05078">
        <ele>78</ele>
        <time>2019-12-16T13:20:32Z</time>
      </trkpt>
      <trkpt lat="43.5984" lon="5.05079">
        <ele>79</ele>
        <time>2019-12-16T13:20:33Z</time>
      </trkpt>
      <trkpt lat="43.59839" lon="5.0508">
        <ele>79</ele>
        <time>2019-12-16T13:20:34Z</time>
      </trkpt>
      <trkpt lat="43.59838" lon="5.05081">
        <ele>79</ele>
        <time>2019-12-16T13:20:35Z</time>
      </trkpt>
      <trkpt lat="43.59837" lon="5.05081">
        <ele>79</ele>
        <time>2019-12-16T13:20:36Z</time>
      </trkpt>
      <trkpt lat="43.59836" lon="5.05082">
        <ele>79</ele>
        <time>2019-12-16T13:20:37Z</time>
      </trkpt>
      <trkpt lat="43.59835" lon="5.05083">
        <ele>80</ele>
        <time>2019-12-16T13:20:38Z</time>
      </trkpt>
      <trkpt lat="43.59834" lon="5.05084">
        <ele>80</ele>
        <time>2019-12-16T13:20:39Z</time>
      </trkpt>
      <trkpt lat="43.59833" lon="5.05085">
        <ele>80</ele>
        <time>2019-12-16T13:20:40Z</time>
      </trkpt>
      <trkpt lat="43.59832" lon="5.05085">
        <ele>80</ele>
        <time>2019-12-16T13:20:41Z</time>
      </trkpt>
      <trkpt lat="43.59831" lon="5.05086">
        <ele>80</ele>
        <time>2019-12-16T13:20:42Z</time>
      </trkpt>
      <trkpt lat="43.5983" lon="5.05087">
        <ele>80</ele>
        <time>2019-12-16T13:20:43Z</time>
      </trkpt>
      <trkpt lat="43.59829" lon="5.05088">
        <ele>80</ele>
        <time>2019-12-16T13:20:44Z</time>
      </trkpt>
      <trkpt lat="43.59828" lon="5.05088">
        <ele>80</ele>
        <time>2019-12-16T13:20:45Z</time>
      </trkpt>
      <trkpt lat="43.59826" lon="5.05089">
        <ele>80</ele>
        <time>2019-12-16T13:20:46Z</time>
      </trkpt>
      <trkpt lat="43.59826" lon="5.0509">
        <ele>80</ele>
        <time>2019-12-16T13:20:47Z</time>
      </trkpt>
      <trkpt lat="43.59824" lon="5.05091">
        <ele>80</ele>
        <time>2019-12-16T13:20:48Z</time>
      </trkpt>
      <trkpt lat="43.59823" lon="5.05092">
        <ele>79</ele>
        <time>2019-12-16T13:20:49Z</time>
      </trkpt>
      <trkpt lat="43.59822" lon="5.05093">
        <ele>79</ele>
        <time>2019-12-16T13:20:50Z</time>
      </trkpt>
      <trkpt lat="43.59821" lon="5.05093">
        <ele>79</ele>
        <time>2019-12-16T13:20:51Z</time>
      </trkpt>
      <trkpt lat="43.5982" lon="5.05094">
        <ele>79</ele>
        <time>2019-12-16T13:20:52Z</time>
      </trkpt>
      <trkpt lat="43.59819" lon="5.05095">
        <ele>79</ele>
        <time>2019-12-16T13:20:53Z</time>
      </trkpt>
      <trkpt lat="43.59818" lon="5.05096">
        <ele>79</ele>
        <time>2019-12-16T13:20:54Z</time>
      </trkpt>
      <trkpt lat="43.59817" lon="5.05097">
        <ele>79</ele>
        <time>2019-12-16T13:20:55Z</time>
      </trkpt>
      <trkpt lat="43.59816" lon="5.05098">
        <ele>79</ele>
        <time>2019-12-16T13:20:56Z</time>
      </trkpt>
      <trkpt lat="43.59815" lon="5.05099">
        <ele>79</ele>
        <time>2019-12-16T13:20:57Z</time>
      </trkpt>
      <trkpt lat="43.59814" lon="5.051">
        <ele>79</ele>
        <time>2019-12-16T13:20:58Z</time>
      </trkpt>
      <trkpt lat="43.59813" lon="5.05101">
        <ele>79</ele>
        <time>2019-12-16T13:20:59Z</time>
      </trkpt>
      <trkpt lat="43.59812" lon="5.05102">
        <ele>79</ele>
        <time>2019-12-16T13:21:00Z</time>
      </trkpt>
      <trkpt lat="43.59811" lon="5.05103">
        <ele>79</ele>
        <time>2019-12-16T13:21:01Z</time>
      </trkpt>
      <trkpt lat="43.5981" lon="5.05104">
        <ele>79</ele>
        <time>2019-12-16T13:21:02Z</time>
      </trkpt>
      <trkpt lat="43.5981" lon="5.05105">
        <ele>79</ele>
        <time>2019-12-16T13:21:03Z</time>
      </trkpt>
      <trkpt lat="43.59809" lon="5.05106">
        <ele>79</ele>
        <time>2019-12-16T13:21:04Z</time>
      </trkpt>
      <trkpt lat="43.59808" lon="5.05107">
        <ele>79</ele>
        <time>2019-12-16T13:21:05Z</time>
      </trkpt>
      <trkpt lat="43.59807" lon="5.05108">
        <ele>79</ele>
        <time>2019-12-16T13:21:06Z</time>
      </trkpt>
      <trkpt lat="43.59806" lon="5.05109">
        <ele>79</ele>
        <time>2019-12-16T13:21:07Z</time>
      </trkpt>
      <trkpt lat="43.59805" lon="5.0511">
        <ele>79</ele>
        <time>2019-12-16T13:21:08Z</time>
      </trkpt>
      <trkpt lat="43.59804" lon="5.05111">
        <ele>79</ele>
        <time>2019-12-16T13:21:09Z</time>
      </trkpt>
      <trkpt lat="43.59803" lon="5.05112">
        <ele>79</ele>
        <time>2019-12-16T13:21:10Z</time>
      </trkpt>
      <trkpt lat="43.59802" lon="5.05113">
        <ele>79</ele>
        <time>2019-12-16T13:21:11Z</time>
      </trkpt>
      <trkpt lat="43.59801" lon="5.05114">
        <ele>79</ele>
        <time>2019-12-16T13:21:12Z</time>
      </trkpt>
      <trkpt lat="43.598" lon="5.05115">
        <ele>79</ele>
        <time>2019-12-16T13:21:13Z</time>
      </trkpt>
      <trkpt lat="43.59799" lon="5.05116">
        <ele>79</ele>
        <time>2019-12-16T13:21:14Z</time>
      </trkpt>
      <trkpt lat="43.59798" lon="5.05117">
        <ele>79</ele>
        <time>2019-12-16T13:21:15Z</time>
      </trkpt>
      <trkpt lat="43.59797" lon="5.05118">
        <ele>79</ele>
        <time>2019-12-16T13:21:16Z</time>
      </trkpt>
      <trkpt lat="43.59797" lon="5.05119">
        <ele>79</ele>
        <time>2019-12-16T13:21:17Z</time>
      </trkpt>
      <trkpt lat="43.59796" lon="5.0512">
        <ele>79</ele>
        <time>2019-12-16T13:21:18Z</time>
      </trkpt>
      <trkpt lat="43.59794" lon="5.0512">
        <ele>79</ele>
        <time>2019-12-16T13:21:19Z</time>
      </trkpt>
      <trkpt lat="43.59794" lon="5.05121">
        <ele>79</ele>
        <time>2019-12-16T13:21:20Z</time>
      </trkpt>
      <trkpt lat="43.59793" lon="5.05122">
        <ele>79</ele>
        <time>2019-12-16T13:21:21Z</time>
      </trkpt>
      <trkpt lat="43.59791" lon="5.05123">
        <ele>79</ele>
        <time>2019-12-16T13:21:22Z</time>
      </trkpt>
      <trkpt lat="43.5979" lon="5.05124">
        <ele>79</ele>
        <time>2019-12-16T13:21:23Z</time>
      </trkpt>
      <trkpt lat="43.59789" lon="5.05124">
        <ele>79</ele>
        <time>2019-12-16T13:21:24Z</time>
      </trkpt>
      <trkpt lat="43.59788" lon="5.05125">
        <ele>79</ele>
        <time>2019-12-16T13:21:25Z</time>
      </trkpt>
      <trkpt lat="43.59788" lon="5.05125">
        <ele>79</ele>
        <time>2019-12-16T13:21:26Z</time>
      </trkpt>
      <trkpt lat="43.59787" lon="5.05125">
        <ele>79</ele>
        <time>2019-12-16T13:21:27Z</time>
      </trkpt>
      <trkpt lat="43.59787" lon="5.05125">
        <ele>79</ele>
        <time>2019-12-16T13:21:28Z</time>
      </trkpt>
      <trkpt lat="43.59786" lon="5.05125">
        <ele>79</ele>
        <time>2019-12-16T13:21:29Z</time>
      </trkpt>
      <trkpt lat="43.59786" lon="5.05125">
        <ele>79</ele>
        <time>2019-12-16T13:21:30Z</time>
      </trkpt>
      <trkpt lat="43.59786" lon="5.05125">
        <ele>79</ele>
        <time>2019-12-16T13:21:31Z</time>
      </trkpt>
      <trkpt lat="43.59786" lon="5.05124">
        <ele>79</ele>
        <time>2019-12-16T13:21:32Z</time>
      </trkpt>
      <trkpt lat="43.59786" lon="5.05124">
        <ele>79</ele>
        <time>2019-12-16T13:21:33Z</time>
      </trkpt>
      <trkpt lat="43.59786" lon="5.05124">
        <ele>79</ele>
        <time>2019-12-16T13:21:34Z</time>
      </trkpt>
      <trkpt lat="43.59785" lon="5.05124">
        <ele>79</ele>
        <time>2019-12-16T13:21:35Z</time>
      </trkpt>
      <trkpt lat="43.59785" lon="5.05124">
        <ele>79</ele>
        <time>2019-12-16T13:21:36Z</time>
      </trkpt>
      <trkpt lat="43.59785" lon="5.05123">
        <ele>79</ele>
        <time>2019-12-16T13:21:37Z</time>
      </trkpt>
      <trkpt lat="43.59785" lon="5.05123">
        <ele>79</ele>
        <time>2019-12-16T13:21:38Z</time>
      </trkpt>
      <trkpt lat="43.59785" lon="5.05123">
        <ele>79</ele>
        <time>2019-12-16T13:21:39Z</time>
      </trkpt>
      <trkpt lat="43.59785" lon="5.05123">
        <ele>79</ele>
        <time>2019-12-16T13:21:40Z</time>
      </trkpt>
      <trkpt lat="43.59785" lon="5.05123">
        <ele>79</ele>
        <time>2019-12-16T13:21:41Z</time>
      </trkpt>
      <trkpt lat="43.59785" lon="5.05123">
        <ele>79</ele>
        <time>2019-12-16T13:21:42Z</time>
      </trkpt>
      <trkpt lat="43.59785" lon="5.05123">
        <ele>79</ele>
        <time>2019-12-16T13:21:43Z</time>
      </trkpt>
      <trkpt lat="43.59785" lon="5.05123">
        <ele>79</ele>
        <time>2019-12-16T13:21:44Z</time>
      </trkpt>
      <trkpt lat="43.59785" lon="5.05123">
        <ele>79</ele>
        <time>2019-12-16T13:21:45Z</time>
      </trkpt>
      <trkpt lat="43.59785" lon="5.05123">
        <ele>79</ele>
        <time>2019-12-16T13:21:46Z</time>
      </trkpt>
      <trkpt lat="43.59785" lon="5.05123">
        <ele>79</ele>
        <time>2019-12-16T13:21:47Z</time>
      </trkpt>
      <trkpt lat="43.59785" lon="5.05123">
        <ele>79</ele>
        <time>2019-12-16T13:21:48Z</time>
      </trkpt>
      <trkpt lat="43.59785" lon="5.05123">
        <ele>79</ele>
        <time>2019-12-16T13:21:49Z</time>
      </trkpt>
      <trkpt lat="43.59785" lon="5.05123">
        <ele>79</ele>
        <time>2019-12-16T13:21:50Z</time>
      </trkpt>
      <trkpt lat="43.59785" lon="5.05123">
        <ele>79</ele>
        <time>2019-12-16T13:21:51Z</time>
      </trkpt>
      <trkpt lat="43.59785" lon="5.05123">
        <ele>79</ele>
        <time>2019-12-16T13:21:52Z</time>
      </trkpt>
      <trkpt lat="43.59785" lon="5.05123">
        <ele>79</ele>
        <time>2019-12-16T13:21:53Z</time>
      </trkpt>
      <trkpt lat="43.59785" lon="5.05123">
        <ele>79</ele>
        <time>2019-12-16T13:21:54Z</time>
      </trkpt>
      <trkpt lat="43.59785" lon="5.05123">
        <ele>79</ele>
        <time>2019-12-16T13:21:55Z</time>
      </trkpt>
      <trkpt lat="43.59785" lon="5.05123">
        <ele>79</ele>
        <time>2019-12-16T13:21:56Z</time>
      </trkpt>
      <trkpt lat="43.59785" lon="5.05123">
        <ele>79</ele>
        <time>2019-12-16T13:21:57Z</time>
      </trkpt>
      <trkpt lat="43.59785" lon="5.05123">
        <ele>79</ele>
        <time>2019-12-16T13:21:58Z</time>
      </trkpt>
      <trkpt lat="43.59785" lon="5.05123">
        <ele>79</ele>
        <time>2019-12-16T13:21:59Z</time>
      </trkpt>
      <trkpt lat="43.59785" lon="5.05123">
        <ele>79</ele>
        <time>2019-12-16T13:22:00Z</time>
      </trkpt>
      <trkpt lat="43.59785" lon="5.05123">
        <ele>79</ele>
        <time>2019-12-16T13:22:01Z</time>
      </trkpt>
      <trkpt lat="43.59785" lon="5.05123">
        <ele>79</ele>
        <time>2019-12-16T13:22:02Z</time>
      </trkpt>
      <trkpt lat="43.59785" lon="5.05123">
        <ele>79</ele>
        <time>2019-12-16T13:22:03Z</time>
      </trkpt>
      <trkpt lat="43.59785" lon="5.05123">
        <ele>79</ele>
        <time>2019-12-16T13:22:04Z</time>
      </trkpt>
      <trkpt lat="43.59785" lon="5.05123">
        <ele>79</ele>
        <time>2019-12-16T13:22:05Z</time>
      </trkpt>
      <trkpt lat="43.59785" lon="5.05123">
        <ele>79</ele>
        <time>2019-12-16T13:22:06Z</time>
      </trkpt>
      <trkpt lat="43.59785" lon="5.05123">
        <ele>79</ele>
        <time>2019-12-16T13:22:07Z</time>
      </trkpt>
      <trkpt lat="43.59785" lon="5.05123">
        <ele>79</ele>
        <time>2019-12-16T13:22:08Z</time>
      </trkpt>
      <trkpt lat="43.59785" lon="5.05123">
        <ele>79</ele>
        <time>2019-12-16T13:22:09Z</time>
      </trkpt>
      <trkpt lat="43.59785" lon="5.05123">
        <ele>79</ele>
        <time>2019-12-16T13:22:10Z</time>
      </trkpt>
      <trkpt lat="43.59785" lon="5.05123">
        <ele>79</ele>
        <time>2019-12-16T13:22:11Z</time>
      </trkpt>
      <trkpt lat="43.59785" lon="5.05123">
        <ele>79</ele>
        <time>2019-12-16T13:22:12Z</time>
      </trkpt>
      <trkpt lat="43.59785" lon="5.05123">
        <ele>79</ele>
        <time>2019-12-16T13:22:13Z</time>
      </trkpt>
      <trkpt lat="43.59785" lon="5.05123">
        <ele>79</ele>
        <time>2019-12-16T13:22:14Z</time>
      </trkpt>
      <trkpt lat="43.59785" lon="5.05123">
        <ele>79</ele>
        <time>2019-12-16T13:22:15Z</time>
      </trkpt>
      <trkpt lat="43.59785" lon="5.05123">
        <ele>79</ele>
        <time>2019-12-16T13:22:16Z</time>
      </trkpt>
      <trkpt lat="43.59784" lon="5.05123">
        <ele>79</ele>
        <time>2019-12-16T13:22:17Z</time>
      </trkpt>
      <trkpt lat="43.59784" lon="5.05124">
        <ele>79</ele>
        <time>2019-12-16T13:22:18Z</time>
      </trkpt>
      <trkpt lat="43.59784" lon="5.05125">
        <ele>79</ele>
        <time>2019-12-16T13:22:19Z</time>
      </trkpt>
      <trkpt lat="43.59783" lon="5.05125">
        <ele>79</ele>
        <time>2019-12-16T13:22:20Z</time>
      </trkpt>
      <trkpt lat="43.59783" lon="5.05126">
        <ele>79</ele>
        <time>2019-12-16T13:22:21Z</time>
      </trkpt>
      <trkpt lat="43.59782" lon="5.05127">
        <ele>79</ele>
        <time>2019-12-16T13:22:22Z</time>
      </trkpt>
      <trkpt lat="43.59782" lon="5.05128">
        <ele>79</ele>
        <time>2019-12-16T13:22:23Z</time>
      </trkpt>
      <trkpt lat="43.59781" lon="5.05129">
        <ele>79</ele>
        <time>2019-12-16T13:22:24Z</time>
      </trkpt>
      <trkpt lat="43.59781" lon="5.0513">
        <ele>79</ele>
        <time>2019-12-16T13:22:25Z</time>
      </trkpt>
      <trkpt lat="43.5978" lon="5.05131">
        <ele>79</ele>
        <time>2019-12-16T13:22:26Z</time>
      </trkpt>
      <trkpt lat="43.59779" lon="5.05132">
        <ele>79</ele>
        <time>2019-12-16T13:22:27Z</time>
      </trkpt>
      <trkpt lat="43.59779" lon="5.05133">
        <ele>79</ele>
        <time>2019-12-16T13:22:28Z</time>
      </trkpt>
      <trkpt lat="43.59778" lon="5.05134">
        <ele>79</ele>
        <time>2019-12-16T13:22:29Z</time>
      </trkpt>
      <trkpt lat="43.59777" lon="5.05135">
        <ele>79</ele>
        <time>2019-12-16T13:22:30Z</time>
      </trkpt>
      <trkpt lat="43.59777" lon="5.05136">
        <ele>79</ele>
        <time>2019-12-16T13:22:31Z</time>
      </trkpt>
      <trkpt lat="43.59776" lon="5.05136">
        <ele>79</ele>
        <time>2019-12-16T13:22:32Z</time>
      </trkpt>
      <trkpt lat="43.59775" lon="5.05137">
        <ele>79</ele>
        <time>2019-12-16T13:22:33Z</time>
      </trkpt>
      <trkpt lat="43.59775" lon="5.05138">
        <ele>79</ele>
        <time>2019-12-16T13:22:34Z</time>
      </trkpt>
      <trkpt lat="43.59774" lon="5.05138">
        <ele>79</ele>
        <time>2019-12-16T13:22:35Z</time>
      </trkpt>
      <trkpt lat="43.59773" lon="5.05139">
        <ele>79</ele>
        <time>2019-12-16T13:22:36Z</time>
      </trkpt>
      <trkpt lat="43.59772" lon="5.0514">
        <ele>79</ele>
        <time>2019-12-16T13:22:37Z</time>
      </trkpt>
      <trkpt lat="43.59771" lon="5.05141">
        <ele>79</ele>
        <time>2019-12-16T13:22:38Z</time>
      </trkpt>
      <trkpt lat="43.5977" lon="5.05141">
        <ele>79</ele>
        <time>2019-12-16T13:22:39Z</time>
      </trkpt>
      <trkpt lat="43.59769" lon="5.05142">
        <ele>79</ele>
        <time>2019-12-16T13:22:40Z</time>
      </trkpt>
      <trkpt lat="43.59768" lon="5.05143">
        <ele>79</ele>
        <time>2019-12-16T13:22:41Z</time>
      </trkpt>
      <trkpt lat="43.59767" lon="5.05143">
        <ele>79</ele>
        <time>2019-12-16T13:22:42Z</time>
      </trkpt>
      <trkpt lat="43.59767" lon="5.05144">
        <ele>79</ele>
        <time>2019-12-16T13:22:43Z</time>
      </trkpt>
      <trkpt lat="43.59766" lon="5.05144">
        <ele>79</ele>
        <time>2019-12-16T13:22:44Z</time>
      </trkpt>
      <trkpt lat="43.59766" lon="5.05144">
        <ele>79</ele>
        <time>2019-12-16T13:22:45Z</time>
      </trkpt>
      <trkpt lat="43.59766" lon="5.05144">
        <ele>79</ele>
        <time>2019-12-16T13:22:46Z</time>
      </trkpt>
      <trkpt lat="43.59766" lon="5.05144">
        <ele>79</ele>
        <time>2019-12-16T13:22:47Z</time>
      </trkpt>
      <trkpt lat="43.59765" lon="5.05145">
        <ele>79</ele>
        <time>2019-12-16T13:22:48Z</time>
      </trkpt>
      <trkpt lat="43.59765" lon="5.05145">
        <ele>79</ele>
        <time>2019-12-16T13:22:49Z</time>
      </trkpt>
      <trkpt lat="43.59764" lon="5.05146">
        <ele>80</ele>
        <time>2019-12-16T13:22:50Z</time>
      </trkpt>
      <trkpt lat="43.59764" lon="5.05147">
        <ele>80</ele>
        <time>2019-12-16T13:22:51Z</time>
      </trkpt>
      <trkpt lat="43.59763" lon="5.05148">
        <ele>80</ele>
        <time>2019-12-16T13:22:52Z</time>
      </trkpt>
      <trkpt lat="43.59763" lon="5.05149">
        <ele>80</ele>
        <time>2019-12-16T13:22:53Z</time>
      </trkpt>
      <trkpt lat="43.59762" lon="5.0515">
        <ele>80</ele>
        <time>2019-12-16T13:22:54Z</time>
      </trkpt>
      <trkpt lat="43.59761" lon="5.05151">
        <ele>80</ele>
        <time>2019-12-16T13:22:55Z</time>
      </trkpt>
      <trkpt lat="43.59761" lon="5.05152">
        <ele>80</ele>
        <time>2019-12-16T13:22:56Z</time>
      </trkpt>
      <trkpt lat="43.5976" lon="5.05153">
        <ele>80</ele>
        <time>2019-12-16T13:22:57Z</time>
      </trkpt>
      <trkpt lat="43.5976" lon="5.05154">
        <ele>80</ele>
        <time>2019-12-16T13:22:58Z</time>
      </trkpt>
      <trkpt lat="43.59759" lon="5.05156">
        <ele>80</ele>
        <time>2019-12-16T13:22:59Z</time>
      </trkpt>
      <trkpt lat="43.59758" lon="5.05157">
        <ele>80</ele>
        <time>2019-12-16T13:23:00Z</time>
      </trkpt>
      <trkpt lat="43.59758" lon="5.05158">
        <ele>80</ele>
        <time>2019-12-16T13:23:01Z</time>
      </trkpt>
      <trkpt lat="43.59757" lon="5.05159">
        <ele>80</ele>
        <time>2019-12-16T13:23:02Z</time>
      </trkpt>
      <trkpt lat="43.59757" lon="5.0516">
        <ele>80</ele>
        <time>2019-12-16T13:23:03Z</time>
      </trkpt>
      <trkpt lat="43.59756" lon="5.05161">
        <ele>80</ele>
        <time>2019-12-16T13:23:04Z</time>
      </trkpt>
      <trkpt lat="43.59755" lon="5.05163">
        <ele>80</ele>
        <time>2019-12-16T13:23:05Z</time>
      </trkpt>
      <trkpt lat="43.59755" lon="5.05164">
        <ele>81</ele>
        <time>2019-12-16T13:23:06Z</time>
      </trkpt>
      <trkpt lat="43.59754" lon="5.05165">
        <ele>81</ele>
        <time>2019-12-16T13:23:07Z</time>
      </trkpt>
      <trkpt lat="43.59754" lon="5.05166">
        <ele>81</ele>
        <time>2019-12-16T13:23:08Z</time>
      </trkpt>
      <trkpt lat="43.59753" lon="5.05167">
        <ele>81</ele>
        <time>2019-12-16T13:23:09Z</time>
      </trkpt>
      <trkpt lat="43.59752" lon="5.05168">
        <ele>81</ele>
        <time>2019-12-16T13:23:10Z</time>
      </trkpt>
      <trkpt lat="43.59751" lon="5.05169">
        <ele>81</ele>
        <time>2019-12-16T13:23:11Z</time>
      </trkpt>
      <trkpt lat="43.59751" lon="5.0517">
        <ele>81</ele>
        <time>2019-12-16T13:23:12Z</time>
      </trkpt>
      <trkpt lat="43.5975" lon="5.05171">
        <ele>81</ele>
        <time>2019-12-16T13:23:13Z</time>
      </trkpt>
      <trkpt lat="43.59749" lon="5.05172">
        <ele>81</ele>
        <time>2019-12-16T13:23:14Z</time>
      </trkpt>
      <trkpt lat="43.59749" lon="5.05173">
        <ele>81</ele>
        <time>2019-12-16T13:23:15Z</time>
      </trkpt>
      <trkpt lat="43.59748" lon="5.05175">
        <ele>81</ele>
        <time>2019-12-16T13:23:16Z</time>
      </trkpt>
      <trkpt lat="43.59747" lon="5.05176">
        <ele>81</ele>
        <time>2019-12-16T13:23:17Z</time>
      </trkpt>
      <trkpt lat="43.59746" lon="5.05177">
        <ele>81</ele>
        <time>2019-12-16T13:23:18Z</time>
      </trkpt>
      <trkpt lat="43.59746" lon="5.05178">
        <ele>81</ele>
        <time>2019-12-16T13:23:19Z</time>
      </trkpt>
      <trkpt lat="43.59745" lon="5.05179">
        <ele>81</ele>
        <time>2019-12-16T13:23:20Z</time>
      </trkpt>
      <trkpt lat="43.59744" lon="5.0518">
        <ele>81</ele>
        <time>2019-12-16T13:23:21Z</time>
      </trkpt>
      <trkpt lat="43.59743" lon="5.05181">
        <ele>81</ele>
        <time>2019-12-16T13:23:22Z</time>
      </trkpt>
      <trkpt lat="43.59743" lon="5.05182">
        <ele>81</ele>
        <time>2019-12-16T13:23:23Z</time>
      </trkpt>
      <trkpt lat="43.59742" lon="5.05183">
        <ele>81</ele>
        <time>2019-12-16T13:23:24Z</time>
      </trkpt>
      <trkpt lat="43.59741" lon="5.05184">
        <ele>81</ele>
        <time>2019-12-16T13:23:25Z</time>
      </trkpt>
      <trkpt lat="43.59741" lon="5.05185">
        <ele>81</ele>
        <time>2019-12-16T13:23:26Z</time>
      </trkpt>
      <trkpt lat="43.5974" lon="5.05186">
        <ele>81</ele>
        <time>2019-12-16T13:23:27Z</time>
      </trkpt>
      <trkpt lat="43.5974" lon="5.05187">
        <ele>81</ele>
        <time>2019-12-16T13:23:28Z</time>
      </trkpt>
      <trkpt lat="43.59739" lon="5.05188">
        <ele>81</ele>
        <time>2019-12-16T13:23:29Z</time>
      </trkpt>
      <trkpt lat="43.59739" lon="5.05189">
        <ele>81</ele>
        <time>2019-12-16T13:23:30Z</time>
      </trkpt>
      <trkpt lat="43.59738" lon="5.0519">
        <ele>80</ele>
        <time>2019-12-16T13:23:31Z</time>
      </trkpt>
      <trkpt lat="43.59738" lon="5.05191">
        <ele>80</ele>
        <time>2019-12-16T13:23:32Z</time>
      </trkpt>
      <trkpt lat="43.59737" lon="5.05192">
        <ele>80</ele>
        <time>2019-12-16T13:23:33Z</time>
      </trkpt>
      <trkpt lat="43.59737" lon="5.05193">
        <ele>80</ele>
        <time>2019-12-16T13:23:34Z</time>
      </trkpt>
      <trkpt lat="43.59737" lon="5.05194">
        <ele>80</ele>
        <time>2019-12-16T13:23:35Z</time>
      </trkpt>
      <trkpt lat="43.59736" lon="5.05195">
        <ele>80</ele>
        <time>2019-12-16T13:23:36Z</time>
      </trkpt>
      <trkpt lat="43.59736" lon="5.05196">
        <ele>80</ele>
        <time>2019-12-16T13:23:37Z</time>
      </trkpt>
      <trkpt lat="43.59736" lon="5.05197">
        <ele>80</ele>
        <time>2019-12-16T13:23:38Z</time>
      </trkpt>
      <trkpt lat="43.59736" lon="5.05199">
        <ele>80</ele>
        <time>2019-12-16T13:23:39Z</time>
      </trkpt>
      <trkpt lat="43.59736" lon="5.052">
        <ele>80</ele>
        <time>2019-12-16T13:23:40Z</time>
      </trkpt>
      <trkpt lat="43.59735" lon="5.05202">
        <ele>80</ele>
        <time>2019-12-16T13:23:41Z</time>
      </trkpt>
      <trkpt lat="43.59735" lon="5.05204">
        <ele>80</ele>
        <time>2019-12-16T13:23:42Z</time>
      </trkpt>
      <trkpt lat="43.59735" lon="5.05206">
        <ele>80</ele>
        <time>2019-12-16T13:23:43Z</time>
      </trkpt>
      <trkpt lat="43.59735" lon="5.05207">
        <ele>80</ele>
        <time>2019-12-16T13:23:44Z</time>
      </trkpt>
      <trkpt lat="43.59735" lon="5.05209">
        <ele>80</ele>
        <time>2019-12-16T13:23:45Z</time>
      </trkpt>
      <trkpt lat="43.59734" lon="5.0521">
        <ele>80</ele>
        <time>2019-12-16T13:23:46Z</time>
      </trkpt>
      <trkpt lat="43.59734" lon="5.05212">
        <ele>80</ele>
        <time>2019-12-16T13:23:47Z</time>
      </trkpt>
      <trkpt lat="43.59734" lon="5.05213">
        <ele>80</ele>
        <time>2019-12-16T13:23:48Z</time>
      </trkpt>
      <trkpt lat="43.59733" lon="5.05214">
        <ele>80</ele>
        <time>2019-12-16T13:23:49Z</time>
      </trkpt>
      <trkpt lat="43.59732" lon="5.05215">
        <ele>80</ele>
        <time>2019-12-16T13:23:50Z</time>
      </trkpt>
      <trkpt lat="43.59732" lon="5.05216">
        <ele>80</ele>
        <time>2019-12-16T13:23:51Z</time>
      </trkpt>
      <trkpt lat="43.59731" lon="5.05216">
        <ele>80</ele>
        <time>2019-12-16T13:23:52Z</time>
      </trkpt>
      <trkpt lat="43.5973" lon="5.05217">
        <ele>80</ele>
        <time>2019-12-16T13:23:53Z</time>
      </trkpt>
      <trkpt lat="43.5973" lon="5.05218">
        <ele>80</ele>
        <time>2019-12-16T13:23:54Z</time>
      </trkpt>
      <trkpt lat="43.59729" lon="5.05219">
        <ele>80</ele>
        <time>2019-12-16T13:23:55Z</time>
      </trkpt>
      <trkpt lat="43.59728" lon="5.0522">
        <ele>80</ele>
        <time>2019-12-16T13:23:56Z</time>
      </trkpt>
      <trkpt lat="43.59727" lon="5.0522">
        <ele>80</ele>
        <time>2019-12-16T13:23:57Z</time>
      </trkpt>
      <trkpt lat="43.59727" lon="5.05221">
        <ele>80</ele>
        <time>2019-12-16T13:23:58Z</time>
      </trkpt>
      <trkpt lat="43.59726" lon="5.05222">
        <ele>80</ele>
        <time>2019-12-16T13:23:59Z</time>
      </trkpt>
      <trkpt lat="43.59725" lon="5.05223">
        <ele>80</ele>
        <time>2019-12-16T13:24:00Z</time>
      </trkpt>
      <trkpt lat="43.59724" lon="5.05224">
        <ele>80</ele>
        <time>2019-12-16T13:24:01Z</time>
      </trkpt>
      <trkpt lat="43.59723" lon="5.05225">
        <ele>80</ele>
        <time>2019-12-16T13:24:02Z</time>
      </trkpt>
      <trkpt lat="43.59722" lon="5.05225">
        <ele>80</ele>
        <time>2019-12-16T13:24:03Z</time>
      </trkpt>
      <trkpt lat="43.59721" lon="5.05226">
        <ele>80</ele>
        <time>2019-12-16T13:24:04Z</time>
      </trkpt>
      <trkpt lat="43.5972" lon="5.05226">
        <ele>80</ele>
        <time>2019-12-16T13:24:05Z</time>
      </trkpt>
      <trkpt lat="43.59719" lon="5.05226">
        <ele>80</ele>
        <time>2019-12-16T13:24:06Z</time>
      </trkpt>
      <trkpt lat="43.59718" lon="5.05226">
        <ele>80</ele>
        <time>2019-12-16T13:24:07Z</time>
      </trkpt>
      <trkpt lat="43.59717" lon="5.05227">
        <ele>80</ele>
        <time>2019-12-16T13:24:08Z</time>
      </trkpt>
      <trkpt lat="43.59715" lon="5.05227">
        <ele>80</ele>
        <time>2019-12-16T13:24:09Z</time>
      </trkpt>
      <trkpt lat="43.59714" lon="5.05227">
        <ele>80</ele>
        <time>2019-12-16T13:24:10Z</time>
      </trkpt>
      <trkpt lat="43.59713" lon="5.05227">
        <ele>80</ele>
        <time>2019-12-16T13:24:11Z</time>
      </trkpt>
      <trkpt lat="43.59712" lon="5.05226">
        <ele>80</ele>
        <time>2019-12-16T13:24:12Z</time>
      </trkpt>
      <trkpt lat="43.59711" lon="5.05226">
        <ele>80</ele>
        <time>2019-12-16T13:24:13Z</time>
      </trkpt>
      <trkpt lat="43.59709" lon="5.05226">
        <ele>80</ele>
        <time>2019-12-16T13:24:14Z</time>
      </trkpt>
      <trkpt lat="43.59708" lon="5.05226">
        <ele>80</ele>
        <time>2019-12-16T13:24:15Z</time>
      </trkpt>
      <trkpt lat="43.59707" lon="5.05226">
        <ele>80</ele>
        <time>2019-12-16T13:24:16Z</time>
      </trkpt>
      <trkpt lat="43.59705" lon="5.05226">
        <ele>80</ele>
        <time>2019-12-16T13:24:17Z</time>
      </trkpt>
      <trkpt lat="43.59704" lon="5.05225">
        <ele>80</ele>
        <time>2019-12-16T13:24:18Z</time>
      </trkpt>
      <trkpt lat="43.59703" lon="5.05225">
        <ele>80</ele>
        <time>2019-12-16T13:24:19Z</time>
      </trkpt>
      <trkpt lat="43.59702" lon="5.05225">
        <ele>80</ele>
        <time>2019-12-16T13:24:20Z</time>
      </trkpt>
      <trkpt lat="43.59701" lon="5.05224">
        <ele>80</ele>
        <time>2019-12-16T13:24:21Z</time>
      </trkpt>
      <trkpt lat="43.59699" lon="5.05224">
        <ele>80</ele>
        <time>2019-12-16T13:24:22Z</time>
      </trkpt>
      <trkpt lat="43.59698" lon="5.05223">
        <ele>80</ele>
        <time>2019-12-16T13:24:23Z</time>
      </trkpt>
      <trkpt lat="43.59697" lon="5.05223">
        <ele>80</ele>
        <time>2019-12-16T13:24:24Z</time>
      </trkpt>
      <trkpt lat="43.59696" lon="5.05223">
        <ele>80</ele>
        <time>2019-12-16T13:24:25Z</time>
      </trkpt>
      <trkpt lat="43.59695" lon="5.05222">
        <ele>80</ele>
        <time>2019-12-16T13:24:26Z</time>
      </trkpt>
      <trkpt lat="43.59694" lon="5.05222">
        <ele>80</ele>
        <time>2019-12-16T13:24:27Z</time>
      </trkpt>
      <trkpt lat="43.59692" lon="5.05221">
        <ele>80</ele>
        <time>2019-12-16T13:24:28Z</time>
      </trkpt>
      <trkpt lat="43.59691" lon="5.05221">
        <ele>80</ele>
        <time>2019-12-16T13:24:29Z</time>
      </trkpt>
      <trkpt lat="43.5969" lon="5.0522">
        <ele>80</ele>
        <time>2019-12-16T13:24:30Z</time>
      </trkpt>
      <trkpt lat="43.59689" lon="5.0522">
        <ele>80</ele>
        <time>2019-12-16T13:24:31Z</time>
      </trkpt>
      <trkpt lat="43.59688" lon="5.0522">
        <ele>80</ele>
        <time>2019-12-16T13:24:32Z</time>
      </trkpt>
      <trkpt lat="43.59687" lon="5.05219">
        <ele>80</ele>
        <time>2019-12-16T13:24:33Z</time>
      </trkpt>
      <trkpt lat="43.59686" lon="5.05219">
        <ele>80</ele>
        <time>2019-12-16T13:24:34Z</time>
      </trkpt>
      <trkpt lat="43.59685" lon="5.05218">
        <ele>80</ele>
        <time>2019-12-16T13:24:35Z</time>
      </trkpt>
      <trkpt lat="43.59684" lon="5.05218">
        <ele>80</ele>
        <time>2019-12-16T13:24:36Z</time>
      </trkpt>
      <trkpt lat="43.59683" lon="5.05217">
        <ele>80</ele>
        <time>2019-12-16T13:24:37Z</time>
      </trkpt>
      <trkpt lat="43.59682" lon="5.05217">
        <ele>80</ele>
        <time>2019-12-16T13:24:38Z</time>
      </trkpt>
      <trkpt lat="43.59681" lon="5.05217">
        <ele>80</ele>
        <time>2019-12-16T13:24:39Z</time>
      </trkpt>
      <trkpt lat="43.59679" lon="5.05216">
        <ele>80</ele>
        <time>2019-12-16T13:24:40Z</time>
      </trkpt>
      <trkpt lat="43.59678" lon="5.05216">
        <ele>80</ele>
        <time>2019-12-16T13:24:41Z</time>
      </trkpt>
      <trkpt lat="43.59677" lon="5.05216">
        <ele>80</ele>
        <time>2019-12-16T13:24:42Z</time>
      </trkpt>
      <trkpt lat="43.59676" lon="5.05215">
        <ele>80</ele>
        <time>2019-12-16T13:24:43Z</time>
      </trkpt>
      <trkpt lat="43.59675" lon="5.05215">
        <ele>80</ele>
        <time>2019-12-16T13:24:44Z</time>
      </trkpt>
      <trkpt lat="43.59674" lon="5.05215">
        <ele>80</ele>
        <time>2019-12-16T13:24:45Z</time>
      </trkpt>
      <trkpt lat="43.59672" lon="5.05214">
        <ele>80</ele>
        <time>2019-12-16T13:24:46Z</time>
      </trkpt>
      <trkpt lat="43.59671" lon="5.05214">
        <ele>80</ele>
        <time>2019-12-16T13:24:47Z</time>
      </trkpt>
      <trkpt lat="43.5967" lon="5.05214">
        <ele>80</ele>
        <time>2019-12-16T13:24:48Z</time>
      </trkpt>
      <trkpt lat="43.59669" lon="5.05213">
        <ele>80</ele>
        <time>2019-12-16T13:24:49Z</time>
      </trkpt>
      <trkpt lat="43.59668" lon="5.05213">
        <ele>80</ele>
        <time>2019-12-16T13:24:50Z</time>
      </trkpt>
      <trkpt lat="43.59667" lon="5.05212">
        <ele>80</ele>
        <time>2019-12-16T13:24:51Z</time>
      </trkpt>
      <trkpt lat="43.59666" lon="5.05212">
        <ele>79</ele>
        <time>2019-12-16T13:24:52Z</time>
      </trkpt>
      <trkpt lat="43.59665" lon="5.05211">
        <ele>79</ele>
        <time>2019-12-16T13:24:53Z</time>
      </trkpt>
      <trkpt lat="43.59664" lon="5.0521">
        <ele>79</ele>
        <time>2019-12-16T13:24:54Z</time>
      </trkpt>
      <trkpt lat="43.59663" lon="5.0521">
        <ele>79</ele>
        <time>2019-12-16T13:24:55Z</time>
      </trkpt>
      <trkpt lat="43.59662" lon="5.05209">
        <ele>79</ele>
        <time>2019-12-16T13:24:56Z</time>
      </trkpt>
      <trkpt lat="43.59661" lon="5.05208">
        <ele>79</ele>
        <time>2019-12-16T13:24:57Z</time>
      </trkpt>
      <trkpt lat="43.5966" lon="5.05208">
        <ele>79</ele>
        <time>2019-12-16T13:24:58Z</time>
      </trkpt>
      <trkpt lat="43.59659" lon="5.05207">
        <ele>79</ele>
        <time>2019-12-16T13:24:59Z</time>
      </trkpt>
      <trkpt lat="43.59658" lon="5.05206">
        <ele>79</ele>
        <time>2019-12-16T13:25:00Z</time>
      </trkpt>
      <trkpt lat="43.59656" lon="5.05206">
        <ele>79</ele>
        <time>2019-12-16T13:25:01Z</time>
      </trkpt>
      <trkpt lat="43.59655" lon="5.05205">
        <ele>79</ele>
        <time>2019-12-16T13:25:02Z</time>
      </trkpt>
      <trkpt lat="43.59654" lon="5.05205">
        <ele>79</ele>
        <time>2019-12-16T13:25:03Z</time>
      </trkpt>
      <trkpt lat="43.59653" lon="5.05205">
        <ele>79</ele>
        <time>2019-12-16T13:25:04Z</time>
      </trkpt>
      <trkpt lat="43.59652" lon="5.05205">
        <ele>79</ele>
        <time>2019-12-16T13:25:05Z</time>
      </trkpt>
      <trkpt lat="43.59651" lon="5.05205">
        <ele>79</ele>
        <time>2019-12-16T13:25:06Z</time>
      </trkpt>
      <trkpt lat="43.5965" lon="5.05205">
        <ele>79</ele>
        <time>2019-12-16T13:25:07Z</time>
      </trkpt>
      <trkpt lat="43.59649" lon="5.05205">
        <ele>79</ele>
        <time>2019-12-16T13:25:08Z</time>
      </trkpt>
      <trkpt lat="43.59647" lon="5.05205">
        <ele>79</ele>
        <time>2019-12-16T13:25:09Z</time>
      </trkpt>
      <trkpt lat="43.59646" lon="5.05205">
        <ele>79</ele>
        <time>2019-12-16T13:25:10Z</time>
      </trkpt>
      <trkpt lat="43.59645" lon="5.05206">
        <ele>79</ele>
        <time>2019-12-16T13:25:11Z</time>
      </trkpt>
      <trkpt lat="43.59644" lon="5.05206">
        <ele>79</ele>
        <time>2019-12-16T13:25:12Z</time>
      </trkpt>
      <trkpt lat="43.59643" lon="5.05206">
        <ele>79</ele>
        <time>2019-12-16T13:25:13Z</time>
      </trkpt>
      <trkpt lat="43.59642" lon="5.05207">
        <ele>79</ele>
        <time>2019-12-16T13:25:14Z</time>
      </trkpt>
      <trkpt lat="43.59641" lon="5.05208">
        <ele>79</ele>
        <time>2019-12-16T13:25:15Z</time>
      </trkpt>
      <trkpt lat="43.5964" lon="5.05208">
        <ele>79</ele>
        <time>2019-12-16T13:25:16Z</time>
      </trkpt>
      <trkpt lat="43.59639" lon="5.05209">
        <ele>79</ele>
        <time>2019-12-16T13:25:17Z</time>
      </trkpt>
      <trkpt lat="43.59638" lon="5.0521">
        <ele>79</ele>
        <time>2019-12-16T13:25:18Z</time>
      </trkpt>
      <trkpt lat="43.59637" lon="5.05211">
        <ele>79</ele>
        <time>2019-12-16T13:25:19Z</time>
      </trkpt>
      <trkpt lat="43.59636" lon="5.05212">
        <ele>79</ele>
        <time>2019-12-16T13:25:20Z</time>
      </trkpt>
      <trkpt lat="43.59635" lon="5.05212">
        <ele>79</ele>
        <time>2019-12-16T13:25:21Z</time>
      </trkpt>
      <trkpt lat="43.59634" lon="5.05213">
        <ele>79</ele>
        <time>2019-12-16T13:25:22Z</time>
      </trkpt>
      <trkpt lat="43.59633" lon="5.05215">
        <ele>79</ele>
        <time>2019-12-16T13:25:23Z</time>
      </trkpt>
      <trkpt lat="43.59633" lon="5.05216">
        <ele>79</ele>
        <time>2019-12-16T13:25:24Z</time>
      </trkpt>
      <trkpt lat="43.59632" lon="5.05217">
        <ele>79</ele>
        <time>2019-12-16T13:25:25Z</time>
      </trkpt>
      <trkpt lat="43.59631" lon="5.05218">
        <ele>79</ele>
        <time>2019-12-16T13:25:26Z</time>
      </trkpt>
      <trkpt lat="43.5963" lon="5.05219">
        <ele>79</ele>
        <time>2019-12-16T13:25:27Z</time>
      </trkpt>
      <trkpt lat="43.59629" lon="5.0522">
        <ele>79</ele>
        <time>2019-12-16T13:25:28Z</time>
      </trkpt>
      <trkpt lat="43.59629" lon="5.05221">
        <ele>79</ele>
        <time>2019-12-16T13:25:29Z</time>
      </trkpt>
      <trkpt lat="43.59628" lon="5.05222">
        <ele>79</ele>
        <time>2019-12-16T13:25:30Z</time>
      </trkpt>
      <trkpt lat="43.59627" lon="5.05223">
        <ele>79</ele>
        <time>2019-12-16T13:25:31Z</time>
      </trkpt>
      <trkpt lat="43.59626" lon="5.05224">
        <ele>79</ele>
        <time>2019-12-16T13:25:32Z</time>
      </trkpt>
      <trkpt lat="43.59625" lon="5.05225">
        <ele>79</ele>
        <time>2019-12-16T13:25:33Z</time>
      </trkpt>
      <trkpt lat="43.59625" lon="5.05226">
        <ele>79</ele>
        <time>2019-12-16T13:25:34Z</time>
      </trkpt>
      <trkpt lat="43.59624" lon="5.05227">
        <ele>79</ele>
        <time>2019-12-16T13:25:35Z</time>
      </trkpt>
      <trkpt lat="43.59623" lon="5.05228">
        <ele>79</ele>
        <time>2019-12-16T13:25:36Z</time>
      </trkpt>
      <trkpt lat="43.59622" lon="5.05229">
        <ele>79</ele>
        <time>2019-12-16T13:25:37Z</time>
      </trkpt>
      <trkpt lat="43.59621" lon="5.0523">
        <ele>79</ele>
        <time>2019-12-16T13:25:38Z</time>
      </trkpt>
      <trkpt lat="43.59621" lon="5.05231">
        <ele>79</ele>
        <time>2019-12-16T13:25:39Z</time>
      </trkpt>
      <trkpt lat="43.5962" lon="5.05232">
        <ele>79</ele>
        <time>2019-12-16T13:25:40Z</time>
      </trkpt>
      <trkpt lat="43.59619" lon="5.05233">
        <ele>79</ele>
        <time>2019-12-16T13:25:41Z</time>
      </trkpt>
      <trkpt lat="43.59618" lon="5.05234">
        <ele>79</ele>
        <time>2019-12-16T13:25:42Z</time>
      </trkpt>
      <trkpt lat="43.59617" lon="5.05235">
        <ele>79</ele>
        <time>2019-12-16T13:25:43Z</time>
      </trkpt>
      <trkpt lat="43.59616" lon="5.05236">
        <ele>79</ele>
        <time>2019-12-16T13:25:44Z</time>
      </trkpt>
      <trkpt lat="43.59616" lon="5.05237">
        <ele>79</ele>
        <time>2019-12-16T13:25:45Z</time>
      </trkpt>
      <trkpt lat="43.59615" lon="5.05238">
        <ele>79</ele>
        <time>2019-12-16T13:25:46Z</time>
      </trkpt>
      <trkpt lat="43.59614" lon="5.05238">
        <ele>79</ele>
        <time>2019-12-16T13:25:47Z</time>
      </trkpt>
      <trkpt lat="43.59613" lon="5.05239">
        <ele>79</ele>
        <time>2019-12-16T13:25:48Z</time>
      </trkpt>
      <trkpt lat="43.59612" lon="5.0524">
        <ele>79</ele>
        <time>2019-12-16T13:25:49Z</time>
      </trkpt>
      <trkpt lat="43.59611" lon="5.05241">
        <ele>79</ele>
        <time>2019-12-16T13:25:50Z</time>
      </trkpt>
      <trkpt lat="43.59611" lon="5.05242">
        <ele>79</ele>
        <time>2019-12-16T13:25:51Z</time>
      </trkpt>
      <trkpt lat="43.5961" lon="5.05243">
        <ele>79</ele>
        <time>2019-12-16T13:25:52Z</time>
      </trkpt>
      <trkpt lat="43.59609" lon="5.05244">
        <ele>79</ele>
        <time>2019-12-16T13:25:53Z</time>
      </trkpt>
      <trkpt lat="43.59608" lon="5.05245">
        <ele>79</ele>
        <time>2019-12-16T13:25:54Z</time>
      </trkpt>
      <trkpt lat="43.59607" lon="5.05246">
        <ele>79</ele>
        <time>2019-12-16T13:25:55Z</time>
      </trkpt>
      <trkpt lat="43.59606" lon="5.05246">
        <ele>79</ele>
        <time>2019-12-16T13:25:56Z</time>
      </trkpt>
      <trkpt lat="43.59605" lon="5.05248">
        <ele>79</ele>
        <time>2019-12-16T13:25:57Z</time>
      </trkpt>
      <trkpt lat="43.59604" lon="5.05248">
        <ele>79</ele>
        <time>2019-12-16T13:25:58Z</time>
      </trkpt>
      <trkpt lat="43.59604" lon="5.05249">
        <ele>79</ele>
        <time>2019-12-16T13:25:59Z</time>
      </trkpt>
      <trkpt lat="43.59603" lon="5.0525">
        <ele>79</ele>
        <time>2019-12-16T13:26:00Z</time>
      </trkpt>
      <trkpt lat="43.59602" lon="5.05251">
        <ele>79</ele>
        <time>2019-12-16T13:26:01Z</time>
      </trkpt>
      <trkpt lat="43.59601" lon="5.05252">
        <ele>79</ele>
        <time>2019-12-16T13:26:02Z</time>
      </trkpt>
      <trkpt lat="43.596" lon="5.05253">
        <ele>79</ele>
        <time>2019-12-16T13:26:03Z</time>
      </trkpt>
      <trkpt lat="43.59599" lon="5.05254">
        <ele>79</ele>
        <time>2019-12-16T13:26:04Z</time>
      </trkpt>
      <trkpt lat="43.59599" lon="5.05255">
        <ele>79</ele>
        <time>2019-12-16T13:26:05Z</time>
      </trkpt>
      <trkpt lat="43.59598" lon="5.05256">
        <ele>79</ele>
        <time>2019-12-16T13:26:06Z</time>
      </trkpt>
      <trkpt lat="43.59597" lon="5.05257">
        <ele>79</ele>
        <time>2019-12-16T13:26:07Z</time>
      </trkpt>
      <trkpt lat="43.59596" lon="5.05258">
        <ele>79</ele>
        <time>2019-12-16T13:26:08Z</time>
      </trkpt>
      <trkpt lat="43.59595" lon="5.05259">
        <ele>79</ele>
        <time>2019-12-16T13:26:09Z</time>
      </trkpt>
      <trkpt lat="43.59594" lon="5.0526">
        <ele>79</ele>
        <time>2019-12-16T13:26:10Z</time>
      </trkpt>
      <trkpt lat="43.59593" lon="5.05261">
        <ele>79</ele>
        <time>2019-12-16T13:26:11Z</time>
      </trkpt>
      <trkpt lat="43.59593" lon="5.05262">
        <ele>79</ele>
        <time>2019-12-16T13:26:12Z</time>
      </trkpt>
      <trkpt lat="43.59592" lon="5.05263">
        <ele>79</ele>
        <time>2019-12-16T13:26:13Z</time>
      </trkpt>
      <trkpt lat="43.59591" lon="5.05264">
        <ele>79</ele>
        <time>2019-12-16T13:26:14Z</time>
      </trkpt>
      <trkpt lat="43.5959" lon="5.05265">
        <ele>79</ele>
        <time>2019-12-16T13:26:15Z</time>
      </trkpt>
      <trkpt lat="43.5959" lon="5.05266">
        <ele>79</ele>
        <time>2019-12-16T13:26:16Z</time>
      </trkpt>
      <trkpt lat="43.59589" lon="5.05268">
        <ele>79</ele>
        <time>2019-12-16T13:26:17Z</time>
      </trkpt>
      <trkpt lat="43.59588" lon="5.05269">
        <ele>79</ele>
        <time>2019-12-16T13:26:18Z</time>
      </trkpt>
      <trkpt lat="43.59588" lon="5.0527">
        <ele>79</ele>
        <time>2019-12-16T13:26:19Z</time>
      </trkpt>
      <trkpt lat="43.59587" lon="5.05271">
        <ele>79</ele>
        <time>2019-12-16T13:26:20Z</time>
      </trkpt>
      <trkpt lat="43.59586" lon="5.05272">
        <ele>79</ele>
        <time>2019-12-16T13:26:21Z</time>
      </trkpt>
      <trkpt lat="43.59585" lon="5.05273">
        <ele>79</ele>
        <time>2019-12-16T13:26:22Z</time>
      </trkpt>
      <trkpt lat="43.59585" lon="5.05274">
        <ele>79</ele>
        <time>2019-12-16T13:26:23Z</time>
      </trkpt>
      <trkpt lat="43.59584" lon="5.05275">
        <ele>79</ele>
        <time>2019-12-16T13:26:24Z</time>
      </trkpt>
      <trkpt lat="43.59583" lon="5.05276">
        <ele>79</ele>
        <time>2019-12-16T13:26:25Z</time>
      </trkpt>
      <trkpt lat="43.59582" lon="5.05278">
        <ele>79</ele>
        <time>2019-12-16T13:26:26Z</time>
      </trkpt>
      <trkpt lat="43.59582" lon="5.05279">
        <ele>79</ele>
        <time>2019-12-16T13:26:27Z</time>
      </trkpt>
      <trkpt lat="43.59581" lon="5.0528">
        <ele>79</ele>
        <time>2019-12-16T13:26:28Z</time>
      </trkpt>
      <trkpt lat="43.5958" lon="5.05281">
        <ele>79</ele>
        <time>2019-12-16T13:26:29Z</time>
      </trkpt>
      <trkpt lat="43.59579" lon="5.05282">
        <ele>79</ele>
        <time>2019-12-16T13:26:30Z</time>
      </trkpt>
      <trkpt lat="43.59578" lon="5.05283">
        <ele>79</ele>
        <time>2019-12-16T13:26:31Z</time>
      </trkpt>
      <trkpt lat="43.59577" lon="5.05284">
        <ele>79</ele>
        <time>2019-12-16T13:26:32Z</time>
      </trkpt>
      <trkpt lat="43.59577" lon="5.05285">
        <ele>79</ele>
        <time>2019-12-16T13:26:33Z</time>
      </trkpt>
      <trkpt lat="43.59576" lon="5.05286">
        <ele>79</ele>
        <time>2019-12-16T13:26:34Z</time>
      </trkpt>
      <trkpt lat="43.59575" lon="5.05287">
        <ele>79</ele>
        <time>2019-12-16T13:26:35Z</time>
      </trkpt>
      <trkpt lat="43.59574" lon="5.05288">
        <ele>79</ele>
        <time>2019-12-16T13:26:36Z</time>
      </trkpt>
      <trkpt lat="43.59574" lon="5.0529">
        <ele>79</ele>
        <time>2019-12-16T13:26:37Z</time>
      </trkpt>
      <trkpt lat="43.59573" lon="5.05291">
        <ele>79</ele>
        <time>2019-12-16T13:26:38Z</time>
      </trkpt>
      <trkpt lat="43.59572" lon="5.05292">
        <ele>79</ele>
        <time>2019-12-16T13:26:39Z</time>
      </trkpt>
      <trkpt lat="43.59571" lon="5.05293">
        <ele>79</ele>
        <time>2019-12-16T13:26:40Z</time>
      </trkpt>
      <trkpt lat="43.59571" lon="5.05294">
        <ele>79</ele>
        <time>2019-12-16T13:26:41Z</time>
      </trkpt>
      <trkpt lat="43.5957" lon="5.05295">
        <ele>79</ele>
        <time>2019-12-16T13:26:42Z</time>
      </trkpt>
      <trkpt lat="43.59569" lon="5.05296">
        <ele>79</ele>
        <time>2019-12-16T13:26:43Z</time>
      </trkpt>
      <trkpt lat="43.59569" lon="5.05297">
        <ele>79</ele>
        <time>2019-12-16T13:26:44Z</time>
      </trkpt>
      <trkpt lat="43.59568" lon="5.05298">
        <ele>79</ele>
        <time>2019-12-16T13:26:45Z</time>
      </trkpt>
      <trkpt lat="43.59567" lon="5.05299">
        <ele>79</ele>
        <time>2019-12-16T13:26:46Z</time>
      </trkpt>
      <trkpt lat="43.59566" lon="5.053">
        <ele>79</ele>
        <time>2019-12-16T13:26:47Z</time>
      </trkpt>
      <trkpt lat="43.59566" lon="5.05301">
        <ele>79</ele>
        <time>2019-12-16T13:26:48Z</time>
      </trkpt>
      <trkpt lat="43.59565" lon="5.05301">
        <ele>79</ele>
        <time>2019-12-16T13:26:49Z</time>
      </trkpt>
      <trkpt lat="43.59564" lon="5.05302">
        <ele>79</ele>
        <time>2019-12-16T13:26:50Z</time>
      </trkpt>
      <trkpt lat="43.59564" lon="5.05303">
        <ele>79</ele>
        <time>2019-12-16T13:26:51Z</time>
      </trkpt>
      <trkpt lat="43.59563" lon="5.05304">
        <ele>79</ele>
        <time>2019-12-16T13:26:52Z</time>
      </trkpt>
      <trkpt lat="43.59562" lon="5.05305">
        <ele>79</ele>
        <time>2019-12-16T13:26:53Z</time>
      </trkpt>
      <trkpt lat="43.59561" lon="5.05306">
        <ele>79</ele>
        <time>2019-12-16T13:26:54Z</time>
      </trkpt>
      <trkpt lat="43.5956" lon="5.05307">
        <ele>79</ele>
        <time>2019-12-16T13:26:55Z</time>
      </trkpt>
      <trkpt lat="43.5956" lon="5.05308">
        <ele>79</ele>
        <time>2019-12-16T13:26:56Z</time>
      </trkpt>
      <trkpt lat="43.59559" lon="5.05309">
        <ele>79</ele>
        <time>2019-12-16T13:26:57Z</time>
      </trkpt>
      <trkpt lat="43.59558" lon="5.0531">
        <ele>79</ele>
        <time>2019-12-16T13:26:58Z</time>
      </trkpt>
      <trkpt lat="43.59557" lon="5.0531">
        <ele>79</ele>
        <time>2019-12-16T13:26:59Z</time>
      </trkpt>
      <trkpt lat="43.59556" lon="5.05311">
        <ele>79</ele>
        <time>2019-12-16T13:27:00Z</time>
      </trkpt>
      <trkpt lat="43.59555" lon="5.05312">
        <ele>79</ele>
        <time>2019-12-16T13:27:01Z</time>
      </trkpt>
      <trkpt lat="43.59554" lon="5.05313">
        <ele>79</ele>
        <time>2019-12-16T13:27:02Z</time>
      </trkpt>
      <trkpt lat="43.59553" lon="5.05313">
        <ele>79</ele>
        <time>2019-12-16T13:27:03Z</time>
      </trkpt>
      <trkpt lat="43.59552" lon="5.05314">
        <ele>79</ele>
        <time>2019-12-16T13:27:04Z</time>
      </trkpt>
      <trkpt lat="43.59551" lon="5.05315">
        <ele>79</ele>
        <time>2019-12-16T13:27:05Z</time>
      </trkpt>
      <trkpt lat="43.5955" lon="5.05315">
        <ele>79</ele>
        <time>2019-12-16T13:27:06Z</time>
      </trkpt>
      <trkpt lat="43.59549" lon="5.05316">
        <ele>79</ele>
        <time>2019-12-16T13:27:07Z</time>
      </trkpt>
      <trkpt lat="43.59548" lon="5.05316">
        <ele>79</ele>
        <time>2019-12-16T13:27:08Z</time>
      </trkpt>
      <trkpt lat="43.59547" lon="5.05317">
        <ele>79</ele>
        <time>2019-12-16T13:27:09Z</time>
      </trkpt>
      <trkpt lat="43.59546" lon="5.05317">
        <ele>79</ele>
        <time>2019-12-16T13:27:10Z</time>
      </trkpt>
      <trkpt lat="43.59545" lon="5.05318">
        <ele>79</ele>
        <time>2019-12-16T13:27:11Z</time>
      </trkpt>
      <trkpt lat="43.59544" lon="5.05318">
        <ele>79</ele>
        <time>2019-12-16T13:27:12Z</time>
      </trkpt>
      <trkpt lat="43.59543" lon="5.05318">
        <ele>79</ele>
        <time>2019-12-16T13:27:13Z</time>
      </trkpt>
      <trkpt lat="43.59542" lon="5.05318">
        <ele>79</ele>
        <time>2019-12-16T13:27:14Z</time>
      </trkpt>
      <trkpt lat="43.59541" lon="5.05319">
        <ele>79</ele>
        <time>2019-12-16T13:27:15Z</time>
      </trkpt>
      <trkpt lat="43.5954" lon="5.05319">
        <ele>79</ele>
        <time>2019-12-16T13:27:16Z</time>
      </trkpt>
      <trkpt lat="43.59539" lon="5.05319">
        <ele>79</ele>
        <time>2019-12-16T13:27:17Z</time>
      </trkpt>
      <trkpt lat="43.59538" lon="5.05319">
        <ele>79</ele>
        <time>2019-12-16T13:27:18Z</time>
      </trkpt>
      <trkpt lat="43.59537" lon="5.05319">
        <ele>79</ele>
        <time>2019-12-16T13:27:19Z</time>
      </trkpt>
      <trkpt lat="43.59535" lon="5.05318">
        <ele>79</ele>
        <time>2019-12-16T13:27:20Z</time>
      </trkpt>
      <trkpt lat="43.59534" lon="5.05318">
        <ele>79</ele>
        <time>2019-12-16T13:27:21Z</time>
      </trkpt>
      <trkpt lat="43.59533" lon="5.05318">
        <ele>79</ele>
        <time>2019-12-16T13:27:22Z</time>
      </trkpt>
      <trkpt lat="43.59532" lon="5.05318">
        <ele>79</ele>
        <time>2019-12-16T13:27:23Z</time>
      </trkpt>
      <trkpt lat="43.59531" lon="5.05318">
        <ele>79</ele>
        <time>2019-12-16T13:27:24Z</time>
      </trkpt>
      <trkpt lat="43.5953" lon="5.05318">
        <ele>79</ele>
        <time>2019-12-16T13:27:25Z</time>
      </trkpt>
      <trkpt lat="43.59529" lon="5.05318">
        <ele>79</ele>
        <time>2019-12-16T13:27:26Z</time>
      </trkpt>
      <trkpt lat="43.59528" lon="5.05319">
        <ele>79</ele>
        <time>2019-12-16T13:27:27Z</time>
      </trkpt>
      <trkpt lat="43.59527" lon="5.05319">
        <ele>79</ele>
        <time>2019-12-16T13:27:28Z</time>
      </trkpt>
      <trkpt lat="43.59525" lon="5.05319">
        <ele>79</ele>
        <time>2019-12-16T13:27:29Z</time>
      </trkpt>
      <trkpt lat="43.59524" lon="5.05319">
        <ele>79</ele>
        <time>2019-12-16T13:27:30Z</time>
      </trkpt>
      <trkpt lat="43.59523" lon="5.0532">
        <ele>79</ele>
        <time>2019-12-16T13:27:31Z</time>
      </trkpt>
      <trkpt lat="43.59522" lon="5.0532">
        <ele>79</ele>
        <time>2019-12-16T13:27:32Z</time>
      </trkpt>
      <trkpt lat="43.59521" lon="5.0532">
        <ele>79</ele>
        <time>2019-12-16T13:27:33Z</time>
      </trkpt>
      <trkpt lat="43.5952" lon="5.0532">
        <ele>79</ele>
        <time>2019-12-16T13:27:34Z</time>
      </trkpt>
      <trkpt lat="43.59519" lon="5.0532">
        <ele>79</ele>
        <time>2019-12-16T13:27:35Z</time>
      </trkpt>
      <trkpt lat="43.59518" lon="5.0532">
        <ele>79</ele>
        <time>2019-12-16T13:27:36Z</time>
      </trkpt>
      <trkpt lat="43.59517" lon="5.0532">
        <ele>79</ele>
        <time>2019-12-16T13:27:37Z</time>
      </trkpt>
      <trkpt lat="43.59516" lon="5.05319">
        <ele>79</ele>
        <time>2019-12-16T13:27:38Z</time>
      </trkpt>
      <trkpt lat="43.59515" lon="5.05319">
        <ele>79</ele>
        <time>2019-12-16T13:27:39Z</time>
      </trkpt>
      <trkpt lat="43.59513" lon="5.05319">
        <ele>79</ele>
        <time>2019-12-16T13:27:40Z</time>
      </trkpt>
      <trkpt lat="43.59512" lon="5.05318">
        <ele>79</ele>
        <time>2019-12-16T13:27:41Z</time>
      </trkpt>
      <trkpt lat="43.59511" lon="5.05318">
        <ele>79</ele>
        <time>2019-12-16T13:27:42Z</time>
      </trkpt>
      <trkpt lat="43.5951" lon="5.05318">
        <ele>79</ele>
        <time>2019-12-16T13:27:43Z</time>
      </trkpt>
      <trkpt lat="43.59509" lon="5.05317">
        <ele>79</ele>
        <time>2019-12-16T13:27:44Z</time>
      </trkpt>
      <trkpt lat="43.59508" lon="5.05317">
        <ele>79</ele>
        <time>2019-12-16T13:27:45Z</time>
      </trkpt>
      <trkpt lat="43.59507" lon="5.05317">
        <ele>79</ele>
        <time>2019-12-16T13:27:46Z</time>
      </trkpt>
      <trkpt lat="43.59505" lon="5.05317">
        <ele>79</ele>
        <time>2019-12-16T13:27:47Z</time>
      </trkpt>
      <trkpt lat="43.59504" lon="5.05317">
        <ele>79</ele>
        <time>2019-12-16T13:27:48Z</time>
      </trkpt>
      <trkpt lat="43.59503" lon="5.05316">
        <ele>79</ele>
        <time>2019-12-16T13:27:49Z</time>
      </trkpt>
      <trkpt lat="43.59502" lon="5.05316">
        <ele>79</ele>
        <time>2019-12-16T13:27:50Z</time>
      </trkpt>
      <trkpt lat="43.59501" lon="5.05316">
        <ele>79</ele>
        <time>2019-12-16T13:27:51Z</time>
      </trkpt>
      <trkpt lat="43.595" lon="5.05316">
        <ele>78</ele>
        <time>2019-12-16T13:27:52Z</time>
      </trkpt>
      <trkpt lat="43.59499" lon="5.05316">
        <ele>78</ele>
        <time>2019-12-16T13:27:53Z</time>
      </trkpt>
      <trkpt lat="43.59498" lon="5.05316">
        <ele>78</ele>
        <time>2019-12-16T13:27:54Z</time>
      </trkpt>
      <trkpt lat="43.59496" lon="5.05316">
        <ele>78</ele>
        <time>2019-12-16T13:27:55Z</time>
      </trkpt>
      <trkpt lat="43.59495" lon="5.05316">
        <ele>78</ele>
        <time>2019-12-16T13:27:56Z</time>
      </trkpt>
      <trkpt lat="43.59494" lon="5.05316">
        <ele>78</ele>
        <time>2019-12-16T13:27:57Z</time>
      </trkpt>
      <trkpt lat="43.59493" lon="5.05316">
        <ele>78</ele>
        <time>2019-12-16T13:27:58Z</time>
      </trkpt>
      <trkpt lat="43.59492" lon="5.05316">
        <ele>78</ele>
        <time>2019-12-16T13:27:59Z</time>
      </trkpt>
      <trkpt lat="43.59491" lon="5.05316">
        <ele>78</ele>
        <time>2019-12-16T13:28:00Z</time>
      </trkpt>
      <trkpt lat="43.59489" lon="5.05316">
        <ele>78</ele>
        <time>2019-12-16T13:28:01Z</time>
      </trkpt>
      <trkpt lat="43.59488" lon="5.05316">
        <ele>78</ele>
        <time>2019-12-16T13:28:02Z</time>
      </trkpt>
      <trkpt lat="43.59487" lon="5.05317">
        <ele>78</ele>
        <time>2019-12-16T13:28:03Z</time>
      </trkpt>
      <trkpt lat="43.59486" lon="5.05317">
        <ele>78</ele>
        <time>2019-12-16T13:28:04Z</time>
      </trkpt>
      <trkpt lat="43.59485" lon="5.05317">
        <ele>78</ele>
        <time>2019-12-16T13:28:05Z</time>
      </trkpt>
      <trkpt lat="43.59484" lon="5.05317">
        <ele>78</ele>
        <time>2019-12-16T13:28:06Z</time>
      </trkpt>
      <trkpt lat="43.59482" lon="5.05317">
        <ele>78</ele>
        <time>2019-12-16T13:28:07Z</time>
      </trkpt>
      <trkpt lat="43.59481" lon="5.05317">
        <ele>78</ele>
        <time>2019-12-16T13:28:08Z</time>
      </trkpt>
      <trkpt lat="43.5948" lon="5.05317">
        <ele>78</ele>
        <time>2019-12-16T13:28:09Z</time>
      </trkpt>
      <trkpt lat="43.59479" lon="5.05317">
        <ele>78</ele>
        <time>2019-12-16T13:28:10Z</time>
      </trkpt>
      <trkpt lat="43.59478" lon="5.05318">
        <ele>78</ele>
        <time>2019-12-16T13:28:11Z</time>
      </trkpt>
      <trkpt lat="43.59476" lon="5.05318">
        <ele>78</ele>
        <time>2019-12-16T13:28:12Z</time>
      </trkpt>
      <trkpt lat="43.59475" lon="5.05318">
        <ele>78</ele>
        <time>2019-12-16T13:28:13Z</time>
      </trkpt>
      <trkpt lat="43.59474" lon="5.05318">
        <ele>78</ele>
        <time>2019-12-16T13:28:14Z</time>
      </trkpt>
      <trkpt lat="43.59473" lon="5.05318">
        <ele>78</ele>
        <time>2019-12-16T13:28:15Z</time>
      </trkpt>
      <trkpt lat="43.59472" lon="5.05318">
        <ele>78</ele>
        <time>2019-12-16T13:28:16Z</time>
      </trkpt>
      <trkpt lat="43.5947" lon="5.05319">
        <ele>78</ele>
        <time>2019-12-16T13:28:17Z</time>
      </trkpt>
      <trkpt lat="43.59469" lon="5.05319">
        <ele>78</ele>
        <time>2019-12-16T13:28:18Z</time>
      </trkpt>
      <trkpt lat="43.59468" lon="5.05319">
        <ele>78</ele>
        <time>2019-12-16T13:28:19Z</time>
      </trkpt>
      <trkpt lat="43.59467" lon="5.05319">
        <ele>78</ele>
        <time>2019-12-16T13:28:20Z</time>
      </trkpt>
      <trkpt lat="43.59465" lon="5.05319">
        <ele>78</ele>
        <time>2019-12-16T13:28:21Z</time>
      </trkpt>
      <trkpt lat="43.59464" lon="5.05319">
        <ele>78</ele>
        <time>2019-12-16T13:28:22Z</time>
      </trkpt>
      <trkpt lat="43.59463" lon="5.05319">
        <ele>78</ele>
        <time>2019-12-16T13:28:23Z</time>
      </trkpt>
      <trkpt lat="43.59462" lon="5.0532">
        <ele>78</ele>
        <time>2019-12-16T13:28:24Z</time>
      </trkpt>
      <trkpt lat="43.59461" lon="5.0532">
        <ele>78</ele>
        <time>2019-12-16T13:28:25Z</time>
      </trkpt>
      <trkpt lat="43.5946" lon="5.0532">
        <ele>78</ele>
        <time>2019-12-16T13:28:26Z</time>
      </trkpt>
      <trkpt lat="43.59459" lon="5.0532">
        <ele>78</ele>
        <time>2019-12-16T13:28:27Z</time>
      </trkpt>
      <trkpt lat="43.59457" lon="5.0532">
        <ele>78</ele>
        <time>2019-12-16T13:28:28Z</time>
      </trkpt>
      <trkpt lat="43.59456" lon="5.0532">
        <ele>78</ele>
        <time>2019-12-16T13:28:29Z</time>
      </trkpt>
      <trkpt lat="43.59455" lon="5.0532">
        <ele>78</ele>
        <time>2019-12-16T13:28:30Z</time>
      </trkpt>
      <trkpt lat="43.59454" lon="5.0532">
        <ele>78</ele>
        <time>2019-12-16T13:28:31Z</time>
      </trkpt>
      <trkpt lat="43.59453" lon="5.0532">
        <ele>78</ele>
        <time>2019-12-16T13:28:32Z</time>
      </trkpt>
      <trkpt lat="43.59452" lon="5.0532">
        <ele>78</ele>
        <time>2019-12-16T13:28:33Z</time>
      </trkpt>
      <trkpt lat="43.59451" lon="5.0532">
        <ele>78</ele>
        <time>2019-12-16T13:28:34Z</time>
      </trkpt>
      <trkpt lat="43.5945" lon="5.0532">
        <ele>78</ele>
        <time>2019-12-16T13:28:35Z</time>
      </trkpt>
      <trkpt lat="43.59449" lon="5.0532">
        <ele>78</ele>
        <time>2019-12-16T13:28:36Z</time>
      </trkpt>
      <trkpt lat="43.59448" lon="5.0532">
        <ele>77</ele>
        <time>2019-12-16T13:28:37Z</time>
      </trkpt>
      <trkpt lat="43.59446" lon="5.0532">
        <ele>77</ele>
        <time>2019-12-16T13:28:38Z</time>
      </trkpt>
      <trkpt lat="43.59445" lon="5.0532">
        <ele>77</ele>
        <time>2019-12-16T13:28:39Z</time>
      </trkpt>
      <trkpt lat="43.59444" lon="5.0532">
        <ele>77</ele>
        <time>2019-12-16T13:28:40Z</time>
      </trkpt>
      <trkpt lat="43.59443" lon="5.0532">
        <ele>77</ele>
        <time>2019-12-16T13:28:41Z</time>
      </trkpt>
      <trkpt lat="43.59442" lon="5.0532">
        <ele>77</ele>
        <time>2019-12-16T13:28:42Z</time>
      </trkpt>
      <trkpt lat="43.59441" lon="5.0532">
        <ele>77</ele>
        <time>2019-12-16T13:28:43Z</time>
      </trkpt>
      <trkpt lat="43.5944" lon="5.0532">
        <ele>77</ele>
        <time>2019-12-16T13:28:44Z</time>
      </trkpt>
      <trkpt lat="43.59439" lon="5.0532">
        <ele>77</ele>
        <time>2019-12-16T13:28:45Z</time>
      </trkpt>
      <trkpt lat="43.59438" lon="5.0532">
        <ele>77</ele>
        <time>2019-12-16T13:28:46Z</time>
      </trkpt>
      <trkpt lat="43.59436" lon="5.0532">
        <ele>77</ele>
        <time>2019-12-16T13:28:47Z</time>
      </trkpt>
      <trkpt lat="43.59435" lon="5.0532">
        <ele>77</ele>
        <time>2019-12-16T13:28:48Z</time>
      </trkpt>
      <trkpt lat="43.59434" lon="5.0532">
        <ele>77</ele>
        <time>2019-12-16T13:28:49Z</time>
      </trkpt>
      <trkpt lat="43.59433" lon="5.0532">
        <ele>77</ele>
        <time>2019-12-16T13:28:50Z</time>
      </trkpt>
      <trkpt lat="43.59432" lon="5.0532">
        <ele>77</ele>
        <time>2019-12-16T13:28:51Z</time>
      </trkpt>
      <trkpt lat="43.59431" lon="5.0532">
        <ele>77</ele>
        <time>2019-12-16T13:28:52Z</time>
      </trkpt>
      <trkpt lat="43.5943" lon="5.0532">
        <ele>77</ele>
        <time>2019-12-16T13:28:53Z</time>
      </trkpt>
      <trkpt lat="43.59428" lon="5.05321">
        <ele>77</ele>
        <time>2019-12-16T13:28:54Z</time>
      </trkpt>
      <trkpt lat="43.59427" lon="5.05321">
        <ele>77</ele>
        <time>2019-12-16T13:28:55Z</time>
      </trkpt>
      <trkpt lat="43.59426" lon="5.05321">
        <ele>77</ele>
        <time>2019-12-16T13:28:56Z</time>
      </trkpt>
      <trkpt lat="43.59425" lon="5.05321">
        <ele>77</ele>
        <time>2019-12-16T13:28:57Z</time>
      </trkpt>
      <trkpt lat="43.59424" lon="5.05321">
        <ele>77</ele>
        <time>2019-12-16T13:28:58Z</time>
      </trkpt>
      <trkpt lat="43.59422" lon="5.05321">
        <ele>77</ele>
        <time>2019-12-16T13:28:59Z</time>
      </trkpt>
      <trkpt lat="43.59421" lon="5.05321">
        <ele>77</ele>
        <time>2019-12-16T13:29:00Z</time>
      </trkpt>
      <trkpt lat="43.5942" lon="5.05322">
        <ele>77</ele>
        <time>2019-12-16T13:29:01Z</time>
      </trkpt>
      <trkpt lat="43.59419" lon="5.05322">
        <ele>77</ele>
        <time>2019-12-16T13:29:02Z</time>
      </trkpt>
      <trkpt lat="43.59417" lon="5.05322">
        <ele>77</ele>
        <time>2019-12-16T13:29:03Z</time>
      </trkpt>
      <trkpt lat="43.59416" lon="5.05322">
        <ele>77</ele>
        <time>2019-12-16T13:29:04Z</time>
      </trkpt>
      <trkpt lat="43.59415" lon="5.05322">
        <ele>77</ele>
        <time>2019-12-16T13:29:05Z</time>
      </trkpt>
      <trkpt lat="43.59414" lon="5.05322">
        <ele>77</ele>
        <time>2019-12-16T13:29:06Z</time>
      </trkpt>
      <trkpt lat="43.59413" lon="5.05322">
        <ele>77</ele>
        <time>2019-12-16T13:29:07Z</time>
      </trkpt>
      <trkpt lat="43.59411" lon="5.05322">
        <ele>77</ele>
        <time>2019-12-16T13:29:08Z</time>
      </trkpt>
      <trkpt lat="43.5941" lon="5.05322">
        <ele>77</ele>
        <time>2019-12-16T13:29:09Z</time>
      </trkpt>
      <trkpt lat="43.59409" lon="5.05322">
        <ele>77</ele>
        <time>2019-12-16T13:29:10Z</time>
      </trkpt>
      <trkpt lat="43.59408" lon="5.05322">
        <ele>77</ele>
        <time>2019-12-16T13:29:11Z</time>
      </trkpt>
      <trkpt lat="43.59407" lon="5.05322">
        <ele>77</ele>
        <time>2019-12-16T13:29:12Z</time>
      </trkpt>
      <trkpt lat="43.59405" lon="5.05323">
        <ele>77</ele>
        <time>2019-12-16T13:29:13Z</time>
      </trkpt>
      <trkpt lat="43.59404" lon="5.05323">
        <ele>77</ele>
        <time>2019-12-16T13:29:14Z</time>
      </trkpt>
      <trkpt lat="43.59403" lon="5.05323">
        <ele>77</ele>
        <time>2019-12-16T13:29:15Z</time>
      </trkpt>
      <trkpt lat="43.59402" lon="5.05324">
        <ele>77</ele>
        <time>2019-12-16T13:29:16Z</time>
      </trkpt>
      <trkpt lat="43.59401" lon="5.05324">
        <ele>77</ele>
        <time>2019-12-16T13:29:17Z</time>
      </trkpt>
      <trkpt lat="43.594" lon="5.05324">
        <ele>77</ele>
        <time>2019-12-16T13:29:18Z</time>
      </trkpt>
      <trkpt lat="43.59399" lon="5.05324">
        <ele>77</ele>
        <time>2019-12-16T13:29:19Z</time>
      </trkpt>
      <trkpt lat="43.59397" lon="5.05324">
        <ele>77</ele>
        <time>2019-12-16T13:29:20Z</time>
      </trkpt>
      <trkpt lat="43.59396" lon="5.05324">
        <ele>77</ele>
        <time>2019-12-16T13:29:21Z</time>
      </trkpt>
      <trkpt lat="43.59395" lon="5.05324">
        <ele>77</ele>
        <time>2019-12-16T13:29:22Z</time>
      </trkpt>
      <trkpt lat="43.59394" lon="5.05324">
        <ele>77</ele>
        <time>2019-12-16T13:29:23Z</time>
      </trkpt>
      <trkpt lat="43.59393" lon="5.05324">
        <ele>77</ele>
        <time>2019-12-16T13:29:24Z</time>
      </trkpt>
      <trkpt lat="43.59392" lon="5.05323">
        <ele>77</ele>
        <time>2019-12-16T13:29:25Z</time>
      </trkpt>
      <trkpt lat="43.59391" lon="5.05323">
        <ele>77</ele>
        <time>2019-12-16T13:29:26Z</time>
      </trkpt>
      <trkpt lat="43.5939" lon="5.05323">
        <ele>77</ele>
        <time>2019-12-16T13:29:27Z</time>
      </trkpt>
      <trkpt lat="43.59389" lon="5.05322">
        <ele>77</ele>
        <time>2019-12-16T13:29:28Z</time>
      </trkpt>
      <trkpt lat="43.59388" lon="5.05322">
        <ele>77</ele>
        <time>2019-12-16T13:29:29Z</time>
      </trkpt>
      <trkpt lat="43.59387" lon="5.05321">
        <ele>77</ele>
        <time>2019-12-16T13:29:30Z</time>
      </trkpt>
      <trkpt lat="43.59385" lon="5.05321">
        <ele>77</ele>
        <time>2019-12-16T13:29:31Z</time>
      </trkpt>
      <trkpt lat="43.59384" lon="5.05321">
        <ele>77</ele>
        <time>2019-12-16T13:29:32Z</time>
      </trkpt>
      <trkpt lat="43.59383" lon="5.05321">
        <ele>77</ele>
        <time>2019-12-16T13:29:33Z</time>
      </trkpt>
      <trkpt lat="43.59382" lon="5.05321">
        <ele>77</ele>
        <time>2019-12-16T13:29:34Z</time>
      </trkpt>
      <trkpt lat="43.5938" lon="5.05321">
        <ele>77</ele>
        <time>2019-12-16T13:29:35Z</time>
      </trkpt>
      <trkpt lat="43.59379" lon="5.05321">
        <ele>77</ele>
        <time>2019-12-16T13:29:36Z</time>
      </trkpt>
      <trkpt lat="43.59378" lon="5.05321">
        <ele>77</ele>
        <time>2019-12-16T13:29:37Z</time>
      </trkpt>
      <trkpt lat="43.59377" lon="5.05321">
        <ele>77</ele>
        <time>2019-12-16T13:29:38Z</time>
      </trkpt>
      <trkpt lat="43.59375" lon="5.05321">
        <ele>77</ele>
        <time>2019-12-16T13:29:39Z</time>
      </trkpt>
      <trkpt lat="43.59374" lon="5.0532">
        <ele>77</ele>
        <time>2019-12-16T13:29:40Z</time>
      </trkpt>
      <trkpt lat="43.59373" lon="5.0532">
        <ele>77</ele>
        <time>2019-12-16T13:29:41Z</time>
      </trkpt>
      <trkpt lat="43.59372" lon="5.0532">
        <ele>77</ele>
        <time>2019-12-16T13:29:42Z</time>
      </trkpt>
      <trkpt lat="43.5937" lon="5.0532">
        <ele>77</ele>
        <time>2019-12-16T13:29:43Z</time>
      </trkpt>
      <trkpt lat="43.59369" lon="5.0532">
        <ele>77</ele>
        <time>2019-12-16T13:29:44Z</time>
      </trkpt>
      <trkpt lat="43.59368" lon="5.0532">
        <ele>77</ele>
        <time>2019-12-16T13:29:45Z</time>
      </trkpt>
      <trkpt lat="43.59367" lon="5.0532">
        <ele>77</ele>
        <time>2019-12-16T13:29:46Z</time>
      </trkpt>
      <trkpt lat="43.59366" lon="5.0532">
        <ele>77</ele>
        <time>2019-12-16T13:29:47Z</time>
      </trkpt>
      <trkpt lat="43.59364" lon="5.0532">
        <ele>77</ele>
        <time>2019-12-16T13:29:48Z</time>
      </trkpt>
      <trkpt lat="43.59363" lon="5.0532">
        <ele>77</ele>
        <time>2019-12-16T13:29:49Z</time>
      </trkpt>
      <trkpt lat="43.59362" lon="5.0532">
        <ele>77</ele>
        <time>2019-12-16T13:29:50Z</time>
      </trkpt>
      <trkpt lat="43.59361" lon="5.0532">
        <ele>77</ele>
        <time>2019-12-16T13:29:51Z</time>
      </trkpt>
      <trkpt lat="43.5936" lon="5.0532">
        <ele>77</ele>
        <time>2019-12-16T13:29:52Z</time>
      </trkpt>
      <trkpt lat="43.59359" lon="5.0532">
        <ele>77</ele>
        <time>2019-12-16T13:29:53Z</time>
      </trkpt>
      <trkpt lat="43.59358" lon="5.0532">
        <ele>77</ele>
        <time>2019-12-16T13:29:54Z</time>
      </trkpt>
      <trkpt lat="43.59357" lon="5.0532">
        <ele>77</ele>
        <time>2019-12-16T13:29:55Z</time>
      </trkpt>
      <trkpt lat="43.59355" lon="5.0532">
        <ele>77</ele>
        <time>2019-12-16T13:29:56Z</time>
      </trkpt>
      <trkpt lat="43.59354" lon="5.05321">
        <ele>77</ele>
        <time>2019-12-16T13:29:57Z</time>
      </trkpt>
      <trkpt lat="43.59353" lon="5.05321">
        <ele>77</ele>
        <time>2019-12-16T13:29:58Z</time>
      </trkpt>
      <trkpt lat="43.59352" lon="5.05321">
        <ele>77</ele>
        <time>2019-12-16T13:29:59Z</time>
      </trkpt>
      <trkpt lat="43.59351" lon="5.05322">
        <ele>77</ele>
        <time>2019-12-16T13:30:00Z</time>
      </trkpt>
      <trkpt lat="43.5935" lon="5.05322">
        <ele>77</ele>
        <time>2019-12-16T13:30:01Z</time>
      </trkpt>
      <trkpt lat="43.59349" lon="5.05323">
        <ele>77</ele>
        <time>2019-12-16T13:30:02Z</time>
      </trkpt>
      <trkpt lat="43.59348" lon="5.05323">
        <ele>78</ele>
        <time>2019-12-16T13:30:03Z</time>
      </trkpt>
      <trkpt lat="43.59347" lon="5.05324">
        <ele>78</ele>
        <time>2019-12-16T13:30:04Z</time>
      </trkpt>
      <trkpt lat="43.59345" lon="5.05325">
        <ele>78</ele>
        <time>2019-12-16T13:30:05Z</time>
      </trkpt>
      <trkpt lat="43.59344" lon="5.05325">
        <ele>78</ele>
        <time>2019-12-16T13:30:06Z</time>
      </trkpt>
      <trkpt lat="43.59343" lon="5.05326">
        <ele>78</ele>
        <time>2019-12-16T13:30:07Z</time>
      </trkpt>
      <trkpt lat="43.59342" lon="5.05327">
        <ele>78</ele>
        <time>2019-12-16T13:30:08Z</time>
      </trkpt>
      <trkpt lat="43.59341" lon="5.05327">
        <ele>78</ele>
        <time>2019-12-16T13:30:09Z</time>
      </trkpt>
      <trkpt lat="43.5934" lon="5.05328">
        <ele>78</ele>
        <time>2019-12-16T13:30:10Z</time>
      </trkpt>
      <trkpt lat="43.59339" lon="5.05328">
        <ele>78</ele>
        <time>2019-12-16T13:30:11Z</time>
      </trkpt>
      <trkpt lat="43.59338" lon="5.05329">
        <ele>78</ele>
        <time>2019-12-16T13:30:12Z</time>
      </trkpt>
      <trkpt lat="43.59337" lon="5.0533">
        <ele>78</ele>
        <time>2019-12-16T13:30:13Z</time>
      </trkpt>
      <trkpt lat="43.59335" lon="5.0533">
        <ele>78</ele>
        <time>2019-12-16T13:30:14Z</time>
      </trkpt>
      <trkpt lat="43.59334" lon="5.05331">
        <ele>78</ele>
        <time>2019-12-16T13:30:15Z</time>
      </trkpt>
      <trkpt lat="43.59333" lon="5.05331">
        <ele>78</ele>
        <time>2019-12-16T13:30:16Z</time>
      </trkpt>
      <trkpt lat="43.59332" lon="5.05332">
        <ele>78</ele>
        <time>2019-12-16T13:30:17Z</time>
      </trkpt>
      <trkpt lat="43.59331" lon="5.05332">
        <ele>78</ele>
        <time>2019-12-16T13:30:18Z</time>
      </trkpt>
      <trkpt lat="43.5933" lon="5.05333">
        <ele>77</ele>
        <time>2019-12-16T13:30:19Z</time>
      </trkpt>
      <trkpt lat="43.59329" lon="5.05333">
        <ele>77</ele>
        <time>2019-12-16T13:30:20Z</time>
      </trkpt>
      <trkpt lat="43.59328" lon="5.05334">
        <ele>77</ele>
        <time>2019-12-16T13:30:21Z</time>
      </trkpt>
      <trkpt lat="43.59326" lon="5.05334">
        <ele>77</ele>
        <time>2019-12-16T13:30:22Z</time>
      </trkpt>
      <trkpt lat="43.59325" lon="5.05335">
        <ele>77</ele>
        <time>2019-12-16T13:30:23Z</time>
      </trkpt>
      <trkpt lat="43.59324" lon="5.05335">
        <ele>77</ele>
        <time>2019-12-16T13:30:24Z</time>
      </trkpt>
      <trkpt lat="43.59323" lon="5.05336">
        <ele>77</ele>
        <time>2019-12-16T13:30:25Z</time>
      </trkpt>
      <trkpt lat="43.59322" lon="5.05336">
        <ele>76</ele>
        <time>2019-12-16T13:30:26Z</time>
      </trkpt>
      <trkpt lat="43.59321" lon="5.05337">
        <ele>76</ele>
        <time>2019-12-16T13:30:27Z</time>
      </trkpt>
      <trkpt lat="43.5932" lon="5.05337">
        <ele>76</ele>
        <time>2019-12-16T13:30:28Z</time>
      </trkpt>
      <trkpt lat="43.59318" lon="5.05337">
        <ele>76</ele>
        <time>2019-12-16T13:30:29Z</time>
      </trkpt>
      <trkpt lat="43.59317" lon="5.05338">
        <ele>76</ele>
        <time>2019-12-16T13:30:30Z</time>
      </trkpt>
      <trkpt lat="43.59316" lon="5.05338">
        <ele>76</ele>
        <time>2019-12-16T13:30:31Z</time>
      </trkpt>
      <trkpt lat="43.59315" lon="5.05339">
        <ele>76</ele>
        <time>2019-12-16T13:30:32Z</time>
      </trkpt>
      <trkpt lat="43.59314" lon="5.05339">
        <ele>76</ele>
        <time>2019-12-16T13:30:33Z</time>
      </trkpt>
      <trkpt lat="43.59312" lon="5.0534">
        <ele>76</ele>
        <time>2019-12-16T13:30:34Z</time>
      </trkpt>
      <trkpt lat="43.59311" lon="5.0534">
        <ele>76</ele>
        <time>2019-12-16T13:30:35Z</time>
      </trkpt>
      <trkpt lat="43.5931" lon="5.05341">
        <ele>75</ele>
        <time>2019-12-16T13:30:36Z</time>
      </trkpt>
      <trkpt lat="43.59309" lon="5.05341">
        <ele>75</ele>
        <time>2019-12-16T13:30:37Z</time>
      </trkpt>
      <trkpt lat="43.59308" lon="5.05342">
        <ele>75</ele>
        <time>2019-12-16T13:30:38Z</time>
      </trkpt>
      <trkpt lat="43.59307" lon="5.05342">
        <ele>75</ele>
        <time>2019-12-16T13:30:39Z</time>
      </trkpt>
      <trkpt lat="43.59306" lon="5.05343">
        <ele>75</ele>
        <time>2019-12-16T13:30:40Z</time>
      </trkpt>
      <trkpt lat="43.59305" lon="5.05343">
        <ele>75</ele>
        <time>2019-12-16T13:30:41Z</time>
      </trkpt>
      <trkpt lat="43.59304" lon="5.05344">
        <ele>75</ele>
        <time>2019-12-16T13:30:42Z</time>
      </trkpt>
      <trkpt lat="43.59303" lon="5.05345">
        <ele>75</ele>
        <time>2019-12-16T13:30:43Z</time>
      </trkpt>
      <trkpt lat="43.59302" lon="5.05345">
        <ele>75</ele>
        <time>2019-12-16T13:30:44Z</time>
      </trkpt>
      <trkpt lat="43.59301" lon="5.05346">
        <ele>75</ele>
        <time>2019-12-16T13:30:45Z</time>
      </trkpt>
      <trkpt lat="43.59299" lon="5.05347">
        <ele>75</ele>
        <time>2019-12-16T13:30:46Z</time>
      </trkpt>
      <trkpt lat="43.59298" lon="5.05347">
        <ele>75</ele>
        <time>2019-12-16T13:30:47Z</time>
      </trkpt>
      <trkpt lat="43.59297" lon="5.05348">
        <ele>75</ele>
        <time>2019-12-16T13:30:48Z</time>
      </trkpt>
      <trkpt lat="43.59296" lon="5.05349">
        <ele>75</ele>
        <time>2019-12-16T13:30:49Z</time>
      </trkpt>
      <trkpt lat="43.59295" lon="5.0535">
        <ele>75</ele>
        <time>2019-12-16T13:30:50Z</time>
      </trkpt>
      <trkpt lat="43.59294" lon="5.0535">
        <ele>75</ele>
        <time>2019-12-16T13:30:51Z</time>
      </trkpt>
      <trkpt lat="43.59293" lon="5.05351">
        <ele>74</ele>
        <time>2019-12-16T13:30:52Z</time>
      </trkpt>
      <trkpt lat="43.59292" lon="5.05352">
        <ele>74</ele>
        <time>2019-12-16T13:30:53Z</time>
      </trkpt>
      <trkpt lat="43.59291" lon="5.05353">
        <ele>74</ele>
        <time>2019-12-16T13:30:54Z</time>
      </trkpt>
      <trkpt lat="43.5929" lon="5.05354">
        <ele>74</ele>
        <time>2019-12-16T13:30:55Z</time>
      </trkpt>
      <trkpt lat="43.59289" lon="5.05355">
        <ele>74</ele>
        <time>2019-12-16T13:30:56Z</time>
      </trkpt>
      <trkpt lat="43.59288" lon="5.05356">
        <ele>74</ele>
        <time>2019-12-16T13:30:57Z</time>
      </trkpt>
      <trkpt lat="43.59287" lon="5.05357">
        <ele>74</ele>
        <time>2019-12-16T13:30:58Z</time>
      </trkpt>
      <trkpt lat="43.59286" lon="5.05358">
        <ele>74</ele>
        <time>2019-12-16T13:30:59Z</time>
      </trkpt>
      <trkpt lat="43.59285" lon="5.05359">
        <ele>74</ele>
        <time>2019-12-16T13:31:00Z</time>
      </trkpt>
      <trkpt lat="43.59284" lon="5.0536">
        <ele>74</ele>
        <time>2019-12-16T13:31:01Z</time>
      </trkpt>
      <trkpt lat="43.59283" lon="5.05361">
        <ele>74</ele>
        <time>2019-12-16T13:31:02Z</time>
      </trkpt>
      <trkpt lat="43.59282" lon="5.05362">
        <ele>74</ele>
        <time>2019-12-16T13:31:03Z</time>
      </trkpt>
      <trkpt lat="43.59281" lon="5.05363">
        <ele>74</ele>
        <time>2019-12-16T13:31:04Z</time>
      </trkpt>
      <trkpt lat="43.5928" lon="5.05364">
        <ele>74</ele>
        <time>2019-12-16T13:31:05Z</time>
      </trkpt>
      <trkpt lat="43.59279" lon="5.05365">
        <ele>74</ele>
        <time>2019-12-16T13:31:06Z</time>
      </trkpt>
      <trkpt lat="43.59278" lon="5.05366">
        <ele>74</ele>
        <time>2019-12-16T13:31:07Z</time>
      </trkpt>
      <trkpt lat="43.59277" lon="5.05366">
        <ele>74</ele>
        <time>2019-12-16T13:31:08Z</time>
      </trkpt>
      <trkpt lat="43.59276" lon="5.05367">
        <ele>74</ele>
        <time>2019-12-16T13:31:09Z</time>
      </trkpt>
      <trkpt lat="43.59275" lon="5.05368">
        <ele>74</ele>
        <time>2019-12-16T13:31:10Z</time>
      </trkpt>
      <trkpt lat="43.59274" lon="5.05369">
        <ele>74</ele>
        <time>2019-12-16T13:31:11Z</time>
      </trkpt>
      <trkpt lat="43.59273" lon="5.0537">
        <ele>74</ele>
        <time>2019-12-16T13:31:12Z</time>
      </trkpt>
      <trkpt lat="43.59272" lon="5.05371">
        <ele>74</ele>
        <time>2019-12-16T13:31:13Z</time>
      </trkpt>
      <trkpt lat="43.59271" lon="5.05372">
        <ele>74</ele>
        <time>2019-12-16T13:31:14Z</time>
      </trkpt>
      <trkpt lat="43.5927" lon="5.05373">
        <ele>74</ele>
        <time>2019-12-16T13:31:15Z</time>
      </trkpt>
      <trkpt lat="43.59269" lon="5.05373">
        <ele>74</ele>
        <time>2019-12-16T13:31:16Z</time>
      </trkpt>
      <trkpt lat="43.59268" lon="5.05374">
        <ele>73</ele>
        <time>2019-12-16T13:31:17Z</time>
      </trkpt>
      <trkpt lat="43.59267" lon="5.05375">
        <ele>73</ele>
        <time>2019-12-16T13:31:18Z</time>
      </trkpt>
      <trkpt lat="43.59266" lon="5.05376">
        <ele>73</ele>
        <time>2019-12-16T13:31:19Z</time>
      </trkpt>
      <trkpt lat="43.59265" lon="5.05377">
        <ele>73</ele>
        <time>2019-12-16T13:31:20Z</time>
      </trkpt>
      <trkpt lat="43.59263" lon="5.05378">
        <ele>73</ele>
        <time>2019-12-16T13:31:21Z</time>
      </trkpt>
      <trkpt lat="43.59262" lon="5.05379">
        <ele>73</ele>
        <time>2019-12-16T13:31:22Z</time>
      </trkpt>
      <trkpt lat="43.59261" lon="5.05379">
        <ele>73</ele>
        <time>2019-12-16T13:31:23Z</time>
      </trkpt>
      <trkpt lat="43.5926" lon="5.0538">
        <ele>73</ele>
        <time>2019-12-16T13:31:24Z</time>
      </trkpt>
      <trkpt lat="43.59259" lon="5.0538">
        <ele>73</ele>
        <time>2019-12-16T13:31:25Z</time>
      </trkpt>
      <trkpt lat="43.59258" lon="5.05381">
        <ele>73</ele>
        <time>2019-12-16T13:31:26Z</time>
      </trkpt>
      <trkpt lat="43.59257" lon="5.05381">
        <ele>73</ele>
        <time>2019-12-16T13:31:27Z</time>
      </trkpt>
      <trkpt lat="43.59256" lon="5.05381">
        <ele>73</ele>
        <time>2019-12-16T13:31:28Z</time>
      </trkpt>
      <trkpt lat="43.59255" lon="5.05381">
        <ele>73</ele>
        <time>2019-12-16T13:31:29Z</time>
      </trkpt>
      <trkpt lat="43.59254" lon="5.05381">
        <ele>73</ele>
        <time>2019-12-16T13:31:30Z</time>
      </trkpt>
      <trkpt lat="43.59252" lon="5.05381">
        <ele>73</ele>
        <time>2019-12-16T13:31:31Z</time>
      </trkpt>
      <trkpt lat="43.59252" lon="5.0538">
        <ele>73</ele>
        <time>2019-12-16T13:31:32Z</time>
      </trkpt>
      <trkpt lat="43.5925" lon="5.0538">
        <ele>73</ele>
        <time>2019-12-16T13:31:33Z</time>
      </trkpt>
      <trkpt lat="43.59249" lon="5.0538">
        <ele>70</ele>
        <time>2019-12-16T13:31:34Z</time>
      </trkpt>
      <trkpt lat="43.59248" lon="5.05379">
        <ele>70</ele>
        <time>2019-12-16T13:31:35Z</time>
      </trkpt>
      <trkpt lat="43.59247" lon="5.05379">
        <ele>70</ele>
        <time>2019-12-16T13:31:36Z</time>
      </trkpt>
      <trkpt lat="43.59246" lon="5.05378">
        <ele>70</ele>
        <time>2019-12-16T13:31:37Z</time>
      </trkpt>
      <trkpt lat="43.59245" lon="5.05378">
        <ele>70</ele>
        <time>2019-12-16T13:31:38Z</time>
      </trkpt>
      <trkpt lat="43.59244" lon="5.05377">
        <ele>70</ele>
        <time>2019-12-16T13:31:39Z</time>
      </trkpt>
      <trkpt lat="43.59243" lon="5.05377">
        <ele>70</ele>
        <time>2019-12-16T13:31:40Z</time>
      </trkpt>
      <trkpt lat="43.59242" lon="5.05376">
        <ele>70</ele>
        <time>2019-12-16T13:31:41Z</time>
      </trkpt>
      <trkpt lat="43.59241" lon="5.05376">
        <ele>70</ele>
        <time>2019-12-16T13:31:42Z</time>
      </trkpt>
      <trkpt lat="43.5924" lon="5.05376">
        <ele>70</ele>
        <time>2019-12-16T13:31:43Z</time>
      </trkpt>
      <trkpt lat="43.59239" lon="5.05376">
        <ele>70</ele>
        <time>2019-12-16T13:31:44Z</time>
      </trkpt>
      <trkpt lat="43.59238" lon="5.05375">
        <ele>70</ele>
        <time>2019-12-16T13:31:45Z</time>
      </trkpt>
      <trkpt lat="43.59237" lon="5.05375">
        <ele>70</ele>
        <time>2019-12-16T13:31:46Z</time>
      </trkpt>
      <trkpt lat="43.59236" lon="5.05375">
        <ele>70</ele>
        <time>2019-12-16T13:31:47Z</time>
      </trkpt>
      <trkpt lat="43.59235" lon="5.05375">
        <ele>70</ele>
        <time>2019-12-16T13:31:48Z</time>
      </trkpt>
      <trkpt lat="43.59235" lon="5.05375">
        <ele>70</ele>
        <time>2019-12-16T13:31:49Z</time>
      </trkpt>
      <trkpt lat="43.59234" lon="5.05375">
        <ele>70</ele>
        <time>2019-12-16T13:31:50Z</time>
      </trkpt>
      <trkpt lat="43.59233" lon="5.05375">
        <ele>70</ele>
        <time>2019-12-16T13:31:51Z</time>
      </trkpt>
      <trkpt lat="43.59232" lon="5.05375">
        <ele>70</ele>
        <time>2019-12-16T13:31:52Z</time>
      </trkpt>
      <trkpt lat="43.59231" lon="5.05374">
        <ele>70</ele>
        <time>2019-12-16T13:31:53Z</time>
      </trkpt>
      <trkpt lat="43.5923" lon="5.05374">
        <ele>70</ele>
        <time>2019-12-16T13:31:54Z</time>
      </trkpt>
      <trkpt lat="43.59229" lon="5.05374">
        <ele>70</ele>
        <time>2019-12-16T13:31:55Z</time>
      </trkpt>
      <trkpt lat="43.59228" lon="5.05374">
        <ele>70</ele>
        <time>2019-12-16T13:31:56Z</time>
      </trkpt>
      <trkpt lat="43.59227" lon="5.05374">
        <ele>70</ele>
        <time>2019-12-16T13:31:57Z</time>
      </trkpt>
      <trkpt lat="43.59226" lon="5.05373">
        <ele>70</ele>
        <time>2019-12-16T13:31:58Z</time>
      </trkpt>
      <trkpt lat="43.59224" lon="5.05373">
        <ele>70</ele>
        <time>2019-12-16T13:31:59Z</time>
      </trkpt>
      <trkpt lat="43.59223" lon="5.05372">
        <ele>70</ele>
        <time>2019-12-16T13:32:00Z</time>
      </trkpt>
      <trkpt lat="43.59222" lon="5.05372">
        <ele>70</ele>
        <time>2019-12-16T13:32:01Z</time>
      </trkpt>
      <trkpt lat="43.59221" lon="5.05371">
        <ele>70</ele>
        <time>2019-12-16T13:32:02Z</time>
      </trkpt>
      <trkpt lat="43.5922" lon="5.05371">
        <ele>70</ele>
        <time>2019-12-16T13:32:03Z</time>
      </trkpt>
      <trkpt lat="43.59219" lon="5.05371">
        <ele>70</ele>
        <time>2019-12-16T13:32:04Z</time>
      </trkpt>
      <trkpt lat="43.59218" lon="5.05371">
        <ele>70</ele>
        <time>2019-12-16T13:32:05Z</time>
      </trkpt>
      <trkpt lat="43.59217" lon="5.05372">
        <ele>70</ele>
        <time>2019-12-16T13:32:06Z</time>
      </trkpt>
      <trkpt lat="43.59217" lon="5.05372">
        <ele>70</ele>
        <time>2019-12-16T13:32:07Z</time>
      </trkpt>
      <trkpt lat="43.59217" lon="5.05373">
        <ele>70</ele>
        <time>2019-12-16T13:32:08Z</time>
      </trkpt>
      <trkpt lat="43.59217" lon="5.05374">
        <ele>70</ele>
        <time>2019-12-16T13:32:09Z</time>
      </trkpt>
      <trkpt lat="43.59217" lon="5.05376">
        <ele>70</ele>
        <time>2019-12-16T13:32:10Z</time>
      </trkpt>
      <trkpt lat="43.59217" lon="5.05377">
        <ele>70</ele>
        <time>2019-12-16T13:32:11Z</time>
      </trkpt>
      <trkpt lat="43.59217" lon="5.05379">
        <ele>70</ele>
        <time>2019-12-16T13:32:12Z</time>
      </trkpt>
      <trkpt lat="43.59216" lon="5.0538">
        <ele>70</ele>
        <time>2019-12-16T13:32:13Z</time>
      </trkpt>
      <trkpt lat="43.59216" lon="5.05381">
        <ele>70</ele>
        <time>2019-12-16T13:32:14Z</time>
      </trkpt>
      <trkpt lat="43.59216" lon="5.05382">
        <ele>70</ele>
        <time>2019-12-16T13:32:15Z</time>
      </trkpt>
      <trkpt lat="43.59216" lon="5.05383">
        <ele>70</ele>
        <time>2019-12-16T13:32:16Z</time>
      </trkpt>
      <trkpt lat="43.59215" lon="5.05383">
        <ele>70</ele>
        <time>2019-12-16T13:32:17Z</time>
      </trkpt>
      <trkpt lat="43.59215" lon="5.05383">
        <ele>70</ele>
        <time>2019-12-16T13:32:18Z</time>
      </trkpt>
      <trkpt lat="43.59215" lon="5.05383">
        <ele>70</ele>
        <time>2019-12-16T13:32:19Z</time>
      </trkpt>
      <trkpt lat="43.59215" lon="5.05382">
        <ele>70</ele>
        <time>2019-12-16T13:32:20Z</time>
      </trkpt>
      <trkpt lat="43.59215" lon="5.05381">
        <ele>70</ele>
        <time>2019-12-16T13:32:21Z</time>
      </trkpt>
      <trkpt lat="43.59216" lon="5.0538">
        <ele>70</ele>
        <time>2019-12-16T13:32:22Z</time>
      </trkpt>
      <trkpt lat="43.59216" lon="5.05378">
        <ele>70</ele>
        <time>2019-12-16T13:32:23Z</time>
      </trkpt>
      <trkpt lat="43.59216" lon="5.05377">
        <ele>70</ele>
        <time>2019-12-16T13:32:24Z</time>
      </trkpt>
      <trkpt lat="43.59216" lon="5.05375">
        <ele>70</ele>
        <time>2019-12-16T13:32:25Z</time>
      </trkpt>
      <trkpt lat="43.59216" lon="5.05373">
        <ele>70</ele>
        <time>2019-12-16T13:32:26Z</time>
      </trkpt>
      <trkpt lat="43.59216" lon="5.05371">
        <ele>70</ele>
        <time>2019-12-16T13:32:27Z</time>
      </trkpt>
      <trkpt lat="43.59216" lon="5.0537">
        <ele>70</ele>
        <time>2019-12-16T13:32:28Z</time>
      </trkpt>
      <trkpt lat="43.59215" lon="5.05368">
        <ele>70</ele>
        <time>2019-12-16T13:32:29Z</time>
      </trkpt>
      <trkpt lat="43.59215" lon="5.05367">
        <ele>70</ele>
        <time>2019-12-16T13:32:30Z</time>
      </trkpt>
      <trkpt lat="43.59214" lon="5.05365">
        <ele>70</ele>
        <time>2019-12-16T13:32:31Z</time>
      </trkpt>
      <trkpt lat="43.59213" lon="5.05364">
        <ele>70</ele>
        <time>2019-12-16T13:32:32Z</time>
      </trkpt>
      <trkpt lat="43.59213" lon="5.05363">
        <ele>70</ele>
        <time>2019-12-16T13:32:33Z</time>
      </trkpt>
      <trkpt lat="43.59212" lon="5.05362">
        <ele>70</ele>
        <time>2019-12-16T13:32:34Z</time>
      </trkpt>
      <trkpt lat="43.59211" lon="5.0536">
        <ele>70</ele>
        <time>2019-12-16T13:32:35Z</time>
      </trkpt>
      <trkpt lat="43.5921" lon="5.05359">
        <ele>70</ele>
        <time>2019-12-16T13:32:36Z</time>
      </trkpt>
      <trkpt lat="43.59209" lon="5.05358">
        <ele>70</ele>
        <time>2019-12-16T13:32:37Z</time>
      </trkpt>
      <trkpt lat="43.59209" lon="5.05357">
        <ele>70</ele>
        <time>2019-12-16T13:32:38Z</time>
      </trkpt>
      <trkpt lat="43.59208" lon="5.05356">
        <ele>70</ele>
        <time>2019-12-16T13:32:39Z</time>
      </trkpt>
      <trkpt lat="43.59207" lon="5.05354">
        <ele>70</ele>
        <time>2019-12-16T13:32:40Z</time>
      </trkpt>
      <trkpt lat="43.59207" lon="5.05353">
        <ele>70</ele>
        <time>2019-12-16T13:32:41Z</time>
      </trkpt>
      <trkpt lat="43.59206" lon="5.05351">
        <ele>70</ele>
        <time>2019-12-16T13:32:42Z</time>
      </trkpt>
      <trkpt lat="43.59206" lon="5.0535">
        <ele>70</ele>
        <time>2019-12-16T13:32:43Z</time>
      </trkpt>
      <trkpt lat="43.59205" lon="5.05349">
        <ele>70</ele>
        <time>2019-12-16T13:32:44Z</time>
      </trkpt>
      <trkpt lat="43.59205" lon="5.05347">
        <ele>70</ele>
        <time>2019-12-16T13:32:45Z</time>
      </trkpt>
      <trkpt lat="43.59205" lon="5.05346">
        <ele>70</ele>
        <time>2019-12-16T13:32:46Z</time>
      </trkpt>
      <trkpt lat="43.59205" lon="5.05345">
        <ele>70</ele>
        <time>2019-12-16T13:32:47Z</time>
      </trkpt>
      <trkpt lat="43.59204" lon="5.05344">
        <ele>70</ele>
        <time>2019-12-16T13:32:48Z</time>
      </trkpt>
      <trkpt lat="43.59204" lon="5.05342">
        <ele>70</ele>
        <time>2019-12-16T13:32:49Z</time>
      </trkpt>
      <trkpt lat="43.59204" lon="5.05341">
        <ele>70</ele>
        <time>2019-12-16T13:32:50Z</time>
      </trkpt>
      <trkpt lat="43.59204" lon="5.0534">
        <ele>70</ele>
        <time>2019-12-16T13:32:51Z</time>
      </trkpt>
      <trkpt lat="43.59204" lon="5.05339">
        <ele>70</ele>
        <time>2019-12-16T13:32:52Z</time>
      </trkpt>
      <trkpt lat="43.59204" lon="5.05338">
        <ele>70</ele>
        <time>2019-12-16T13:32:53Z</time>
      </trkpt>
      <trkpt lat="43.59204" lon="5.05337">
        <ele>70</ele>
        <time>2019-12-16T13:32:54Z</time>
      </trkpt>
      <trkpt lat="43.59204" lon="5.05336">
        <ele>70</ele>
        <time>2019-12-16T13:32:55Z</time>
      </trkpt>
      <trkpt lat="43.59204" lon="5.05336">
        <ele>70</ele>
        <time>2019-12-16T13:32:56Z</time>
      </trkpt>
      <trkpt lat="43.59204" lon="5.05335">
        <ele>70</ele>
        <time>2019-12-16T13:32:57Z</time>
      </trkpt>
      <trkpt lat="43.59204" lon="5.05335">
        <ele>70</ele>
        <time>2019-12-16T13:32:58Z</time>
      </trkpt>
      <trkpt lat="43.59204" lon="5.05335">
        <ele>70</ele>
        <time>2019-12-16T13:32:59Z</time>
      </trkpt>
      <trkpt lat="43.59204" lon="5.05335">
        <ele>70</ele>
        <time>2019-12-16T13:33:00Z</time>
      </trkpt>
      <trkpt lat="43.59204" lon="5.05335">
        <ele>70</ele>
        <time>2019-12-16T13:33:01Z</time>
      </trkpt>
      <trkpt lat="43.59204" lon="5.05335">
        <ele>70</ele>
        <time>2019-12-16T13:33:02Z</time>
      </trkpt>
      <trkpt lat="43.59204" lon="5.05335">
        <ele>70</ele>
        <time>2019-12-16T13:33:03Z</time>
      </trkpt>
      <trkpt lat="43.59204" lon="5.05334">
        <ele>70</ele>
        <time>2019-12-16T13:33:04Z</time>
      </trkpt>
      <trkpt lat="43.59204" lon="5.05334">
        <ele>70</ele>
        <time>2019-12-16T13:33:05Z</time>
      </trkpt>
      <trkpt lat="43.59204" lon="5.05334">
        <ele>70</ele>
        <time>2019-12-16T13:33:06Z</time>
      </trkpt>
      <trkpt lat="43.59204" lon="5.05333">
        <ele>67</ele>
        <time>2019-12-16T13:33:07Z</time>
      </trkpt>
      <trkpt lat="43.59205" lon="5.05333">
        <ele>67</ele>
        <time>2019-12-16T13:33:08Z</time>
      </trkpt>
      <trkpt lat="43.59205" lon="5.05333">
        <ele>67</ele>
        <time>2019-12-16T13:33:09Z</time>
      </trkpt>
      <trkpt lat="43.59205" lon="5.05333">
        <ele>67</ele>
        <time>2019-12-16T13:33:10Z</time>
      </trkpt>
      <trkpt lat="43.59206" lon="5.05333">
        <ele>67</ele>
        <time>2019-12-16T13:33:11Z</time>
      </trkpt>
      <trkpt lat="43.59206" lon="5.05333">
        <ele>67</ele>
        <time>2019-12-16T13:33:12Z</time>
      </trkpt>
      <trkpt lat="43.59206" lon="5.05334">
        <ele>70</ele>
        <time>2019-12-16T13:33:13Z</time>
      </trkpt>
      <trkpt lat="43.59206" lon="5.05335">
        <ele>70</ele>
        <time>2019-12-16T13:33:14Z</time>
      </trkpt>
      <trkpt lat="43.59206" lon="5.05336">
        <ele>70</ele>
        <time>2019-12-16T13:33:15Z</time>
      </trkpt>
      <trkpt lat="43.59207" lon="5.05337">
        <ele>70</ele>
        <time>2019-12-16T13:33:16Z</time>
      </trkpt>
      <trkpt lat="43.59207" lon="5.05338">
        <ele>70</ele>
        <time>2019-12-16T13:33:17Z</time>
      </trkpt>
      <trkpt lat="43.59207" lon="5.05339">
        <ele>70</ele>
        <time>2019-12-16T13:33:18Z</time>
      </trkpt>
      <trkpt lat="43.59207" lon="5.0534">
        <ele>70</ele>
        <time>2019-12-16T13:33:19Z</time>
      </trkpt>
      <trkpt lat="43.59207" lon="5.05341">
        <ele>70</ele>
        <time>2019-12-16T13:33:20Z</time>
      </trkpt>
      <trkpt lat="43.59207" lon="5.05342">
        <ele>70</ele>
        <time>2019-12-16T13:33:21Z</time>
      </trkpt>
      <trkpt lat="43.59207" lon="5.05343">
        <ele>70</ele>
        <time>2019-12-16T13:33:22Z</time>
      </trkpt>
      <trkpt lat="43.59208" lon="5.05344">
        <ele>70</ele>
        <time>2019-12-16T13:33:23Z</time>
      </trkpt>
      <trkpt lat="43.59208" lon="5.05346">
        <ele>70</ele>
        <time>2019-12-16T13:33:24Z</time>
      </trkpt>
      <trkpt lat="43.59208" lon="5.05347">
        <ele>70</ele>
        <time>2019-12-16T13:33:25Z</time>
      </trkpt>
      <trkpt lat="43.59208" lon="5.05348">
        <ele>70</ele>
        <time>2019-12-16T13:33:26Z</time>
      </trkpt>
      <trkpt lat="43.59208" lon="5.05349">
        <ele>70</ele>
        <time>2019-12-16T13:33:27Z</time>
      </trkpt>
      <trkpt lat="43.59208" lon="5.0535">
        <ele>70</ele>
        <time>2019-12-16T13:33:28Z</time>
      </trkpt>
      <trkpt lat="43.59208" lon="5.05352">
        <ele>70</ele>
        <time>2019-12-16T13:33:29Z</time>
      </trkpt>
      <trkpt lat="43.59208" lon="5.05353">
        <ele>70</ele>
        <time>2019-12-16T13:33:30Z</time>
      </trkpt>
      <trkpt lat="43.59208" lon="5.05354">
        <ele>70</ele>
        <time>2019-12-16T13:33:31Z</time>
      </trkpt>
      <trkpt lat="43.59208" lon="5.05356">
        <ele>70</ele>
        <time>2019-12-16T13:33:32Z</time>
      </trkpt>
      <trkpt lat="43.59207" lon="5.05357">
        <ele>70</ele>
        <time>2019-12-16T13:33:33Z</time>
      </trkpt>
      <trkpt lat="43.59207" lon="5.05358">
        <ele>70</ele>
        <time>2019-12-16T13:33:34Z</time>
      </trkpt>
      <trkpt lat="43.59207" lon="5.05359">
        <ele>70</ele>
        <time>2019-12-16T13:33:35Z</time>
      </trkpt>
      <trkpt lat="43.59207" lon="5.0536">
        <ele>70</ele>
        <time>2019-12-16T13:33:36Z</time>
      </trkpt>
      <trkpt lat="43.59206" lon="5.05361">
        <ele>70</ele>
        <time>2019-12-16T13:33:37Z</time>
      </trkpt>
      <trkpt lat="43.59206" lon="5.05362">
        <ele>70</ele>
        <time>2019-12-16T13:33:38Z</time>
      </trkpt>
      <trkpt lat="43.59206" lon="5.05362">
        <ele>70</ele>
        <time>2019-12-16T13:33:39Z</time>
      </trkpt>
      <trkpt lat="43.59206" lon="5.05363">
        <ele>70</ele>
        <time>2019-12-16T13:33:40Z</time>
      </trkpt>
      <trkpt lat="43.59206" lon="5.05363">
        <ele>70</ele>
        <time>2019-12-16T13:33:41Z</time>
      </trkpt>
      <trkpt lat="43.59205" lon="5.05364">
        <ele>70</ele>
        <time>2019-12-16T13:33:42Z</time>
      </trkpt>
      <trkpt lat="43.59205" lon="5.05364">
        <ele>70</ele>
        <time>2019-12-16T13:33:43Z</time>
      </trkpt>
      <trkpt lat="43.59205" lon="5.05364">
        <ele>70</ele>
        <time>2019-12-16T13:33:44Z</time>
      </trkpt>
      <trkpt lat="43.59205" lon="5.05364">
        <ele>70</ele>
        <time>2019-12-16T13:33:45Z</time>
      </trkpt>
      <trkpt lat="43.59205" lon="5.05364">
        <ele>70</ele>
        <time>2019-12-16T13:33:46Z</time>
      </trkpt>
      <trkpt lat="43.59205" lon="5.05364">
        <ele>70</ele>
        <time>2019-12-16T13:33:47Z</time>
      </trkpt>
      <trkpt lat="43.59205" lon="5.05364">
        <ele>70</ele>
        <time>2019-12-16T13:33:48Z</time>
      </trkpt>
      <trkpt lat="43.59205" lon="5.05364">
        <ele>70</ele>
        <time>2019-12-16T13:33:49Z</time>
      </trkpt>
      <trkpt lat="43.59205" lon="5.05364">
        <ele>70</ele>
        <time>2019-12-16T13:33:50Z</time>
      </trkpt>
      <trkpt lat="43.59205" lon="5.05364">
        <ele>70</ele>
        <time>2019-12-16T13:33:51Z</time>
      </trkpt>
      <trkpt lat="43.59205" lon="5.05364">
        <ele>70</ele>
        <time>2019-12-16T13:33:52Z</time>
      </trkpt>
      <trkpt lat="43.59205" lon="5.05364">
        <ele>70</ele>
        <time>2019-12-16T13:33:53Z</time>
      </trkpt>
      <trkpt lat="43.59205" lon="5.05364">
        <ele>70</ele>
        <time>2019-12-16T13:33:54Z</time>
      </trkpt>
      <trkpt lat="43.59205" lon="5.05364">
        <ele>70</ele>
        <time>2019-12-16T13:33:55Z</time>
      </trkpt>
      <trkpt lat="43.59205" lon="5.05364">
        <ele>70</ele>
        <time>2019-12-16T13:33:56Z</time>
      </trkpt>
      <trkpt lat="43.59205" lon="5.05364">
        <ele>70</ele>
        <time>2019-12-16T13:33:57Z</time>
      </trkpt>
      <trkpt lat="43.59205" lon="5.05364">
        <ele>70</ele>
        <time>2019-12-16T13:33:58Z</time>
      </trkpt>
      <trkpt lat="43.59205" lon="5.05365">
        <ele>70</ele>
        <time>2019-12-16T13:33:59Z</time>
      </trkpt>
      <trkpt lat="43.59204" lon="5.05365">
        <ele>69</ele>
        <time>2019-12-16T13:34:00Z</time>
      </trkpt>
      <trkpt lat="43.59204" lon="5.05365">
        <ele>69</ele>
        <time>2019-12-16T13:34:01Z</time>
      </trkpt>
      <trkpt lat="43.59203" lon="5.05366">
        <ele>69</ele>
        <time>2019-12-16T13:34:02Z</time>
      </trkpt>
      <trkpt lat="43.59203" lon="5.05366">
        <ele>69</ele>
        <time>2019-12-16T13:34:03Z</time>
      </trkpt>
      <trkpt lat="43.59202" lon="5.05366">
        <ele>69</ele>
        <time>2019-12-16T13:34:04Z</time>
      </trkpt>
      <trkpt lat="43.59202" lon="5.05366">
        <ele>69</ele>
        <time>2019-12-16T13:34:05Z</time>
      </trkpt>
      <trkpt lat="43.59201" lon="5.05366">
        <ele>69</ele>
        <time>2019-12-16T13:34:06Z</time>
      </trkpt>
      <trkpt lat="43.592" lon="5.05365">
        <ele>69</ele>
        <time>2019-12-16T13:34:07Z</time>
      </trkpt>
      <trkpt lat="43.59199" lon="5.05365">
        <ele>69</ele>
        <time>2019-12-16T13:34:08Z</time>
      </trkpt>
      <trkpt lat="43.59198" lon="5.05364">
        <ele>69</ele>
        <time>2019-12-16T13:34:09Z</time>
      </trkpt>
      <trkpt lat="43.59197" lon="5.05364">
        <ele>69</ele>
        <time>2019-12-16T13:34:10Z</time>
      </trkpt>
      <trkpt lat="43.59196" lon="5.05364">
        <ele>69</ele>
        <time>2019-12-16T13:34:11Z</time>
      </trkpt>
      <trkpt lat="43.59195" lon="5.05363">
        <ele>69</ele>
        <time>2019-12-16T13:34:12Z</time>
      </trkpt>
      <trkpt lat="43.59194" lon="5.05363">
        <ele>69</ele>
        <time>2019-12-16T13:34:13Z</time>
      </trkpt>
      <trkpt lat="43.59193" lon="5.05363">
        <ele>69</ele>
        <time>2019-12-16T13:34:14Z</time>
      </trkpt>
      <trkpt lat="43.59192" lon="5.05363">
        <ele>69</ele>
        <time>2019-12-16T13:34:15Z</time>
      </trkpt>
      <trkpt lat="43.59191" lon="5.05363">
        <ele>69</ele>
        <time>2019-12-16T13:34:16Z</time>
      </trkpt>
      <trkpt lat="43.5919" lon="5.05363">
        <ele>69</ele>
        <time>2019-12-16T13:34:17Z</time>
      </trkpt>
      <trkpt lat="43.5919" lon="5.05363">
        <ele>69</ele>
        <time>2019-12-16T13:34:18Z</time>
      </trkpt>
      <trkpt lat="43.59189" lon="5.05363">
        <ele>69</ele>
        <time>2019-12-16T13:34:19Z</time>
      </trkpt>
      <trkpt lat="43.59188" lon="5.05364">
        <ele>69</ele>
        <time>2019-12-16T13:34:20Z</time>
      </trkpt>
      <trkpt lat="43.59187" lon="5.05364">
        <ele>69</ele>
        <time>2019-12-16T13:34:21Z</time>
      </trkpt>
      <trkpt lat="43.59186" lon="5.05365">
        <ele>69</ele>
        <time>2019-12-16T13:34:22Z</time>
      </trkpt>
      <trkpt lat="43.59185" lon="5.05365">
        <ele>69</ele>
        <time>2019-12-16T13:34:23Z</time>
      </trkpt>
      <trkpt lat="43.59184" lon="5.05366">
        <ele>69</ele>
        <time>2019-12-16T13:34:24Z</time>
      </trkpt>
      <trkpt lat="43.59183" lon="5.05367">
        <ele>69</ele>
        <time>2019-12-16T13:34:25Z</time>
      </trkpt>
      <trkpt lat="43.59183" lon="5.05367">
        <ele>69</ele>
        <time>2019-12-16T13:34:26Z</time>
      </trkpt>
      <trkpt lat="43.59182" lon="5.05368">
        <ele>69</ele>
        <time>2019-12-16T13:34:27Z</time>
      </trkpt>
      <trkpt lat="43.59181" lon="5.05369">
        <ele>69</ele>
        <time>2019-12-16T13:34:28Z</time>
      </trkpt>
      <trkpt lat="43.5918" lon="5.05369">
        <ele>69</ele>
        <time>2019-12-16T13:34:29Z</time>
      </trkpt>
      <trkpt lat="43.59179" lon="5.0537">
        <ele>69</ele>
        <time>2019-12-16T13:34:30Z</time>
      </trkpt>
      <trkpt lat="43.59178" lon="5.05371">
        <ele>69</ele>
        <time>2019-12-16T13:34:31Z</time>
      </trkpt>
      <trkpt lat="43.59178" lon="5.05371">
        <ele>69</ele>
        <time>2019-12-16T13:34:32Z</time>
      </trkpt>
      <trkpt lat="43.59177" lon="5.05372">
        <ele>69</ele>
        <time>2019-12-16T13:34:33Z</time>
      </trkpt>
      <trkpt lat="43.59176" lon="5.05373">
        <ele>69</ele>
        <time>2019-12-16T13:34:34Z</time>
      </trkpt>
      <trkpt lat="43.59175" lon="5.05373">
        <ele>69</ele>
        <time>2019-12-16T13:34:35Z</time>
      </trkpt>
      <trkpt lat="43.59175" lon="5.05374">
        <ele>69</ele>
        <time>2019-12-16T13:34:36Z</time>
      </trkpt>
      <trkpt lat="43.59174" lon="5.05374">
        <ele>69</ele>
        <time>2019-12-16T13:34:37Z</time>
      </trkpt>
      <trkpt lat="43.59173" lon="5.05375">
        <ele>69</ele>
        <time>2019-12-16T13:34:38Z</time>
      </trkpt>
      <trkpt lat="43.59173" lon="5.05376">
        <ele>69</ele>
        <time>2019-12-16T13:34:39Z</time>
      </trkpt>
      <trkpt lat="43.59172" lon="5.05377">
        <ele>69</ele>
        <time>2019-12-16T13:34:40Z</time>
      </trkpt>
      <trkpt lat="43.59172" lon="5.05378">
        <ele>69</ele>
        <time>2019-12-16T13:34:41Z</time>
      </trkpt>
      <trkpt lat="43.59171" lon="5.05379">
        <ele>69</ele>
        <time>2019-12-16T13:34:42Z</time>
      </trkpt>
      <trkpt lat="43.59171" lon="5.0538">
        <ele>68</ele>
        <time>2019-12-16T13:34:43Z</time>
      </trkpt>
      <trkpt lat="43.5917" lon="5.05382">
        <ele>68</ele>
        <time>2019-12-16T13:34:44Z</time>
      </trkpt>
      <trkpt lat="43.5917" lon="5.05383">
        <ele>68</ele>
        <time>2019-12-16T13:34:45Z</time>
      </trkpt>
      <trkpt lat="43.5917" lon="5.05384">
        <ele>68</ele>
        <time>2019-12-16T13:34:46Z</time>
      </trkpt>
      <trkpt lat="43.59169" lon="5.05385">
        <ele>68</ele>
        <time>2019-12-16T13:34:47Z</time>
      </trkpt>
      <trkpt lat="43.59169" lon="5.05386">
        <ele>68</ele>
        <time>2019-12-16T13:34:48Z</time>
      </trkpt>
      <trkpt lat="43.59169" lon="5.05387">
        <ele>68</ele>
        <time>2019-12-16T13:34:49Z</time>
      </trkpt>
      <trkpt lat="43.59169" lon="5.05389">
        <ele>68</ele>
        <time>2019-12-16T13:34:50Z</time>
      </trkpt>
      <trkpt lat="43.59169" lon="5.0539">
        <ele>68</ele>
        <time>2019-12-16T13:34:51Z</time>
      </trkpt>
      <trkpt lat="43.59169" lon="5.05391">
        <ele>68</ele>
        <time>2019-12-16T13:34:52Z</time>
      </trkpt>
      <trkpt lat="43.5917" lon="5.05392">
        <ele>68</ele>
        <time>2019-12-16T13:34:53Z</time>
      </trkpt>
      <trkpt lat="43.5917" lon="5.05393">
        <ele>68</ele>
        <time>2019-12-16T13:34:54Z</time>
      </trkpt>
      <trkpt lat="43.5917" lon="5.05394">
        <ele>68</ele>
        <time>2019-12-16T13:34:55Z</time>
      </trkpt>
      <trkpt lat="43.5917" lon="5.05395">
        <ele>68</ele>
        <time>2019-12-16T13:34:56Z</time>
      </trkpt>
      <trkpt lat="43.59171" lon="5.05396">
        <ele>68</ele>
        <time>2019-12-16T13:34:57Z</time>
      </trkpt>
      <trkpt lat="43.59171" lon="5.05397">
        <ele>68</ele>
        <time>2019-12-16T13:34:58Z</time>
      </trkpt>
      <trkpt lat="43.59172" lon="5.05398">
        <ele>68</ele>
        <time>2019-12-16T13:34:59Z</time>
      </trkpt>
      <trkpt lat="43.59172" lon="5.05399">
        <ele>68</ele>
        <time>2019-12-16T13:35:00Z</time>
      </trkpt>
      <trkpt lat="43.59173" lon="5.054">
        <ele>68</ele>
        <time>2019-12-16T13:35:01Z</time>
      </trkpt>
      <trkpt lat="43.59174" lon="5.05401">
        <ele>68</ele>
        <time>2019-12-16T13:35:02Z</time>
      </trkpt>
      <trkpt lat="43.59174" lon="5.05402">
        <ele>68</ele>
        <time>2019-12-16T13:35:03Z</time>
      </trkpt>
      <trkpt lat="43.59175" lon="5.05403">
        <ele>68</ele>
        <time>2019-12-16T13:35:04Z</time>
      </trkpt>
      <trkpt lat="43.59176" lon="5.05404">
        <ele>68</ele>
        <time>2019-12-16T13:35:05Z</time>
      </trkpt>
      <trkpt lat="43.59176" lon="5.05405">
        <ele>68</ele>
        <time>2019-12-16T13:35:06Z</time>
      </trkpt>
      <trkpt lat="43.59177" lon="5.05406">
        <ele>68</ele>
        <time>2019-12-16T13:35:07Z</time>
      </trkpt>
      <trkpt lat="43.59178" lon="5.05407">
        <ele>68</ele>
        <time>2019-12-16T13:35:08Z</time>
      </trkpt>
      <trkpt lat="43.59178" lon="5.05408">
        <ele>68</ele>
        <time>2019-12-16T13:35:09Z</time>
      </trkpt>
      <trkpt lat="43.59179" lon="5.05409">
        <ele>68</ele>
        <time>2019-12-16T13:35:10Z</time>
      </trkpt>
      <trkpt lat="43.5918" lon="5.05409">
        <ele>68</ele>
        <time>2019-12-16T13:35:11Z</time>
      </trkpt>
      <trkpt lat="43.59181" lon="5.0541">
        <ele>68</ele>
        <time>2019-12-16T13:35:12Z</time>
      </trkpt>
      <trkpt lat="43.59181" lon="5.05411">
        <ele>68</ele>
        <time>2019-12-16T13:35:13Z</time>
      </trkpt>
      <trkpt lat="43.59182" lon="5.05412">
        <ele>68</ele>
        <time>2019-12-16T13:35:14Z</time>
      </trkpt>
      <trkpt lat="43.59183" lon="5.05413">
        <ele>68</ele>
        <time>2019-12-16T13:35:15Z</time>
      </trkpt>
      <trkpt lat="43.59184" lon="5.05414">
        <ele>68</ele>
        <time>2019-12-16T13:35:16Z</time>
      </trkpt>
      <trkpt lat="43.59184" lon="5.05415">
        <ele>68</ele>
        <time>2019-12-16T13:35:17Z</time>
      </trkpt>
      <trkpt lat="43.59185" lon="5.05416">
        <ele>68</ele>
        <time>2019-12-16T13:35:18Z</time>
      </trkpt>
      <trkpt lat="43.59186" lon="5.05417">
        <ele>67</ele>
        <time>2019-12-16T13:35:19Z</time>
      </trkpt>
      <trkpt lat="43.59186" lon="5.05418">
        <ele>67</ele>
        <time>2019-12-16T13:35:20Z</time>
      </trkpt>
      <trkpt lat="43.59187" lon="5.05419">
        <ele>67</ele>
        <time>2019-12-16T13:35:21Z</time>
      </trkpt>
      <trkpt lat="43.59188" lon="5.0542">
        <ele>67</ele>
        <time>2019-12-16T13:35:22Z</time>
      </trkpt>
      <trkpt lat="43.59189" lon="5.05421">
        <ele>67</ele>
        <time>2019-12-16T13:35:23Z</time>
      </trkpt>
      <trkpt lat="43.59189" lon="5.05422">
        <ele>67</ele>
        <time>2019-12-16T13:35:24Z</time>
      </trkpt>
      <trkpt lat="43.5919" lon="5.05424">
        <ele>67</ele>
        <time>2019-12-16T13:35:25Z</time>
      </trkpt>
      <trkpt lat="43.5919" lon="5.05425">
        <ele>67</ele>
        <time>2019-12-16T13:35:26Z</time>
      </trkpt>
      <trkpt lat="43.59191" lon="5.05426">
        <ele>67</ele>
        <time>2019-12-16T13:35:27Z</time>
      </trkpt>
      <trkpt lat="43.59192" lon="5.05427">
        <ele>67</ele>
        <time>2019-12-16T13:35:28Z</time>
      </trkpt>
      <trkpt lat="43.59192" lon="5.05428">
        <ele>67</ele>
        <time>2019-12-16T13:35:29Z</time>
      </trkpt>
      <trkpt lat="43.59193" lon="5.05429">
        <ele>67</ele>
        <time>2019-12-16T13:35:30Z</time>
      </trkpt>
      <trkpt lat="43.59193" lon="5.05431">
        <ele>67</ele>
        <time>2019-12-16T13:35:31Z</time>
      </trkpt>
      <trkpt lat="43.59194" lon="5.05432">
        <ele>67</ele>
        <time>2019-12-16T13:35:32Z</time>
      </trkpt>
      <trkpt lat="43.59194" lon="5.05433">
        <ele>67</ele>
        <time>2019-12-16T13:35:33Z</time>
      </trkpt>
      <trkpt lat="43.59195" lon="5.05434">
        <ele>67</ele>
        <time>2019-12-16T13:35:34Z</time>
      </trkpt>
      <trkpt lat="43.59195" lon="5.05436">
        <ele>67</ele>
        <time>2019-12-16T13:35:35Z</time>
      </trkpt>
      <trkpt lat="43.59196" lon="5.05437">
        <ele>67</ele>
        <time>2019-12-16T13:35:36Z</time>
      </trkpt>
      <trkpt lat="43.59196" lon="5.05438">
        <ele>67</ele>
        <time>2019-12-16T13:35:37Z</time>
      </trkpt>
      <trkpt lat="43.59197" lon="5.05439">
        <ele>67</ele>
        <time>2019-12-16T13:35:38Z</time>
      </trkpt>
      <trkpt lat="43.59197" lon="5.05441">
        <ele>67</ele>
        <time>2019-12-16T13:35:39Z</time>
      </trkpt>
      <trkpt lat="43.59198" lon="5.05442">
        <ele>67</ele>
        <time>2019-12-16T13:35:40Z</time>
      </trkpt>
      <trkpt lat="43.59198" lon="5.05443">
        <ele>67</ele>
        <time>2019-12-16T13:35:41Z</time>
      </trkpt>
      <trkpt lat="43.59199" lon="5.05444">
        <ele>67</ele>
        <time>2019-12-16T13:35:42Z</time>
      </trkpt>
      <trkpt lat="43.59199" lon="5.05446">
        <ele>67</ele>
        <time>2019-12-16T13:35:43Z</time>
      </trkpt>
      <trkpt lat="43.592" lon="5.05447">
        <ele>67</ele>
        <time>2019-12-16T13:35:44Z</time>
      </trkpt>
      <trkpt lat="43.592" lon="5.05448">
        <ele>67</ele>
        <time>2019-12-16T13:35:45Z</time>
      </trkpt>
      <trkpt lat="43.59201" lon="5.05449">
        <ele>67</ele>
        <time>2019-12-16T13:35:46Z</time>
      </trkpt>
      <trkpt lat="43.59201" lon="5.05451">
        <ele>67</ele>
        <time>2019-12-16T13:35:47Z</time>
      </trkpt>
      <trkpt lat="43.59202" lon="5.05452">
        <ele>67</ele>
        <time>2019-12-16T13:35:48Z</time>
      </trkpt>
      <trkpt lat="43.59202" lon="5.05453">
        <ele>67</ele>
        <time>2019-12-16T13:35:49Z</time>
      </trkpt>
      <trkpt lat="43.59202" lon="5.05455">
        <ele>67</ele>
        <time>2019-12-16T13:35:50Z</time>
      </trkpt>
      <trkpt lat="43.59203" lon="5.05456">
        <ele>67</ele>
        <time>2019-12-16T13:35:51Z</time>
      </trkpt>
      <trkpt lat="43.59203" lon="5.05457">
        <ele>67</ele>
        <time>2019-12-16T13:35:52Z</time>
      </trkpt>
      <trkpt lat="43.59204" lon="5.05458">
        <ele>67</ele>
        <time>2019-12-16T13:35:53Z</time>
      </trkpt>
      <trkpt lat="43.59204" lon="5.0546">
        <ele>67</ele>
        <time>2019-12-16T13:35:54Z</time>
      </trkpt>
      <trkpt lat="43.59205" lon="5.05461">
        <ele>67</ele>
        <time>2019-12-16T13:35:55Z</time>
      </trkpt>
      <trkpt lat="43.59205" lon="5.05462">
        <ele>67</ele>
        <time>2019-12-16T13:35:56Z</time>
      </trkpt>
      <trkpt lat="43.59206" lon="5.05463">
        <ele>67</ele>
        <time>2019-12-16T13:35:57Z</time>
      </trkpt>
      <trkpt lat="43.59206" lon="5.05465">
        <ele>67</ele>
        <time>2019-12-16T13:35:58Z</time>
      </trkpt>
      <trkpt lat="43.59207" lon="5.05466">
        <ele>67</ele>
        <time>2019-12-16T13:35:59Z</time>
      </trkpt>
      <trkpt lat="43.59207" lon="5.05467">
        <ele>67</ele>
        <time>2019-12-16T13:36:00Z</time>
      </trkpt>
      <trkpt lat="43.59208" lon="5.05468">
        <ele>67</ele>
        <time>2019-12-16T13:36:01Z</time>
      </trkpt>
      <trkpt lat="43.59209" lon="5.0547">
        <ele>67</ele>
        <time>2019-12-16T13:36:02Z</time>
      </trkpt>
      <trkpt lat="43.59209" lon="5.05471">
        <ele>67</ele>
        <time>2019-12-16T13:36:03Z</time>
      </trkpt>
      <trkpt lat="43.5921" lon="5.05472">
        <ele>67</ele>
        <time>2019-12-16T13:36:04Z</time>
      </trkpt>
      <trkpt lat="43.5921" lon="5.05474">
        <ele>67</ele>
        <time>2019-12-16T13:36:05Z</time>
      </trkpt>
      <trkpt lat="43.59211" lon="5.05475">
        <ele>67</ele>
        <time>2019-12-16T13:36:06Z</time>
      </trkpt>
      <trkpt lat="43.59211" lon="5.05476">
        <ele>67</ele>
        <time>2019-12-16T13:36:07Z</time>
      </trkpt>
      <trkpt lat="43.59212" lon="5.05477">
        <ele>67</ele>
        <time>2019-12-16T13:36:08Z</time>
      </trkpt>
      <trkpt lat="43.59213" lon="5.05479">
        <ele>67</ele>
        <time>2019-12-16T13:36:09Z</time>
      </trkpt>
      <trkpt lat="43.59213" lon="5.0548">
        <ele>67</ele>
        <time>2019-12-16T13:36:10Z</time>
      </trkpt>
      <trkpt lat="43.59214" lon="5.05481">
        <ele>67</ele>
        <time>2019-12-16T13:36:11Z</time>
      </trkpt>
      <trkpt lat="43.59214" lon="5.05482">
        <ele>67</ele>
        <time>2019-12-16T13:36:12Z</time>
      </trkpt>
      <trkpt lat="43.59215" lon="5.05484">
        <ele>67</ele>
        <time>2019-12-16T13:36:13Z</time>
      </trkpt>
      <trkpt lat="43.59216" lon="5.05485">
        <ele>67</ele>
        <time>2019-12-16T13:36:14Z</time>
      </trkpt>
      <trkpt lat="43.59216" lon="5.05486">
        <ele>67</ele>
        <time>2019-12-16T13:36:15Z</time>
      </trkpt>
      <trkpt lat="43.59217" lon="5.05487">
        <ele>67</ele>
        <time>2019-12-16T13:36:16Z</time>
      </trkpt>
      <trkpt lat="43.59217" lon="5.05489">
        <ele>67</ele>
        <time>2019-12-16T13:36:17Z</time>
      </trkpt>
      <trkpt lat="43.59218" lon="5.0549">
        <ele>67</ele>
        <time>2019-12-16T13:36:18Z</time>
      </trkpt>
      <trkpt lat="43.59219" lon="5.05491">
        <ele>67</ele>
        <time>2019-12-16T13:36:19Z</time>
      </trkpt>
      <trkpt lat="43.59219" lon="5.05492">
        <ele>67</ele>
        <time>2019-12-16T13:36:20Z</time>
      </trkpt>
      <trkpt lat="43.5922" lon="5.05494">
        <ele>67</ele>
        <time>2019-12-16T13:36:21Z</time>
      </trkpt>
      <trkpt lat="43.5922" lon="5.05495">
        <ele>67</ele>
        <time>2019-12-16T13:36:22Z</time>
      </trkpt>
      <trkpt lat="43.59221" lon="5.05496">
        <ele>67</ele>
        <time>2019-12-16T13:36:23Z</time>
      </trkpt>
      <trkpt lat="43.59222" lon="5.05498">
        <ele>67</ele>
        <time>2019-12-16T13:36:24Z</time>
      </trkpt>
      <trkpt lat="43.59222" lon="5.05499">
        <ele>67</ele>
        <time>2019-12-16T13:36:25Z</time>
      </trkpt>
      <trkpt lat="43.59223" lon="5.055">
        <ele>67</ele>
        <time>2019-12-16T13:36:26Z</time>
      </trkpt>
      <trkpt lat="43.59223" lon="5.05501">
        <ele>67</ele>
        <time>2019-12-16T13:36:27Z</time>
      </trkpt>
      <trkpt lat="43.59224" lon="5.05503">
        <ele>67</ele>
        <time>2019-12-16T13:36:28Z</time>
      </trkpt>
      <trkpt lat="43.59225" lon="5.05504">
        <ele>67</ele>
        <time>2019-12-16T13:36:29Z</time>
      </trkpt>
      <trkpt lat="43.59225" lon="5.05505">
        <ele>67</ele>
        <time>2019-12-16T13:36:30Z</time>
      </trkpt>
      <trkpt lat="43.59226" lon="5.05507">
        <ele>67</ele>
        <time>2019-12-16T13:36:31Z</time>
      </trkpt>
      <trkpt lat="43.59226" lon="5.05508">
        <ele>67</ele>
        <time>2019-12-16T13:36:32Z</time>
      </trkpt>
      <trkpt lat="43.59227" lon="5.05509">
        <ele>67</ele>
        <time>2019-12-16T13:36:33Z</time>
      </trkpt>
      <trkpt lat="43.59227" lon="5.05511">
        <ele>67</ele>
        <time>2019-12-16T13:36:34Z</time>
      </trkpt>
      <trkpt lat="43.59228" lon="5.05512">
        <ele>67</ele>
        <time>2019-12-16T13:36:35Z</time>
      </trkpt>
      <trkpt lat="43.59228" lon="5.05513">
        <ele>67</ele>
        <time>2019-12-16T13:36:36Z</time>
      </trkpt>
      <trkpt lat="43.59229" lon="5.05514">
        <ele>67</ele>
        <time>2019-12-16T13:36:37Z</time>
      </trkpt>
      <trkpt lat="43.59229" lon="5.05516">
        <ele>67</ele>
        <time>2019-12-16T13:36:38Z</time>
      </trkpt>
      <trkpt lat="43.59229" lon="5.05517">
        <ele>67</ele>
        <time>2019-12-16T13:36:39Z</time>
      </trkpt>
      <trkpt lat="43.5923" lon="5.05518">
        <ele>67</ele>
        <time>2019-12-16T13:36:40Z</time>
      </trkpt>
      <trkpt lat="43.5923" lon="5.0552">
        <ele>67</ele>
        <time>2019-12-16T13:36:41Z</time>
      </trkpt>
      <trkpt lat="43.59231" lon="5.05521">
        <ele>67</ele>
        <time>2019-12-16T13:36:42Z</time>
      </trkpt>
      <trkpt lat="43.59231" lon="5.05522">
        <ele>67</ele>
        <time>2019-12-16T13:36:43Z</time>
      </trkpt>
      <trkpt lat="43.59232" lon="5.05524">
        <ele>67</ele>
        <time>2019-12-16T13:36:44Z</time>
      </trkpt>
      <trkpt lat="43.59232" lon="5.05525">
        <ele>67</ele>
        <time>2019-12-16T13:36:45Z</time>
      </trkpt>
      <trkpt lat="43.59232" lon="5.05526">
        <ele>67</ele>
        <time>2019-12-16T13:36:46Z</time>
      </trkpt>
      <trkpt lat="43.59233" lon="5.05527">
        <ele>67</ele>
        <time>2019-12-16T13:36:47Z</time>
      </trkpt>
      <trkpt lat="43.59233" lon="5.05529">
        <ele>67</ele>
        <time>2019-12-16T13:36:48Z</time>
      </trkpt>
      <trkpt lat="43.59233" lon="5.0553">
        <ele>67</ele>
        <time>2019-12-16T13:36:49Z</time>
      </trkpt>
      <trkpt lat="43.59234" lon="5.05531">
        <ele>67</ele>
        <time>2019-12-16T13:36:50Z</time>
      </trkpt>
      <trkpt lat="43.59234" lon="5.05533">
        <ele>67</ele>
        <time>2019-12-16T13:36:51Z</time>
      </trkpt>
      <trkpt lat="43.59235" lon="5.05534">
        <ele>67</ele>
        <time>2019-12-16T13:36:52Z</time>
      </trkpt>
      <trkpt lat="43.59235" lon="5.05535">
        <ele>67</ele>
        <time>2019-12-16T13:36:53Z</time>
      </trkpt>
      <trkpt lat="43.59235" lon="5.05536">
        <ele>67</ele>
        <time>2019-12-16T13:36:54Z</time>
      </trkpt>
      <trkpt lat="43.59236" lon="5.05538">
        <ele>67</ele>
        <time>2019-12-16T13:36:55Z</time>
      </trkpt>
      <trkpt lat="43.59236" lon="5.05539">
        <ele>67</ele>
        <time>2019-12-16T13:36:56Z</time>
      </trkpt>
      <trkpt lat="43.59237" lon="5.0554">
        <ele>67</ele>
        <time>2019-12-16T13:36:57Z</time>
      </trkpt>
      <trkpt lat="43.59237" lon="5.05541">
        <ele>67</ele>
        <time>2019-12-16T13:36:58Z</time>
      </trkpt>
      <trkpt lat="43.59238" lon="5.05543">
        <ele>67</ele>
        <time>2019-12-16T13:36:59Z</time>
      </trkpt>
      <trkpt lat="43.59238" lon="5.05544">
        <ele>67</ele>
        <time>2019-12-16T13:37:00Z</time>
      </trkpt>
      <trkpt lat="43.59239" lon="5.05545">
        <ele>67</ele>
        <time>2019-12-16T13:37:01Z</time>
      </trkpt>
      <trkpt lat="43.59239" lon="5.05546">
        <ele>67</ele>
        <time>2019-12-16T13:37:02Z</time>
      </trkpt>
      <trkpt lat="43.5924" lon="5.05547">
        <ele>67</ele>
        <time>2019-12-16T13:37:03Z</time>
      </trkpt>
      <trkpt lat="43.59241" lon="5.05549">
        <ele>67</ele>
        <time>2019-12-16T13:37:04Z</time>
      </trkpt>
      <trkpt lat="43.59241" lon="5.0555">
        <ele>67</ele>
        <time>2019-12-16T13:37:05Z</time>
      </trkpt>
      <trkpt lat="43.59242" lon="5.05551">
        <ele>67</ele>
        <time>2019-12-16T13:37:06Z</time>
      </trkpt>
      <trkpt lat="43.59242" lon="5.05552">
        <ele>67</ele>
        <time>2019-12-16T13:37:07Z</time>
      </trkpt>
      <trkpt lat="43.59243" lon="5.05554">
        <ele>67</ele>
        <time>2019-12-16T13:37:08Z</time>
      </trkpt>
      <trkpt lat="43.59244" lon="5.05555">
        <ele>67</ele>
        <time>2019-12-16T13:37:09Z</time>
      </trkpt>
      <trkpt lat="43.59244" lon="5.05556">
        <ele>67</ele>
        <time>2019-12-16T13:37:10Z</time>
      </trkpt>
      <trkpt lat="43.59245" lon="5.05557">
        <ele>67</ele>
        <time>2019-12-16T13:37:11Z</time>
      </trkpt>
      <trkpt lat="43.59245" lon="5.05558">
        <ele>67</ele>
        <time>2019-12-16T13:37:12Z</time>
      </trkpt>
      <trkpt lat="43.59245" lon="5.0556">
        <ele>67</ele>
        <time>2019-12-16T13:37:13Z</time>
      </trkpt>
      <trkpt lat="43.59246" lon="5.05561">
        <ele>67</ele>
        <time>2019-12-16T13:37:14Z</time>
      </trkpt>
      <trkpt lat="43.59246" lon="5.05562">
        <ele>67</ele>
        <time>2019-12-16T13:37:15Z</time>
      </trkpt>
      <trkpt lat="43.59246" lon="5.05563">
        <ele>68</ele>
        <time>2019-12-16T13:37:16Z</time>
      </trkpt>
      <trkpt lat="43.59247" lon="5.05565">
        <ele>68</ele>
        <time>2019-12-16T13:37:17Z</time>
      </trkpt>
      <trkpt lat="43.59247" lon="5.05566">
        <ele>68</ele>
        <time>2019-12-16T13:37:18Z</time>
      </trkpt>
      <trkpt lat="43.59247" lon="5.05567">
        <ele>68</ele>
        <time>2019-12-16T13:37:19Z</time>
      </trkpt>
      <trkpt lat="43.59247" lon="5.05568">
        <ele>68</ele>
        <time>2019-12-16T13:37:20Z</time>
      </trkpt>
      <trkpt lat="43.59247" lon="5.0557">
        <ele>68</ele>
        <time>2019-12-16T13:37:21Z</time>
      </trkpt>
      <trkpt lat="43.59246" lon="5.05571">
        <ele>68</ele>
        <time>2019-12-16T13:37:22Z</time>
      </trkpt>
      <trkpt lat="43.59246" lon="5.05573">
        <ele>68</ele>
        <time>2019-12-16T13:37:23Z</time>
      </trkpt>
      <trkpt lat="43.59246" lon="5.05574">
        <ele>68</ele>
        <time>2019-12-16T13:37:24Z</time>
      </trkpt>
      <trkpt lat="43.59245" lon="5.05575">
        <ele>68</ele>
        <time>2019-12-16T13:37:25Z</time>
      </trkpt>
      <trkpt lat="43.59245" lon="5.05576">
        <ele>68</ele>
        <time>2019-12-16T13:37:26Z</time>
      </trkpt>
      <trkpt lat="43.59245" lon="5.05578">
        <ele>68</ele>
        <time>2019-12-16T13:37:27Z</time>
      </trkpt>
      <trkpt lat="43.59245" lon="5.05579">
        <ele>68</ele>
        <time>2019-12-16T13:37:28Z</time>
      </trkpt>
      <trkpt lat="43.59245" lon="5.0558">
        <ele>68</ele>
        <time>2019-12-16T13:37:29Z</time>
      </trkpt>
      <trkpt lat="43.59244" lon="5.05582">
        <ele>68</ele>
        <time>2019-12-16T13:37:30Z</time>
      </trkpt>
      <trkpt lat="43.59244" lon="5.05583">
        <ele>68</ele>
        <time>2019-12-16T13:37:31Z</time>
      </trkpt>
      <trkpt lat="43.59243" lon="5.05585">
        <ele>69</ele>
        <time>2019-12-16T13:37:32Z</time>
      </trkpt>
      <trkpt lat="43.59243" lon="5.05586">
        <ele>69</ele>
        <time>2019-12-16T13:37:33Z</time>
      </trkpt>
      <trkpt lat="43.59242" lon="5.05587">
        <ele>69</ele>
        <time>2019-12-16T13:37:34Z</time>
      </trkpt>
      <trkpt lat="43.59241" lon="5.05588">
        <ele>69</ele>
        <time>2019-12-16T13:37:35Z</time>
      </trkpt>
      <trkpt lat="43.5924" lon="5.05587">
        <ele>69</ele>
        <time>2019-12-16T13:37:36Z</time>
      </trkpt>
      <trkpt lat="43.59239" lon="5.05587">
        <ele>69</ele>
        <time>2019-12-16T13:37:37Z</time>
      </trkpt>
      <trkpt lat="43.59239" lon="5.05585">
        <ele>69</ele>
        <time>2019-12-16T13:37:38Z</time>
      </trkpt>
      <trkpt lat="43.59238" lon="5.05584">
        <ele>69</ele>
        <time>2019-12-16T13:37:39Z</time>
      </trkpt>
      <trkpt lat="43.59237" lon="5.05583">
        <ele>68</ele>
        <time>2019-12-16T13:37:40Z</time>
      </trkpt>
      <trkpt lat="43.59236" lon="5.05582">
        <ele>68</ele>
        <time>2019-12-16T13:37:41Z</time>
      </trkpt>
      <trkpt lat="43.59235" lon="5.05581">
        <ele>68</ele>
        <time>2019-12-16T13:37:42Z</time>
      </trkpt>
      <trkpt lat="43.59234" lon="5.05581">
        <ele>68</ele>
        <time>2019-12-16T13:37:43Z</time>
      </trkpt>
      <trkpt lat="43.59233" lon="5.0558">
        <ele>68</ele>
        <time>2019-12-16T13:37:44Z</time>
      </trkpt>
      <trkpt lat="43.59232" lon="5.05579">
        <ele>68</ele>
        <time>2019-12-16T13:37:45Z</time>
      </trkpt>
      <trkpt lat="43.59231" lon="5.05579">
        <ele>68</ele>
        <time>2019-12-16T13:37:46Z</time>
      </trkpt>
      <trkpt lat="43.5923" lon="5.05578">
        <ele>68</ele>
        <time>2019-12-16T13:37:47Z</time>
      </trkpt>
      <trkpt lat="43.59229" lon="5.05577">
        <ele>68</ele>
        <time>2019-12-16T13:37:48Z</time>
      </trkpt>
      <trkpt lat="43.59228" lon="5.05576">
        <ele>68</ele>
        <time>2019-12-16T13:37:49Z</time>
      </trkpt>
      <trkpt lat="43.59227" lon="5.05575">
        <ele>68</ele>
        <time>2019-12-16T13:37:50Z</time>
      </trkpt>
      <trkpt lat="43.59226" lon="5.05574">
        <ele>68</ele>
        <time>2019-12-16T13:37:51Z</time>
      </trkpt>
      <trkpt lat="43.59225" lon="5.05573">
        <ele>67</ele>
        <time>2019-12-16T13:37:52Z</time>
      </trkpt>
      <trkpt lat="43.59224" lon="5.05572">
        <ele>67</ele>
        <time>2019-12-16T13:37:53Z</time>
      </trkpt>
      <trkpt lat="43.59223" lon="5.05571">
        <ele>67</ele>
        <time>2019-12-16T13:37:54Z</time>
      </trkpt>
      <trkpt lat="43.59222" lon="5.05571">
        <ele>67</ele>
        <time>2019-12-16T13:37:55Z</time>
      </trkpt>
      <trkpt lat="43.59221" lon="5.0557">
        <ele>67</ele>
        <time>2019-12-16T13:37:56Z</time>
      </trkpt>
      <trkpt lat="43.5922" lon="5.0557">
        <ele>67</ele>
        <time>2019-12-16T13:37:57Z</time>
      </trkpt>
      <trkpt lat="43.59219" lon="5.05569">
        <ele>67</ele>
        <time>2019-12-16T13:37:58Z</time>
      </trkpt>
      <trkpt lat="43.59218" lon="5.05569">
        <ele>67</ele>
        <time>2019-12-16T13:37:59Z</time>
      </trkpt>
      <trkpt lat="43.59217" lon="5.05569">
        <ele>67</ele>
        <time>2019-12-16T13:38:00Z</time>
      </trkpt>
      <trkpt lat="43.59216" lon="5.05568">
        <ele>67</ele>
        <time>2019-12-16T13:38:01Z</time>
      </trkpt>
      <trkpt lat="43.59215" lon="5.05568">
        <ele>67</ele>
        <time>2019-12-16T13:38:02Z</time>
      </trkpt>
      <trkpt lat="43.59213" lon="5.05567">
        <ele>67</ele>
        <time>2019-12-16T13:38:03Z</time>
      </trkpt>
      <trkpt lat="43.59212" lon="5.05567">
        <ele>67</ele>
        <time>2019-12-16T13:38:04Z</time>
      </trkpt>
      <trkpt lat="43.59211" lon="5.05567">
        <ele>67</ele>
        <time>2019-12-16T13:38:05Z</time>
      </trkpt>
      <trkpt lat="43.5921" lon="5.05566">
        <ele>67</ele>
        <time>2019-12-16T13:38:06Z</time>
      </trkpt>
      <trkpt lat="43.59209" lon="5.05566">
        <ele>67</ele>
        <time>2019-12-16T13:38:07Z</time>
      </trkpt>
      <trkpt lat="43.59208" lon="5.05565">
        <ele>67</ele>
        <time>2019-12-16T13:38:08Z</time>
      </trkpt>
      <trkpt lat="43.59207" lon="5.05565">
        <ele>67</ele>
        <time>2019-12-16T13:38:09Z</time>
      </trkpt>
      <trkpt lat="43.59206" lon="5.05564">
        <ele>67</ele>
        <time>2019-12-16T13:38:10Z</time>
      </trkpt>
      <trkpt lat="43.59205" lon="5.05564">
        <ele>67</ele>
        <time>2019-12-16T13:38:11Z</time>
      </trkpt>
      <trkpt lat="43.59204" lon="5.05564">
        <ele>67</ele>
        <time>2019-12-16T13:38:12Z</time>
      </trkpt>
      <trkpt lat="43.59203" lon="5.05563">
        <ele>67</ele>
        <time>2019-12-16T13:38:13Z</time>
      </trkpt>
      <trkpt lat="43.59201" lon="5.05563">
        <ele>67</ele>
        <time>2019-12-16T13:38:14Z</time>
      </trkpt>
      <trkpt lat="43.592" lon="5.05563">
        <ele>67</ele>
        <time>2019-12-16T13:38:15Z</time>
      </trkpt>
      <trkpt lat="43.59199" lon="5.05562">
        <ele>67</ele>
        <time>2019-12-16T13:38:16Z</time>
      </trkpt>
      <trkpt lat="43.59198" lon="5.05562">
        <ele>67</ele>
        <time>2019-12-16T13:38:17Z</time>
      </trkpt>
      <trkpt lat="43.59197" lon="5.05562">
        <ele>67</ele>
        <time>2019-12-16T13:38:18Z</time>
      </trkpt>
      <trkpt lat="43.59196" lon="5.05561">
        <ele>67</ele>
        <time>2019-12-16T13:38:19Z</time>
      </trkpt>
      <trkpt lat="43.59195" lon="5.05561">
        <ele>67</ele>
        <time>2019-12-16T13:38:20Z</time>
      </trkpt>
      <trkpt lat="43.59195" lon="5.05561">
        <ele>67</ele>
        <time>2019-12-16T13:38:21Z</time>
      </trkpt>
      <trkpt lat="43.59194" lon="5.05561">
        <ele>67</ele>
        <time>2019-12-16T13:38:22Z</time>
      </trkpt>
      <trkpt lat="43.59193" lon="5.05561">
        <ele>67</ele>
        <time>2019-12-16T13:38:23Z</time>
      </trkpt>
      <trkpt lat="43.59192" lon="5.05561">
        <ele>67</ele>
        <time>2019-12-16T13:38:24Z</time>
      </trkpt>
      <trkpt lat="43.59191" lon="5.0556">
        <ele>67</ele>
        <time>2019-12-16T13:38:25Z</time>
      </trkpt>
      <trkpt lat="43.5919" lon="5.0556">
        <ele>67</ele>
        <time>2019-12-16T13:38:26Z</time>
      </trkpt>
      <trkpt lat="43.59189" lon="5.0556">
        <ele>67</ele>
        <time>2019-12-16T13:38:27Z</time>
      </trkpt>
      <trkpt lat="43.59189" lon="5.0556">
        <ele>67</ele>
        <time>2019-12-16T13:38:28Z</time>
      </trkpt>
      <trkpt lat="43.59188" lon="5.0556">
        <ele>67</ele>
        <time>2019-12-16T13:38:29Z</time>
      </trkpt>
      <trkpt lat="43.59188" lon="5.05561">
        <ele>67</ele>
        <time>2019-12-16T13:38:30Z</time>
      </trkpt>
      <trkpt lat="43.59188" lon="5.05562">
        <ele>67</ele>
        <time>2019-12-16T13:38:31Z</time>
      </trkpt>
      <trkpt lat="43.59188" lon="5.05563">
        <ele>68</ele>
        <time>2019-12-16T13:38:32Z</time>
      </trkpt>
      <trkpt lat="43.59188" lon="5.05564">
        <ele>68</ele>
        <time>2019-12-16T13:38:33Z</time>
      </trkpt>
      <trkpt lat="43.59188" lon="5.05564">
        <ele>68</ele>
        <time>2019-12-16T13:38:34Z</time>
      </trkpt>
      <trkpt lat="43.59188" lon="5.05565">
        <ele>68</ele>
        <time>2019-12-16T13:38:35Z</time>
      </trkpt>
      <trkpt lat="43.59188" lon="5.05565">
        <ele>68</ele>
        <time>2019-12-16T13:38:36Z</time>
      </trkpt>
      <trkpt lat="43.59188" lon="5.05565">
        <ele>68</ele>
        <time>2019-12-16T13:38:37Z</time>
      </trkpt>
      <trkpt lat="43.59188" lon="5.05566">
        <ele>68</ele>
        <time>2019-12-16T13:38:38Z</time>
      </trkpt>
      <trkpt lat="43.59188" lon="5.05566">
        <ele>68</ele>
        <time>2019-12-16T13:38:39Z</time>
      </trkpt>
      <trkpt lat="43.59188" lon="5.05566">
        <ele>68</ele>
        <time>2019-12-16T13:38:40Z</time>
      </trkpt>
      <trkpt lat="43.59188" lon="5.05566">
        <ele>68</ele>
        <time>2019-12-16T13:38:41Z</time>
      </trkpt>
      <trkpt lat="43.59188" lon="5.05566">
        <ele>68</ele>
        <time>2019-12-16T13:38:42Z</time>
      </trkpt>
      <trkpt lat="43.59188" lon="5.05566">
        <ele>68</ele>
        <time>2019-12-16T13:38:43Z</time>
      </trkpt>
      <trkpt lat="43.59188" lon="5.05566">
        <ele>68</ele>
        <time>2019-12-16T13:38:44Z</time>
      </trkpt>
      <trkpt lat="43.59188" lon="5.05566">
        <ele>68</ele>
        <time>2019-12-16T13:38:45Z</time>
      </trkpt>
      <trkpt lat="43.59188" lon="5.05566">
        <ele>68</ele>
        <time>2019-12-16T13:38:46Z</time>
      </trkpt>
      <trkpt lat="43.59188" lon="5.05566">
        <ele>68</ele>
        <time>2019-12-16T13:38:47Z</time>
      </trkpt>
      <trkpt lat="43.59188" lon="5.05566">
        <ele>68</ele>
        <time>2019-12-16T13:38:48Z</time>
      </trkpt>
      <trkpt lat="43.59188" lon="5.05566">
        <ele>68</ele>
        <time>2019-12-16T13:38:49Z</time>
      </trkpt>
      <trkpt lat="43.59188" lon="5.05566">
        <ele>68</ele>
        <time>2019-12-16T13:38:50Z</time>
      </trkpt>
      <trkpt lat="43.59188" lon="5.05566">
        <ele>68</ele>
        <time>2019-12-16T13:38:51Z</time>
      </trkpt>
      <trkpt lat="43.59188" lon="5.05566">
        <ele>68</ele>
        <time>2019-12-16T13:38:52Z</time>
      </trkpt>
      <trkpt lat="43.59188" lon="5.05566">
        <ele>68</ele>
        <time>2019-12-16T13:38:53Z</time>
      </trkpt>
      <trkpt lat="43.59188" lon="5.05566">
        <ele>68</ele>
        <time>2019-12-16T13:38:54Z</time>
      </trkpt>
      <trkpt lat="43.59188" lon="5.05566">
        <ele>68</ele>
        <time>2019-12-16T13:38:55Z</time>
      </trkpt>
      <trkpt lat="43.59188" lon="5.05566">
        <ele>68</ele>
        <time>2019-12-16T13:38:56Z</time>
      </trkpt>
      <trkpt lat="43.59188" lon="5.05566">
        <ele>68</ele>
        <time>2019-12-16T13:38:57Z</time>
      </trkpt>
      <trkpt lat="43.59188" lon="5.05566">
        <ele>68</ele>
        <time>2019-12-16T13:38:58Z</time>
      </trkpt>
      <trkpt lat="43.59188" lon="5.05566">
        <ele>68</ele>
        <time>2019-12-16T13:38:59Z</time>
      </trkpt>
      <trkpt lat="43.59188" lon="5.05566">
        <ele>68</ele>
        <time>2019-12-16T13:39:00Z</time>
      </trkpt>
      <trkpt lat="43.59188" lon="5.05566">
        <ele>68</ele>
        <time>2019-12-16T13:39:01Z</time>
      </trkpt>
      <trkpt lat="43.59188" lon="5.05566">
        <ele>68</ele>
        <time>2019-12-16T13:39:02Z</time>
      </trkpt>
      <trkpt lat="43.59188" lon="5.05566">
        <ele>68</ele>
        <time>2019-12-16T13:39:03Z</time>
      </trkpt>
      <trkpt lat="43.59188" lon="5.05566">
        <ele>68</ele>
        <time>2019-12-16T13:39:04Z</time>
      </trkpt>
      <trkpt lat="43.59188" lon="5.05566">
        <ele>68</ele>
        <time>2019-12-16T13:39:05Z</time>
      </trkpt>
      <trkpt lat="43.59188" lon="5.05566">
        <ele>68</ele>
        <time>2019-12-16T13:39:06Z</time>
      </trkpt>
      <trkpt lat="43.59188" lon="5.05566">
        <ele>68</ele>
        <time>2019-12-16T13:39:07Z</time>
      </trkpt>
      <trkpt lat="43.59188" lon="5.05566">
        <ele>68</ele>
        <time>2019-12-16T13:39:08Z</time>
      </trkpt>
      <trkpt lat="43.59188" lon="5.05566">
        <ele>68</ele>
        <time>2019-12-16T13:39:09Z</time>
      </trkpt>
      <trkpt lat="43.59188" lon="5.05566">
        <ele>68</ele>
        <time>2019-12-16T13:39:10Z</time>
      </trkpt>
      <trkpt lat="43.59188" lon="5.05566">
        <ele>68</ele>
        <time>2019-12-16T13:39:11Z</time>
      </trkpt>
      <trkpt lat="43.59188" lon="5.05566">
        <ele>68</ele>
        <time>2019-12-16T13:39:12Z</time>
      </trkpt>
      <trkpt lat="43.59188" lon="5.05566">
        <ele>68</ele>
        <time>2019-12-16T13:39:13Z</time>
      </trkpt>
      <trkpt lat="43.59188" lon="5.05566">
        <ele>68</ele>
        <time>2019-12-16T13:39:14Z</time>
      </trkpt>
      <trkpt lat="43.59188" lon="5.05566">
        <ele>68</ele>
        <time>2019-12-16T13:39:15Z</time>
      </trkpt>
      <trkpt lat="43.59188" lon="5.05566">
        <ele>68</ele>
        <time>2019-12-16T13:39:16Z</time>
      </trkpt>
      <trkpt lat="43.59188" lon="5.05566">
        <ele>68</ele>
        <time>2019-12-16T13:39:17Z</time>
      </trkpt>
      <trkpt lat="43.59188" lon="5.05566">
        <ele>68</ele>
        <time>2019-12-16T13:39:18Z</time>
      </trkpt>
      <trkpt lat="43.59188" lon="5.05566">
        <ele>68</ele>
        <time>2019-12-16T13:39:19Z</time>
      </trkpt>
      <trkpt lat="43.59188" lon="5.05566">
        <ele>68</ele>
        <time>2019-12-16T13:39:20Z</time>
      </trkpt>
      <trkpt lat="43.59188" lon="5.05566">
        <ele>68</ele>
        <time>2019-12-16T13:39:21Z</time>
      </trkpt>
      <trkpt lat="43.59188" lon="5.05566">
        <ele>68</ele>
        <time>2019-12-16T13:39:22Z</time>
      </trkpt>
      <trkpt lat="43.59188" lon="5.05566">
        <ele>68</ele>
        <time>2019-12-16T13:39:23Z</time>
      </trkpt>
      <trkpt lat="43.59188" lon="5.05566">
        <ele>68</ele>
        <time>2019-12-16T13:39:24Z</time>
      </trkpt>
      <trkpt lat="43.59188" lon="5.05566">
        <ele>68</ele>
        <time>2019-12-16T13:39:25Z</time>
      </trkpt>
      <trkpt lat="43.59188" lon="5.05566">
        <ele>68</ele>
        <time>2019-12-16T13:39:26Z</time>
      </trkpt>
      <trkpt lat="43.59188" lon="5.05566">
        <ele>68</ele>
        <time>2019-12-16T13:39:27Z</time>
      </trkpt>
      <trkpt lat="43.59188" lon="5.05566">
        <ele>68</ele>
        <time>2019-12-16T13:39:28Z</time>
      </trkpt>
      <trkpt lat="43.59188" lon="5.05566">
        <ele>68</ele>
        <time>2019-12-16T13:39:29Z</time>
      </trkpt>
      <trkpt lat="43.59188" lon="5.05566">
        <ele>68</ele>
        <time>2019-12-16T13:39:30Z</time>
      </trkpt>
      <trkpt lat="43.59188" lon="5.05566">
        <ele>68</ele>
        <time>2019-12-16T13:39:31Z</time>
      </trkpt>
      <trkpt lat="43.59188" lon="5.05566">
        <ele>68</ele>
        <time>2019-12-16T13:39:32Z</time>
      </trkpt>
      <trkpt lat="43.59188" lon="5.05566">
        <ele>68</ele>
        <time>2019-12-16T13:39:33Z</time>
      </trkpt>
      <trkpt lat="43.59188" lon="5.05566">
        <ele>68</ele>
        <time>2019-12-16T13:39:34Z</time>
      </trkpt>
      <trkpt lat="43.59188" lon="5.05566">
        <ele>68</ele>
        <time>2019-12-16T13:39:35Z</time>
      </trkpt>
      <trkpt lat="43.59188" lon="5.05566">
        <ele>68</ele>
        <time>2019-12-16T13:39:36Z</time>
      </trkpt>
      <trkpt lat="43.59189" lon="5.05566">
        <ele>68</ele>
        <time>2019-12-16T13:39:37Z</time>
      </trkpt>
      <trkpt lat="43.59189" lon="5.05566">
        <ele>68</ele>
        <time>2019-12-16T13:39:38Z</time>
      </trkpt>
      <trkpt lat="43.59188" lon="5.05566">
        <ele>68</ele>
        <time>2019-12-16T13:39:39Z</time>
      </trkpt>
      <trkpt lat="43.59188" lon="5.05566">
        <ele>68</ele>
        <time>2019-12-16T13:39:40Z</time>
      </trkpt>
      <trkpt lat="43.59187" lon="5.05566">
        <ele>68</ele>
        <time>2019-12-16T13:39:41Z</time>
      </trkpt>
      <trkpt lat="43.59186" lon="5.05566">
        <ele>68</ele>
        <time>2019-12-16T13:39:42Z</time>
      </trkpt>
      <trkpt lat="43.59186" lon="5.05566">
        <ele>68</ele>
        <time>2019-12-16T13:39:43Z</time>
      </trkpt>
      <trkpt lat="43.59184" lon="5.05566">
        <ele>68</ele>
        <time>2019-12-16T13:39:44Z</time>
      </trkpt>
      <trkpt lat="43.59183" lon="5.05567">
        <ele>68</ele>
        <time>2019-12-16T13:39:45Z</time>
      </trkpt>
      <trkpt lat="43.59181" lon="5.05567">
        <ele>68</ele>
        <time>2019-12-16T13:39:46Z</time>
      </trkpt>
      <trkpt lat="43.59179" lon="5.05567">
        <ele>68</ele>
        <time>2019-12-16T13:39:47Z</time>
      </trkpt>
      <trkpt lat="43.59176" lon="5.05568">
        <ele>68</ele>
        <time>2019-12-16T13:39:48Z</time>
      </trkpt>
      <trkpt lat="43.59174" lon="5.05568">
        <ele>68</ele>
        <time>2019-12-16T13:39:49Z</time>
      </trkpt>
      <trkpt lat="43.59171" lon="5.05568">
        <ele>68</ele>
        <time>2019-12-16T13:39:50Z</time>
      </trkpt>
      <trkpt lat="43.59169" lon="5.05568">
        <ele>68</ele>
        <time>2019-12-16T13:39:51Z</time>
      </trkpt>
      <trkpt lat="43.59167" lon="5.05568">
        <ele>68</ele>
        <time>2019-12-16T13:39:52Z</time>
      </trkpt>
      <trkpt lat="43.59165" lon="5.05568">
        <ele>68</ele>
        <time>2019-12-16T13:39:53Z</time>
      </trkpt>
      <trkpt lat="43.59163" lon="5.05568">
        <ele>68</ele>
        <time>2019-12-16T13:39:54Z</time>
      </trkpt>
      <trkpt lat="43.59162" lon="5.05569">
        <ele>68</ele>
        <time>2019-12-16T13:39:55Z</time>
      </trkpt>
      <trkpt lat="43.5916" lon="5.05569">
        <ele>68</ele>
        <time>2019-12-16T13:39:56Z</time>
      </trkpt>
      <trkpt lat="43.59159" lon="5.0557">
        <ele>68</ele>
        <time>2019-12-16T13:39:57Z</time>
      </trkpt>
      <trkpt lat="43.59158" lon="5.0557">
        <ele>68</ele>
        <time>2019-12-16T13:39:58Z</time>
      </trkpt>
      <trkpt lat="43.59157" lon="5.05571">
        <ele>68</ele>
        <time>2019-12-16T13:39:59Z</time>
      </trkpt>
      <trkpt lat="43.59156" lon="5.05572">
        <ele>68</ele>
        <time>2019-12-16T13:40:00Z</time>
      </trkpt>
      <trkpt lat="43.59156" lon="5.05573">
        <ele>68</ele>
        <time>2019-12-16T13:40:01Z</time>
      </trkpt>
      <trkpt lat="43.59155" lon="5.05574">
        <ele>68</ele>
        <time>2019-12-16T13:40:02Z</time>
      </trkpt>
      <trkpt lat="43.59154" lon="5.05575">
        <ele>68</ele>
        <time>2019-12-16T13:40:03Z</time>
      </trkpt>
      <trkpt lat="43.59154" lon="5.05577">
        <ele>68</ele>
        <time>2019-12-16T13:40:04Z</time>
      </trkpt>
      <trkpt lat="43.59153" lon="5.05579">
        <ele>68</ele>
        <time>2019-12-16T13:40:05Z</time>
      </trkpt>
      <trkpt lat="43.59153" lon="5.0558">
        <ele>68</ele>
        <time>2019-12-16T13:40:06Z</time>
      </trkpt>
      <trkpt lat="43.59153" lon="5.05582">
        <ele>68</ele>
        <time>2019-12-16T13:40:07Z</time>
      </trkpt>
      <trkpt lat="43.59153" lon="5.05584">
        <ele>71</ele>
        <time>2019-12-16T13:40:08Z</time>
      </trkpt>
      <trkpt lat="43.59152" lon="5.05586">
        <ele>71</ele>
        <time>2019-12-16T13:40:09Z</time>
      </trkpt>
      <trkpt lat="43.59152" lon="5.05588">
        <ele>71</ele>
        <time>2019-12-16T13:40:10Z</time>
      </trkpt>
      <trkpt lat="43.59152" lon="5.0559">
        <ele>71</ele>
        <time>2019-12-16T13:40:11Z</time>
      </trkpt>
      <trkpt lat="43.59152" lon="5.05591">
        <ele>71</ele>
        <time>2019-12-16T13:40:12Z</time>
      </trkpt>
      <trkpt lat="43.59152" lon="5.05593">
        <ele>71</ele>
        <time>2019-12-16T13:40:13Z</time>
      </trkpt>
      <trkpt lat="43.59151" lon="5.05595">
        <ele>71</ele>
        <time>2019-12-16T13:40:14Z</time>
      </trkpt>
      <trkpt lat="43.59151" lon="5.05597">
        <ele>71</ele>
        <time>2019-12-16T13:40:15Z</time>
      </trkpt>
      <trkpt lat="43.59151" lon="5.05599">
        <ele>72</ele>
        <time>2019-12-16T13:40:16Z</time>
      </trkpt>
      <trkpt lat="43.59151" lon="5.056">
        <ele>72</ele>
        <time>2019-12-16T13:40:17Z</time>
      </trkpt>
      <trkpt lat="43.59151" lon="5.05602">
        <ele>72</ele>
        <time>2019-12-16T13:40:18Z</time>
      </trkpt>
      <trkpt lat="43.5915" lon="5.05604">
        <ele>72</ele>
        <time>2019-12-16T13:40:19Z</time>
      </trkpt>
      <trkpt lat="43.5915" lon="5.05606">
        <ele>72</ele>
        <time>2019-12-16T13:40:20Z</time>
      </trkpt>
      <trkpt lat="43.5915" lon="5.05608">
        <ele>72</ele>
        <time>2019-12-16T13:40:21Z</time>
      </trkpt>
      <trkpt lat="43.5915" lon="5.0561">
        <ele>72</ele>
        <time>2019-12-16T13:40:22Z</time>
      </trkpt>
      <trkpt lat="43.5915" lon="5.05612">
        <ele>72</ele>
        <time>2019-12-16T13:40:23Z</time>
      </trkpt>
      <trkpt lat="43.5915" lon="5.05614">
        <ele>73</ele>
        <time>2019-12-16T13:40:24Z</time>
      </trkpt>
      <trkpt lat="43.5915" lon="5.05616">
        <ele>73</ele>
        <time>2019-12-16T13:40:25Z</time>
      </trkpt>
      <trkpt lat="43.5915" lon="5.05618">
        <ele>73</ele>
        <time>2019-12-16T13:40:26Z</time>
      </trkpt>
      <trkpt lat="43.5915" lon="5.05619">
        <ele>73</ele>
        <time>2019-12-16T13:40:27Z</time>
      </trkpt>
      <trkpt lat="43.5915" lon="5.05621">
        <ele>73</ele>
        <time>2019-12-16T13:40:28Z</time>
      </trkpt>
      <trkpt lat="43.5915" lon="5.05623">
        <ele>73</ele>
        <time>2019-12-16T13:40:29Z</time>
      </trkpt>
      <trkpt lat="43.59151" lon="5.05624">
        <ele>73</ele>
        <time>2019-12-16T13:40:30Z</time>
      </trkpt>
      <trkpt lat="43.59151" lon="5.05626">
        <ele>73</ele>
        <time>2019-12-16T13:40:31Z</time>
      </trkpt>
      <trkpt lat="43.59151" lon="5.05628">
        <ele>73</ele>
        <time>2019-12-16T13:40:32Z</time>
      </trkpt>
      <trkpt lat="43.59152" lon="5.0563">
        <ele>73</ele>
        <time>2019-12-16T13:40:33Z</time>
      </trkpt>
      <trkpt lat="43.59152" lon="5.05632">
        <ele>74</ele>
        <time>2019-12-16T13:40:34Z</time>
      </trkpt>
      <trkpt lat="43.59152" lon="5.05634">
        <ele>74</ele>
        <time>2019-12-16T13:40:35Z</time>
      </trkpt>
      <trkpt lat="43.59151" lon="5.05636">
        <ele>74</ele>
        <time>2019-12-16T13:40:36Z</time>
      </trkpt>
      <trkpt lat="43.5915" lon="5.05638">
        <ele>74</ele>
        <time>2019-12-16T13:40:37Z</time>
      </trkpt>
      <trkpt lat="43.59149" lon="5.05639">
        <ele>74</ele>
        <time>2019-12-16T13:40:38Z</time>
      </trkpt>
      <trkpt lat="43.59148" lon="5.05639">
        <ele>74</ele>
        <time>2019-12-16T13:40:39Z</time>
      </trkpt>
      <trkpt lat="43.59146" lon="5.05639">
        <ele>74</ele>
        <time>2019-12-16T13:40:40Z</time>
      </trkpt>
      <trkpt lat="43.59144" lon="5.05639">
        <ele>74</ele>
        <time>2019-12-16T13:40:41Z</time>
      </trkpt>
      <trkpt lat="43.59142" lon="5.05639">
        <ele>74</ele>
        <time>2019-12-16T13:40:42Z</time>
      </trkpt>
      <trkpt lat="43.5914" lon="5.05639">
        <ele>74</ele>
        <time>2019-12-16T13:40:43Z</time>
      </trkpt>
      <trkpt lat="43.59139" lon="5.05638">
        <ele>74</ele>
        <time>2019-12-16T13:40:44Z</time>
      </trkpt>
      <trkpt lat="43.59137" lon="5.05638">
        <ele>74</ele>
        <time>2019-12-16T13:40:45Z</time>
      </trkpt>
      <trkpt lat="43.59135" lon="5.05638">
        <ele>74</ele>
        <time>2019-12-16T13:40:46Z</time>
      </trkpt>
      <trkpt lat="43.59134" lon="5.05637">
        <ele>74</ele>
        <time>2019-12-16T13:40:47Z</time>
      </trkpt>
      <trkpt lat="43.59132" lon="5.05637">
        <ele>74</ele>
        <time>2019-12-16T13:40:48Z</time>
      </trkpt>
      <trkpt lat="43.59131" lon="5.05636">
        <ele>74</ele>
        <time>2019-12-16T13:40:49Z</time>
      </trkpt>
      <trkpt lat="43.5913" lon="5.05636">
        <ele>74</ele>
        <time>2019-12-16T13:40:50Z</time>
      </trkpt>
      <trkpt lat="43.59128" lon="5.05636">
        <ele>74</ele>
        <time>2019-12-16T13:40:51Z</time>
      </trkpt>
      <trkpt lat="43.59127" lon="5.05636">
        <ele>74</ele>
        <time>2019-12-16T13:40:52Z</time>
      </trkpt>
      <trkpt lat="43.59125" lon="5.05635">
        <ele>74</ele>
        <time>2019-12-16T13:40:53Z</time>
      </trkpt>
      <trkpt lat="43.59124" lon="5.05635">
        <ele>74</ele>
        <time>2019-12-16T13:40:54Z</time>
      </trkpt>
      <trkpt lat="43.59123" lon="5.05635">
        <ele>74</ele>
        <time>2019-12-16T13:40:55Z</time>
      </trkpt>
      <trkpt lat="43.59121" lon="5.05634">
        <ele>74</ele>
        <time>2019-12-16T13:40:56Z</time>
      </trkpt>
      <trkpt lat="43.5912" lon="5.05634">
        <ele>74</ele>
        <time>2019-12-16T13:40:57Z</time>
      </trkpt>
      <trkpt lat="43.59119" lon="5.05634">
        <ele>74</ele>
        <time>2019-12-16T13:40:58Z</time>
      </trkpt>
      <trkpt lat="43.59117" lon="5.05633">
        <ele>74</ele>
        <time>2019-12-16T13:40:59Z</time>
      </trkpt>
      <trkpt lat="43.59116" lon="5.05633">
        <ele>74</ele>
        <time>2019-12-16T13:41:00Z</time>
      </trkpt>
      <trkpt lat="43.59115" lon="5.05633">
        <ele>74</ele>
        <time>2019-12-16T13:41:01Z</time>
      </trkpt>
      <trkpt lat="43.59113" lon="5.05633">
        <ele>74</ele>
        <time>2019-12-16T13:41:02Z</time>
      </trkpt>
      <trkpt lat="43.59112" lon="5.05633">
        <ele>74</ele>
        <time>2019-12-16T13:41:03Z</time>
      </trkpt>
      <trkpt lat="43.59111" lon="5.05632">
        <ele>74</ele>
        <time>2019-12-16T13:41:04Z</time>
      </trkpt>
      <trkpt lat="43.5911" lon="5.05632">
        <ele>74</ele>
        <time>2019-12-16T13:41:05Z</time>
      </trkpt>
      <trkpt lat="43.59108" lon="5.05632">
        <ele>74</ele>
        <time>2019-12-16T13:41:06Z</time>
      </trkpt>
      <trkpt lat="43.59107" lon="5.05631">
        <ele>74</ele>
        <time>2019-12-16T13:41:07Z</time>
      </trkpt>
      <trkpt lat="43.59105" lon="5.05631">
        <ele>74</ele>
        <time>2019-12-16T13:41:08Z</time>
      </trkpt>
      <trkpt lat="43.59104" lon="5.05631">
        <ele>74</ele>
        <time>2019-12-16T13:41:09Z</time>
      </trkpt>
      <trkpt lat="43.59103" lon="5.0563">
        <ele>74</ele>
        <time>2019-12-16T13:41:10Z</time>
      </trkpt>
      <trkpt lat="43.59102" lon="5.0563">
        <ele>74</ele>
        <time>2019-12-16T13:41:11Z</time>
      </trkpt>
      <trkpt lat="43.591" lon="5.0563">
        <ele>74</ele>
        <time>2019-12-16T13:41:12Z</time>
      </trkpt>
      <trkpt lat="43.59099" lon="5.05629">
        <ele>74</ele>
        <time>2019-12-16T13:41:13Z</time>
      </trkpt>
      <trkpt lat="43.59098" lon="5.05629">
        <ele>73</ele>
        <time>2019-12-16T13:41:14Z</time>
      </trkpt>
      <trkpt lat="43.59096" lon="5.05629">
        <ele>73</ele>
        <time>2019-12-16T13:41:15Z</time>
      </trkpt>
      <trkpt lat="43.59095" lon="5.05628">
        <ele>73</ele>
        <time>2019-12-16T13:41:16Z</time>
      </trkpt>
      <trkpt lat="43.59094" lon="5.05628">
        <ele>73</ele>
        <time>2019-12-16T13:41:17Z</time>
      </trkpt>
      <trkpt lat="43.59093" lon="5.05627">
        <ele>73</ele>
        <time>2019-12-16T13:41:18Z</time>
      </trkpt>
      <trkpt lat="43.59091" lon="5.05627">
        <ele>73</ele>
        <time>2019-12-16T13:41:19Z</time>
      </trkpt>
      <trkpt lat="43.5909" lon="5.05626">
        <ele>73</ele>
        <time>2019-12-16T13:41:20Z</time>
      </trkpt>
      <trkpt lat="43.59089" lon="5.05626">
        <ele>73</ele>
        <time>2019-12-16T13:41:21Z</time>
      </trkpt>
      <trkpt lat="43.59088" lon="5.05625">
        <ele>73</ele>
        <time>2019-12-16T13:41:22Z</time>
      </trkpt>
      <trkpt lat="43.59086" lon="5.05625">
        <ele>73</ele>
        <time>2019-12-16T13:41:23Z</time>
      </trkpt>
      <trkpt lat="43.59085" lon="5.05624">
        <ele>73</ele>
        <time>2019-12-16T13:41:24Z</time>
      </trkpt>
      <trkpt lat="43.59084" lon="5.05624">
        <ele>73</ele>
        <time>2019-12-16T13:41:25Z</time>
      </trkpt>
      <trkpt lat="43.59083" lon="5.05623">
        <ele>73</ele>
        <time>2019-12-16T13:41:26Z</time>
      </trkpt>
      <trkpt lat="43.59081" lon="5.05623">
        <ele>73</ele>
        <time>2019-12-16T13:41:27Z</time>
      </trkpt>
      <trkpt lat="43.5908" lon="5.05622">
        <ele>73</ele>
        <time>2019-12-16T13:41:28Z</time>
      </trkpt>
      <trkpt lat="43.59079" lon="5.05621">
        <ele>73</ele>
        <time>2019-12-16T13:41:29Z</time>
      </trkpt>
      <trkpt lat="43.59078" lon="5.05621">
        <ele>73</ele>
        <time>2019-12-16T13:41:30Z</time>
      </trkpt>
      <trkpt lat="43.59077" lon="5.0562">
        <ele>73</ele>
        <time>2019-12-16T13:41:31Z</time>
      </trkpt>
      <trkpt lat="43.59076" lon="5.05619">
        <ele>73</ele>
        <time>2019-12-16T13:41:32Z</time>
      </trkpt>
      <trkpt lat="43.59075" lon="5.05619">
        <ele>73</ele>
        <time>2019-12-16T13:41:33Z</time>
      </trkpt>
      <trkpt lat="43.59074" lon="5.05618">
        <ele>73</ele>
        <time>2019-12-16T13:41:34Z</time>
      </trkpt>
      <trkpt lat="43.59072" lon="5.05617">
        <ele>73</ele>
        <time>2019-12-16T13:41:35Z</time>
      </trkpt>
      <trkpt lat="43.59071" lon="5.05616">
        <ele>73</ele>
        <time>2019-12-16T13:41:36Z</time>
      </trkpt>
      <trkpt lat="43.5907" lon="5.05616">
        <ele>73</ele>
        <time>2019-12-16T13:41:37Z</time>
      </trkpt>
      <trkpt lat="43.59069" lon="5.05615">
        <ele>73</ele>
        <time>2019-12-16T13:41:38Z</time>
      </trkpt>
      <trkpt lat="43.59068" lon="5.05614">
        <ele>73</ele>
        <time>2019-12-16T13:41:39Z</time>
      </trkpt>
      <trkpt lat="43.59067" lon="5.05613">
        <ele>73</ele>
        <time>2019-12-16T13:41:40Z</time>
      </trkpt>
      <trkpt lat="43.59066" lon="5.05612">
        <ele>72</ele>
        <time>2019-12-16T13:41:41Z</time>
      </trkpt>
      <trkpt lat="43.59065" lon="5.05611">
        <ele>72</ele>
        <time>2019-12-16T13:41:42Z</time>
      </trkpt>
      <trkpt lat="43.59064" lon="5.0561">
        <ele>72</ele>
        <time>2019-12-16T13:41:43Z</time>
      </trkpt>
      <trkpt lat="43.59063" lon="5.05609">
        <ele>72</ele>
        <time>2019-12-16T13:41:44Z</time>
      </trkpt>
      <trkpt lat="43.59062" lon="5.05608">
        <ele>72</ele>
        <time>2019-12-16T13:41:45Z</time>
      </trkpt>
      <trkpt lat="43.59061" lon="5.05607">
        <ele>72</ele>
        <time>2019-12-16T13:41:46Z</time>
      </trkpt>
      <trkpt lat="43.59059" lon="5.05606">
        <ele>72</ele>
        <time>2019-12-16T13:41:47Z</time>
      </trkpt>
      <trkpt lat="43.59058" lon="5.05605">
        <ele>72</ele>
        <time>2019-12-16T13:41:48Z</time>
      </trkpt>
      <trkpt lat="43.59058" lon="5.05603">
        <ele>72</ele>
        <time>2019-12-16T13:41:49Z</time>
      </trkpt>
      <trkpt lat="43.59056" lon="5.05602">
        <ele>72</ele>
        <time>2019-12-16T13:41:50Z</time>
      </trkpt>
      <trkpt lat="43.59056" lon="5.05601">
        <ele>72</ele>
        <time>2019-12-16T13:41:51Z</time>
      </trkpt>
      <trkpt lat="43.59055" lon="5.056">
        <ele>72</ele>
        <time>2019-12-16T13:41:52Z</time>
      </trkpt>
      <trkpt lat="43.59054" lon="5.05599">
        <ele>72</ele>
        <time>2019-12-16T13:41:53Z</time>
      </trkpt>
      <trkpt lat="43.59053" lon="5.05598">
        <ele>72</ele>
        <time>2019-12-16T13:41:54Z</time>
      </trkpt>
      <trkpt lat="43.59052" lon="5.05596">
        <ele>72</ele>
        <time>2019-12-16T13:41:55Z</time>
      </trkpt>
      <trkpt lat="43.59052" lon="5.05595">
        <ele>72</ele>
        <time>2019-12-16T13:41:56Z</time>
      </trkpt>
      <trkpt lat="43.59051" lon="5.05594">
        <ele>72</ele>
        <time>2019-12-16T13:41:57Z</time>
      </trkpt>
      <trkpt lat="43.5905" lon="5.05593">
        <ele>72</ele>
        <time>2019-12-16T13:41:58Z</time>
      </trkpt>
      <trkpt lat="43.59049" lon="5.05591">
        <ele>72</ele>
        <time>2019-12-16T13:41:59Z</time>
      </trkpt>
      <trkpt lat="43.59049" lon="5.0559">
        <ele>72</ele>
        <time>2019-12-16T13:42:00Z</time>
      </trkpt>
      <trkpt lat="43.59048" lon="5.05589">
        <ele>72</ele>
        <time>2019-12-16T13:42:01Z</time>
      </trkpt>
      <trkpt lat="43.59047" lon="5.05587">
        <ele>72</ele>
        <time>2019-12-16T13:42:02Z</time>
      </trkpt>
      <trkpt lat="43.59046" lon="5.05586">
        <ele>72</ele>
        <time>2019-12-16T13:42:03Z</time>
      </trkpt>
      <trkpt lat="43.59045" lon="5.05584">
        <ele>72</ele>
        <time>2019-12-16T13:42:04Z</time>
      </trkpt>
      <trkpt lat="43.59044" lon="5.05582">
        <ele>69</ele>
        <time>2019-12-16T13:42:05Z</time>
      </trkpt>
      <trkpt lat="43.59043" lon="5.05581">
        <ele>69</ele>
        <time>2019-12-16T13:42:06Z</time>
      </trkpt>
      <trkpt lat="43.59042" lon="5.05579">
        <ele>69</ele>
        <time>2019-12-16T13:42:07Z</time>
      </trkpt>
      <trkpt lat="43.59041" lon="5.05578">
        <ele>69</ele>
        <time>2019-12-16T13:42:08Z</time>
      </trkpt>
      <trkpt lat="43.5904" lon="5.05577">
        <ele>69</ele>
        <time>2019-12-16T13:42:09Z</time>
      </trkpt>
      <trkpt lat="43.59039" lon="5.05576">
        <ele>69</ele>
        <time>2019-12-16T13:42:10Z</time>
      </trkpt>
      <trkpt lat="43.59038" lon="5.05575">
        <ele>68</ele>
        <time>2019-12-16T13:42:11Z</time>
      </trkpt>
      <trkpt lat="43.59038" lon="5.05574">
        <ele>68</ele>
        <time>2019-12-16T13:42:12Z</time>
      </trkpt>
      <trkpt lat="43.59037" lon="5.05573">
        <ele>68</ele>
        <time>2019-12-16T13:42:13Z</time>
      </trkpt>
      <trkpt lat="43.59036" lon="5.05572">
        <ele>68</ele>
        <time>2019-12-16T13:42:14Z</time>
      </trkpt>
      <trkpt lat="43.59035" lon="5.05571">
        <ele>68</ele>
        <time>2019-12-16T13:42:15Z</time>
      </trkpt>
      <trkpt lat="43.59034" lon="5.0557">
        <ele>68</ele>
        <time>2019-12-16T13:42:16Z</time>
      </trkpt>
      <trkpt lat="43.59033" lon="5.05569">
        <ele>68</ele>
        <time>2019-12-16T13:42:17Z</time>
      </trkpt>
      <trkpt lat="43.59032" lon="5.05567">
        <ele>68</ele>
        <time>2019-12-16T13:42:18Z</time>
      </trkpt>
      <trkpt lat="43.59031" lon="5.05566">
        <ele>68</ele>
        <time>2019-12-16T13:42:19Z</time>
      </trkpt>
      <trkpt lat="43.5903" lon="5.05565">
        <ele>68</ele>
        <time>2019-12-16T13:42:20Z</time>
      </trkpt>
      <trkpt lat="43.59029" lon="5.05564">
        <ele>68</ele>
        <time>2019-12-16T13:42:21Z</time>
      </trkpt>
      <trkpt lat="43.59028" lon="5.05563">
        <ele>68</ele>
        <time>2019-12-16T13:42:22Z</time>
      </trkpt>
      <trkpt lat="43.59027" lon="5.05562">
        <ele>68</ele>
        <time>2019-12-16T13:42:23Z</time>
      </trkpt>
      <trkpt lat="43.59026" lon="5.05561">
        <ele>68</ele>
        <time>2019-12-16T13:42:24Z</time>
      </trkpt>
      <trkpt lat="43.59025" lon="5.0556">
        <ele>68</ele>
        <time>2019-12-16T13:42:25Z</time>
      </trkpt>
      <trkpt lat="43.59023" lon="5.05559">
        <ele>68</ele>
        <time>2019-12-16T13:42:26Z</time>
      </trkpt>
      <trkpt lat="43.59022" lon="5.05558">
        <ele>68</ele>
        <time>2019-12-16T13:42:27Z</time>
      </trkpt>
      <trkpt lat="43.59021" lon="5.05557">
        <ele>68</ele>
        <time>2019-12-16T13:42:28Z</time>
      </trkpt>
      <trkpt lat="43.5902" lon="5.05556">
        <ele>68</ele>
        <time>2019-12-16T13:42:29Z</time>
      </trkpt>
      <trkpt lat="43.59019" lon="5.05555">
        <ele>68</ele>
        <time>2019-12-16T13:42:30Z</time>
      </trkpt>
      <trkpt lat="43.59018" lon="5.05554">
        <ele>68</ele>
        <time>2019-12-16T13:42:31Z</time>
      </trkpt>
      <trkpt lat="43.59016" lon="5.05554">
        <ele>68</ele>
        <time>2019-12-16T13:42:32Z</time>
      </trkpt>
      <trkpt lat="43.59015" lon="5.05553">
        <ele>68</ele>
        <time>2019-12-16T13:42:33Z</time>
      </trkpt>
      <trkpt lat="43.59014" lon="5.05552">
        <ele>68</ele>
        <time>2019-12-16T13:42:34Z</time>
      </trkpt>
      <trkpt lat="43.59013" lon="5.05552">
        <ele>68</ele>
        <time>2019-12-16T13:42:35Z</time>
      </trkpt>
      <trkpt lat="43.59012" lon="5.05551">
        <ele>68</ele>
        <time>2019-12-16T13:42:36Z</time>
      </trkpt>
      <trkpt lat="43.59011" lon="5.05551">
        <ele>68</ele>
        <time>2019-12-16T13:42:37Z</time>
      </trkpt>
      <trkpt lat="43.5901" lon="5.0555">
        <ele>68</ele>
        <time>2019-12-16T13:42:38Z</time>
      </trkpt>
      <trkpt lat="43.59009" lon="5.0555">
        <ele>68</ele>
        <time>2019-12-16T13:42:39Z</time>
      </trkpt>
      <trkpt lat="43.59008" lon="5.0555">
        <ele>68</ele>
        <time>2019-12-16T13:42:40Z</time>
      </trkpt>
      <trkpt lat="43.59007" lon="5.0555">
        <ele>68</ele>
        <time>2019-12-16T13:42:41Z</time>
      </trkpt>
      <trkpt lat="43.59006" lon="5.0555">
        <ele>68</ele>
        <time>2019-12-16T13:42:42Z</time>
      </trkpt>
      <trkpt lat="43.59005" lon="5.0555">
        <ele>68</ele>
        <time>2019-12-16T13:42:43Z</time>
      </trkpt>
      <trkpt lat="43.59004" lon="5.0555">
        <ele>68</ele>
        <time>2019-12-16T13:42:44Z</time>
      </trkpt>
      <trkpt lat="43.59003" lon="5.0555">
        <ele>68</ele>
        <time>2019-12-16T13:42:45Z</time>
      </trkpt>
      <trkpt lat="43.59002" lon="5.0555">
        <ele>68</ele>
        <time>2019-12-16T13:42:46Z</time>
      </trkpt>
      <trkpt lat="43.59001" lon="5.05551">
        <ele>68</ele>
        <time>2019-12-16T13:42:47Z</time>
      </trkpt>
      <trkpt lat="43.59" lon="5.05551">
        <ele>68</ele>
        <time>2019-12-16T13:42:48Z</time>
      </trkpt>
      <trkpt lat="43.58999" lon="5.05551">
        <ele>67</ele>
        <time>2019-12-16T13:42:49Z</time>
      </trkpt>
      <trkpt lat="43.58998" lon="5.05552">
        <ele>67</ele>
        <time>2019-12-16T13:42:50Z</time>
      </trkpt>
      <trkpt lat="43.58996" lon="5.05552">
        <ele>67</ele>
        <time>2019-12-16T13:42:51Z</time>
      </trkpt>
      <trkpt lat="43.58995" lon="5.05553">
        <ele>67</ele>
        <time>2019-12-16T13:42:52Z</time>
      </trkpt>
      <trkpt lat="43.58993" lon="5.05554">
        <ele>67</ele>
        <time>2019-12-16T13:42:53Z</time>
      </trkpt>
      <trkpt lat="43.58992" lon="5.05554">
        <ele>67</ele>
        <time>2019-12-16T13:42:54Z</time>
      </trkpt>
      <trkpt lat="43.5899" lon="5.05555">
        <ele>67</ele>
        <time>2019-12-16T13:42:55Z</time>
      </trkpt>
      <trkpt lat="43.58989" lon="5.05556">
        <ele>67</ele>
        <time>2019-12-16T13:42:56Z</time>
      </trkpt>
      <trkpt lat="43.58988" lon="5.05557">
        <ele>67</ele>
        <time>2019-12-16T13:42:57Z</time>
      </trkpt>
      <trkpt lat="43.58986" lon="5.05558">
        <ele>67</ele>
        <time>2019-12-16T13:42:58Z</time>
      </trkpt>
      <trkpt lat="43.58985" lon="5.05558">
        <ele>67</ele>
        <time>2019-12-16T13:42:59Z</time>
      </trkpt>
      <trkpt lat="43.58984" lon="5.05559">
        <ele>67</ele>
        <time>2019-12-16T13:43:00Z</time>
      </trkpt>
      <trkpt lat="43.58983" lon="5.0556">
        <ele>67</ele>
        <time>2019-12-16T13:43:01Z</time>
      </trkpt>
      <trkpt lat="43.58982" lon="5.05561">
        <ele>67</ele>
        <time>2019-12-16T13:43:02Z</time>
      </trkpt>
      <trkpt lat="43.58982" lon="5.05562">
        <ele>67</ele>
        <time>2019-12-16T13:43:03Z</time>
      </trkpt>
      <trkpt lat="43.58981" lon="5.05563">
        <ele>67</ele>
        <time>2019-12-16T13:43:04Z</time>
      </trkpt>
      <trkpt lat="43.5898" lon="5.05564">
        <ele>67</ele>
        <time>2019-12-16T13:43:05Z</time>
      </trkpt>
      <trkpt lat="43.58979" lon="5.05565">
        <ele>67</ele>
        <time>2019-12-16T13:43:06Z</time>
      </trkpt>
      <trkpt lat="43.58978" lon="5.05567">
        <ele>67</ele>
        <time>2019-12-16T13:43:07Z</time>
      </trkpt>
      <trkpt lat="43.58977" lon="5.05568">
        <ele>67</ele>
        <time>2019-12-16T13:43:08Z</time>
      </trkpt>
      <trkpt lat="43.58976" lon="5.05569">
        <ele>67</ele>
        <time>2019-12-16T13:43:09Z</time>
      </trkpt>
      <trkpt lat="43.58975" lon="5.05571">
        <ele>67</ele>
        <time>2019-12-16T13:43:10Z</time>
      </trkpt>
      <trkpt lat="43.58975" lon="5.05572">
        <ele>67</ele>
        <time>2019-12-16T13:43:11Z</time>
      </trkpt>
      <trkpt lat="43.58974" lon="5.05573">
        <ele>67</ele>
        <time>2019-12-16T13:43:12Z</time>
      </trkpt>
      <trkpt lat="43.58973" lon="5.05574">
        <ele>67</ele>
        <time>2019-12-16T13:43:13Z</time>
      </trkpt>
      <trkpt lat="43.58972" lon="5.05576">
        <ele>67</ele>
        <time>2019-12-16T13:43:14Z</time>
      </trkpt>
      <trkpt lat="43.58971" lon="5.05577">
        <ele>67</ele>
        <time>2019-12-16T13:43:15Z</time>
      </trkpt>
      <trkpt lat="43.5897" lon="5.05578">
        <ele>67</ele>
        <time>2019-12-16T13:43:16Z</time>
      </trkpt>
      <trkpt lat="43.58969" lon="5.05579">
        <ele>67</ele>
        <time>2019-12-16T13:43:17Z</time>
      </trkpt>
      <trkpt lat="43.58968" lon="5.0558">
        <ele>67</ele>
        <time>2019-12-16T13:43:18Z</time>
      </trkpt>
      <trkpt lat="43.58967" lon="5.05581">
        <ele>67</ele>
        <time>2019-12-16T13:43:19Z</time>
      </trkpt>
      <trkpt lat="43.58966" lon="5.05582">
        <ele>67</ele>
        <time>2019-12-16T13:43:20Z</time>
      </trkpt>
      <trkpt lat="43.58965" lon="5.05583">
        <ele>71</ele>
        <time>2019-12-16T13:43:21Z</time>
      </trkpt>
      <trkpt lat="43.58964" lon="5.05585">
        <ele>71</ele>
        <time>2019-12-16T13:43:22Z</time>
      </trkpt>
      <trkpt lat="43.58963" lon="5.05586">
        <ele>71</ele>
        <time>2019-12-16T13:43:23Z</time>
      </trkpt>
      <trkpt lat="43.58962" lon="5.05587">
        <ele>71</ele>
        <time>2019-12-16T13:43:24Z</time>
      </trkpt>
      <trkpt lat="43.58962" lon="5.05588">
        <ele>71</ele>
        <time>2019-12-16T13:43:25Z</time>
      </trkpt>
      <trkpt lat="43.58961" lon="5.05589">
        <ele>71</ele>
        <time>2019-12-16T13:43:26Z</time>
      </trkpt>
      <trkpt lat="43.5896" lon="5.05591">
        <ele>71</ele>
        <time>2019-12-16T13:43:27Z</time>
      </trkpt>
      <trkpt lat="43.5896" lon="5.05592">
        <ele>71</ele>
        <time>2019-12-16T13:43:28Z</time>
      </trkpt>
      <trkpt lat="43.5896" lon="5.05594">
        <ele>71</ele>
        <time>2019-12-16T13:43:29Z</time>
      </trkpt>
      <trkpt lat="43.58959" lon="5.05595">
        <ele>71</ele>
        <time>2019-12-16T13:43:30Z</time>
      </trkpt>
      <trkpt lat="43.58959" lon="5.05597">
        <ele>71</ele>
        <time>2019-12-16T13:43:31Z</time>
      </trkpt>
      <trkpt lat="43.58958" lon="5.05599">
        <ele>71</ele>
        <time>2019-12-16T13:43:32Z</time>
      </trkpt>
      <trkpt lat="43.58958" lon="5.056">
        <ele>71</ele>
        <time>2019-12-16T13:43:33Z</time>
      </trkpt>
      <trkpt lat="43.58957" lon="5.05602">
        <ele>71</ele>
        <time>2019-12-16T13:43:34Z</time>
      </trkpt>
      <trkpt lat="43.58956" lon="5.05604">
        <ele>71</ele>
        <time>2019-12-16T13:43:35Z</time>
      </trkpt>
      <trkpt lat="43.58955" lon="5.05605">
        <ele>71</ele>
        <time>2019-12-16T13:43:36Z</time>
      </trkpt>
      <trkpt lat="43.58954" lon="5.05607">
        <ele>71</ele>
        <time>2019-12-16T13:43:37Z</time>
      </trkpt>
      <trkpt lat="43.58953" lon="5.05608">
        <ele>71</ele>
        <time>2019-12-16T13:43:38Z</time>
      </trkpt>
      <trkpt lat="43.58952" lon="5.05609">
        <ele>71</ele>
        <time>2019-12-16T13:43:39Z</time>
      </trkpt>
      <trkpt lat="43.58951" lon="5.05609">
        <ele>71</ele>
        <time>2019-12-16T13:43:40Z</time>
      </trkpt>
      <trkpt lat="43.5895" lon="5.05609">
        <ele>71</ele>
        <time>2019-12-16T13:43:41Z</time>
      </trkpt>
      <trkpt lat="43.58949" lon="5.05609">
        <ele>71</ele>
        <time>2019-12-16T13:43:42Z</time>
      </trkpt>
      <trkpt lat="43.58948" lon="5.05609">
        <ele>71</ele>
        <time>2019-12-16T13:43:43Z</time>
      </trkpt>
      <trkpt lat="43.58947" lon="5.05609">
        <ele>71</ele>
        <time>2019-12-16T13:43:44Z</time>
      </trkpt>
      <trkpt lat="43.58946" lon="5.05608">
        <ele>71</ele>
        <time>2019-12-16T13:43:45Z</time>
      </trkpt>
      <trkpt lat="43.58945" lon="5.05608">
        <ele>71</ele>
        <time>2019-12-16T13:43:46Z</time>
      </trkpt>
      <trkpt lat="43.58944" lon="5.05608">
        <ele>71</ele>
        <time>2019-12-16T13:43:47Z</time>
      </trkpt>
      <trkpt lat="43.58943" lon="5.05608">
        <ele>71</ele>
        <time>2019-12-16T13:43:48Z</time>
      </trkpt>
      <trkpt lat="43.58943" lon="5.05608">
        <ele>71</ele>
        <time>2019-12-16T13:43:49Z</time>
      </trkpt>
      <trkpt lat="43.58942" lon="5.05608">
        <ele>71</ele>
        <time>2019-12-16T13:43:50Z</time>
      </trkpt>
      <trkpt lat="43.58941" lon="5.05608">
        <ele>71</ele>
        <time>2019-12-16T13:43:51Z</time>
      </trkpt>
      <trkpt lat="43.5894" lon="5.05608">
        <ele>71</ele>
        <time>2019-12-16T13:43:52Z</time>
      </trkpt>
      <trkpt lat="43.58939" lon="5.05609">
        <ele>71</ele>
        <time>2019-12-16T13:43:53Z</time>
      </trkpt>
      <trkpt lat="43.58938" lon="5.05609">
        <ele>71</ele>
        <time>2019-12-16T13:43:54Z</time>
      </trkpt>
      <trkpt lat="43.58937" lon="5.05609">
        <ele>71</ele>
        <time>2019-12-16T13:43:55Z</time>
      </trkpt>
      <trkpt lat="43.58936" lon="5.05609">
        <ele>71</ele>
        <time>2019-12-16T13:43:56Z</time>
      </trkpt>
      <trkpt lat="43.58935" lon="5.0561">
        <ele>71</ele>
        <time>2019-12-16T13:43:57Z</time>
      </trkpt>
      <trkpt lat="43.58934" lon="5.0561">
        <ele>71</ele>
        <time>2019-12-16T13:43:58Z</time>
      </trkpt>
      <trkpt lat="43.58933" lon="5.0561">
        <ele>71</ele>
        <time>2019-12-16T13:43:59Z</time>
      </trkpt>
      <trkpt lat="43.58932" lon="5.05611">
        <ele>71</ele>
        <time>2019-12-16T13:44:00Z</time>
      </trkpt>
      <trkpt lat="43.58931" lon="5.05611">
        <ele>71</ele>
        <time>2019-12-16T13:44:01Z</time>
      </trkpt>
      <trkpt lat="43.5893" lon="5.05611">
        <ele>71</ele>
        <time>2019-12-16T13:44:02Z</time>
      </trkpt>
      <trkpt lat="43.58928" lon="5.05612">
        <ele>71</ele>
        <time>2019-12-16T13:44:03Z</time>
      </trkpt>
      <trkpt lat="43.58927" lon="5.05612">
        <ele>71</ele>
        <time>2019-12-16T13:44:04Z</time>
      </trkpt>
      <trkpt lat="43.58926" lon="5.05613">
        <ele>71</ele>
        <time>2019-12-16T13:44:05Z</time>
      </trkpt>
      <trkpt lat="43.58925" lon="5.05613">
        <ele>71</ele>
        <time>2019-12-16T13:44:06Z</time>
      </trkpt>
      <trkpt lat="43.58924" lon="5.05613">
        <ele>71</ele>
        <time>2019-12-16T13:44:07Z</time>
      </trkpt>
      <trkpt lat="43.58923" lon="5.05613">
        <ele>71</ele>
        <time>2019-12-16T13:44:08Z</time>
      </trkpt>
      <trkpt lat="43.58922" lon="5.05614">
        <ele>71</ele>
        <time>2019-12-16T13:44:09Z</time>
      </trkpt>
      <trkpt lat="43.5892" lon="5.05614">
        <ele>71</ele>
        <time>2019-12-16T13:44:10Z</time>
      </trkpt>
      <trkpt lat="43.58919" lon="5.05614">
        <ele>71</ele>
        <time>2019-12-16T13:44:11Z</time>
      </trkpt>
      <trkpt lat="43.58918" lon="5.05614">
        <ele>71</ele>
        <time>2019-12-16T13:44:12Z</time>
      </trkpt>
      <trkpt lat="43.58917" lon="5.05615">
        <ele>71</ele>
        <time>2019-12-16T13:44:13Z</time>
      </trkpt>
      <trkpt lat="43.58916" lon="5.05615">
        <ele>71</ele>
        <time>2019-12-16T13:44:14Z</time>
      </trkpt>
      <trkpt lat="43.58915" lon="5.05615">
        <ele>71</ele>
        <time>2019-12-16T13:44:15Z</time>
      </trkpt>
      <trkpt lat="43.58914" lon="5.05615">
        <ele>71</ele>
        <time>2019-12-16T13:44:16Z</time>
      </trkpt>
      <trkpt lat="43.58912" lon="5.05615">
        <ele>71</ele>
        <time>2019-12-16T13:44:17Z</time>
      </trkpt>
      <trkpt lat="43.58911" lon="5.05615">
        <ele>71</ele>
        <time>2019-12-16T13:44:18Z</time>
      </trkpt>
      <trkpt lat="43.5891" lon="5.05615">
        <ele>71</ele>
        <time>2019-12-16T13:44:19Z</time>
      </trkpt>
      <trkpt lat="43.58909" lon="5.05616">
        <ele>71</ele>
        <time>2019-12-16T13:44:20Z</time>
      </trkpt>
      <trkpt lat="43.58908" lon="5.05616">
        <ele>71</ele>
        <time>2019-12-16T13:44:21Z</time>
      </trkpt>
      <trkpt lat="43.58907" lon="5.05616">
        <ele>71</ele>
        <time>2019-12-16T13:44:22Z</time>
      </trkpt>
      <trkpt lat="43.58906" lon="5.05616">
        <ele>71</ele>
        <time>2019-12-16T13:44:23Z</time>
      </trkpt>
      <trkpt lat="43.58905" lon="5.05615">
        <ele>71</ele>
        <time>2019-12-16T13:44:24Z</time>
      </trkpt>
      <trkpt lat="43.58904" lon="5.05615">
        <ele>71</ele>
        <time>2019-12-16T13:44:25Z</time>
      </trkpt>
      <trkpt lat="43.58903" lon="5.05615">
        <ele>71</ele>
        <time>2019-12-16T13:44:26Z</time>
      </trkpt>
      <trkpt lat="43.58902" lon="5.05615">
        <ele>71</ele>
        <time>2019-12-16T13:44:27Z</time>
      </trkpt>
      <trkpt lat="43.58901" lon="5.05615">
        <ele>71</ele>
        <time>2019-12-16T13:44:28Z</time>
      </trkpt>
      <trkpt lat="43.58901" lon="5.05615">
        <ele>71</ele>
        <time>2019-12-16T13:44:29Z</time>
      </trkpt>
      <trkpt lat="43.589" lon="5.05615">
        <ele>71</ele>
        <time>2019-12-16T13:44:30Z</time>
      </trkpt>
      <trkpt lat="43.58899" lon="5.05615">
        <ele>71</ele>
        <time>2019-12-16T13:44:31Z</time>
      </trkpt>
      <trkpt lat="43.58898" lon="5.05615">
        <ele>71</ele>
        <time>2019-12-16T13:44:32Z</time>
      </trkpt>
      <trkpt lat="43.58897" lon="5.05614">
        <ele>71</ele>
        <time>2019-12-16T13:44:33Z</time>
      </trkpt>
      <trkpt lat="43.58896" lon="5.05614">
        <ele>71</ele>
        <time>2019-12-16T13:44:34Z</time>
      </trkpt>
      <trkpt lat="43.58895" lon="5.05615">
        <ele>71</ele>
        <time>2019-12-16T13:44:35Z</time>
      </trkpt>
      <trkpt lat="43.58894" lon="5.05615">
        <ele>71</ele>
        <time>2019-12-16T13:44:36Z</time>
      </trkpt>
      <trkpt lat="43.58893" lon="5.05615">
        <ele>71</ele>
        <time>2019-12-16T13:44:37Z</time>
      </trkpt>
      <trkpt lat="43.58892" lon="5.05615">
        <ele>71</ele>
        <time>2019-12-16T13:44:38Z</time>
      </trkpt>
      <trkpt lat="43.58891" lon="5.05615">
        <ele>71</ele>
        <time>2019-12-16T13:44:39Z</time>
      </trkpt>
      <trkpt lat="43.5889" lon="5.05616">
        <ele>71</ele>
        <time>2019-12-16T13:44:40Z</time>
      </trkpt>
      <trkpt lat="43.58889" lon="5.05616">
        <ele>71</ele>
        <time>2019-12-16T13:44:41Z</time>
      </trkpt>
      <trkpt lat="43.58888" lon="5.05616">
        <ele>71</ele>
        <time>2019-12-16T13:44:42Z</time>
      </trkpt>
      <trkpt lat="43.58887" lon="5.05617">
        <ele>71</ele>
        <time>2019-12-16T13:44:43Z</time>
      </trkpt>
      <trkpt lat="43.58886" lon="5.05617">
        <ele>71</ele>
        <time>2019-12-16T13:44:44Z</time>
      </trkpt>
      <trkpt lat="43.58885" lon="5.05618">
        <ele>71</ele>
        <time>2019-12-16T13:44:45Z</time>
      </trkpt>
      <trkpt lat="43.58884" lon="5.05619">
        <ele>71</ele>
        <time>2019-12-16T13:44:46Z</time>
      </trkpt>
      <trkpt lat="43.58883" lon="5.05619">
        <ele>71</ele>
        <time>2019-12-16T13:44:47Z</time>
      </trkpt>
      <trkpt lat="43.58882" lon="5.0562">
        <ele>71</ele>
        <time>2019-12-16T13:44:48Z</time>
      </trkpt>
      <trkpt lat="43.58881" lon="5.05621">
        <ele>71</ele>
        <time>2019-12-16T13:44:49Z</time>
      </trkpt>
      <trkpt lat="43.5888" lon="5.05622">
        <ele>71</ele>
        <time>2019-12-16T13:44:50Z</time>
      </trkpt>
      <trkpt lat="43.58879" lon="5.05622">
        <ele>71</ele>
        <time>2019-12-16T13:44:51Z</time>
      </trkpt>
      <trkpt lat="43.58878" lon="5.05623">
        <ele>71</ele>
        <time>2019-12-16T13:44:52Z</time>
      </trkpt>
      <trkpt lat="43.58877" lon="5.05624">
        <ele>71</ele>
        <time>2019-12-16T13:44:53Z</time>
      </trkpt>
      <trkpt lat="43.58877" lon="5.05624">
        <ele>71</ele>
        <time>2019-12-16T13:44:54Z</time>
      </trkpt>
      <trkpt lat="43.58876" lon="5.05625">
        <ele>71</ele>
        <time>2019-12-16T13:44:55Z</time>
      </trkpt>
      <trkpt lat="43.58875" lon="5.05625">
        <ele>71</ele>
        <time>2019-12-16T13:44:56Z</time>
      </trkpt>
      <trkpt lat="43.58875" lon="5.05625">
        <ele>71</ele>
        <time>2019-12-16T13:44:57Z</time>
      </trkpt>
      <trkpt lat="43.58874" lon="5.05626">
        <ele>71</ele>
        <time>2019-12-16T13:44:58Z</time>
      </trkpt>
      <trkpt lat="43.58873" lon="5.05626">
        <ele>71</ele>
        <time>2019-12-16T13:44:59Z</time>
      </trkpt>
      <trkpt lat="43.58873" lon="5.05626">
        <ele>71</ele>
        <time>2019-12-16T13:45:00Z</time>
      </trkpt>
      <trkpt lat="43.58872" lon="5.05626">
        <ele>71</ele>
        <time>2019-12-16T13:45:01Z</time>
      </trkpt>
      <trkpt lat="43.58871" lon="5.05627">
        <ele>71</ele>
        <time>2019-12-16T13:45:02Z</time>
      </trkpt>
      <trkpt lat="43.58871" lon="5.05627">
        <ele>71</ele>
        <time>2019-12-16T13:45:03Z</time>
      </trkpt>
      <trkpt lat="43.5887" lon="5.05628">
        <ele>71</ele>
        <time>2019-12-16T13:45:04Z</time>
      </trkpt>
      <trkpt lat="43.58869" lon="5.05628">
        <ele>71</ele>
        <time>2019-12-16T13:45:05Z</time>
      </trkpt>
      <trkpt lat="43.58868" lon="5.05628">
        <ele>71</ele>
        <time>2019-12-16T13:45:06Z</time>
      </trkpt>
      <trkpt lat="43.58867" lon="5.05629">
        <ele>71</ele>
        <time>2019-12-16T13:45:07Z</time>
      </trkpt>
      <trkpt lat="43.58866" lon="5.05629">
        <ele>71</ele>
        <time>2019-12-16T13:45:08Z</time>
      </trkpt>
      <trkpt lat="43.58865" lon="5.05629">
        <ele>71</ele>
        <time>2019-12-16T13:45:09Z</time>
      </trkpt>
      <trkpt lat="43.58864" lon="5.05629">
        <ele>71</ele>
        <time>2019-12-16T13:45:10Z</time>
      </trkpt>
      <trkpt lat="43.58863" lon="5.05629">
        <ele>71</ele>
        <time>2019-12-16T13:45:11Z</time>
      </trkpt>
      <trkpt lat="43.58862" lon="5.05629">
        <ele>71</ele>
        <time>2019-12-16T13:45:12Z</time>
      </trkpt>
      <trkpt lat="43.58861" lon="5.05629">
        <ele>71</ele>
        <time>2019-12-16T13:45:13Z</time>
      </trkpt>
      <trkpt lat="43.5886" lon="5.05629">
        <ele>71</ele>
        <time>2019-12-16T13:45:14Z</time>
      </trkpt>
      <trkpt lat="43.58859" lon="5.05629">
        <ele>71</ele>
        <time>2019-12-16T13:45:15Z</time>
      </trkpt>
      <trkpt lat="43.58858" lon="5.05629">
        <ele>71</ele>
        <time>2019-12-16T13:45:16Z</time>
      </trkpt>
      <trkpt lat="43.58857" lon="5.05629">
        <ele>71</ele>
        <time>2019-12-16T13:45:17Z</time>
      </trkpt>
      <trkpt lat="43.58856" lon="5.05629">
        <ele>71</ele>
        <time>2019-12-16T13:45:18Z</time>
      </trkpt>
      <trkpt lat="43.58855" lon="5.05629">
        <ele>71</ele>
        <time>2019-12-16T13:45:19Z</time>
      </trkpt>
      <trkpt lat="43.58854" lon="5.05629">
        <ele>71</ele>
        <time>2019-12-16T13:45:20Z</time>
      </trkpt>
      <trkpt lat="43.58852" lon="5.05628">
        <ele>71</ele>
        <time>2019-12-16T13:45:21Z</time>
      </trkpt>
      <trkpt lat="43.58851" lon="5.05628">
        <ele>71</ele>
        <time>2019-12-16T13:45:22Z</time>
      </trkpt>
      <trkpt lat="43.5885" lon="5.05628">
        <ele>71</ele>
        <time>2019-12-16T13:45:23Z</time>
      </trkpt>
      <trkpt lat="43.58849" lon="5.05628">
        <ele>71</ele>
        <time>2019-12-16T13:45:24Z</time>
      </trkpt>
      <trkpt lat="43.58848" lon="5.05628">
        <ele>71</ele>
        <time>2019-12-16T13:45:25Z</time>
      </trkpt>
      <trkpt lat="43.58847" lon="5.05628">
        <ele>71</ele>
        <time>2019-12-16T13:45:26Z</time>
      </trkpt>
      <trkpt lat="43.58846" lon="5.05628">
        <ele>71</ele>
        <time>2019-12-16T13:45:27Z</time>
      </trkpt>
      <trkpt lat="43.58845" lon="5.05628">
        <ele>71</ele>
        <time>2019-12-16T13:45:28Z</time>
      </trkpt>
      <trkpt lat="43.58844" lon="5.05628">
        <ele>71</ele>
        <time>2019-12-16T13:45:29Z</time>
      </trkpt>
      <trkpt lat="43.58843" lon="5.05629">
        <ele>71</ele>
        <time>2019-12-16T13:45:30Z</time>
      </trkpt>
      <trkpt lat="43.58842" lon="5.05629">
        <ele>71</ele>
        <time>2019-12-16T13:45:31Z</time>
      </trkpt>
      <trkpt lat="43.58841" lon="5.05629">
        <ele>71</ele>
        <time>2019-12-16T13:45:32Z</time>
      </trkpt>
      <trkpt lat="43.5884" lon="5.05629">
        <ele>71</ele>
        <time>2019-12-16T13:45:33Z</time>
      </trkpt>
      <trkpt lat="43.58839" lon="5.05629">
        <ele>71</ele>
        <time>2019-12-16T13:45:34Z</time>
      </trkpt>
      <trkpt lat="43.58838" lon="5.05629">
        <ele>71</ele>
        <time>2019-12-16T13:45:35Z</time>
      </trkpt>
      <trkpt lat="43.58837" lon="5.0563">
        <ele>71</ele>
        <time>2019-12-16T13:45:36Z</time>
      </trkpt>
      <trkpt lat="43.58836" lon="5.0563">
        <ele>72</ele>
        <time>2019-12-16T13:45:37Z</time>
      </trkpt>
      <trkpt lat="43.58836" lon="5.0563">
        <ele>72</ele>
        <time>2019-12-16T13:45:38Z</time>
      </trkpt>
      <trkpt lat="43.58835" lon="5.05631">
        <ele>72</ele>
        <time>2019-12-16T13:45:39Z</time>
      </trkpt>
      <trkpt lat="43.58834" lon="5.05631">
        <ele>72</ele>
        <time>2019-12-16T13:45:40Z</time>
      </trkpt>
      <trkpt lat="43.58833" lon="5.05632">
        <ele>71</ele>
        <time>2019-12-16T13:45:41Z</time>
      </trkpt>
      <trkpt lat="43.58833" lon="5.05632">
        <ele>71</ele>
        <time>2019-12-16T13:45:42Z</time>
      </trkpt>
      <trkpt lat="43.58832" lon="5.05632">
        <ele>71</ele>
        <time>2019-12-16T13:45:43Z</time>
      </trkpt>
      <trkpt lat="43.58831" lon="5.05633">
        <ele>71</ele>
        <time>2019-12-16T13:45:44Z</time>
      </trkpt>
      <trkpt lat="43.58831" lon="5.05633">
        <ele>71</ele>
        <time>2019-12-16T13:45:45Z</time>
      </trkpt>
      <trkpt lat="43.5883" lon="5.05634">
        <ele>71</ele>
        <time>2019-12-16T13:45:46Z</time>
      </trkpt>
      <trkpt lat="43.5883" lon="5.05634">
        <ele>71</ele>
        <time>2019-12-16T13:45:47Z</time>
      </trkpt>
      <trkpt lat="43.58829" lon="5.05635">
        <ele>71</ele>
        <time>2019-12-16T13:45:48Z</time>
      </trkpt>
      <trkpt lat="43.58829" lon="5.05636">
        <ele>71</ele>
        <time>2019-12-16T13:45:49Z</time>
      </trkpt>
      <trkpt lat="43.58828" lon="5.05636">
        <ele>71</ele>
        <time>2019-12-16T13:45:50Z</time>
      </trkpt>
      <trkpt lat="43.58828" lon="5.05637">
        <ele>71</ele>
        <time>2019-12-16T13:45:51Z</time>
      </trkpt>
      <trkpt lat="43.58828" lon="5.05637">
        <ele>71</ele>
        <time>2019-12-16T13:45:52Z</time>
      </trkpt>
      <trkpt lat="43.58827" lon="5.05638">
        <ele>71</ele>
        <time>2019-12-16T13:45:53Z</time>
      </trkpt>
      <trkpt lat="43.58827" lon="5.05639">
        <ele>71</ele>
        <time>2019-12-16T13:45:54Z</time>
      </trkpt>
      <trkpt lat="43.58826" lon="5.05639">
        <ele>71</ele>
        <time>2019-12-16T13:45:55Z</time>
      </trkpt>
      <trkpt lat="43.58826" lon="5.0564">
        <ele>72</ele>
        <time>2019-12-16T13:45:56Z</time>
      </trkpt>
      <trkpt lat="43.58825" lon="5.0564">
        <ele>72</ele>
        <time>2019-12-16T13:45:57Z</time>
      </trkpt>
      <trkpt lat="43.58825" lon="5.05641">
        <ele>72</ele>
        <time>2019-12-16T13:45:58Z</time>
      </trkpt>
      <trkpt lat="43.58824" lon="5.05642">
        <ele>72</ele>
        <time>2019-12-16T13:45:59Z</time>
      </trkpt>
      <trkpt lat="43.58823" lon="5.05642">
        <ele>72</ele>
        <time>2019-12-16T13:46:00Z</time>
      </trkpt>
      <trkpt lat="43.58823" lon="5.05643">
        <ele>72</ele>
        <time>2019-12-16T13:46:01Z</time>
      </trkpt>
      <trkpt lat="43.58822" lon="5.05643">
        <ele>72</ele>
        <time>2019-12-16T13:46:02Z</time>
      </trkpt>
      <trkpt lat="43.58821" lon="5.05644">
        <ele>72</ele>
        <time>2019-12-16T13:46:03Z</time>
      </trkpt>
      <trkpt lat="43.58821" lon="5.05645">
        <ele>72</ele>
        <time>2019-12-16T13:46:04Z</time>
      </trkpt>
      <trkpt lat="43.5882" lon="5.05645">
        <ele>72</ele>
        <time>2019-12-16T13:46:05Z</time>
      </trkpt>
      <trkpt lat="43.58819" lon="5.05646">
        <ele>72</ele>
        <time>2019-12-16T13:46:06Z</time>
      </trkpt>
      <trkpt lat="43.58818" lon="5.05646">
        <ele>72</ele>
        <time>2019-12-16T13:46:07Z</time>
      </trkpt>
      <trkpt lat="43.58818" lon="5.05647">
        <ele>72</ele>
        <time>2019-12-16T13:46:08Z</time>
      </trkpt>
      <trkpt lat="43.58817" lon="5.05647">
        <ele>72</ele>
        <time>2019-12-16T13:46:09Z</time>
      </trkpt>
      <trkpt lat="43.58816" lon="5.05648">
        <ele>72</ele>
        <time>2019-12-16T13:46:10Z</time>
      </trkpt>
      <trkpt lat="43.58815" lon="5.05648">
        <ele>72</ele>
        <time>2019-12-16T13:46:11Z</time>
      </trkpt>
      <trkpt lat="43.58815" lon="5.05649">
        <ele>72</ele>
        <time>2019-12-16T13:46:12Z</time>
      </trkpt>
      <trkpt lat="43.58814" lon="5.05649">
        <ele>72</ele>
        <time>2019-12-16T13:46:13Z</time>
      </trkpt>
      <trkpt lat="43.58813" lon="5.0565">
        <ele>72</ele>
        <time>2019-12-16T13:46:14Z</time>
      </trkpt>
      <trkpt lat="43.58812" lon="5.0565">
        <ele>72</ele>
        <time>2019-12-16T13:46:15Z</time>
      </trkpt>
      <trkpt lat="43.58811" lon="5.05651">
        <ele>72</ele>
        <time>2019-12-16T13:46:16Z</time>
      </trkpt>
      <trkpt lat="43.58811" lon="5.05651">
        <ele>72</ele>
        <time>2019-12-16T13:46:17Z</time>
      </trkpt>
      <trkpt lat="43.5881" lon="5.05652">
        <ele>72</ele>
        <time>2019-12-16T13:46:18Z</time>
      </trkpt>
      <trkpt lat="43.58809" lon="5.05652">
        <ele>72</ele>
        <time>2019-12-16T13:46:19Z</time>
      </trkpt>
      <trkpt lat="43.58808" lon="5.05653">
        <ele>72</ele>
        <time>2019-12-16T13:46:20Z</time>
      </trkpt>
      <trkpt lat="43.58808" lon="5.05653">
        <ele>72</ele>
        <time>2019-12-16T13:46:21Z</time>
      </trkpt>
      <trkpt lat="43.58807" lon="5.05654">
        <ele>72</ele>
        <time>2019-12-16T13:46:22Z</time>
      </trkpt>
      <trkpt lat="43.58806" lon="5.05655">
        <ele>72</ele>
        <time>2019-12-16T13:46:23Z</time>
      </trkpt>
      <trkpt lat="43.58805" lon="5.05655">
        <ele>72</ele>
        <time>2019-12-16T13:46:24Z</time>
      </trkpt>
      <trkpt lat="43.58805" lon="5.05656">
        <ele>72</ele>
        <time>2019-12-16T13:46:25Z</time>
      </trkpt>
      <trkpt lat="43.58804" lon="5.05657">
        <ele>72</ele>
        <time>2019-12-16T13:46:26Z</time>
      </trkpt>
      <trkpt lat="43.58804" lon="5.05657">
        <ele>72</ele>
        <time>2019-12-16T13:46:27Z</time>
      </trkpt>
      <trkpt lat="43.58803" lon="5.05658">
        <ele>72</ele>
        <time>2019-12-16T13:46:28Z</time>
      </trkpt>
      <trkpt lat="43.58802" lon="5.05659">
        <ele>72</ele>
        <time>2019-12-16T13:46:29Z</time>
      </trkpt>
      <trkpt lat="43.58802" lon="5.0566">
        <ele>72</ele>
        <time>2019-12-16T13:46:30Z</time>
      </trkpt>
      <trkpt lat="43.58801" lon="5.0566">
        <ele>72</ele>
        <time>2019-12-16T13:46:31Z</time>
      </trkpt>
      <trkpt lat="43.58801" lon="5.05661">
        <ele>72</ele>
        <time>2019-12-16T13:46:32Z</time>
      </trkpt>
      <trkpt lat="43.588" lon="5.05661">
        <ele>72</ele>
        <time>2019-12-16T13:46:33Z</time>
      </trkpt>
      <trkpt lat="43.588" lon="5.05662">
        <ele>72</ele>
        <time>2019-12-16T13:46:34Z</time>
      </trkpt>
      <trkpt lat="43.58799" lon="5.05662">
        <ele>72</ele>
        <time>2019-12-16T13:46:35Z</time>
      </trkpt>
      <trkpt lat="43.58799" lon="5.05662">
        <ele>72</ele>
        <time>2019-12-16T13:46:36Z</time>
      </trkpt>
      <trkpt lat="43.58799" lon="5.05663">
        <ele>72</ele>
        <time>2019-12-16T13:46:37Z</time>
      </trkpt>
      <trkpt lat="43.58798" lon="5.05663">
        <ele>72</ele>
        <time>2019-12-16T13:46:38Z</time>
      </trkpt>
      <trkpt lat="43.58798" lon="5.05663">
        <ele>72</ele>
        <time>2019-12-16T13:46:39Z</time>
      </trkpt>
      <trkpt lat="43.58797" lon="5.05664">
        <ele>72</ele>
        <time>2019-12-16T13:46:40Z</time>
      </trkpt>
      <trkpt lat="43.58797" lon="5.05664">
        <ele>72</ele>
        <time>2019-12-16T13:46:41Z</time>
      </trkpt>
      <trkpt lat="43.58796" lon="5.05665">
        <ele>72</ele>
        <time>2019-12-16T13:46:42Z</time>
      </trkpt>
      <trkpt lat="43.58795" lon="5.05665">
        <ele>72</ele>
        <time>2019-12-16T13:46:43Z</time>
      </trkpt>
      <trkpt lat="43.58795" lon="5.05666">
        <ele>72</ele>
        <time>2019-12-16T13:46:44Z</time>
      </trkpt>
      <trkpt lat="43.58794" lon="5.05667">
        <ele>79</ele>
        <time>2019-12-16T13:46:45Z</time>
      </trkpt>
      <trkpt lat="43.58793" lon="5.05667">
        <ele>79</ele>
        <time>2019-12-16T13:46:46Z</time>
      </trkpt>
      <trkpt lat="43.58792" lon="5.05668">
        <ele>79</ele>
        <time>2019-12-16T13:46:47Z</time>
      </trkpt>
      <trkpt lat="43.58791" lon="5.05668">
        <ele>79</ele>
        <time>2019-12-16T13:46:48Z</time>
      </trkpt>
      <trkpt lat="43.5879" lon="5.05668">
        <ele>79</ele>
        <time>2019-12-16T13:46:49Z</time>
      </trkpt>
      <trkpt lat="43.58789" lon="5.05668">
        <ele>79</ele>
        <time>2019-12-16T13:46:50Z</time>
      </trkpt>
      <trkpt lat="43.58788" lon="5.05669">
        <ele>79</ele>
        <time>2019-12-16T13:46:51Z</time>
      </trkpt>
      <trkpt lat="43.58787" lon="5.05669">
        <ele>79</ele>
        <time>2019-12-16T13:46:52Z</time>
      </trkpt>
      <trkpt lat="43.58786" lon="5.05669">
        <ele>79</ele>
        <time>2019-12-16T13:46:53Z</time>
      </trkpt>
      <trkpt lat="43.58785" lon="5.05669">
        <ele>79</ele>
        <time>2019-12-16T13:46:54Z</time>
      </trkpt>
      <trkpt lat="43.58784" lon="5.05669">
        <ele>79</ele>
        <time>2019-12-16T13:46:55Z</time>
      </trkpt>
      <trkpt lat="43.58783" lon="5.05669">
        <ele>79</ele>
        <time>2019-12-16T13:46:56Z</time>
      </trkpt>
      <trkpt lat="43.58782" lon="5.05669">
        <ele>79</ele>
        <time>2019-12-16T13:46:57Z</time>
      </trkpt>
      <trkpt lat="43.58781" lon="5.05669">
        <ele>79</ele>
        <time>2019-12-16T13:46:58Z</time>
      </trkpt>
      <trkpt lat="43.5878" lon="5.05669">
        <ele>79</ele>
        <time>2019-12-16T13:46:59Z</time>
      </trkpt>
      <trkpt lat="43.58779" lon="5.05669">
        <ele>79</ele>
        <time>2019-12-16T13:47:00Z</time>
      </trkpt>
      <trkpt lat="43.58778" lon="5.0567">
        <ele>79</ele>
        <time>2019-12-16T13:47:01Z</time>
      </trkpt>
      <trkpt lat="43.58777" lon="5.0567">
        <ele>79</ele>
        <time>2019-12-16T13:47:02Z</time>
      </trkpt>
      <trkpt lat="43.58776" lon="5.0567">
        <ele>79</ele>
        <time>2019-12-16T13:47:03Z</time>
      </trkpt>
      <trkpt lat="43.58775" lon="5.0567">
        <ele>79</ele>
        <time>2019-12-16T13:47:04Z</time>
      </trkpt>
      <trkpt lat="43.58774" lon="5.0567">
        <ele>79</ele>
        <time>2019-12-16T13:47:05Z</time>
      </trkpt>
      <trkpt lat="43.58773" lon="5.0567">
        <ele>79</ele>
        <time>2019-12-16T13:47:06Z</time>
      </trkpt>
      <trkpt lat="43.58772" lon="5.0567">
        <ele>79</ele>
        <time>2019-12-16T13:47:07Z</time>
      </trkpt>
      <trkpt lat="43.58771" lon="5.05671">
        <ele>78</ele>
        <time>2019-12-16T13:47:08Z</time>
      </trkpt>
      <trkpt lat="43.5877" lon="5.05671">
        <ele>78</ele>
        <time>2019-12-16T13:47:09Z</time>
      </trkpt>
      <trkpt lat="43.58769" lon="5.05671">
        <ele>78</ele>
        <time>2019-12-16T13:47:10Z</time>
      </trkpt>
      <trkpt lat="43.58768" lon="5.05671">
        <ele>78</ele>
        <time>2019-12-16T13:47:11Z</time>
      </trkpt>
      <trkpt lat="43.58767" lon="5.05671">
        <ele>78</ele>
        <time>2019-12-16T13:47:12Z</time>
      </trkpt>
      <trkpt lat="43.58766" lon="5.05671">
        <ele>78</ele>
        <time>2019-12-16T13:47:13Z</time>
      </trkpt>
      <trkpt lat="43.58765" lon="5.05671">
        <ele>78</ele>
        <time>2019-12-16T13:47:14Z</time>
      </trkpt>
      <trkpt lat="43.58764" lon="5.05671">
        <ele>78</ele>
        <time>2019-12-16T13:47:15Z</time>
      </trkpt>
      <trkpt lat="43.58763" lon="5.05672">
        <ele>78</ele>
        <time>2019-12-16T13:47:16Z</time>
      </trkpt>
      <trkpt lat="43.58762" lon="5.05672">
        <ele>78</ele>
        <time>2019-12-16T13:47:17Z</time>
      </trkpt>
      <trkpt lat="43.58761" lon="5.05672">
        <ele>78</ele>
        <time>2019-12-16T13:47:18Z</time>
      </trkpt>
      <trkpt lat="43.5876" lon="5.05672">
        <ele>78</ele>
        <time>2019-12-16T13:47:19Z</time>
      </trkpt>
      <trkpt lat="43.58759" lon="5.05672">
        <ele>78</ele>
        <time>2019-12-16T13:47:20Z</time>
      </trkpt>
      <trkpt lat="43.58758" lon="5.05672">
        <ele>78</ele>
        <time>2019-12-16T13:47:21Z</time>
      </trkpt>
      <trkpt lat="43.58757" lon="5.05672">
        <ele>78</ele>
        <time>2019-12-16T13:47:22Z</time>
      </trkpt>
      <trkpt lat="43.58756" lon="5.05672">
        <ele>77</ele>
        <time>2019-12-16T13:47:23Z</time>
      </trkpt>
      <trkpt lat="43.58755" lon="5.05673">
        <ele>77</ele>
        <time>2019-12-16T13:47:24Z</time>
      </trkpt>
      <trkpt lat="43.58754" lon="5.05673">
        <ele>77</ele>
        <time>2019-12-16T13:47:25Z</time>
      </trkpt>
      <trkpt lat="43.58754" lon="5.05673">
        <ele>77</ele>
        <time>2019-12-16T13:47:26Z</time>
      </trkpt>
      <trkpt lat="43.58753" lon="5.05673">
        <ele>77</ele>
        <time>2019-12-16T13:47:27Z</time>
      </trkpt>
      <trkpt lat="43.58752" lon="5.05673">
        <ele>77</ele>
        <time>2019-12-16T13:47:28Z</time>
      </trkpt>
      <trkpt lat="43.58751" lon="5.05674">
        <ele>77</ele>
        <time>2019-12-16T13:47:29Z</time>
      </trkpt>
      <trkpt lat="43.5875" lon="5.05674">
        <ele>77</ele>
        <time>2019-12-16T13:47:30Z</time>
      </trkpt>
      <trkpt lat="43.58749" lon="5.05674">
        <ele>77</ele>
        <time>2019-12-16T13:47:31Z</time>
      </trkpt>
      <trkpt lat="43.58748" lon="5.05674">
        <ele>77</ele>
        <time>2019-12-16T13:47:32Z</time>
      </trkpt>
      <trkpt lat="43.58748" lon="5.05675">
        <ele>77</ele>
        <time>2019-12-16T13:47:33Z</time>
      </trkpt>
      <trkpt lat="43.58747" lon="5.05675">
        <ele>77</ele>
        <time>2019-12-16T13:47:34Z</time>
      </trkpt>
      <trkpt lat="43.58746" lon="5.05675">
        <ele>77</ele>
        <time>2019-12-16T13:47:35Z</time>
      </trkpt>
      <trkpt lat="43.58745" lon="5.05675">
        <ele>77</ele>
        <time>2019-12-16T13:47:36Z</time>
      </trkpt>
      <trkpt lat="43.58744" lon="5.05675">
        <ele>77</ele>
        <time>2019-12-16T13:47:37Z</time>
      </trkpt>
      <trkpt lat="43.58743" lon="5.05676">
        <ele>77</ele>
        <time>2019-12-16T13:47:38Z</time>
      </trkpt>
      <trkpt lat="43.58743" lon="5.05676">
        <ele>78</ele>
        <time>2019-12-16T13:47:39Z</time>
      </trkpt>
      <trkpt lat="43.58742" lon="5.05676">
        <ele>78</ele>
        <time>2019-12-16T13:47:40Z</time>
      </trkpt>
      <trkpt lat="43.58741" lon="5.05676">
        <ele>78</ele>
        <time>2019-12-16T13:47:41Z</time>
      </trkpt>
      <trkpt lat="43.5874" lon="5.05676">
        <ele>78</ele>
        <time>2019-12-16T13:47:42Z</time>
      </trkpt>
      <trkpt lat="43.5874" lon="5.05676">
        <ele>78</ele>
        <time>2019-12-16T13:47:43Z</time>
      </trkpt>
      <trkpt lat="43.58739" lon="5.05676">
        <ele>78</ele>
        <time>2019-12-16T13:47:44Z</time>
      </trkpt>
      <trkpt lat="43.58739" lon="5.05677">
        <ele>78</ele>
        <time>2019-12-16T13:47:45Z</time>
      </trkpt>
      <trkpt lat="43.58738" lon="5.05677">
        <ele>78</ele>
        <time>2019-12-16T13:47:46Z</time>
      </trkpt>
      <trkpt lat="43.58738" lon="5.05677">
        <ele>78</ele>
        <time>2019-12-16T13:47:47Z</time>
      </trkpt>
      <trkpt lat="43.58737" lon="5.05677">
        <ele>78</ele>
        <time>2019-12-16T13:47:48Z</time>
      </trkpt>
      <trkpt lat="43.58737" lon="5.05677">
        <ele>78</ele>
        <time>2019-12-16T13:47:49Z</time>
      </trkpt>
      <trkpt lat="43.58737" lon="5.05677">
        <ele>78</ele>
        <time>2019-12-16T13:47:50Z</time>
      </trkpt>
      <trkpt lat="43.58737" lon="5.05677">
        <ele>78</ele>
        <time>2019-12-16T13:47:51Z</time>
      </trkpt>
      <trkpt lat="43.58737" lon="5.05677">
        <ele>78</ele>
        <time>2019-12-16T13:47:52Z</time>
      </trkpt>
      <trkpt lat="43.58737" lon="5.05677">
        <ele>78</ele>
        <time>2019-12-16T13:47:53Z</time>
      </trkpt>
      <trkpt lat="43.58737" lon="5.05677">
        <ele>78</ele>
        <time>2019-12-16T13:47:54Z</time>
      </trkpt>
      <trkpt lat="43.58737" lon="5.05677">
        <ele>78</ele>
        <time>2019-12-16T13:47:55Z</time>
      </trkpt>
      <trkpt lat="43.58737" lon="5.05677">
        <ele>78</ele>
        <time>2019-12-16T13:47:56Z</time>
      </trkpt>
      <trkpt lat="43.58737" lon="5.05677">
        <ele>78</ele>
        <time>2019-12-16T13:47:57Z</time>
      </trkpt>
      <trkpt lat="43.58737" lon="5.05677">
        <ele>78</ele>
        <time>2019-12-16T13:47:58Z</time>
      </trkpt>
      <trkpt lat="43.58737" lon="5.05677">
        <ele>78</ele>
        <time>2019-12-16T13:47:59Z</time>
      </trkpt>
      <trkpt lat="43.58737" lon="5.05677">
        <ele>78</ele>
        <time>2019-12-16T13:48:00Z</time>
      </trkpt>
      <trkpt lat="43.58737" lon="5.05677">
        <ele>78</ele>
        <time>2019-12-16T13:48:01Z</time>
      </trkpt>
      <trkpt lat="43.58737" lon="5.05677">
        <ele>78</ele>
        <time>2019-12-16T13:48:02Z</time>
      </trkpt>
      <trkpt lat="43.58737" lon="5.05677">
        <ele>78</ele>
        <time>2019-12-16T13:48:03Z</time>
      </trkpt>
      <trkpt lat="43.58737" lon="5.05677">
        <ele>78</ele>
        <time>2019-12-16T13:48:04Z</time>
      </trkpt>
      <trkpt lat="43.58737" lon="5.05677">
        <ele>78</ele>
        <time>2019-12-16T13:48:05Z</time>
      </trkpt>
      <trkpt lat="43.58737" lon="5.05677">
        <ele>78</ele>
        <time>2019-12-16T13:48:06Z</time>
      </trkpt>
      <trkpt lat="43.58737" lon="5.05677">
        <ele>78</ele>
        <time>2019-12-16T13:48:07Z</time>
      </trkpt>
      <trkpt lat="43.58737" lon="5.05677">
        <ele>78</ele>
        <time>2019-12-16T13:48:08Z</time>
      </trkpt>
      <trkpt lat="43.58737" lon="5.05677">
        <ele>78</ele>
        <time>2019-12-16T13:48:09Z</time>
      </trkpt>
      <trkpt lat="43.58737" lon="5.05677">
        <ele>78</ele>
        <time>2019-12-16T13:48:10Z</time>
      </trkpt>
      <trkpt lat="43.58737" lon="5.05677">
        <ele>78</ele>
        <time>2019-12-16T13:48:11Z</time>
      </trkpt>
      <trkpt lat="43.58737" lon="5.05677">
        <ele>78</ele>
        <time>2019-12-16T13:48:12Z</time>
      </trkpt>
      <trkpt lat="43.58737" lon="5.05677">
        <ele>78</ele>
        <time>2019-12-16T13:48:13Z</time>
      </trkpt>
      <trkpt lat="43.58737" lon="5.05677">
        <ele>78</ele>
        <time>2019-12-16T13:48:14Z</time>
      </trkpt>
      <trkpt lat="43.58737" lon="5.05677">
        <ele>78</ele>
        <time>2019-12-16T13:48:15Z</time>
      </trkpt>
      <trkpt lat="43.58737" lon="5.05677">
        <ele>78</ele>
        <time>2019-12-16T13:48:16Z</time>
      </trkpt>
      <trkpt lat="43.58737" lon="5.05677">
        <ele>78</ele>
        <time>2019-12-16T13:48:17Z</time>
      </trkpt>
      <trkpt lat="43.58737" lon="5.05677">
        <ele>78</ele>
        <time>2019-12-16T13:48:18Z</time>
      </trkpt>
      <trkpt lat="43.58737" lon="5.05677">
        <ele>78</ele>
        <time>2019-12-16T13:48:19Z</time>
      </trkpt>
      <trkpt lat="43.58737" lon="5.05677">
        <ele>78</ele>
        <time>2019-12-16T13:48:20Z</time>
      </trkpt>
      <trkpt lat="43.58737" lon="5.05677">
        <ele>78</ele>
        <time>2019-12-16T13:48:21Z</time>
      </trkpt>
      <trkpt lat="43.58737" lon="5.05677">
        <ele>78</ele>
        <time>2019-12-16T13:48:22Z</time>
      </trkpt>
      <trkpt lat="43.58737" lon="5.05677">
        <ele>78</ele>
        <time>2019-12-16T13:48:23Z</time>
      </trkpt>
      <trkpt lat="43.58737" lon="5.05677">
        <ele>78</ele>
        <time>2019-12-16T13:48:24Z</time>
      </trkpt>
      <trkpt lat="43.58737" lon="5.05677">
        <ele>78</ele>
        <time>2019-12-16T13:48:25Z</time>
      </trkpt>
      <trkpt lat="43.58737" lon="5.05677">
        <ele>78</ele>
        <time>2019-12-16T13:48:26Z</time>
      </trkpt>
      <trkpt lat="43.58737" lon="5.05677">
        <ele>78</ele>
        <time>2019-12-16T13:48:27Z</time>
      </trkpt>
      <trkpt lat="43.58737" lon="5.05677">
        <ele>78</ele>
        <time>2019-12-16T13:48:28Z</time>
      </trkpt>
      <trkpt lat="43.58737" lon="5.05677">
        <ele>78</ele>
        <time>2019-12-16T13:48:29Z</time>
      </trkpt>
      <trkpt lat="43.58737" lon="5.05677">
        <ele>78</ele>
        <time>2019-12-16T13:48:30Z</time>
      </trkpt>
      <trkpt lat="43.58737" lon="5.05677">
        <ele>78</ele>
        <time>2019-12-16T13:48:31Z</time>
      </trkpt>
      <trkpt lat="43.58737" lon="5.05677">
        <ele>78</ele>
        <time>2019-12-16T13:48:32Z</time>
      </trkpt>
      <trkpt lat="43.58737" lon="5.05677">
        <ele>78</ele>
        <time>2019-12-16T13:48:33Z</time>
      </trkpt>
      <trkpt lat="43.58737" lon="5.05677">
        <ele>78</ele>
        <time>2019-12-16T13:48:34Z</time>
      </trkpt>
      <trkpt lat="43.58737" lon="5.05677">
        <ele>78</ele>
        <time>2019-12-16T13:48:35Z</time>
      </trkpt>
      <trkpt lat="43.58737" lon="5.05677">
        <ele>78</ele>
        <time>2019-12-16T13:48:36Z</time>
      </trkpt>
      <trkpt lat="43.58737" lon="5.05677">
        <ele>78</ele>
        <time>2019-12-16T13:48:37Z</time>
      </trkpt>
      <trkpt lat="43.58737" lon="5.05677">
        <ele>78</ele>
        <time>2019-12-16T13:48:38Z</time>
      </trkpt>
      <trkpt lat="43.58737" lon="5.05677">
        <ele>78</ele>
        <time>2019-12-16T13:48:39Z</time>
      </trkpt>
      <trkpt lat="43.58737" lon="5.05677">
        <ele>78</ele>
        <time>2019-12-16T13:48:40Z</time>
      </trkpt>
      <trkpt lat="43.58737" lon="5.05677">
        <ele>78</ele>
        <time>2019-12-16T13:48:41Z</time>
      </trkpt>
      <trkpt lat="43.58737" lon="5.05677">
        <ele>78</ele>
        <time>2019-12-16T13:48:42Z</time>
      </trkpt>
      <trkpt lat="43.58737" lon="5.05677">
        <ele>78</ele>
        <time>2019-12-16T13:48:43Z</time>
      </trkpt>
      <trkpt lat="43.58737" lon="5.05677">
        <ele>78</ele>
        <time>2019-12-16T13:48:44Z</time>
      </trkpt>
      <trkpt lat="43.58737" lon="5.05677">
        <ele>78</ele>
        <time>2019-12-16T13:48:45Z</time>
      </trkpt>
      <trkpt lat="43.58737" lon="5.05677">
        <ele>78</ele>
        <time>2019-12-16T13:48:46Z</time>
      </trkpt>
      <trkpt lat="43.58737" lon="5.05677">
        <ele>78</ele>
        <time>2019-12-16T13:48:47Z</time>
      </trkpt>
      <trkpt lat="43.58737" lon="5.05677">
        <ele>78</ele>
        <time>2019-12-16T13:48:48Z</time>
      </trkpt>
      <trkpt lat="43.58737" lon="5.05677">
        <ele>78</ele>
        <time>2019-12-16T13:48:49Z</time>
      </trkpt>
      <trkpt lat="43.58737" lon="5.05677">
        <ele>78</ele>
        <time>2019-12-16T13:48:50Z</time>
      </trkpt>
      <trkpt lat="43.58737" lon="5.05677">
        <ele>78</ele>
        <time>2019-12-16T13:48:51Z</time>
      </trkpt>
      <trkpt lat="43.58737" lon="5.05677">
        <ele>78</ele>
        <time>2019-12-16T13:48:52Z</time>
      </trkpt>
      <trkpt lat="43.58737" lon="5.05677">
        <ele>78</ele>
        <time>2019-12-16T13:48:53Z</time>
      </trkpt>
      <trkpt lat="43.58737" lon="5.05677">
        <ele>78</ele>
        <time>2019-12-16T13:48:54Z</time>
      </trkpt>
      <trkpt lat="43.58737" lon="5.05677">
        <ele>78</ele>
        <time>2019-12-16T13:48:55Z</time>
      </trkpt>
      <trkpt lat="43.58737" lon="5.05677">
        <ele>78</ele>
        <time>2019-12-16T13:48:56Z</time>
      </trkpt>
      <trkpt lat="43.58737" lon="5.05677">
        <ele>78</ele>
        <time>2019-12-16T13:48:57Z</time>
      </trkpt>
      <trkpt lat="43.58737" lon="5.05677">
        <ele>78</ele>
        <time>2019-12-16T13:48:58Z</time>
      </trkpt>
      <trkpt lat="43.58737" lon="5.05677">
        <ele>78</ele>
        <time>2019-12-16T13:48:59Z</time>
      </trkpt>
      <trkpt lat="43.58737" lon="5.05677">
        <ele>78</ele>
        <time>2019-12-16T13:49:00Z</time>
      </trkpt>
      <trkpt lat="43.58737" lon="5.05677">
        <ele>78</ele>
        <time>2019-12-16T13:49:01Z</time>
      </trkpt>
      <trkpt lat="43.58737" lon="5.05677">
        <ele>78</ele>
        <time>2019-12-16T13:49:02Z</time>
      </trkpt>
      <trkpt lat="43.58737" lon="5.05677">
        <ele>78</ele>
        <time>2019-12-16T13:49:03Z</time>
      </trkpt>
      <trkpt lat="43.58737" lon="5.05677">
        <ele>78</ele>
        <time>2019-12-16T13:49:04Z</time>
      </trkpt>
      <trkpt lat="43.58737" lon="5.05677">
        <ele>78</ele>
        <time>2019-12-16T13:49:05Z</time>
      </trkpt>
      <trkpt lat="43.58737" lon="5.05677">
        <ele>78</ele>
        <time>2019-12-16T13:49:06Z</time>
      </trkpt>
      <trkpt lat="43.58737" lon="5.05677">
        <ele>78</ele>
        <time>2019-12-16T13:49:07Z</time>
      </trkpt>
      <trkpt lat="43.58737" lon="5.05677">
        <ele>78</ele>
        <time>2019-12-16T13:49:08Z</time>
      </trkpt>
      <trkpt lat="43.58737" lon="5.05677">
        <ele>78</ele>
        <time>2019-12-16T13:49:09Z</time>
      </trkpt>
      <trkpt lat="43.58737" lon="5.05677">
        <ele>78</ele>
        <time>2019-12-16T13:49:10Z</time>
      </trkpt>
      <trkpt lat="43.58737" lon="5.05677">
        <ele>78</ele>
        <time>2019-12-16T13:49:11Z</time>
      </trkpt>
      <trkpt lat="43.58737" lon="5.05677">
        <ele>78</ele>
        <time>2019-12-16T13:49:12Z</time>
      </trkpt>
      <trkpt lat="43.58737" lon="5.05677">
        <ele>78</ele>
        <time>2019-12-16T13:49:13Z</time>
      </trkpt>
      <trkpt lat="43.58737" lon="5.05677">
        <ele>78</ele>
        <time>2019-12-16T13:49:14Z</time>
      </trkpt>
      <trkpt lat="43.58737" lon="5.05677">
        <ele>78</ele>
        <time>2019-12-16T13:49:15Z</time>
      </trkpt>
      <trkpt lat="43.58737" lon="5.05677">
        <ele>78</ele>
        <time>2019-12-16T13:49:16Z</time>
      </trkpt>
      <trkpt lat="43.58737" lon="5.05677">
        <ele>78</ele>
        <time>2019-12-16T13:49:17Z</time>
      </trkpt>
      <trkpt lat="43.58737" lon="5.05677">
        <ele>78</ele>
        <time>2019-12-16T13:49:18Z</time>
      </trkpt>
      <trkpt lat="43.58737" lon="5.05677">
        <ele>78</ele>
        <time>2019-12-16T13:49:19Z</time>
      </trkpt>
      <trkpt lat="43.58737" lon="5.05677">
        <ele>78</ele>
        <time>2019-12-16T13:49:20Z</time>
      </trkpt>
      <trkpt lat="43.58737" lon="5.05677">
        <ele>78</ele>
        <time>2019-12-16T13:49:21Z</time>
      </trkpt>
      <trkpt lat="43.58737" lon="5.05677">
        <ele>78</ele>
        <time>2019-12-16T13:49:22Z</time>
      </trkpt>
      <trkpt lat="43.58737" lon="5.05677">
        <ele>78</ele>
        <time>2019-12-16T13:49:23Z</time>
      </trkpt>
      <trkpt lat="43.58737" lon="5.05677">
        <ele>78</ele>
        <time>2019-12-16T13:49:24Z</time>
      </trkpt>
      <trkpt lat="43.58737" lon="5.05677">
        <ele>78</ele>
        <time>2019-12-16T13:49:25Z</time>
      </trkpt>
      <trkpt lat="43.58737" lon="5.05677">
        <ele>78</ele>
        <time>2019-12-16T13:49:26Z</time>
      </trkpt>
      <trkpt lat="43.58737" lon="5.05677">
        <ele>78</ele>
        <time>2019-12-16T13:49:27Z</time>
      </trkpt>
      <trkpt lat="43.58737" lon="5.05677">
        <ele>78</ele>
        <time>2019-12-16T13:49:28Z</time>
      </trkpt>
      <trkpt lat="43.58737" lon="5.05677">
        <ele>78</ele>
        <time>2019-12-16T13:49:29Z</time>
      </trkpt>
      <trkpt lat="43.58737" lon="5.05677">
        <ele>78</ele>
        <time>2019-12-16T13:49:30Z</time>
      </trkpt>
      <trkpt lat="43.58737" lon="5.05677">
        <ele>78</ele>
        <time>2019-12-16T13:49:31Z</time>
      </trkpt>
      <trkpt lat="43.58737" lon="5.05677">
        <ele>78</ele>
        <time>2019-12-16T13:49:32Z</time>
      </trkpt>
      <trkpt lat="43.58737" lon="5.05677">
        <ele>78</ele>
        <time>2019-12-16T13:49:33Z</time>
      </trkpt>
      <trkpt lat="43.58737" lon="5.05677">
        <ele>78</ele>
        <time>2019-12-16T13:49:34Z</time>
      </trkpt>
      <trkpt lat="43.58737" lon="5.05677">
        <ele>78</ele>
        <time>2019-12-16T13:49:35Z</time>
      </trkpt>
      <trkpt lat="43.58737" lon="5.05677">
        <ele>78</ele>
        <time>2019-12-16T13:49:36Z</time>
      </trkpt>
      <trkpt lat="43.58737" lon="5.05677">
        <ele>78</ele>
        <time>2019-12-16T13:49:37Z</time>
      </trkpt>
      <trkpt lat="43.58737" lon="5.05677">
        <ele>78</ele>
        <time>2019-12-16T13:49:38Z</time>
      </trkpt>
      <trkpt lat="43.58737" lon="5.05677">
        <ele>78</ele>
        <time>2019-12-16T13:49:39Z</time>
      </trkpt>
      <trkpt lat="43.58737" lon="5.05677">
        <ele>78</ele>
        <time>2019-12-16T13:49:40Z</time>
      </trkpt>
      <trkpt lat="43.58737" lon="5.05677">
        <ele>78</ele>
        <time>2019-12-16T13:49:41Z</time>
      </trkpt>
      <trkpt lat="43.58737" lon="5.05677">
        <ele>78</ele>
        <time>2019-12-16T13:49:42Z</time>
      </trkpt>
      <trkpt lat="43.58737" lon="5.05677">
        <ele>78</ele>
        <time>2019-12-16T13:49:43Z</time>
      </trkpt>
      <trkpt lat="43.58737" lon="5.05677">
        <ele>78</ele>
        <time>2019-12-16T13:49:44Z</time>
      </trkpt>
      <trkpt lat="43.58737" lon="5.05677">
        <ele>78</ele>
        <time>2019-12-16T13:49:45Z</time>
      </trkpt>
      <trkpt lat="43.58737" lon="5.05677">
        <ele>78</ele>
        <time>2019-12-16T13:49:46Z</time>
      </trkpt>
      <trkpt lat="43.58737" lon="5.05677">
        <ele>78</ele>
        <time>2019-12-16T13:49:47Z</time>
      </trkpt>
      <trkpt lat="43.58737" lon="5.05677">
        <ele>78</ele>
        <time>2019-12-16T13:49:48Z</time>
      </trkpt>
      <trkpt lat="43.58737" lon="5.05677">
        <ele>78</ele>
        <time>2019-12-16T13:49:49Z</time>
      </trkpt>
      <trkpt lat="43.58737" lon="5.05677">
        <ele>78</ele>
        <time>2019-12-16T13:49:50Z</time>
      </trkpt>
      <trkpt lat="43.58737" lon="5.05677">
        <ele>78</ele>
        <time>2019-12-16T13:49:51Z</time>
      </trkpt>
      <trkpt lat="43.58737" lon="5.05677">
        <ele>78</ele>
        <time>2019-12-16T13:49:52Z</time>
      </trkpt>
      <trkpt lat="43.58737" lon="5.05677">
        <ele>78</ele>
        <time>2019-12-16T13:49:53Z</time>
      </trkpt>
      <trkpt lat="43.58737" lon="5.05677">
        <ele>78</ele>
        <time>2019-12-16T13:49:54Z</time>
      </trkpt>
      <trkpt lat="43.58737" lon="5.05677">
        <ele>78</ele>
        <time>2019-12-16T13:49:55Z</time>
      </trkpt>
      <trkpt lat="43.58737" lon="5.05677">
        <ele>78</ele>
        <time>2019-12-16T13:49:56Z</time>
      </trkpt>
      <trkpt lat="43.58737" lon="5.05677">
        <ele>78</ele>
        <time>2019-12-16T13:49:57Z</time>
      </trkpt>
      <trkpt lat="43.58737" lon="5.05677">
        <ele>78</ele>
        <time>2019-12-16T13:49:58Z</time>
      </trkpt>
      <trkpt lat="43.58737" lon="5.05677">
        <ele>78</ele>
        <time>2019-12-16T13:49:59Z</time>
      </trkpt>
      <trkpt lat="43.58737" lon="5.05677">
        <ele>78</ele>
        <time>2019-12-16T13:50:00Z</time>
      </trkpt>
      <trkpt lat="43.58737" lon="5.05677">
        <ele>78</ele>
        <time>2019-12-16T13:50:01Z</time>
      </trkpt>
      <trkpt lat="43.58737" lon="5.05677">
        <ele>78</ele>
        <time>2019-12-16T13:50:02Z</time>
      </trkpt>
      <trkpt lat="43.58737" lon="5.05677">
        <ele>78</ele>
        <time>2019-12-16T13:50:03Z</time>
      </trkpt>
      <trkpt lat="43.58737" lon="5.05677">
        <ele>78</ele>
        <time>2019-12-16T13:50:04Z</time>
      </trkpt>
      <trkpt lat="43.58737" lon="5.05677">
        <ele>78</ele>
        <time>2019-12-16T13:50:05Z</time>
      </trkpt>
      <trkpt lat="43.58737" lon="5.05677">
        <ele>78</ele>
        <time>2019-12-16T13:50:06Z</time>
      </trkpt>
      <trkpt lat="43.58737" lon="5.05677">
        <ele>78</ele>
        <time>2019-12-16T13:50:07Z</time>
      </trkpt>
      <trkpt lat="43.58737" lon="5.05677">
        <ele>78</ele>
        <time>2019-12-16T13:50:08Z</time>
      </trkpt>
      <trkpt lat="43.58737" lon="5.05677">
        <ele>78</ele>
        <time>2019-12-16T13:50:09Z</time>
      </trkpt>
      <trkpt lat="43.58737" lon="5.05677">
        <ele>78</ele>
        <time>2019-12-16T13:50:10Z</time>
      </trkpt>
      <trkpt lat="43.58737" lon="5.05677">
        <ele>78</ele>
        <time>2019-12-16T13:50:11Z</time>
      </trkpt>
      <trkpt lat="43.58737" lon="5.05677">
        <ele>78</ele>
        <time>2019-12-16T13:50:12Z</time>
      </trkpt>
      <trkpt lat="43.58737" lon="5.05677">
        <ele>78</ele>
        <time>2019-12-16T13:50:13Z</time>
      </trkpt>
      <trkpt lat="43.58737" lon="5.05677">
        <ele>78</ele>
        <time>2019-12-16T13:50:14Z</time>
      </trkpt>
      <trkpt lat="43.58737" lon="5.05677">
        <ele>78</ele>
        <time>2019-12-16T13:50:15Z</time>
      </trkpt>
      <trkpt lat="43.58737" lon="5.05677">
        <ele>78</ele>
        <time>2019-12-16T13:50:16Z</time>
      </trkpt>
      <trkpt lat="43.58737" lon="5.05677">
        <ele>78</ele>
        <time>2019-12-16T13:50:17Z</time>
      </trkpt>
      <trkpt lat="43.58737" lon="5.05677">
        <ele>78</ele>
        <time>2019-12-16T13:50:18Z</time>
      </trkpt>
      <trkpt lat="43.58737" lon="5.05677">
        <ele>78</ele>
        <time>2019-12-16T13:50:19Z</time>
      </trkpt>
      <trkpt lat="43.58737" lon="5.05677">
        <ele>78</ele>
        <time>2019-12-16T13:50:20Z</time>
      </trkpt>
      <trkpt lat="43.58737" lon="5.05677">
        <ele>78</ele>
        <time>2019-12-16T13:50:21Z</time>
      </trkpt>
      <trkpt lat="43.58737" lon="5.05677">
        <ele>78</ele>
        <time>2019-12-16T13:50:22Z</time>
      </trkpt>
      <trkpt lat="43.58737" lon="5.05677">
        <ele>78</ele>
        <time>2019-12-16T13:50:23Z</time>
      </trkpt>
      <trkpt lat="43.58737" lon="5.05677">
        <ele>78</ele>
        <time>2019-12-16T13:50:24Z</time>
      </trkpt>
      <trkpt lat="43.58737" lon="5.05677">
        <ele>78</ele>
        <time>2019-12-16T13:50:25Z</time>
      </trkpt>
      <trkpt lat="43.58737" lon="5.05677">
        <ele>78</ele>
        <time>2019-12-16T13:50:26Z</time>
      </trkpt>
      <trkpt lat="43.58737" lon="5.05677">
        <ele>78</ele>
        <time>2019-12-16T13:50:27Z</time>
      </trkpt>
      <trkpt lat="43.58737" lon="5.05677">
        <ele>78</ele>
        <time>2019-12-16T13:50:28Z</time>
      </trkpt>
      <trkpt lat="43.58737" lon="5.05677">
        <ele>78</ele>
        <time>2019-12-16T13:50:29Z</time>
      </trkpt>
      <trkpt lat="43.58737" lon="5.05677">
        <ele>78</ele>
        <time>2019-12-16T13:50:30Z</time>
      </trkpt>
      <trkpt lat="43.58737" lon="5.05677">
        <ele>78</ele>
        <time>2019-12-16T13:50:31Z</time>
      </trkpt>
      <trkpt lat="43.58737" lon="5.05677">
        <ele>78</ele>
        <time>2019-12-16T13:50:32Z</time>
      </trkpt>
      <trkpt lat="43.58737" lon="5.05677">
        <ele>78</ele>
        <time>2019-12-16T13:50:33Z</time>
      </trkpt>
      <trkpt lat="43.58737" lon="5.05677">
        <ele>78</ele>
        <time>2019-12-16T13:50:34Z</time>
      </trkpt>
      <trkpt lat="43.58737" lon="5.05677">
        <ele>78</ele>
        <time>2019-12-16T13:50:35Z</time>
      </trkpt>
      <trkpt lat="43.58737" lon="5.05677">
        <ele>78</ele>
        <time>2019-12-16T13:50:36Z</time>
      </trkpt>
      <trkpt lat="43.58737" lon="5.05677">
        <ele>78</ele>
        <time>2019-12-16T13:50:37Z</time>
      </trkpt>
      <trkpt lat="43.58737" lon="5.05677">
        <ele>78</ele>
        <time>2019-12-16T13:50:38Z</time>
      </trkpt>
      <trkpt lat="43.58737" lon="5.05677">
        <ele>78</ele>
        <time>2019-12-16T13:50:39Z</time>
      </trkpt>
      <trkpt lat="43.58737" lon="5.05677">
        <ele>78</ele>
        <time>2019-12-16T13:50:40Z</time>
      </trkpt>
      <trkpt lat="43.58737" lon="5.05677">
        <ele>78</ele>
        <time>2019-12-16T13:50:41Z</time>
      </trkpt>
      <trkpt lat="43.58737" lon="5.05677">
        <ele>78</ele>
        <time>2019-12-16T13:50:42Z</time>
      </trkpt>
      <trkpt lat="43.58737" lon="5.05677">
        <ele>78</ele>
        <time>2019-12-16T13:50:43Z</time>
      </trkpt>
      <trkpt lat="43.58737" lon="5.05677">
        <ele>78</ele>
        <time>2019-12-16T13:50:44Z</time>
      </trkpt>
      <trkpt lat="43.58737" lon="5.05677">
        <ele>78</ele>
        <time>2019-12-16T13:50:45Z</time>
      </trkpt>
      <trkpt lat="43.58737" lon="5.05677">
        <ele>78</ele>
        <time>2019-12-16T13:50:46Z</time>
      </trkpt>
      <trkpt lat="43.58737" lon="5.05677">
        <ele>78</ele>
        <time>2019-12-16T13:50:47Z</time>
      </trkpt>
      <trkpt lat="43.58737" lon="5.05677">
        <ele>78</ele>
        <time>2019-12-16T13:50:48Z</time>
      </trkpt>
      <trkpt lat="43.58737" lon="5.05677">
        <ele>78</ele>
        <time>2019-12-16T13:50:49Z</time>
      </trkpt>
      <trkpt lat="43.58737" lon="5.05677">
        <ele>78</ele>
        <time>2019-12-16T13:50:50Z</time>
      </trkpt>
      <trkpt lat="43.58737" lon="5.05677">
        <ele>78</ele>
        <time>2019-12-16T13:50:51Z</time>
      </trkpt>
      <trkpt lat="43.58737" lon="5.05677">
        <ele>78</ele>
        <time>2019-12-16T13:50:52Z</time>
      </trkpt>
      <trkpt lat="43.58737" lon="5.05677">
        <ele>78</ele>
        <time>2019-12-16T13:50:53Z</time>
      </trkpt>
      <trkpt lat="43.58736" lon="5.05677">
        <ele>78</ele>
        <time>2019-12-16T13:50:54Z</time>
      </trkpt>
      <trkpt lat="43.58735" lon="5.05678">
        <ele>78</ele>
        <time>2019-12-16T13:50:55Z</time>
      </trkpt>
      <trkpt lat="43.58734" lon="5.05679">
        <ele>78</ele>
        <time>2019-12-16T13:50:56Z</time>
      </trkpt>
      <trkpt lat="43.58733" lon="5.05679">
        <ele>78</ele>
        <time>2019-12-16T13:50:57Z</time>
      </trkpt>
      <trkpt lat="43.58733" lon="5.05679">
        <ele>78</ele>
        <time>2019-12-16T13:50:58Z</time>
      </trkpt>
      <trkpt lat="43.58733" lon="5.05679">
        <ele>78</ele>
        <time>2019-12-16T13:50:59Z</time>
      </trkpt>
      <trkpt lat="43.58733" lon="5.05679">
        <ele>78</ele>
        <time>2019-12-16T13:51:00Z</time>
      </trkpt>
      <trkpt lat="43.58732" lon="5.05679">
        <ele>78</ele>
        <time>2019-12-16T13:51:01Z</time>
      </trkpt>
      <trkpt lat="43.58732" lon="5.05679">
        <ele>78</ele>
        <time>2019-12-16T13:51:02Z</time>
      </trkpt>
      <trkpt lat="43.58732" lon="5.05679">
        <ele>78</ele>
        <time>2019-12-16T13:51:03Z</time>
      </trkpt>
      <trkpt lat="43.58732" lon="5.05679">
        <ele>78</ele>
        <time>2019-12-16T13:51:04Z</time>
      </trkpt>
      <trkpt lat="43.58731" lon="5.0568">
        <ele>78</ele>
        <time>2019-12-16T13:51:05Z</time>
      </trkpt>
      <trkpt lat="43.58731" lon="5.0568">
        <ele>78</ele>
        <time>2019-12-16T13:51:06Z</time>
      </trkpt>
      <trkpt lat="43.58731" lon="5.0568">
        <ele>78</ele>
        <time>2019-12-16T13:51:07Z</time>
      </trkpt>
      <trkpt lat="43.58731" lon="5.05681">
        <ele>78</ele>
        <time>2019-12-16T13:51:08Z</time>
      </trkpt>
      <trkpt lat="43.5873" lon="5.05681">
        <ele>78</ele>
        <time>2019-12-16T13:51:09Z</time>
      </trkpt>
      <trkpt lat="43.5873" lon="5.05682">
        <ele>78</ele>
        <time>2019-12-16T13:51:10Z</time>
      </trkpt>
      <trkpt lat="43.5873" lon="5.05682">
        <ele>78</ele>
        <time>2019-12-16T13:51:11Z</time>
      </trkpt>
      <trkpt lat="43.58729" lon="5.05682">
        <ele>79</ele>
        <time>2019-12-16T13:51:12Z</time>
      </trkpt>
      <trkpt lat="43.58729" lon="5.05683">
        <ele>79</ele>
        <time>2019-12-16T13:51:13Z</time>
      </trkpt>
      <trkpt lat="43.58728" lon="5.05683">
        <ele>79</ele>
        <time>2019-12-16T13:51:14Z</time>
      </trkpt>
      <trkpt lat="43.58728" lon="5.05684">
        <ele>79</ele>
        <time>2019-12-16T13:51:15Z</time>
      </trkpt>
      <trkpt lat="43.58727" lon="5.05685">
        <ele>79</ele>
        <time>2019-12-16T13:51:16Z</time>
      </trkpt>
      <trkpt lat="43.58727" lon="5.05685">
        <ele>79</ele>
        <time>2019-12-16T13:51:17Z</time>
      </trkpt>
      <trkpt lat="43.58727" lon="5.05686">
        <ele>79</ele>
        <time>2019-12-16T13:51:18Z</time>
      </trkpt>
      <trkpt lat="43.58726" lon="5.05686">
        <ele>79</ele>
        <time>2019-12-16T13:51:19Z</time>
      </trkpt>
      <trkpt lat="43.58726" lon="5.05687">
        <ele>79</ele>
        <time>2019-12-16T13:51:20Z</time>
      </trkpt>
      <trkpt lat="43.58726" lon="5.05688">
        <ele>79</ele>
        <time>2019-12-16T13:51:21Z</time>
      </trkpt>
      <trkpt lat="43.58725" lon="5.05689">
        <ele>79</ele>
        <time>2019-12-16T13:51:22Z</time>
      </trkpt>
      <trkpt lat="43.58725" lon="5.0569">
        <ele>79</ele>
        <time>2019-12-16T13:51:23Z</time>
      </trkpt>
      <trkpt lat="43.58725" lon="5.05691">
        <ele>79</ele>
        <time>2019-12-16T13:51:24Z</time>
      </trkpt>
      <trkpt lat="43.58724" lon="5.05691">
        <ele>79</ele>
        <time>2019-12-16T13:51:25Z</time>
      </trkpt>
      <trkpt lat="43.58724" lon="5.05692">
        <ele>79</ele>
        <time>2019-12-16T13:51:26Z</time>
      </trkpt>
      <trkpt lat="43.58724" lon="5.05693">
        <ele>79</ele>
        <time>2019-12-16T13:51:27Z</time>
      </trkpt>
      <trkpt lat="43.58723" lon="5.05694">
        <ele>79</ele>
        <time>2019-12-16T13:51:28Z</time>
      </trkpt>
      <trkpt lat="43.58723" lon="5.05695">
        <ele>79</ele>
        <time>2019-12-16T13:51:29Z</time>
      </trkpt>
      <trkpt lat="43.58723" lon="5.05696">
        <ele>79</ele>
        <time>2019-12-16T13:51:30Z</time>
      </trkpt>
      <trkpt lat="43.58723" lon="5.05697">
        <ele>80</ele>
        <time>2019-12-16T13:51:31Z</time>
      </trkpt>
      <trkpt lat="43.58722" lon="5.05698">
        <ele>80</ele>
        <time>2019-12-16T13:51:32Z</time>
      </trkpt>
      <trkpt lat="43.58722" lon="5.05699">
        <ele>80</ele>
        <time>2019-12-16T13:51:33Z</time>
      </trkpt>
      <trkpt lat="43.58722" lon="5.057">
        <ele>80</ele>
        <time>2019-12-16T13:51:34Z</time>
      </trkpt>
      <trkpt lat="43.58721" lon="5.05701">
        <ele>80</ele>
        <time>2019-12-16T13:51:35Z</time>
      </trkpt>
      <trkpt lat="43.58721" lon="5.05702">
        <ele>80</ele>
        <time>2019-12-16T13:51:36Z</time>
      </trkpt>
      <trkpt lat="43.5872" lon="5.05703">
        <ele>80</ele>
        <time>2019-12-16T13:51:37Z</time>
      </trkpt>
      <trkpt lat="43.5872" lon="5.05704">
        <ele>80</ele>
        <time>2019-12-16T13:51:38Z</time>
      </trkpt>
      <trkpt lat="43.58719" lon="5.05705">
        <ele>80</ele>
        <time>2019-12-16T13:51:39Z</time>
      </trkpt>
      <trkpt lat="43.58718" lon="5.05706">
        <ele>80</ele>
        <time>2019-12-16T13:51:40Z</time>
      </trkpt>
      <trkpt lat="43.58717" lon="5.05708">
        <ele>80</ele>
        <time>2019-12-16T13:51:41Z</time>
      </trkpt>
      <trkpt lat="43.58717" lon="5.05709">
        <ele>80</ele>
        <time>2019-12-16T13:51:42Z</time>
      </trkpt>
      <trkpt lat="43.58716" lon="5.0571">
        <ele>80</ele>
        <time>2019-12-16T13:51:43Z</time>
      </trkpt>
      <trkpt lat="43.58715" lon="5.05711">
        <ele>80</ele>
        <time>2019-12-16T13:51:44Z</time>
      </trkpt>
      <trkpt lat="43.58715" lon="5.05713">
        <ele>81</ele>
        <time>2019-12-16T13:51:45Z</time>
      </trkpt>
      <trkpt lat="43.58714" lon="5.05714">
        <ele>81</ele>
        <time>2019-12-16T13:51:46Z</time>
      </trkpt>
      <trkpt lat="43.58714" lon="5.05715">
        <ele>81</ele>
        <time>2019-12-16T13:51:47Z</time>
      </trkpt>
      <trkpt lat="43.58713" lon="5.05717">
        <ele>81</ele>
        <time>2019-12-16T13:51:48Z</time>
      </trkpt>
      <trkpt lat="43.58713" lon="5.05719">
        <ele>81</ele>
        <time>2019-12-16T13:51:49Z</time>
      </trkpt>
      <trkpt lat="43.58712" lon="5.0572">
        <ele>81</ele>
        <time>2019-12-16T13:51:50Z</time>
      </trkpt>
      <trkpt lat="43.58712" lon="5.05722">
        <ele>81</ele>
        <time>2019-12-16T13:51:51Z</time>
      </trkpt>
      <trkpt lat="43.58712" lon="5.05723">
        <ele>81</ele>
        <time>2019-12-16T13:51:52Z</time>
      </trkpt>
      <trkpt lat="43.58711" lon="5.05724">
        <ele>81</ele>
        <time>2019-12-16T13:51:53Z</time>
      </trkpt>
      <trkpt lat="43.58711" lon="5.05725">
        <ele>81</ele>
        <time>2019-12-16T13:51:54Z</time>
      </trkpt>
      <trkpt lat="43.58711" lon="5.05726">
        <ele>81</ele>
        <time>2019-12-16T13:51:55Z</time>
      </trkpt>
      <trkpt lat="43.58711" lon="5.05726">
        <ele>81</ele>
        <time>2019-12-16T13:51:56Z</time>
      </trkpt>
      <trkpt lat="43.58711" lon="5.05726">
        <ele>81</ele>
        <time>2019-12-16T13:51:57Z</time>
      </trkpt>
      <trkpt lat="43.58711" lon="5.05726">
        <ele>81</ele>
        <time>2019-12-16T13:51:58Z</time>
      </trkpt>
      <trkpt lat="43.58711" lon="5.05727">
        <ele>81</ele>
        <time>2019-12-16T13:51:59Z</time>
      </trkpt>
      <trkpt lat="43.5871" lon="5.05727">
        <ele>81</ele>
        <time>2019-12-16T13:52:00Z</time>
      </trkpt>
      <trkpt lat="43.5871" lon="5.05728">
        <ele>81</ele>
        <time>2019-12-16T13:52:01Z</time>
      </trkpt>
      <trkpt lat="43.5871" lon="5.05729">
        <ele>81</ele>
        <time>2019-12-16T13:52:02Z</time>
      </trkpt>
      <trkpt lat="43.5871" lon="5.0573">
        <ele>82</ele>
        <time>2019-12-16T13:52:03Z</time>
      </trkpt>
      <trkpt lat="43.58709" lon="5.05731">
        <ele>82</ele>
        <time>2019-12-16T13:52:04Z</time>
      </trkpt>
      <trkpt lat="43.58709" lon="5.05732">
        <ele>82</ele>
        <time>2019-12-16T13:52:05Z</time>
      </trkpt>
      <trkpt lat="43.58709" lon="5.05733">
        <ele>82</ele>
        <time>2019-12-16T13:52:06Z</time>
      </trkpt>
      <trkpt lat="43.58709" lon="5.05734">
        <ele>82</ele>
        <time>2019-12-16T13:52:07Z</time>
      </trkpt>
      <trkpt lat="43.58709" lon="5.05734">
        <ele>82</ele>
        <time>2019-12-16T13:52:08Z</time>
      </trkpt>
      <trkpt lat="43.58709" lon="5.05735">
        <ele>82</ele>
        <time>2019-12-16T13:52:09Z</time>
      </trkpt>
      <trkpt lat="43.58708" lon="5.05736">
        <ele>82</ele>
        <time>2019-12-16T13:52:10Z</time>
      </trkpt>
      <trkpt lat="43.58708" lon="5.05737">
        <ele>82</ele>
        <time>2019-12-16T13:52:11Z</time>
      </trkpt>
      <trkpt lat="43.58708" lon="5.05738">
        <ele>82</ele>
        <time>2019-12-16T13:52:12Z</time>
      </trkpt>
      <trkpt lat="43.58707" lon="5.05739">
        <ele>82</ele>
        <time>2019-12-16T13:52:13Z</time>
      </trkpt>
      <trkpt lat="43.58707" lon="5.0574">
        <ele>82</ele>
        <time>2019-12-16T13:52:14Z</time>
      </trkpt>
      <trkpt lat="43.58707" lon="5.0574">
        <ele>82</ele>
        <time>2019-12-16T13:52:15Z</time>
      </trkpt>
      <trkpt lat="43.58707" lon="5.05741">
        <ele>82</ele>
        <time>2019-12-16T13:52:16Z</time>
      </trkpt>
      <trkpt lat="43.58706" lon="5.05741">
        <ele>82</ele>
        <time>2019-12-16T13:52:17Z</time>
      </trkpt>
      <trkpt lat="43.58706" lon="5.05742">
        <ele>82</ele>
        <time>2019-12-16T13:52:18Z</time>
      </trkpt>
      <trkpt lat="43.58706" lon="5.05742">
        <ele>82</ele>
        <time>2019-12-16T13:52:19Z</time>
      </trkpt>
      <trkpt lat="43.58706" lon="5.05742">
        <ele>82</ele>
        <time>2019-12-16T13:52:20Z</time>
      </trkpt>
      <trkpt lat="43.58706" lon="5.05743">
        <ele>82</ele>
        <time>2019-12-16T13:52:21Z</time>
      </trkpt>
      <trkpt lat="43.58705" lon="5.05743">
        <ele>82</ele>
        <time>2019-12-16T13:52:22Z</time>
      </trkpt>
      <trkpt lat="43.58705" lon="5.05743">
        <ele>82</ele>
        <time>2019-12-16T13:52:23Z</time>
      </trkpt>
      <trkpt lat="43.58705" lon="5.05743">
        <ele>82</ele>
        <time>2019-12-16T13:52:24Z</time>
      </trkpt>
      <trkpt lat="43.58705" lon="5.05743">
        <ele>82</ele>
        <time>2019-12-16T13:52:25Z</time>
      </trkpt>
      <trkpt lat="43.58705" lon="5.05743">
        <ele>82</ele>
        <time>2019-12-16T13:52:26Z</time>
      </trkpt>
      <trkpt lat="43.58705" lon="5.05743">
        <ele>82</ele>
        <time>2019-12-16T13:52:27Z</time>
      </trkpt>
      <trkpt lat="43.58705" lon="5.05743">
        <ele>82</ele>
        <time>2019-12-16T13:52:28Z</time>
      </trkpt>
      <trkpt lat="43.58705" lon="5.05743">
        <ele>82</ele>
        <time>2019-12-16T13:52:29Z</time>
      </trkpt>
      <trkpt lat="43.58705" lon="5.05743">
        <ele>82</ele>
        <time>2019-12-16T13:52:30Z</time>
      </trkpt>
      <trkpt lat="43.58705" lon="5.05743">
        <ele>82</ele>
        <time>2019-12-16T13:52:31Z</time>
      </trkpt>
      <trkpt lat="43.58705" lon="5.05743">
        <ele>82</ele>
        <time>2019-12-16T13:52:32Z</time>
      </trkpt>
      <trkpt lat="43.58705" lon="5.05743">
        <ele>82</ele>
        <time>2019-12-16T13:52:33Z</time>
      </trkpt>
      <trkpt lat="43.58705" lon="5.05743">
        <ele>82</ele>
        <time>2019-12-16T13:52:34Z</time>
      </trkpt>
      <trkpt lat="43.58705" lon="5.05743">
        <ele>82</ele>
        <time>2019-12-16T13:52:35Z</time>
      </trkpt>
      <trkpt lat="43.58705" lon="5.05743">
        <ele>82</ele>
        <time>2019-12-16T13:52:36Z</time>
      </trkpt>
      <trkpt lat="43.58705" lon="5.05743">
        <ele>82</ele>
        <time>2019-12-16T13:52:37Z</time>
      </trkpt>
      <trkpt lat="43.58705" lon="5.05743">
        <ele>82</ele>
        <time>2019-12-16T13:52:38Z</time>
      </trkpt>
      <trkpt lat="43.58705" lon="5.05743">
        <ele>82</ele>
        <time>2019-12-16T13:52:39Z</time>
      </trkpt>
      <trkpt lat="43.58705" lon="5.05743">
        <ele>82</ele>
        <time>2019-12-16T13:52:40Z</time>
      </trkpt>
      <trkpt lat="43.58705" lon="5.05743">
        <ele>82</ele>
        <time>2019-12-16T13:52:41Z</time>
      </trkpt>
      <trkpt lat="43.58705" lon="5.05743">
        <ele>82</ele>
        <time>2019-12-16T13:52:42Z</time>
      </trkpt>
      <trkpt lat="43.58705" lon="5.05743">
        <ele>82</ele>
        <time>2019-12-16T13:52:43Z</time>
      </trkpt>
      <trkpt lat="43.58705" lon="5.05743">
        <ele>82</ele>
        <time>2019-12-16T13:52:44Z</time>
      </trkpt>
      <trkpt lat="43.58705" lon="5.05743">
        <ele>82</ele>
        <time>2019-12-16T13:52:45Z</time>
      </trkpt>
      <trkpt lat="43.58705" lon="5.05743">
        <ele>82</ele>
        <time>2019-12-16T13:52:46Z</time>
      </trkpt>
      <trkpt lat="43.58705" lon="5.05743">
        <ele>82</ele>
        <time>2019-12-16T13:52:47Z</time>
      </trkpt>
      <trkpt lat="43.58705" lon="5.05743">
        <ele>82</ele>
        <time>2019-12-16T13:52:48Z</time>
      </trkpt>
      <trkpt lat="43.58705" lon="5.05743">
        <ele>82</ele>
        <time>2019-12-16T13:52:49Z</time>
      </trkpt>
      <trkpt lat="43.58705" lon="5.05743">
        <ele>82</ele>
        <time>2019-12-16T13:52:50Z</time>
      </trkpt>
      <trkpt lat="43.58705" lon="5.05743">
        <ele>82</ele>
        <time>2019-12-16T13:52:51Z</time>
      </trkpt>
      <trkpt lat="43.58705" lon="5.05743">
        <ele>82</ele>
        <time>2019-12-16T13:52:52Z</time>
      </trkpt>
      <trkpt lat="43.58705" lon="5.05743">
        <ele>82</ele>
        <time>2019-12-16T13:52:53Z</time>
      </trkpt>
      <trkpt lat="43.58705" lon="5.05743">
        <ele>82</ele>
        <time>2019-12-16T13:52:54Z</time>
      </trkpt>
      <trkpt lat="43.58705" lon="5.05743">
        <ele>82</ele>
        <time>2019-12-16T13:52:55Z</time>
      </trkpt>
      <trkpt lat="43.58705" lon="5.05743">
        <ele>82</ele>
        <time>2019-12-16T13:52:56Z</time>
      </trkpt>
      <trkpt lat="43.58705" lon="5.05743">
        <ele>82</ele>
        <time>2019-12-16T13:52:57Z</time>
      </trkpt>
      <trkpt lat="43.58705" lon="5.05743">
        <ele>82</ele>
        <time>2019-12-16T13:52:58Z</time>
      </trkpt>
      <trkpt lat="43.58705" lon="5.05743">
        <ele>82</ele>
        <time>2019-12-16T13:52:59Z</time>
      </trkpt>
      <trkpt lat="43.58705" lon="5.05743">
        <ele>82</ele>
        <time>2019-12-16T13:53:00Z</time>
      </trkpt>
      <trkpt lat="43.58705" lon="5.05743">
        <ele>82</ele>
        <time>2019-12-16T13:53:01Z</time>
      </trkpt>
      <trkpt lat="43.58705" lon="5.05743">
        <ele>82</ele>
        <time>2019-12-16T13:53:02Z</time>
      </trkpt>
      <trkpt lat="43.58705" lon="5.05743">
        <ele>82</ele>
        <time>2019-12-16T13:53:03Z</time>
      </trkpt>
      <trkpt lat="43.58705" lon="5.05743">
        <ele>82</ele>
        <time>2019-12-16T13:53:04Z</time>
      </trkpt>
      <trkpt lat="43.58705" lon="5.05743">
        <ele>82</ele>
        <time>2019-12-16T13:53:05Z</time>
      </trkpt>
      <trkpt lat="43.58705" lon="5.05743">
        <ele>82</ele>
        <time>2019-12-16T13:53:06Z</time>
      </trkpt>
      <trkpt lat="43.58705" lon="5.05743">
        <ele>82</ele>
        <time>2019-12-16T13:53:07Z</time>
      </trkpt>
      <trkpt lat="43.58705" lon="5.05743">
        <ele>82</ele>
        <time>2019-12-16T13:53:08Z</time>
      </trkpt>
      <trkpt lat="43.58705" lon="5.05743">
        <ele>82</ele>
        <time>2019-12-16T13:53:09Z</time>
      </trkpt>
      <trkpt lat="43.58705" lon="5.05743">
        <ele>82</ele>
        <time>2019-12-16T13:53:10Z</time>
      </trkpt>
      <trkpt lat="43.58705" lon="5.05743">
        <ele>82</ele>
        <time>2019-12-16T13:53:11Z</time>
      </trkpt>
      <trkpt lat="43.58705" lon="5.05743">
        <ele>82</ele>
        <time>2019-12-16T13:53:12Z</time>
      </trkpt>
      <trkpt lat="43.58705" lon="5.05743">
        <ele>82</ele>
        <time>2019-12-16T13:53:13Z</time>
      </trkpt>
      <trkpt lat="43.58705" lon="5.05743">
        <ele>82</ele>
        <time>2019-12-16T13:53:14Z</time>
      </trkpt>
      <trkpt lat="43.58705" lon="5.05743">
        <ele>82</ele>
        <time>2019-12-16T13:53:15Z</time>
      </trkpt>
      <trkpt lat="43.58705" lon="5.05743">
        <ele>82</ele>
        <time>2019-12-16T13:53:16Z</time>
      </trkpt>
      <trkpt lat="43.58705" lon="5.05743">
        <ele>82</ele>
        <time>2019-12-16T13:53:17Z</time>
      </trkpt>
      <trkpt lat="43.58705" lon="5.05743">
        <ele>82</ele>
        <time>2019-12-16T13:53:18Z</time>
      </trkpt>
      <trkpt lat="43.58705" lon="5.05743">
        <ele>82</ele>
        <time>2019-12-16T13:53:19Z</time>
      </trkpt>
      <trkpt lat="43.58705" lon="5.05743">
        <ele>82</ele>
        <time>2019-12-16T13:53:20Z</time>
      </trkpt>
      <trkpt lat="43.58705" lon="5.05743">
        <ele>82</ele>
        <time>2019-12-16T13:53:21Z</time>
      </trkpt>
      <trkpt lat="43.58705" lon="5.05743">
        <ele>82</ele>
        <time>2019-12-16T13:53:22Z</time>
      </trkpt>
      <trkpt lat="43.58705" lon="5.05743">
        <ele>82</ele>
        <time>2019-12-16T13:53:23Z</time>
      </trkpt>
      <trkpt lat="43.58705" lon="5.05743">
        <ele>82</ele>
        <time>2019-12-16T13:53:24Z</time>
      </trkpt>
      <trkpt lat="43.58705" lon="5.05743">
        <ele>82</ele>
        <time>2019-12-16T13:53:25Z</time>
      </trkpt>
      <trkpt lat="43.58705" lon="5.05743">
        <ele>82</ele>
        <time>2019-12-16T13:53:26Z</time>
      </trkpt>
      <trkpt lat="43.58705" lon="5.05743">
        <ele>82</ele>
        <time>2019-12-16T13:53:27Z</time>
      </trkpt>
      <trkpt lat="43.58705" lon="5.05743">
        <ele>82</ele>
        <time>2019-12-16T13:53:28Z</time>
      </trkpt>
      <trkpt lat="43.58705" lon="5.05743">
        <ele>82</ele>
        <time>2019-12-16T13:53:29Z</time>
      </trkpt>
      <trkpt lat="43.58705" lon="5.05743">
        <ele>82</ele>
        <time>2019-12-16T13:53:30Z</time>
      </trkpt>
      <trkpt lat="43.58705" lon="5.05743">
        <ele>82</ele>
        <time>2019-12-16T13:53:31Z</time>
      </trkpt>
      <trkpt lat="43.58705" lon="5.05743">
        <ele>82</ele>
        <time>2019-12-16T13:53:32Z</time>
      </trkpt>
      <trkpt lat="43.58705" lon="5.05743">
        <ele>82</ele>
        <time>2019-12-16T13:53:33Z</time>
      </trkpt>
      <trkpt lat="43.58705" lon="5.05743">
        <ele>82</ele>
        <time>2019-12-16T13:53:34Z</time>
      </trkpt>
      <trkpt lat="43.58705" lon="5.05743">
        <ele>82</ele>
        <time>2019-12-16T13:53:35Z</time>
      </trkpt>
      <trkpt lat="43.58705" lon="5.05743">
        <ele>82</ele>
        <time>2019-12-16T13:53:36Z</time>
      </trkpt>
      <trkpt lat="43.58705" lon="5.05743">
        <ele>82</ele>
        <time>2019-12-16T13:53:37Z</time>
      </trkpt>
      <trkpt lat="43.58705" lon="5.05743">
        <ele>82</ele>
        <time>2019-12-16T13:53:38Z</time>
      </trkpt>
      <trkpt lat="43.58705" lon="5.05743">
        <ele>82</ele>
        <time>2019-12-16T13:53:39Z</time>
      </trkpt>
      <trkpt lat="43.58705" lon="5.05743">
        <ele>82</ele>
        <time>2019-12-16T13:53:40Z</time>
      </trkpt>
      <trkpt lat="43.58705" lon="5.05743">
        <ele>82</ele>
        <time>2019-12-16T13:53:41Z</time>
      </trkpt>
      <trkpt lat="43.58705" lon="5.05743">
        <ele>82</ele>
        <time>2019-12-16T13:53:42Z</time>
      </trkpt>
      <trkpt lat="43.58705" lon="5.05743">
        <ele>82</ele>
        <time>2019-12-16T13:53:43Z</time>
      </trkpt>
      <trkpt lat="43.58705" lon="5.05743">
        <ele>82</ele>
        <time>2019-12-16T13:53:44Z</time>
      </trkpt>
      <trkpt lat="43.58705" lon="5.05743">
        <ele>82</ele>
        <time>2019-12-16T13:53:45Z</time>
      </trkpt>
      <trkpt lat="43.58705" lon="5.05743">
        <ele>82</ele>
        <time>2019-12-16T13:53:46Z</time>
      </trkpt>
      <trkpt lat="43.58705" lon="5.05743">
        <ele>82</ele>
        <time>2019-12-16T13:53:47Z</time>
      </trkpt>
      <trkpt lat="43.58705" lon="5.05743">
        <ele>82</ele>
        <time>2019-12-16T13:53:48Z</time>
      </trkpt>
      <trkpt lat="43.58705" lon="5.05743">
        <ele>82</ele>
        <time>2019-12-16T13:53:49Z</time>
      </trkpt>
      <trkpt lat="43.58705" lon="5.05743">
        <ele>82</ele>
        <time>2019-12-16T13:53:50Z</time>
      </trkpt>
      <trkpt lat="43.58705" lon="5.05743">
        <ele>82</ele>
        <time>2019-12-16T13:53:51Z</time>
      </trkpt>
      <trkpt lat="43.58705" lon="5.05743">
        <ele>82</ele>
        <time>2019-12-16T13:53:52Z</time>
      </trkpt>
      <trkpt lat="43.58705" lon="5.05743">
        <ele>82</ele>
        <time>2019-12-16T13:53:53Z</time>
      </trkpt>
      <trkpt lat="43.58705" lon="5.05743">
        <ele>82</ele>
        <time>2019-12-16T13:53:54Z</time>
      </trkpt>
      <trkpt lat="43.58705" lon="5.05743">
        <ele>82</ele>
        <time>2019-12-16T13:53:55Z</time>
      </trkpt>
      <trkpt lat="43.58705" lon="5.05743">
        <ele>82</ele>
        <time>2019-12-16T13:53:56Z</time>
      </trkpt>
      <trkpt lat="43.58705" lon="5.05743">
        <ele>82</ele>
        <time>2019-12-16T13:53:57Z</time>
      </trkpt>
      <trkpt lat="43.58705" lon="5.05743">
        <ele>82</ele>
        <time>2019-12-16T13:53:58Z</time>
      </trkpt>
      <trkpt lat="43.58705" lon="5.05743">
        <ele>82</ele>
        <time>2019-12-16T13:53:59Z</time>
      </trkpt>
      <trkpt lat="43.58705" lon="5.05743">
        <ele>82</ele>
        <time>2019-12-16T13:54:00Z</time>
      </trkpt>
      <trkpt lat="43.58705" lon="5.05743">
        <ele>82</ele>
        <time>2019-12-16T13:54:01Z</time>
      </trkpt>
      <trkpt lat="43.58705" lon="5.05743">
        <ele>82</ele>
        <time>2019-12-16T13:54:02Z</time>
      </trkpt>
      <trkpt lat="43.58705" lon="5.05743">
        <ele>82</ele>
        <time>2019-12-16T13:54:03Z</time>
      </trkpt>
      <trkpt lat="43.58705" lon="5.05743">
        <ele>82</ele>
        <time>2019-12-16T13:54:04Z</time>
      </trkpt>
      <trkpt lat="43.58705" lon="5.05743">
        <ele>82</ele>
        <time>2019-12-16T13:54:05Z</time>
      </trkpt>
      <trkpt lat="43.58705" lon="5.05744">
        <ele>82</ele>
        <time>2019-12-16T13:54:06Z</time>
      </trkpt>
      <trkpt lat="43.58704" lon="5.05745">
        <ele>82</ele>
        <time>2019-12-16T13:54:07Z</time>
      </trkpt>
      <trkpt lat="43.58702" lon="5.05747">
        <ele>82</ele>
        <time>2019-12-16T13:54:08Z</time>
      </trkpt>
      <trkpt lat="43.587" lon="5.0575">
        <ele>82</ele>
        <time>2019-12-16T13:54:09Z</time>
      </trkpt>
      <trkpt lat="43.58699" lon="5.05752">
        <ele>86</ele>
        <time>2019-12-16T13:54:10Z</time>
      </trkpt>
      <trkpt lat="43.58698" lon="5.05753">
        <ele>86</ele>
        <time>2019-12-16T13:54:11Z</time>
      </trkpt>
      <trkpt lat="43.58698" lon="5.05754">
        <ele>86</ele>
        <time>2019-12-16T13:54:12Z</time>
      </trkpt>
      <trkpt lat="43.58697" lon="5.05754">
        <ele>86</ele>
        <time>2019-12-16T13:54:13Z</time>
      </trkpt>
      <trkpt lat="43.58697" lon="5.05755">
        <ele>86</ele>
        <time>2019-12-16T13:54:14Z</time>
      </trkpt>
      <trkpt lat="43.58697" lon="5.05755">
        <ele>86</ele>
        <time>2019-12-16T13:54:15Z</time>
      </trkpt>
      <trkpt lat="43.58697" lon="5.05755">
        <ele>86</ele>
        <time>2019-12-16T13:54:16Z</time>
      </trkpt>
      <trkpt lat="43.58697" lon="5.05755">
        <ele>86</ele>
        <time>2019-12-16T13:54:17Z</time>
      </trkpt>
      <trkpt lat="43.58697" lon="5.05755">
        <ele>86</ele>
        <time>2019-12-16T13:54:18Z</time>
      </trkpt>
      <trkpt lat="43.58696" lon="5.05756">
        <ele>86</ele>
        <time>2019-12-16T13:54:19Z</time>
      </trkpt>
      <trkpt lat="43.58696" lon="5.05757">
        <ele>86</ele>
        <time>2019-12-16T13:54:20Z</time>
      </trkpt>
      <trkpt lat="43.58695" lon="5.05759">
        <ele>86</ele>
        <time>2019-12-16T13:54:21Z</time>
      </trkpt>
      <trkpt lat="43.58695" lon="5.0576">
        <ele>86</ele>
        <time>2019-12-16T13:54:22Z</time>
      </trkpt>
      <trkpt lat="43.58695" lon="5.05762">
        <ele>86</ele>
        <time>2019-12-16T13:54:23Z</time>
      </trkpt>
      <trkpt lat="43.58694" lon="5.05763">
        <ele>86</ele>
        <time>2019-12-16T13:54:24Z</time>
      </trkpt>
      <trkpt lat="43.58694" lon="5.05763">
        <ele>86</ele>
        <time>2019-12-16T13:54:25Z</time>
      </trkpt>
      <trkpt lat="43.58694" lon="5.05764">
        <ele>86</ele>
        <time>2019-12-16T13:54:26Z</time>
      </trkpt>
      <trkpt lat="43.58694" lon="5.05764">
        <ele>86</ele>
        <time>2019-12-16T13:54:27Z</time>
      </trkpt>
      <trkpt lat="43.58694" lon="5.05764">
        <ele>86</ele>
        <time>2019-12-16T13:54:28Z</time>
      </trkpt>
      <trkpt lat="43.58694" lon="5.05765">
        <ele>86</ele>
        <time>2019-12-16T13:54:29Z</time>
      </trkpt>
      <trkpt lat="43.58694" lon="5.05765">
        <ele>86</ele>
        <time>2019-12-16T13:54:30Z</time>
      </trkpt>
      <trkpt lat="43.58694" lon="5.05766">
        <ele>86</ele>
        <time>2019-12-16T13:54:31Z</time>
      </trkpt>
      <trkpt lat="43.58694" lon="5.05766">
        <ele>86</ele>
        <time>2019-12-16T13:54:32Z</time>
      </trkpt>
      <trkpt lat="43.58694" lon="5.05767">
        <ele>86</ele>
        <time>2019-12-16T13:54:33Z</time>
      </trkpt>
      <trkpt lat="43.58694" lon="5.05768">
        <ele>86</ele>
        <time>2019-12-16T13:54:34Z</time>
      </trkpt>
      <trkpt lat="43.58693" lon="5.05769">
        <ele>86</ele>
        <time>2019-12-16T13:54:35Z</time>
      </trkpt>
      <trkpt lat="43.58693" lon="5.0577">
        <ele>86</ele>
        <time>2019-12-16T13:54:36Z</time>
      </trkpt>
      <trkpt lat="43.58693" lon="5.05771">
        <ele>86</ele>
        <time>2019-12-16T13:54:37Z</time>
      </trkpt>
      <trkpt lat="43.58693" lon="5.05772">
        <ele>86</ele>
        <time>2019-12-16T13:54:38Z</time>
      </trkpt>
      <trkpt lat="43.58693" lon="5.05772">
        <ele>86</ele>
        <time>2019-12-16T13:54:39Z</time>
      </trkpt>
      <trkpt lat="43.58693" lon="5.05773">
        <ele>86</ele>
        <time>2019-12-16T13:54:40Z</time>
      </trkpt>
      <trkpt lat="43.58693" lon="5.05774">
        <ele>86</ele>
        <time>2019-12-16T13:54:41Z</time>
      </trkpt>
      <trkpt lat="43.58693" lon="5.05774">
        <ele>86</ele>
        <time>2019-12-16T13:54:42Z</time>
      </trkpt>
      <trkpt lat="43.58693" lon="5.05774">
        <ele>86</ele>
        <time>2019-12-16T13:54:43Z</time>
      </trkpt>
      <trkpt lat="43.58693" lon="5.05774">
        <ele>86</ele>
        <time>2019-12-16T13:54:44Z</time>
      </trkpt>
      <trkpt lat="43.58693" lon="5.05775">
        <ele>86</ele>
        <time>2019-12-16T13:54:45Z</time>
      </trkpt>
      <trkpt lat="43.58693" lon="5.05775">
        <ele>86</ele>
        <time>2019-12-16T13:54:46Z</time>
      </trkpt>
      <trkpt lat="43.58693" lon="5.05775">
        <ele>86</ele>
        <time>2019-12-16T13:54:47Z</time>
      </trkpt>
      <trkpt lat="43.58693" lon="5.05775">
        <ele>86</ele>
        <time>2019-12-16T13:54:48Z</time>
      </trkpt>
      <trkpt lat="43.58693" lon="5.05775">
        <ele>86</ele>
        <time>2019-12-16T13:54:49Z</time>
      </trkpt>
      <trkpt lat="43.58693" lon="5.05775">
        <ele>86</ele>
        <time>2019-12-16T13:54:50Z</time>
      </trkpt>
      <trkpt lat="43.58693" lon="5.05775">
        <ele>86</ele>
        <time>2019-12-16T13:54:51Z</time>
      </trkpt>
      <trkpt lat="43.58693" lon="5.05775">
        <ele>86</ele>
        <time>2019-12-16T13:54:52Z</time>
      </trkpt>
      <trkpt lat="43.58693" lon="5.05775">
        <ele>86</ele>
        <time>2019-12-16T13:54:53Z</time>
      </trkpt>
      <trkpt lat="43.58693" lon="5.05775">
        <ele>86</ele>
        <time>2019-12-16T13:54:54Z</time>
      </trkpt>
      <trkpt lat="43.58693" lon="5.05775">
        <ele>86</ele>
        <time>2019-12-16T13:54:55Z</time>
      </trkpt>
      <trkpt lat="43.58693" lon="5.05775">
        <ele>86</ele>
        <time>2019-12-16T13:54:56Z</time>
      </trkpt>
      <trkpt lat="43.58693" lon="5.05775">
        <ele>86</ele>
        <time>2019-12-16T13:54:57Z</time>
      </trkpt>
      <trkpt lat="43.58693" lon="5.05775">
        <ele>86</ele>
        <time>2019-12-16T13:54:58Z</time>
      </trkpt>
      <trkpt lat="43.58693" lon="5.05775">
        <ele>86</ele>
        <time>2019-12-16T13:54:59Z</time>
      </trkpt>
      <trkpt lat="43.58693" lon="5.05775">
        <ele>86</ele>
        <time>2019-12-16T13:55:00Z</time>
      </trkpt>
      <trkpt lat="43.58693" lon="5.05775">
        <ele>86</ele>
        <time>2019-12-16T13:55:01Z</time>
      </trkpt>
      <trkpt lat="43.58693" lon="5.05775">
        <ele>86</ele>
        <time>2019-12-16T13:55:02Z</time>
      </trkpt>
      <trkpt lat="43.58693" lon="5.05775">
        <ele>86</ele>
        <time>2019-12-16T13:55:03Z</time>
      </trkpt>
      <trkpt lat="43.58693" lon="5.05775">
        <ele>86</ele>
        <time>2019-12-16T13:55:04Z</time>
      </trkpt>
      <trkpt lat="43.58693" lon="5.05775">
        <ele>86</ele>
        <time>2019-12-16T13:55:05Z</time>
      </trkpt>
      <trkpt lat="43.58693" lon="5.05775">
        <ele>86</ele>
        <time>2019-12-16T13:55:06Z</time>
      </trkpt>
      <trkpt lat="43.58693" lon="5.05775">
        <ele>86</ele>
        <time>2019-12-16T13:55:07Z</time>
      </trkpt>
      <trkpt lat="43.58693" lon="5.05775">
        <ele>86</ele>
        <time>2019-12-16T13:55:08Z</time>
      </trkpt>
      <trkpt lat="43.58693" lon="5.05775">
        <ele>86</ele>
        <time>2019-12-16T13:55:09Z</time>
      </trkpt>
      <trkpt lat="43.58693" lon="5.05775">
        <ele>86</ele>
        <time>2019-12-16T13:55:10Z</time>
      </trkpt>
      <trkpt lat="43.58693" lon="5.05775">
        <ele>86</ele>
        <time>2019-12-16T13:55:11Z</time>
      </trkpt>
      <trkpt lat="43.58693" lon="5.05775">
        <ele>86</ele>
        <time>2019-12-16T13:55:12Z</time>
      </trkpt>
      <trkpt lat="43.58692" lon="5.05776">
        <ele>86</ele>
        <time>2019-12-16T13:55:13Z</time>
      </trkpt>
      <trkpt lat="43.58692" lon="5.05777">
        <ele>86</ele>
        <time>2019-12-16T13:55:14Z</time>
      </trkpt>
      <trkpt lat="43.58692" lon="5.05778">
        <ele>86</ele>
        <time>2019-12-16T13:55:15Z</time>
      </trkpt>
      <trkpt lat="43.58691" lon="5.05779">
        <ele>86</ele>
        <time>2019-12-16T13:55:16Z</time>
      </trkpt>
      <trkpt lat="43.58691" lon="5.0578">
        <ele>86</ele>
        <time>2019-12-16T13:55:17Z</time>
      </trkpt>
      <trkpt lat="43.58691" lon="5.05781">
        <ele>86</ele>
        <time>2019-12-16T13:55:18Z</time>
      </trkpt>
      <trkpt lat="43.58691" lon="5.05782">
        <ele>86</ele>
        <time>2019-12-16T13:55:19Z</time>
      </trkpt>
      <trkpt lat="43.58691" lon="5.05783">
        <ele>87</ele>
        <time>2019-12-16T13:55:20Z</time>
      </trkpt>
      <trkpt lat="43.58691" lon="5.05783">
        <ele>87</ele>
        <time>2019-12-16T13:55:21Z</time>
      </trkpt>
      <trkpt lat="43.58691" lon="5.05784">
        <ele>87</ele>
        <time>2019-12-16T13:55:22Z</time>
      </trkpt>
      <trkpt lat="43.58691" lon="5.05785">
        <ele>87</ele>
        <time>2019-12-16T13:55:23Z</time>
      </trkpt>
      <trkpt lat="43.58691" lon="5.05786">
        <ele>87</ele>
        <time>2019-12-16T13:55:24Z</time>
      </trkpt>
      <trkpt lat="43.58691" lon="5.05787">
        <ele>87</ele>
        <time>2019-12-16T13:55:25Z</time>
      </trkpt>
      <trkpt lat="43.58691" lon="5.05787">
        <ele>87</ele>
        <time>2019-12-16T13:55:26Z</time>
      </trkpt>
      <trkpt lat="43.58691" lon="5.05789">
        <ele>87</ele>
        <time>2019-12-16T13:55:27Z</time>
      </trkpt>
      <trkpt lat="43.58691" lon="5.0579">
        <ele>87</ele>
        <time>2019-12-16T13:55:28Z</time>
      </trkpt>
      <trkpt lat="43.58691" lon="5.0579">
        <ele>87</ele>
        <time>2019-12-16T13:55:29Z</time>
      </trkpt>
      <trkpt lat="43.58691" lon="5.05791">
        <ele>87</ele>
        <time>2019-12-16T13:55:30Z</time>
      </trkpt>
      <trkpt lat="43.58691" lon="5.05792">
        <ele>87</ele>
        <time>2019-12-16T13:55:31Z</time>
      </trkpt>
      <trkpt lat="43.58691" lon="5.05792">
        <ele>87</ele>
        <time>2019-12-16T13:55:32Z</time>
      </trkpt>
      <trkpt lat="43.58691" lon="5.05792">
        <ele>87</ele>
        <time>2019-12-16T13:55:33Z</time>
      </trkpt>
      <trkpt lat="43.58691" lon="5.05792">
        <ele>87</ele>
        <time>2019-12-16T13:55:34Z</time>
      </trkpt>
      <trkpt lat="43.58691" lon="5.05792">
        <ele>87</ele>
        <time>2019-12-16T13:55:35Z</time>
      </trkpt>
      <trkpt lat="43.58691" lon="5.05792">
        <ele>87</ele>
        <time>2019-12-16T13:55:36Z</time>
      </trkpt>
      <trkpt lat="43.58691" lon="5.05792">
        <ele>87</ele>
        <time>2019-12-16T13:55:37Z</time>
      </trkpt>
      <trkpt lat="43.58691" lon="5.05793">
        <ele>87</ele>
        <time>2019-12-16T13:55:38Z</time>
      </trkpt>
      <trkpt lat="43.58691" lon="5.05794">
        <ele>87</ele>
        <time>2019-12-16T13:55:39Z</time>
      </trkpt>
      <trkpt lat="43.58691" lon="5.05795">
        <ele>87</ele>
        <time>2019-12-16T13:55:40Z</time>
      </trkpt>
      <trkpt lat="43.58691" lon="5.05796">
        <ele>87</ele>
        <time>2019-12-16T13:55:41Z</time>
      </trkpt>
      <trkpt lat="43.58691" lon="5.05797">
        <ele>87</ele>
        <time>2019-12-16T13:55:42Z</time>
      </trkpt>
      <trkpt lat="43.5869" lon="5.05797">
        <ele>87</ele>
        <time>2019-12-16T13:55:43Z</time>
      </trkpt>
      <trkpt lat="43.5869" lon="5.05799">
        <ele>87</ele>
        <time>2019-12-16T13:55:44Z</time>
      </trkpt>
      <trkpt lat="43.5869" lon="5.058">
        <ele>87</ele>
        <time>2019-12-16T13:55:45Z</time>
      </trkpt>
      <trkpt lat="43.5869" lon="5.05801">
        <ele>87</ele>
        <time>2019-12-16T13:55:46Z</time>
      </trkpt>
      <trkpt lat="43.5869" lon="5.05802">
        <ele>87</ele>
        <time>2019-12-16T13:55:47Z</time>
      </trkpt>
      <trkpt lat="43.5869" lon="5.05803">
        <ele>87</ele>
        <time>2019-12-16T13:55:48Z</time>
      </trkpt>
      <trkpt lat="43.5869" lon="5.05804">
        <ele>87</ele>
        <time>2019-12-16T13:55:49Z</time>
      </trkpt>
      <trkpt lat="43.58689" lon="5.05805">
        <ele>87</ele>
        <time>2019-12-16T13:55:50Z</time>
      </trkpt>
      <trkpt lat="43.58689" lon="5.05806">
        <ele>87</ele>
        <time>2019-12-16T13:55:51Z</time>
      </trkpt>
      <trkpt lat="43.58689" lon="5.05808">
        <ele>87</ele>
        <time>2019-12-16T13:55:52Z</time>
      </trkpt>
      <trkpt lat="43.58689" lon="5.05809">
        <ele>87</ele>
        <time>2019-12-16T13:55:53Z</time>
      </trkpt>
      <trkpt lat="43.5869" lon="5.0581">
        <ele>87</ele>
        <time>2019-12-16T13:55:54Z</time>
      </trkpt>
      <trkpt lat="43.5869" lon="5.05811">
        <ele>87</ele>
        <time>2019-12-16T13:55:55Z</time>
      </trkpt>
      <trkpt lat="43.5869" lon="5.05812">
        <ele>87</ele>
        <time>2019-12-16T13:55:56Z</time>
      </trkpt>
      <trkpt lat="43.5869" lon="5.05813">
        <ele>87</ele>
        <time>2019-12-16T13:55:57Z</time>
      </trkpt>
      <trkpt lat="43.5869" lon="5.05814">
        <ele>87</ele>
        <time>2019-12-16T13:55:58Z</time>
      </trkpt>
      <trkpt lat="43.5869" lon="5.05815">
        <ele>87</ele>
        <time>2019-12-16T13:55:59Z</time>
      </trkpt>
      <trkpt lat="43.5869" lon="5.05816">
        <ele>87</ele>
        <time>2019-12-16T13:56:00Z</time>
      </trkpt>
      <trkpt lat="43.58691" lon="5.05817">
        <ele>87</ele>
        <time>2019-12-16T13:56:01Z</time>
      </trkpt>
      <trkpt lat="43.58691" lon="5.05818">
        <ele>87</ele>
        <time>2019-12-16T13:56:02Z</time>
      </trkpt>
      <trkpt lat="43.58691" lon="5.05819">
        <ele>87</ele>
        <time>2019-12-16T13:56:03Z</time>
      </trkpt>
      <trkpt lat="43.58691" lon="5.0582">
        <ele>87</ele>
        <time>2019-12-16T13:56:04Z</time>
      </trkpt>
      <trkpt lat="43.58691" lon="5.0582">
        <ele>87</ele>
        <time>2019-12-16T13:56:05Z</time>
      </trkpt>
      <trkpt lat="43.58691" lon="5.05821">
        <ele>87</ele>
        <time>2019-12-16T13:56:06Z</time>
      </trkpt>
      <trkpt lat="43.58691" lon="5.05822">
        <ele>87</ele>
        <time>2019-12-16T13:56:07Z</time>
      </trkpt>
      <trkpt lat="43.58692" lon="5.05823">
        <ele>87</ele>
        <time>2019-12-16T13:56:08Z</time>
      </trkpt>
      <trkpt lat="43.58692" lon="5.05823">
        <ele>87</ele>
        <time>2019-12-16T13:56:09Z</time>
      </trkpt>
      <trkpt lat="43.58692" lon="5.05824">
        <ele>87</ele>
        <time>2019-12-16T13:56:10Z</time>
      </trkpt>
      <trkpt lat="43.58692" lon="5.05825">
        <ele>87</ele>
        <time>2019-12-16T13:56:11Z</time>
      </trkpt>
      <trkpt lat="43.58692" lon="5.05826">
        <ele>87</ele>
        <time>2019-12-16T13:56:12Z</time>
      </trkpt>
      <trkpt lat="43.58692" lon="5.05827">
        <ele>87</ele>
        <time>2019-12-16T13:56:13Z</time>
      </trkpt>
      <trkpt lat="43.58692" lon="5.05827">
        <ele>87</ele>
        <time>2019-12-16T13:56:14Z</time>
      </trkpt>
      <trkpt lat="43.58692" lon="5.05828">
        <ele>87</ele>
        <time>2019-12-16T13:56:15Z</time>
      </trkpt>
      <trkpt lat="43.58692" lon="5.05829">
        <ele>87</ele>
        <time>2019-12-16T13:56:16Z</time>
      </trkpt>
      <trkpt lat="43.58692" lon="5.0583">
        <ele>87</ele>
        <time>2019-12-16T13:56:17Z</time>
      </trkpt>
      <trkpt lat="43.58692" lon="5.05831">
        <ele>87</ele>
        <time>2019-12-16T13:56:18Z</time>
      </trkpt>
      <trkpt lat="43.58692" lon="5.05832">
        <ele>87</ele>
        <time>2019-12-16T13:56:19Z</time>
      </trkpt>
      <trkpt lat="43.58691" lon="5.05833">
        <ele>87</ele>
        <time>2019-12-16T13:56:20Z</time>
      </trkpt>
      <trkpt lat="43.58691" lon="5.05834">
        <ele>88</ele>
        <time>2019-12-16T13:56:21Z</time>
      </trkpt>
      <trkpt lat="43.58691" lon="5.05835">
        <ele>88</ele>
        <time>2019-12-16T13:56:22Z</time>
      </trkpt>
      <trkpt lat="43.5869" lon="5.05836">
        <ele>88</ele>
        <time>2019-12-16T13:56:23Z</time>
      </trkpt>
      <trkpt lat="43.5869" lon="5.05837">
        <ele>88</ele>
        <time>2019-12-16T13:56:24Z</time>
      </trkpt>
      <trkpt lat="43.58689" lon="5.05838">
        <ele>88</ele>
        <time>2019-12-16T13:56:25Z</time>
      </trkpt>
      <trkpt lat="43.58689" lon="5.05839">
        <ele>88</ele>
        <time>2019-12-16T13:56:26Z</time>
      </trkpt>
      <trkpt lat="43.58688" lon="5.05839">
        <ele>88</ele>
        <time>2019-12-16T13:56:27Z</time>
      </trkpt>
      <trkpt lat="43.58688" lon="5.0584">
        <ele>88</ele>
        <time>2019-12-16T13:56:28Z</time>
      </trkpt>
      <trkpt lat="43.58687" lon="5.0584">
        <ele>88</ele>
        <time>2019-12-16T13:56:29Z</time>
      </trkpt>
      <trkpt lat="43.58687" lon="5.0584">
        <ele>88</ele>
        <time>2019-12-16T13:56:30Z</time>
      </trkpt>
      <trkpt lat="43.58687" lon="5.05841">
        <ele>88</ele>
        <time>2019-12-16T13:56:31Z</time>
      </trkpt>
      <trkpt lat="43.58686" lon="5.05842">
        <ele>88</ele>
        <time>2019-12-16T13:56:32Z</time>
      </trkpt>
      <trkpt lat="43.58686" lon="5.05842">
        <ele>88</ele>
        <time>2019-12-16T13:56:33Z</time>
      </trkpt>
      <trkpt lat="43.58685" lon="5.05843">
        <ele>88</ele>
        <time>2019-12-16T13:56:34Z</time>
      </trkpt>
      <trkpt lat="43.58685" lon="5.05844">
        <ele>88</ele>
        <time>2019-12-16T13:56:35Z</time>
      </trkpt>
      <trkpt lat="43.58685" lon="5.05845">
        <ele>88</ele>
        <time>2019-12-16T13:56:36Z</time>
      </trkpt>
      <trkpt lat="43.58684" lon="5.05846">
        <ele>88</ele>
        <time>2019-12-16T13:56:37Z</time>
      </trkpt>
      <trkpt lat="43.58684" lon="5.05846">
        <ele>88</ele>
        <time>2019-12-16T13:56:38Z</time>
      </trkpt>
      <trkpt lat="43.58684" lon="5.05847">
        <ele>88</ele>
        <time>2019-12-16T13:56:39Z</time>
      </trkpt>
      <trkpt lat="43.58684" lon="5.05848">
        <ele>88</ele>
        <time>2019-12-16T13:56:40Z</time>
      </trkpt>
      <trkpt lat="43.58684" lon="5.05849">
        <ele>88</ele>
        <time>2019-12-16T13:56:41Z</time>
      </trkpt>
      <trkpt lat="43.58683" lon="5.05849">
        <ele>88</ele>
        <time>2019-12-16T13:56:42Z</time>
      </trkpt>
      <trkpt lat="43.58683" lon="5.0585">
        <ele>88</ele>
        <time>2019-12-16T13:56:43Z</time>
      </trkpt>
      <trkpt lat="43.58683" lon="5.0585">
        <ele>88</ele>
        <time>2019-12-16T13:56:44Z</time>
      </trkpt>
      <trkpt lat="43.58683" lon="5.0585">
        <ele>88</ele>
        <time>2019-12-16T13:56:45Z</time>
      </trkpt>
      <trkpt lat="43.58683" lon="5.0585">
        <ele>88</ele>
        <time>2019-12-16T13:56:46Z</time>
      </trkpt>
      <trkpt lat="43.58683" lon="5.05851">
        <ele>88</ele>
        <time>2019-12-16T13:56:47Z</time>
      </trkpt>
      <trkpt lat="43.58683" lon="5.05851">
        <ele>88</ele>
        <time>2019-12-16T13:56:48Z</time>
      </trkpt>
      <trkpt lat="43.58683" lon="5.05851">
        <ele>88</ele>
        <time>2019-12-16T13:56:49Z</time>
      </trkpt>
      <trkpt lat="43.58683" lon="5.05851">
        <ele>88</ele>
        <time>2019-12-16T13:56:50Z</time>
      </trkpt>
      <trkpt lat="43.58683" lon="5.05851">
        <ele>88</ele>
        <time>2019-12-16T13:56:51Z</time>
      </trkpt>
      <trkpt lat="43.58683" lon="5.05851">
        <ele>88</ele>
        <time>2019-12-16T13:56:52Z</time>
      </trkpt>
      <trkpt lat="43.58683" lon="5.05851">
        <ele>88</ele>
        <time>2019-12-16T13:56:53Z</time>
      </trkpt>
      <trkpt lat="43.58683" lon="5.05851">
        <ele>88</ele>
        <time>2019-12-16T13:56:54Z</time>
      </trkpt>
      <trkpt lat="43.58683" lon="5.05851">
        <ele>88</ele>
        <time>2019-12-16T13:56:55Z</time>
      </trkpt>
      <trkpt lat="43.58683" lon="5.05851">
        <ele>88</ele>
        <time>2019-12-16T13:56:56Z</time>
      </trkpt>
      <trkpt lat="43.58683" lon="5.05851">
        <ele>88</ele>
        <time>2019-12-16T13:56:57Z</time>
      </trkpt>
      <trkpt lat="43.58683" lon="5.05851">
        <ele>88</ele>
        <time>2019-12-16T13:56:58Z</time>
      </trkpt>
      <trkpt lat="43.58683" lon="5.05851">
        <ele>88</ele>
        <time>2019-12-16T13:56:59Z</time>
      </trkpt>
      <trkpt lat="43.58683" lon="5.05851">
        <ele>88</ele>
        <time>2019-12-16T13:57:00Z</time>
      </trkpt>
      <trkpt lat="43.58683" lon="5.05851">
        <ele>88</ele>
        <time>2019-12-16T13:57:01Z</time>
      </trkpt>
      <trkpt lat="43.58683" lon="5.05851">
        <ele>88</ele>
        <time>2019-12-16T13:57:02Z</time>
      </trkpt>
      <trkpt lat="43.58683" lon="5.05851">
        <ele>88</ele>
        <time>2019-12-16T13:57:03Z</time>
      </trkpt>
      <trkpt lat="43.58683" lon="5.05851">
        <ele>88</ele>
        <time>2019-12-16T13:57:04Z</time>
      </trkpt>
      <trkpt lat="43.58683" lon="5.05851">
        <ele>88</ele>
        <time>2019-12-16T13:57:05Z</time>
      </trkpt>
      <trkpt lat="43.58683" lon="5.05851">
        <ele>88</ele>
        <time>2019-12-16T13:57:06Z</time>
      </trkpt>
      <trkpt lat="43.58683" lon="5.05851">
        <ele>88</ele>
        <time>2019-12-16T13:57:07Z</time>
      </trkpt>
      <trkpt lat="43.58683" lon="5.05851">
        <ele>88</ele>
        <time>2019-12-16T13:57:08Z</time>
      </trkpt>
      <trkpt lat="43.58683" lon="5.05851">
        <ele>88</ele>
        <time>2019-12-16T13:57:09Z</time>
      </trkpt>
      <trkpt lat="43.58683" lon="5.05851">
        <ele>88</ele>
        <time>2019-12-16T13:57:10Z</time>
      </trkpt>
      <trkpt lat="43.58683" lon="5.05851">
        <ele>88</ele>
        <time>2019-12-16T13:57:11Z</time>
      </trkpt>
      <trkpt lat="43.58683" lon="5.05851">
        <ele>88</ele>
        <time>2019-12-16T13:57:12Z</time>
      </trkpt>
      <trkpt lat="43.58683" lon="5.05851">
        <ele>88</ele>
        <time>2019-12-16T13:57:13Z</time>
      </trkpt>
      <trkpt lat="43.58683" lon="5.05851">
        <ele>88</ele>
        <time>2019-12-16T13:57:14Z</time>
      </trkpt>
      <trkpt lat="43.58683" lon="5.05851">
        <ele>88</ele>
        <time>2019-12-16T13:57:15Z</time>
      </trkpt>
      <trkpt lat="43.58683" lon="5.05851">
        <ele>88</ele>
        <time>2019-12-16T13:57:16Z</time>
      </trkpt>
      <trkpt lat="43.58683" lon="5.05851">
        <ele>88</ele>
        <time>2019-12-16T13:57:17Z</time>
      </trkpt>
      <trkpt lat="43.58683" lon="5.05851">
        <ele>88</ele>
        <time>2019-12-16T13:57:18Z</time>
      </trkpt>
      <trkpt lat="43.58683" lon="5.05851">
        <ele>88</ele>
        <time>2019-12-16T13:57:19Z</time>
      </trkpt>
      <trkpt lat="43.58683" lon="5.05851">
        <ele>88</ele>
        <time>2019-12-16T13:57:20Z</time>
      </trkpt>
      <trkpt lat="43.58683" lon="5.05851">
        <ele>88</ele>
        <time>2019-12-16T13:57:21Z</time>
      </trkpt>
      <trkpt lat="43.58683" lon="5.05851">
        <ele>88</ele>
        <time>2019-12-16T13:57:22Z</time>
      </trkpt>
      <trkpt lat="43.58683" lon="5.05851">
        <ele>88</ele>
        <time>2019-12-16T13:57:23Z</time>
      </trkpt>
      <trkpt lat="43.58683" lon="5.05851">
        <ele>88</ele>
        <time>2019-12-16T13:57:24Z</time>
      </trkpt>
      <trkpt lat="43.58683" lon="5.05852">
        <ele>88</ele>
        <time>2019-12-16T13:57:25Z</time>
      </trkpt>
      <trkpt lat="43.58683" lon="5.05852">
        <ele>88</ele>
        <time>2019-12-16T13:57:26Z</time>
      </trkpt>
      <trkpt lat="43.58683" lon="5.05852">
        <ele>88</ele>
        <time>2019-12-16T13:57:27Z</time>
      </trkpt>
      <trkpt lat="43.58683" lon="5.05852">
        <ele>88</ele>
        <time>2019-12-16T13:57:28Z</time>
      </trkpt>
      <trkpt lat="43.58683" lon="5.05852">
        <ele>88</ele>
        <time>2019-12-16T13:57:29Z</time>
      </trkpt>
      <trkpt lat="43.58683" lon="5.05852">
        <ele>88</ele>
        <time>2019-12-16T13:57:30Z</time>
      </trkpt>
      <trkpt lat="43.58683" lon="5.05852">
        <ele>88</ele>
        <time>2019-12-16T13:57:31Z</time>
      </trkpt>
      <trkpt lat="43.58683" lon="5.05852">
        <ele>88</ele>
        <time>2019-12-16T13:57:32Z</time>
      </trkpt>
      <trkpt lat="43.58683" lon="5.05852">
        <ele>88</ele>
        <time>2019-12-16T13:57:33Z</time>
      </trkpt>
      <trkpt lat="43.58684" lon="5.05852">
        <ele>88</ele>
        <time>2019-12-16T13:57:34Z</time>
      </trkpt>
      <trkpt lat="43.58684" lon="5.05852">
        <ele>88</ele>
        <time>2019-12-16T13:57:35Z</time>
      </trkpt>
      <trkpt lat="43.58684" lon="5.05852">
        <ele>88</ele>
        <time>2019-12-16T13:57:36Z</time>
      </trkpt>
      <trkpt lat="43.58684" lon="5.05853">
        <ele>88</ele>
        <time>2019-12-16T13:57:37Z</time>
      </trkpt>
      <trkpt lat="43.58684" lon="5.05853">
        <ele>88</ele>
        <time>2019-12-16T13:57:38Z</time>
      </trkpt>
      <trkpt lat="43.58684" lon="5.05854">
        <ele>88</ele>
        <time>2019-12-16T13:57:39Z</time>
      </trkpt>
      <trkpt lat="43.58684" lon="5.05855">
        <ele>88</ele>
        <time>2019-12-16T13:57:40Z</time>
      </trkpt>
      <trkpt lat="43.58684" lon="5.05855">
        <ele>88</ele>
        <time>2019-12-16T13:57:41Z</time>
      </trkpt>
      <trkpt lat="43.58684" lon="5.05856">
        <ele>89</ele>
        <time>2019-12-16T13:57:42Z</time>
      </trkpt>
      <trkpt lat="43.58685" lon="5.05857">
        <ele>89</ele>
        <time>2019-12-16T13:57:43Z</time>
      </trkpt>
      <trkpt lat="43.58685" lon="5.05858">
        <ele>89</ele>
        <time>2019-12-16T13:57:44Z</time>
      </trkpt>
      <trkpt lat="43.58685" lon="5.05859">
        <ele>89</ele>
        <time>2019-12-16T13:57:45Z</time>
      </trkpt>
      <trkpt lat="43.58686" lon="5.05859">
        <ele>89</ele>
        <time>2019-12-16T13:57:46Z</time>
      </trkpt>
      <trkpt lat="43.58686" lon="5.0586">
        <ele>89</ele>
        <time>2019-12-16T13:57:47Z</time>
      </trkpt>
      <trkpt lat="43.58686" lon="5.05861">
        <ele>89</ele>
        <time>2019-12-16T13:57:48Z</time>
      </trkpt>
      <trkpt lat="43.58686" lon="5.05862">
        <ele>89</ele>
        <time>2019-12-16T13:57:49Z</time>
      </trkpt>
      <trkpt lat="43.58686" lon="5.05863">
        <ele>89</ele>
        <time>2019-12-16T13:57:50Z</time>
      </trkpt>
      <trkpt lat="43.58687" lon="5.05863">
        <ele>89</ele>
        <time>2019-12-16T13:57:51Z</time>
      </trkpt>
      <trkpt lat="43.58687" lon="5.05864">
        <ele>89</ele>
        <time>2019-12-16T13:57:52Z</time>
      </trkpt>
      <trkpt lat="43.58687" lon="5.05865">
        <ele>89</ele>
        <time>2019-12-16T13:57:53Z</time>
      </trkpt>
      <trkpt lat="43.58687" lon="5.05866">
        <ele>89</ele>
        <time>2019-12-16T13:57:54Z</time>
      </trkpt>
      <trkpt lat="43.58688" lon="5.05867">
        <ele>89</ele>
        <time>2019-12-16T13:57:55Z</time>
      </trkpt>
      <trkpt lat="43.58688" lon="5.05868">
        <ele>89</ele>
        <time>2019-12-16T13:57:56Z</time>
      </trkpt>
      <trkpt lat="43.58689" lon="5.05869">
        <ele>89</ele>
        <time>2019-12-16T13:57:57Z</time>
      </trkpt>
      <trkpt lat="43.58689" lon="5.0587">
        <ele>89</ele>
        <time>2019-12-16T13:57:58Z</time>
      </trkpt>
      <trkpt lat="43.5869" lon="5.05871">
        <ele>89</ele>
        <time>2019-12-16T13:57:59Z</time>
      </trkpt>
      <trkpt lat="43.5869" lon="5.05871">
        <ele>89</ele>
        <time>2019-12-16T13:58:00Z</time>
      </trkpt>
      <trkpt lat="43.58691" lon="5.05872">
        <ele>89</ele>
        <time>2019-12-16T13:58:01Z</time>
      </trkpt>
      <trkpt lat="43.58692" lon="5.05872">
        <ele>89</ele>
        <time>2019-12-16T13:58:02Z</time>
      </trkpt>
      <trkpt lat="43.58693" lon="5.05872">
        <ele>89</ele>
        <time>2019-12-16T13:58:03Z</time>
      </trkpt>
      <trkpt lat="43.58694" lon="5.05872">
        <ele>89</ele>
        <time>2019-12-16T13:58:04Z</time>
      </trkpt>
      <trkpt lat="43.58694" lon="5.05872">
        <ele>89</ele>
        <time>2019-12-16T13:58:05Z</time>
      </trkpt>
      <trkpt lat="43.58695" lon="5.05872">
        <ele>89</ele>
        <time>2019-12-16T13:58:06Z</time>
      </trkpt>
      <trkpt lat="43.58696" lon="5.05872">
        <ele>89</ele>
        <time>2019-12-16T13:58:07Z</time>
      </trkpt>
      <trkpt lat="43.58697" lon="5.05872">
        <ele>89</ele>
        <time>2019-12-16T13:58:08Z</time>
      </trkpt>
      <trkpt lat="43.58697" lon="5.05873">
        <ele>89</ele>
        <time>2019-12-16T13:58:09Z</time>
      </trkpt>
      <trkpt lat="43.58698" lon="5.05874">
        <ele>89</ele>
        <time>2019-12-16T13:58:10Z</time>
      </trkpt>
      <trkpt lat="43.58698" lon="5.05874">
        <ele>89</ele>
        <time>2019-12-16T13:58:11Z</time>
      </trkpt>
      <trkpt lat="43.58699" lon="5.05875">
        <ele>89</ele>
        <time>2019-12-16T13:58:12Z</time>
      </trkpt>
      <trkpt lat="43.58699" lon="5.05876">
        <ele>89</ele>
        <time>2019-12-16T13:58:13Z</time>
      </trkpt>
      <trkpt lat="43.587" lon="5.05877">
        <ele>89</ele>
        <time>2019-12-16T13:58:14Z</time>
      </trkpt>
      <trkpt lat="43.587" lon="5.05878">
        <ele>90</ele>
        <time>2019-12-16T13:58:15Z</time>
      </trkpt>
      <trkpt lat="43.587" lon="5.05879">
        <ele>90</ele>
        <time>2019-12-16T13:58:16Z</time>
      </trkpt>
      <trkpt lat="43.58701" lon="5.0588">
        <ele>90</ele>
        <time>2019-12-16T13:58:17Z</time>
      </trkpt>
      <trkpt lat="43.58701" lon="5.05881">
        <ele>90</ele>
        <time>2019-12-16T13:58:18Z</time>
      </trkpt>
      <trkpt lat="43.58701" lon="5.05882">
        <ele>90</ele>
        <time>2019-12-16T13:58:19Z</time>
      </trkpt>
      <trkpt lat="43.58702" lon="5.05883">
        <ele>90</ele>
        <time>2019-12-16T13:58:20Z</time>
      </trkpt>
      <trkpt lat="43.58702" lon="5.05884">
        <ele>90</ele>
        <time>2019-12-16T13:58:21Z</time>
      </trkpt>
      <trkpt lat="43.58702" lon="5.05885">
        <ele>90</ele>
        <time>2019-12-16T13:58:22Z</time>
      </trkpt>
      <trkpt lat="43.58703" lon="5.05887">
        <ele>90</ele>
        <time>2019-12-16T13:58:23Z</time>
      </trkpt>
      <trkpt lat="43.58703" lon="5.05888">
        <ele>90</ele>
        <time>2019-12-16T13:58:24Z</time>
      </trkpt>
      <trkpt lat="43.58703" lon="5.05889">
        <ele>90</ele>
        <time>2019-12-16T13:58:25Z</time>
      </trkpt>
      <trkpt lat="43.58703" lon="5.05891">
        <ele>90</ele>
        <time>2019-12-16T13:58:26Z</time>
      </trkpt>
      <trkpt lat="43.58703" lon="5.05892">
        <ele>90</ele>
        <time>2019-12-16T13:58:27Z</time>
      </trkpt>
      <trkpt lat="43.58703" lon="5.05894">
        <ele>90</ele>
        <time>2019-12-16T13:58:28Z</time>
      </trkpt>
      <trkpt lat="43.58703" lon="5.05895">
        <ele>90</ele>
        <time>2019-12-16T13:58:29Z</time>
      </trkpt>
      <trkpt lat="43.58703" lon="5.05897">
        <ele>90</ele>
        <time>2019-12-16T13:58:30Z</time>
      </trkpt>
      <trkpt lat="43.58703" lon="5.05898">
        <ele>90</ele>
        <time>2019-12-16T13:58:31Z</time>
      </trkpt>
      <trkpt lat="43.58703" lon="5.059">
        <ele>90</ele>
        <time>2019-12-16T13:58:32Z</time>
      </trkpt>
      <trkpt lat="43.58702" lon="5.05901">
        <ele>90</ele>
        <time>2019-12-16T13:58:33Z</time>
      </trkpt>
      <trkpt lat="43.58702" lon="5.05903">
        <ele>90</ele>
        <time>2019-12-16T13:58:34Z</time>
      </trkpt>
      <trkpt lat="43.58701" lon="5.05904">
        <ele>90</ele>
        <time>2019-12-16T13:58:35Z</time>
      </trkpt>
      <trkpt lat="43.58701" lon="5.05906">
        <ele>90</ele>
        <time>2019-12-16T13:58:36Z</time>
      </trkpt>
      <trkpt lat="43.587" lon="5.05907">
        <ele>90</ele>
        <time>2019-12-16T13:58:37Z</time>
      </trkpt>
      <trkpt lat="43.58699" lon="5.05909">
        <ele>90</ele>
        <time>2019-12-16T13:58:38Z</time>
      </trkpt>
      <trkpt lat="43.58699" lon="5.05911">
        <ele>90</ele>
        <time>2019-12-16T13:58:39Z</time>
      </trkpt>
      <trkpt lat="43.58698" lon="5.05912">
        <ele>90</ele>
        <time>2019-12-16T13:58:40Z</time>
      </trkpt>
      <trkpt lat="43.58697" lon="5.05914">
        <ele>90</ele>
        <time>2019-12-16T13:58:41Z</time>
      </trkpt>
      <trkpt lat="43.58696" lon="5.05915">
        <ele>90</ele>
        <time>2019-12-16T13:58:42Z</time>
      </trkpt>
      <trkpt lat="43.58695" lon="5.05917">
        <ele>90</ele>
        <time>2019-12-16T13:58:43Z</time>
      </trkpt>
      <trkpt lat="43.58694" lon="5.05918">
        <ele>90</ele>
        <time>2019-12-16T13:58:44Z</time>
      </trkpt>
      <trkpt lat="43.58694" lon="5.0592">
        <ele>90</ele>
        <time>2019-12-16T13:58:45Z</time>
      </trkpt>
      <trkpt lat="43.58693" lon="5.05921">
        <ele>90</ele>
        <time>2019-12-16T13:58:46Z</time>
      </trkpt>
      <trkpt lat="43.58692" lon="5.05922">
        <ele>90</ele>
        <time>2019-12-16T13:58:47Z</time>
      </trkpt>
      <trkpt lat="43.58691" lon="5.05924">
        <ele>90</ele>
        <time>2019-12-16T13:58:48Z</time>
      </trkpt>
      <trkpt lat="43.5869" lon="5.05925">
        <ele>90</ele>
        <time>2019-12-16T13:58:49Z</time>
      </trkpt>
      <trkpt lat="43.58689" lon="5.05927">
        <ele>90</ele>
        <time>2019-12-16T13:58:50Z</time>
      </trkpt>
      <trkpt lat="43.58689" lon="5.05928">
        <ele>90</ele>
        <time>2019-12-16T13:58:51Z</time>
      </trkpt>
      <trkpt lat="43.58688" lon="5.0593">
        <ele>90</ele>
        <time>2019-12-16T13:58:52Z</time>
      </trkpt>
      <trkpt lat="43.58687" lon="5.05931">
        <ele>90</ele>
        <time>2019-12-16T13:58:53Z</time>
      </trkpt>
      <trkpt lat="43.58687" lon="5.05932">
        <ele>90</ele>
        <time>2019-12-16T13:58:54Z</time>
      </trkpt>
      <trkpt lat="43.58686" lon="5.05934">
        <ele>90</ele>
        <time>2019-12-16T13:58:55Z</time>
      </trkpt>
      <trkpt lat="43.58685" lon="5.05935">
        <ele>90</ele>
        <time>2019-12-16T13:58:56Z</time>
      </trkpt>
      <trkpt lat="43.58685" lon="5.05937">
        <ele>90</ele>
        <time>2019-12-16T13:58:57Z</time>
      </trkpt>
      <trkpt lat="43.58684" lon="5.05938">
        <ele>90</ele>
        <time>2019-12-16T13:58:58Z</time>
      </trkpt>
      <trkpt lat="43.58684" lon="5.05939">
        <ele>90</ele>
        <time>2019-12-16T13:58:59Z</time>
      </trkpt>
      <trkpt lat="43.58683" lon="5.05941">
        <ele>90</ele>
        <time>2019-12-16T13:59:00Z</time>
      </trkpt>
      <trkpt lat="43.58683" lon="5.05942">
        <ele>90</ele>
        <time>2019-12-16T13:59:01Z</time>
      </trkpt>
      <trkpt lat="43.58682" lon="5.05943">
        <ele>90</ele>
        <time>2019-12-16T13:59:02Z</time>
      </trkpt>
      <trkpt lat="43.58681" lon="5.05944">
        <ele>90</ele>
        <time>2019-12-16T13:59:03Z</time>
      </trkpt>
      <trkpt lat="43.58681" lon="5.05946">
        <ele>90</ele>
        <time>2019-12-16T13:59:04Z</time>
      </trkpt>
      <trkpt lat="43.5868" lon="5.05947">
        <ele>90</ele>
        <time>2019-12-16T13:59:05Z</time>
      </trkpt>
      <trkpt lat="43.58679" lon="5.05948">
        <ele>90</ele>
        <time>2019-12-16T13:59:06Z</time>
      </trkpt>
      <trkpt lat="43.58678" lon="5.05949">
        <ele>90</ele>
        <time>2019-12-16T13:59:07Z</time>
      </trkpt>
      <trkpt lat="43.58677" lon="5.05951">
        <ele>90</ele>
        <time>2019-12-16T13:59:08Z</time>
      </trkpt>
      <trkpt lat="43.58677" lon="5.05952">
        <ele>90</ele>
        <time>2019-12-16T13:59:09Z</time>
      </trkpt>
      <trkpt lat="43.58675" lon="5.05952">
        <ele>90</ele>
        <time>2019-12-16T13:59:10Z</time>
      </trkpt>
      <trkpt lat="43.58674" lon="5.05954">
        <ele>90</ele>
        <time>2019-12-16T13:59:11Z</time>
      </trkpt>
      <trkpt lat="43.58673" lon="5.05954">
        <ele>90</ele>
        <time>2019-12-16T13:59:12Z</time>
      </trkpt>
      <trkpt lat="43.58672" lon="5.05955">
        <ele>90</ele>
        <time>2019-12-16T13:59:13Z</time>
      </trkpt>
      <trkpt lat="43.58671" lon="5.05956">
        <ele>90</ele>
        <time>2019-12-16T13:59:14Z</time>
      </trkpt>
      <trkpt lat="43.5867" lon="5.05956">
        <ele>90</ele>
        <time>2019-12-16T13:59:15Z</time>
      </trkpt>
      <trkpt lat="43.58668" lon="5.05957">
        <ele>90</ele>
        <time>2019-12-16T13:59:16Z</time>
      </trkpt>
      <trkpt lat="43.58667" lon="5.05957">
        <ele>90</ele>
        <time>2019-12-16T13:59:17Z</time>
      </trkpt>
      <trkpt lat="43.58665" lon="5.05958">
        <ele>88</ele>
        <time>2019-12-16T13:59:18Z</time>
      </trkpt>
      <trkpt lat="43.58664" lon="5.05958">
        <ele>88</ele>
        <time>2019-12-16T13:59:19Z</time>
      </trkpt>
      <trkpt lat="43.58663" lon="5.05959">
        <ele>88</ele>
        <time>2019-12-16T13:59:20Z</time>
      </trkpt>
      <trkpt lat="43.58662" lon="5.05959">
        <ele>88</ele>
        <time>2019-12-16T13:59:21Z</time>
      </trkpt>
      <trkpt lat="43.5866" lon="5.0596">
        <ele>88</ele>
        <time>2019-12-16T13:59:22Z</time>
      </trkpt>
      <trkpt lat="43.58659" lon="5.05961">
        <ele>88</ele>
        <time>2019-12-16T13:59:23Z</time>
      </trkpt>
      <trkpt lat="43.58658" lon="5.05961">
        <ele>88</ele>
        <time>2019-12-16T13:59:24Z</time>
      </trkpt>
      <trkpt lat="43.58657" lon="5.05962">
        <ele>88</ele>
        <time>2019-12-16T13:59:25Z</time>
      </trkpt>
      <trkpt lat="43.58657" lon="5.05963">
        <ele>88</ele>
        <time>2019-12-16T13:59:26Z</time>
      </trkpt>
      <trkpt lat="43.58656" lon="5.05964">
        <ele>88</ele>
        <time>2019-12-16T13:59:27Z</time>
      </trkpt>
      <trkpt lat="43.58655" lon="5.05964">
        <ele>88</ele>
        <time>2019-12-16T13:59:28Z</time>
      </trkpt>
      <trkpt lat="43.58654" lon="5.05964">
        <ele>88</ele>
        <time>2019-12-16T13:59:29Z</time>
      </trkpt>
      <trkpt lat="43.58653" lon="5.05964">
        <ele>88</ele>
        <time>2019-12-16T13:59:30Z</time>
      </trkpt>
      <trkpt lat="43.58652" lon="5.05964">
        <ele>88</ele>
        <time>2019-12-16T13:59:31Z</time>
      </trkpt>
      <trkpt lat="43.58652" lon="5.05964">
        <ele>88</ele>
        <time>2019-12-16T13:59:32Z</time>
      </trkpt>
      <trkpt lat="43.58651" lon="5.05963">
        <ele>88</ele>
        <time>2019-12-16T13:59:33Z</time>
      </trkpt>
      <trkpt lat="43.5865" lon="5.05963">
        <ele>88</ele>
        <time>2019-12-16T13:59:34Z</time>
      </trkpt>
      <trkpt lat="43.5865" lon="5.05963">
        <ele>88</ele>
        <time>2019-12-16T13:59:35Z</time>
      </trkpt>
      <trkpt lat="43.5865" lon="5.05963">
        <ele>88</ele>
        <time>2019-12-16T13:59:36Z</time>
      </trkpt>
      <trkpt lat="43.58649" lon="5.05963">
        <ele>88</ele>
        <time>2019-12-16T13:59:37Z</time>
      </trkpt>
      <trkpt lat="43.58649" lon="5.05963">
        <ele>88</ele>
        <time>2019-12-16T13:59:38Z</time>
      </trkpt>
      <trkpt lat="43.58649" lon="5.05963">
        <ele>88</ele>
        <time>2019-12-16T13:59:39Z</time>
      </trkpt>
      <trkpt lat="43.58649" lon="5.05963">
        <ele>88</ele>
        <time>2019-12-16T13:59:40Z</time>
      </trkpt>
      <trkpt lat="43.58649" lon="5.05963">
        <ele>88</ele>
        <time>2019-12-16T13:59:41Z</time>
      </trkpt>
      <trkpt lat="43.58649" lon="5.05963">
        <ele>88</ele>
        <time>2019-12-16T13:59:42Z</time>
      </trkpt>
      <trkpt lat="43.58649" lon="5.05963">
        <ele>88</ele>
        <time>2019-12-16T13:59:43Z</time>
      </trkpt>
      <trkpt lat="43.58649" lon="5.05963">
        <ele>88</ele>
        <time>2019-12-16T13:59:44Z</time>
      </trkpt>
      <trkpt lat="43.58649" lon="5.05963">
        <ele>88</ele>
        <time>2019-12-16T13:59:45Z</time>
      </trkpt>
      <trkpt lat="43.58649" lon="5.05963">
        <ele>88</ele>
        <time>2019-12-16T13:59:46Z</time>
      </trkpt>
      <trkpt lat="43.58649" lon="5.05963">
        <ele>88</ele>
        <time>2019-12-16T13:59:47Z</time>
      </trkpt>
      <trkpt lat="43.58649" lon="5.05963">
        <ele>88</ele>
        <time>2019-12-16T13:59:48Z</time>
      </trkpt>
      <trkpt lat="43.58649" lon="5.05963">
        <ele>88</ele>
        <time>2019-12-16T13:59:49Z</time>
      </trkpt>
      <trkpt lat="43.58649" lon="5.05963">
        <ele>88</ele>
        <time>2019-12-16T13:59:50Z</time>
      </trkpt>
      <trkpt lat="43.58649" lon="5.05963">
        <ele>88</ele>
        <time>2019-12-16T13:59:51Z</time>
      </trkpt>
      <trkpt lat="43.58649" lon="5.05963">
        <ele>88</ele>
        <time>2019-12-16T13:59:52Z</time>
      </trkpt>
      <trkpt lat="43.58649" lon="5.05963">
        <ele>88</ele>
        <time>2019-12-16T13:59:53Z</time>
      </trkpt>
      <trkpt lat="43.58649" lon="5.05963">
        <ele>88</ele>
        <time>2019-12-16T13:59:54Z</time>
      </trkpt>
      <trkpt lat="43.58649" lon="5.05963">
        <ele>88</ele>
        <time>2019-12-16T13:59:55Z</time>
      </trkpt>
      <trkpt lat="43.58649" lon="5.05963">
        <ele>88</ele>
        <time>2019-12-16T13:59:56Z</time>
      </trkpt>
      <trkpt lat="43.58649" lon="5.05963">
        <ele>88</ele>
        <time>2019-12-16T13:59:57Z</time>
      </trkpt>
      <trkpt lat="43.58649" lon="5.05963">
        <ele>88</ele>
        <time>2019-12-16T13:59:58Z</time>
      </trkpt>
      <trkpt lat="43.58649" lon="5.05963">
        <ele>88</ele>
        <time>2019-12-16T13:59:59Z</time>
      </trkpt>
      <trkpt lat="43.58649" lon="5.05963">
        <ele>88</ele>
        <time>2019-12-16T14:00:00Z</time>
      </trkpt>
      <trkpt lat="43.58649" lon="5.05963">
        <ele>88</ele>
        <time>2019-12-16T14:00:01Z</time>
      </trkpt>
      <trkpt lat="43.58649" lon="5.05963">
        <ele>88</ele>
        <time>2019-12-16T14:00:02Z</time>
      </trkpt>
      <trkpt lat="43.58649" lon="5.05963">
        <ele>88</ele>
        <time>2019-12-16T14:00:03Z</time>
      </trkpt>
      <trkpt lat="43.58649" lon="5.05963">
        <ele>88</ele>
        <time>2019-12-16T14:00:04Z</time>
      </trkpt>
      <trkpt lat="43.58649" lon="5.05963">
        <ele>88</ele>
        <time>2019-12-16T14:00:05Z</time>
      </trkpt>
      <trkpt lat="43.58649" lon="5.05963">
        <ele>88</ele>
        <time>2019-12-16T14:00:06Z</time>
      </trkpt>
      <trkpt lat="43.58649" lon="5.05963">
        <ele>88</ele>
        <time>2019-12-16T14:00:07Z</time>
      </trkpt>
      <trkpt lat="43.58649" lon="5.05963">
        <ele>88</ele>
        <time>2019-12-16T14:00:08Z</time>
      </trkpt>
      <trkpt lat="43.58649" lon="5.05963">
        <ele>88</ele>
        <time>2019-12-16T14:00:09Z</time>
      </trkpt>
      <trkpt lat="43.58649" lon="5.05963">
        <ele>88</ele>
        <time>2019-12-16T14:00:10Z</time>
      </trkpt>
      <trkpt lat="43.58649" lon="5.05963">
        <ele>88</ele>
        <time>2019-12-16T14:00:11Z</time>
      </trkpt>
      <trkpt lat="43.58649" lon="5.05963">
        <ele>88</ele>
        <time>2019-12-16T14:00:12Z</time>
      </trkpt>
      <trkpt lat="43.58649" lon="5.05963">
        <ele>88</ele>
        <time>2019-12-16T14:00:13Z</time>
      </trkpt>
      <trkpt lat="43.58649" lon="5.05963">
        <ele>88</ele>
        <time>2019-12-16T14:00:14Z</time>
      </trkpt>
      <trkpt lat="43.58649" lon="5.05963">
        <ele>88</ele>
        <time>2019-12-16T14:00:15Z</time>
      </trkpt>
      <trkpt lat="43.58649" lon="5.05963">
        <ele>88</ele>
        <time>2019-12-16T14:00:16Z</time>
      </trkpt>
      <trkpt lat="43.58649" lon="5.05963">
        <ele>88</ele>
        <time>2019-12-16T14:00:17Z</time>
      </trkpt>
      <trkpt lat="43.58649" lon="5.05963">
        <ele>88</ele>
        <time>2019-12-16T14:00:18Z</time>
      </trkpt>
      <trkpt lat="43.58649" lon="5.05963">
        <ele>88</ele>
        <time>2019-12-16T14:00:19Z</time>
      </trkpt>
      <trkpt lat="43.58649" lon="5.05963">
        <ele>88</ele>
        <time>2019-12-16T14:00:20Z</time>
      </trkpt>
      <trkpt lat="43.58649" lon="5.05963">
        <ele>88</ele>
        <time>2019-12-16T14:00:21Z</time>
      </trkpt>
      <trkpt lat="43.58649" lon="5.05963">
        <ele>88</ele>
        <time>2019-12-16T14:00:22Z</time>
      </trkpt>
      <trkpt lat="43.58649" lon="5.05963">
        <ele>88</ele>
        <time>2019-12-16T14:00:23Z</time>
      </trkpt>
      <trkpt lat="43.58649" lon="5.05963">
        <ele>88</ele>
        <time>2019-12-16T14:00:24Z</time>
      </trkpt>
      <trkpt lat="43.58649" lon="5.05963">
        <ele>88</ele>
        <time>2019-12-16T14:00:25Z</time>
      </trkpt>
      <trkpt lat="43.58649" lon="5.05963">
        <ele>88</ele>
        <time>2019-12-16T14:00:26Z</time>
      </trkpt>
      <trkpt lat="43.58649" lon="5.05963">
        <ele>88</ele>
        <time>2019-12-16T14:00:27Z</time>
      </trkpt>
      <trkpt lat="43.58649" lon="5.05963">
        <ele>88</ele>
        <time>2019-12-16T14:00:28Z</time>
      </trkpt>
      <trkpt lat="43.58649" lon="5.05963">
        <ele>88</ele>
        <time>2019-12-16T14:00:29Z</time>
      </trkpt>
      <trkpt lat="43.58649" lon="5.05964">
        <ele>88</ele>
        <time>2019-12-16T14:00:30Z</time>
      </trkpt>
      <trkpt lat="43.58649" lon="5.05964">
        <ele>88</ele>
        <time>2019-12-16T14:00:31Z</time>
      </trkpt>
      <trkpt lat="43.58649" lon="5.05964">
        <ele>88</ele>
        <time>2019-12-16T14:00:32Z</time>
      </trkpt>
      <trkpt lat="43.58649" lon="5.05964">
        <ele>88</ele>
        <time>2019-12-16T14:00:33Z</time>
      </trkpt>
      <trkpt lat="43.58649" lon="5.05964">
        <ele>88</ele>
        <time>2019-12-16T14:00:34Z</time>
      </trkpt>
      <trkpt lat="43.58649" lon="5.05964">
        <ele>88</ele>
        <time>2019-12-16T14:00:35Z</time>
      </trkpt>
      <trkpt lat="43.58649" lon="5.05964">
        <ele>88</ele>
        <time>2019-12-16T14:00:36Z</time>
      </trkpt>
      <trkpt lat="43.58649" lon="5.05964">
        <ele>88</ele>
        <time>2019-12-16T14:00:37Z</time>
      </trkpt>
      <trkpt lat="43.58649" lon="5.05964">
        <ele>88</ele>
        <time>2019-12-16T14:00:38Z</time>
      </trkpt>
      <trkpt lat="43.58649" lon="5.05964">
        <ele>88</ele>
        <time>2019-12-16T14:00:39Z</time>
      </trkpt>
      <trkpt lat="43.58649" lon="5.05964">
        <ele>88</ele>
        <time>2019-12-16T14:00:40Z</time>
      </trkpt>
      <trkpt lat="43.58649" lon="5.05964">
        <ele>88</ele>
        <time>2019-12-16T14:00:41Z</time>
      </trkpt>
      <trkpt lat="43.58649" lon="5.05964">
        <ele>88</ele>
        <time>2019-12-16T14:00:42Z</time>
      </trkpt>
      <trkpt lat="43.58649" lon="5.05964">
        <ele>88</ele>
        <time>2019-12-16T14:00:43Z</time>
      </trkpt>
      <trkpt lat="43.58649" lon="5.05964">
        <ele>88</ele>
        <time>2019-12-16T14:00:44Z</time>
      </trkpt>
      <trkpt lat="43.58649" lon="5.05964">
        <ele>88</ele>
        <time>2019-12-16T14:00:45Z</time>
      </trkpt>
      <trkpt lat="43.58649" lon="5.05964">
        <ele>88</ele>
        <time>2019-12-16T14:00:46Z</time>
      </trkpt>
      <trkpt lat="43.58649" lon="5.05964">
        <ele>88</ele>
        <time>2019-12-16T14:00:47Z</time>
      </trkpt>
      <trkpt lat="43.58649" lon="5.05964">
        <ele>88</ele>
        <time>2019-12-16T14:00:48Z</time>
      </trkpt>
      <trkpt lat="43.58649" lon="5.05964">
        <ele>88</ele>
        <time>2019-12-16T14:00:49Z</time>
      </trkpt>
      <trkpt lat="43.58649" lon="5.05964">
        <ele>88</ele>
        <time>2019-12-16T14:00:50Z</time>
      </trkpt>
      <trkpt lat="43.58649" lon="5.05964">
        <ele>88</ele>
        <time>2019-12-16T14:00:51Z</time>
      </trkpt>
      <trkpt lat="43.58649" lon="5.05964">
        <ele>88</ele>
        <time>2019-12-16T14:00:52Z</time>
      </trkpt>
      <trkpt lat="43.58649" lon="5.05964">
        <ele>88</ele>
        <time>2019-12-16T14:00:53Z</time>
      </trkpt>
      <trkpt lat="43.58649" lon="5.05964">
        <ele>88</ele>
        <time>2019-12-16T14:00:54Z</time>
      </trkpt>
      <trkpt lat="43.58649" lon="5.05964">
        <ele>88</ele>
        <time>2019-12-16T14:00:55Z</time>
      </trkpt>
      <trkpt lat="43.58649" lon="5.05964">
        <ele>88</ele>
        <time>2019-12-16T14:00:56Z</time>
      </trkpt>
      <trkpt lat="43.5865" lon="5.05964">
        <ele>88</ele>
        <time>2019-12-16T14:00:57Z</time>
      </trkpt>
      <trkpt lat="43.5865" lon="5.05964">
        <ele>88</ele>
        <time>2019-12-16T14:00:58Z</time>
      </trkpt>
      <trkpt lat="43.5865" lon="5.05964">
        <ele>88</ele>
        <time>2019-12-16T14:00:59Z</time>
      </trkpt>
      <trkpt lat="43.5865" lon="5.05964">
        <ele>88</ele>
        <time>2019-12-16T14:01:00Z</time>
      </trkpt>
      <trkpt lat="43.5865" lon="5.05964">
        <ele>88</ele>
        <time>2019-12-16T14:01:01Z</time>
      </trkpt>
      <trkpt lat="43.5865" lon="5.05964">
        <ele>88</ele>
        <time>2019-12-16T14:01:02Z</time>
      </trkpt>
      <trkpt lat="43.5865" lon="5.05964">
        <ele>88</ele>
        <time>2019-12-16T14:01:03Z</time>
      </trkpt>
      <trkpt lat="43.5865" lon="5.05964">
        <ele>88</ele>
        <time>2019-12-16T14:01:04Z</time>
      </trkpt>
      <trkpt lat="43.5865" lon="5.05964">
        <ele>88</ele>
        <time>2019-12-16T14:01:05Z</time>
      </trkpt>
      <trkpt lat="43.5865" lon="5.05964">
        <ele>88</ele>
        <time>2019-12-16T14:01:06Z</time>
      </trkpt>
      <trkpt lat="43.58649" lon="5.05964">
        <ele>88</ele>
        <time>2019-12-16T14:01:07Z</time>
      </trkpt>
      <trkpt lat="43.58649" lon="5.05964">
        <ele>88</ele>
        <time>2019-12-16T14:01:08Z</time>
      </trkpt>
      <trkpt lat="43.58649" lon="5.05964">
        <ele>88</ele>
        <time>2019-12-16T14:01:09Z</time>
      </trkpt>
      <trkpt lat="43.58649" lon="5.05964">
        <ele>88</ele>
        <time>2019-12-16T14:01:10Z</time>
      </trkpt>
      <trkpt lat="43.58648" lon="5.05964">
        <ele>88</ele>
        <time>2019-12-16T14:01:11Z</time>
      </trkpt>
      <trkpt lat="43.58648" lon="5.05964">
        <ele>88</ele>
        <time>2019-12-16T14:01:12Z</time>
      </trkpt>
      <trkpt lat="43.58647" lon="5.05964">
        <ele>88</ele>
        <time>2019-12-16T14:01:13Z</time>
      </trkpt>
      <trkpt lat="43.58647" lon="5.05963">
        <ele>88</ele>
        <time>2019-12-16T14:01:14Z</time>
      </trkpt>
      <trkpt lat="43.58646" lon="5.05963">
        <ele>88</ele>
        <time>2019-12-16T14:01:15Z</time>
      </trkpt>
      <trkpt lat="43.58646" lon="5.05963">
        <ele>88</ele>
        <time>2019-12-16T14:01:16Z</time>
      </trkpt>
      <trkpt lat="43.58645" lon="5.05962">
        <ele>88</ele>
        <time>2019-12-16T14:01:17Z</time>
      </trkpt>
      <trkpt lat="43.58644" lon="5.05962">
        <ele>88</ele>
        <time>2019-12-16T14:01:18Z</time>
      </trkpt>
      <trkpt lat="43.58643" lon="5.05961">
        <ele>88</ele>
        <time>2019-12-16T14:01:19Z</time>
      </trkpt>
      <trkpt lat="43.58642" lon="5.05961">
        <ele>88</ele>
        <time>2019-12-16T14:01:20Z</time>
      </trkpt>
      <trkpt lat="43.58641" lon="5.05961">
        <ele>88</ele>
        <time>2019-12-16T14:01:21Z</time>
      </trkpt>
      <trkpt lat="43.5864" lon="5.0596">
        <ele>88</ele>
        <time>2019-12-16T14:01:22Z</time>
      </trkpt>
      <trkpt lat="43.58639" lon="5.0596">
        <ele>88</ele>
        <time>2019-12-16T14:01:23Z</time>
      </trkpt>
      <trkpt lat="43.58638" lon="5.05959">
        <ele>88</ele>
        <time>2019-12-16T14:01:24Z</time>
      </trkpt>
      <trkpt lat="43.58637" lon="5.05959">
        <ele>88</ele>
        <time>2019-12-16T14:01:25Z</time>
      </trkpt>
      <trkpt lat="43.58636" lon="5.05958">
        <ele>88</ele>
        <time>2019-12-16T14:01:26Z</time>
      </trkpt>
      <trkpt lat="43.58635" lon="5.05958">
        <ele>88</ele>
        <time>2019-12-16T14:01:27Z</time>
      </trkpt>
      <trkpt lat="43.58634" lon="5.05957">
        <ele>88</ele>
        <time>2019-12-16T14:01:28Z</time>
      </trkpt>
      <trkpt lat="43.58633" lon="5.05957">
        <ele>88</ele>
        <time>2019-12-16T14:01:29Z</time>
      </trkpt>
      <trkpt lat="43.58632" lon="5.05956">
        <ele>88</ele>
        <time>2019-12-16T14:01:30Z</time>
      </trkpt>
      <trkpt lat="43.58631" lon="5.05955">
        <ele>88</ele>
        <time>2019-12-16T14:01:31Z</time>
      </trkpt>
      <trkpt lat="43.58629" lon="5.05955">
        <ele>88</ele>
        <time>2019-12-16T14:01:32Z</time>
      </trkpt>
      <trkpt lat="43.58628" lon="5.05954">
        <ele>88</ele>
        <time>2019-12-16T14:01:33Z</time>
      </trkpt>
      <trkpt lat="43.58627" lon="5.05954">
        <ele>88</ele>
        <time>2019-12-16T14:01:34Z</time>
      </trkpt>
      <trkpt lat="43.58626" lon="5.05954">
        <ele>87</ele>
        <time>2019-12-16T14:01:35Z</time>
      </trkpt>
      <trkpt lat="43.58625" lon="5.05953">
        <ele>87</ele>
        <time>2019-12-16T14:01:36Z</time>
      </trkpt>
      <trkpt lat="43.58624" lon="5.05953">
        <ele>87</ele>
        <time>2019-12-16T14:01:37Z</time>
      </trkpt>
      <trkpt lat="43.58623" lon="5.05953">
        <ele>87</ele>
        <time>2019-12-16T14:01:38Z</time>
      </trkpt>
      <trkpt lat="43.58622" lon="5.05953">
        <ele>87</ele>
        <time>2019-12-16T14:01:39Z</time>
      </trkpt>
      <trkpt lat="43.58621" lon="5.05952">
        <ele>87</ele>
        <time>2019-12-16T14:01:40Z</time>
      </trkpt>
      <trkpt lat="43.5862" lon="5.05952">
        <ele>87</ele>
        <time>2019-12-16T14:01:41Z</time>
      </trkpt>
      <trkpt lat="43.58619" lon="5.05952">
        <ele>87</ele>
        <time>2019-12-16T14:01:42Z</time>
      </trkpt>
      <trkpt lat="43.58618" lon="5.05952">
        <ele>87</ele>
        <time>2019-12-16T14:01:43Z</time>
      </trkpt>
      <trkpt lat="43.58616" lon="5.05951">
        <ele>87</ele>
        <time>2019-12-16T14:01:44Z</time>
      </trkpt>
      <trkpt lat="43.58615" lon="5.05951">
        <ele>87</ele>
        <time>2019-12-16T14:01:45Z</time>
      </trkpt>
      <trkpt lat="43.58614" lon="5.05951">
        <ele>87</ele>
        <time>2019-12-16T14:01:46Z</time>
      </trkpt>
      <trkpt lat="43.58613" lon="5.05951">
        <ele>87</ele>
        <time>2019-12-16T14:01:47Z</time>
      </trkpt>
      <trkpt lat="43.58612" lon="5.0595">
        <ele>87</ele>
        <time>2019-12-16T14:01:48Z</time>
      </trkpt>
      <trkpt lat="43.58611" lon="5.0595">
        <ele>87</ele>
        <time>2019-12-16T14:01:49Z</time>
      </trkpt>
      <trkpt lat="43.5861" lon="5.0595">
        <ele>87</ele>
        <time>2019-12-16T14:01:50Z</time>
      </trkpt>
      <trkpt lat="43.58609" lon="5.05949">
        <ele>87</ele>
        <time>2019-12-16T14:01:51Z</time>
      </trkpt>
      <trkpt lat="43.58608" lon="5.05949">
        <ele>87</ele>
        <time>2019-12-16T14:01:52Z</time>
      </trkpt>
      <trkpt lat="43.58607" lon="5.05948">
        <ele>87</ele>
        <time>2019-12-16T14:01:53Z</time>
      </trkpt>
      <trkpt lat="43.58606" lon="5.05948">
        <ele>87</ele>
        <time>2019-12-16T14:01:54Z</time>
      </trkpt>
      <trkpt lat="43.58605" lon="5.05947">
        <ele>87</ele>
        <time>2019-12-16T14:01:55Z</time>
      </trkpt>
      <trkpt lat="43.58604" lon="5.05947">
        <ele>87</ele>
        <time>2019-12-16T14:01:56Z</time>
      </trkpt>
      <trkpt lat="43.58603" lon="5.05946">
        <ele>87</ele>
        <time>2019-12-16T14:01:57Z</time>
      </trkpt>
      <trkpt lat="43.58602" lon="5.05945">
        <ele>87</ele>
        <time>2019-12-16T14:01:58Z</time>
      </trkpt>
      <trkpt lat="43.58602" lon="5.05945">
        <ele>87</ele>
        <time>2019-12-16T14:01:59Z</time>
      </trkpt>
      <trkpt lat="43.58601" lon="5.05944">
        <ele>87</ele>
        <time>2019-12-16T14:02:00Z</time>
      </trkpt>
      <trkpt lat="43.586" lon="5.05944">
        <ele>87</ele>
        <time>2019-12-16T14:02:01Z</time>
      </trkpt>
      <trkpt lat="43.58599" lon="5.05944">
        <ele>87</ele>
        <time>2019-12-16T14:02:02Z</time>
      </trkpt>
      <trkpt lat="43.58598" lon="5.05944">
        <ele>87</ele>
        <time>2019-12-16T14:02:03Z</time>
      </trkpt>
      <trkpt lat="43.58597" lon="5.05944">
        <ele>87</ele>
        <time>2019-12-16T14:02:04Z</time>
      </trkpt>
      <trkpt lat="43.58597" lon="5.05944">
        <ele>87</ele>
        <time>2019-12-16T14:02:05Z</time>
      </trkpt>
      <trkpt lat="43.58596" lon="5.05943">
        <ele>87</ele>
        <time>2019-12-16T14:02:06Z</time>
      </trkpt>
      <trkpt lat="43.58595" lon="5.05943">
        <ele>87</ele>
        <time>2019-12-16T14:02:07Z</time>
      </trkpt>
      <trkpt lat="43.58595" lon="5.05942">
        <ele>87</ele>
        <time>2019-12-16T14:02:08Z</time>
      </trkpt>
      <trkpt lat="43.58594" lon="5.05941">
        <ele>87</ele>
        <time>2019-12-16T14:02:09Z</time>
      </trkpt>
      <trkpt lat="43.58593" lon="5.0594">
        <ele>87</ele>
        <time>2019-12-16T14:02:10Z</time>
      </trkpt>
      <trkpt lat="43.58593" lon="5.05938">
        <ele>87</ele>
        <time>2019-12-16T14:02:11Z</time>
      </trkpt>
      <trkpt lat="43.58593" lon="5.05937">
        <ele>87</ele>
        <time>2019-12-16T14:02:12Z</time>
      </trkpt>
      <trkpt lat="43.58592" lon="5.05935">
        <ele>87</ele>
        <time>2019-12-16T14:02:13Z</time>
      </trkpt>
      <trkpt lat="43.58592" lon="5.05934">
        <ele>87</ele>
        <time>2019-12-16T14:02:14Z</time>
      </trkpt>
      <trkpt lat="43.58591" lon="5.05933">
        <ele>87</ele>
        <time>2019-12-16T14:02:15Z</time>
      </trkpt>
      <trkpt lat="43.5859" lon="5.05932">
        <ele>87</ele>
        <time>2019-12-16T14:02:16Z</time>
      </trkpt>
      <trkpt lat="43.5859" lon="5.05931">
        <ele>87</ele>
        <time>2019-12-16T14:02:17Z</time>
      </trkpt>
      <trkpt lat="43.58589" lon="5.0593">
        <ele>87</ele>
        <time>2019-12-16T14:02:18Z</time>
      </trkpt>
      <trkpt lat="43.58588" lon="5.05929">
        <ele>87</ele>
        <time>2019-12-16T14:02:19Z</time>
      </trkpt>
      <trkpt lat="43.58587" lon="5.05928">
        <ele>87</ele>
        <time>2019-12-16T14:02:20Z</time>
      </trkpt>
      <trkpt lat="43.58586" lon="5.05927">
        <ele>87</ele>
        <time>2019-12-16T14:02:21Z</time>
      </trkpt>
      <trkpt lat="43.58586" lon="5.05927">
        <ele>86</ele>
        <time>2019-12-16T14:02:22Z</time>
      </trkpt>
      <trkpt lat="43.58585" lon="5.05926">
        <ele>86</ele>
        <time>2019-12-16T14:02:23Z</time>
      </trkpt>
      <trkpt lat="43.58584" lon="5.05925">
        <ele>86</ele>
        <time>2019-12-16T14:02:24Z</time>
      </trkpt>
      <trkpt lat="43.58583" lon="5.05924">
        <ele>86</ele>
        <time>2019-12-16T14:02:25Z</time>
      </trkpt>
      <trkpt lat="43.58583" lon="5.05924">
        <ele>87</ele>
        <time>2019-12-16T14:02:26Z</time>
      </trkpt>
      <trkpt lat="43.58582" lon="5.05923">
        <ele>87</ele>
        <time>2019-12-16T14:02:27Z</time>
      </trkpt>
      <trkpt lat="43.58581" lon="5.05923">
        <ele>87</ele>
        <time>2019-12-16T14:02:28Z</time>
      </trkpt>
      <trkpt lat="43.5858" lon="5.05922">
        <ele>86</ele>
        <time>2019-12-16T14:02:29Z</time>
      </trkpt>
      <trkpt lat="43.5858" lon="5.05922">
        <ele>86</ele>
        <time>2019-12-16T14:02:30Z</time>
      </trkpt>
      <trkpt lat="43.58579" lon="5.05921">
        <ele>86</ele>
        <time>2019-12-16T14:02:31Z</time>
      </trkpt>
      <trkpt lat="43.58578" lon="5.05921">
        <ele>87</ele>
        <time>2019-12-16T14:02:32Z</time>
      </trkpt>
      <trkpt lat="43.58577" lon="5.0592">
        <ele>87</ele>
        <time>2019-12-16T14:02:33Z</time>
      </trkpt>
      <trkpt lat="43.58577" lon="5.0592">
        <ele>87</ele>
        <time>2019-12-16T14:02:34Z</time>
      </trkpt>
      <trkpt lat="43.58576" lon="5.05919">
        <ele>87</ele>
        <time>2019-12-16T14:02:35Z</time>
      </trkpt>
      <trkpt lat="43.58575" lon="5.05918">
        <ele>87</ele>
        <time>2019-12-16T14:02:36Z</time>
      </trkpt>
      <trkpt lat="43.58574" lon="5.05918">
        <ele>87</ele>
        <time>2019-12-16T14:02:37Z</time>
      </trkpt>
      <trkpt lat="43.58573" lon="5.05917">
        <ele>87</ele>
        <time>2019-12-16T14:02:38Z</time>
      </trkpt>
      <trkpt lat="43.58573" lon="5.05917">
        <ele>86</ele>
        <time>2019-12-16T14:02:39Z</time>
      </trkpt>
      <trkpt lat="43.58572" lon="5.05916">
        <ele>86</ele>
        <time>2019-12-16T14:02:40Z</time>
      </trkpt>
      <trkpt lat="43.58571" lon="5.05915">
        <ele>86</ele>
        <time>2019-12-16T14:02:41Z</time>
      </trkpt>
      <trkpt lat="43.5857" lon="5.05915">
        <ele>86</ele>
        <time>2019-12-16T14:02:42Z</time>
      </trkpt>
      <trkpt lat="43.58569" lon="5.05914">
        <ele>86</ele>
        <time>2019-12-16T14:02:43Z</time>
      </trkpt>
      <trkpt lat="43.58568" lon="5.05913">
        <ele>86</ele>
        <time>2019-12-16T14:02:44Z</time>
      </trkpt>
      <trkpt lat="43.58567" lon="5.05913">
        <ele>86</ele>
        <time>2019-12-16T14:02:45Z</time>
      </trkpt>
      <trkpt lat="43.58567" lon="5.05912">
        <ele>86</ele>
        <time>2019-12-16T14:02:46Z</time>
      </trkpt>
      <trkpt lat="43.58566" lon="5.05911">
        <ele>86</ele>
        <time>2019-12-16T14:02:47Z</time>
      </trkpt>
      <trkpt lat="43.58565" lon="5.05911">
        <ele>86</ele>
        <time>2019-12-16T14:02:48Z</time>
      </trkpt>
      <trkpt lat="43.58564" lon="5.0591">
        <ele>86</ele>
        <time>2019-12-16T14:02:49Z</time>
      </trkpt>
      <trkpt lat="43.58563" lon="5.05909">
        <ele>86</ele>
        <time>2019-12-16T14:02:50Z</time>
      </trkpt>
      <trkpt lat="43.58562" lon="5.05909">
        <ele>86</ele>
        <time>2019-12-16T14:02:51Z</time>
      </trkpt>
      <trkpt lat="43.58561" lon="5.05908">
        <ele>86</ele>
        <time>2019-12-16T14:02:52Z</time>
      </trkpt>
      <trkpt lat="43.5856" lon="5.05908">
        <ele>86</ele>
        <time>2019-12-16T14:02:53Z</time>
      </trkpt>
      <trkpt lat="43.58559" lon="5.05908">
        <ele>86</ele>
        <time>2019-12-16T14:02:54Z</time>
      </trkpt>
      <trkpt lat="43.58558" lon="5.05907">
        <ele>86</ele>
        <time>2019-12-16T14:02:55Z</time>
      </trkpt>
      <trkpt lat="43.58557" lon="5.05907">
        <ele>86</ele>
        <time>2019-12-16T14:02:56Z</time>
      </trkpt>
      <trkpt lat="43.58556" lon="5.05906">
        <ele>86</ele>
        <time>2019-12-16T14:02:57Z</time>
      </trkpt>
      <trkpt lat="43.58556" lon="5.05906">
        <ele>87</ele>
        <time>2019-12-16T14:02:58Z</time>
      </trkpt>
      <trkpt lat="43.58555" lon="5.05906">
        <ele>87</ele>
        <time>2019-12-16T14:02:59Z</time>
      </trkpt>
      <trkpt lat="43.58554" lon="5.05906">
        <ele>87</ele>
        <time>2019-12-16T14:03:00Z</time>
      </trkpt>
      <trkpt lat="43.58553" lon="5.05906">
        <ele>87</ele>
        <time>2019-12-16T14:03:01Z</time>
      </trkpt>
      <trkpt lat="43.58552" lon="5.05905">
        <ele>87</ele>
        <time>2019-12-16T14:03:02Z</time>
      </trkpt>
      <trkpt lat="43.58551" lon="5.05905">
        <ele>87</ele>
        <time>2019-12-16T14:03:03Z</time>
      </trkpt>
      <trkpt lat="43.5855" lon="5.05905">
        <ele>87</ele>
        <time>2019-12-16T14:03:04Z</time>
      </trkpt>
      <trkpt lat="43.58549" lon="5.05906">
        <ele>87</ele>
        <time>2019-12-16T14:03:05Z</time>
      </trkpt>
      <trkpt lat="43.58548" lon="5.05906">
        <ele>87</ele>
        <time>2019-12-16T14:03:06Z</time>
      </trkpt>
      <trkpt lat="43.58547" lon="5.05906">
        <ele>87</ele>
        <time>2019-12-16T14:03:07Z</time>
      </trkpt>
      <trkpt lat="43.58546" lon="5.05906">
        <ele>87</ele>
        <time>2019-12-16T14:03:08Z</time>
      </trkpt>
      <trkpt lat="43.58544" lon="5.05906">
        <ele>87</ele>
        <time>2019-12-16T14:03:09Z</time>
      </trkpt>
      <trkpt lat="43.58543" lon="5.05906">
        <ele>87</ele>
        <time>2019-12-16T14:03:10Z</time>
      </trkpt>
      <trkpt lat="43.58542" lon="5.05907">
        <ele>87</ele>
        <time>2019-12-16T14:03:11Z</time>
      </trkpt>
      <trkpt lat="43.58541" lon="5.05907">
        <ele>87</ele>
        <time>2019-12-16T14:03:12Z</time>
      </trkpt>
      <trkpt lat="43.5854" lon="5.05907">
        <ele>87</ele>
        <time>2019-12-16T14:03:13Z</time>
      </trkpt>
      <trkpt lat="43.58539" lon="5.05907">
        <ele>87</ele>
        <time>2019-12-16T14:03:14Z</time>
      </trkpt>
      <trkpt lat="43.58538" lon="5.05907">
        <ele>87</ele>
        <time>2019-12-16T14:03:15Z</time>
      </trkpt>
      <trkpt lat="43.58537" lon="5.05908">
        <ele>87</ele>
        <time>2019-12-16T14:03:16Z</time>
      </trkpt>
      <trkpt lat="43.58536" lon="5.05908">
        <ele>87</ele>
        <time>2019-12-16T14:03:17Z</time>
      </trkpt>
      <trkpt lat="43.58535" lon="5.05908">
        <ele>87</ele>
        <time>2019-12-16T14:03:18Z</time>
      </trkpt>
      <trkpt lat="43.58533" lon="5.05908">
        <ele>87</ele>
        <time>2019-12-16T14:03:19Z</time>
      </trkpt>
      <trkpt lat="43.58532" lon="5.05908">
        <ele>87</ele>
        <time>2019-12-16T14:03:20Z</time>
      </trkpt>
      <trkpt lat="43.58531" lon="5.05908">
        <ele>87</ele>
        <time>2019-12-16T14:03:21Z</time>
      </trkpt>
      <trkpt lat="43.5853" lon="5.05908">
        <ele>87</ele>
        <time>2019-12-16T14:03:22Z</time>
      </trkpt>
      <trkpt lat="43.58529" lon="5.05908">
        <ele>87</ele>
        <time>2019-12-16T14:03:23Z</time>
      </trkpt>
      <trkpt lat="43.58528" lon="5.05908">
        <ele>87</ele>
        <time>2019-12-16T14:03:24Z</time>
      </trkpt>
      <trkpt lat="43.58527" lon="5.05908">
        <ele>87</ele>
        <time>2019-12-16T14:03:25Z</time>
      </trkpt>
      <trkpt lat="43.58526" lon="5.05908">
        <ele>87</ele>
        <time>2019-12-16T14:03:26Z</time>
      </trkpt>
      <trkpt lat="43.58525" lon="5.05908">
        <ele>87</ele>
        <time>2019-12-16T14:03:27Z</time>
      </trkpt>
      <trkpt lat="43.58524" lon="5.05908">
        <ele>87</ele>
        <time>2019-12-16T14:03:28Z</time>
      </trkpt>
      <trkpt lat="43.58523" lon="5.05908">
        <ele>87</ele>
        <time>2019-12-16T14:03:29Z</time>
      </trkpt>
      <trkpt lat="43.58522" lon="5.05908">
        <ele>87</ele>
        <time>2019-12-16T14:03:30Z</time>
      </trkpt>
      <trkpt lat="43.58521" lon="5.05908">
        <ele>88</ele>
        <time>2019-12-16T14:03:31Z</time>
      </trkpt>
      <trkpt lat="43.5852" lon="5.05908">
        <ele>88</ele>
        <time>2019-12-16T14:03:32Z</time>
      </trkpt>
      <trkpt lat="43.58519" lon="5.05908">
        <ele>88</ele>
        <time>2019-12-16T14:03:33Z</time>
      </trkpt>
      <trkpt lat="43.58518" lon="5.05908">
        <ele>88</ele>
        <time>2019-12-16T14:03:34Z</time>
      </trkpt>
      <trkpt lat="43.58517" lon="5.05908">
        <ele>88</ele>
        <time>2019-12-16T14:03:35Z</time>
      </trkpt>
      <trkpt lat="43.58516" lon="5.05909">
        <ele>88</ele>
        <time>2019-12-16T14:03:36Z</time>
      </trkpt>
      <trkpt lat="43.58515" lon="5.05909">
        <ele>88</ele>
        <time>2019-12-16T14:03:37Z</time>
      </trkpt>
      <trkpt lat="43.58514" lon="5.05909">
        <ele>88</ele>
        <time>2019-12-16T14:03:38Z</time>
      </trkpt>
      <trkpt lat="43.58513" lon="5.0591">
        <ele>88</ele>
        <time>2019-12-16T14:03:39Z</time>
      </trkpt>
      <trkpt lat="43.58512" lon="5.0591">
        <ele>88</ele>
        <time>2019-12-16T14:03:40Z</time>
      </trkpt>
      <trkpt lat="43.58511" lon="5.05911">
        <ele>88</ele>
        <time>2019-12-16T14:03:41Z</time>
      </trkpt>
      <trkpt lat="43.5851" lon="5.05911">
        <ele>88</ele>
        <time>2019-12-16T14:03:42Z</time>
      </trkpt>
      <trkpt lat="43.58509" lon="5.05912">
        <ele>88</ele>
        <time>2019-12-16T14:03:43Z</time>
      </trkpt>
      <trkpt lat="43.58508" lon="5.05912">
        <ele>88</ele>
        <time>2019-12-16T14:03:44Z</time>
      </trkpt>
      <trkpt lat="43.58507" lon="5.05912">
        <ele>88</ele>
        <time>2019-12-16T14:03:45Z</time>
      </trkpt>
      <trkpt lat="43.58506" lon="5.05913">
        <ele>88</ele>
        <time>2019-12-16T14:03:46Z</time>
      </trkpt>
      <trkpt lat="43.58505" lon="5.05914">
        <ele>88</ele>
        <time>2019-12-16T14:03:47Z</time>
      </trkpt>
      <trkpt lat="43.58504" lon="5.05914">
        <ele>89</ele>
        <time>2019-12-16T14:03:48Z</time>
      </trkpt>
      <trkpt lat="43.58503" lon="5.05915">
        <ele>89</ele>
        <time>2019-12-16T14:03:49Z</time>
      </trkpt>
      <trkpt lat="43.58502" lon="5.05915">
        <ele>89</ele>
        <time>2019-12-16T14:03:50Z</time>
      </trkpt>
      <trkpt lat="43.58501" lon="5.05916">
        <ele>89</ele>
        <time>2019-12-16T14:03:51Z</time>
      </trkpt>
      <trkpt lat="43.585" lon="5.05916">
        <ele>89</ele>
        <time>2019-12-16T14:03:52Z</time>
      </trkpt>
      <trkpt lat="43.58499" lon="5.05917">
        <ele>89</ele>
        <time>2019-12-16T14:03:53Z</time>
      </trkpt>
      <trkpt lat="43.58498" lon="5.05917">
        <ele>89</ele>
        <time>2019-12-16T14:03:54Z</time>
      </trkpt>
      <trkpt lat="43.58497" lon="5.05918">
        <ele>89</ele>
        <time>2019-12-16T14:03:55Z</time>
      </trkpt>
      <trkpt lat="43.58496" lon="5.05918">
        <ele>89</ele>
        <time>2019-12-16T14:03:56Z</time>
      </trkpt>
      <trkpt lat="43.58495" lon="5.05919">
        <ele>89</ele>
        <time>2019-12-16T14:03:57Z</time>
      </trkpt>
      <trkpt lat="43.58494" lon="5.05919">
        <ele>89</ele>
        <time>2019-12-16T14:03:58Z</time>
      </trkpt>
      <trkpt lat="43.58493" lon="5.0592">
        <ele>89</ele>
        <time>2019-12-16T14:03:59Z</time>
      </trkpt>
      <trkpt lat="43.58492" lon="5.0592">
        <ele>90</ele>
        <time>2019-12-16T14:04:00Z</time>
      </trkpt>
      <trkpt lat="43.58491" lon="5.05921">
        <ele>90</ele>
        <time>2019-12-16T14:04:01Z</time>
      </trkpt>
      <trkpt lat="43.5849" lon="5.05921">
        <ele>90</ele>
        <time>2019-12-16T14:04:02Z</time>
      </trkpt>
      <trkpt lat="43.58489" lon="5.05921">
        <ele>90</ele>
        <time>2019-12-16T14:04:03Z</time>
      </trkpt>
      <trkpt lat="43.58488" lon="5.05922">
        <ele>90</ele>
        <time>2019-12-16T14:04:04Z</time>
      </trkpt>
      <trkpt lat="43.58487" lon="5.05922">
        <ele>90</ele>
        <time>2019-12-16T14:04:05Z</time>
      </trkpt>
      <trkpt lat="43.58486" lon="5.05922">
        <ele>90</ele>
        <time>2019-12-16T14:04:06Z</time>
      </trkpt>
      <trkpt lat="43.58485" lon="5.05923">
        <ele>90</ele>
        <time>2019-12-16T14:04:07Z</time>
      </trkpt>
      <trkpt lat="43.58484" lon="5.05923">
        <ele>90</ele>
        <time>2019-12-16T14:04:08Z</time>
      </trkpt>
      <trkpt lat="43.58483" lon="5.05923">
        <ele>90</ele>
        <time>2019-12-16T14:04:09Z</time>
      </trkpt>
      <trkpt lat="43.58482" lon="5.05924">
        <ele>90</ele>
        <time>2019-12-16T14:04:10Z</time>
      </trkpt>
      <trkpt lat="43.58481" lon="5.05924">
        <ele>90</ele>
        <time>2019-12-16T14:04:11Z</time>
      </trkpt>
      <trkpt lat="43.5848" lon="5.05924">
        <ele>90</ele>
        <time>2019-12-16T14:04:12Z</time>
      </trkpt>
      <trkpt lat="43.58478" lon="5.05925">
        <ele>90</ele>
        <time>2019-12-16T14:04:13Z</time>
      </trkpt>
      <trkpt lat="43.58477" lon="5.05925">
        <ele>90</ele>
        <time>2019-12-16T14:04:14Z</time>
      </trkpt>
      <trkpt lat="43.58476" lon="5.05926">
        <ele>90</ele>
        <time>2019-12-16T14:04:15Z</time>
      </trkpt>
      <trkpt lat="43.58475" lon="5.05926">
        <ele>90</ele>
        <time>2019-12-16T14:04:16Z</time>
      </trkpt>
      <trkpt lat="43.58474" lon="5.05927">
        <ele>90</ele>
        <time>2019-12-16T14:04:17Z</time>
      </trkpt>
      <trkpt lat="43.58473" lon="5.05927">
        <ele>90</ele>
        <time>2019-12-16T14:04:18Z</time>
      </trkpt>
      <trkpt lat="43.58472" lon="5.05927">
        <ele>90</ele>
        <time>2019-12-16T14:04:19Z</time>
      </trkpt>
      <trkpt lat="43.58471" lon="5.05928">
        <ele>90</ele>
        <time>2019-12-16T14:04:20Z</time>
      </trkpt>
      <trkpt lat="43.5847" lon="5.05928">
        <ele>90</ele>
        <time>2019-12-16T14:04:21Z</time>
      </trkpt>
      <trkpt lat="43.58469" lon="5.05929">
        <ele>90</ele>
        <time>2019-12-16T14:04:22Z</time>
      </trkpt>
      <trkpt lat="43.58468" lon="5.05929">
        <ele>90</ele>
        <time>2019-12-16T14:04:23Z</time>
      </trkpt>
      <trkpt lat="43.58467" lon="5.0593">
        <ele>90</ele>
        <time>2019-12-16T14:04:24Z</time>
      </trkpt>
      <trkpt lat="43.58466" lon="5.0593">
        <ele>90</ele>
        <time>2019-12-16T14:04:25Z</time>
      </trkpt>
      <trkpt lat="43.58465" lon="5.05931">
        <ele>90</ele>
        <time>2019-12-16T14:04:26Z</time>
      </trkpt>
      <trkpt lat="43.58464" lon="5.05931">
        <ele>90</ele>
        <time>2019-12-16T14:04:27Z</time>
      </trkpt>
      <trkpt lat="43.58463" lon="5.05932">
        <ele>90</ele>
        <time>2019-12-16T14:04:28Z</time>
      </trkpt>
      <trkpt lat="43.58462" lon="5.05933">
        <ele>90</ele>
        <time>2019-12-16T14:04:29Z</time>
      </trkpt>
      <trkpt lat="43.58461" lon="5.05933">
        <ele>90</ele>
        <time>2019-12-16T14:04:30Z</time>
      </trkpt>
      <trkpt lat="43.5846" lon="5.05934">
        <ele>90</ele>
        <time>2019-12-16T14:04:31Z</time>
      </trkpt>
      <trkpt lat="43.58458" lon="5.05934">
        <ele>90</ele>
        <time>2019-12-16T14:04:32Z</time>
      </trkpt>
      <trkpt lat="43.58457" lon="5.05935">
        <ele>90</ele>
        <time>2019-12-16T14:04:33Z</time>
      </trkpt>
      <trkpt lat="43.58456" lon="5.05936">
        <ele>90</ele>
        <time>2019-12-16T14:04:34Z</time>
      </trkpt>
      <trkpt lat="43.58455" lon="5.05937">
        <ele>90</ele>
        <time>2019-12-16T14:04:35Z</time>
      </trkpt>
      <trkpt lat="43.58454" lon="5.05937">
        <ele>90</ele>
        <time>2019-12-16T14:04:36Z</time>
      </trkpt>
      <trkpt lat="43.58453" lon="5.05938">
        <ele>91</ele>
        <time>2019-12-16T14:04:37Z</time>
      </trkpt>
      <trkpt lat="43.58452" lon="5.05939">
        <ele>91</ele>
        <time>2019-12-16T14:04:38Z</time>
      </trkpt>
      <trkpt lat="43.58451" lon="5.0594">
        <ele>91</ele>
        <time>2019-12-16T14:04:39Z</time>
      </trkpt>
      <trkpt lat="43.5845" lon="5.05941">
        <ele>91</ele>
        <time>2019-12-16T14:04:40Z</time>
      </trkpt>
      <trkpt lat="43.58448" lon="5.05942">
        <ele>91</ele>
        <time>2019-12-16T14:04:41Z</time>
      </trkpt>
      <trkpt lat="43.58447" lon="5.05942">
        <ele>91</ele>
        <time>2019-12-16T14:04:42Z</time>
      </trkpt>
      <trkpt lat="43.58446" lon="5.05943">
        <ele>91</ele>
        <time>2019-12-16T14:04:43Z</time>
      </trkpt>
      <trkpt lat="43.58445" lon="5.05944">
        <ele>91</ele>
        <time>2019-12-16T14:04:44Z</time>
      </trkpt>
      <trkpt lat="43.58444" lon="5.05944">
        <ele>91</ele>
        <time>2019-12-16T14:04:45Z</time>
      </trkpt>
      <trkpt lat="43.58443" lon="5.05945">
        <ele>91</ele>
        <time>2019-12-16T14:04:46Z</time>
      </trkpt>
      <trkpt lat="43.58442" lon="5.05945">
        <ele>91</ele>
        <time>2019-12-16T14:04:47Z</time>
      </trkpt>
      <trkpt lat="43.58441" lon="5.05945">
        <ele>91</ele>
        <time>2019-12-16T14:04:48Z</time>
      </trkpt>
      <trkpt lat="43.5844" lon="5.05945">
        <ele>91</ele>
        <time>2019-12-16T14:04:49Z</time>
      </trkpt>
      <trkpt lat="43.58438" lon="5.05945">
        <ele>91</ele>
        <time>2019-12-16T14:04:50Z</time>
      </trkpt>
      <trkpt lat="43.58438" lon="5.05945">
        <ele>91</ele>
        <time>2019-12-16T14:04:51Z</time>
      </trkpt>
      <trkpt lat="43.58437" lon="5.05946">
        <ele>91</ele>
        <time>2019-12-16T14:04:52Z</time>
      </trkpt>
      <trkpt lat="43.58436" lon="5.05946">
        <ele>91</ele>
        <time>2019-12-16T14:04:53Z</time>
      </trkpt>
      <trkpt lat="43.58435" lon="5.05946">
        <ele>91</ele>
        <time>2019-12-16T14:04:54Z</time>
      </trkpt>
      <trkpt lat="43.58434" lon="5.05946">
        <ele>91</ele>
        <time>2019-12-16T14:04:55Z</time>
      </trkpt>
      <trkpt lat="43.58433" lon="5.05946">
        <ele>91</ele>
        <time>2019-12-16T14:04:56Z</time>
      </trkpt>
      <trkpt lat="43.58432" lon="5.05946">
        <ele>91</ele>
        <time>2019-12-16T14:04:57Z</time>
      </trkpt>
      <trkpt lat="43.58432" lon="5.05946">
        <ele>91</ele>
        <time>2019-12-16T14:04:58Z</time>
      </trkpt>
      <trkpt lat="43.58431" lon="5.05946">
        <ele>91</ele>
        <time>2019-12-16T14:04:59Z</time>
      </trkpt>
      <trkpt lat="43.58431" lon="5.05946">
        <ele>91</ele>
        <time>2019-12-16T14:05:00Z</time>
      </trkpt>
      <trkpt lat="43.5843" lon="5.05946">
        <ele>91</ele>
        <time>2019-12-16T14:05:01Z</time>
      </trkpt>
      <trkpt lat="43.5843" lon="5.05947">
        <ele>91</ele>
        <time>2019-12-16T14:05:02Z</time>
      </trkpt>
      <trkpt lat="43.5843" lon="5.05947">
        <ele>91</ele>
        <time>2019-12-16T14:05:03Z</time>
      </trkpt>
      <trkpt lat="43.58429" lon="5.05948">
        <ele>91</ele>
        <time>2019-12-16T14:05:04Z</time>
      </trkpt>
      <trkpt lat="43.58429" lon="5.05948">
        <ele>91</ele>
        <time>2019-12-16T14:05:05Z</time>
      </trkpt>
      <trkpt lat="43.58428" lon="5.05948">
        <ele>91</ele>
        <time>2019-12-16T14:05:06Z</time>
      </trkpt>
      <trkpt lat="43.58427" lon="5.05948">
        <ele>91</ele>
        <time>2019-12-16T14:05:07Z</time>
      </trkpt>
      <trkpt lat="43.58426" lon="5.05949">
        <ele>91</ele>
        <time>2019-12-16T14:05:08Z</time>
      </trkpt>
      <trkpt lat="43.58425" lon="5.05949">
        <ele>91</ele>
        <time>2019-12-16T14:05:09Z</time>
      </trkpt>
      <trkpt lat="43.58424" lon="5.05949">
        <ele>91</ele>
        <time>2019-12-16T14:05:10Z</time>
      </trkpt>
      <trkpt lat="43.58423" lon="5.05949">
        <ele>91</ele>
        <time>2019-12-16T14:05:11Z</time>
      </trkpt>
      <trkpt lat="43.58422" lon="5.05949">
        <ele>91</ele>
        <time>2019-12-16T14:05:12Z</time>
      </trkpt>
      <trkpt lat="43.58421" lon="5.05949">
        <ele>91</ele>
        <time>2019-12-16T14:05:13Z</time>
      </trkpt>
      <trkpt lat="43.58419" lon="5.05949">
        <ele>91</ele>
        <time>2019-12-16T14:05:14Z</time>
      </trkpt>
      <trkpt lat="43.58418" lon="5.0595">
        <ele>91</ele>
        <time>2019-12-16T14:05:15Z</time>
      </trkpt>
      <trkpt lat="43.58417" lon="5.0595">
        <ele>91</ele>
        <time>2019-12-16T14:05:16Z</time>
      </trkpt>
      <trkpt lat="43.58416" lon="5.0595">
        <ele>90</ele>
        <time>2019-12-16T14:05:17Z</time>
      </trkpt>
      <trkpt lat="43.58415" lon="5.0595">
        <ele>90</ele>
        <time>2019-12-16T14:05:18Z</time>
      </trkpt>
      <trkpt lat="43.58415" lon="5.0595">
        <ele>90</ele>
        <time>2019-12-16T14:05:19Z</time>
      </trkpt>
      <trkpt lat="43.58414" lon="5.0595">
        <ele>90</ele>
        <time>2019-12-16T14:05:20Z</time>
      </trkpt>
      <trkpt lat="43.58414" lon="5.05951">
        <ele>90</ele>
        <time>2019-12-16T14:05:21Z</time>
      </trkpt>
      <trkpt lat="43.58413" lon="5.05951">
        <ele>90</ele>
        <time>2019-12-16T14:05:22Z</time>
      </trkpt>
      <trkpt lat="43.58412" lon="5.05951">
        <ele>90</ele>
        <time>2019-12-16T14:05:23Z</time>
      </trkpt>
      <trkpt lat="43.58411" lon="5.05952">
        <ele>90</ele>
        <time>2019-12-16T14:05:24Z</time>
      </trkpt>
      <trkpt lat="43.58411" lon="5.05952">
        <ele>90</ele>
        <time>2019-12-16T14:05:25Z</time>
      </trkpt>
      <trkpt lat="43.5841" lon="5.05952">
        <ele>90</ele>
        <time>2019-12-16T14:05:26Z</time>
      </trkpt>
      <trkpt lat="43.58409" lon="5.05952">
        <ele>90</ele>
        <time>2019-12-16T14:05:27Z</time>
      </trkpt>
      <trkpt lat="43.58408" lon="5.05952">
        <ele>90</ele>
        <time>2019-12-16T14:05:28Z</time>
      </trkpt>
      <trkpt lat="43.58407" lon="5.05952">
        <ele>90</ele>
        <time>2019-12-16T14:05:29Z</time>
      </trkpt>
      <trkpt lat="43.58406" lon="5.05952">
        <ele>90</ele>
        <time>2019-12-16T14:05:30Z</time>
      </trkpt>
      <trkpt lat="43.58405" lon="5.05952">
        <ele>90</ele>
        <time>2019-12-16T14:05:31Z</time>
      </trkpt>
      <trkpt lat="43.58404" lon="5.05952">
        <ele>90</ele>
        <time>2019-12-16T14:05:32Z</time>
      </trkpt>
      <trkpt lat="43.58403" lon="5.05952">
        <ele>90</ele>
        <time>2019-12-16T14:05:33Z</time>
      </trkpt>
      <trkpt lat="43.58402" lon="5.05952">
        <ele>90</ele>
        <time>2019-12-16T14:05:34Z</time>
      </trkpt>
      <trkpt lat="43.58401" lon="5.05952">
        <ele>90</ele>
        <time>2019-12-16T14:05:35Z</time>
      </trkpt>
      <trkpt lat="43.584" lon="5.05952">
        <ele>90</ele>
        <time>2019-12-16T14:05:36Z</time>
      </trkpt>
      <trkpt lat="43.58398" lon="5.05952">
        <ele>90</ele>
        <time>2019-12-16T14:05:37Z</time>
      </trkpt>
      <trkpt lat="43.58397" lon="5.05952">
        <ele>90</ele>
        <time>2019-12-16T14:05:38Z</time>
      </trkpt>
      <trkpt lat="43.58396" lon="5.05953">
        <ele>90</ele>
        <time>2019-12-16T14:05:39Z</time>
      </trkpt>
      <trkpt lat="43.58395" lon="5.05953">
        <ele>90</ele>
        <time>2019-12-16T14:05:40Z</time>
      </trkpt>
      <trkpt lat="43.58394" lon="5.05953">
        <ele>90</ele>
        <time>2019-12-16T14:05:41Z</time>
      </trkpt>
      <trkpt lat="43.58393" lon="5.05953">
        <ele>90</ele>
        <time>2019-12-16T14:05:42Z</time>
      </trkpt>
      <trkpt lat="43.58392" lon="5.05953">
        <ele>90</ele>
        <time>2019-12-16T14:05:43Z</time>
      </trkpt>
      <trkpt lat="43.58391" lon="5.05953">
        <ele>90</ele>
        <time>2019-12-16T14:05:44Z</time>
      </trkpt>
      <trkpt lat="43.5839" lon="5.05953">
        <ele>90</ele>
        <time>2019-12-16T14:05:45Z</time>
      </trkpt>
      <trkpt lat="43.58389" lon="5.05954">
        <ele>90</ele>
        <time>2019-12-16T14:05:46Z</time>
      </trkpt>
      <trkpt lat="43.58387" lon="5.05954">
        <ele>90</ele>
        <time>2019-12-16T14:05:47Z</time>
      </trkpt>
      <trkpt lat="43.58386" lon="5.05954">
        <ele>90</ele>
        <time>2019-12-16T14:05:48Z</time>
      </trkpt>
      <trkpt lat="43.58385" lon="5.05954">
        <ele>90</ele>
        <time>2019-12-16T14:05:49Z</time>
      </trkpt>
      <trkpt lat="43.58384" lon="5.05954">
        <ele>90</ele>
        <time>2019-12-16T14:05:50Z</time>
      </trkpt>
      <trkpt lat="43.58383" lon="5.05954">
        <ele>90</ele>
        <time>2019-12-16T14:05:51Z</time>
      </trkpt>
      <trkpt lat="43.58382" lon="5.05954">
        <ele>90</ele>
        <time>2019-12-16T14:05:52Z</time>
      </trkpt>
      <trkpt lat="43.58381" lon="5.05954">
        <ele>90</ele>
        <time>2019-12-16T14:05:53Z</time>
      </trkpt>
      <trkpt lat="43.58379" lon="5.05954">
        <ele>89</ele>
        <time>2019-12-16T14:05:54Z</time>
      </trkpt>
      <trkpt lat="43.58378" lon="5.05954">
        <ele>89</ele>
        <time>2019-12-16T14:05:55Z</time>
      </trkpt>
      <trkpt lat="43.58377" lon="5.05954">
        <ele>89</ele>
        <time>2019-12-16T14:05:56Z</time>
      </trkpt>
      <trkpt lat="43.58376" lon="5.05954">
        <ele>89</ele>
        <time>2019-12-16T14:05:57Z</time>
      </trkpt>
      <trkpt lat="43.58375" lon="5.05954">
        <ele>89</ele>
        <time>2019-12-16T14:05:58Z</time>
      </trkpt>
      <trkpt lat="43.58374" lon="5.05953">
        <ele>89</ele>
        <time>2019-12-16T14:05:59Z</time>
      </trkpt>
      <trkpt lat="43.58372" lon="5.05953">
        <ele>89</ele>
        <time>2019-12-16T14:06:00Z</time>
      </trkpt>
      <trkpt lat="43.58371" lon="5.05953">
        <ele>89</ele>
        <time>2019-12-16T14:06:01Z</time>
      </trkpt>
      <trkpt lat="43.5837" lon="5.05953">
        <ele>89</ele>
        <time>2019-12-16T14:06:02Z</time>
      </trkpt>
      <trkpt lat="43.58369" lon="5.05953">
        <ele>89</ele>
        <time>2019-12-16T14:06:03Z</time>
      </trkpt>
      <trkpt lat="43.58368" lon="5.05953">
        <ele>89</ele>
        <time>2019-12-16T14:06:04Z</time>
      </trkpt>
      <trkpt lat="43.58367" lon="5.05953">
        <ele>89</ele>
        <time>2019-12-16T14:06:05Z</time>
      </trkpt>
      <trkpt lat="43.58366" lon="5.05953">
        <ele>89</ele>
        <time>2019-12-16T14:06:06Z</time>
      </trkpt>
      <trkpt lat="43.58365" lon="5.05953">
        <ele>89</ele>
        <time>2019-12-16T14:06:07Z</time>
      </trkpt>
      <trkpt lat="43.58364" lon="5.05953">
        <ele>89</ele>
        <time>2019-12-16T14:06:08Z</time>
      </trkpt>
      <trkpt lat="43.58363" lon="5.05954">
        <ele>89</ele>
        <time>2019-12-16T14:06:09Z</time>
      </trkpt>
      <trkpt lat="43.58362" lon="5.05954">
        <ele>89</ele>
        <time>2019-12-16T14:06:10Z</time>
      </trkpt>
      <trkpt lat="43.58361" lon="5.05954">
        <ele>89</ele>
        <time>2019-12-16T14:06:11Z</time>
      </trkpt>
      <trkpt lat="43.5836" lon="5.05955">
        <ele>89</ele>
        <time>2019-12-16T14:06:12Z</time>
      </trkpt>
      <trkpt lat="43.58359" lon="5.05955">
        <ele>89</ele>
        <time>2019-12-16T14:06:13Z</time>
      </trkpt>
      <trkpt lat="43.58359" lon="5.05955">
        <ele>89</ele>
        <time>2019-12-16T14:06:14Z</time>
      </trkpt>
      <trkpt lat="43.58358" lon="5.05956">
        <ele>89</ele>
        <time>2019-12-16T14:06:15Z</time>
      </trkpt>
      <trkpt lat="43.58358" lon="5.05956">
        <ele>89</ele>
        <time>2019-12-16T14:06:16Z</time>
      </trkpt>
      <trkpt lat="43.58358" lon="5.05956">
        <ele>89</ele>
        <time>2019-12-16T14:06:17Z</time>
      </trkpt>
      <trkpt lat="43.58358" lon="5.05956">
        <ele>89</ele>
        <time>2019-12-16T14:06:18Z</time>
      </trkpt>
      <trkpt lat="43.58358" lon="5.05957">
        <ele>89</ele>
        <time>2019-12-16T14:06:19Z</time>
      </trkpt>
      <trkpt lat="43.58358" lon="5.05957">
        <ele>89</ele>
        <time>2019-12-16T14:06:20Z</time>
      </trkpt>
      <trkpt lat="43.58358" lon="5.05957">
        <ele>89</ele>
        <time>2019-12-16T14:06:21Z</time>
      </trkpt>
      <trkpt lat="43.58358" lon="5.05957">
        <ele>89</ele>
        <time>2019-12-16T14:06:22Z</time>
      </trkpt>
      <trkpt lat="43.58358" lon="5.05957">
        <ele>89</ele>
        <time>2019-12-16T14:06:23Z</time>
      </trkpt>
      <trkpt lat="43.58358" lon="5.05957">
        <ele>89</ele>
        <time>2019-12-16T14:06:24Z</time>
      </trkpt>
      <trkpt lat="43.58358" lon="5.05957">
        <ele>89</ele>
        <time>2019-12-16T14:06:25Z</time>
      </trkpt>
      <trkpt lat="43.58358" lon="5.05957">
        <ele>89</ele>
        <time>2019-12-16T14:06:26Z</time>
      </trkpt>
      <trkpt lat="43.58358" lon="5.05956">
        <ele>89</ele>
        <time>2019-12-16T14:06:27Z</time>
      </trkpt>
      <trkpt lat="43.58358" lon="5.05956">
        <ele>89</ele>
        <time>2019-12-16T14:06:28Z</time>
      </trkpt>
      <trkpt lat="43.58357" lon="5.05956">
        <ele>89</ele>
        <time>2019-12-16T14:06:29Z</time>
      </trkpt>
      <trkpt lat="43.58357" lon="5.05956">
        <ele>89</ele>
        <time>2019-12-16T14:06:30Z</time>
      </trkpt>
      <trkpt lat="43.58356" lon="5.05956">
        <ele>89</ele>
        <time>2019-12-16T14:06:31Z</time>
      </trkpt>
      <trkpt lat="43.58356" lon="5.05957">
        <ele>89</ele>
        <time>2019-12-16T14:06:32Z</time>
      </trkpt>
      <trkpt lat="43.58355" lon="5.05957">
        <ele>89</ele>
        <time>2019-12-16T14:06:33Z</time>
      </trkpt>
      <trkpt lat="43.58354" lon="5.05958">
        <ele>89</ele>
        <time>2019-12-16T14:06:34Z</time>
      </trkpt>
      <trkpt lat="43.58353" lon="5.05959">
        <ele>89</ele>
        <time>2019-12-16T14:06:35Z</time>
      </trkpt>
      <trkpt lat="43.58352" lon="5.0596">
        <ele>89</ele>
        <time>2019-12-16T14:06:36Z</time>
      </trkpt>
      <trkpt lat="43.58351" lon="5.05961">
        <ele>89</ele>
        <time>2019-12-16T14:06:37Z</time>
      </trkpt>
      <trkpt lat="43.5835" lon="5.05961">
        <ele>89</ele>
        <time>2019-12-16T14:06:38Z</time>
      </trkpt>
      <trkpt lat="43.58349" lon="5.05962">
        <ele>89</ele>
        <time>2019-12-16T14:06:39Z</time>
      </trkpt>
      <trkpt lat="43.58347" lon="5.05963">
        <ele>89</ele>
        <time>2019-12-16T14:06:40Z</time>
      </trkpt>
      <trkpt lat="43.58346" lon="5.05963">
        <ele>89</ele>
        <time>2019-12-16T14:06:41Z</time>
      </trkpt>
      <trkpt lat="43.58345" lon="5.05964">
        <ele>89</ele>
        <time>2019-12-16T14:06:42Z</time>
      </trkpt>
      <trkpt lat="43.58344" lon="5.05964">
        <ele>89</ele>
        <time>2019-12-16T14:06:43Z</time>
      </trkpt>
      <trkpt lat="43.58343" lon="5.05965">
        <ele>89</ele>
        <time>2019-12-16T14:06:44Z</time>
      </trkpt>
      <trkpt lat="43.58342" lon="5.05965">
        <ele>89</ele>
        <time>2019-12-16T14:06:45Z</time>
      </trkpt>
      <trkpt lat="43.5834" lon="5.05965">
        <ele>89</ele>
        <time>2019-12-16T14:06:46Z</time>
      </trkpt>
      <trkpt lat="43.58339" lon="5.05966">
        <ele>89</ele>
        <time>2019-12-16T14:06:47Z</time>
      </trkpt>
      <trkpt lat="43.58338" lon="5.05966">
        <ele>89</ele>
        <time>2019-12-16T14:06:48Z</time>
      </trkpt>
      <trkpt lat="43.58337" lon="5.05966">
        <ele>89</ele>
        <time>2019-12-16T14:06:49Z</time>
      </trkpt>
      <trkpt lat="43.58336" lon="5.05967">
        <ele>89</ele>
        <time>2019-12-16T14:06:50Z</time>
      </trkpt>
      <trkpt lat="43.58334" lon="5.05967">
        <ele>89</ele>
        <time>2019-12-16T14:06:51Z</time>
      </trkpt>
      <trkpt lat="43.58333" lon="5.05967">
        <ele>86</ele>
        <time>2019-12-16T14:06:52Z</time>
      </trkpt>
      <trkpt lat="43.58332" lon="5.05967">
        <ele>86</ele>
        <time>2019-12-16T14:06:53Z</time>
      </trkpt>
      <trkpt lat="43.58331" lon="5.05968">
        <ele>86</ele>
        <time>2019-12-16T14:06:54Z</time>
      </trkpt>
      <trkpt lat="43.58329" lon="5.05968">
        <ele>86</ele>
        <time>2019-12-16T14:06:55Z</time>
      </trkpt>
      <trkpt lat="43.58328" lon="5.05968">
        <ele>86</ele>
        <time>2019-12-16T14:06:56Z</time>
      </trkpt>
      <trkpt lat="43.58327" lon="5.05968">
        <ele>86</ele>
        <time>2019-12-16T14:06:57Z</time>
      </trkpt>
      <trkpt lat="43.58326" lon="5.05968">
        <ele>86</ele>
        <time>2019-12-16T14:06:58Z</time>
      </trkpt>
      <trkpt lat="43.58325" lon="5.05968">
        <ele>86</ele>
        <time>2019-12-16T14:06:59Z</time>
      </trkpt>
      <trkpt lat="43.58323" lon="5.05968">
        <ele>86</ele>
        <time>2019-12-16T14:07:00Z</time>
      </trkpt>
      <trkpt lat="43.58322" lon="5.05969">
        <ele>86</ele>
        <time>2019-12-16T14:07:01Z</time>
      </trkpt>
      <trkpt lat="43.58321" lon="5.05969">
        <ele>86</ele>
        <time>2019-12-16T14:07:02Z</time>
      </trkpt>
      <trkpt lat="43.5832" lon="5.05969">
        <ele>86</ele>
        <time>2019-12-16T14:07:03Z</time>
      </trkpt>
      <trkpt lat="43.58319" lon="5.05969">
        <ele>86</ele>
        <time>2019-12-16T14:07:04Z</time>
      </trkpt>
      <trkpt lat="43.58318" lon="5.0597">
        <ele>86</ele>
        <time>2019-12-16T14:07:05Z</time>
      </trkpt>
      <trkpt lat="43.58317" lon="5.0597">
        <ele>86</ele>
        <time>2019-12-16T14:07:06Z</time>
      </trkpt>
      <trkpt lat="43.58315" lon="5.0597">
        <ele>86</ele>
        <time>2019-12-16T14:07:07Z</time>
      </trkpt>
      <trkpt lat="43.58314" lon="5.05971">
        <ele>86</ele>
        <time>2019-12-16T14:07:08Z</time>
      </trkpt>
      <trkpt lat="43.58313" lon="5.05971">
        <ele>86</ele>
        <time>2019-12-16T14:07:09Z</time>
      </trkpt>
      <trkpt lat="43.58312" lon="5.05972">
        <ele>86</ele>
        <time>2019-12-16T14:07:10Z</time>
      </trkpt>
      <trkpt lat="43.58311" lon="5.05973">
        <ele>86</ele>
        <time>2019-12-16T14:07:11Z</time>
      </trkpt>
      <trkpt lat="43.5831" lon="5.05974">
        <ele>86</ele>
        <time>2019-12-16T14:07:12Z</time>
      </trkpt>
      <trkpt lat="43.58309" lon="5.05974">
        <ele>86</ele>
        <time>2019-12-16T14:07:13Z</time>
      </trkpt>
      <trkpt lat="43.58308" lon="5.05975">
        <ele>86</ele>
        <time>2019-12-16T14:07:14Z</time>
      </trkpt>
      <trkpt lat="43.58307" lon="5.05976">
        <ele>86</ele>
        <time>2019-12-16T14:07:15Z</time>
      </trkpt>
      <trkpt lat="43.58306" lon="5.05977">
        <ele>86</ele>
        <time>2019-12-16T14:07:16Z</time>
      </trkpt>
      <trkpt lat="43.58305" lon="5.05977">
        <ele>86</ele>
        <time>2019-12-16T14:07:17Z</time>
      </trkpt>
      <trkpt lat="43.58304" lon="5.05978">
        <ele>86</ele>
        <time>2019-12-16T14:07:18Z</time>
      </trkpt>
      <trkpt lat="43.58303" lon="5.05979">
        <ele>86</ele>
        <time>2019-12-16T14:07:19Z</time>
      </trkpt>
      <trkpt lat="43.58303" lon="5.0598">
        <ele>86</ele>
        <time>2019-12-16T14:07:20Z</time>
      </trkpt>
      <trkpt lat="43.58302" lon="5.05981">
        <ele>86</ele>
        <time>2019-12-16T14:07:21Z</time>
      </trkpt>
      <trkpt lat="43.58301" lon="5.05982">
        <ele>86</ele>
        <time>2019-12-16T14:07:22Z</time>
      </trkpt>
      <trkpt lat="43.583" lon="5.05983">
        <ele>86</ele>
        <time>2019-12-16T14:07:23Z</time>
      </trkpt>
      <trkpt lat="43.583" lon="5.05983">
        <ele>86</ele>
        <time>2019-12-16T14:07:24Z</time>
      </trkpt>
      <trkpt lat="43.58299" lon="5.05984">
        <ele>86</ele>
        <time>2019-12-16T14:07:25Z</time>
      </trkpt>
      <trkpt lat="43.58298" lon="5.05985">
        <ele>86</ele>
        <time>2019-12-16T14:07:26Z</time>
      </trkpt>
      <trkpt lat="43.58297" lon="5.05986">
        <ele>86</ele>
        <time>2019-12-16T14:07:27Z</time>
      </trkpt>
      <trkpt lat="43.58297" lon="5.05987">
        <ele>86</ele>
        <time>2019-12-16T14:07:28Z</time>
      </trkpt>
      <trkpt lat="43.58296" lon="5.05988">
        <ele>86</ele>
        <time>2019-12-16T14:07:29Z</time>
      </trkpt>
      <trkpt lat="43.58295" lon="5.05988">
        <ele>86</ele>
        <time>2019-12-16T14:07:30Z</time>
      </trkpt>
      <trkpt lat="43.58294" lon="5.05989">
        <ele>86</ele>
        <time>2019-12-16T14:07:31Z</time>
      </trkpt>
      <trkpt lat="43.58294" lon="5.0599">
        <ele>86</ele>
        <time>2019-12-16T14:07:32Z</time>
      </trkpt>
      <trkpt lat="43.58293" lon="5.05991">
        <ele>86</ele>
        <time>2019-12-16T14:07:33Z</time>
      </trkpt>
      <trkpt lat="43.58292" lon="5.05992">
        <ele>86</ele>
        <time>2019-12-16T14:07:34Z</time>
      </trkpt>
      <trkpt lat="43.58291" lon="5.05993">
        <ele>86</ele>
        <time>2019-12-16T14:07:35Z</time>
      </trkpt>
      <trkpt lat="43.5829" lon="5.05994">
        <ele>86</ele>
        <time>2019-12-16T14:07:36Z</time>
      </trkpt>
      <trkpt lat="43.58289" lon="5.05995">
        <ele>86</ele>
        <time>2019-12-16T14:07:37Z</time>
      </trkpt>
      <trkpt lat="43.58288" lon="5.05996">
        <ele>86</ele>
        <time>2019-12-16T14:07:38Z</time>
      </trkpt>
      <trkpt lat="43.58287" lon="5.05997">
        <ele>86</ele>
        <time>2019-12-16T14:07:39Z</time>
      </trkpt>
      <trkpt lat="43.58286" lon="5.05998">
        <ele>86</ele>
        <time>2019-12-16T14:07:40Z</time>
      </trkpt>
      <trkpt lat="43.58284" lon="5.05998">
        <ele>86</ele>
        <time>2019-12-16T14:07:41Z</time>
      </trkpt>
      <trkpt lat="43.58284" lon="5.05999">
        <ele>86</ele>
        <time>2019-12-16T14:07:42Z</time>
      </trkpt>
      <trkpt lat="43.58283" lon="5.06">
        <ele>91</ele>
        <time>2019-12-16T14:07:43Z</time>
      </trkpt>
      <trkpt lat="43.58282" lon="5.06001">
        <ele>91</ele>
        <time>2019-12-16T14:07:44Z</time>
      </trkpt>
      <trkpt lat="43.58281" lon="5.06002">
        <ele>91</ele>
        <time>2019-12-16T14:07:45Z</time>
      </trkpt>
      <trkpt lat="43.5828" lon="5.06003">
        <ele>91</ele>
        <time>2019-12-16T14:07:46Z</time>
      </trkpt>
      <trkpt lat="43.58279" lon="5.06004">
        <ele>91</ele>
        <time>2019-12-16T14:07:47Z</time>
      </trkpt>
      <trkpt lat="43.58278" lon="5.06005">
        <ele>91</ele>
        <time>2019-12-16T14:07:48Z</time>
      </trkpt>
      <trkpt lat="43.58278" lon="5.06006">
        <ele>91</ele>
        <time>2019-12-16T14:07:49Z</time>
      </trkpt>
      <trkpt lat="43.58277" lon="5.06007">
        <ele>91</ele>
        <time>2019-12-16T14:07:50Z</time>
      </trkpt>
      <trkpt lat="43.58276" lon="5.06009">
        <ele>91</ele>
        <time>2019-12-16T14:07:51Z</time>
      </trkpt>
      <trkpt lat="43.58275" lon="5.0601">
        <ele>91</ele>
        <time>2019-12-16T14:07:52Z</time>
      </trkpt>
      <trkpt lat="43.58275" lon="5.06011">
        <ele>91</ele>
        <time>2019-12-16T14:07:53Z</time>
      </trkpt>
      <trkpt lat="43.58274" lon="5.06012">
        <ele>91</ele>
        <time>2019-12-16T14:07:54Z</time>
      </trkpt>
      <trkpt lat="43.58273" lon="5.06014">
        <ele>91</ele>
        <time>2019-12-16T14:07:55Z</time>
      </trkpt>
      <trkpt lat="43.58272" lon="5.06015">
        <ele>91</ele>
        <time>2019-12-16T14:07:56Z</time>
      </trkpt>
      <trkpt lat="43.58272" lon="5.06017">
        <ele>91</ele>
        <time>2019-12-16T14:07:57Z</time>
      </trkpt>
      <trkpt lat="43.58271" lon="5.06018">
        <ele>91</ele>
        <time>2019-12-16T14:07:58Z</time>
      </trkpt>
      <trkpt lat="43.5827" lon="5.06019">
        <ele>91</ele>
        <time>2019-12-16T14:07:59Z</time>
      </trkpt>
      <trkpt lat="43.5827" lon="5.0602">
        <ele>91</ele>
        <time>2019-12-16T14:08:00Z</time>
      </trkpt>
      <trkpt lat="43.58269" lon="5.06022">
        <ele>91</ele>
        <time>2019-12-16T14:08:01Z</time>
      </trkpt>
      <trkpt lat="43.58268" lon="5.06023">
        <ele>91</ele>
        <time>2019-12-16T14:08:02Z</time>
      </trkpt>
      <trkpt lat="43.58268" lon="5.06025">
        <ele>91</ele>
        <time>2019-12-16T14:08:03Z</time>
      </trkpt>
      <trkpt lat="43.58267" lon="5.06026">
        <ele>91</ele>
        <time>2019-12-16T14:08:04Z</time>
      </trkpt>
      <trkpt lat="43.58267" lon="5.06027">
        <ele>91</ele>
        <time>2019-12-16T14:08:05Z</time>
      </trkpt>
      <trkpt lat="43.58266" lon="5.06029">
        <ele>92</ele>
        <time>2019-12-16T14:08:06Z</time>
      </trkpt>
      <trkpt lat="43.58266" lon="5.0603">
        <ele>92</ele>
        <time>2019-12-16T14:08:07Z</time>
      </trkpt>
      <trkpt lat="43.58265" lon="5.06032">
        <ele>92</ele>
        <time>2019-12-16T14:08:08Z</time>
      </trkpt>
      <trkpt lat="43.58265" lon="5.06033">
        <ele>92</ele>
        <time>2019-12-16T14:08:09Z</time>
      </trkpt>
      <trkpt lat="43.58264" lon="5.06034">
        <ele>92</ele>
        <time>2019-12-16T14:08:10Z</time>
      </trkpt>
      <trkpt lat="43.58264" lon="5.06036">
        <ele>92</ele>
        <time>2019-12-16T14:08:11Z</time>
      </trkpt>
      <trkpt lat="43.58264" lon="5.06037">
        <ele>92</ele>
        <time>2019-12-16T14:08:12Z</time>
      </trkpt>
      <trkpt lat="43.58264" lon="5.06039">
        <ele>92</ele>
        <time>2019-12-16T14:08:13Z</time>
      </trkpt>
      <trkpt lat="43.58263" lon="5.06041">
        <ele>93</ele>
        <time>2019-12-16T14:08:14Z</time>
      </trkpt>
      <trkpt lat="43.58263" lon="5.06043">
        <ele>93</ele>
        <time>2019-12-16T14:08:15Z</time>
      </trkpt>
      <trkpt lat="43.58263" lon="5.06044">
        <ele>93</ele>
        <time>2019-12-16T14:08:16Z</time>
      </trkpt>
      <trkpt lat="43.58262" lon="5.06046">
        <ele>93</ele>
        <time>2019-12-16T14:08:17Z</time>
      </trkpt>
      <trkpt lat="43.58262" lon="5.06049">
        <ele>93</ele>
        <time>2019-12-16T14:08:18Z</time>
      </trkpt>
      <trkpt lat="43.58262" lon="5.06051">
        <ele>93</ele>
        <time>2019-12-16T14:08:19Z</time>
      </trkpt>
      <trkpt lat="43.58262" lon="5.06053">
        <ele>93</ele>
        <time>2019-12-16T14:08:20Z</time>
      </trkpt>
      <trkpt lat="43.58262" lon="5.06055">
        <ele>94</ele>
        <time>2019-12-16T14:08:21Z</time>
      </trkpt>
      <trkpt lat="43.58262" lon="5.06057">
        <ele>94</ele>
        <time>2019-12-16T14:08:22Z</time>
      </trkpt>
      <trkpt lat="43.58263" lon="5.06059">
        <ele>94</ele>
        <time>2019-12-16T14:08:23Z</time>
      </trkpt>
      <trkpt lat="43.58263" lon="5.0606">
        <ele>94</ele>
        <time>2019-12-16T14:08:24Z</time>
      </trkpt>
      <trkpt lat="43.58263" lon="5.06062">
        <ele>94</ele>
        <time>2019-12-16T14:08:25Z</time>
      </trkpt>
      <trkpt lat="43.58264" lon="5.06063">
        <ele>94</ele>
        <time>2019-12-16T14:08:26Z</time>
      </trkpt>
      <trkpt lat="43.58264" lon="5.06065">
        <ele>94</ele>
        <time>2019-12-16T14:08:27Z</time>
      </trkpt>
      <trkpt lat="43.58264" lon="5.06066">
        <ele>94</ele>
        <time>2019-12-16T14:08:28Z</time>
      </trkpt>
      <trkpt lat="43.58263" lon="5.06067">
        <ele>94</ele>
        <time>2019-12-16T14:08:29Z</time>
      </trkpt>
      <trkpt lat="43.58263" lon="5.06068">
        <ele>94</ele>
        <time>2019-12-16T14:08:30Z</time>
      </trkpt>
      <trkpt lat="43.58263" lon="5.06069">
        <ele>95</ele>
        <time>2019-12-16T14:08:31Z</time>
      </trkpt>
      <trkpt lat="43.58262" lon="5.06071">
        <ele>95</ele>
        <time>2019-12-16T14:08:32Z</time>
      </trkpt>
      <trkpt lat="43.58262" lon="5.06072">
        <ele>95</ele>
        <time>2019-12-16T14:08:33Z</time>
      </trkpt>
      <trkpt lat="43.58262" lon="5.06073">
        <ele>95</ele>
        <time>2019-12-16T14:08:34Z</time>
      </trkpt>
      <trkpt lat="43.58261" lon="5.06075">
        <ele>95</ele>
        <time>2019-12-16T14:08:35Z</time>
      </trkpt>
      <trkpt lat="43.58261" lon="5.06076">
        <ele>95</ele>
        <time>2019-12-16T14:08:36Z</time>
      </trkpt>
      <trkpt lat="43.58261" lon="5.06078">
        <ele>95</ele>
        <time>2019-12-16T14:08:37Z</time>
      </trkpt>
      <trkpt lat="43.58261" lon="5.06079">
        <ele>95</ele>
        <time>2019-12-16T14:08:38Z</time>
      </trkpt>
      <trkpt lat="43.5826" lon="5.0608">
        <ele>95</ele>
        <time>2019-12-16T14:08:39Z</time>
      </trkpt>
      <trkpt lat="43.5826" lon="5.06082">
        <ele>95</ele>
        <time>2019-12-16T14:08:40Z</time>
      </trkpt>
      <trkpt lat="43.58259" lon="5.06083">
        <ele>95</ele>
        <time>2019-12-16T14:08:41Z</time>
      </trkpt>
      <trkpt lat="43.58259" lon="5.06085">
        <ele>97</ele>
        <time>2019-12-16T14:08:42Z</time>
      </trkpt>
      <trkpt lat="43.58259" lon="5.06086">
        <ele>97</ele>
        <time>2019-12-16T14:08:43Z</time>
      </trkpt>
      <trkpt lat="43.58258" lon="5.06088">
        <ele>97</ele>
        <time>2019-12-16T14:08:44Z</time>
      </trkpt>
      <trkpt lat="43.58258" lon="5.06089">
        <ele>97</ele>
        <time>2019-12-16T14:08:45Z</time>
      </trkpt>
      <trkpt lat="43.58257" lon="5.06091">
        <ele>97</ele>
        <time>2019-12-16T14:08:46Z</time>
      </trkpt>
      <trkpt lat="43.58257" lon="5.06092">
        <ele>98</ele>
        <time>2019-12-16T14:08:47Z</time>
      </trkpt>
      <trkpt lat="43.58256" lon="5.06093">
        <ele>98</ele>
        <time>2019-12-16T14:08:48Z</time>
      </trkpt>
      <trkpt lat="43.58255" lon="5.06095">
        <ele>98</ele>
        <time>2019-12-16T14:08:49Z</time>
      </trkpt>
      <trkpt lat="43.58255" lon="5.06096">
        <ele>98</ele>
        <time>2019-12-16T14:08:50Z</time>
      </trkpt>
      <trkpt lat="43.58254" lon="5.06098">
        <ele>98</ele>
        <time>2019-12-16T14:08:51Z</time>
      </trkpt>
      <trkpt lat="43.58253" lon="5.06099">
        <ele>98</ele>
        <time>2019-12-16T14:08:52Z</time>
      </trkpt>
      <trkpt lat="43.58252" lon="5.061">
        <ele>98</ele>
        <time>2019-12-16T14:08:53Z</time>
      </trkpt>
      <trkpt lat="43.58252" lon="5.06102">
        <ele>98</ele>
        <time>2019-12-16T14:08:54Z</time>
      </trkpt>
      <trkpt lat="43.58251" lon="5.06103">
        <ele>98</ele>
        <time>2019-12-16T14:08:55Z</time>
      </trkpt>
      <trkpt lat="43.5825" lon="5.06105">
        <ele>98</ele>
        <time>2019-12-16T14:08:56Z</time>
      </trkpt>
      <trkpt lat="43.58249" lon="5.06106">
        <ele>98</ele>
        <time>2019-12-16T14:08:57Z</time>
      </trkpt>
      <trkpt lat="43.58248" lon="5.06107">
        <ele>98</ele>
        <time>2019-12-16T14:08:58Z</time>
      </trkpt>
      <trkpt lat="43.58247" lon="5.06108">
        <ele>98</ele>
        <time>2019-12-16T14:08:59Z</time>
      </trkpt>
      <trkpt lat="43.58246" lon="5.0611">
        <ele>98</ele>
        <time>2019-12-16T14:09:00Z</time>
      </trkpt>
      <trkpt lat="43.58245" lon="5.06111">
        <ele>98</ele>
        <time>2019-12-16T14:09:01Z</time>
      </trkpt>
      <trkpt lat="43.58244" lon="5.06112">
        <ele>98</ele>
        <time>2019-12-16T14:09:02Z</time>
      </trkpt>
      <trkpt lat="43.58242" lon="5.06113">
        <ele>98</ele>
        <time>2019-12-16T14:09:03Z</time>
      </trkpt>
      <trkpt lat="43.58241" lon="5.06114">
        <ele>98</ele>
        <time>2019-12-16T14:09:04Z</time>
      </trkpt>
      <trkpt lat="43.5824" lon="5.06115">
        <ele>98</ele>
        <time>2019-12-16T14:09:05Z</time>
      </trkpt>
      <trkpt lat="43.58239" lon="5.06116">
        <ele>98</ele>
        <time>2019-12-16T14:09:06Z</time>
      </trkpt>
      <trkpt lat="43.58238" lon="5.06117">
        <ele>98</ele>
        <time>2019-12-16T14:09:07Z</time>
      </trkpt>
      <trkpt lat="43.58237" lon="5.06118">
        <ele>98</ele>
        <time>2019-12-16T14:09:08Z</time>
      </trkpt>
      <trkpt lat="43.58236" lon="5.06119">
        <ele>98</ele>
        <time>2019-12-16T14:09:09Z</time>
      </trkpt>
      <trkpt lat="43.58235" lon="5.0612">
        <ele>99</ele>
        <time>2019-12-16T14:09:10Z</time>
      </trkpt>
      <trkpt lat="43.58234" lon="5.06121">
        <ele>99</ele>
        <time>2019-12-16T14:09:11Z</time>
      </trkpt>
      <trkpt lat="43.58233" lon="5.06122">
        <ele>99</ele>
        <time>2019-12-16T14:09:12Z</time>
      </trkpt>
      <trkpt lat="43.58232" lon="5.06123">
        <ele>99</ele>
        <time>2019-12-16T14:09:13Z</time>
      </trkpt>
      <trkpt lat="43.58231" lon="5.06124">
        <ele>99</ele>
        <time>2019-12-16T14:09:14Z</time>
      </trkpt>
      <trkpt lat="43.5823" lon="5.06125">
        <ele>99</ele>
        <time>2019-12-16T14:09:15Z</time>
      </trkpt>
      <trkpt lat="43.58229" lon="5.06125">
        <ele>99</ele>
        <time>2019-12-16T14:09:16Z</time>
      </trkpt>
      <trkpt lat="43.58228" lon="5.06126">
        <ele>99</ele>
        <time>2019-12-16T14:09:17Z</time>
      </trkpt>
      <trkpt lat="43.58227" lon="5.06127">
        <ele>99</ele>
        <time>2019-12-16T14:09:18Z</time>
      </trkpt>
      <trkpt lat="43.58226" lon="5.06128">
        <ele>99</ele>
        <time>2019-12-16T14:09:19Z</time>
      </trkpt>
      <trkpt lat="43.58225" lon="5.06129">
        <ele>99</ele>
        <time>2019-12-16T14:09:20Z</time>
      </trkpt>
      <trkpt lat="43.58224" lon="5.0613">
        <ele>99</ele>
        <time>2019-12-16T14:09:21Z</time>
      </trkpt>
      <trkpt lat="43.58223" lon="5.06131">
        <ele>99</ele>
        <time>2019-12-16T14:09:22Z</time>
      </trkpt>
      <trkpt lat="43.58222" lon="5.06132">
        <ele>99</ele>
        <time>2019-12-16T14:09:23Z</time>
      </trkpt>
      <trkpt lat="43.58221" lon="5.06132">
        <ele>99</ele>
        <time>2019-12-16T14:09:24Z</time>
      </trkpt>
      <trkpt lat="43.5822" lon="5.06133">
        <ele>99</ele>
        <time>2019-12-16T14:09:25Z</time>
      </trkpt>
      <trkpt lat="43.58219" lon="5.06134">
        <ele>99</ele>
        <time>2019-12-16T14:09:26Z</time>
      </trkpt>
      <trkpt lat="43.58218" lon="5.06135">
        <ele>99</ele>
        <time>2019-12-16T14:09:27Z</time>
      </trkpt>
      <trkpt lat="43.58217" lon="5.06136">
        <ele>99</ele>
        <time>2019-12-16T14:09:28Z</time>
      </trkpt>
      <trkpt lat="43.58216" lon="5.06137">
        <ele>99</ele>
        <time>2019-12-16T14:09:29Z</time>
      </trkpt>
      <trkpt lat="43.58215" lon="5.06138">
        <ele>99</ele>
        <time>2019-12-16T14:09:30Z</time>
      </trkpt>
      <trkpt lat="43.58214" lon="5.06139">
        <ele>99</ele>
        <time>2019-12-16T14:09:31Z</time>
      </trkpt>
      <trkpt lat="43.58213" lon="5.0614">
        <ele>99</ele>
        <time>2019-12-16T14:09:32Z</time>
      </trkpt>
      <trkpt lat="43.58212" lon="5.06141">
        <ele>99</ele>
        <time>2019-12-16T14:09:33Z</time>
      </trkpt>
      <trkpt lat="43.58211" lon="5.06142">
        <ele>99</ele>
        <time>2019-12-16T14:09:34Z</time>
      </trkpt>
      <trkpt lat="43.5821" lon="5.06143">
        <ele>99</ele>
        <time>2019-12-16T14:09:35Z</time>
      </trkpt>
      <trkpt lat="43.58209" lon="5.06144">
        <ele>99</ele>
        <time>2019-12-16T14:09:36Z</time>
      </trkpt>
      <trkpt lat="43.58208" lon="5.06145">
        <ele>99</ele>
        <time>2019-12-16T14:09:37Z</time>
      </trkpt>
      <trkpt lat="43.58207" lon="5.06146">
        <ele>99</ele>
        <time>2019-12-16T14:09:38Z</time>
      </trkpt>
      <trkpt lat="43.58206" lon="5.06147">
        <ele>99</ele>
        <time>2019-12-16T14:09:39Z</time>
      </trkpt>
      <trkpt lat="43.58205" lon="5.06148">
        <ele>99</ele>
        <time>2019-12-16T14:09:40Z</time>
      </trkpt>
      <trkpt lat="43.58204" lon="5.06149">
        <ele>99</ele>
        <time>2019-12-16T14:09:41Z</time>
      </trkpt>
      <trkpt lat="43.58204" lon="5.0615">
        <ele>99</ele>
        <time>2019-12-16T14:09:42Z</time>
      </trkpt>
      <trkpt lat="43.58203" lon="5.06151">
        <ele>99</ele>
        <time>2019-12-16T14:09:43Z</time>
      </trkpt>
      <trkpt lat="43.58202" lon="5.06152">
        <ele>99</ele>
        <time>2019-12-16T14:09:44Z</time>
      </trkpt>
      <trkpt lat="43.58201" lon="5.06153">
        <ele>99</ele>
        <time>2019-12-16T14:09:45Z</time>
      </trkpt>
      <trkpt lat="43.58201" lon="5.06154">
        <ele>100</ele>
        <time>2019-12-16T14:09:46Z</time>
      </trkpt>
      <trkpt lat="43.582" lon="5.06156">
        <ele>100</ele>
        <time>2019-12-16T14:09:47Z</time>
      </trkpt>
      <trkpt lat="43.58199" lon="5.06157">
        <ele>100</ele>
        <time>2019-12-16T14:09:48Z</time>
      </trkpt>
      <trkpt lat="43.58199" lon="5.06158">
        <ele>100</ele>
        <time>2019-12-16T14:09:49Z</time>
      </trkpt>
      <trkpt lat="43.58198" lon="5.0616">
        <ele>100</ele>
        <time>2019-12-16T14:09:50Z</time>
      </trkpt>
      <trkpt lat="43.58197" lon="5.06161">
        <ele>100</ele>
        <time>2019-12-16T14:09:51Z</time>
      </trkpt>
      <trkpt lat="43.58197" lon="5.06162">
        <ele>100</ele>
        <time>2019-12-16T14:09:52Z</time>
      </trkpt>
      <trkpt lat="43.58196" lon="5.06164">
        <ele>100</ele>
        <time>2019-12-16T14:09:53Z</time>
      </trkpt>
      <trkpt lat="43.58196" lon="5.06165">
        <ele>100</ele>
        <time>2019-12-16T14:09:54Z</time>
      </trkpt>
      <trkpt lat="43.58195" lon="5.06167">
        <ele>102</ele>
        <time>2019-12-16T14:09:55Z</time>
      </trkpt>
      <trkpt lat="43.58194" lon="5.06168">
        <ele>102</ele>
        <time>2019-12-16T14:09:56Z</time>
      </trkpt>
      <trkpt lat="43.58194" lon="5.06169">
        <ele>102</ele>
        <time>2019-12-16T14:09:57Z</time>
      </trkpt>
      <trkpt lat="43.58193" lon="5.06171">
        <ele>102</ele>
        <time>2019-12-16T14:09:58Z</time>
      </trkpt>
      <trkpt lat="43.58192" lon="5.06172">
        <ele>102</ele>
        <time>2019-12-16T14:09:59Z</time>
      </trkpt>
      <trkpt lat="43.58191" lon="5.06173">
        <ele>102</ele>
        <time>2019-12-16T14:10:00Z</time>
      </trkpt>
      <trkpt lat="43.5819" lon="5.06174">
        <ele>102</ele>
        <time>2019-12-16T14:10:01Z</time>
      </trkpt>
      <trkpt lat="43.5819" lon="5.06175">
        <ele>102</ele>
        <time>2019-12-16T14:10:02Z</time>
      </trkpt>
      <trkpt lat="43.58189" lon="5.06176">
        <ele>102</ele>
        <time>2019-12-16T14:10:03Z</time>
      </trkpt>
      <trkpt lat="43.58188" lon="5.06177">
        <ele>102</ele>
        <time>2019-12-16T14:10:04Z</time>
      </trkpt>
      <trkpt lat="43.58187" lon="5.06178">
        <ele>102</ele>
        <time>2019-12-16T14:10:05Z</time>
      </trkpt>
      <trkpt lat="43.58186" lon="5.06179">
        <ele>102</ele>
        <time>2019-12-16T14:10:06Z</time>
      </trkpt>
      <trkpt lat="43.58186" lon="5.0618">
        <ele>102</ele>
        <time>2019-12-16T14:10:07Z</time>
      </trkpt>
      <trkpt lat="43.58185" lon="5.06181">
        <ele>102</ele>
        <time>2019-12-16T14:10:08Z</time>
      </trkpt>
      <trkpt lat="43.58184" lon="5.06181">
        <ele>102</ele>
        <time>2019-12-16T14:10:09Z</time>
      </trkpt>
      <trkpt lat="43.58184" lon="5.06182">
        <ele>102</ele>
        <time>2019-12-16T14:10:10Z</time>
      </trkpt>
      <trkpt lat="43.58183" lon="5.06183">
        <ele>102</ele>
        <time>2019-12-16T14:10:11Z</time>
      </trkpt>
      <trkpt lat="43.58183" lon="5.06183">
        <ele>102</ele>
        <time>2019-12-16T14:10:12Z</time>
      </trkpt>
      <trkpt lat="43.58182" lon="5.06184">
        <ele>102</ele>
        <time>2019-12-16T14:10:13Z</time>
      </trkpt>
      <trkpt lat="43.58181" lon="5.06185">
        <ele>102</ele>
        <time>2019-12-16T14:10:14Z</time>
      </trkpt>
      <trkpt lat="43.5818" lon="5.06185">
        <ele>102</ele>
        <time>2019-12-16T14:10:15Z</time>
      </trkpt>
      <trkpt lat="43.58179" lon="5.06186">
        <ele>102</ele>
        <time>2019-12-16T14:10:16Z</time>
      </trkpt>
      <trkpt lat="43.58178" lon="5.06187">
        <ele>102</ele>
        <time>2019-12-16T14:10:17Z</time>
      </trkpt>
      <trkpt lat="43.58178" lon="5.06187">
        <ele>102</ele>
        <time>2019-12-16T14:10:18Z</time>
      </trkpt>
      <trkpt lat="43.58177" lon="5.06188">
        <ele>102</ele>
        <time>2019-12-16T14:10:19Z</time>
      </trkpt>
      <trkpt lat="43.58176" lon="5.06189">
        <ele>102</ele>
        <time>2019-12-16T14:10:20Z</time>
      </trkpt>
      <trkpt lat="43.58175" lon="5.0619">
        <ele>102</ele>
        <time>2019-12-16T14:10:21Z</time>
      </trkpt>
      <trkpt lat="43.58174" lon="5.06191">
        <ele>102</ele>
        <time>2019-12-16T14:10:22Z</time>
      </trkpt>
      <trkpt lat="43.58173" lon="5.06192">
        <ele>103</ele>
        <time>2019-12-16T14:10:23Z</time>
      </trkpt>
      <trkpt lat="43.58172" lon="5.06193">
        <ele>103</ele>
        <time>2019-12-16T14:10:24Z</time>
      </trkpt>
      <trkpt lat="43.58172" lon="5.06194">
        <ele>103</ele>
        <time>2019-12-16T14:10:25Z</time>
      </trkpt>
      <trkpt lat="43.58171" lon="5.06195">
        <ele>103</ele>
        <time>2019-12-16T14:10:26Z</time>
      </trkpt>
      <trkpt lat="43.5817" lon="5.06197">
        <ele>103</ele>
        <time>2019-12-16T14:10:27Z</time>
      </trkpt>
      <trkpt lat="43.58169" lon="5.06198">
        <ele>103</ele>
        <time>2019-12-16T14:10:28Z</time>
      </trkpt>
      <trkpt lat="43.58169" lon="5.06199">
        <ele>103</ele>
        <time>2019-12-16T14:10:29Z</time>
      </trkpt>
      <trkpt lat="43.58168" lon="5.062">
        <ele>103</ele>
        <time>2019-12-16T14:10:30Z</time>
      </trkpt>
      <trkpt lat="43.58167" lon="5.06202">
        <ele>103</ele>
        <time>2019-12-16T14:10:31Z</time>
      </trkpt>
      <trkpt lat="43.58167" lon="5.06203">
        <ele>103</ele>
        <time>2019-12-16T14:10:32Z</time>
      </trkpt>
      <trkpt lat="43.58166" lon="5.06204">
        <ele>103</ele>
        <time>2019-12-16T14:10:33Z</time>
      </trkpt>
      <trkpt lat="43.58166" lon="5.06206">
        <ele>103</ele>
        <time>2019-12-16T14:10:34Z</time>
      </trkpt>
      <trkpt lat="43.58165" lon="5.06207">
        <ele>103</ele>
        <time>2019-12-16T14:10:35Z</time>
      </trkpt>
      <trkpt lat="43.58165" lon="5.06208">
        <ele>103</ele>
        <time>2019-12-16T14:10:36Z</time>
      </trkpt>
      <trkpt lat="43.58164" lon="5.0621">
        <ele>103</ele>
        <time>2019-12-16T14:10:37Z</time>
      </trkpt>
      <trkpt lat="43.58164" lon="5.06211">
        <ele>103</ele>
        <time>2019-12-16T14:10:38Z</time>
      </trkpt>
      <trkpt lat="43.58163" lon="5.06213">
        <ele>103</ele>
        <time>2019-12-16T14:10:39Z</time>
      </trkpt>
      <trkpt lat="43.58163" lon="5.06214">
        <ele>103</ele>
        <time>2019-12-16T14:10:40Z</time>
      </trkpt>
      <trkpt lat="43.58163" lon="5.06215">
        <ele>103</ele>
        <time>2019-12-16T14:10:41Z</time>
      </trkpt>
      <trkpt lat="43.58162" lon="5.06217">
        <ele>103</ele>
        <time>2019-12-16T14:10:42Z</time>
      </trkpt>
      <trkpt lat="43.58162" lon="5.06218">
        <ele>103</ele>
        <time>2019-12-16T14:10:43Z</time>
      </trkpt>
      <trkpt lat="43.58162" lon="5.0622">
        <ele>103</ele>
        <time>2019-12-16T14:10:44Z</time>
      </trkpt>
      <trkpt lat="43.58162" lon="5.06221">
        <ele>103</ele>
        <time>2019-12-16T14:10:45Z</time>
      </trkpt>
      <trkpt lat="43.58162" lon="5.06222">
        <ele>103</ele>
        <time>2019-12-16T14:10:46Z</time>
      </trkpt>
      <trkpt lat="43.58161" lon="5.06224">
        <ele>103</ele>
        <time>2019-12-16T14:10:47Z</time>
      </trkpt>
      <trkpt lat="43.58161" lon="5.06225">
        <ele>103</ele>
        <time>2019-12-16T14:10:48Z</time>
      </trkpt>
      <trkpt lat="43.58161" lon="5.06227">
        <ele>103</ele>
        <time>2019-12-16T14:10:49Z</time>
      </trkpt>
      <trkpt lat="43.58161" lon="5.06228">
        <ele>103</ele>
        <time>2019-12-16T14:10:50Z</time>
      </trkpt>
      <trkpt lat="43.58161" lon="5.0623">
        <ele>103</ele>
        <time>2019-12-16T14:10:51Z</time>
      </trkpt>
      <trkpt lat="43.5816" lon="5.06231">
        <ele>103</ele>
        <time>2019-12-16T14:10:52Z</time>
      </trkpt>
      <trkpt lat="43.5816" lon="5.06232">
        <ele>103</ele>
        <time>2019-12-16T14:10:53Z</time>
      </trkpt>
      <trkpt lat="43.5816" lon="5.06234">
        <ele>103</ele>
        <time>2019-12-16T14:10:54Z</time>
      </trkpt>
      <trkpt lat="43.5816" lon="5.06236">
        <ele>104</ele>
        <time>2019-12-16T14:10:55Z</time>
      </trkpt>
      <trkpt lat="43.58159" lon="5.06237">
        <ele>104</ele>
        <time>2019-12-16T14:10:56Z</time>
      </trkpt>
      <trkpt lat="43.58159" lon="5.06239">
        <ele>104</ele>
        <time>2019-12-16T14:10:57Z</time>
      </trkpt>
      <trkpt lat="43.58159" lon="5.0624">
        <ele>104</ele>
        <time>2019-12-16T14:10:58Z</time>
      </trkpt>
      <trkpt lat="43.58159" lon="5.06242">
        <ele>104</ele>
        <time>2019-12-16T14:10:59Z</time>
      </trkpt>
      <trkpt lat="43.58158" lon="5.06243">
        <ele>104</ele>
        <time>2019-12-16T14:11:00Z</time>
      </trkpt>
      <trkpt lat="43.58158" lon="5.06245">
        <ele>104</ele>
        <time>2019-12-16T14:11:01Z</time>
      </trkpt>
      <trkpt lat="43.58158" lon="5.06247">
        <ele>104</ele>
        <time>2019-12-16T14:11:02Z</time>
      </trkpt>
      <trkpt lat="43.58157" lon="5.06248">
        <ele>104</ele>
        <time>2019-12-16T14:11:03Z</time>
      </trkpt>
      <trkpt lat="43.58157" lon="5.0625">
        <ele>104</ele>
        <time>2019-12-16T14:11:04Z</time>
      </trkpt>
      <trkpt lat="43.58156" lon="5.06252">
        <ele>104</ele>
        <time>2019-12-16T14:11:05Z</time>
      </trkpt>
      <trkpt lat="43.58156" lon="5.06253">
        <ele>104</ele>
        <time>2019-12-16T14:11:06Z</time>
      </trkpt>
      <trkpt lat="43.58156" lon="5.06255">
        <ele>104</ele>
        <time>2019-12-16T14:11:07Z</time>
      </trkpt>
      <trkpt lat="43.58155" lon="5.06256">
        <ele>104</ele>
        <time>2019-12-16T14:11:08Z</time>
      </trkpt>
      <trkpt lat="43.58155" lon="5.06258">
        <ele>104</ele>
        <time>2019-12-16T14:11:09Z</time>
      </trkpt>
      <trkpt lat="43.58154" lon="5.06259">
        <ele>104</ele>
        <time>2019-12-16T14:11:10Z</time>
      </trkpt>
      <trkpt lat="43.58154" lon="5.0626">
        <ele>104</ele>
        <time>2019-12-16T14:11:11Z</time>
      </trkpt>
      <trkpt lat="43.58153" lon="5.06262">
        <ele>104</ele>
        <time>2019-12-16T14:11:12Z</time>
      </trkpt>
      <trkpt lat="43.58153" lon="5.06263">
        <ele>104</ele>
        <time>2019-12-16T14:11:13Z</time>
      </trkpt>
      <trkpt lat="43.58152" lon="5.06264">
        <ele>104</ele>
        <time>2019-12-16T14:11:14Z</time>
      </trkpt>
      <trkpt lat="43.58152" lon="5.06266">
        <ele>104</ele>
        <time>2019-12-16T14:11:15Z</time>
      </trkpt>
      <trkpt lat="43.58151" lon="5.06267">
        <ele>104</ele>
        <time>2019-12-16T14:11:16Z</time>
      </trkpt>
      <trkpt lat="43.58151" lon="5.06268">
        <ele>104</ele>
        <time>2019-12-16T14:11:17Z</time>
      </trkpt>
      <trkpt lat="43.5815" lon="5.0627">
        <ele>104</ele>
        <time>2019-12-16T14:11:18Z</time>
      </trkpt>
      <trkpt lat="43.5815" lon="5.06271">
        <ele>104</ele>
        <time>2019-12-16T14:11:19Z</time>
      </trkpt>
      <trkpt lat="43.58149" lon="5.06273">
        <ele>104</ele>
        <time>2019-12-16T14:11:20Z</time>
      </trkpt>
      <trkpt lat="43.58149" lon="5.06275">
        <ele>104</ele>
        <time>2019-12-16T14:11:21Z</time>
      </trkpt>
      <trkpt lat="43.58148" lon="5.06276">
        <ele>104</ele>
        <time>2019-12-16T14:11:22Z</time>
      </trkpt>
      <trkpt lat="43.58147" lon="5.06278">
        <ele>104</ele>
        <time>2019-12-16T14:11:23Z</time>
      </trkpt>
      <trkpt lat="43.58147" lon="5.06279">
        <ele>104</ele>
        <time>2019-12-16T14:11:24Z</time>
      </trkpt>
      <trkpt lat="43.58146" lon="5.06281">
        <ele>104</ele>
        <time>2019-12-16T14:11:25Z</time>
      </trkpt>
      <trkpt lat="43.58145" lon="5.06282">
        <ele>105</ele>
        <time>2019-12-16T14:11:26Z</time>
      </trkpt>
      <trkpt lat="43.58145" lon="5.06283">
        <ele>105</ele>
        <time>2019-12-16T14:11:27Z</time>
      </trkpt>
      <trkpt lat="43.58144" lon="5.06284">
        <ele>105</ele>
        <time>2019-12-16T14:11:28Z</time>
      </trkpt>
      <trkpt lat="43.58143" lon="5.06285">
        <ele>105</ele>
        <time>2019-12-16T14:11:29Z</time>
      </trkpt>
      <trkpt lat="43.58143" lon="5.06285">
        <ele>105</ele>
        <time>2019-12-16T14:11:30Z</time>
      </trkpt>
      <trkpt lat="43.58142" lon="5.06286">
        <ele>105</ele>
        <time>2019-12-16T14:11:31Z</time>
      </trkpt>
      <trkpt lat="43.58141" lon="5.06286">
        <ele>105</ele>
        <time>2019-12-16T14:11:32Z</time>
      </trkpt>
      <trkpt lat="43.58141" lon="5.06287">
        <ele>105</ele>
        <time>2019-12-16T14:11:33Z</time>
      </trkpt>
      <trkpt lat="43.5814" lon="5.06288">
        <ele>105</ele>
        <time>2019-12-16T14:11:34Z</time>
      </trkpt>
      <trkpt lat="43.5814" lon="5.06289">
        <ele>105</ele>
        <time>2019-12-16T14:11:35Z</time>
      </trkpt>
      <trkpt lat="43.5814" lon="5.0629">
        <ele>105</ele>
        <time>2019-12-16T14:11:36Z</time>
      </trkpt>
      <trkpt lat="43.58139" lon="5.06292">
        <ele>105</ele>
        <time>2019-12-16T14:11:37Z</time>
      </trkpt>
      <trkpt lat="43.58139" lon="5.06293">
        <ele>105</ele>
        <time>2019-12-16T14:11:38Z</time>
      </trkpt>
      <trkpt lat="43.58139" lon="5.06295">
        <ele>105</ele>
        <time>2019-12-16T14:11:39Z</time>
      </trkpt>
      <trkpt lat="43.58139" lon="5.06297">
        <ele>105</ele>
        <time>2019-12-16T14:11:40Z</time>
      </trkpt>
      <trkpt lat="43.58139" lon="5.06299">
        <ele>105</ele>
        <time>2019-12-16T14:11:41Z</time>
      </trkpt>
      <trkpt lat="43.58139" lon="5.063">
        <ele>104</ele>
        <time>2019-12-16T14:11:42Z</time>
      </trkpt>
      <trkpt lat="43.58139" lon="5.06302">
        <ele>104</ele>
        <time>2019-12-16T14:11:43Z</time>
      </trkpt>
      <trkpt lat="43.58139" lon="5.06304">
        <ele>104</ele>
        <time>2019-12-16T14:11:44Z</time>
      </trkpt>
      <trkpt lat="43.58139" lon="5.06305">
        <ele>104</ele>
        <time>2019-12-16T14:11:45Z</time>
      </trkpt>
      <trkpt lat="43.58139" lon="5.06307">
        <ele>104</ele>
        <time>2019-12-16T14:11:46Z</time>
      </trkpt>
      <trkpt lat="43.58139" lon="5.06309">
        <ele>104</ele>
        <time>2019-12-16T14:11:47Z</time>
      </trkpt>
      <trkpt lat="43.58138" lon="5.06311">
        <ele>104</ele>
        <time>2019-12-16T14:11:48Z</time>
      </trkpt>
      <trkpt lat="43.58138" lon="5.06312">
        <ele>104</ele>
        <time>2019-12-16T14:11:49Z</time>
      </trkpt>
      <trkpt lat="43.58138" lon="5.06314">
        <ele>104</ele>
        <time>2019-12-16T14:11:50Z</time>
      </trkpt>
      <trkpt lat="43.58137" lon="5.06315">
        <ele>104</ele>
        <time>2019-12-16T14:11:51Z</time>
      </trkpt>
      <trkpt lat="43.58137" lon="5.06317">
        <ele>104</ele>
        <time>2019-12-16T14:11:52Z</time>
      </trkpt>
      <trkpt lat="43.58136" lon="5.06319">
        <ele>104</ele>
        <time>2019-12-16T14:11:53Z</time>
      </trkpt>
      <trkpt lat="43.58136" lon="5.06321">
        <ele>104</ele>
        <time>2019-12-16T14:11:54Z</time>
      </trkpt>
      <trkpt lat="43.58135" lon="5.06322">
        <ele>104</ele>
        <time>2019-12-16T14:11:55Z</time>
      </trkpt>
      <trkpt lat="43.58135" lon="5.06324">
        <ele>104</ele>
        <time>2019-12-16T14:11:56Z</time>
      </trkpt>
      <trkpt lat="43.58135" lon="5.06326">
        <ele>104</ele>
        <time>2019-12-16T14:11:57Z</time>
      </trkpt>
      <trkpt lat="43.58134" lon="5.06327">
        <ele>104</ele>
        <time>2019-12-16T14:11:58Z</time>
      </trkpt>
      <trkpt lat="43.58134" lon="5.06329">
        <ele>104</ele>
        <time>2019-12-16T14:11:59Z</time>
      </trkpt>
      <trkpt lat="43.58133" lon="5.0633">
        <ele>104</ele>
        <time>2019-12-16T14:12:00Z</time>
      </trkpt>
      <trkpt lat="43.58133" lon="5.06332">
        <ele>104</ele>
        <time>2019-12-16T14:12:01Z</time>
      </trkpt>
      <trkpt lat="43.58133" lon="5.06333">
        <ele>104</ele>
        <time>2019-12-16T14:12:02Z</time>
      </trkpt>
      <trkpt lat="43.58132" lon="5.06335">
        <ele>104</ele>
        <time>2019-12-16T14:12:03Z</time>
      </trkpt>
      <trkpt lat="43.58132" lon="5.06336">
        <ele>104</ele>
        <time>2019-12-16T14:12:04Z</time>
      </trkpt>
      <trkpt lat="43.58131" lon="5.06338">
        <ele>104</ele>
        <time>2019-12-16T14:12:05Z</time>
      </trkpt>
      <trkpt lat="43.58131" lon="5.06339">
        <ele>104</ele>
        <time>2019-12-16T14:12:06Z</time>
      </trkpt>
      <trkpt lat="43.58131" lon="5.06341">
        <ele>104</ele>
        <time>2019-12-16T14:12:07Z</time>
      </trkpt>
      <trkpt lat="43.5813" lon="5.06342">
        <ele>104</ele>
        <time>2019-12-16T14:12:08Z</time>
      </trkpt>
      <trkpt lat="43.5813" lon="5.06343">
        <ele>104</ele>
        <time>2019-12-16T14:12:09Z</time>
      </trkpt>
      <trkpt lat="43.58129" lon="5.06345">
        <ele>104</ele>
        <time>2019-12-16T14:12:10Z</time>
      </trkpt>
      <trkpt lat="43.58129" lon="5.06346">
        <ele>104</ele>
        <time>2019-12-16T14:12:11Z</time>
      </trkpt>
      <trkpt lat="43.58128" lon="5.06348">
        <ele>104</ele>
        <time>2019-12-16T14:12:12Z</time>
      </trkpt>
      <trkpt lat="43.58127" lon="5.06349">
        <ele>104</ele>
        <time>2019-12-16T14:12:13Z</time>
      </trkpt>
      <trkpt lat="43.58126" lon="5.0635">
        <ele>104</ele>
        <time>2019-12-16T14:12:14Z</time>
      </trkpt>
      <trkpt lat="43.58126" lon="5.06352">
        <ele>104</ele>
        <time>2019-12-16T14:12:15Z</time>
      </trkpt>
      <trkpt lat="43.58125" lon="5.06353">
        <ele>104</ele>
        <time>2019-12-16T14:12:16Z</time>
      </trkpt>
      <trkpt lat="43.58124" lon="5.06354">
        <ele>104</ele>
        <time>2019-12-16T14:12:17Z</time>
      </trkpt>
      <trkpt lat="43.58124" lon="5.06356">
        <ele>104</ele>
        <time>2019-12-16T14:12:18Z</time>
      </trkpt>
      <trkpt lat="43.58123" lon="5.06357">
        <ele>104</ele>
        <time>2019-12-16T14:12:19Z</time>
      </trkpt>
      <trkpt lat="43.58122" lon="5.06358">
        <ele>104</ele>
        <time>2019-12-16T14:12:20Z</time>
      </trkpt>
      <trkpt lat="43.58122" lon="5.06359">
        <ele>104</ele>
        <time>2019-12-16T14:12:21Z</time>
      </trkpt>
      <trkpt lat="43.58121" lon="5.06361">
        <ele>104</ele>
        <time>2019-12-16T14:12:22Z</time>
      </trkpt>
      <trkpt lat="43.58121" lon="5.06362">
        <ele>104</ele>
        <time>2019-12-16T14:12:23Z</time>
      </trkpt>
      <trkpt lat="43.5812" lon="5.06363">
        <ele>104</ele>
        <time>2019-12-16T14:12:24Z</time>
      </trkpt>
      <trkpt lat="43.5812" lon="5.06365">
        <ele>104</ele>
        <time>2019-12-16T14:12:25Z</time>
      </trkpt>
      <trkpt lat="43.58119" lon="5.06366">
        <ele>104</ele>
        <time>2019-12-16T14:12:26Z</time>
      </trkpt>
      <trkpt lat="43.58119" lon="5.06367">
        <ele>104</ele>
        <time>2019-12-16T14:12:27Z</time>
      </trkpt>
      <trkpt lat="43.58118" lon="5.06368">
        <ele>104</ele>
        <time>2019-12-16T14:12:28Z</time>
      </trkpt>
      <trkpt lat="43.58118" lon="5.0637">
        <ele>104</ele>
        <time>2019-12-16T14:12:29Z</time>
      </trkpt>
      <trkpt lat="43.58117" lon="5.06371">
        <ele>104</ele>
        <time>2019-12-16T14:12:30Z</time>
      </trkpt>
      <trkpt lat="43.58116" lon="5.06373">
        <ele>104</ele>
        <time>2019-12-16T14:12:31Z</time>
      </trkpt>
      <trkpt lat="43.58116" lon="5.06374">
        <ele>104</ele>
        <time>2019-12-16T14:12:32Z</time>
      </trkpt>
      <trkpt lat="43.58115" lon="5.06375">
        <ele>104</ele>
        <time>2019-12-16T14:12:33Z</time>
      </trkpt>
      <trkpt lat="43.58114" lon="5.06377">
        <ele>104</ele>
        <time>2019-12-16T14:12:34Z</time>
      </trkpt>
      <trkpt lat="43.58113" lon="5.06378">
        <ele>104</ele>
        <time>2019-12-16T14:12:35Z</time>
      </trkpt>
      <trkpt lat="43.58113" lon="5.0638">
        <ele>104</ele>
        <time>2019-12-16T14:12:36Z</time>
      </trkpt>
      <trkpt lat="43.58112" lon="5.06381">
        <ele>105</ele>
        <time>2019-12-16T14:12:37Z</time>
      </trkpt>
      <trkpt lat="43.58111" lon="5.06383">
        <ele>105</ele>
        <time>2019-12-16T14:12:38Z</time>
      </trkpt>
      <trkpt lat="43.58111" lon="5.06384">
        <ele>105</ele>
        <time>2019-12-16T14:12:39Z</time>
      </trkpt>
      <trkpt lat="43.5811" lon="5.06386">
        <ele>105</ele>
        <time>2019-12-16T14:12:40Z</time>
      </trkpt>
      <trkpt lat="43.58109" lon="5.06387">
        <ele>105</ele>
        <time>2019-12-16T14:12:41Z</time>
      </trkpt>
      <trkpt lat="43.58109" lon="5.06389">
        <ele>105</ele>
        <time>2019-12-16T14:12:42Z</time>
      </trkpt>
      <trkpt lat="43.58108" lon="5.0639">
        <ele>105</ele>
        <time>2019-12-16T14:12:43Z</time>
      </trkpt>
      <trkpt lat="43.58107" lon="5.06392">
        <ele>105</ele>
        <time>2019-12-16T14:12:44Z</time>
      </trkpt>
      <trkpt lat="43.58107" lon="5.06393">
        <ele>105</ele>
        <time>2019-12-16T14:12:45Z</time>
      </trkpt>
      <trkpt lat="43.58106" lon="5.06395">
        <ele>105</ele>
        <time>2019-12-16T14:12:46Z</time>
      </trkpt>
      <trkpt lat="43.58106" lon="5.06396">
        <ele>105</ele>
        <time>2019-12-16T14:12:47Z</time>
      </trkpt>
      <trkpt lat="43.58106" lon="5.06398">
        <ele>105</ele>
        <time>2019-12-16T14:12:48Z</time>
      </trkpt>
      <trkpt lat="43.58105" lon="5.064">
        <ele>105</ele>
        <time>2019-12-16T14:12:49Z</time>
      </trkpt>
      <trkpt lat="43.58105" lon="5.06401">
        <ele>105</ele>
        <time>2019-12-16T14:12:50Z</time>
      </trkpt>
      <trkpt lat="43.58104" lon="5.06403">
        <ele>105</ele>
        <time>2019-12-16T14:12:51Z</time>
      </trkpt>
      <trkpt lat="43.58104" lon="5.06404">
        <ele>105</ele>
        <time>2019-12-16T14:12:52Z</time>
      </trkpt>
      <trkpt lat="43.58103" lon="5.06406">
        <ele>105</ele>
        <time>2019-12-16T14:12:53Z</time>
      </trkpt>
      <trkpt lat="43.58103" lon="5.06408">
        <ele>105</ele>
        <time>2019-12-16T14:12:54Z</time>
      </trkpt>
      <trkpt lat="43.58103" lon="5.06409">
        <ele>105</ele>
        <time>2019-12-16T14:12:55Z</time>
      </trkpt>
      <trkpt lat="43.58103" lon="5.06411">
        <ele>105</ele>
        <time>2019-12-16T14:12:56Z</time>
      </trkpt>
      <trkpt lat="43.58103" lon="5.06413">
        <ele>105</ele>
        <time>2019-12-16T14:12:57Z</time>
      </trkpt>
      <trkpt lat="43.58102" lon="5.06414">
        <ele>105</ele>
        <time>2019-12-16T14:12:58Z</time>
      </trkpt>
      <trkpt lat="43.58102" lon="5.06416">
        <ele>105</ele>
        <time>2019-12-16T14:12:59Z</time>
      </trkpt>
      <trkpt lat="43.58102" lon="5.06418">
        <ele>103</ele>
        <time>2019-12-16T14:13:00Z</time>
      </trkpt>
      <trkpt lat="43.58102" lon="5.0642">
        <ele>103</ele>
        <time>2019-12-16T14:13:01Z</time>
      </trkpt>
      <trkpt lat="43.58102" lon="5.06422">
        <ele>103</ele>
        <time>2019-12-16T14:13:02Z</time>
      </trkpt>
      <trkpt lat="43.58102" lon="5.06423">
        <ele>103</ele>
        <time>2019-12-16T14:13:03Z</time>
      </trkpt>
      <trkpt lat="43.58102" lon="5.06425">
        <ele>103</ele>
        <time>2019-12-16T14:13:04Z</time>
      </trkpt>
      <trkpt lat="43.58101" lon="5.06427">
        <ele>103</ele>
        <time>2019-12-16T14:13:05Z</time>
      </trkpt>
      <trkpt lat="43.58101" lon="5.06429">
        <ele>103</ele>
        <time>2019-12-16T14:13:06Z</time>
      </trkpt>
      <trkpt lat="43.58101" lon="5.06431">
        <ele>103</ele>
        <time>2019-12-16T14:13:07Z</time>
      </trkpt>
      <trkpt lat="43.58101" lon="5.06433">
        <ele>103</ele>
        <time>2019-12-16T14:13:08Z</time>
      </trkpt>
      <trkpt lat="43.58101" lon="5.06434">
        <ele>103</ele>
        <time>2019-12-16T14:13:09Z</time>
      </trkpt>
      <trkpt lat="43.58101" lon="5.06436">
        <ele>103</ele>
        <time>2019-12-16T14:13:10Z</time>
      </trkpt>
      <trkpt lat="43.581" lon="5.06438">
        <ele>103</ele>
        <time>2019-12-16T14:13:11Z</time>
      </trkpt>
      <trkpt lat="43.581" lon="5.0644">
        <ele>103</ele>
        <time>2019-12-16T14:13:12Z</time>
      </trkpt>
      <trkpt lat="43.581" lon="5.06441">
        <ele>103</ele>
        <time>2019-12-16T14:13:13Z</time>
      </trkpt>
      <trkpt lat="43.581" lon="5.06443">
        <ele>102</ele>
        <time>2019-12-16T14:13:14Z</time>
      </trkpt>
      <trkpt lat="43.58099" lon="5.06445">
        <ele>102</ele>
        <time>2019-12-16T14:13:15Z</time>
      </trkpt>
      <trkpt lat="43.58099" lon="5.06447">
        <ele>102</ele>
        <time>2019-12-16T14:13:16Z</time>
      </trkpt>
      <trkpt lat="43.58099" lon="5.06448">
        <ele>102</ele>
        <time>2019-12-16T14:13:17Z</time>
      </trkpt>
      <trkpt lat="43.58098" lon="5.0645">
        <ele>102</ele>
        <time>2019-12-16T14:13:18Z</time>
      </trkpt>
      <trkpt lat="43.58098" lon="5.06451">
        <ele>102</ele>
        <time>2019-12-16T14:13:19Z</time>
      </trkpt>
      <trkpt lat="43.58097" lon="5.06453">
        <ele>102</ele>
        <time>2019-12-16T14:13:20Z</time>
      </trkpt>
      <trkpt lat="43.58097" lon="5.06455">
        <ele>102</ele>
        <time>2019-12-16T14:13:21Z</time>
      </trkpt>
      <trkpt lat="43.58096" lon="5.06456">
        <ele>102</ele>
        <time>2019-12-16T14:13:22Z</time>
      </trkpt>
      <trkpt lat="43.58096" lon="5.06458">
        <ele>102</ele>
        <time>2019-12-16T14:13:23Z</time>
      </trkpt>
      <trkpt lat="43.58095" lon="5.06459">
        <ele>102</ele>
        <time>2019-12-16T14:13:24Z</time>
      </trkpt>
      <trkpt lat="43.58094" lon="5.06461">
        <ele>102</ele>
        <time>2019-12-16T14:13:25Z</time>
      </trkpt>
      <trkpt lat="43.58094" lon="5.06463">
        <ele>102</ele>
        <time>2019-12-16T14:13:26Z</time>
      </trkpt>
      <trkpt lat="43.58094" lon="5.06464">
        <ele>102</ele>
        <time>2019-12-16T14:13:27Z</time>
      </trkpt>
      <trkpt lat="43.58093" lon="5.06466">
        <ele>102</ele>
        <time>2019-12-16T14:13:28Z</time>
      </trkpt>
      <trkpt lat="43.58093" lon="5.06468">
        <ele>101</ele>
        <time>2019-12-16T14:13:29Z</time>
      </trkpt>
      <trkpt lat="43.58093" lon="5.06469">
        <ele>101</ele>
        <time>2019-12-16T14:13:30Z</time>
      </trkpt>
      <trkpt lat="43.58093" lon="5.06471">
        <ele>101</ele>
        <time>2019-12-16T14:13:31Z</time>
      </trkpt>
      <trkpt lat="43.58093" lon="5.06473">
        <ele>101</ele>
        <time>2019-12-16T14:13:32Z</time>
      </trkpt>
      <trkpt lat="43.58093" lon="5.06474">
        <ele>101</ele>
        <time>2019-12-16T14:13:33Z</time>
      </trkpt>
      <trkpt lat="43.58093" lon="5.06476">
        <ele>101</ele>
        <time>2019-12-16T14:13:34Z</time>
      </trkpt>
      <trkpt lat="43.58093" lon="5.06477">
        <ele>101</ele>
        <time>2019-12-16T14:13:35Z</time>
      </trkpt>
      <trkpt lat="43.58093" lon="5.06479">
        <ele>101</ele>
        <time>2019-12-16T14:13:36Z</time>
      </trkpt>
      <trkpt lat="43.58094" lon="5.0648">
        <ele>101</ele>
        <time>2019-12-16T14:13:37Z</time>
      </trkpt>
      <trkpt lat="43.58094" lon="5.06482">
        <ele>101</ele>
        <time>2019-12-16T14:13:38Z</time>
      </trkpt>
      <trkpt lat="43.58093" lon="5.06483">
        <ele>101</ele>
        <time>2019-12-16T14:13:39Z</time>
      </trkpt>
      <trkpt lat="43.58093" lon="5.06485">
        <ele>101</ele>
        <time>2019-12-16T14:13:40Z</time>
      </trkpt>
      <trkpt lat="43.58093" lon="5.06486">
        <ele>101</ele>
        <time>2019-12-16T14:13:41Z</time>
      </trkpt>
      <trkpt lat="43.58093" lon="5.06487">
        <ele>101</ele>
        <time>2019-12-16T14:13:42Z</time>
      </trkpt>
      <trkpt lat="43.58092" lon="5.06488">
        <ele>101</ele>
        <time>2019-12-16T14:13:43Z</time>
      </trkpt>
      <trkpt lat="43.58091" lon="5.06489">
        <ele>101</ele>
        <time>2019-12-16T14:13:44Z</time>
      </trkpt>
      <trkpt lat="43.58091" lon="5.06489">
        <ele>101</ele>
        <time>2019-12-16T14:13:45Z</time>
      </trkpt>
      <trkpt lat="43.5809" lon="5.06489">
        <ele>101</ele>
        <time>2019-12-16T14:13:46Z</time>
      </trkpt>
      <trkpt lat="43.58089" lon="5.06488">
        <ele>101</ele>
        <time>2019-12-16T14:13:47Z</time>
      </trkpt>
      <trkpt lat="43.58088" lon="5.06488">
        <ele>101</ele>
        <time>2019-12-16T14:13:48Z</time>
      </trkpt>
      <trkpt lat="43.58088" lon="5.06487">
        <ele>101</ele>
        <time>2019-12-16T14:13:49Z</time>
      </trkpt>
      <trkpt lat="43.58088" lon="5.06487">
        <ele>101</ele>
        <time>2019-12-16T14:13:50Z</time>
      </trkpt>
      <trkpt lat="43.58087" lon="5.06487">
        <ele>101</ele>
        <time>2019-12-16T14:13:51Z</time>
      </trkpt>
      <trkpt lat="43.58088" lon="5.06487">
        <ele>101</ele>
        <time>2019-12-16T14:13:52Z</time>
      </trkpt>
      <trkpt lat="43.58088" lon="5.06487">
        <ele>101</ele>
        <time>2019-12-16T14:13:53Z</time>
      </trkpt>
      <trkpt lat="43.58088" lon="5.06487">
        <ele>101</ele>
        <time>2019-12-16T14:13:54Z</time>
      </trkpt>
      <trkpt lat="43.58089" lon="5.06488">
        <ele>101</ele>
        <time>2019-12-16T14:13:55Z</time>
      </trkpt>
      <trkpt lat="43.5809" lon="5.06488">
        <ele>101</ele>
        <time>2019-12-16T14:13:56Z</time>
      </trkpt>
      <trkpt lat="43.5809" lon="5.06489">
        <ele>101</ele>
        <time>2019-12-16T14:13:57Z</time>
      </trkpt>
      <trkpt lat="43.58091" lon="5.06489">
        <ele>101</ele>
        <time>2019-12-16T14:13:58Z</time>
      </trkpt>
      <trkpt lat="43.58091" lon="5.0649">
        <ele>101</ele>
        <time>2019-12-16T14:13:59Z</time>
      </trkpt>
      <trkpt lat="43.58091" lon="5.06491">
        <ele>101</ele>
        <time>2019-12-16T14:14:00Z</time>
      </trkpt>
      <trkpt lat="43.58092" lon="5.06492">
        <ele>101</ele>
        <time>2019-12-16T14:14:01Z</time>
      </trkpt>
      <trkpt lat="43.58092" lon="5.06493">
        <ele>101</ele>
        <time>2019-12-16T14:14:02Z</time>
      </trkpt>
      <trkpt lat="43.58092" lon="5.06494">
        <ele>101</ele>
        <time>2019-12-16T14:14:03Z</time>
      </trkpt>
      <trkpt lat="43.58092" lon="5.06495">
        <ele>101</ele>
        <time>2019-12-16T14:14:04Z</time>
      </trkpt>
      <trkpt lat="43.58092" lon="5.06496">
        <ele>101</ele>
        <time>2019-12-16T14:14:05Z</time>
      </trkpt>
      <trkpt lat="43.58092" lon="5.06497">
        <ele>101</ele>
        <time>2019-12-16T14:14:06Z</time>
      </trkpt>
      <trkpt lat="43.58092" lon="5.06498">
        <ele>101</ele>
        <time>2019-12-16T14:14:07Z</time>
      </trkpt>
      <trkpt lat="43.58092" lon="5.065">
        <ele>101</ele>
        <time>2019-12-16T14:14:08Z</time>
      </trkpt>
      <trkpt lat="43.58092" lon="5.06501">
        <ele>99</ele>
        <time>2019-12-16T14:14:09Z</time>
      </trkpt>
      <trkpt lat="43.58091" lon="5.06502">
        <ele>99</ele>
        <time>2019-12-16T14:14:10Z</time>
      </trkpt>
      <trkpt lat="43.58091" lon="5.06503">
        <ele>99</ele>
        <time>2019-12-16T14:14:11Z</time>
      </trkpt>
      <trkpt lat="43.58091" lon="5.06505">
        <ele>99</ele>
        <time>2019-12-16T14:14:12Z</time>
      </trkpt>
      <trkpt lat="43.58091" lon="5.06506">
        <ele>99</ele>
        <time>2019-12-16T14:14:13Z</time>
      </trkpt>
      <trkpt lat="43.5809" lon="5.06507">
        <ele>98</ele>
        <time>2019-12-16T14:14:14Z</time>
      </trkpt>
      <trkpt lat="43.5809" lon="5.06509">
        <ele>98</ele>
        <time>2019-12-16T14:14:15Z</time>
      </trkpt>
      <trkpt lat="43.5809" lon="5.0651">
        <ele>98</ele>
        <time>2019-12-16T14:14:16Z</time>
      </trkpt>
      <trkpt lat="43.58089" lon="5.06511">
        <ele>98</ele>
        <time>2019-12-16T14:14:17Z</time>
      </trkpt>
      <trkpt lat="43.58089" lon="5.06513">
        <ele>98</ele>
        <time>2019-12-16T14:14:18Z</time>
      </trkpt>
      <trkpt lat="43.58089" lon="5.06514">
        <ele>98</ele>
        <time>2019-12-16T14:14:19Z</time>
      </trkpt>
      <trkpt lat="43.58088" lon="5.06516">
        <ele>97</ele>
        <time>2019-12-16T14:14:20Z</time>
      </trkpt>
      <trkpt lat="43.58088" lon="5.06517">
        <ele>97</ele>
        <time>2019-12-16T14:14:21Z</time>
      </trkpt>
      <trkpt lat="43.58088" lon="5.06519">
        <ele>97</ele>
        <time>2019-12-16T14:14:22Z</time>
      </trkpt>
      <trkpt lat="43.58088" lon="5.0652">
        <ele>97</ele>
        <time>2019-12-16T14:14:23Z</time>
      </trkpt>
      <trkpt lat="43.58087" lon="5.06521">
        <ele>97</ele>
        <time>2019-12-16T14:14:24Z</time>
      </trkpt>
      <trkpt lat="43.58087" lon="5.06523">
        <ele>96</ele>
        <time>2019-12-16T14:14:25Z</time>
      </trkpt>
      <trkpt lat="43.58087" lon="5.06524">
        <ele>96</ele>
        <time>2019-12-16T14:14:26Z</time>
      </trkpt>
      <trkpt lat="43.58087" lon="5.06526">
        <ele>96</ele>
        <time>2019-12-16T14:14:27Z</time>
      </trkpt>
      <trkpt lat="43.58086" lon="5.06527">
        <ele>96</ele>
        <time>2019-12-16T14:14:28Z</time>
      </trkpt>
      <trkpt lat="43.58086" lon="5.06529">
        <ele>96</ele>
        <time>2019-12-16T14:14:29Z</time>
      </trkpt>
      <trkpt lat="43.58085" lon="5.06531">
        <ele>96</ele>
        <time>2019-12-16T14:14:30Z</time>
      </trkpt>
      <trkpt lat="43.58084" lon="5.06532">
        <ele>95</ele>
        <time>2019-12-16T14:14:31Z</time>
      </trkpt>
      <trkpt lat="43.58084" lon="5.06534">
        <ele>95</ele>
        <time>2019-12-16T14:14:32Z</time>
      </trkpt>
      <trkpt lat="43.58083" lon="5.06536">
        <ele>97</ele>
        <time>2019-12-16T14:14:33Z</time>
      </trkpt>
      <trkpt lat="43.58082" lon="5.06537">
        <ele>97</ele>
        <time>2019-12-16T14:14:34Z</time>
      </trkpt>
      <trkpt lat="43.58082" lon="5.06539">
        <ele>97</ele>
        <time>2019-12-16T14:14:35Z</time>
      </trkpt>
      <trkpt lat="43.58081" lon="5.0654">
        <ele>97</ele>
        <time>2019-12-16T14:14:36Z</time>
      </trkpt>
      <trkpt lat="43.5808" lon="5.06541">
        <ele>97</ele>
        <time>2019-12-16T14:14:37Z</time>
      </trkpt>
      <trkpt lat="43.5808" lon="5.06543">
        <ele>97</ele>
        <time>2019-12-16T14:14:38Z</time>
      </trkpt>
      <trkpt lat="43.58079" lon="5.06544">
        <ele>97</ele>
        <time>2019-12-16T14:14:39Z</time>
      </trkpt>
      <trkpt lat="43.58079" lon="5.06545">
        <ele>97</ele>
        <time>2019-12-16T14:14:40Z</time>
      </trkpt>
      <trkpt lat="43.58078" lon="5.06546">
        <ele>97</ele>
        <time>2019-12-16T14:14:41Z</time>
      </trkpt>
      <trkpt lat="43.58078" lon="5.06547">
        <ele>96</ele>
        <time>2019-12-16T14:14:42Z</time>
      </trkpt>
      <trkpt lat="43.58077" lon="5.06549">
        <ele>96</ele>
        <time>2019-12-16T14:14:43Z</time>
      </trkpt>
      <trkpt lat="43.58077" lon="5.0655">
        <ele>96</ele>
        <time>2019-12-16T14:14:44Z</time>
      </trkpt>
      <trkpt lat="43.58076" lon="5.06551">
        <ele>96</ele>
        <time>2019-12-16T14:14:45Z</time>
      </trkpt>
      <trkpt lat="43.58076" lon="5.06553">
        <ele>96</ele>
        <time>2019-12-16T14:14:46Z</time>
      </trkpt>
      <trkpt lat="43.58075" lon="5.06554">
        <ele>96</ele>
        <time>2019-12-16T14:14:47Z</time>
      </trkpt>
      <trkpt lat="43.58074" lon="5.06555">
        <ele>96</ele>
        <time>2019-12-16T14:14:48Z</time>
      </trkpt>
      <trkpt lat="43.58074" lon="5.06557">
        <ele>96</ele>
        <time>2019-12-16T14:14:49Z</time>
      </trkpt>
      <trkpt lat="43.58073" lon="5.06558">
        <ele>96</ele>
        <time>2019-12-16T14:14:50Z</time>
      </trkpt>
      <trkpt lat="43.58073" lon="5.0656">
        <ele>95</ele>
        <time>2019-12-16T14:14:51Z</time>
      </trkpt>
      <trkpt lat="43.58072" lon="5.06562">
        <ele>95</ele>
        <time>2019-12-16T14:14:52Z</time>
      </trkpt>
      <trkpt lat="43.58072" lon="5.06563">
        <ele>95</ele>
        <time>2019-12-16T14:14:53Z</time>
      </trkpt>
      <trkpt lat="43.58071" lon="5.06565">
        <ele>95</ele>
        <time>2019-12-16T14:14:54Z</time>
      </trkpt>
      <trkpt lat="43.58071" lon="5.06567">
        <ele>95</ele>
        <time>2019-12-16T14:14:55Z</time>
      </trkpt>
      <trkpt lat="43.58071" lon="5.06568">
        <ele>95</ele>
        <time>2019-12-16T14:14:56Z</time>
      </trkpt>
      <trkpt lat="43.5807" lon="5.0657">
        <ele>95</ele>
        <time>2019-12-16T14:14:57Z</time>
      </trkpt>
      <trkpt lat="43.5807" lon="5.06572">
        <ele>94</ele>
        <time>2019-12-16T14:14:58Z</time>
      </trkpt>
      <trkpt lat="43.58069" lon="5.06573">
        <ele>94</ele>
        <time>2019-12-16T14:14:59Z</time>
      </trkpt>
      <trkpt lat="43.58069" lon="5.06575">
        <ele>94</ele>
        <time>2019-12-16T14:15:00Z</time>
      </trkpt>
      <trkpt lat="43.58068" lon="5.06576">
        <ele>94</ele>
        <time>2019-12-16T14:15:01Z</time>
      </trkpt>
      <trkpt lat="43.58068" lon="5.06578">
        <ele>94</ele>
        <time>2019-12-16T14:15:02Z</time>
      </trkpt>
      <trkpt lat="43.58067" lon="5.06579">
        <ele>94</ele>
        <time>2019-12-16T14:15:03Z</time>
      </trkpt>
      <trkpt lat="43.58067" lon="5.06581">
        <ele>94</ele>
        <time>2019-12-16T14:15:04Z</time>
      </trkpt>
      <trkpt lat="43.58067" lon="5.06582">
        <ele>94</ele>
        <time>2019-12-16T14:15:05Z</time>
      </trkpt>
      <trkpt lat="43.58066" lon="5.06584">
        <ele>91</ele>
        <time>2019-12-16T14:15:06Z</time>
      </trkpt>
      <trkpt lat="43.58066" lon="5.06585">
        <ele>91</ele>
        <time>2019-12-16T14:15:07Z</time>
      </trkpt>
      <trkpt lat="43.58065" lon="5.06586">
        <ele>91</ele>
        <time>2019-12-16T14:15:08Z</time>
      </trkpt>
      <trkpt lat="43.58065" lon="5.06588">
        <ele>91</ele>
        <time>2019-12-16T14:15:09Z</time>
      </trkpt>
      <trkpt lat="43.58064" lon="5.06589">
        <ele>91</ele>
        <time>2019-12-16T14:15:10Z</time>
      </trkpt>
      <trkpt lat="43.58064" lon="5.06591">
        <ele>90</ele>
        <time>2019-12-16T14:15:11Z</time>
      </trkpt>
      <trkpt lat="43.58063" lon="5.06592">
        <ele>90</ele>
        <time>2019-12-16T14:15:12Z</time>
      </trkpt>
      <trkpt lat="43.58063" lon="5.06593">
        <ele>90</ele>
        <time>2019-12-16T14:15:13Z</time>
      </trkpt>
      <trkpt lat="43.58062" lon="5.06595">
        <ele>90</ele>
        <time>2019-12-16T14:15:14Z</time>
      </trkpt>
      <trkpt lat="43.58062" lon="5.06596">
        <ele>90</ele>
        <time>2019-12-16T14:15:15Z</time>
      </trkpt>
      <trkpt lat="43.58061" lon="5.06598">
        <ele>90</ele>
        <time>2019-12-16T14:15:16Z</time>
      </trkpt>
      <trkpt lat="43.58061" lon="5.06599">
        <ele>90</ele>
        <time>2019-12-16T14:15:17Z</time>
      </trkpt>
      <trkpt lat="43.5806" lon="5.06601">
        <ele>90</ele>
        <time>2019-12-16T14:15:18Z</time>
      </trkpt>
      <trkpt lat="43.5806" lon="5.06602">
        <ele>90</ele>
        <time>2019-12-16T14:15:19Z</time>
      </trkpt>
      <trkpt lat="43.58059" lon="5.06604">
        <ele>90</ele>
        <time>2019-12-16T14:15:20Z</time>
      </trkpt>
      <trkpt lat="43.58059" lon="5.06605">
        <ele>90</ele>
        <time>2019-12-16T14:15:21Z</time>
      </trkpt>
      <trkpt lat="43.58058" lon="5.06607">
        <ele>90</ele>
        <time>2019-12-16T14:15:22Z</time>
      </trkpt>
      <trkpt lat="43.58058" lon="5.06609">
        <ele>90</ele>
        <time>2019-12-16T14:15:23Z</time>
      </trkpt>
      <trkpt lat="43.58057" lon="5.0661">
        <ele>90</ele>
        <time>2019-12-16T14:15:24Z</time>
      </trkpt>
      <trkpt lat="43.58057" lon="5.06612">
        <ele>90</ele>
        <time>2019-12-16T14:15:25Z</time>
      </trkpt>
      <trkpt lat="43.58056" lon="5.06614">
        <ele>90</ele>
        <time>2019-12-16T14:15:26Z</time>
      </trkpt>
      <trkpt lat="43.58056" lon="5.06616">
        <ele>90</ele>
        <time>2019-12-16T14:15:27Z</time>
      </trkpt>
      <trkpt lat="43.58055" lon="5.06617">
        <ele>90</ele>
        <time>2019-12-16T14:15:28Z</time>
      </trkpt>
      <trkpt lat="43.58055" lon="5.06619">
        <ele>90</ele>
        <time>2019-12-16T14:15:29Z</time>
      </trkpt>
      <trkpt lat="43.58054" lon="5.06621">
        <ele>90</ele>
        <time>2019-12-16T14:15:30Z</time>
      </trkpt>
      <trkpt lat="43.58054" lon="5.06622">
        <ele>89</ele>
        <time>2019-12-16T14:15:31Z</time>
      </trkpt>
      <trkpt lat="43.58053" lon="5.06624">
        <ele>89</ele>
        <time>2019-12-16T14:15:32Z</time>
      </trkpt>
      <trkpt lat="43.58053" lon="5.06626">
        <ele>89</ele>
        <time>2019-12-16T14:15:33Z</time>
      </trkpt>
      <trkpt lat="43.58052" lon="5.06627">
        <ele>89</ele>
        <time>2019-12-16T14:15:34Z</time>
      </trkpt>
      <trkpt lat="43.58052" lon="5.06629">
        <ele>89</ele>
        <time>2019-12-16T14:15:35Z</time>
      </trkpt>
      <trkpt lat="43.58051" lon="5.0663">
        <ele>89</ele>
        <time>2019-12-16T14:15:36Z</time>
      </trkpt>
      <trkpt lat="43.58051" lon="5.06632">
        <ele>89</ele>
        <time>2019-12-16T14:15:37Z</time>
      </trkpt>
      <trkpt lat="43.5805" lon="5.06633">
        <ele>89</ele>
        <time>2019-12-16T14:15:38Z</time>
      </trkpt>
      <trkpt lat="43.5805" lon="5.06635">
        <ele>89</ele>
        <time>2019-12-16T14:15:39Z</time>
      </trkpt>
      <trkpt lat="43.58049" lon="5.06636">
        <ele>89</ele>
        <time>2019-12-16T14:15:40Z</time>
      </trkpt>
      <trkpt lat="43.58048" lon="5.06637">
        <ele>89</ele>
        <time>2019-12-16T14:15:41Z</time>
      </trkpt>
      <trkpt lat="43.58048" lon="5.06639">
        <ele>89</ele>
        <time>2019-12-16T14:15:42Z</time>
      </trkpt>
      <trkpt lat="43.58047" lon="5.0664">
        <ele>89</ele>
        <time>2019-12-16T14:15:43Z</time>
      </trkpt>
      <trkpt lat="43.58046" lon="5.06641">
        <ele>89</ele>
        <time>2019-12-16T14:15:44Z</time>
      </trkpt>
      <trkpt lat="43.58045" lon="5.06643">
        <ele>89</ele>
        <time>2019-12-16T14:15:45Z</time>
      </trkpt>
      <trkpt lat="43.58044" lon="5.06644">
        <ele>89</ele>
        <time>2019-12-16T14:15:46Z</time>
      </trkpt>
      <trkpt lat="43.58044" lon="5.06646">
        <ele>89</ele>
        <time>2019-12-16T14:15:47Z</time>
      </trkpt>
      <trkpt lat="43.58043" lon="5.06647">
        <ele>89</ele>
        <time>2019-12-16T14:15:48Z</time>
      </trkpt>
      <trkpt lat="43.58042" lon="5.06648">
        <ele>89</ele>
        <time>2019-12-16T14:15:49Z</time>
      </trkpt>
      <trkpt lat="43.58041" lon="5.06649">
        <ele>89</ele>
        <time>2019-12-16T14:15:50Z</time>
      </trkpt>
      <trkpt lat="43.5804" lon="5.06651">
        <ele>89</ele>
        <time>2019-12-16T14:15:51Z</time>
      </trkpt>
      <trkpt lat="43.58039" lon="5.06652">
        <ele>89</ele>
        <time>2019-12-16T14:15:52Z</time>
      </trkpt>
      <trkpt lat="43.58038" lon="5.06653">
        <ele>89</ele>
        <time>2019-12-16T14:15:53Z</time>
      </trkpt>
      <trkpt lat="43.58037" lon="5.06654">
        <ele>89</ele>
        <time>2019-12-16T14:15:54Z</time>
      </trkpt>
      <trkpt lat="43.58036" lon="5.06655">
        <ele>89</ele>
        <time>2019-12-16T14:15:55Z</time>
      </trkpt>
      <trkpt lat="43.58035" lon="5.06656">
        <ele>89</ele>
        <time>2019-12-16T14:15:56Z</time>
      </trkpt>
      <trkpt lat="43.58034" lon="5.06656">
        <ele>89</ele>
        <time>2019-12-16T14:15:57Z</time>
      </trkpt>
      <trkpt lat="43.58033" lon="5.06657">
        <ele>89</ele>
        <time>2019-12-16T14:15:58Z</time>
      </trkpt>
      <trkpt lat="43.58032" lon="5.06657">
        <ele>89</ele>
        <time>2019-12-16T14:15:59Z</time>
      </trkpt>
      <trkpt lat="43.58031" lon="5.06658">
        <ele>89</ele>
        <time>2019-12-16T14:16:00Z</time>
      </trkpt>
      <trkpt lat="43.5803" lon="5.06659">
        <ele>89</ele>
        <time>2019-12-16T14:16:01Z</time>
      </trkpt>
      <trkpt lat="43.58028" lon="5.0666">
        <ele>89</ele>
        <time>2019-12-16T14:16:02Z</time>
      </trkpt>
      <trkpt lat="43.58027" lon="5.0666">
        <ele>89</ele>
        <time>2019-12-16T14:16:03Z</time>
      </trkpt>
      <trkpt lat="43.58025" lon="5.06661">
        <ele>89</ele>
        <time>2019-12-16T14:16:04Z</time>
      </trkpt>
      <trkpt lat="43.58024" lon="5.06662">
        <ele>89</ele>
        <time>2019-12-16T14:16:05Z</time>
      </trkpt>
      <trkpt lat="43.58022" lon="5.06663">
        <ele>89</ele>
        <time>2019-12-16T14:16:06Z</time>
      </trkpt>
      <trkpt lat="43.58021" lon="5.06663">
        <ele>89</ele>
        <time>2019-12-16T14:16:07Z</time>
      </trkpt>
      <trkpt lat="43.58019" lon="5.06664">
        <ele>89</ele>
        <time>2019-12-16T14:16:08Z</time>
      </trkpt>
      <trkpt lat="43.58018" lon="5.06665">
        <ele>89</ele>
        <time>2019-12-16T14:16:09Z</time>
      </trkpt>
      <trkpt lat="43.58016" lon="5.06666">
        <ele>89</ele>
        <time>2019-12-16T14:16:10Z</time>
      </trkpt>
      <trkpt lat="43.58015" lon="5.06666">
        <ele>89</ele>
        <time>2019-12-16T14:16:11Z</time>
      </trkpt>
      <trkpt lat="43.58014" lon="5.06667">
        <ele>86</ele>
        <time>2019-12-16T14:16:12Z</time>
      </trkpt>
      <trkpt lat="43.58013" lon="5.06668">
        <ele>86</ele>
        <time>2019-12-16T14:16:13Z</time>
      </trkpt>
      <trkpt lat="43.58012" lon="5.06669">
        <ele>86</ele>
        <time>2019-12-16T14:16:14Z</time>
      </trkpt>
      <trkpt lat="43.58011" lon="5.0667">
        <ele>87</ele>
        <time>2019-12-16T14:16:15Z</time>
      </trkpt>
      <trkpt lat="43.5801" lon="5.06671">
        <ele>87</ele>
        <time>2019-12-16T14:16:16Z</time>
      </trkpt>
      <trkpt lat="43.58009" lon="5.06672">
        <ele>87</ele>
        <time>2019-12-16T14:16:17Z</time>
      </trkpt>
      <trkpt lat="43.58008" lon="5.06673">
        <ele>87</ele>
        <time>2019-12-16T14:16:18Z</time>
      </trkpt>
      <trkpt lat="43.58008" lon="5.06674">
        <ele>87</ele>
        <time>2019-12-16T14:16:19Z</time>
      </trkpt>
      <trkpt lat="43.58007" lon="5.06675">
        <ele>87</ele>
        <time>2019-12-16T14:16:20Z</time>
      </trkpt>
      <trkpt lat="43.58006" lon="5.06676">
        <ele>87</ele>
        <time>2019-12-16T14:16:21Z</time>
      </trkpt>
      <trkpt lat="43.58005" lon="5.06677">
        <ele>86</ele>
        <time>2019-12-16T14:16:22Z</time>
      </trkpt>
      <trkpt lat="43.58004" lon="5.06679">
        <ele>86</ele>
        <time>2019-12-16T14:16:23Z</time>
      </trkpt>
      <trkpt lat="43.58003" lon="5.0668">
        <ele>86</ele>
        <time>2019-12-16T14:16:24Z</time>
      </trkpt>
      <trkpt lat="43.58002" lon="5.06681">
        <ele>86</ele>
        <time>2019-12-16T14:16:25Z</time>
      </trkpt>
      <trkpt lat="43.58001" lon="5.06682">
        <ele>86</ele>
        <time>2019-12-16T14:16:26Z</time>
      </trkpt>
      <trkpt lat="43.58" lon="5.06683">
        <ele>86</ele>
        <time>2019-12-16T14:16:27Z</time>
      </trkpt>
      <trkpt lat="43.57999" lon="5.06684">
        <ele>88</ele>
        <time>2019-12-16T14:16:28Z</time>
      </trkpt>
      <trkpt lat="43.57998" lon="5.06685">
        <ele>88</ele>
        <time>2019-12-16T14:16:29Z</time>
      </trkpt>
      <trkpt lat="43.57997" lon="5.06686">
        <ele>88</ele>
        <time>2019-12-16T14:16:30Z</time>
      </trkpt>
      <trkpt lat="43.57996" lon="5.06687">
        <ele>88</ele>
        <time>2019-12-16T14:16:31Z</time>
      </trkpt>
      <trkpt lat="43.57995" lon="5.06688">
        <ele>88</ele>
        <time>2019-12-16T14:16:32Z</time>
      </trkpt>
      <trkpt lat="43.57994" lon="5.06689">
        <ele>87</ele>
        <time>2019-12-16T14:16:33Z</time>
      </trkpt>
      <trkpt lat="43.57992" lon="5.06689">
        <ele>87</ele>
        <time>2019-12-16T14:16:34Z</time>
      </trkpt>
      <trkpt lat="43.57991" lon="5.0669">
        <ele>87</ele>
        <time>2019-12-16T14:16:35Z</time>
      </trkpt>
      <trkpt lat="43.5799" lon="5.0669">
        <ele>87</ele>
        <time>2019-12-16T14:16:36Z</time>
      </trkpt>
      <trkpt lat="43.57988" lon="5.0669">
        <ele>87</ele>
        <time>2019-12-16T14:16:37Z</time>
      </trkpt>
      <trkpt lat="43.57987" lon="5.06691">
        <ele>87</ele>
        <time>2019-12-16T14:16:38Z</time>
      </trkpt>
      <trkpt lat="43.57986" lon="5.06691">
        <ele>87</ele>
        <time>2019-12-16T14:16:39Z</time>
      </trkpt>
      <trkpt lat="43.57984" lon="5.06691">
        <ele>87</ele>
        <time>2019-12-16T14:16:40Z</time>
      </trkpt>
      <trkpt lat="43.57983" lon="5.06692">
        <ele>87</ele>
        <time>2019-12-16T14:16:41Z</time>
      </trkpt>
      <trkpt lat="43.57981" lon="5.06692">
        <ele>87</ele>
        <time>2019-12-16T14:16:42Z</time>
      </trkpt>
      <trkpt lat="43.5798" lon="5.06692">
        <ele>87</ele>
        <time>2019-12-16T14:16:43Z</time>
      </trkpt>
      <trkpt lat="43.57978" lon="5.06692">
        <ele>87</ele>
        <time>2019-12-16T14:16:44Z</time>
      </trkpt>
      <trkpt lat="43.57977" lon="5.06692">
        <ele>87</ele>
        <time>2019-12-16T14:16:45Z</time>
      </trkpt>
      <trkpt lat="43.57976" lon="5.06692">
        <ele>87</ele>
        <time>2019-12-16T14:16:46Z</time>
      </trkpt>
      <trkpt lat="43.57974" lon="5.06692">
        <ele>87</ele>
        <time>2019-12-16T14:16:47Z</time>
      </trkpt>
      <trkpt lat="43.57973" lon="5.06692">
        <ele>87</ele>
        <time>2019-12-16T14:16:48Z</time>
      </trkpt>
      <trkpt lat="43.57971" lon="5.06693">
        <ele>87</ele>
        <time>2019-12-16T14:16:49Z</time>
      </trkpt>
      <trkpt lat="43.5797" lon="5.06693">
        <ele>87</ele>
        <time>2019-12-16T14:16:50Z</time>
      </trkpt>
      <trkpt lat="43.57969" lon="5.06693">
        <ele>87</ele>
        <time>2019-12-16T14:16:51Z</time>
      </trkpt>
      <trkpt lat="43.57967" lon="5.06693">
        <ele>87</ele>
        <time>2019-12-16T14:16:52Z</time>
      </trkpt>
      <trkpt lat="43.57966" lon="5.06693">
        <ele>87</ele>
        <time>2019-12-16T14:16:53Z</time>
      </trkpt>
      <trkpt lat="43.57965" lon="5.06693">
        <ele>88</ele>
        <time>2019-12-16T14:16:54Z</time>
      </trkpt>
      <trkpt lat="43.57963" lon="5.06694">
        <ele>88</ele>
        <time>2019-12-16T14:16:55Z</time>
      </trkpt>
      <trkpt lat="43.57962" lon="5.06694">
        <ele>88</ele>
        <time>2019-12-16T14:16:56Z</time>
      </trkpt>
      <trkpt lat="43.57961" lon="5.06694">
        <ele>88</ele>
        <time>2019-12-16T14:16:57Z</time>
      </trkpt>
      <trkpt lat="43.57959" lon="5.06695">
        <ele>88</ele>
        <time>2019-12-16T14:16:58Z</time>
      </trkpt>
      <trkpt lat="43.57958" lon="5.06695">
        <ele>88</ele>
        <time>2019-12-16T14:16:59Z</time>
      </trkpt>
      <trkpt lat="43.57957" lon="5.06695">
        <ele>88</ele>
        <time>2019-12-16T14:17:00Z</time>
      </trkpt>
      <trkpt lat="43.57956" lon="5.06696">
        <ele>88</ele>
        <time>2019-12-16T14:17:01Z</time>
      </trkpt>
      <trkpt lat="43.57955" lon="5.06696">
        <ele>88</ele>
        <time>2019-12-16T14:17:02Z</time>
      </trkpt>
      <trkpt lat="43.57953" lon="5.06697">
        <ele>88</ele>
        <time>2019-12-16T14:17:03Z</time>
      </trkpt>
      <trkpt lat="43.57952" lon="5.06697">
        <ele>88</ele>
        <time>2019-12-16T14:17:04Z</time>
      </trkpt>
      <trkpt lat="43.57951" lon="5.06698">
        <ele>88</ele>
        <time>2019-12-16T14:17:05Z</time>
      </trkpt>
      <trkpt lat="43.5795" lon="5.06699">
        <ele>88</ele>
        <time>2019-12-16T14:17:06Z</time>
      </trkpt>
      <trkpt lat="43.57949" lon="5.06699">
        <ele>88</ele>
        <time>2019-12-16T14:17:07Z</time>
      </trkpt>
      <trkpt lat="43.57948" lon="5.067">
        <ele>88</ele>
        <time>2019-12-16T14:17:08Z</time>
      </trkpt>
      <trkpt lat="43.57947" lon="5.06701">
        <ele>88</ele>
        <time>2019-12-16T14:17:09Z</time>
      </trkpt>
      <trkpt lat="43.57946" lon="5.06701">
        <ele>88</ele>
        <time>2019-12-16T14:17:10Z</time>
      </trkpt>
      <trkpt lat="43.57945" lon="5.06702">
        <ele>88</ele>
        <time>2019-12-16T14:17:11Z</time>
      </trkpt>
      <trkpt lat="43.57944" lon="5.06703">
        <ele>88</ele>
        <time>2019-12-16T14:17:12Z</time>
      </trkpt>
      <trkpt lat="43.57943" lon="5.06704">
        <ele>88</ele>
        <time>2019-12-16T14:17:13Z</time>
      </trkpt>
      <trkpt lat="43.57942" lon="5.06705">
        <ele>88</ele>
        <time>2019-12-16T14:17:14Z</time>
      </trkpt>
      <trkpt lat="43.57941" lon="5.06705">
        <ele>88</ele>
        <time>2019-12-16T14:17:15Z</time>
      </trkpt>
      <trkpt lat="43.5794" lon="5.06706">
        <ele>88</ele>
        <time>2019-12-16T14:17:16Z</time>
      </trkpt>
      <trkpt lat="43.57939" lon="5.06707">
        <ele>88</ele>
        <time>2019-12-16T14:17:17Z</time>
      </trkpt>
      <trkpt lat="43.57938" lon="5.06708">
        <ele>88</ele>
        <time>2019-12-16T14:17:18Z</time>
      </trkpt>
      <trkpt lat="43.57937" lon="5.06709">
        <ele>88</ele>
        <time>2019-12-16T14:17:19Z</time>
      </trkpt>
      <trkpt lat="43.57936" lon="5.0671">
        <ele>88</ele>
        <time>2019-12-16T14:17:20Z</time>
      </trkpt>
      <trkpt lat="43.57935" lon="5.0671">
        <ele>88</ele>
        <time>2019-12-16T14:17:21Z</time>
      </trkpt>
      <trkpt lat="43.57934" lon="5.06711">
        <ele>88</ele>
        <time>2019-12-16T14:17:22Z</time>
      </trkpt>
      <trkpt lat="43.57933" lon="5.06712">
        <ele>87</ele>
        <time>2019-12-16T14:17:23Z</time>
      </trkpt>
      <trkpt lat="43.57932" lon="5.06713">
        <ele>87</ele>
        <time>2019-12-16T14:17:24Z</time>
      </trkpt>
      <trkpt lat="43.5793" lon="5.06714">
        <ele>87</ele>
        <time>2019-12-16T14:17:25Z</time>
      </trkpt>
      <trkpt lat="43.57929" lon="5.06715">
        <ele>87</ele>
        <time>2019-12-16T14:17:26Z</time>
      </trkpt>
      <trkpt lat="43.57928" lon="5.06716">
        <ele>87</ele>
        <time>2019-12-16T14:17:27Z</time>
      </trkpt>
      <trkpt lat="43.57928" lon="5.06717">
        <ele>87</ele>
        <time>2019-12-16T14:17:28Z</time>
      </trkpt>
      <trkpt lat="43.57927" lon="5.06718">
        <ele>87</ele>
        <time>2019-12-16T14:17:29Z</time>
      </trkpt>
      <trkpt lat="43.57926" lon="5.06719">
        <ele>87</ele>
        <time>2019-12-16T14:17:30Z</time>
      </trkpt>
      <trkpt lat="43.57926" lon="5.0672">
        <ele>87</ele>
        <time>2019-12-16T14:17:31Z</time>
      </trkpt>
      <trkpt lat="43.57926" lon="5.06721">
        <ele>87</ele>
        <time>2019-12-16T14:17:32Z</time>
      </trkpt>
      <trkpt lat="43.57926" lon="5.06722">
        <ele>87</ele>
        <time>2019-12-16T14:17:33Z</time>
      </trkpt>
      <trkpt lat="43.57926" lon="5.06724">
        <ele>87</ele>
        <time>2019-12-16T14:17:34Z</time>
      </trkpt>
      <trkpt lat="43.57926" lon="5.06725">
        <ele>87</ele>
        <time>2019-12-16T14:17:35Z</time>
      </trkpt>
      <trkpt lat="43.57926" lon="5.06726">
        <ele>87</ele>
        <time>2019-12-16T14:17:36Z</time>
      </trkpt>
      <trkpt lat="43.57927" lon="5.06728">
        <ele>87</ele>
        <time>2019-12-16T14:17:37Z</time>
      </trkpt>
      <trkpt lat="43.57928" lon="5.06729">
        <ele>87</ele>
        <time>2019-12-16T14:17:38Z</time>
      </trkpt>
      <trkpt lat="43.57929" lon="5.0673">
        <ele>87</ele>
        <time>2019-12-16T14:17:39Z</time>
      </trkpt>
      <trkpt lat="43.5793" lon="5.06731">
        <ele>87</ele>
        <time>2019-12-16T14:17:40Z</time>
      </trkpt>
      <trkpt lat="43.57931" lon="5.06732">
        <ele>87</ele>
        <time>2019-12-16T14:17:41Z</time>
      </trkpt>
      <trkpt lat="43.57932" lon="5.06733">
        <ele>87</ele>
        <time>2019-12-16T14:17:42Z</time>
      </trkpt>
      <trkpt lat="43.57933" lon="5.06734">
        <ele>87</ele>
        <time>2019-12-16T14:17:43Z</time>
      </trkpt>
      <trkpt lat="43.57934" lon="5.06735">
        <ele>87</ele>
        <time>2019-12-16T14:17:44Z</time>
      </trkpt>
      <trkpt lat="43.57935" lon="5.06735">
        <ele>86</ele>
        <time>2019-12-16T14:17:45Z</time>
      </trkpt>
      <trkpt lat="43.57936" lon="5.06736">
        <ele>86</ele>
        <time>2019-12-16T14:17:46Z</time>
      </trkpt>
      <trkpt lat="43.57937" lon="5.06736">
        <ele>86</ele>
        <time>2019-12-16T14:17:47Z</time>
      </trkpt>
      <trkpt lat="43.57938" lon="5.06737">
        <ele>86</ele>
        <time>2019-12-16T14:17:48Z</time>
      </trkpt>
      <trkpt lat="43.57939" lon="5.06737">
        <ele>86</ele>
        <time>2019-12-16T14:17:49Z</time>
      </trkpt>
      <trkpt lat="43.5794" lon="5.06738">
        <ele>86</ele>
        <time>2019-12-16T14:17:50Z</time>
      </trkpt>
      <trkpt lat="43.57942" lon="5.06738">
        <ele>86</ele>
        <time>2019-12-16T14:17:51Z</time>
      </trkpt>
      <trkpt lat="43.57943" lon="5.06739">
        <ele>86</ele>
        <time>2019-12-16T14:17:52Z</time>
      </trkpt>
      <trkpt lat="43.57944" lon="5.06739">
        <ele>86</ele>
        <time>2019-12-16T14:17:53Z</time>
      </trkpt>
      <trkpt lat="43.57945" lon="5.0674">
        <ele>86</ele>
        <time>2019-12-16T14:17:54Z</time>
      </trkpt>
      <trkpt lat="43.57946" lon="5.06741">
        <ele>86</ele>
        <time>2019-12-16T14:17:55Z</time>
      </trkpt>
      <trkpt lat="43.57947" lon="5.06741">
        <ele>86</ele>
        <time>2019-12-16T14:17:56Z</time>
      </trkpt>
      <trkpt lat="43.57948" lon="5.06742">
        <ele>86</ele>
        <time>2019-12-16T14:17:57Z</time>
      </trkpt>
      <trkpt lat="43.57949" lon="5.06743">
        <ele>86</ele>
        <time>2019-12-16T14:17:58Z</time>
      </trkpt>
      <trkpt lat="43.5795" lon="5.06744">
        <ele>86</ele>
        <time>2019-12-16T14:17:59Z</time>
      </trkpt>
      <trkpt lat="43.57951" lon="5.06745">
        <ele>86</ele>
        <time>2019-12-16T14:18:00Z</time>
      </trkpt>
      <trkpt lat="43.57952" lon="5.06746">
        <ele>86</ele>
        <time>2019-12-16T14:18:01Z</time>
      </trkpt>
      <trkpt lat="43.57952" lon="5.06747">
        <ele>86</ele>
        <time>2019-12-16T14:18:02Z</time>
      </trkpt>
      <trkpt lat="43.57953" lon="5.06749">
        <ele>86</ele>
        <time>2019-12-16T14:18:03Z</time>
      </trkpt>
      <trkpt lat="43.57954" lon="5.0675">
        <ele>86</ele>
        <time>2019-12-16T14:18:04Z</time>
      </trkpt>
      <trkpt lat="43.57955" lon="5.06751">
        <ele>81</ele>
        <time>2019-12-16T14:18:05Z</time>
      </trkpt>
      <trkpt lat="43.57955" lon="5.06753">
        <ele>81</ele>
        <time>2019-12-16T14:18:06Z</time>
      </trkpt>
      <trkpt lat="43.57956" lon="5.06754">
        <ele>81</ele>
        <time>2019-12-16T14:18:07Z</time>
      </trkpt>
      <trkpt lat="43.57957" lon="5.06756">
        <ele>81</ele>
        <time>2019-12-16T14:18:08Z</time>
      </trkpt>
      <trkpt lat="43.57957" lon="5.06757">
        <ele>81</ele>
        <time>2019-12-16T14:18:09Z</time>
      </trkpt>
      <trkpt lat="43.57958" lon="5.06759">
        <ele>81</ele>
        <time>2019-12-16T14:18:10Z</time>
      </trkpt>
      <trkpt lat="43.57958" lon="5.06761">
        <ele>81</ele>
        <time>2019-12-16T14:18:11Z</time>
      </trkpt>
      <trkpt lat="43.57958" lon="5.06762">
        <ele>81</ele>
        <time>2019-12-16T14:18:12Z</time>
      </trkpt>
      <trkpt lat="43.57959" lon="5.06764">
        <ele>81</ele>
        <time>2019-12-16T14:18:13Z</time>
      </trkpt>
      <trkpt lat="43.57959" lon="5.06766">
        <ele>81</ele>
        <time>2019-12-16T14:18:14Z</time>
      </trkpt>
      <trkpt lat="43.57959" lon="5.06767">
        <ele>81</ele>
        <time>2019-12-16T14:18:15Z</time>
      </trkpt>
      <trkpt lat="43.57959" lon="5.06769">
        <ele>81</ele>
        <time>2019-12-16T14:18:16Z</time>
      </trkpt>
      <trkpt lat="43.57959" lon="5.06771">
        <ele>81</ele>
        <time>2019-12-16T14:18:17Z</time>
      </trkpt>
      <trkpt lat="43.57958" lon="5.06773">
        <ele>80</ele>
        <time>2019-12-16T14:18:18Z</time>
      </trkpt>
      <trkpt lat="43.57958" lon="5.06775">
        <ele>80</ele>
        <time>2019-12-16T14:18:19Z</time>
      </trkpt>
      <trkpt lat="43.57958" lon="5.06776">
        <ele>80</ele>
        <time>2019-12-16T14:18:20Z</time>
      </trkpt>
      <trkpt lat="43.57958" lon="5.06778">
        <ele>80</ele>
        <time>2019-12-16T14:18:21Z</time>
      </trkpt>
      <trkpt lat="43.57958" lon="5.0678">
        <ele>80</ele>
        <time>2019-12-16T14:18:22Z</time>
      </trkpt>
      <trkpt lat="43.57958" lon="5.06782">
        <ele>80</ele>
        <time>2019-12-16T14:18:23Z</time>
      </trkpt>
      <trkpt lat="43.57957" lon="5.06784">
        <ele>80</ele>
        <time>2019-12-16T14:18:24Z</time>
      </trkpt>
      <trkpt lat="43.57957" lon="5.06786">
        <ele>80</ele>
        <time>2019-12-16T14:18:25Z</time>
      </trkpt>
      <trkpt lat="43.57957" lon="5.06787">
        <ele>80</ele>
        <time>2019-12-16T14:18:26Z</time>
      </trkpt>
      <trkpt lat="43.57957" lon="5.06789">
        <ele>80</ele>
        <time>2019-12-16T14:18:27Z</time>
      </trkpt>
      <trkpt lat="43.57957" lon="5.06791">
        <ele>80</ele>
        <time>2019-12-16T14:18:28Z</time>
      </trkpt>
      <trkpt lat="43.57957" lon="5.06793">
        <ele>80</ele>
        <time>2019-12-16T14:18:29Z</time>
      </trkpt>
      <trkpt lat="43.57958" lon="5.06795">
        <ele>80</ele>
        <time>2019-12-16T14:18:30Z</time>
      </trkpt>
      <trkpt lat="43.57958" lon="5.06796">
        <ele>80</ele>
        <time>2019-12-16T14:18:31Z</time>
      </trkpt>
      <trkpt lat="43.57958" lon="5.06798">
        <ele>80</ele>
        <time>2019-12-16T14:18:32Z</time>
      </trkpt>
      <trkpt lat="43.57958" lon="5.06799">
        <ele>79</ele>
        <time>2019-12-16T14:18:33Z</time>
      </trkpt>
      <trkpt lat="43.57958" lon="5.06801">
        <ele>79</ele>
        <time>2019-12-16T14:18:34Z</time>
      </trkpt>
      <trkpt lat="43.57958" lon="5.06802">
        <ele>79</ele>
        <time>2019-12-16T14:18:35Z</time>
      </trkpt>
      <trkpt lat="43.57958" lon="5.06803">
        <ele>79</ele>
        <time>2019-12-16T14:18:36Z</time>
      </trkpt>
      <trkpt lat="43.57958" lon="5.06805">
        <ele>79</ele>
        <time>2019-12-16T14:18:37Z</time>
      </trkpt>
      <trkpt lat="43.57959" lon="5.06806">
        <ele>79</ele>
        <time>2019-12-16T14:18:38Z</time>
      </trkpt>
      <trkpt lat="43.57959" lon="5.06807">
        <ele>79</ele>
        <time>2019-12-16T14:18:39Z</time>
      </trkpt>
      <trkpt lat="43.57959" lon="5.06808">
        <ele>79</ele>
        <time>2019-12-16T14:18:40Z</time>
      </trkpt>
      <trkpt lat="43.5796" lon="5.0681">
        <ele>79</ele>
        <time>2019-12-16T14:18:41Z</time>
      </trkpt>
      <trkpt lat="43.5796" lon="5.06811">
        <ele>79</ele>
        <time>2019-12-16T14:18:42Z</time>
      </trkpt>
      <trkpt lat="43.57961" lon="5.06813">
        <ele>79</ele>
        <time>2019-12-16T14:18:43Z</time>
      </trkpt>
      <trkpt lat="43.57961" lon="5.06814">
        <ele>79</ele>
        <time>2019-12-16T14:18:44Z</time>
      </trkpt>
      <trkpt lat="43.57962" lon="5.06816">
        <ele>79</ele>
        <time>2019-12-16T14:18:45Z</time>
      </trkpt>
      <trkpt lat="43.57962" lon="5.06817">
        <ele>79</ele>
        <time>2019-12-16T14:18:46Z</time>
      </trkpt>
      <trkpt lat="43.57962" lon="5.06819">
        <ele>79</ele>
        <time>2019-12-16T14:18:47Z</time>
      </trkpt>
      <trkpt lat="43.57963" lon="5.06821">
        <ele>79</ele>
        <time>2019-12-16T14:18:48Z</time>
      </trkpt>
      <trkpt lat="43.57963" lon="5.06822">
        <ele>79</ele>
        <time>2019-12-16T14:18:49Z</time>
      </trkpt>
      <trkpt lat="43.57964" lon="5.06824">
        <ele>79</ele>
        <time>2019-12-16T14:18:50Z</time>
      </trkpt>
      <trkpt lat="43.57964" lon="5.06826">
        <ele>78</ele>
        <time>2019-12-16T14:18:51Z</time>
      </trkpt>
      <trkpt lat="43.57964" lon="5.06827">
        <ele>78</ele>
        <time>2019-12-16T14:18:52Z</time>
      </trkpt>
      <trkpt lat="43.57965" lon="5.06829">
        <ele>78</ele>
        <time>2019-12-16T14:18:53Z</time>
      </trkpt>
      <trkpt lat="43.57965" lon="5.06831">
        <ele>78</ele>
        <time>2019-12-16T14:18:54Z</time>
      </trkpt>
      <trkpt lat="43.57965" lon="5.06833">
        <ele>78</ele>
        <time>2019-12-16T14:18:55Z</time>
      </trkpt>
      <trkpt lat="43.57966" lon="5.06835">
        <ele>75</ele>
        <time>2019-12-16T14:18:56Z</time>
      </trkpt>
      <trkpt lat="43.57966" lon="5.06836">
        <ele>75</ele>
        <time>2019-12-16T14:18:57Z</time>
      </trkpt>
      <trkpt lat="43.57966" lon="5.06838">
        <ele>75</ele>
        <time>2019-12-16T14:18:58Z</time>
      </trkpt>
      <trkpt lat="43.57967" lon="5.0684">
        <ele>75</ele>
        <time>2019-12-16T14:18:59Z</time>
      </trkpt>
      <trkpt lat="43.57967" lon="5.06842">
        <ele>75</ele>
        <time>2019-12-16T14:19:00Z</time>
      </trkpt>
      <trkpt lat="43.57967" lon="5.06843">
        <ele>75</ele>
        <time>2019-12-16T14:19:01Z</time>
      </trkpt>
      <trkpt lat="43.57967" lon="5.06845">
        <ele>75</ele>
        <time>2019-12-16T14:19:02Z</time>
      </trkpt>
      <trkpt lat="43.57968" lon="5.06847">
        <ele>75</ele>
        <time>2019-12-16T14:19:03Z</time>
      </trkpt>
      <trkpt lat="43.57968" lon="5.06848">
        <ele>75</ele>
        <time>2019-12-16T14:19:04Z</time>
      </trkpt>
      <trkpt lat="43.57968" lon="5.0685">
        <ele>75</ele>
        <time>2019-12-16T14:19:05Z</time>
      </trkpt>
      <trkpt lat="43.57969" lon="5.06852">
        <ele>75</ele>
        <time>2019-12-16T14:19:06Z</time>
      </trkpt>
      <trkpt lat="43.57969" lon="5.06854">
        <ele>75</ele>
        <time>2019-12-16T14:19:07Z</time>
      </trkpt>
      <trkpt lat="43.57969" lon="5.06855">
        <ele>75</ele>
        <time>2019-12-16T14:19:08Z</time>
      </trkpt>
      <trkpt lat="43.57969" lon="5.06857">
        <ele>75</ele>
        <time>2019-12-16T14:19:09Z</time>
      </trkpt>
      <trkpt lat="43.5797" lon="5.06859">
        <ele>75</ele>
        <time>2019-12-16T14:19:10Z</time>
      </trkpt>
      <trkpt lat="43.5797" lon="5.0686">
        <ele>75</ele>
        <time>2019-12-16T14:19:11Z</time>
      </trkpt>
      <trkpt lat="43.57971" lon="5.06862">
        <ele>75</ele>
        <time>2019-12-16T14:19:12Z</time>
      </trkpt>
      <trkpt lat="43.57971" lon="5.06864">
        <ele>75</ele>
        <time>2019-12-16T14:19:13Z</time>
      </trkpt>
      <trkpt lat="43.57971" lon="5.06865">
        <ele>75</ele>
        <time>2019-12-16T14:19:14Z</time>
      </trkpt>
      <trkpt lat="43.57971" lon="5.06867">
        <ele>74</ele>
        <time>2019-12-16T14:19:15Z</time>
      </trkpt>
      <trkpt lat="43.57972" lon="5.06869">
        <ele>74</ele>
        <time>2019-12-16T14:19:16Z</time>
      </trkpt>
      <trkpt lat="43.57972" lon="5.0687">
        <ele>74</ele>
        <time>2019-12-16T14:19:17Z</time>
      </trkpt>
      <trkpt lat="43.57972" lon="5.06872">
        <ele>74</ele>
        <time>2019-12-16T14:19:18Z</time>
      </trkpt>
      <trkpt lat="43.57973" lon="5.06873">
        <ele>74</ele>
        <time>2019-12-16T14:19:19Z</time>
      </trkpt>
      <trkpt lat="43.57973" lon="5.06875">
        <ele>74</ele>
        <time>2019-12-16T14:19:20Z</time>
      </trkpt>
      <trkpt lat="43.57973" lon="5.06877">
        <ele>74</ele>
        <time>2019-12-16T14:19:21Z</time>
      </trkpt>
      <trkpt lat="43.57974" lon="5.06878">
        <ele>74</ele>
        <time>2019-12-16T14:19:22Z</time>
      </trkpt>
      <trkpt lat="43.57974" lon="5.0688">
        <ele>74</ele>
        <time>2019-12-16T14:19:23Z</time>
      </trkpt>
      <trkpt lat="43.57974" lon="5.06881">
        <ele>74</ele>
        <time>2019-12-16T14:19:24Z</time>
      </trkpt>
      <trkpt lat="43.57975" lon="5.06883">
        <ele>74</ele>
        <time>2019-12-16T14:19:25Z</time>
      </trkpt>
      <trkpt lat="43.57975" lon="5.06885">
        <ele>74</ele>
        <time>2019-12-16T14:19:26Z</time>
      </trkpt>
      <trkpt lat="43.57975" lon="5.06886">
        <ele>74</ele>
        <time>2019-12-16T14:19:27Z</time>
      </trkpt>
      <trkpt lat="43.57976" lon="5.06888">
        <ele>74</ele>
        <time>2019-12-16T14:19:28Z</time>
      </trkpt>
      <trkpt lat="43.57976" lon="5.06889">
        <ele>74</ele>
        <time>2019-12-16T14:19:29Z</time>
      </trkpt>
      <trkpt lat="43.57976" lon="5.06891">
        <ele>74</ele>
        <time>2019-12-16T14:19:30Z</time>
      </trkpt>
      <trkpt lat="43.57977" lon="5.06893">
        <ele>74</ele>
        <time>2019-12-16T14:19:31Z</time>
      </trkpt>
      <trkpt lat="43.57977" lon="5.06894">
        <ele>74</ele>
        <time>2019-12-16T14:19:32Z</time>
      </trkpt>
      <trkpt lat="43.57977" lon="5.06896">
        <ele>74</ele>
        <time>2019-12-16T14:19:33Z</time>
      </trkpt>
      <trkpt lat="43.57978" lon="5.06897">
        <ele>73</ele>
        <time>2019-12-16T14:19:34Z</time>
      </trkpt>
      <trkpt lat="43.57978" lon="5.06899">
        <ele>73</ele>
        <time>2019-12-16T14:19:35Z</time>
      </trkpt>
      <trkpt lat="43.57978" lon="5.06901">
        <ele>73</ele>
        <time>2019-12-16T14:19:36Z</time>
      </trkpt>
      <trkpt lat="43.57979" lon="5.06902">
        <ele>73</ele>
        <time>2019-12-16T14:19:37Z</time>
      </trkpt>
      <trkpt lat="43.57979" lon="5.06904">
        <ele>73</ele>
        <time>2019-12-16T14:19:38Z</time>
      </trkpt>
      <trkpt lat="43.57979" lon="5.06905">
        <ele>73</ele>
        <time>2019-12-16T14:19:39Z</time>
      </trkpt>
      <trkpt lat="43.5798" lon="5.06907">
        <ele>73</ele>
        <time>2019-12-16T14:19:40Z</time>
      </trkpt>
      <trkpt lat="43.5798" lon="5.06909">
        <ele>73</ele>
        <time>2019-12-16T14:19:41Z</time>
      </trkpt>
      <trkpt lat="43.57981" lon="5.0691">
        <ele>73</ele>
        <time>2019-12-16T14:19:42Z</time>
      </trkpt>
      <trkpt lat="43.57981" lon="5.06912">
        <ele>73</ele>
        <time>2019-12-16T14:19:43Z</time>
      </trkpt>
      <trkpt lat="43.57981" lon="5.06913">
        <ele>73</ele>
        <time>2019-12-16T14:19:44Z</time>
      </trkpt>
      <trkpt lat="43.57982" lon="5.06915">
        <ele>73</ele>
        <time>2019-12-16T14:19:45Z</time>
      </trkpt>
      <trkpt lat="43.57982" lon="5.06916">
        <ele>73</ele>
        <time>2019-12-16T14:19:46Z</time>
      </trkpt>
      <trkpt lat="43.57982" lon="5.06918">
        <ele>72</ele>
        <time>2019-12-16T14:19:47Z</time>
      </trkpt>
      <trkpt lat="43.57983" lon="5.0692">
        <ele>72</ele>
        <time>2019-12-16T14:19:48Z</time>
      </trkpt>
      <trkpt lat="43.57983" lon="5.06921">
        <ele>72</ele>
        <time>2019-12-16T14:19:49Z</time>
      </trkpt>
      <trkpt lat="43.57984" lon="5.06923">
        <ele>72</ele>
        <time>2019-12-16T14:19:50Z</time>
      </trkpt>
      <trkpt lat="43.57984" lon="5.06925">
        <ele>72</ele>
        <time>2019-12-16T14:19:51Z</time>
      </trkpt>
      <trkpt lat="43.57985" lon="5.06926">
        <ele>72</ele>
        <time>2019-12-16T14:19:52Z</time>
      </trkpt>
      <trkpt lat="43.57985" lon="5.06928">
        <ele>72</ele>
        <time>2019-12-16T14:19:53Z</time>
      </trkpt>
      <trkpt lat="43.57985" lon="5.06929">
        <ele>72</ele>
        <time>2019-12-16T14:19:54Z</time>
      </trkpt>
      <trkpt lat="43.57986" lon="5.06931">
        <ele>72</ele>
        <time>2019-12-16T14:19:55Z</time>
      </trkpt>
      <trkpt lat="43.57986" lon="5.06932">
        <ele>72</ele>
        <time>2019-12-16T14:19:56Z</time>
      </trkpt>
      <trkpt lat="43.57987" lon="5.06934">
        <ele>72</ele>
        <time>2019-12-16T14:19:57Z</time>
      </trkpt>
      <trkpt lat="43.57987" lon="5.06936">
        <ele>72</ele>
        <time>2019-12-16T14:19:58Z</time>
      </trkpt>
      <trkpt lat="43.57988" lon="5.06937">
        <ele>73</ele>
        <time>2019-12-16T14:19:59Z</time>
      </trkpt>
      <trkpt lat="43.57988" lon="5.06939">
        <ele>73</ele>
        <time>2019-12-16T14:20:00Z</time>
      </trkpt>
      <trkpt lat="43.57988" lon="5.06941">
        <ele>73</ele>
        <time>2019-12-16T14:20:01Z</time>
      </trkpt>
      <trkpt lat="43.57988" lon="5.06942">
        <ele>73</ele>
        <time>2019-12-16T14:20:02Z</time>
      </trkpt>
      <trkpt lat="43.57989" lon="5.06944">
        <ele>73</ele>
        <time>2019-12-16T14:20:03Z</time>
      </trkpt>
      <trkpt lat="43.57989" lon="5.06946">
        <ele>73</ele>
        <time>2019-12-16T14:20:04Z</time>
      </trkpt>
      <trkpt lat="43.57989" lon="5.06947">
        <ele>73</ele>
        <time>2019-12-16T14:20:05Z</time>
      </trkpt>
      <trkpt lat="43.5799" lon="5.06948">
        <ele>73</ele>
        <time>2019-12-16T14:20:06Z</time>
      </trkpt>
      <trkpt lat="43.5799" lon="5.0695">
        <ele>73</ele>
        <time>2019-12-16T14:20:07Z</time>
      </trkpt>
      <trkpt lat="43.5799" lon="5.0695">
        <ele>73</ele>
        <time>2019-12-16T14:20:08Z</time>
      </trkpt>
      <trkpt lat="43.5799" lon="5.06951">
        <ele>73</ele>
        <time>2019-12-16T14:20:09Z</time>
      </trkpt>
      <trkpt lat="43.5799" lon="5.06951">
        <ele>73</ele>
        <time>2019-12-16T14:20:10Z</time>
      </trkpt>
      <trkpt lat="43.5799" lon="5.06951">
        <ele>73</ele>
        <time>2019-12-16T14:20:11Z</time>
      </trkpt>
      <trkpt lat="43.5799" lon="5.06951">
        <ele>73</ele>
        <time>2019-12-16T14:20:12Z</time>
      </trkpt>
      <trkpt lat="43.5799" lon="5.06951">
        <ele>73</ele>
        <time>2019-12-16T14:20:13Z</time>
      </trkpt>
      <trkpt lat="43.5799" lon="5.06951">
        <ele>73</ele>
        <time>2019-12-16T14:20:14Z</time>
      </trkpt>
      <trkpt lat="43.5799" lon="5.06951">
        <ele>73</ele>
        <time>2019-12-16T14:20:15Z</time>
      </trkpt>
      <trkpt lat="43.5799" lon="5.06951">
        <ele>73</ele>
        <time>2019-12-16T14:20:16Z</time>
      </trkpt>
      <trkpt lat="43.5799" lon="5.06951">
        <ele>73</ele>
        <time>2019-12-16T14:20:17Z</time>
      </trkpt>
      <trkpt lat="43.5799" lon="5.06951">
        <ele>73</ele>
        <time>2019-12-16T14:20:18Z</time>
      </trkpt>
      <trkpt lat="43.5799" lon="5.06951">
        <ele>73</ele>
        <time>2019-12-16T14:20:19Z</time>
      </trkpt>
      <trkpt lat="43.5799" lon="5.06951">
        <ele>73</ele>
        <time>2019-12-16T14:20:20Z</time>
      </trkpt>
      <trkpt lat="43.5799" lon="5.06951">
        <ele>73</ele>
        <time>2019-12-16T14:20:21Z</time>
      </trkpt>
      <trkpt lat="43.5799" lon="5.06952">
        <ele>73</ele>
        <time>2019-12-16T14:20:22Z</time>
      </trkpt>
      <trkpt lat="43.5799" lon="5.06952">
        <ele>73</ele>
        <time>2019-12-16T14:20:23Z</time>
      </trkpt>
      <trkpt lat="43.5799" lon="5.06952">
        <ele>73</ele>
        <time>2019-12-16T14:20:24Z</time>
      </trkpt>
      <trkpt lat="43.5799" lon="5.06953">
        <ele>73</ele>
        <time>2019-12-16T14:20:25Z</time>
      </trkpt>
      <trkpt lat="43.5799" lon="5.06955">
        <ele>73</ele>
        <time>2019-12-16T14:20:26Z</time>
      </trkpt>
      <trkpt lat="43.5799" lon="5.06956">
        <ele>73</ele>
        <time>2019-12-16T14:20:27Z</time>
      </trkpt>
      <trkpt lat="43.5799" lon="5.06957">
        <ele>73</ele>
        <time>2019-12-16T14:20:28Z</time>
      </trkpt>
      <trkpt lat="43.5799" lon="5.06959">
        <ele>73</ele>
        <time>2019-12-16T14:20:29Z</time>
      </trkpt>
      <trkpt lat="43.5799" lon="5.0696">
        <ele>73</ele>
        <time>2019-12-16T14:20:30Z</time>
      </trkpt>
      <trkpt lat="43.5799" lon="5.06962">
        <ele>73</ele>
        <time>2019-12-16T14:20:31Z</time>
      </trkpt>
      <trkpt lat="43.5799" lon="5.06964">
        <ele>73</ele>
        <time>2019-12-16T14:20:32Z</time>
      </trkpt>
      <trkpt lat="43.57991" lon="5.06965">
        <ele>73</ele>
        <time>2019-12-16T14:20:33Z</time>
      </trkpt>
      <trkpt lat="43.57991" lon="5.06967">
        <ele>73</ele>
        <time>2019-12-16T14:20:34Z</time>
      </trkpt>
      <trkpt lat="43.57991" lon="5.06969">
        <ele>73</ele>
        <time>2019-12-16T14:20:35Z</time>
      </trkpt>
      <trkpt lat="43.57991" lon="5.06971">
        <ele>73</ele>
        <time>2019-12-16T14:20:36Z</time>
      </trkpt>
      <trkpt lat="43.57992" lon="5.06972">
        <ele>73</ele>
        <time>2019-12-16T14:20:37Z</time>
      </trkpt>
      <trkpt lat="43.57992" lon="5.06974">
        <ele>73</ele>
        <time>2019-12-16T14:20:38Z</time>
      </trkpt>
      <trkpt lat="43.57993" lon="5.06975">
        <ele>73</ele>
        <time>2019-12-16T14:20:39Z</time>
      </trkpt>
      <trkpt lat="43.57993" lon="5.06976">
        <ele>73</ele>
        <time>2019-12-16T14:20:40Z</time>
      </trkpt>
      <trkpt lat="43.57994" lon="5.06978">
        <ele>73</ele>
        <time>2019-12-16T14:20:41Z</time>
      </trkpt>
      <trkpt lat="43.57994" lon="5.06978">
        <ele>73</ele>
        <time>2019-12-16T14:20:42Z</time>
      </trkpt>
      <trkpt lat="43.57994" lon="5.06979">
        <ele>73</ele>
        <time>2019-12-16T14:20:43Z</time>
      </trkpt>
      <trkpt lat="43.57994" lon="5.06979">
        <ele>73</ele>
        <time>2019-12-16T14:20:44Z</time>
      </trkpt>
      <trkpt lat="43.57995" lon="5.0698">
        <ele>73</ele>
        <time>2019-12-16T14:20:45Z</time>
      </trkpt>
      <trkpt lat="43.57995" lon="5.0698">
        <ele>73</ele>
        <time>2019-12-16T14:20:46Z</time>
      </trkpt>
      <trkpt lat="43.57995" lon="5.0698">
        <ele>73</ele>
        <time>2019-12-16T14:20:47Z</time>
      </trkpt>
      <trkpt lat="43.57995" lon="5.0698">
        <ele>73</ele>
        <time>2019-12-16T14:20:48Z</time>
      </trkpt>
      <trkpt lat="43.57995" lon="5.0698">
        <ele>73</ele>
        <time>2019-12-16T14:20:49Z</time>
      </trkpt>
      <trkpt lat="43.57995" lon="5.0698">
        <ele>73</ele>
        <time>2019-12-16T14:20:50Z</time>
      </trkpt>
      <trkpt lat="43.57995" lon="5.06981">
        <ele>73</ele>
        <time>2019-12-16T14:20:51Z</time>
      </trkpt>
      <trkpt lat="43.57995" lon="5.06981">
        <ele>73</ele>
        <time>2019-12-16T14:20:52Z</time>
      </trkpt>
      <trkpt lat="43.57995" lon="5.06982">
        <ele>73</ele>
        <time>2019-12-16T14:20:53Z</time>
      </trkpt>
      <trkpt lat="43.57995" lon="5.06983">
        <ele>73</ele>
        <time>2019-12-16T14:20:54Z</time>
      </trkpt>
      <trkpt lat="43.57996" lon="5.06985">
        <ele>73</ele>
        <time>2019-12-16T14:20:55Z</time>
      </trkpt>
      <trkpt lat="43.57996" lon="5.06986">
        <ele>73</ele>
        <time>2019-12-16T14:20:56Z</time>
      </trkpt>
      <trkpt lat="43.57996" lon="5.06987">
        <ele>73</ele>
        <time>2019-12-16T14:20:57Z</time>
      </trkpt>
      <trkpt lat="43.57996" lon="5.06987">
        <ele>73</ele>
        <time>2019-12-16T14:20:58Z</time>
      </trkpt>
      <trkpt lat="43.57996" lon="5.06987">
        <ele>73</ele>
        <time>2019-12-16T14:20:59Z</time>
      </trkpt>
      <trkpt lat="43.57996" lon="5.06987">
        <ele>73</ele>
        <time>2019-12-16T14:21:00Z</time>
      </trkpt>
      <trkpt lat="43.57996" lon="5.06987">
        <ele>73</ele>
        <time>2019-12-16T14:21:01Z</time>
      </trkpt>
      <trkpt lat="43.57996" lon="5.06988">
        <ele>73</ele>
        <time>2019-12-16T14:21:02Z</time>
      </trkpt>
      <trkpt lat="43.57997" lon="5.06989">
        <ele>73</ele>
        <time>2019-12-16T14:21:03Z</time>
      </trkpt>
      <trkpt lat="43.57997" lon="5.0699">
        <ele>73</ele>
        <time>2019-12-16T14:21:04Z</time>
      </trkpt>
      <trkpt lat="43.57997" lon="5.0699">
        <ele>73</ele>
        <time>2019-12-16T14:21:05Z</time>
      </trkpt>
      <trkpt lat="43.57997" lon="5.06991">
        <ele>73</ele>
        <time>2019-12-16T14:21:06Z</time>
      </trkpt>
      <trkpt lat="43.57997" lon="5.06991">
        <ele>73</ele>
        <time>2019-12-16T14:21:07Z</time>
      </trkpt>
      <trkpt lat="43.57997" lon="5.0699">
        <ele>73</ele>
        <time>2019-12-16T14:21:08Z</time>
      </trkpt>
      <trkpt lat="43.57997" lon="5.0699">
        <ele>73</ele>
        <time>2019-12-16T14:21:09Z</time>
      </trkpt>
      <trkpt lat="43.57997" lon="5.06989">
        <ele>73</ele>
        <time>2019-12-16T14:21:10Z</time>
      </trkpt>
      <trkpt lat="43.57997" lon="5.06989">
        <ele>73</ele>
        <time>2019-12-16T14:21:11Z</time>
      </trkpt>
      <trkpt lat="43.57997" lon="5.06988">
        <ele>73</ele>
        <time>2019-12-16T14:21:12Z</time>
      </trkpt>
      <trkpt lat="43.57996" lon="5.06987">
        <ele>73</ele>
        <time>2019-12-16T14:21:13Z</time>
      </trkpt>
      <trkpt lat="43.57996" lon="5.06986">
        <ele>73</ele>
        <time>2019-12-16T14:21:14Z</time>
      </trkpt>
      <trkpt lat="43.57996" lon="5.06986">
        <ele>73</ele>
        <time>2019-12-16T14:21:15Z</time>
      </trkpt>
      <trkpt lat="43.57996" lon="5.06985">
        <ele>73</ele>
        <time>2019-12-16T14:21:16Z</time>
      </trkpt>
      <trkpt lat="43.57995" lon="5.06984">
        <ele>73</ele>
        <time>2019-12-16T14:21:17Z</time>
      </trkpt>
      <trkpt lat="43.57995" lon="5.06984">
        <ele>73</ele>
        <time>2019-12-16T14:21:18Z</time>
      </trkpt>
      <trkpt lat="43.57995" lon="5.06983">
        <ele>73</ele>
        <time>2019-12-16T14:21:19Z</time>
      </trkpt>
      <trkpt lat="43.57995" lon="5.06983">
        <ele>73</ele>
        <time>2019-12-16T14:21:20Z</time>
      </trkpt>
      <trkpt lat="43.57994" lon="5.06983">
        <ele>73</ele>
        <time>2019-12-16T14:21:21Z</time>
      </trkpt>
      <trkpt lat="43.57994" lon="5.06982">
        <ele>73</ele>
        <time>2019-12-16T14:21:22Z</time>
      </trkpt>
      <trkpt lat="43.57994" lon="5.06982">
        <ele>73</ele>
        <time>2019-12-16T14:21:23Z</time>
      </trkpt>
      <trkpt lat="43.57994" lon="5.06982">
        <ele>73</ele>
        <time>2019-12-16T14:21:24Z</time>
      </trkpt>
      <trkpt lat="43.57994" lon="5.06982">
        <ele>73</ele>
        <time>2019-12-16T14:21:25Z</time>
      </trkpt>
      <trkpt lat="43.57994" lon="5.06982">
        <ele>73</ele>
        <time>2019-12-16T14:21:26Z</time>
      </trkpt>
      <trkpt lat="43.57994" lon="5.06982">
        <ele>73</ele>
        <time>2019-12-16T14:21:27Z</time>
      </trkpt>
      <trkpt lat="43.57994" lon="5.06982">
        <ele>73</ele>
        <time>2019-12-16T14:21:28Z</time>
      </trkpt>
      <trkpt lat="43.57994" lon="5.06982">
        <ele>73</ele>
        <time>2019-12-16T14:21:29Z</time>
      </trkpt>
      <trkpt lat="43.57994" lon="5.06982">
        <ele>73</ele>
        <time>2019-12-16T14:21:30Z</time>
      </trkpt>
      <trkpt lat="43.57994" lon="5.06981">
        <ele>73</ele>
        <time>2019-12-16T14:21:31Z</time>
      </trkpt>
      <trkpt lat="43.57994" lon="5.06981">
        <ele>73</ele>
        <time>2019-12-16T14:21:32Z</time>
      </trkpt>
      <trkpt lat="43.57994" lon="5.06981">
        <ele>73</ele>
        <time>2019-12-16T14:21:33Z</time>
      </trkpt>
      <trkpt lat="43.57994" lon="5.06981">
        <ele>73</ele>
        <time>2019-12-16T14:21:34Z</time>
      </trkpt>
      <trkpt lat="43.57994" lon="5.06981">
        <ele>73</ele>
        <time>2019-12-16T14:21:35Z</time>
      </trkpt>
      <trkpt lat="43.57994" lon="5.06981">
        <ele>73</ele>
        <time>2019-12-16T14:21:36Z</time>
      </trkpt>
      <trkpt lat="43.57994" lon="5.06981">
        <ele>73</ele>
        <time>2019-12-16T14:21:37Z</time>
      </trkpt>
      <trkpt lat="43.57994" lon="5.06981">
        <ele>73</ele>
        <time>2019-12-16T14:21:38Z</time>
      </trkpt>
      <trkpt lat="43.57994" lon="5.06981">
        <ele>73</ele>
        <time>2019-12-16T14:21:39Z</time>
      </trkpt>
      <trkpt lat="43.57994" lon="5.06981">
        <ele>73</ele>
        <time>2019-12-16T14:21:40Z</time>
      </trkpt>
      <trkpt lat="43.57994" lon="5.06981">
        <ele>73</ele>
        <time>2019-12-16T14:21:41Z</time>
      </trkpt>
      <trkpt lat="43.57994" lon="5.06981">
        <ele>73</ele>
        <time>2019-12-16T14:21:42Z</time>
      </trkpt>
      <trkpt lat="43.57994" lon="5.06981">
        <ele>73</ele>
        <time>2019-12-16T14:21:43Z</time>
      </trkpt>
      <trkpt lat="43.57994" lon="5.06981">
        <ele>73</ele>
        <time>2019-12-16T14:21:44Z</time>
      </trkpt>
      <trkpt lat="43.57994" lon="5.06981">
        <ele>73</ele>
        <time>2019-12-16T14:21:45Z</time>
      </trkpt>
      <trkpt lat="43.57994" lon="5.06981">
        <ele>73</ele>
        <time>2019-12-16T14:21:46Z</time>
      </trkpt>
      <trkpt lat="43.57994" lon="5.06981">
        <ele>73</ele>
        <time>2019-12-16T14:21:47Z</time>
      </trkpt>
      <trkpt lat="43.57994" lon="5.06981">
        <ele>73</ele>
        <time>2019-12-16T14:21:48Z</time>
      </trkpt>
      <trkpt lat="43.57994" lon="5.06981">
        <ele>73</ele>
        <time>2019-12-16T14:21:49Z</time>
      </trkpt>
      <trkpt lat="43.57994" lon="5.06981">
        <ele>73</ele>
        <time>2019-12-16T14:21:50Z</time>
      </trkpt>
      <trkpt lat="43.57994" lon="5.06981">
        <ele>73</ele>
        <time>2019-12-16T14:21:51Z</time>
      </trkpt>
      <trkpt lat="43.57994" lon="5.06981">
        <ele>73</ele>
        <time>2019-12-16T14:21:52Z</time>
      </trkpt>
      <trkpt lat="43.57994" lon="5.06981">
        <ele>73</ele>
        <time>2019-12-16T14:21:53Z</time>
      </trkpt>
      <trkpt lat="43.57994" lon="5.06981">
        <ele>73</ele>
        <time>2019-12-16T14:21:54Z</time>
      </trkpt>
      <trkpt lat="43.57994" lon="5.06981">
        <ele>73</ele>
        <time>2019-12-16T14:21:55Z</time>
      </trkpt>
      <trkpt lat="43.57994" lon="5.06981">
        <ele>73</ele>
        <time>2019-12-16T14:21:56Z</time>
      </trkpt>
      <trkpt lat="43.57994" lon="5.06981">
        <ele>73</ele>
        <time>2019-12-16T14:21:57Z</time>
      </trkpt>
      <trkpt lat="43.57994" lon="5.06981">
        <ele>73</ele>
        <time>2019-12-16T14:21:58Z</time>
      </trkpt>
      <trkpt lat="43.57994" lon="5.06981">
        <ele>73</ele>
        <time>2019-12-16T14:21:59Z</time>
      </trkpt>
      <trkpt lat="43.57994" lon="5.06981">
        <ele>73</ele>
        <time>2019-12-16T14:22:00Z</time>
      </trkpt>
      <trkpt lat="43.57994" lon="5.06981">
        <ele>73</ele>
        <time>2019-12-16T14:22:01Z</time>
      </trkpt>
      <trkpt lat="43.57994" lon="5.06981">
        <ele>73</ele>
        <time>2019-12-16T14:22:02Z</time>
      </trkpt>
      <trkpt lat="43.57994" lon="5.06981">
        <ele>73</ele>
        <time>2019-12-16T14:22:03Z</time>
      </trkpt>
      <trkpt lat="43.57994" lon="5.06981">
        <ele>73</ele>
        <time>2019-12-16T14:22:04Z</time>
      </trkpt>
      <trkpt lat="43.57994" lon="5.06981">
        <ele>73</ele>
        <time>2019-12-16T14:22:05Z</time>
      </trkpt>
      <trkpt lat="43.57994" lon="5.06981">
        <ele>73</ele>
        <time>2019-12-16T14:22:06Z</time>
      </trkpt>
      <trkpt lat="43.57994" lon="5.06981">
        <ele>73</ele>
        <time>2019-12-16T14:22:07Z</time>
      </trkpt>
      <trkpt lat="43.57994" lon="5.06981">
        <ele>73</ele>
        <time>2019-12-16T14:22:08Z</time>
      </trkpt>
      <trkpt lat="43.57994" lon="5.06981">
        <ele>73</ele>
        <time>2019-12-16T14:22:09Z</time>
      </trkpt>
      <trkpt lat="43.57994" lon="5.06981">
        <ele>73</ele>
        <time>2019-12-16T14:22:10Z</time>
      </trkpt>
      <trkpt lat="43.57994" lon="5.06981">
        <ele>73</ele>
        <time>2019-12-16T14:22:11Z</time>
      </trkpt>
      <trkpt lat="43.57994" lon="5.06981">
        <ele>73</ele>
        <time>2019-12-16T14:22:12Z</time>
      </trkpt>
      <trkpt lat="43.57994" lon="5.06982">
        <ele>73</ele>
        <time>2019-12-16T14:22:13Z</time>
      </trkpt>
      <trkpt lat="43.57994" lon="5.06982">
        <ele>73</ele>
        <time>2019-12-16T14:22:14Z</time>
      </trkpt>
      <trkpt lat="43.57994" lon="5.06982">
        <ele>73</ele>
        <time>2019-12-16T14:22:15Z</time>
      </trkpt>
      <trkpt lat="43.57994" lon="5.06983">
        <ele>73</ele>
        <time>2019-12-16T14:22:16Z</time>
      </trkpt>
      <trkpt lat="43.57994" lon="5.06983">
        <ele>73</ele>
        <time>2019-12-16T14:22:17Z</time>
      </trkpt>
      <trkpt lat="43.57994" lon="5.06984">
        <ele>73</ele>
        <time>2019-12-16T14:22:18Z</time>
      </trkpt>
      <trkpt lat="43.57994" lon="5.06985">
        <ele>73</ele>
        <time>2019-12-16T14:22:19Z</time>
      </trkpt>
      <trkpt lat="43.57994" lon="5.06986">
        <ele>73</ele>
        <time>2019-12-16T14:22:20Z</time>
      </trkpt>
      <trkpt lat="43.57994" lon="5.06987">
        <ele>73</ele>
        <time>2019-12-16T14:22:21Z</time>
      </trkpt>
      <trkpt lat="43.57995" lon="5.06988">
        <ele>73</ele>
        <time>2019-12-16T14:22:22Z</time>
      </trkpt>
      <trkpt lat="43.57995" lon="5.06989">
        <ele>73</ele>
        <time>2019-12-16T14:22:23Z</time>
      </trkpt>
      <trkpt lat="43.57995" lon="5.06991">
        <ele>73</ele>
        <time>2019-12-16T14:22:24Z</time>
      </trkpt>
      <trkpt lat="43.57996" lon="5.06992">
        <ele>73</ele>
        <time>2019-12-16T14:22:25Z</time>
      </trkpt>
      <trkpt lat="43.57996" lon="5.06993">
        <ele>73</ele>
        <time>2019-12-16T14:22:26Z</time>
      </trkpt>
      <trkpt lat="43.57997" lon="5.06995">
        <ele>73</ele>
        <time>2019-12-16T14:22:27Z</time>
      </trkpt>
      <trkpt lat="43.57997" lon="5.06996">
        <ele>73</ele>
        <time>2019-12-16T14:22:28Z</time>
      </trkpt>
      <trkpt lat="43.57997" lon="5.06997">
        <ele>73</ele>
        <time>2019-12-16T14:22:29Z</time>
      </trkpt>
      <trkpt lat="43.57998" lon="5.06999">
        <ele>73</ele>
        <time>2019-12-16T14:22:30Z</time>
      </trkpt>
      <trkpt lat="43.57998" lon="5.07">
        <ele>73</ele>
        <time>2019-12-16T14:22:31Z</time>
      </trkpt>
      <trkpt lat="43.57998" lon="5.07001">
        <ele>73</ele>
        <time>2019-12-16T14:22:32Z</time>
      </trkpt>
      <trkpt lat="43.57999" lon="5.07003">
        <ele>73</ele>
        <time>2019-12-16T14:22:33Z</time>
      </trkpt>
      <trkpt lat="43.57999" lon="5.07005">
        <ele>73</ele>
        <time>2019-12-16T14:22:34Z</time>
      </trkpt>
      <trkpt lat="43.57999" lon="5.07006">
        <ele>74</ele>
        <time>2019-12-16T14:22:35Z</time>
      </trkpt>
      <trkpt lat="43.57999" lon="5.07008">
        <ele>74</ele>
        <time>2019-12-16T14:22:36Z</time>
      </trkpt>
      <trkpt lat="43.57999" lon="5.07009">
        <ele>74</ele>
        <time>2019-12-16T14:22:37Z</time>
      </trkpt>
      <trkpt lat="43.57999" lon="5.07011">
        <ele>74</ele>
        <time>2019-12-16T14:22:38Z</time>
      </trkpt>
      <trkpt lat="43.57999" lon="5.07012">
        <ele>74</ele>
        <time>2019-12-16T14:22:39Z</time>
      </trkpt>
      <trkpt lat="43.57998" lon="5.07014">
        <ele>74</ele>
        <time>2019-12-16T14:22:40Z</time>
      </trkpt>
      <trkpt lat="43.57998" lon="5.07016">
        <ele>74</ele>
        <time>2019-12-16T14:22:41Z</time>
      </trkpt>
      <trkpt lat="43.57998" lon="5.07017">
        <ele>74</ele>
        <time>2019-12-16T14:22:42Z</time>
      </trkpt>
      <trkpt lat="43.57998" lon="5.07019">
        <ele>74</ele>
        <time>2019-12-16T14:22:43Z</time>
      </trkpt>
      <trkpt lat="43.57997" lon="5.07021">
        <ele>74</ele>
        <time>2019-12-16T14:22:44Z</time>
      </trkpt>
      <trkpt lat="43.57997" lon="5.07022">
        <ele>75</ele>
        <time>2019-12-16T14:22:45Z</time>
      </trkpt>
      <trkpt lat="43.57997" lon="5.07024">
        <ele>75</ele>
        <time>2019-12-16T14:22:46Z</time>
      </trkpt>
      <trkpt lat="43.57996" lon="5.07025">
        <ele>75</ele>
        <time>2019-12-16T14:22:47Z</time>
      </trkpt>
      <trkpt lat="43.57996" lon="5.07027">
        <ele>75</ele>
        <time>2019-12-16T14:22:48Z</time>
      </trkpt>
      <trkpt lat="43.57996" lon="5.07029">
        <ele>75</ele>
        <time>2019-12-16T14:22:49Z</time>
      </trkpt>
      <trkpt lat="43.57995" lon="5.0703">
        <ele>75</ele>
        <time>2019-12-16T14:22:50Z</time>
      </trkpt>
      <trkpt lat="43.57995" lon="5.07032">
        <ele>75</ele>
        <time>2019-12-16T14:22:51Z</time>
      </trkpt>
      <trkpt lat="43.57995" lon="5.07034">
        <ele>75</ele>
        <time>2019-12-16T14:22:52Z</time>
      </trkpt>
      <trkpt lat="43.57995" lon="5.07035">
        <ele>75</ele>
        <time>2019-12-16T14:22:53Z</time>
      </trkpt>
      <trkpt lat="43.57995" lon="5.07037">
        <ele>75</ele>
        <time>2019-12-16T14:22:54Z</time>
      </trkpt>
      <trkpt lat="43.57994" lon="5.07038">
        <ele>75</ele>
        <time>2019-12-16T14:22:55Z</time>
      </trkpt>
      <trkpt lat="43.57994" lon="5.0704">
        <ele>75</ele>
        <time>2019-12-16T14:22:56Z</time>
      </trkpt>
      <trkpt lat="43.57994" lon="5.07042">
        <ele>75</ele>
        <time>2019-12-16T14:22:57Z</time>
      </trkpt>
      <trkpt lat="43.57994" lon="5.07043">
        <ele>75</ele>
        <time>2019-12-16T14:22:58Z</time>
      </trkpt>
      <trkpt lat="43.57994" lon="5.07045">
        <ele>75</ele>
        <time>2019-12-16T14:22:59Z</time>
      </trkpt>
      <trkpt lat="43.57993" lon="5.07047">
        <ele>75</ele>
        <time>2019-12-16T14:23:00Z</time>
      </trkpt>
      <trkpt lat="43.57993" lon="5.07048">
        <ele>75</ele>
        <time>2019-12-16T14:23:01Z</time>
      </trkpt>
      <trkpt lat="43.57993" lon="5.0705">
        <ele>75</ele>
        <time>2019-12-16T14:23:02Z</time>
      </trkpt>
      <trkpt lat="43.57993" lon="5.07051">
        <ele>75</ele>
        <time>2019-12-16T14:23:03Z</time>
      </trkpt>
      <trkpt lat="43.57993" lon="5.07053">
        <ele>75</ele>
        <time>2019-12-16T14:23:04Z</time>
      </trkpt>
      <trkpt lat="43.57993" lon="5.07054">
        <ele>75</ele>
        <time>2019-12-16T14:23:05Z</time>
      </trkpt>
      <trkpt lat="43.57993" lon="5.07056">
        <ele>75</ele>
        <time>2019-12-16T14:23:06Z</time>
      </trkpt>
      <trkpt lat="43.57993" lon="5.07057">
        <ele>75</ele>
        <time>2019-12-16T14:23:07Z</time>
      </trkpt>
      <trkpt lat="43.57993" lon="5.07059">
        <ele>76</ele>
        <time>2019-12-16T14:23:08Z</time>
      </trkpt>
      <trkpt lat="43.57993" lon="5.0706">
        <ele>76</ele>
        <time>2019-12-16T14:23:09Z</time>
      </trkpt>
      <trkpt lat="43.57993" lon="5.07062">
        <ele>76</ele>
        <time>2019-12-16T14:23:10Z</time>
      </trkpt>
      <trkpt lat="43.57993" lon="5.07063">
        <ele>76</ele>
        <time>2019-12-16T14:23:11Z</time>
      </trkpt>
      <trkpt lat="43.57993" lon="5.07065">
        <ele>76</ele>
        <time>2019-12-16T14:23:12Z</time>
      </trkpt>
      <trkpt lat="43.57993" lon="5.07066">
        <ele>76</ele>
        <time>2019-12-16T14:23:13Z</time>
      </trkpt>
      <trkpt lat="43.57993" lon="5.07068">
        <ele>76</ele>
        <time>2019-12-16T14:23:14Z</time>
      </trkpt>
      <trkpt lat="43.57993" lon="5.0707">
        <ele>76</ele>
        <time>2019-12-16T14:23:15Z</time>
      </trkpt>
      <trkpt lat="43.57993" lon="5.07071">
        <ele>76</ele>
        <time>2019-12-16T14:23:16Z</time>
      </trkpt>
      <trkpt lat="43.57993" lon="5.07073">
        <ele>76</ele>
        <time>2019-12-16T14:23:17Z</time>
      </trkpt>
      <trkpt lat="43.57993" lon="5.07074">
        <ele>76</ele>
        <time>2019-12-16T14:23:18Z</time>
      </trkpt>
      <trkpt lat="43.57993" lon="5.07076">
        <ele>76</ele>
        <time>2019-12-16T14:23:19Z</time>
      </trkpt>
      <trkpt lat="43.57993" lon="5.07077">
        <ele>76</ele>
        <time>2019-12-16T14:23:20Z</time>
      </trkpt>
      <trkpt lat="43.57993" lon="5.07079">
        <ele>76</ele>
        <time>2019-12-16T14:23:21Z</time>
      </trkpt>
      <trkpt lat="43.57993" lon="5.0708">
        <ele>76</ele>
        <time>2019-12-16T14:23:22Z</time>
      </trkpt>
      <trkpt lat="43.57993" lon="5.07082">
        <ele>76</ele>
        <time>2019-12-16T14:23:23Z</time>
      </trkpt>
      <trkpt lat="43.57993" lon="5.07083">
        <ele>76</ele>
        <time>2019-12-16T14:23:24Z</time>
      </trkpt>
      <trkpt lat="43.57993" lon="5.07085">
        <ele>76</ele>
        <time>2019-12-16T14:23:25Z</time>
      </trkpt>
      <trkpt lat="43.57993" lon="5.07086">
        <ele>76</ele>
        <time>2019-12-16T14:23:26Z</time>
      </trkpt>
      <trkpt lat="43.57993" lon="5.07088">
        <ele>76</ele>
        <time>2019-12-16T14:23:27Z</time>
      </trkpt>
      <trkpt lat="43.57993" lon="5.0709">
        <ele>76</ele>
        <time>2019-12-16T14:23:28Z</time>
      </trkpt>
      <trkpt lat="43.57993" lon="5.07091">
        <ele>76</ele>
        <time>2019-12-16T14:23:29Z</time>
      </trkpt>
      <trkpt lat="43.57993" lon="5.07093">
        <ele>76</ele>
        <time>2019-12-16T14:23:30Z</time>
      </trkpt>
      <trkpt lat="43.57993" lon="5.07095">
        <ele>76</ele>
        <time>2019-12-16T14:23:31Z</time>
      </trkpt>
      <trkpt lat="43.57992" lon="5.07096">
        <ele>76</ele>
        <time>2019-12-16T14:23:32Z</time>
      </trkpt>
      <trkpt lat="43.57992" lon="5.07098">
        <ele>77</ele>
        <time>2019-12-16T14:23:33Z</time>
      </trkpt>
      <trkpt lat="43.57992" lon="5.071">
        <ele>77</ele>
        <time>2019-12-16T14:23:34Z</time>
      </trkpt>
      <trkpt lat="43.57992" lon="5.07101">
        <ele>77</ele>
        <time>2019-12-16T14:23:35Z</time>
      </trkpt>
      <trkpt lat="43.57992" lon="5.07103">
        <ele>77</ele>
        <time>2019-12-16T14:23:36Z</time>
      </trkpt>
      <trkpt lat="43.57992" lon="5.07104">
        <ele>77</ele>
        <time>2019-12-16T14:23:37Z</time>
      </trkpt>
      <trkpt lat="43.57992" lon="5.07106">
        <ele>77</ele>
        <time>2019-12-16T14:23:38Z</time>
      </trkpt>
      <trkpt lat="43.57992" lon="5.07108">
        <ele>77</ele>
        <time>2019-12-16T14:23:39Z</time>
      </trkpt>
      <trkpt lat="43.57992" lon="5.07109">
        <ele>77</ele>
        <time>2019-12-16T14:23:40Z</time>
      </trkpt>
      <trkpt lat="43.57992" lon="5.07111">
        <ele>77</ele>
        <time>2019-12-16T14:23:41Z</time>
      </trkpt>
      <trkpt lat="43.57991" lon="5.07113">
        <ele>77</ele>
        <time>2019-12-16T14:23:42Z</time>
      </trkpt>
      <trkpt lat="43.57991" lon="5.07114">
        <ele>77</ele>
        <time>2019-12-16T14:23:43Z</time>
      </trkpt>
      <trkpt lat="43.57991" lon="5.07116">
        <ele>77</ele>
        <time>2019-12-16T14:23:44Z</time>
      </trkpt>
      <trkpt lat="43.57991" lon="5.07117">
        <ele>77</ele>
        <time>2019-12-16T14:23:45Z</time>
      </trkpt>
      <trkpt lat="43.57991" lon="5.07119">
        <ele>77</ele>
        <time>2019-12-16T14:23:46Z</time>
      </trkpt>
      <trkpt lat="43.57991" lon="5.07121">
        <ele>77</ele>
        <time>2019-12-16T14:23:47Z</time>
      </trkpt>
      <trkpt lat="43.57991" lon="5.07122">
        <ele>77</ele>
        <time>2019-12-16T14:23:48Z</time>
      </trkpt>
      <trkpt lat="43.57991" lon="5.07124">
        <ele>77</ele>
        <time>2019-12-16T14:23:49Z</time>
      </trkpt>
      <trkpt lat="43.57991" lon="5.07126">
        <ele>77</ele>
        <time>2019-12-16T14:23:50Z</time>
      </trkpt>
      <trkpt lat="43.57991" lon="5.07127">
        <ele>77</ele>
        <time>2019-12-16T14:23:51Z</time>
      </trkpt>
      <trkpt lat="43.57991" lon="5.07129">
        <ele>77</ele>
        <time>2019-12-16T14:23:52Z</time>
      </trkpt>
      <trkpt lat="43.57991" lon="5.0713">
        <ele>77</ele>
        <time>2019-12-16T14:23:53Z</time>
      </trkpt>
      <trkpt lat="43.5799" lon="5.07132">
        <ele>77</ele>
        <time>2019-12-16T14:23:54Z</time>
      </trkpt>
      <trkpt lat="43.5799" lon="5.07134">
        <ele>77</ele>
        <time>2019-12-16T14:23:55Z</time>
      </trkpt>
      <trkpt lat="43.5799" lon="5.07136">
        <ele>77</ele>
        <time>2019-12-16T14:23:56Z</time>
      </trkpt>
      <trkpt lat="43.5799" lon="5.07137">
        <ele>77</ele>
        <time>2019-12-16T14:23:57Z</time>
      </trkpt>
      <trkpt lat="43.5799" lon="5.07139">
        <ele>77</ele>
        <time>2019-12-16T14:23:58Z</time>
      </trkpt>
      <trkpt lat="43.5799" lon="5.07141">
        <ele>77</ele>
        <time>2019-12-16T14:23:59Z</time>
      </trkpt>
      <trkpt lat="43.5799" lon="5.07142">
        <ele>77</ele>
        <time>2019-12-16T14:24:00Z</time>
      </trkpt>
      <trkpt lat="43.5799" lon="5.07144">
        <ele>77</ele>
        <time>2019-12-16T14:24:01Z</time>
      </trkpt>
      <trkpt lat="43.5799" lon="5.07146">
        <ele>77</ele>
        <time>2019-12-16T14:24:02Z</time>
      </trkpt>
      <trkpt lat="43.5799" lon="5.07147">
        <ele>77</ele>
        <time>2019-12-16T14:24:03Z</time>
      </trkpt>
      <trkpt lat="43.5799" lon="5.07149">
        <ele>77</ele>
        <time>2019-12-16T14:24:04Z</time>
      </trkpt>
      <trkpt lat="43.57989" lon="5.07151">
        <ele>77</ele>
        <time>2019-12-16T14:24:05Z</time>
      </trkpt>
      <trkpt lat="43.57989" lon="5.07152">
        <ele>77</ele>
        <time>2019-12-16T14:24:06Z</time>
      </trkpt>
      <trkpt lat="43.57989" lon="5.07154">
        <ele>77</ele>
        <time>2019-12-16T14:24:07Z</time>
      </trkpt>
      <trkpt lat="43.57988" lon="5.07155">
        <ele>77</ele>
        <time>2019-12-16T14:24:08Z</time>
      </trkpt>
      <trkpt lat="43.57988" lon="5.07156">
        <ele>77</ele>
        <time>2019-12-16T14:24:09Z</time>
      </trkpt>
      <trkpt lat="43.57987" lon="5.07158">
        <ele>77</ele>
        <time>2019-12-16T14:24:10Z</time>
      </trkpt>
      <trkpt lat="43.57986" lon="5.07159">
        <ele>78</ele>
        <time>2019-12-16T14:24:11Z</time>
      </trkpt>
      <trkpt lat="43.57985" lon="5.0716">
        <ele>78</ele>
        <time>2019-12-16T14:24:12Z</time>
      </trkpt>
      <trkpt lat="43.57985" lon="5.07162">
        <ele>77</ele>
        <time>2019-12-16T14:24:13Z</time>
      </trkpt>
      <trkpt lat="43.57984" lon="5.07163">
        <ele>77</ele>
        <time>2019-12-16T14:24:14Z</time>
      </trkpt>
      <trkpt lat="43.57983" lon="5.07164">
        <ele>77</ele>
        <time>2019-12-16T14:24:15Z</time>
      </trkpt>
      <trkpt lat="43.57982" lon="5.07165">
        <ele>77</ele>
        <time>2019-12-16T14:24:16Z</time>
      </trkpt>
      <trkpt lat="43.57981" lon="5.07166">
        <ele>77</ele>
        <time>2019-12-16T14:24:17Z</time>
      </trkpt>
      <trkpt lat="43.5798" lon="5.07167">
        <ele>77</ele>
        <time>2019-12-16T14:24:18Z</time>
      </trkpt>
      <trkpt lat="43.57979" lon="5.07168">
        <ele>77</ele>
        <time>2019-12-16T14:24:19Z</time>
      </trkpt>
      <trkpt lat="43.57978" lon="5.07169">
        <ele>77</ele>
        <time>2019-12-16T14:24:20Z</time>
      </trkpt>
      <trkpt lat="43.57976" lon="5.07169">
        <ele>77</ele>
        <time>2019-12-16T14:24:21Z</time>
      </trkpt>
      <trkpt lat="43.57975" lon="5.0717">
        <ele>77</ele>
        <time>2019-12-16T14:24:22Z</time>
      </trkpt>
      <trkpt lat="43.57974" lon="5.0717">
        <ele>77</ele>
        <time>2019-12-16T14:24:23Z</time>
      </trkpt>
      <trkpt lat="43.57973" lon="5.0717">
        <ele>77</ele>
        <time>2019-12-16T14:24:24Z</time>
      </trkpt>
      <trkpt lat="43.57972" lon="5.0717">
        <ele>77</ele>
        <time>2019-12-16T14:24:25Z</time>
      </trkpt>
      <trkpt lat="43.5797" lon="5.07169">
        <ele>77</ele>
        <time>2019-12-16T14:24:26Z</time>
      </trkpt>
      <trkpt lat="43.57969" lon="5.07169">
        <ele>77</ele>
        <time>2019-12-16T14:24:27Z</time>
      </trkpt>
      <trkpt lat="43.57968" lon="5.07169">
        <ele>77</ele>
        <time>2019-12-16T14:24:28Z</time>
      </trkpt>
      <trkpt lat="43.57967" lon="5.07168">
        <ele>77</ele>
        <time>2019-12-16T14:24:29Z</time>
      </trkpt>
      <trkpt lat="43.57966" lon="5.07168">
        <ele>77</ele>
        <time>2019-12-16T14:24:30Z</time>
      </trkpt>
      <trkpt lat="43.57965" lon="5.07168">
        <ele>77</ele>
        <time>2019-12-16T14:24:31Z</time>
      </trkpt>
      <trkpt lat="43.57963" lon="5.07168">
        <ele>77</ele>
        <time>2019-12-16T14:24:32Z</time>
      </trkpt>
      <trkpt lat="43.57962" lon="5.07168">
        <ele>77</ele>
        <time>2019-12-16T14:24:33Z</time>
      </trkpt>
      <trkpt lat="43.57961" lon="5.07168">
        <ele>77</ele>
        <time>2019-12-16T14:24:34Z</time>
      </trkpt>
      <trkpt lat="43.5796" lon="5.07168">
        <ele>77</ele>
        <time>2019-12-16T14:24:35Z</time>
      </trkpt>
      <trkpt lat="43.57959" lon="5.07168">
        <ele>77</ele>
        <time>2019-12-16T14:24:36Z</time>
      </trkpt>
      <trkpt lat="43.57957" lon="5.07168">
        <ele>77</ele>
        <time>2019-12-16T14:24:37Z</time>
      </trkpt>
      <trkpt lat="43.57956" lon="5.07169">
        <ele>77</ele>
        <time>2019-12-16T14:24:38Z</time>
      </trkpt>
      <trkpt lat="43.57955" lon="5.07169">
        <ele>77</ele>
        <time>2019-12-16T14:24:39Z</time>
      </trkpt>
      <trkpt lat="43.57954" lon="5.07169">
        <ele>77</ele>
        <time>2019-12-16T14:24:40Z</time>
      </trkpt>
      <trkpt lat="43.57952" lon="5.07169">
        <ele>77</ele>
        <time>2019-12-16T14:24:41Z</time>
      </trkpt>
      <trkpt lat="43.57951" lon="5.07169">
        <ele>77</ele>
        <time>2019-12-16T14:24:42Z</time>
      </trkpt>
      <trkpt lat="43.5795" lon="5.07169">
        <ele>77</ele>
        <time>2019-12-16T14:24:43Z</time>
      </trkpt>
      <trkpt lat="43.57949" lon="5.07169">
        <ele>77</ele>
        <time>2019-12-16T14:24:44Z</time>
      </trkpt>
      <trkpt lat="43.57947" lon="5.07169">
        <ele>77</ele>
        <time>2019-12-16T14:24:45Z</time>
      </trkpt>
      <trkpt lat="43.57946" lon="5.07169">
        <ele>77</ele>
        <time>2019-12-16T14:24:46Z</time>
      </trkpt>
      <trkpt lat="43.57945" lon="5.0717">
        <ele>77</ele>
        <time>2019-12-16T14:24:47Z</time>
      </trkpt>
      <trkpt lat="43.57944" lon="5.0717">
        <ele>77</ele>
        <time>2019-12-16T14:24:48Z</time>
      </trkpt>
      <trkpt lat="43.57942" lon="5.0717">
        <ele>77</ele>
        <time>2019-12-16T14:24:49Z</time>
      </trkpt>
      <trkpt lat="43.57941" lon="5.07171">
        <ele>77</ele>
        <time>2019-12-16T14:24:50Z</time>
      </trkpt>
      <trkpt lat="43.5794" lon="5.07171">
        <ele>77</ele>
        <time>2019-12-16T14:24:51Z</time>
      </trkpt>
      <trkpt lat="43.57939" lon="5.07172">
        <ele>77</ele>
        <time>2019-12-16T14:24:52Z</time>
      </trkpt>
      <trkpt lat="43.57938" lon="5.07172">
        <ele>77</ele>
        <time>2019-12-16T14:24:53Z</time>
      </trkpt>
      <trkpt lat="43.57937" lon="5.07173">
        <ele>77</ele>
        <time>2019-12-16T14:24:54Z</time>
      </trkpt>
      <trkpt lat="43.57935" lon="5.07173">
        <ele>77</ele>
        <time>2019-12-16T14:24:55Z</time>
      </trkpt>
      <trkpt lat="43.57934" lon="5.07174">
        <ele>77</ele>
        <time>2019-12-16T14:24:56Z</time>
      </trkpt>
      <trkpt lat="43.57933" lon="5.07175">
        <ele>77</ele>
        <time>2019-12-16T14:24:57Z</time>
      </trkpt>
      <trkpt lat="43.57932" lon="5.07175">
        <ele>77</ele>
        <time>2019-12-16T14:24:58Z</time>
      </trkpt>
      <trkpt lat="43.57931" lon="5.07176">
        <ele>77</ele>
        <time>2019-12-16T14:24:59Z</time>
      </trkpt>
      <trkpt lat="43.5793" lon="5.07177">
        <ele>77</ele>
        <time>2019-12-16T14:25:00Z</time>
      </trkpt>
      <trkpt lat="43.57929" lon="5.07178">
        <ele>77</ele>
        <time>2019-12-16T14:25:01Z</time>
      </trkpt>
      <trkpt lat="43.57928" lon="5.07179">
        <ele>77</ele>
        <time>2019-12-16T14:25:02Z</time>
      </trkpt>
      <trkpt lat="43.57926" lon="5.0718">
        <ele>77</ele>
        <time>2019-12-16T14:25:03Z</time>
      </trkpt>
      <trkpt lat="43.57926" lon="5.07181">
        <ele>77</ele>
        <time>2019-12-16T14:25:04Z</time>
      </trkpt>
      <trkpt lat="43.57925" lon="5.07182">
        <ele>77</ele>
        <time>2019-12-16T14:25:05Z</time>
      </trkpt>
      <trkpt lat="43.57923" lon="5.07183">
        <ele>77</ele>
        <time>2019-12-16T14:25:06Z</time>
      </trkpt>
      <trkpt lat="43.57922" lon="5.07184">
        <ele>77</ele>
        <time>2019-12-16T14:25:07Z</time>
      </trkpt>
      <trkpt lat="43.57922" lon="5.07185">
        <ele>77</ele>
        <time>2019-12-16T14:25:08Z</time>
      </trkpt>
      <trkpt lat="43.57921" lon="5.07186">
        <ele>77</ele>
        <time>2019-12-16T14:25:09Z</time>
      </trkpt>
      <trkpt lat="43.5792" lon="5.07187">
        <ele>76</ele>
        <time>2019-12-16T14:25:10Z</time>
      </trkpt>
      <trkpt lat="43.57919" lon="5.07188">
        <ele>76</ele>
        <time>2019-12-16T14:25:11Z</time>
      </trkpt>
      <trkpt lat="43.57918" lon="5.07189">
        <ele>76</ele>
        <time>2019-12-16T14:25:12Z</time>
      </trkpt>
      <trkpt lat="43.57917" lon="5.0719">
        <ele>76</ele>
        <time>2019-12-16T14:25:13Z</time>
      </trkpt>
      <trkpt lat="43.57917" lon="5.07191">
        <ele>76</ele>
        <time>2019-12-16T14:25:14Z</time>
      </trkpt>
      <trkpt lat="43.57916" lon="5.07192">
        <ele>76</ele>
        <time>2019-12-16T14:25:15Z</time>
      </trkpt>
      <trkpt lat="43.57916" lon="5.07194">
        <ele>76</ele>
        <time>2019-12-16T14:25:16Z</time>
      </trkpt>
      <trkpt lat="43.57915" lon="5.07195">
        <ele>76</ele>
        <time>2019-12-16T14:25:17Z</time>
      </trkpt>
      <trkpt lat="43.57914" lon="5.07197">
        <ele>76</ele>
        <time>2019-12-16T14:25:18Z</time>
      </trkpt>
      <trkpt lat="43.57914" lon="5.07198">
        <ele>76</ele>
        <time>2019-12-16T14:25:19Z</time>
      </trkpt>
      <trkpt lat="43.57913" lon="5.072">
        <ele>76</ele>
        <time>2019-12-16T14:25:20Z</time>
      </trkpt>
      <trkpt lat="43.57913" lon="5.07202">
        <ele>76</ele>
        <time>2019-12-16T14:25:21Z</time>
      </trkpt>
      <trkpt lat="43.57913" lon="5.07203">
        <ele>76</ele>
        <time>2019-12-16T14:25:22Z</time>
      </trkpt>
      <trkpt lat="43.57913" lon="5.07205">
        <ele>76</ele>
        <time>2019-12-16T14:25:23Z</time>
      </trkpt>
      <trkpt lat="43.57912" lon="5.07207">
        <ele>76</ele>
        <time>2019-12-16T14:25:24Z</time>
      </trkpt>
      <trkpt lat="43.57912" lon="5.07208">
        <ele>76</ele>
        <time>2019-12-16T14:25:25Z</time>
      </trkpt>
      <trkpt lat="43.57912" lon="5.0721">
        <ele>76</ele>
        <time>2019-12-16T14:25:26Z</time>
      </trkpt>
      <trkpt lat="43.57912" lon="5.07212">
        <ele>76</ele>
        <time>2019-12-16T14:25:27Z</time>
      </trkpt>
      <trkpt lat="43.57912" lon="5.07213">
        <ele>76</ele>
        <time>2019-12-16T14:25:28Z</time>
      </trkpt>
      <trkpt lat="43.57912" lon="5.07215">
        <ele>75</ele>
        <time>2019-12-16T14:25:29Z</time>
      </trkpt>
      <trkpt lat="43.57913" lon="5.07217">
        <ele>75</ele>
        <time>2019-12-16T14:25:30Z</time>
      </trkpt>
      <trkpt lat="43.57913" lon="5.07218">
        <ele>75</ele>
        <time>2019-12-16T14:25:31Z</time>
      </trkpt>
      <trkpt lat="43.57913" lon="5.0722">
        <ele>75</ele>
        <time>2019-12-16T14:25:32Z</time>
      </trkpt>
      <trkpt lat="43.57913" lon="5.07221">
        <ele>75</ele>
        <time>2019-12-16T14:25:33Z</time>
      </trkpt>
      <trkpt lat="43.57914" lon="5.07222">
        <ele>75</ele>
        <time>2019-12-16T14:25:34Z</time>
      </trkpt>
      <trkpt lat="43.57914" lon="5.07224">
        <ele>75</ele>
        <time>2019-12-16T14:25:35Z</time>
      </trkpt>
      <trkpt lat="43.57914" lon="5.07225">
        <ele>75</ele>
        <time>2019-12-16T14:25:36Z</time>
      </trkpt>
      <trkpt lat="43.57915" lon="5.07227">
        <ele>75</ele>
        <time>2019-12-16T14:25:37Z</time>
      </trkpt>
      <trkpt lat="43.57915" lon="5.07228">
        <ele>75</ele>
        <time>2019-12-16T14:25:38Z</time>
      </trkpt>
      <trkpt lat="43.57915" lon="5.0723">
        <ele>75</ele>
        <time>2019-12-16T14:25:39Z</time>
      </trkpt>
      <trkpt lat="43.57916" lon="5.07231">
        <ele>75</ele>
        <time>2019-12-16T14:25:40Z</time>
      </trkpt>
      <trkpt lat="43.57916" lon="5.07233">
        <ele>75</ele>
        <time>2019-12-16T14:25:41Z</time>
      </trkpt>
      <trkpt lat="43.57916" lon="5.07235">
        <ele>75</ele>
        <time>2019-12-16T14:25:42Z</time>
      </trkpt>
      <trkpt lat="43.57917" lon="5.07236">
        <ele>75</ele>
        <time>2019-12-16T14:25:43Z</time>
      </trkpt>
      <trkpt lat="43.57917" lon="5.07238">
        <ele>75</ele>
        <time>2019-12-16T14:25:44Z</time>
      </trkpt>
      <trkpt lat="43.57917" lon="5.0724">
        <ele>75</ele>
        <time>2019-12-16T14:25:45Z</time>
      </trkpt>
      <trkpt lat="43.57918" lon="5.07241">
        <ele>75</ele>
        <time>2019-12-16T14:25:46Z</time>
      </trkpt>
      <trkpt lat="43.57918" lon="5.07243">
        <ele>75</ele>
        <time>2019-12-16T14:25:47Z</time>
      </trkpt>
      <trkpt lat="43.57918" lon="5.07245">
        <ele>74</ele>
        <time>2019-12-16T14:25:48Z</time>
      </trkpt>
      <trkpt lat="43.57918" lon="5.07246">
        <ele>74</ele>
        <time>2019-12-16T14:25:49Z</time>
      </trkpt>
      <trkpt lat="43.57919" lon="5.07248">
        <ele>74</ele>
        <time>2019-12-16T14:25:50Z</time>
      </trkpt>
      <trkpt lat="43.57919" lon="5.07249">
        <ele>74</ele>
        <time>2019-12-16T14:25:51Z</time>
      </trkpt>
      <trkpt lat="43.57919" lon="5.0725">
        <ele>74</ele>
        <time>2019-12-16T14:25:52Z</time>
      </trkpt>
      <trkpt lat="43.57919" lon="5.07251">
        <ele>74</ele>
        <time>2019-12-16T14:25:53Z</time>
      </trkpt>
      <trkpt lat="43.57919" lon="5.07252">
        <ele>74</ele>
        <time>2019-12-16T14:25:54Z</time>
      </trkpt>
      <trkpt lat="43.5792" lon="5.07253">
        <ele>74</ele>
        <time>2019-12-16T14:25:55Z</time>
      </trkpt>
      <trkpt lat="43.5792" lon="5.07253">
        <ele>74</ele>
        <time>2019-12-16T14:25:56Z</time>
      </trkpt>
      <trkpt lat="43.5792" lon="5.07254">
        <ele>74</ele>
        <time>2019-12-16T14:25:57Z</time>
      </trkpt>
      <trkpt lat="43.5792" lon="5.07255">
        <ele>74</ele>
        <time>2019-12-16T14:25:58Z</time>
      </trkpt>
      <trkpt lat="43.5792" lon="5.07256">
        <ele>74</ele>
        <time>2019-12-16T14:25:59Z</time>
      </trkpt>
      <trkpt lat="43.5792" lon="5.07257">
        <ele>74</ele>
        <time>2019-12-16T14:26:00Z</time>
      </trkpt>
      <trkpt lat="43.5792" lon="5.07258">
        <ele>74</ele>
        <time>2019-12-16T14:26:01Z</time>
      </trkpt>
      <trkpt lat="43.5792" lon="5.07259">
        <ele>74</ele>
        <time>2019-12-16T14:26:02Z</time>
      </trkpt>
      <trkpt lat="43.5792" lon="5.07261">
        <ele>74</ele>
        <time>2019-12-16T14:26:03Z</time>
      </trkpt>
      <trkpt lat="43.57919" lon="5.07262">
        <ele>74</ele>
        <time>2019-12-16T14:26:04Z</time>
      </trkpt>
      <trkpt lat="43.57919" lon="5.07263">
        <ele>74</ele>
        <time>2019-12-16T14:26:05Z</time>
      </trkpt>
      <trkpt lat="43.57919" lon="5.07264">
        <ele>74</ele>
        <time>2019-12-16T14:26:06Z</time>
      </trkpt>
      <trkpt lat="43.57919" lon="5.07266">
        <ele>74</ele>
        <time>2019-12-16T14:26:07Z</time>
      </trkpt>
      <trkpt lat="43.57919" lon="5.07267">
        <ele>74</ele>
        <time>2019-12-16T14:26:08Z</time>
      </trkpt>
      <trkpt lat="43.57919" lon="5.07268">
        <ele>74</ele>
        <time>2019-12-16T14:26:09Z</time>
      </trkpt>
      <trkpt lat="43.57919" lon="5.07269">
        <ele>74</ele>
        <time>2019-12-16T14:26:10Z</time>
      </trkpt>
      <trkpt lat="43.57919" lon="5.0727">
        <ele>74</ele>
        <time>2019-12-16T14:26:11Z</time>
      </trkpt>
      <trkpt lat="43.57919" lon="5.07271">
        <ele>74</ele>
        <time>2019-12-16T14:26:12Z</time>
      </trkpt>
      <trkpt lat="43.57919" lon="5.07272">
        <ele>73</ele>
        <time>2019-12-16T14:26:13Z</time>
      </trkpt>
      <trkpt lat="43.57919" lon="5.07273">
        <ele>73</ele>
        <time>2019-12-16T14:26:14Z</time>
      </trkpt>
      <trkpt lat="43.5792" lon="5.07274">
        <ele>73</ele>
        <time>2019-12-16T14:26:15Z</time>
      </trkpt>
      <trkpt lat="43.5792" lon="5.07274">
        <ele>73</ele>
        <time>2019-12-16T14:26:16Z</time>
      </trkpt>
      <trkpt lat="43.5792" lon="5.07275">
        <ele>73</ele>
        <time>2019-12-16T14:26:17Z</time>
      </trkpt>
      <trkpt lat="43.5792" lon="5.07276">
        <ele>73</ele>
        <time>2019-12-16T14:26:18Z</time>
      </trkpt>
      <trkpt lat="43.57921" lon="5.07276">
        <ele>73</ele>
        <time>2019-12-16T14:26:19Z</time>
      </trkpt>
      <trkpt lat="43.57921" lon="5.07276">
        <ele>73</ele>
        <time>2019-12-16T14:26:20Z</time>
      </trkpt>
      <trkpt lat="43.57921" lon="5.07277">
        <ele>73</ele>
        <time>2019-12-16T14:26:21Z</time>
      </trkpt>
      <trkpt lat="43.57921" lon="5.07277">
        <ele>73</ele>
        <time>2019-12-16T14:26:22Z</time>
      </trkpt>
      <trkpt lat="43.57921" lon="5.07277">
        <ele>73</ele>
        <time>2019-12-16T14:26:23Z</time>
      </trkpt>
      <trkpt lat="43.57921" lon="5.07277">
        <ele>73</ele>
        <time>2019-12-16T14:26:24Z</time>
      </trkpt>
      <trkpt lat="43.57921" lon="5.07277">
        <ele>73</ele>
        <time>2019-12-16T14:26:25Z</time>
      </trkpt>
      <trkpt lat="43.57922" lon="5.07277">
        <ele>73</ele>
        <time>2019-12-16T14:26:26Z</time>
      </trkpt>
      <trkpt lat="43.57922" lon="5.07277">
        <ele>73</ele>
        <time>2019-12-16T14:26:27Z</time>
      </trkpt>
      <trkpt lat="43.57922" lon="5.07277">
        <ele>73</ele>
        <time>2019-12-16T14:26:28Z</time>
      </trkpt>
      <trkpt lat="43.57922" lon="5.07278">
        <ele>73</ele>
        <time>2019-12-16T14:26:29Z</time>
      </trkpt>
      <trkpt lat="43.57922" lon="5.07278">
        <ele>73</ele>
        <time>2019-12-16T14:26:30Z</time>
      </trkpt>
      <trkpt lat="43.57922" lon="5.07278">
        <ele>73</ele>
        <time>2019-12-16T14:26:31Z</time>
      </trkpt>
      <trkpt lat="43.57922" lon="5.07278">
        <ele>73</ele>
        <time>2019-12-16T14:26:32Z</time>
      </trkpt>
      <trkpt lat="43.57922" lon="5.07278">
        <ele>73</ele>
        <time>2019-12-16T14:26:33Z</time>
      </trkpt>
      <trkpt lat="43.57922" lon="5.07278">
        <ele>73</ele>
        <time>2019-12-16T14:26:34Z</time>
      </trkpt>
      <trkpt lat="43.57922" lon="5.07278">
        <ele>73</ele>
        <time>2019-12-16T14:26:35Z</time>
      </trkpt>
      <trkpt lat="43.57922" lon="5.07278">
        <ele>73</ele>
        <time>2019-12-16T14:26:36Z</time>
      </trkpt>
      <trkpt lat="43.57922" lon="5.07278">
        <ele>73</ele>
        <time>2019-12-16T14:26:37Z</time>
      </trkpt>
      <trkpt lat="43.57922" lon="5.07278">
        <ele>73</ele>
        <time>2019-12-16T14:26:38Z</time>
      </trkpt>
      <trkpt lat="43.57922" lon="5.07278">
        <ele>73</ele>
        <time>2019-12-16T14:26:39Z</time>
      </trkpt>
      <trkpt lat="43.57922" lon="5.07278">
        <ele>73</ele>
        <time>2019-12-16T14:26:40Z</time>
      </trkpt>
      <trkpt lat="43.57922" lon="5.07278">
        <ele>73</ele>
        <time>2019-12-16T14:26:41Z</time>
      </trkpt>
      <trkpt lat="43.57922" lon="5.07278">
        <ele>73</ele>
        <time>2019-12-16T14:26:42Z</time>
      </trkpt>
      <trkpt lat="43.57922" lon="5.07278">
        <ele>73</ele>
        <time>2019-12-16T14:26:43Z</time>
      </trkpt>
      <trkpt lat="43.57922" lon="5.07278">
        <ele>73</ele>
        <time>2019-12-16T14:26:44Z</time>
      </trkpt>
      <trkpt lat="43.57922" lon="5.07278">
        <ele>73</ele>
        <time>2019-12-16T14:26:45Z</time>
      </trkpt>
      <trkpt lat="43.57922" lon="5.07278">
        <ele>73</ele>
        <time>2019-12-16T14:26:46Z</time>
      </trkpt>
      <trkpt lat="43.57922" lon="5.07278">
        <ele>73</ele>
        <time>2019-12-16T14:26:47Z</time>
      </trkpt>
      <trkpt lat="43.57922" lon="5.07278">
        <ele>73</ele>
        <time>2019-12-16T14:26:48Z</time>
      </trkpt>
      <trkpt lat="43.57922" lon="5.07278">
        <ele>73</ele>
        <time>2019-12-16T14:26:49Z</time>
      </trkpt>
      <trkpt lat="43.57922" lon="5.07278">
        <ele>73</ele>
        <time>2019-12-16T14:26:50Z</time>
      </trkpt>
      <trkpt lat="43.57922" lon="5.07278">
        <ele>73</ele>
        <time>2019-12-16T14:26:51Z</time>
      </trkpt>
      <trkpt lat="43.57922" lon="5.07278">
        <ele>73</ele>
        <time>2019-12-16T14:26:52Z</time>
      </trkpt>
      <trkpt lat="43.57922" lon="5.07278">
        <ele>73</ele>
        <time>2019-12-16T14:26:53Z</time>
      </trkpt>
      <trkpt lat="43.57922" lon="5.07278">
        <ele>73</ele>
        <time>2019-12-16T14:26:54Z</time>
      </trkpt>
      <trkpt lat="43.57922" lon="5.07278">
        <ele>73</ele>
        <time>2019-12-16T14:26:55Z</time>
      </trkpt>
      <trkpt lat="43.57922" lon="5.07278">
        <ele>73</ele>
        <time>2019-12-16T14:26:56Z</time>
      </trkpt>
      <trkpt lat="43.57922" lon="5.07278">
        <ele>73</ele>
        <time>2019-12-16T14:26:57Z</time>
      </trkpt>
      <trkpt lat="43.57922" lon="5.07278">
        <ele>73</ele>
        <time>2019-12-16T14:26:58Z</time>
      </trkpt>
      <trkpt lat="43.57922" lon="5.07278">
        <ele>73</ele>
        <time>2019-12-16T14:26:59Z</time>
      </trkpt>
      <trkpt lat="43.57922" lon="5.07278">
        <ele>73</ele>
        <time>2019-12-16T14:27:00Z</time>
      </trkpt>
      <trkpt lat="43.57922" lon="5.07278">
        <ele>73</ele>
        <time>2019-12-16T14:27:01Z</time>
      </trkpt>
      <trkpt lat="43.57922" lon="5.07278">
        <ele>73</ele>
        <time>2019-12-16T14:27:02Z</time>
      </trkpt>
      <trkpt lat="43.57922" lon="5.07278">
        <ele>73</ele>
        <time>2019-12-16T14:27:03Z</time>
      </trkpt>
      <trkpt lat="43.57922" lon="5.07278">
        <ele>73</ele>
        <time>2019-12-16T14:27:04Z</time>
      </trkpt>
      <trkpt lat="43.57922" lon="5.07278">
        <ele>73</ele>
        <time>2019-12-16T14:27:05Z</time>
      </trkpt>
      <trkpt lat="43.57922" lon="5.07278">
        <ele>73</ele>
        <time>2019-12-16T14:27:06Z</time>
      </trkpt>
      <trkpt lat="43.57922" lon="5.07278">
        <ele>73</ele>
        <time>2019-12-16T14:27:07Z</time>
      </trkpt>
      <trkpt lat="43.57922" lon="5.07278">
        <ele>73</ele>
        <time>2019-12-16T14:27:08Z</time>
      </trkpt>
      <trkpt lat="43.57922" lon="5.07278">
        <ele>73</ele>
        <time>2019-12-16T14:27:09Z</time>
      </trkpt>
      <trkpt lat="43.57922" lon="5.07278">
        <ele>73</ele>
        <time>2019-12-16T14:27:10Z</time>
      </trkpt>
      <trkpt lat="43.57922" lon="5.07278">
        <ele>73</ele>
        <time>2019-12-16T14:27:11Z</time>
      </trkpt>
      <trkpt lat="43.57922" lon="5.07278">
        <ele>73</ele>
        <time>2019-12-16T14:27:12Z</time>
      </trkpt>
      <trkpt lat="43.57922" lon="5.07278">
        <ele>73</ele>
        <time>2019-12-16T14:27:13Z</time>
      </trkpt>
      <trkpt lat="43.57922" lon="5.07278">
        <ele>73</ele>
        <time>2019-12-16T14:27:14Z</time>
      </trkpt>
      <trkpt lat="43.57922" lon="5.07278">
        <ele>73</ele>
        <time>2019-12-16T14:27:15Z</time>
      </trkpt>
      <trkpt lat="43.57922" lon="5.07278">
        <ele>73</ele>
        <time>2019-12-16T14:27:16Z</time>
      </trkpt>
      <trkpt lat="43.57922" lon="5.07278">
        <ele>73</ele>
        <time>2019-12-16T14:27:17Z</time>
      </trkpt>
      <trkpt lat="43.57922" lon="5.07278">
        <ele>73</ele>
        <time>2019-12-16T14:27:18Z</time>
      </trkpt>
      <trkpt lat="43.57922" lon="5.07278">
        <ele>73</ele>
        <time>2019-12-16T14:27:19Z</time>
      </trkpt>
      <trkpt lat="43.57922" lon="5.07278">
        <ele>73</ele>
        <time>2019-12-16T14:27:20Z</time>
      </trkpt>
      <trkpt lat="43.57922" lon="5.07278">
        <ele>73</ele>
        <time>2019-12-16T14:27:21Z</time>
      </trkpt>
      <trkpt lat="43.57922" lon="5.07278">
        <ele>73</ele>
        <time>2019-12-16T14:27:22Z</time>
      </trkpt>
      <trkpt lat="43.57922" lon="5.07278">
        <ele>73</ele>
        <time>2019-12-16T14:27:23Z</time>
      </trkpt>
      <trkpt lat="43.57922" lon="5.07278">
        <ele>73</ele>
        <time>2019-12-16T14:27:24Z</time>
      </trkpt>
      <trkpt lat="43.57922" lon="5.07278">
        <ele>73</ele>
        <time>2019-12-16T14:27:25Z</time>
      </trkpt>
      <trkpt lat="43.57922" lon="5.07278">
        <ele>73</ele>
        <time>2019-12-16T14:27:26Z</time>
      </trkpt>
      <trkpt lat="43.57922" lon="5.07278">
        <ele>73</ele>
        <time>2019-12-16T14:27:27Z</time>
      </trkpt>
      <trkpt lat="43.57922" lon="5.07278">
        <ele>73</ele>
        <time>2019-12-16T14:27:28Z</time>
      </trkpt>
      <trkpt lat="43.57922" lon="5.07278">
        <ele>73</ele>
        <time>2019-12-16T14:27:29Z</time>
      </trkpt>
      <trkpt lat="43.57922" lon="5.07278">
        <ele>73</ele>
        <time>2019-12-16T14:27:30Z</time>
      </trkpt>
      <trkpt lat="43.57922" lon="5.07278">
        <ele>73</ele>
        <time>2019-12-16T14:27:31Z</time>
      </trkpt>
      <trkpt lat="43.57922" lon="5.07278">
        <ele>73</ele>
        <time>2019-12-16T14:27:32Z</time>
      </trkpt>
      <trkpt lat="43.57922" lon="5.07278">
        <ele>73</ele>
        <time>2019-12-16T14:27:33Z</time>
      </trkpt>
      <trkpt lat="43.57922" lon="5.07278">
        <ele>73</ele>
        <time>2019-12-16T14:27:34Z</time>
      </trkpt>
      <trkpt lat="43.57922" lon="5.07278">
        <ele>73</ele>
        <time>2019-12-16T14:27:35Z</time>
      </trkpt>
      <trkpt lat="43.57922" lon="5.07278">
        <ele>73</ele>
        <time>2019-12-16T14:27:36Z</time>
      </trkpt>
      <trkpt lat="43.57922" lon="5.07278">
        <ele>73</ele>
        <time>2019-12-16T14:27:37Z</time>
      </trkpt>
      <trkpt lat="43.57922" lon="5.07278">
        <ele>73</ele>
        <time>2019-12-16T14:27:38Z</time>
      </trkpt>
      <trkpt lat="43.57922" lon="5.07278">
        <ele>73</ele>
        <time>2019-12-16T14:27:39Z</time>
      </trkpt>
      <trkpt lat="43.57922" lon="5.07278">
        <ele>73</ele>
        <time>2019-12-16T14:27:40Z</time>
      </trkpt>
      <trkpt lat="43.57922" lon="5.07278">
        <ele>73</ele>
        <time>2019-12-16T14:27:41Z</time>
      </trkpt>
      <trkpt lat="43.57922" lon="5.07278">
        <ele>73</ele>
        <time>2019-12-16T14:27:42Z</time>
      </trkpt>
      <trkpt lat="43.57922" lon="5.07278">
        <ele>73</ele>
        <time>2019-12-16T14:27:43Z</time>
      </trkpt>
      <trkpt lat="43.57922" lon="5.07278">
        <ele>73</ele>
        <time>2019-12-16T14:27:44Z</time>
      </trkpt>
      <trkpt lat="43.57922" lon="5.07278">
        <ele>73</ele>
        <time>2019-12-16T14:27:45Z</time>
      </trkpt>
      <trkpt lat="43.57922" lon="5.07278">
        <ele>73</ele>
        <time>2019-12-16T14:27:46Z</time>
      </trkpt>
      <trkpt lat="43.57922" lon="5.07278">
        <ele>73</ele>
        <time>2019-12-16T14:27:47Z</time>
      </trkpt>
      <trkpt lat="43.57922" lon="5.07278">
        <ele>73</ele>
        <time>2019-12-16T14:27:48Z</time>
      </trkpt>
      <trkpt lat="43.57922" lon="5.07278">
        <ele>73</ele>
        <time>2019-12-16T14:27:49Z</time>
      </trkpt>
      <trkpt lat="43.57922" lon="5.07278">
        <ele>73</ele>
        <time>2019-12-16T14:27:50Z</time>
      </trkpt>
      <trkpt lat="43.57922" lon="5.07278">
        <ele>73</ele>
        <time>2019-12-16T14:27:51Z</time>
      </trkpt>
      <trkpt lat="43.57922" lon="5.07278">
        <ele>73</ele>
        <time>2019-12-16T14:27:52Z</time>
      </trkpt>
      <trkpt lat="43.57922" lon="5.07279">
        <ele>73</ele>
        <time>2019-12-16T14:27:53Z</time>
      </trkpt>
      <trkpt lat="43.57922" lon="5.07279">
        <ele>73</ele>
        <time>2019-12-16T14:27:54Z</time>
      </trkpt>
      <trkpt lat="43.57922" lon="5.0728">
        <ele>73</ele>
        <time>2019-12-16T14:27:55Z</time>
      </trkpt>
      <trkpt lat="43.57922" lon="5.0728">
        <ele>73</ele>
        <time>2019-12-16T14:27:56Z</time>
      </trkpt>
      <trkpt lat="43.57922" lon="5.0728">
        <ele>73</ele>
        <time>2019-12-16T14:27:57Z</time>
      </trkpt>
      <trkpt lat="43.57921" lon="5.07282">
        <ele>73</ele>
        <time>2019-12-16T14:27:58Z</time>
      </trkpt>
      <trkpt lat="43.57921" lon="5.07283">
        <ele>73</ele>
        <time>2019-12-16T14:27:59Z</time>
      </trkpt>
      <trkpt lat="43.57921" lon="5.07283">
        <ele>73</ele>
        <time>2019-12-16T14:28:00Z</time>
      </trkpt>
      <trkpt lat="43.57921" lon="5.07284">
        <ele>73</ele>
        <time>2019-12-16T14:28:01Z</time>
      </trkpt>
      <trkpt lat="43.57921" lon="5.07284">
        <ele>73</ele>
        <time>2019-12-16T14:28:02Z</time>
      </trkpt>
      <trkpt lat="43.57921" lon="5.07284">
        <ele>73</ele>
        <time>2019-12-16T14:28:03Z</time>
      </trkpt>
      <trkpt lat="43.57921" lon="5.07284">
        <ele>73</ele>
        <time>2019-12-16T14:28:04Z</time>
      </trkpt>
      <trkpt lat="43.57921" lon="5.07284">
        <ele>73</ele>
        <time>2019-12-16T14:28:05Z</time>
      </trkpt>
      <trkpt lat="43.57921" lon="5.07284">
        <ele>73</ele>
        <time>2019-12-16T14:28:06Z</time>
      </trkpt>
      <trkpt lat="43.57921" lon="5.07284">
        <ele>73</ele>
        <time>2019-12-16T14:28:07Z</time>
      </trkpt>
      <trkpt lat="43.57921" lon="5.07284">
        <ele>73</ele>
        <time>2019-12-16T14:28:08Z</time>
      </trkpt>
      <trkpt lat="43.57921" lon="5.07284">
        <ele>73</ele>
        <time>2019-12-16T14:28:09Z</time>
      </trkpt>
      <trkpt lat="43.57921" lon="5.07284">
        <ele>73</ele>
        <time>2019-12-16T14:28:10Z</time>
      </trkpt>
      <trkpt lat="43.57921" lon="5.07284">
        <ele>73</ele>
        <time>2019-12-16T14:28:11Z</time>
      </trkpt>
      <trkpt lat="43.57921" lon="5.07284">
        <ele>73</ele>
        <time>2019-12-16T14:28:12Z</time>
      </trkpt>
      <trkpt lat="43.57921" lon="5.07284">
        <ele>73</ele>
        <time>2019-12-16T14:28:13Z</time>
      </trkpt>
      <trkpt lat="43.57921" lon="5.07284">
        <ele>73</ele>
        <time>2019-12-16T14:28:14Z</time>
      </trkpt>
      <trkpt lat="43.57921" lon="5.07284">
        <ele>73</ele>
        <time>2019-12-16T14:28:15Z</time>
      </trkpt>
      <trkpt lat="43.57921" lon="5.07284">
        <ele>73</ele>
        <time>2019-12-16T14:28:16Z</time>
      </trkpt>
      <trkpt lat="43.57921" lon="5.07284">
        <ele>73</ele>
        <time>2019-12-16T14:28:17Z</time>
      </trkpt>
      <trkpt lat="43.57921" lon="5.07284">
        <ele>73</ele>
        <time>2019-12-16T14:28:18Z</time>
      </trkpt>
      <trkpt lat="43.57921" lon="5.07284">
        <ele>73</ele>
        <time>2019-12-16T14:28:19Z</time>
      </trkpt>
      <trkpt lat="43.57921" lon="5.07284">
        <ele>73</ele>
        <time>2019-12-16T14:28:20Z</time>
      </trkpt>
      <trkpt lat="43.57921" lon="5.07284">
        <ele>73</ele>
        <time>2019-12-16T14:28:21Z</time>
      </trkpt>
      <trkpt lat="43.57921" lon="5.07284">
        <ele>73</ele>
        <time>2019-12-16T14:28:22Z</time>
      </trkpt>
      <trkpt lat="43.57921" lon="5.07284">
        <ele>73</ele>
        <time>2019-12-16T14:28:23Z</time>
      </trkpt>
      <trkpt lat="43.57921" lon="5.07284">
        <ele>73</ele>
        <time>2019-12-16T14:28:24Z</time>
      </trkpt>
      <trkpt lat="43.57921" lon="5.07284">
        <ele>73</ele>
        <time>2019-12-16T14:28:25Z</time>
      </trkpt>
      <trkpt lat="43.57921" lon="5.07284">
        <ele>73</ele>
        <time>2019-12-16T14:28:26Z</time>
      </trkpt>
      <trkpt lat="43.57921" lon="5.07284">
        <ele>73</ele>
        <time>2019-12-16T14:28:27Z</time>
      </trkpt>
      <trkpt lat="43.57921" lon="5.07284">
        <ele>73</ele>
        <time>2019-12-16T14:28:28Z</time>
      </trkpt>
      <trkpt lat="43.57921" lon="5.07284">
        <ele>73</ele>
        <time>2019-12-16T14:28:29Z</time>
      </trkpt>
      <trkpt lat="43.57921" lon="5.07284">
        <ele>73</ele>
        <time>2019-12-16T14:28:30Z</time>
      </trkpt>
      <trkpt lat="43.57921" lon="5.07284">
        <ele>73</ele>
        <time>2019-12-16T14:28:31Z</time>
      </trkpt>
      <trkpt lat="43.57921" lon="5.07284">
        <ele>73</ele>
        <time>2019-12-16T14:28:32Z</time>
      </trkpt>
      <trkpt lat="43.57921" lon="5.07284">
        <ele>73</ele>
        <time>2019-12-16T14:28:33Z</time>
      </trkpt>
      <trkpt lat="43.57921" lon="5.07284">
        <ele>73</ele>
        <time>2019-12-16T14:28:34Z</time>
      </trkpt>
      <trkpt lat="43.57921" lon="5.07284">
        <ele>73</ele>
        <time>2019-12-16T14:28:35Z</time>
      </trkpt>
      <trkpt lat="43.57921" lon="5.07284">
        <ele>73</ele>
        <time>2019-12-16T14:28:36Z</time>
      </trkpt>
      <trkpt lat="43.57921" lon="5.07284">
        <ele>73</ele>
        <time>2019-12-16T14:28:37Z</time>
      </trkpt>
      <trkpt lat="43.57921" lon="5.07284">
        <ele>73</ele>
        <time>2019-12-16T14:28:38Z</time>
      </trkpt>
      <trkpt lat="43.57921" lon="5.07284">
        <ele>73</ele>
        <time>2019-12-16T14:28:39Z</time>
      </trkpt>
      <trkpt lat="43.57921" lon="5.07284">
        <ele>73</ele>
        <time>2019-12-16T14:28:40Z</time>
      </trkpt>
      <trkpt lat="43.57921" lon="5.07284">
        <ele>73</ele>
        <time>2019-12-16T14:28:41Z</time>
      </trkpt>
      <trkpt lat="43.57921" lon="5.07284">
        <ele>73</ele>
        <time>2019-12-16T14:28:42Z</time>
      </trkpt>
      <trkpt lat="43.57921" lon="5.07284">
        <ele>73</ele>
        <time>2019-12-16T14:28:43Z</time>
      </trkpt>
      <trkpt lat="43.57921" lon="5.07284">
        <ele>73</ele>
        <time>2019-12-16T14:28:44Z</time>
      </trkpt>
      <trkpt lat="43.57921" lon="5.07284">
        <ele>73</ele>
        <time>2019-12-16T14:28:45Z</time>
      </trkpt>
      <trkpt lat="43.57921" lon="5.07284">
        <ele>73</ele>
        <time>2019-12-16T14:28:46Z</time>
      </trkpt>
      <trkpt lat="43.57921" lon="5.07284">
        <ele>73</ele>
        <time>2019-12-16T14:28:47Z</time>
      </trkpt>
      <trkpt lat="43.57921" lon="5.07284">
        <ele>73</ele>
        <time>2019-12-16T14:28:48Z</time>
      </trkpt>
      <trkpt lat="43.57921" lon="5.07284">
        <ele>73</ele>
        <time>2019-12-16T14:28:49Z</time>
      </trkpt>
      <trkpt lat="43.57921" lon="5.07284">
        <ele>73</ele>
        <time>2019-12-16T14:28:50Z</time>
      </trkpt>
      <trkpt lat="43.57921" lon="5.07284">
        <ele>73</ele>
        <time>2019-12-16T14:28:51Z</time>
      </trkpt>
      <trkpt lat="43.57921" lon="5.07284">
        <ele>73</ele>
        <time>2019-12-16T14:28:52Z</time>
      </trkpt>
      <trkpt lat="43.57921" lon="5.07284">
        <ele>73</ele>
        <time>2019-12-16T14:28:53Z</time>
      </trkpt>
      <trkpt lat="43.57921" lon="5.07284">
        <ele>73</ele>
        <time>2019-12-16T14:28:54Z</time>
      </trkpt>
      <trkpt lat="43.57921" lon="5.07284">
        <ele>73</ele>
        <time>2019-12-16T14:28:55Z</time>
      </trkpt>
      <trkpt lat="43.57921" lon="5.07284">
        <ele>73</ele>
        <time>2019-12-16T14:28:56Z</time>
      </trkpt>
      <trkpt lat="43.57921" lon="5.07284">
        <ele>73</ele>
        <time>2019-12-16T14:28:57Z</time>
      </trkpt>
      <trkpt lat="43.57921" lon="5.07284">
        <ele>73</ele>
        <time>2019-12-16T14:28:58Z</time>
      </trkpt>
      <trkpt lat="43.57921" lon="5.07284">
        <ele>73</ele>
        <time>2019-12-16T14:28:59Z</time>
      </trkpt>
      <trkpt lat="43.57921" lon="5.07284">
        <ele>73</ele>
        <time>2019-12-16T14:29:00Z</time>
      </trkpt>
      <trkpt lat="43.57921" lon="5.07284">
        <ele>73</ele>
        <time>2019-12-16T14:29:01Z</time>
      </trkpt>
      <trkpt lat="43.57921" lon="5.07284">
        <ele>73</ele>
        <time>2019-12-16T14:29:02Z</time>
      </trkpt>
      <trkpt lat="43.57921" lon="5.07284">
        <ele>73</ele>
        <time>2019-12-16T14:29:03Z</time>
      </trkpt>
      <trkpt lat="43.57921" lon="5.07284">
        <ele>73</ele>
        <time>2019-12-16T14:29:04Z</time>
      </trkpt>
      <trkpt lat="43.57921" lon="5.07284">
        <ele>73</ele>
        <time>2019-12-16T14:29:05Z</time>
      </trkpt>
      <trkpt lat="43.57921" lon="5.07285">
        <ele>73</ele>
        <time>2019-12-16T14:29:06Z</time>
      </trkpt>
      <trkpt lat="43.5792" lon="5.07285">
        <ele>73</ele>
        <time>2019-12-16T14:29:07Z</time>
      </trkpt>
      <trkpt lat="43.5792" lon="5.07285">
        <ele>73</ele>
        <time>2019-12-16T14:29:08Z</time>
      </trkpt>
      <trkpt lat="43.5792" lon="5.07285">
        <ele>73</ele>
        <time>2019-12-16T14:29:09Z</time>
      </trkpt>
      <trkpt lat="43.5792" lon="5.07286">
        <ele>73</ele>
        <time>2019-12-16T14:29:10Z</time>
      </trkpt>
      <trkpt lat="43.5792" lon="5.07286">
        <ele>73</ele>
        <time>2019-12-16T14:29:11Z</time>
      </trkpt>
      <trkpt lat="43.5792" lon="5.07286">
        <ele>73</ele>
        <time>2019-12-16T14:29:12Z</time>
      </trkpt>
      <trkpt lat="43.5792" lon="5.07286">
        <ele>73</ele>
        <time>2019-12-16T14:29:13Z</time>
      </trkpt>
      <trkpt lat="43.5792" lon="5.07286">
        <ele>73</ele>
        <time>2019-12-16T14:29:14Z</time>
      </trkpt>
      <trkpt lat="43.5792" lon="5.07286">
        <ele>73</ele>
        <time>2019-12-16T14:29:15Z</time>
      </trkpt>
      <trkpt lat="43.5792" lon="5.07286">
        <ele>73</ele>
        <time>2019-12-16T14:29:16Z</time>
      </trkpt>
      <trkpt lat="43.5792" lon="5.07286">
        <ele>73</ele>
        <time>2019-12-16T14:29:17Z</time>
      </trkpt>
      <trkpt lat="43.5792" lon="5.07286">
        <ele>73</ele>
        <time>2019-12-16T14:29:18Z</time>
      </trkpt>
      <trkpt lat="43.5792" lon="5.07286">
        <ele>73</ele>
        <time>2019-12-16T14:29:19Z</time>
      </trkpt>
      <trkpt lat="43.5792" lon="5.07286">
        <ele>73</ele>
        <time>2019-12-16T14:29:20Z</time>
      </trkpt>
      <trkpt lat="43.5792" lon="5.07286">
        <ele>73</ele>
        <time>2019-12-16T14:29:21Z</time>
      </trkpt>
      <trkpt lat="43.5792" lon="5.07286">
        <ele>73</ele>
        <time>2019-12-16T14:29:22Z</time>
      </trkpt>
      <trkpt lat="43.5792" lon="5.07286">
        <ele>73</ele>
        <time>2019-12-16T14:29:23Z</time>
      </trkpt>
      <trkpt lat="43.5792" lon="5.07286">
        <ele>73</ele>
        <time>2019-12-16T14:29:24Z</time>
      </trkpt>
      <trkpt lat="43.5792" lon="5.07286">
        <ele>73</ele>
        <time>2019-12-16T14:29:25Z</time>
      </trkpt>
      <trkpt lat="43.5792" lon="5.07286">
        <ele>73</ele>
        <time>2019-12-16T14:29:26Z</time>
      </trkpt>
      <trkpt lat="43.5792" lon="5.07286">
        <ele>73</ele>
        <time>2019-12-16T14:29:27Z</time>
      </trkpt>
      <trkpt lat="43.5792" lon="5.07286">
        <ele>73</ele>
        <time>2019-12-16T14:29:28Z</time>
      </trkpt>
      <trkpt lat="43.5792" lon="5.07286">
        <ele>73</ele>
        <time>2019-12-16T14:29:29Z</time>
      </trkpt>
      <trkpt lat="43.5792" lon="5.07286">
        <ele>73</ele>
        <time>2019-12-16T14:29:30Z</time>
      </trkpt>
      <trkpt lat="43.5792" lon="5.07286">
        <ele>73</ele>
        <time>2019-12-16T14:29:31Z</time>
      </trkpt>
      <trkpt lat="43.5792" lon="5.07286">
        <ele>73</ele>
        <time>2019-12-16T14:29:32Z</time>
      </trkpt>
      <trkpt lat="43.5792" lon="5.07286">
        <ele>73</ele>
        <time>2019-12-16T14:29:33Z</time>
      </trkpt>
      <trkpt lat="43.5792" lon="5.07286">
        <ele>73</ele>
        <time>2019-12-16T14:29:34Z</time>
      </trkpt>
      <trkpt lat="43.57921" lon="5.07286">
        <ele>73</ele>
        <time>2019-12-16T14:29:35Z</time>
      </trkpt>
      <trkpt lat="43.57921" lon="5.07287">
        <ele>73</ele>
        <time>2019-12-16T14:29:36Z</time>
      </trkpt>
      <trkpt lat="43.57921" lon="5.07287">
        <ele>73</ele>
        <time>2019-12-16T14:29:37Z</time>
      </trkpt>
      <trkpt lat="43.57921" lon="5.07287">
        <ele>73</ele>
        <time>2019-12-16T14:29:38Z</time>
      </trkpt>
      <trkpt lat="43.57922" lon="5.07288">
        <ele>73</ele>
        <time>2019-12-16T14:29:39Z</time>
      </trkpt>
      <trkpt lat="43.57922" lon="5.07288">
        <ele>73</ele>
        <time>2019-12-16T14:29:40Z</time>
      </trkpt>
      <trkpt lat="43.57922" lon="5.07288">
        <ele>73</ele>
        <time>2019-12-16T14:29:41Z</time>
      </trkpt>
      <trkpt lat="43.57922" lon="5.07288">
        <ele>73</ele>
        <time>2019-12-16T14:29:42Z</time>
      </trkpt>
      <trkpt lat="43.57922" lon="5.07288">
        <ele>73</ele>
        <time>2019-12-16T14:29:43Z</time>
      </trkpt>
      <trkpt lat="43.57923" lon="5.07288">
        <ele>73</ele>
        <time>2019-12-16T14:29:44Z</time>
      </trkpt>
      <trkpt lat="43.57923" lon="5.07288">
        <ele>73</ele>
        <time>2019-12-16T14:29:45Z</time>
      </trkpt>
      <trkpt lat="43.57923" lon="5.07288">
        <ele>73</ele>
        <time>2019-12-16T14:29:46Z</time>
      </trkpt>
      <trkpt lat="43.57923" lon="5.07287">
        <ele>73</ele>
        <time>2019-12-16T14:29:47Z</time>
      </trkpt>
      <trkpt lat="43.57923" lon="5.07287">
        <ele>73</ele>
        <time>2019-12-16T14:29:48Z</time>
      </trkpt>
      <trkpt lat="43.57923" lon="5.07287">
        <ele>73</ele>
        <time>2019-12-16T14:29:49Z</time>
      </trkpt>
      <trkpt lat="43.57923" lon="5.07287">
        <ele>73</ele>
        <time>2019-12-16T14:29:50Z</time>
      </trkpt>
      <trkpt lat="43.57923" lon="5.07287">
        <ele>73</ele>
        <time>2019-12-16T14:29:51Z</time>
      </trkpt>
      <trkpt lat="43.57923" lon="5.07287">
        <ele>73</ele>
        <time>2019-12-16T14:29:52Z</time>
      </trkpt>
      <trkpt lat="43.57923" lon="5.07287">
        <ele>73</ele>
        <time>2019-12-16T14:29:53Z</time>
      </trkpt>
      <trkpt lat="43.57923" lon="5.07287">
        <ele>73</ele>
        <time>2019-12-16T14:29:54Z</time>
      </trkpt>
      <trkpt lat="43.57923" lon="5.07286">
        <ele>73</ele>
        <time>2019-12-16T14:29:55Z</time>
      </trkpt>
      <trkpt lat="43.57923" lon="5.07285">
        <ele>73</ele>
        <time>2019-12-16T14:29:56Z</time>
      </trkpt>
      <trkpt lat="43.57923" lon="5.07284">
        <ele>73</ele>
        <time>2019-12-16T14:29:57Z</time>
      </trkpt>
      <trkpt lat="43.57923" lon="5.07283">
        <ele>73</ele>
        <time>2019-12-16T14:29:58Z</time>
      </trkpt>
      <trkpt lat="43.57923" lon="5.07282">
        <ele>73</ele>
        <time>2019-12-16T14:29:59Z</time>
      </trkpt>
      <trkpt lat="43.57924" lon="5.07282">
        <ele>73</ele>
        <time>2019-12-16T14:30:00Z</time>
      </trkpt>
      <trkpt lat="43.57924" lon="5.07282">
        <ele>73</ele>
        <time>2019-12-16T14:30:01Z</time>
      </trkpt>
      <trkpt lat="43.57924" lon="5.07281">
        <ele>73</ele>
        <time>2019-12-16T14:30:02Z</time>
      </trkpt>
      <trkpt lat="43.57924" lon="5.07281">
        <ele>73</ele>
        <time>2019-12-16T14:30:03Z</time>
      </trkpt>
      <trkpt lat="43.57924" lon="5.07281">
        <ele>73</ele>
        <time>2019-12-16T14:30:04Z</time>
      </trkpt>
      <trkpt lat="43.57924" lon="5.07281">
        <ele>73</ele>
        <time>2019-12-16T14:30:05Z</time>
      </trkpt>
      <trkpt lat="43.57924" lon="5.07281">
        <ele>73</ele>
        <time>2019-12-16T14:30:06Z</time>
      </trkpt>
      <trkpt lat="43.57924" lon="5.07281">
        <ele>73</ele>
        <time>2019-12-16T14:30:07Z</time>
      </trkpt>
      <trkpt lat="43.57924" lon="5.07281">
        <ele>73</ele>
        <time>2019-12-16T14:30:08Z</time>
      </trkpt>
      <trkpt lat="43.57924" lon="5.07281">
        <ele>73</ele>
        <time>2019-12-16T14:30:09Z</time>
      </trkpt>
      <trkpt lat="43.57924" lon="5.07281">
        <ele>73</ele>
        <time>2019-12-16T14:30:10Z</time>
      </trkpt>
      <trkpt lat="43.57924" lon="5.07281">
        <ele>73</ele>
        <time>2019-12-16T14:30:11Z</time>
      </trkpt>
      <trkpt lat="43.57924" lon="5.07281">
        <ele>73</ele>
        <time>2019-12-16T14:30:12Z</time>
      </trkpt>
      <trkpt lat="43.57924" lon="5.07281">
        <ele>73</ele>
        <time>2019-12-16T14:30:13Z</time>
      </trkpt>
      <trkpt lat="43.57924" lon="5.07281">
        <ele>73</ele>
        <time>2019-12-16T14:30:14Z</time>
      </trkpt>
      <trkpt lat="43.57924" lon="5.07281">
        <ele>73</ele>
        <time>2019-12-16T14:30:15Z</time>
      </trkpt>
      <trkpt lat="43.57924" lon="5.07281">
        <ele>73</ele>
        <time>2019-12-16T14:30:16Z</time>
      </trkpt>
      <trkpt lat="43.57924" lon="5.07281">
        <ele>73</ele>
        <time>2019-12-16T14:30:17Z</time>
      </trkpt>
      <trkpt lat="43.57924" lon="5.07281">
        <ele>73</ele>
        <time>2019-12-16T14:30:18Z</time>
      </trkpt>
      <trkpt lat="43.57924" lon="5.07281">
        <ele>73</ele>
        <time>2019-12-16T14:30:19Z</time>
      </trkpt>
      <trkpt lat="43.57924" lon="5.07281">
        <ele>73</ele>
        <time>2019-12-16T14:30:20Z</time>
      </trkpt>
      <trkpt lat="43.57924" lon="5.07281">
        <ele>73</ele>
        <time>2019-12-16T14:30:21Z</time>
      </trkpt>
      <trkpt lat="43.57924" lon="5.07281">
        <ele>73</ele>
        <time>2019-12-16T14:30:22Z</time>
      </trkpt>
      <trkpt lat="43.57924" lon="5.07281">
        <ele>73</ele>
        <time>2019-12-16T14:30:23Z</time>
      </trkpt>
      <trkpt lat="43.57924" lon="5.07281">
        <ele>73</ele>
        <time>2019-12-16T14:30:24Z</time>
      </trkpt>
      <trkpt lat="43.57924" lon="5.07281">
        <ele>73</ele>
        <time>2019-12-16T14:30:25Z</time>
      </trkpt>
      <trkpt lat="43.57924" lon="5.07281">
        <ele>73</ele>
        <time>2019-12-16T14:30:26Z</time>
      </trkpt>
      <trkpt lat="43.57924" lon="5.07281">
        <ele>73</ele>
        <time>2019-12-16T14:30:27Z</time>
      </trkpt>
      <trkpt lat="43.57924" lon="5.07281">
        <ele>73</ele>
        <time>2019-12-16T14:30:28Z</time>
      </trkpt>
      <trkpt lat="43.57924" lon="5.07281">
        <ele>73</ele>
        <time>2019-12-16T14:30:29Z</time>
      </trkpt>
      <trkpt lat="43.57924" lon="5.07281">
        <ele>73</ele>
        <time>2019-12-16T14:30:30Z</time>
      </trkpt>
      <trkpt lat="43.57924" lon="5.07281">
        <ele>73</ele>
        <time>2019-12-16T14:30:31Z</time>
      </trkpt>
      <trkpt lat="43.57924" lon="5.07281">
        <ele>73</ele>
        <time>2019-12-16T14:30:32Z</time>
      </trkpt>
      <trkpt lat="43.57924" lon="5.07281">
        <ele>73</ele>
        <time>2019-12-16T14:30:33Z</time>
      </trkpt>
      <trkpt lat="43.57924" lon="5.07281">
        <ele>73</ele>
        <time>2019-12-16T14:30:34Z</time>
      </trkpt>
      <trkpt lat="43.57924" lon="5.07281">
        <ele>73</ele>
        <time>2019-12-16T14:30:35Z</time>
      </trkpt>
      <trkpt lat="43.57924" lon="5.07281">
        <ele>73</ele>
        <time>2019-12-16T14:30:36Z</time>
      </trkpt>
      <trkpt lat="43.57924" lon="5.07281">
        <ele>73</ele>
        <time>2019-12-16T14:30:37Z</time>
      </trkpt>
      <trkpt lat="43.57924" lon="5.07281">
        <ele>73</ele>
        <time>2019-12-16T14:30:38Z</time>
      </trkpt>
      <trkpt lat="43.57924" lon="5.07281">
        <ele>73</ele>
        <time>2019-12-16T14:30:39Z</time>
      </trkpt>
      <trkpt lat="43.57924" lon="5.07281">
        <ele>73</ele>
        <time>2019-12-16T14:30:40Z</time>
      </trkpt>
      <trkpt lat="43.57924" lon="5.07281">
        <ele>73</ele>
        <time>2019-12-16T14:30:41Z</time>
      </trkpt>
      <trkpt lat="43.57924" lon="5.07281">
        <ele>73</ele>
        <time>2019-12-16T14:30:42Z</time>
      </trkpt>
      <trkpt lat="43.57924" lon="5.07281">
        <ele>73</ele>
        <time>2019-12-16T14:30:43Z</time>
      </trkpt>
      <trkpt lat="43.57924" lon="5.07281">
        <ele>73</ele>
        <time>2019-12-16T14:30:44Z</time>
      </trkpt>
      <trkpt lat="43.57924" lon="5.07281">
        <ele>73</ele>
        <time>2019-12-16T14:30:45Z</time>
      </trkpt>
      <trkpt lat="43.57924" lon="5.07281">
        <ele>73</ele>
        <time>2019-12-16T14:30:46Z</time>
      </trkpt>
      <trkpt lat="43.57924" lon="5.07281">
        <ele>73</ele>
        <time>2019-12-16T14:30:47Z</time>
      </trkpt>
      <trkpt lat="43.57924" lon="5.07281">
        <ele>73</ele>
        <time>2019-12-16T14:30:48Z</time>
      </trkpt>
      <trkpt lat="43.57924" lon="5.07281">
        <ele>73</ele>
        <time>2019-12-16T14:30:49Z</time>
      </trkpt>
      <trkpt lat="43.57924" lon="5.07281">
        <ele>73</ele>
        <time>2019-12-16T14:30:50Z</time>
      </trkpt>
      <trkpt lat="43.57924" lon="5.07281">
        <ele>73</ele>
        <time>2019-12-16T14:30:51Z</time>
      </trkpt>
      <trkpt lat="43.57924" lon="5.07281">
        <ele>73</ele>
        <time>2019-12-16T14:30:52Z</time>
      </trkpt>
      <trkpt lat="43.57924" lon="5.07281">
        <ele>73</ele>
        <time>2019-12-16T14:30:53Z</time>
      </trkpt>
      <trkpt lat="43.57924" lon="5.07281">
        <ele>73</ele>
        <time>2019-12-16T14:30:54Z</time>
      </trkpt>
      <trkpt lat="43.57924" lon="5.07281">
        <ele>73</ele>
        <time>2019-12-16T14:30:55Z</time>
      </trkpt>
      <trkpt lat="43.57924" lon="5.07281">
        <ele>73</ele>
        <time>2019-12-16T14:30:56Z</time>
      </trkpt>
      <trkpt lat="43.57924" lon="5.07281">
        <ele>73</ele>
        <time>2019-12-16T14:30:57Z</time>
      </trkpt>
      <trkpt lat="43.57924" lon="5.07281">
        <ele>73</ele>
        <time>2019-12-16T14:30:58Z</time>
      </trkpt>
      <trkpt lat="43.57924" lon="5.07281">
        <ele>73</ele>
        <time>2019-12-16T14:30:59Z</time>
      </trkpt>
      <trkpt lat="43.57924" lon="5.07281">
        <ele>73</ele>
        <time>2019-12-16T14:31:00Z</time>
      </trkpt>
      <trkpt lat="43.57924" lon="5.07281">
        <ele>73</ele>
        <time>2019-12-16T14:31:01Z</time>
      </trkpt>
      <trkpt lat="43.57924" lon="5.07281">
        <ele>73</ele>
        <time>2019-12-16T14:31:02Z</time>
      </trkpt>
      <trkpt lat="43.57924" lon="5.07281">
        <ele>73</ele>
        <time>2019-12-16T14:31:03Z</time>
      </trkpt>
      <trkpt lat="43.57924" lon="5.07282">
        <ele>73</ele>
        <time>2019-12-16T14:31:04Z</time>
      </trkpt>
      <trkpt lat="43.57924" lon="5.07282">
        <ele>73</ele>
        <time>2019-12-16T14:31:05Z</time>
      </trkpt>
      <trkpt lat="43.57925" lon="5.07283">
        <ele>73</ele>
        <time>2019-12-16T14:31:06Z</time>
      </trkpt>
      <trkpt lat="43.57925" lon="5.07284">
        <ele>73</ele>
        <time>2019-12-16T14:31:07Z</time>
      </trkpt>
      <trkpt lat="43.57925" lon="5.07285">
        <ele>73</ele>
        <time>2019-12-16T14:31:08Z</time>
      </trkpt>
      <trkpt lat="43.57926" lon="5.07286">
        <ele>73</ele>
        <time>2019-12-16T14:31:09Z</time>
      </trkpt>
      <trkpt lat="43.57927" lon="5.07287">
        <ele>73</ele>
        <time>2019-12-16T14:31:10Z</time>
      </trkpt>
      <trkpt lat="43.57927" lon="5.07288">
        <ele>73</ele>
        <time>2019-12-16T14:31:11Z</time>
      </trkpt>
      <trkpt lat="43.57928" lon="5.07289">
        <ele>73</ele>
        <time>2019-12-16T14:31:12Z</time>
      </trkpt>
      <trkpt lat="43.57929" lon="5.0729">
        <ele>73</ele>
        <time>2019-12-16T14:31:13Z</time>
      </trkpt>
      <trkpt lat="43.5793" lon="5.07292">
        <ele>73</ele>
        <time>2019-12-16T14:31:14Z</time>
      </trkpt>
      <trkpt lat="43.57931" lon="5.07293">
        <ele>73</ele>
        <time>2019-12-16T14:31:15Z</time>
      </trkpt>
      <trkpt lat="43.57932" lon="5.07294">
        <ele>73</ele>
        <time>2019-12-16T14:31:16Z</time>
      </trkpt>
      <trkpt lat="43.57933" lon="5.07295">
        <ele>73</ele>
        <time>2019-12-16T14:31:17Z</time>
      </trkpt>
      <trkpt lat="43.57934" lon="5.07296">
        <ele>73</ele>
        <time>2019-12-16T14:31:18Z</time>
      </trkpt>
      <trkpt lat="43.57935" lon="5.07297">
        <ele>73</ele>
        <time>2019-12-16T14:31:19Z</time>
      </trkpt>
      <trkpt lat="43.57936" lon="5.07299">
        <ele>73</ele>
        <time>2019-12-16T14:31:20Z</time>
      </trkpt>
      <trkpt lat="43.57937" lon="5.073">
        <ele>73</ele>
        <time>2019-12-16T14:31:21Z</time>
      </trkpt>
      <trkpt lat="43.57938" lon="5.07301">
        <ele>73</ele>
        <time>2019-12-16T14:31:22Z</time>
      </trkpt>
      <trkpt lat="43.57939" lon="5.07303">
        <ele>73</ele>
        <time>2019-12-16T14:31:23Z</time>
      </trkpt>
      <trkpt lat="43.57939" lon="5.07304">
        <ele>73</ele>
        <time>2019-12-16T14:31:24Z</time>
      </trkpt>
      <trkpt lat="43.5794" lon="5.07305">
        <ele>73</ele>
        <time>2019-12-16T14:31:25Z</time>
      </trkpt>
      <trkpt lat="43.57941" lon="5.07306">
        <ele>73</ele>
        <time>2019-12-16T14:31:26Z</time>
      </trkpt>
      <trkpt lat="43.57942" lon="5.07307">
        <ele>73</ele>
        <time>2019-12-16T14:31:27Z</time>
      </trkpt>
      <trkpt lat="43.57943" lon="5.07309">
        <ele>73</ele>
        <time>2019-12-16T14:31:28Z</time>
      </trkpt>
      <trkpt lat="43.57943" lon="5.0731">
        <ele>73</ele>
        <time>2019-12-16T14:31:29Z</time>
      </trkpt>
      <trkpt lat="43.57944" lon="5.07311">
        <ele>73</ele>
        <time>2019-12-16T14:31:30Z</time>
      </trkpt>
      <trkpt lat="43.57945" lon="5.07312">
        <ele>73</ele>
        <time>2019-12-16T14:31:31Z</time>
      </trkpt>
      <trkpt lat="43.57945" lon="5.07313">
        <ele>73</ele>
        <time>2019-12-16T14:31:32Z</time>
      </trkpt>
      <trkpt lat="43.57946" lon="5.07314">
        <ele>73</ele>
        <time>2019-12-16T14:31:33Z</time>
      </trkpt>
      <trkpt lat="43.57947" lon="5.07314">
        <ele>73</ele>
        <time>2019-12-16T14:31:34Z</time>
      </trkpt>
      <trkpt lat="43.57947" lon="5.07315">
        <ele>73</ele>
        <time>2019-12-16T14:31:35Z</time>
      </trkpt>
      <trkpt lat="43.57948" lon="5.07316">
        <ele>73</ele>
        <time>2019-12-16T14:31:36Z</time>
      </trkpt>
      <trkpt lat="43.57949" lon="5.07317">
        <ele>73</ele>
        <time>2019-12-16T14:31:37Z</time>
      </trkpt>
      <trkpt lat="43.57949" lon="5.07318">
        <ele>73</ele>
        <time>2019-12-16T14:31:38Z</time>
      </trkpt>
      <trkpt lat="43.5795" lon="5.07319">
        <ele>73</ele>
        <time>2019-12-16T14:31:39Z</time>
      </trkpt>
      <trkpt lat="43.5795" lon="5.07319">
        <ele>73</ele>
        <time>2019-12-16T14:31:40Z</time>
      </trkpt>
      <trkpt lat="43.57951" lon="5.0732">
        <ele>73</ele>
        <time>2019-12-16T14:31:41Z</time>
      </trkpt>
      <trkpt lat="43.57952" lon="5.07321">
        <ele>73</ele>
        <time>2019-12-16T14:31:42Z</time>
      </trkpt>
      <trkpt lat="43.57952" lon="5.07322">
        <ele>73</ele>
        <time>2019-12-16T14:31:43Z</time>
      </trkpt>
      <trkpt lat="43.57953" lon="5.07322">
        <ele>73</ele>
        <time>2019-12-16T14:31:44Z</time>
      </trkpt>
      <trkpt lat="43.57953" lon="5.07323">
        <ele>73</ele>
        <time>2019-12-16T14:31:45Z</time>
      </trkpt>
      <trkpt lat="43.57954" lon="5.07323">
        <ele>73</ele>
        <time>2019-12-16T14:31:46Z</time>
      </trkpt>
      <trkpt lat="43.57955" lon="5.07323">
        <ele>73</ele>
        <time>2019-12-16T14:31:47Z</time>
      </trkpt>
      <trkpt lat="43.57955" lon="5.07324">
        <ele>73</ele>
        <time>2019-12-16T14:31:48Z</time>
      </trkpt>
      <trkpt lat="43.57956" lon="5.07324">
        <ele>73</ele>
        <time>2019-12-16T14:31:49Z</time>
      </trkpt>
      <trkpt lat="43.57956" lon="5.07323">
        <ele>73</ele>
        <time>2019-12-16T14:31:50Z</time>
      </trkpt>
      <trkpt lat="43.57957" lon="5.07323">
        <ele>73</ele>
        <time>2019-12-16T14:31:51Z</time>
      </trkpt>
      <trkpt lat="43.57958" lon="5.07323">
        <ele>73</ele>
        <time>2019-12-16T14:31:52Z</time>
      </trkpt>
      <trkpt lat="43.57958" lon="5.07322">
        <ele>73</ele>
        <time>2019-12-16T14:31:53Z</time>
      </trkpt>
      <trkpt lat="43.57958" lon="5.07321">
        <ele>73</ele>
        <time>2019-12-16T14:31:54Z</time>
      </trkpt>
      <trkpt lat="43.57959" lon="5.07321">
        <ele>73</ele>
        <time>2019-12-16T14:31:55Z</time>
      </trkpt>
      <trkpt lat="43.57959" lon="5.0732">
        <ele>73</ele>
        <time>2019-12-16T14:31:56Z</time>
      </trkpt>
      <trkpt lat="43.57959" lon="5.0732">
        <ele>73</ele>
        <time>2019-12-16T14:31:57Z</time>
      </trkpt>
      <trkpt lat="43.57959" lon="5.07319">
        <ele>73</ele>
        <time>2019-12-16T14:31:58Z</time>
      </trkpt>
      <trkpt lat="43.5796" lon="5.07319">
        <ele>73</ele>
        <time>2019-12-16T14:31:59Z</time>
      </trkpt>
      <trkpt lat="43.5796" lon="5.07318">
        <ele>73</ele>
        <time>2019-12-16T14:32:00Z</time>
      </trkpt>
      <trkpt lat="43.5796" lon="5.07318">
        <ele>73</ele>
        <time>2019-12-16T14:32:01Z</time>
      </trkpt>
      <trkpt lat="43.5796" lon="5.07318">
        <ele>73</ele>
        <time>2019-12-16T14:32:02Z</time>
      </trkpt>
      <trkpt lat="43.57961" lon="5.07317">
        <ele>73</ele>
        <time>2019-12-16T14:32:03Z</time>
      </trkpt>
      <trkpt lat="43.57961" lon="5.07317">
        <ele>73</ele>
        <time>2019-12-16T14:32:04Z</time>
      </trkpt>
      <trkpt lat="43.57961" lon="5.07316">
        <ele>73</ele>
        <time>2019-12-16T14:32:05Z</time>
      </trkpt>
      <trkpt lat="43.57962" lon="5.07316">
        <ele>73</ele>
        <time>2019-12-16T14:32:06Z</time>
      </trkpt>
      <trkpt lat="43.57963" lon="5.07315">
        <ele>73</ele>
        <time>2019-12-16T14:32:07Z</time>
      </trkpt>
      <trkpt lat="43.57963" lon="5.07315">
        <ele>73</ele>
        <time>2019-12-16T14:32:08Z</time>
      </trkpt>
      <trkpt lat="43.57964" lon="5.07314">
        <ele>73</ele>
        <time>2019-12-16T14:32:09Z</time>
      </trkpt>
      <trkpt lat="43.57965" lon="5.07313">
        <ele>73</ele>
        <time>2019-12-16T14:32:10Z</time>
      </trkpt>
      <trkpt lat="43.57966" lon="5.07313">
        <ele>73</ele>
        <time>2019-12-16T14:32:11Z</time>
      </trkpt>
      <trkpt lat="43.57967" lon="5.07312">
        <ele>73</ele>
        <time>2019-12-16T14:32:12Z</time>
      </trkpt>
      <trkpt lat="43.57968" lon="5.07311">
        <ele>73</ele>
        <time>2019-12-16T14:32:13Z</time>
      </trkpt>
      <trkpt lat="43.57969" lon="5.07311">
        <ele>73</ele>
        <time>2019-12-16T14:32:14Z</time>
      </trkpt>
      <trkpt lat="43.5797" lon="5.0731">
        <ele>73</ele>
        <time>2019-12-16T14:32:15Z</time>
      </trkpt>
      <trkpt lat="43.57971" lon="5.07309">
        <ele>73</ele>
        <time>2019-12-16T14:32:16Z</time>
      </trkpt>
      <trkpt lat="43.57972" lon="5.07308">
        <ele>74</ele>
        <time>2019-12-16T14:32:17Z</time>
      </trkpt>
      <trkpt lat="43.57974" lon="5.07307">
        <ele>74</ele>
        <time>2019-12-16T14:32:18Z</time>
      </trkpt>
      <trkpt lat="43.57975" lon="5.07307">
        <ele>74</ele>
        <time>2019-12-16T14:32:19Z</time>
      </trkpt>
      <trkpt lat="43.57976" lon="5.07306">
        <ele>74</ele>
        <time>2019-12-16T14:32:20Z</time>
      </trkpt>
      <trkpt lat="43.57977" lon="5.07305">
        <ele>74</ele>
        <time>2019-12-16T14:32:21Z</time>
      </trkpt>
      <trkpt lat="43.57978" lon="5.07304">
        <ele>74</ele>
        <time>2019-12-16T14:32:22Z</time>
      </trkpt>
      <trkpt lat="43.5798" lon="5.07304">
        <ele>74</ele>
        <time>2019-12-16T14:32:23Z</time>
      </trkpt>
      <trkpt lat="43.57981" lon="5.07303">
        <ele>74</ele>
        <time>2019-12-16T14:32:24Z</time>
      </trkpt>
      <trkpt lat="43.57982" lon="5.07302">
        <ele>74</ele>
        <time>2019-12-16T14:32:25Z</time>
      </trkpt>
      <trkpt lat="43.57983" lon="5.07302">
        <ele>74</ele>
        <time>2019-12-16T14:32:26Z</time>
      </trkpt>
      <trkpt lat="43.57985" lon="5.07301">
        <ele>74</ele>
        <time>2019-12-16T14:32:27Z</time>
      </trkpt>
      <trkpt lat="43.57986" lon="5.073">
        <ele>74</ele>
        <time>2019-12-16T14:32:28Z</time>
      </trkpt>
      <trkpt lat="43.57987" lon="5.073">
        <ele>74</ele>
        <time>2019-12-16T14:32:29Z</time>
      </trkpt>
      <trkpt lat="43.57988" lon="5.07299">
        <ele>74</ele>
        <time>2019-12-16T14:32:30Z</time>
      </trkpt>
      <trkpt lat="43.57989" lon="5.07299">
        <ele>74</ele>
        <time>2019-12-16T14:32:31Z</time>
      </trkpt>
      <trkpt lat="43.5799" lon="5.07298">
        <ele>74</ele>
        <time>2019-12-16T14:32:32Z</time>
      </trkpt>
      <trkpt lat="43.57991" lon="5.07298">
        <ele>74</ele>
        <time>2019-12-16T14:32:33Z</time>
      </trkpt>
      <trkpt lat="43.57993" lon="5.07298">
        <ele>74</ele>
        <time>2019-12-16T14:32:34Z</time>
      </trkpt>
      <trkpt lat="43.57994" lon="5.07297">
        <ele>74</ele>
        <time>2019-12-16T14:32:35Z</time>
      </trkpt>
      <trkpt lat="43.57995" lon="5.07297">
        <ele>74</ele>
        <time>2019-12-16T14:32:36Z</time>
      </trkpt>
      <trkpt lat="43.57996" lon="5.07297">
        <ele>74</ele>
        <time>2019-12-16T14:32:37Z</time>
      </trkpt>
      <trkpt lat="43.57998" lon="5.07297">
        <ele>74</ele>
        <time>2019-12-16T14:32:38Z</time>
      </trkpt>
      <trkpt lat="43.57999" lon="5.07296">
        <ele>74</ele>
        <time>2019-12-16T14:32:39Z</time>
      </trkpt>
      <trkpt lat="43.58" lon="5.07296">
        <ele>74</ele>
        <time>2019-12-16T14:32:40Z</time>
      </trkpt>
      <trkpt lat="43.58001" lon="5.07296">
        <ele>76</ele>
        <time>2019-12-16T14:32:41Z</time>
      </trkpt>
      <trkpt lat="43.58002" lon="5.07296">
        <ele>76</ele>
        <time>2019-12-16T14:32:42Z</time>
      </trkpt>
      <trkpt lat="43.58004" lon="5.07296">
        <ele>76</ele>
        <time>2019-12-16T14:32:43Z</time>
      </trkpt>
      <trkpt lat="43.58005" lon="5.07296">
        <ele>76</ele>
        <time>2019-12-16T14:32:44Z</time>
      </trkpt>
      <trkpt lat="43.58006" lon="5.07296">
        <ele>77</ele>
        <time>2019-12-16T14:32:45Z</time>
      </trkpt>
      <trkpt lat="43.58007" lon="5.07296">
        <ele>77</ele>
        <time>2019-12-16T14:32:46Z</time>
      </trkpt>
      <trkpt lat="43.58009" lon="5.07296">
        <ele>77</ele>
        <time>2019-12-16T14:32:47Z</time>
      </trkpt>
      <trkpt lat="43.5801" lon="5.07296">
        <ele>77</ele>
        <time>2019-12-16T14:32:48Z</time>
      </trkpt>
      <trkpt lat="43.58011" lon="5.07297">
        <ele>77</ele>
        <time>2019-12-16T14:32:49Z</time>
      </trkpt>
      <trkpt lat="43.58012" lon="5.07297">
        <ele>77</ele>
        <time>2019-12-16T14:32:50Z</time>
      </trkpt>
      <trkpt lat="43.58014" lon="5.07297">
        <ele>77</ele>
        <time>2019-12-16T14:32:51Z</time>
      </trkpt>
      <trkpt lat="43.58015" lon="5.07297">
        <ele>77</ele>
        <time>2019-12-16T14:32:52Z</time>
      </trkpt>
      <trkpt lat="43.58016" lon="5.07297">
        <ele>77</ele>
        <time>2019-12-16T14:32:53Z</time>
      </trkpt>
      <trkpt lat="43.58017" lon="5.07297">
        <ele>77</ele>
        <time>2019-12-16T14:32:54Z</time>
      </trkpt>
      <trkpt lat="43.58018" lon="5.07297">
        <ele>77</ele>
        <time>2019-12-16T14:32:55Z</time>
      </trkpt>
      <trkpt lat="43.5802" lon="5.07297">
        <ele>77</ele>
        <time>2019-12-16T14:32:56Z</time>
      </trkpt>
      <trkpt lat="43.58021" lon="5.07297">
        <ele>77</ele>
        <time>2019-12-16T14:32:57Z</time>
      </trkpt>
      <trkpt lat="43.58022" lon="5.07297">
        <ele>77</ele>
        <time>2019-12-16T14:32:58Z</time>
      </trkpt>
      <trkpt lat="43.58024" lon="5.07297">
        <ele>77</ele>
        <time>2019-12-16T14:32:59Z</time>
      </trkpt>
      <trkpt lat="43.58025" lon="5.07297">
        <ele>77</ele>
        <time>2019-12-16T14:33:00Z</time>
      </trkpt>
      <trkpt lat="43.58026" lon="5.07297">
        <ele>77</ele>
        <time>2019-12-16T14:33:01Z</time>
      </trkpt>
      <trkpt lat="43.58027" lon="5.07298">
        <ele>77</ele>
        <time>2019-12-16T14:33:02Z</time>
      </trkpt>
      <trkpt lat="43.58028" lon="5.07298">
        <ele>77</ele>
        <time>2019-12-16T14:33:03Z</time>
      </trkpt>
      <trkpt lat="43.5803" lon="5.07298">
        <ele>77</ele>
        <time>2019-12-16T14:33:04Z</time>
      </trkpt>
      <trkpt lat="43.58031" lon="5.07298">
        <ele>77</ele>
        <time>2019-12-16T14:33:05Z</time>
      </trkpt>
      <trkpt lat="43.58032" lon="5.07298">
        <ele>77</ele>
        <time>2019-12-16T14:33:06Z</time>
      </trkpt>
      <trkpt lat="43.58034" lon="5.07298">
        <ele>77</ele>
        <time>2019-12-16T14:33:07Z</time>
      </trkpt>
      <trkpt lat="43.58035" lon="5.07298">
        <ele>77</ele>
        <time>2019-12-16T14:33:08Z</time>
      </trkpt>
      <trkpt lat="43.58036" lon="5.07298">
        <ele>77</ele>
        <time>2019-12-16T14:33:09Z</time>
      </trkpt>
      <trkpt lat="43.58037" lon="5.07298">
        <ele>77</ele>
        <time>2019-12-16T14:33:10Z</time>
      </trkpt>
      <trkpt lat="43.58039" lon="5.07297">
        <ele>77</ele>
        <time>2019-12-16T14:33:11Z</time>
      </trkpt>
      <trkpt lat="43.5804" lon="5.07297">
        <ele>77</ele>
        <time>2019-12-16T14:33:12Z</time>
      </trkpt>
      <trkpt lat="43.58041" lon="5.07297">
        <ele>77</ele>
        <time>2019-12-16T14:33:13Z</time>
      </trkpt>
      <trkpt lat="43.58043" lon="5.07297">
        <ele>77</ele>
        <time>2019-12-16T14:33:14Z</time>
      </trkpt>
      <trkpt lat="43.58044" lon="5.07297">
        <ele>77</ele>
        <time>2019-12-16T14:33:15Z</time>
      </trkpt>
      <trkpt lat="43.58045" lon="5.07297">
        <ele>77</ele>
        <time>2019-12-16T14:33:16Z</time>
      </trkpt>
      <trkpt lat="43.58047" lon="5.07297">
        <ele>78</ele>
        <time>2019-12-16T14:33:17Z</time>
      </trkpt>
      <trkpt lat="43.58048" lon="5.07297">
        <ele>78</ele>
        <time>2019-12-16T14:33:18Z</time>
      </trkpt>
      <trkpt lat="43.58049" lon="5.07297">
        <ele>78</ele>
        <time>2019-12-16T14:33:19Z</time>
      </trkpt>
      <trkpt lat="43.5805" lon="5.07297">
        <ele>78</ele>
        <time>2019-12-16T14:33:20Z</time>
      </trkpt>
      <trkpt lat="43.58051" lon="5.07297">
        <ele>78</ele>
        <time>2019-12-16T14:33:21Z</time>
      </trkpt>
      <trkpt lat="43.58052" lon="5.07297">
        <ele>78</ele>
        <time>2019-12-16T14:33:22Z</time>
      </trkpt>
      <trkpt lat="43.58053" lon="5.07297">
        <ele>78</ele>
        <time>2019-12-16T14:33:23Z</time>
      </trkpt>
      <trkpt lat="43.58054" lon="5.07297">
        <ele>78</ele>
        <time>2019-12-16T14:33:24Z</time>
      </trkpt>
      <trkpt lat="43.58055" lon="5.07297">
        <ele>78</ele>
        <time>2019-12-16T14:33:25Z</time>
      </trkpt>
      <trkpt lat="43.58056" lon="5.07296">
        <ele>78</ele>
        <time>2019-12-16T14:33:26Z</time>
      </trkpt>
      <trkpt lat="43.58057" lon="5.07296">
        <ele>78</ele>
        <time>2019-12-16T14:33:27Z</time>
      </trkpt>
      <trkpt lat="43.58058" lon="5.07296">
        <ele>78</ele>
        <time>2019-12-16T14:33:28Z</time>
      </trkpt>
      <trkpt lat="43.5806" lon="5.07295">
        <ele>78</ele>
        <time>2019-12-16T14:33:29Z</time>
      </trkpt>
      <trkpt lat="43.58061" lon="5.07295">
        <ele>78</ele>
        <time>2019-12-16T14:33:30Z</time>
      </trkpt>
      <trkpt lat="43.58062" lon="5.07294">
        <ele>78</ele>
        <time>2019-12-16T14:33:31Z</time>
      </trkpt>
      <trkpt lat="43.58064" lon="5.07294">
        <ele>78</ele>
        <time>2019-12-16T14:33:32Z</time>
      </trkpt>
      <trkpt lat="43.58065" lon="5.07294">
        <ele>78</ele>
        <time>2019-12-16T14:33:33Z</time>
      </trkpt>
      <trkpt lat="43.58067" lon="5.07294">
        <ele>78</ele>
        <time>2019-12-16T14:33:34Z</time>
      </trkpt>
      <trkpt lat="43.58068" lon="5.07295">
        <ele>78</ele>
        <time>2019-12-16T14:33:35Z</time>
      </trkpt>
      <trkpt lat="43.58069" lon="5.07295">
        <ele>78</ele>
        <time>2019-12-16T14:33:36Z</time>
      </trkpt>
      <trkpt lat="43.5807" lon="5.07295">
        <ele>78</ele>
        <time>2019-12-16T14:33:37Z</time>
      </trkpt>
      <trkpt lat="43.58072" lon="5.07296">
        <ele>78</ele>
        <time>2019-12-16T14:33:38Z</time>
      </trkpt>
      <trkpt lat="43.58073" lon="5.07296">
        <ele>78</ele>
        <time>2019-12-16T14:33:39Z</time>
      </trkpt>
      <trkpt lat="43.58074" lon="5.07297">
        <ele>78</ele>
        <time>2019-12-16T14:33:40Z</time>
      </trkpt>
      <trkpt lat="43.58076" lon="5.07297">
        <ele>78</ele>
        <time>2019-12-16T14:33:41Z</time>
      </trkpt>
      <trkpt lat="43.58077" lon="5.07298">
        <ele>78</ele>
        <time>2019-12-16T14:33:42Z</time>
      </trkpt>
      <trkpt lat="43.58078" lon="5.07298">
        <ele>78</ele>
        <time>2019-12-16T14:33:43Z</time>
      </trkpt>
      <trkpt lat="43.58079" lon="5.07299">
        <ele>78</ele>
        <time>2019-12-16T14:33:44Z</time>
      </trkpt>
      <trkpt lat="43.5808" lon="5.07299">
        <ele>78</ele>
        <time>2019-12-16T14:33:45Z</time>
      </trkpt>
      <trkpt lat="43.58081" lon="5.07299">
        <ele>78</ele>
        <time>2019-12-16T14:33:46Z</time>
      </trkpt>
      <trkpt lat="43.58082" lon="5.073">
        <ele>78</ele>
        <time>2019-12-16T14:33:47Z</time>
      </trkpt>
      <trkpt lat="43.58083" lon="5.073">
        <ele>78</ele>
        <time>2019-12-16T14:33:48Z</time>
      </trkpt>
      <trkpt lat="43.58084" lon="5.073">
        <ele>79</ele>
        <time>2019-12-16T14:33:49Z</time>
      </trkpt>
      <trkpt lat="43.58086" lon="5.073">
        <ele>79</ele>
        <time>2019-12-16T14:33:50Z</time>
      </trkpt>
      <trkpt lat="43.58087" lon="5.073">
        <ele>79</ele>
        <time>2019-12-16T14:33:51Z</time>
      </trkpt>
      <trkpt lat="43.58088" lon="5.07301">
        <ele>79</ele>
        <time>2019-12-16T14:33:52Z</time>
      </trkpt>
      <trkpt lat="43.58089" lon="5.07301">
        <ele>79</ele>
        <time>2019-12-16T14:33:53Z</time>
      </trkpt>
      <trkpt lat="43.5809" lon="5.07301">
        <ele>79</ele>
        <time>2019-12-16T14:33:54Z</time>
      </trkpt>
      <trkpt lat="43.58091" lon="5.07301">
        <ele>79</ele>
        <time>2019-12-16T14:33:55Z</time>
      </trkpt>
      <trkpt lat="43.58093" lon="5.07301">
        <ele>79</ele>
        <time>2019-12-16T14:33:56Z</time>
      </trkpt>
      <trkpt lat="43.58094" lon="5.07301">
        <ele>79</ele>
        <time>2019-12-16T14:33:57Z</time>
      </trkpt>
      <trkpt lat="43.58095" lon="5.07301">
        <ele>79</ele>
        <time>2019-12-16T14:33:58Z</time>
      </trkpt>
      <trkpt lat="43.58096" lon="5.07301">
        <ele>79</ele>
        <time>2019-12-16T14:33:59Z</time>
      </trkpt>
      <trkpt lat="43.58097" lon="5.07301">
        <ele>79</ele>
        <time>2019-12-16T14:34:00Z</time>
      </trkpt>
      <trkpt lat="43.58099" lon="5.07301">
        <ele>79</ele>
        <time>2019-12-16T14:34:01Z</time>
      </trkpt>
      <trkpt lat="43.581" lon="5.07301">
        <ele>79</ele>
        <time>2019-12-16T14:34:02Z</time>
      </trkpt>
      <trkpt lat="43.58101" lon="5.07301">
        <ele>79</ele>
        <time>2019-12-16T14:34:03Z</time>
      </trkpt>
      <trkpt lat="43.58103" lon="5.07301">
        <ele>79</ele>
        <time>2019-12-16T14:34:04Z</time>
      </trkpt>
      <trkpt lat="43.58104" lon="5.07301">
        <ele>79</ele>
        <time>2019-12-16T14:34:05Z</time>
      </trkpt>
      <trkpt lat="43.58105" lon="5.07301">
        <ele>79</ele>
        <time>2019-12-16T14:34:06Z</time>
      </trkpt>
      <trkpt lat="43.58106" lon="5.07301">
        <ele>79</ele>
        <time>2019-12-16T14:34:07Z</time>
      </trkpt>
      <trkpt lat="43.58107" lon="5.07301">
        <ele>79</ele>
        <time>2019-12-16T14:34:08Z</time>
      </trkpt>
      <trkpt lat="43.58109" lon="5.07301">
        <ele>79</ele>
        <time>2019-12-16T14:34:09Z</time>
      </trkpt>
      <trkpt lat="43.5811" lon="5.07301">
        <ele>79</ele>
        <time>2019-12-16T14:34:10Z</time>
      </trkpt>
      <trkpt lat="43.58111" lon="5.07301">
        <ele>79</ele>
        <time>2019-12-16T14:34:11Z</time>
      </trkpt>
      <trkpt lat="43.58113" lon="5.07301">
        <ele>79</ele>
        <time>2019-12-16T14:34:12Z</time>
      </trkpt>
      <trkpt lat="43.58114" lon="5.07301">
        <ele>79</ele>
        <time>2019-12-16T14:34:13Z</time>
      </trkpt>
      <trkpt lat="43.58115" lon="5.07301">
        <ele>79</ele>
        <time>2019-12-16T14:34:14Z</time>
      </trkpt>
      <trkpt lat="43.58116" lon="5.07301">
        <ele>79</ele>
        <time>2019-12-16T14:34:15Z</time>
      </trkpt>
      <trkpt lat="43.58117" lon="5.07301">
        <ele>79</ele>
        <time>2019-12-16T14:34:16Z</time>
      </trkpt>
      <trkpt lat="43.58118" lon="5.07301">
        <ele>79</ele>
        <time>2019-12-16T14:34:17Z</time>
      </trkpt>
      <trkpt lat="43.5812" lon="5.07301">
        <ele>79</ele>
        <time>2019-12-16T14:34:18Z</time>
      </trkpt>
      <trkpt lat="43.58121" lon="5.07301">
        <ele>79</ele>
        <time>2019-12-16T14:34:19Z</time>
      </trkpt>
      <trkpt lat="43.58122" lon="5.07301">
        <ele>79</ele>
        <time>2019-12-16T14:34:20Z</time>
      </trkpt>
      <trkpt lat="43.58123" lon="5.07301">
        <ele>79</ele>
        <time>2019-12-16T14:34:21Z</time>
      </trkpt>
      <trkpt lat="43.58125" lon="5.07301">
        <ele>79</ele>
        <time>2019-12-16T14:34:22Z</time>
      </trkpt>
      <trkpt lat="43.58126" lon="5.07301">
        <ele>79</ele>
        <time>2019-12-16T14:34:23Z</time>
      </trkpt>
      <trkpt lat="43.58127" lon="5.07301">
        <ele>79</ele>
        <time>2019-12-16T14:34:24Z</time>
      </trkpt>
      <trkpt lat="43.58128" lon="5.07302">
        <ele>79</ele>
        <time>2019-12-16T14:34:25Z</time>
      </trkpt>
      <trkpt lat="43.5813" lon="5.07302">
        <ele>79</ele>
        <time>2019-12-16T14:34:26Z</time>
      </trkpt>
      <trkpt lat="43.58131" lon="5.07302">
        <ele>79</ele>
        <time>2019-12-16T14:34:27Z</time>
      </trkpt>
      <trkpt lat="43.58132" lon="5.07302">
        <ele>79</ele>
        <time>2019-12-16T14:34:28Z</time>
      </trkpt>
      <trkpt lat="43.58133" lon="5.07302">
        <ele>79</ele>
        <time>2019-12-16T14:34:29Z</time>
      </trkpt>
      <trkpt lat="43.58133" lon="5.07302">
        <ele>79</ele>
        <time>2019-12-16T14:34:30Z</time>
      </trkpt>
      <trkpt lat="43.58134" lon="5.07302">
        <ele>79</ele>
        <time>2019-12-16T14:34:31Z</time>
      </trkpt>
      <trkpt lat="43.58135" lon="5.07302">
        <ele>79</ele>
        <time>2019-12-16T14:34:32Z</time>
      </trkpt>
      <trkpt lat="43.58135" lon="5.07302">
        <ele>79</ele>
        <time>2019-12-16T14:34:33Z</time>
      </trkpt>
      <trkpt lat="43.58135" lon="5.07302">
        <ele>79</ele>
        <time>2019-12-16T14:34:34Z</time>
      </trkpt>
      <trkpt lat="43.58135" lon="5.07302">
        <ele>79</ele>
        <time>2019-12-16T14:34:35Z</time>
      </trkpt>
      <trkpt lat="43.58136" lon="5.07302">
        <ele>79</ele>
        <time>2019-12-16T14:34:36Z</time>
      </trkpt>
      <trkpt lat="43.58136" lon="5.07302">
        <ele>79</ele>
        <time>2019-12-16T14:34:37Z</time>
      </trkpt>
      <trkpt lat="43.58135" lon="5.07302">
        <ele>79</ele>
        <time>2019-12-16T14:34:38Z</time>
      </trkpt>
      <trkpt lat="43.58135" lon="5.07302">
        <ele>79</ele>
        <time>2019-12-16T14:34:39Z</time>
      </trkpt>
      <trkpt lat="43.58135" lon="5.07302">
        <ele>79</ele>
        <time>2019-12-16T14:34:40Z</time>
      </trkpt>
      <trkpt lat="43.58135" lon="5.07302">
        <ele>79</ele>
        <time>2019-12-16T14:34:41Z</time>
      </trkpt>
      <trkpt lat="43.58135" lon="5.07302">
        <ele>79</ele>
        <time>2019-12-16T14:34:42Z</time>
      </trkpt>
      <trkpt lat="43.58135" lon="5.07302">
        <ele>79</ele>
        <time>2019-12-16T14:34:43Z</time>
      </trkpt>
      <trkpt lat="43.58135" lon="5.07302">
        <ele>79</ele>
        <time>2019-12-16T14:34:44Z</time>
      </trkpt>
      <trkpt lat="43.58135" lon="5.07302">
        <ele>79</ele>
        <time>2019-12-16T14:34:45Z</time>
      </trkpt>
      <trkpt lat="43.58135" lon="5.07302">
        <ele>79</ele>
        <time>2019-12-16T14:34:46Z</time>
      </trkpt>
      <trkpt lat="43.58135" lon="5.07302">
        <ele>79</ele>
        <time>2019-12-16T14:34:47Z</time>
      </trkpt>
      <trkpt lat="43.58135" lon="5.07302">
        <ele>79</ele>
        <time>2019-12-16T14:34:48Z</time>
      </trkpt>
      <trkpt lat="43.58135" lon="5.07302">
        <ele>79</ele>
        <time>2019-12-16T14:34:49Z</time>
      </trkpt>
      <trkpt lat="43.58135" lon="5.07302">
        <ele>79</ele>
        <time>2019-12-16T14:34:50Z</time>
      </trkpt>
      <trkpt lat="43.58135" lon="5.07302">
        <ele>79</ele>
        <time>2019-12-16T14:34:51Z</time>
      </trkpt>
      <trkpt lat="43.58135" lon="5.07302">
        <ele>79</ele>
        <time>2019-12-16T14:34:52Z</time>
      </trkpt>
      <trkpt lat="43.58135" lon="5.07303">
        <ele>79</ele>
        <time>2019-12-16T14:34:53Z</time>
      </trkpt>
      <trkpt lat="43.58135" lon="5.07303">
        <ele>79</ele>
        <time>2019-12-16T14:34:54Z</time>
      </trkpt>
      <trkpt lat="43.58135" lon="5.07303">
        <ele>79</ele>
        <time>2019-12-16T14:34:55Z</time>
      </trkpt>
      <trkpt lat="43.58135" lon="5.07303">
        <ele>79</ele>
        <time>2019-12-16T14:34:56Z</time>
      </trkpt>
      <trkpt lat="43.58135" lon="5.07303">
        <ele>79</ele>
        <time>2019-12-16T14:34:57Z</time>
      </trkpt>
      <trkpt lat="43.58134" lon="5.07303">
        <ele>79</ele>
        <time>2019-12-16T14:34:58Z</time>
      </trkpt>
      <trkpt lat="43.58134" lon="5.07303">
        <ele>79</ele>
        <time>2019-12-16T14:34:59Z</time>
      </trkpt>
      <trkpt lat="43.58134" lon="5.07303">
        <ele>79</ele>
        <time>2019-12-16T14:35:00Z</time>
      </trkpt>
      <trkpt lat="43.58134" lon="5.07303">
        <ele>79</ele>
        <time>2019-12-16T14:35:01Z</time>
      </trkpt>
      <trkpt lat="43.58134" lon="5.07303">
        <ele>79</ele>
        <time>2019-12-16T14:35:02Z</time>
      </trkpt>
      <trkpt lat="43.58134" lon="5.07303">
        <ele>79</ele>
        <time>2019-12-16T14:35:03Z</time>
      </trkpt>
      <trkpt lat="43.58134" lon="5.07303">
        <ele>79</ele>
        <time>2019-12-16T14:35:04Z</time>
      </trkpt>
      <trkpt lat="43.58134" lon="5.07303">
        <ele>79</ele>
        <time>2019-12-16T14:35:05Z</time>
      </trkpt>
      <trkpt lat="43.58134" lon="5.07303">
        <ele>79</ele>
        <time>2019-12-16T14:35:06Z</time>
      </trkpt>
      <trkpt lat="43.58134" lon="5.07303">
        <ele>79</ele>
        <time>2019-12-16T14:35:07Z</time>
      </trkpt>
      <trkpt lat="43.58134" lon="5.07303">
        <ele>79</ele>
        <time>2019-12-16T14:35:08Z</time>
      </trkpt>
      <trkpt lat="43.58134" lon="5.07303">
        <ele>79</ele>
        <time>2019-12-16T14:35:09Z</time>
      </trkpt>
      <trkpt lat="43.58134" lon="5.07303">
        <ele>79</ele>
        <time>2019-12-16T14:35:10Z</time>
      </trkpt>
      <trkpt lat="43.58134" lon="5.07303">
        <ele>79</ele>
        <time>2019-12-16T14:35:11Z</time>
      </trkpt>
      <trkpt lat="43.58134" lon="5.07303">
        <ele>79</ele>
        <time>2019-12-16T14:35:12Z</time>
      </trkpt>
      <trkpt lat="43.58134" lon="5.07303">
        <ele>79</ele>
        <time>2019-12-16T14:35:13Z</time>
      </trkpt>
      <trkpt lat="43.58134" lon="5.07303">
        <ele>79</ele>
        <time>2019-12-16T14:35:14Z</time>
      </trkpt>
      <trkpt lat="43.58134" lon="5.07303">
        <ele>79</ele>
        <time>2019-12-16T14:35:15Z</time>
      </trkpt>
      <trkpt lat="43.58134" lon="5.07303">
        <ele>79</ele>
        <time>2019-12-16T14:35:16Z</time>
      </trkpt>
      <trkpt lat="43.58134" lon="5.07303">
        <ele>79</ele>
        <time>2019-12-16T14:35:17Z</time>
      </trkpt>
      <trkpt lat="43.58134" lon="5.07303">
        <ele>79</ele>
        <time>2019-12-16T14:35:18Z</time>
      </trkpt>
      <trkpt lat="43.58134" lon="5.07304">
        <ele>79</ele>
        <time>2019-12-16T14:35:19Z</time>
      </trkpt>
      <trkpt lat="43.58134" lon="5.07304">
        <ele>79</ele>
        <time>2019-12-16T14:35:20Z</time>
      </trkpt>
      <trkpt lat="43.58135" lon="5.07304">
        <ele>79</ele>
        <time>2019-12-16T14:35:21Z</time>
      </trkpt>
      <trkpt lat="43.58135" lon="5.07305">
        <ele>79</ele>
        <time>2019-12-16T14:35:22Z</time>
      </trkpt>
      <trkpt lat="43.58135" lon="5.07305">
        <ele>79</ele>
        <time>2019-12-16T14:35:23Z</time>
      </trkpt>
      <trkpt lat="43.58135" lon="5.07306">
        <ele>79</ele>
        <time>2019-12-16T14:35:24Z</time>
      </trkpt>
      <trkpt lat="43.58135" lon="5.07306">
        <ele>79</ele>
        <time>2019-12-16T14:35:25Z</time>
      </trkpt>
      <trkpt lat="43.58135" lon="5.07306">
        <ele>79</ele>
        <time>2019-12-16T14:35:26Z</time>
      </trkpt>
      <trkpt lat="43.58135" lon="5.07306">
        <ele>79</ele>
        <time>2019-12-16T14:35:27Z</time>
      </trkpt>
      <trkpt lat="43.58135" lon="5.07307">
        <ele>79</ele>
        <time>2019-12-16T14:35:28Z</time>
      </trkpt>
      <trkpt lat="43.58135" lon="5.07307">
        <ele>79</ele>
        <time>2019-12-16T14:35:29Z</time>
      </trkpt>
      <trkpt lat="43.58135" lon="5.07306">
        <ele>79</ele>
        <time>2019-12-16T14:35:30Z</time>
      </trkpt>
      <trkpt lat="43.58136" lon="5.07306">
        <ele>79</ele>
        <time>2019-12-16T14:35:31Z</time>
      </trkpt>
      <trkpt lat="43.58137" lon="5.07306">
        <ele>79</ele>
        <time>2019-12-16T14:35:32Z</time>
      </trkpt>
      <trkpt lat="43.58138" lon="5.07306">
        <ele>79</ele>
        <time>2019-12-16T14:35:33Z</time>
      </trkpt>
      <trkpt lat="43.58139" lon="5.07306">
        <ele>79</ele>
        <time>2019-12-16T14:35:34Z</time>
      </trkpt>
      <trkpt lat="43.5814" lon="5.07305">
        <ele>79</ele>
        <time>2019-12-16T14:35:35Z</time>
      </trkpt>
      <trkpt lat="43.58142" lon="5.07305">
        <ele>79</ele>
        <time>2019-12-16T14:35:36Z</time>
      </trkpt>
      <trkpt lat="43.58143" lon="5.07304">
        <ele>79</ele>
        <time>2019-12-16T14:35:37Z</time>
      </trkpt>
      <trkpt lat="43.58144" lon="5.07304">
        <ele>79</ele>
        <time>2019-12-16T14:35:38Z</time>
      </trkpt>
      <trkpt lat="43.58144" lon="5.07304">
        <ele>79</ele>
        <time>2019-12-16T14:35:39Z</time>
      </trkpt>
      <trkpt lat="43.58145" lon="5.07304">
        <ele>79</ele>
        <time>2019-12-16T14:35:40Z</time>
      </trkpt>
      <trkpt lat="43.58145" lon="5.07303">
        <ele>79</ele>
        <time>2019-12-16T14:35:41Z</time>
      </trkpt>
      <trkpt lat="43.58145" lon="5.07304">
        <ele>79</ele>
        <time>2019-12-16T14:35:42Z</time>
      </trkpt>
      <trkpt lat="43.58146" lon="5.07304">
        <ele>79</ele>
        <time>2019-12-16T14:35:43Z</time>
      </trkpt>
      <trkpt lat="43.58146" lon="5.07304">
        <ele>79</ele>
        <time>2019-12-16T14:35:44Z</time>
      </trkpt>
      <trkpt lat="43.58147" lon="5.07305">
        <ele>79</ele>
        <time>2019-12-16T14:35:45Z</time>
      </trkpt>
      <trkpt lat="43.58147" lon="5.07306">
        <ele>79</ele>
        <time>2019-12-16T14:35:46Z</time>
      </trkpt>
      <trkpt lat="43.58148" lon="5.07307">
        <ele>78</ele>
        <time>2019-12-16T14:35:47Z</time>
      </trkpt>
      <trkpt lat="43.58148" lon="5.07308">
        <ele>78</ele>
        <time>2019-12-16T14:35:48Z</time>
      </trkpt>
      <trkpt lat="43.58149" lon="5.07309">
        <ele>78</ele>
        <time>2019-12-16T14:35:49Z</time>
      </trkpt>
      <trkpt lat="43.5815" lon="5.07311">
        <ele>78</ele>
        <time>2019-12-16T14:35:50Z</time>
      </trkpt>
      <trkpt lat="43.5815" lon="5.07312">
        <ele>78</ele>
        <time>2019-12-16T14:35:51Z</time>
      </trkpt>
      <trkpt lat="43.58151" lon="5.07313">
        <ele>78</ele>
        <time>2019-12-16T14:35:52Z</time>
      </trkpt>
      <trkpt lat="43.58152" lon="5.07314">
        <ele>78</ele>
        <time>2019-12-16T14:35:53Z</time>
      </trkpt>
      <trkpt lat="43.58153" lon="5.07316">
        <ele>78</ele>
        <time>2019-12-16T14:35:54Z</time>
      </trkpt>
      <trkpt lat="43.58154" lon="5.07317">
        <ele>77</ele>
        <time>2019-12-16T14:35:55Z</time>
      </trkpt>
      <trkpt lat="43.58155" lon="5.07318">
        <ele>77</ele>
        <time>2019-12-16T14:35:56Z</time>
      </trkpt>
      <trkpt lat="43.58156" lon="5.07319">
        <ele>77</ele>
        <time>2019-12-16T14:35:57Z</time>
      </trkpt>
      <trkpt lat="43.58157" lon="5.07321">
        <ele>77</ele>
        <time>2019-12-16T14:35:58Z</time>
      </trkpt>
      <trkpt lat="43.58158" lon="5.07322">
        <ele>77</ele>
        <time>2019-12-16T14:35:59Z</time>
      </trkpt>
      <trkpt lat="43.58159" lon="5.07323">
        <ele>76</ele>
        <time>2019-12-16T14:36:00Z</time>
      </trkpt>
      <trkpt lat="43.5816" lon="5.07324">
        <ele>76</ele>
        <time>2019-12-16T14:36:01Z</time>
      </trkpt>
      <trkpt lat="43.58161" lon="5.07325">
        <ele>76</ele>
        <time>2019-12-16T14:36:02Z</time>
      </trkpt>
      <trkpt lat="43.58162" lon="5.07326">
        <ele>76</ele>
        <time>2019-12-16T14:36:03Z</time>
      </trkpt>
      <trkpt lat="43.58163" lon="5.07328">
        <ele>75</ele>
        <time>2019-12-16T14:36:04Z</time>
      </trkpt>
      <trkpt lat="43.58163" lon="5.07329">
        <ele>75</ele>
        <time>2019-12-16T14:36:05Z</time>
      </trkpt>
      <trkpt lat="43.58165" lon="5.0733">
        <ele>75</ele>
        <time>2019-12-16T14:36:06Z</time>
      </trkpt>
      <trkpt lat="43.58165" lon="5.07331">
        <ele>75</ele>
        <time>2019-12-16T14:36:07Z</time>
      </trkpt>
      <trkpt lat="43.58166" lon="5.07333">
        <ele>74</ele>
        <time>2019-12-16T14:36:08Z</time>
      </trkpt>
      <trkpt lat="43.58167" lon="5.07334">
        <ele>74</ele>
        <time>2019-12-16T14:36:09Z</time>
      </trkpt>
      <trkpt lat="43.58168" lon="5.07336">
        <ele>74</ele>
        <time>2019-12-16T14:36:10Z</time>
      </trkpt>
      <trkpt lat="43.58169" lon="5.07337">
        <ele>74</ele>
        <time>2019-12-16T14:36:11Z</time>
      </trkpt>
      <trkpt lat="43.58169" lon="5.07339">
        <ele>74</ele>
        <time>2019-12-16T14:36:12Z</time>
      </trkpt>
      <trkpt lat="43.5817" lon="5.0734">
        <ele>74</ele>
        <time>2019-12-16T14:36:13Z</time>
      </trkpt>
      <trkpt lat="43.58171" lon="5.07342">
        <ele>74</ele>
        <time>2019-12-16T14:36:14Z</time>
      </trkpt>
      <trkpt lat="43.58172" lon="5.07344">
        <ele>74</ele>
        <time>2019-12-16T14:36:15Z</time>
      </trkpt>
      <trkpt lat="43.58172" lon="5.07346">
        <ele>74</ele>
        <time>2019-12-16T14:36:16Z</time>
      </trkpt>
      <trkpt lat="43.58173" lon="5.07347">
        <ele>74</ele>
        <time>2019-12-16T14:36:17Z</time>
      </trkpt>
      <trkpt lat="43.58173" lon="5.07349">
        <ele>74</ele>
        <time>2019-12-16T14:36:18Z</time>
      </trkpt>
      <trkpt lat="43.58174" lon="5.0735">
        <ele>74</ele>
        <time>2019-12-16T14:36:19Z</time>
      </trkpt>
      <trkpt lat="43.58174" lon="5.07352">
        <ele>74</ele>
        <time>2019-12-16T14:36:20Z</time>
      </trkpt>
      <trkpt lat="43.58174" lon="5.07353">
        <ele>74</ele>
        <time>2019-12-16T14:36:21Z</time>
      </trkpt>
      <trkpt lat="43.58174" lon="5.07353">
        <ele>74</ele>
        <time>2019-12-16T14:36:22Z</time>
      </trkpt>
      <trkpt lat="43.58175" lon="5.07354">
        <ele>74</ele>
        <time>2019-12-16T14:36:23Z</time>
      </trkpt>
      <trkpt lat="43.58175" lon="5.07354">
        <ele>74</ele>
        <time>2019-12-16T14:36:24Z</time>
      </trkpt>
      <trkpt lat="43.58175" lon="5.07354">
        <ele>74</ele>
        <time>2019-12-16T14:36:25Z</time>
      </trkpt>
      <trkpt lat="43.58175" lon="5.07354">
        <ele>74</ele>
        <time>2019-12-16T14:36:26Z</time>
      </trkpt>
      <trkpt lat="43.58175" lon="5.07354">
        <ele>74</ele>
        <time>2019-12-16T14:36:27Z</time>
      </trkpt>
      <trkpt lat="43.58175" lon="5.07354">
        <ele>74</ele>
        <time>2019-12-16T14:36:28Z</time>
      </trkpt>
      <trkpt lat="43.58175" lon="5.07354">
        <ele>74</ele>
        <time>2019-12-16T14:36:29Z</time>
      </trkpt>
      <trkpt lat="43.58175" lon="5.07355">
        <ele>74</ele>
        <time>2019-12-16T14:36:30Z</time>
      </trkpt>
      <trkpt lat="43.58175" lon="5.07355">
        <ele>74</ele>
        <time>2019-12-16T14:36:31Z</time>
      </trkpt>
      <trkpt lat="43.58175" lon="5.07356">
        <ele>74</ele>
        <time>2019-12-16T14:36:32Z</time>
      </trkpt>
      <trkpt lat="43.58175" lon="5.07357">
        <ele>74</ele>
        <time>2019-12-16T14:36:33Z</time>
      </trkpt>
      <trkpt lat="43.58175" lon="5.07357">
        <ele>74</ele>
        <time>2019-12-16T14:36:34Z</time>
      </trkpt>
      <trkpt lat="43.58176" lon="5.07358">
        <ele>74</ele>
        <time>2019-12-16T14:36:35Z</time>
      </trkpt>
      <trkpt lat="43.58176" lon="5.07359">
        <ele>74</ele>
        <time>2019-12-16T14:36:36Z</time>
      </trkpt>
      <trkpt lat="43.58177" lon="5.0736">
        <ele>74</ele>
        <time>2019-12-16T14:36:37Z</time>
      </trkpt>
      <trkpt lat="43.58177" lon="5.07362">
        <ele>74</ele>
        <time>2019-12-16T14:36:38Z</time>
      </trkpt>
      <trkpt lat="43.58178" lon="5.07363">
        <ele>74</ele>
        <time>2019-12-16T14:36:39Z</time>
      </trkpt>
      <trkpt lat="43.58178" lon="5.07364">
        <ele>74</ele>
        <time>2019-12-16T14:36:40Z</time>
      </trkpt>
      <trkpt lat="43.58179" lon="5.07365">
        <ele>74</ele>
        <time>2019-12-16T14:36:41Z</time>
      </trkpt>
      <trkpt lat="43.5818" lon="5.07366">
        <ele>74</ele>
        <time>2019-12-16T14:36:42Z</time>
      </trkpt>
      <trkpt lat="43.58181" lon="5.07368">
        <ele>74</ele>
        <time>2019-12-16T14:36:43Z</time>
      </trkpt>
      <trkpt lat="43.58181" lon="5.07369">
        <ele>74</ele>
        <time>2019-12-16T14:36:44Z</time>
      </trkpt>
      <trkpt lat="43.58182" lon="5.07371">
        <ele>74</ele>
        <time>2019-12-16T14:36:45Z</time>
      </trkpt>
      <trkpt lat="43.58183" lon="5.07372">
        <ele>74</ele>
        <time>2019-12-16T14:36:46Z</time>
      </trkpt>
      <trkpt lat="43.58184" lon="5.07373">
        <ele>74</ele>
        <time>2019-12-16T14:36:47Z</time>
      </trkpt>
      <trkpt lat="43.58185" lon="5.07375">
        <ele>74</ele>
        <time>2019-12-16T14:36:48Z</time>
      </trkpt>
      <trkpt lat="43.58186" lon="5.07376">
        <ele>74</ele>
        <time>2019-12-16T14:36:49Z</time>
      </trkpt>
      <trkpt lat="43.58187" lon="5.07378">
        <ele>74</ele>
        <time>2019-12-16T14:36:50Z</time>
      </trkpt>
      <trkpt lat="43.58188" lon="5.07379">
        <ele>74</ele>
        <time>2019-12-16T14:36:51Z</time>
      </trkpt>
      <trkpt lat="43.58189" lon="5.0738">
        <ele>74</ele>
        <time>2019-12-16T14:36:52Z</time>
      </trkpt>
      <trkpt lat="43.5819" lon="5.07382">
        <ele>74</ele>
        <time>2019-12-16T14:36:53Z</time>
      </trkpt>
      <trkpt lat="43.58191" lon="5.07383">
        <ele>74</ele>
        <time>2019-12-16T14:36:54Z</time>
      </trkpt>
      <trkpt lat="43.58192" lon="5.07384">
        <ele>74</ele>
        <time>2019-12-16T14:36:55Z</time>
      </trkpt>
      <trkpt lat="43.58193" lon="5.07386">
        <ele>74</ele>
        <time>2019-12-16T14:36:56Z</time>
      </trkpt>
      <trkpt lat="43.58194" lon="5.07387">
        <ele>74</ele>
        <time>2019-12-16T14:36:57Z</time>
      </trkpt>
      <trkpt lat="43.58194" lon="5.07389">
        <ele>74</ele>
        <time>2019-12-16T14:36:58Z</time>
      </trkpt>
      <trkpt lat="43.58195" lon="5.0739">
        <ele>74</ele>
        <time>2019-12-16T14:36:59Z</time>
      </trkpt>
      <trkpt lat="43.58196" lon="5.07391">
        <ele>74</ele>
        <time>2019-12-16T14:37:00Z</time>
      </trkpt>
      <trkpt lat="43.58197" lon="5.07393">
        <ele>74</ele>
        <time>2019-12-16T14:37:01Z</time>
      </trkpt>
      <trkpt lat="43.58197" lon="5.07395">
        <ele>74</ele>
        <time>2019-12-16T14:37:02Z</time>
      </trkpt>
      <trkpt lat="43.58198" lon="5.07396">
        <ele>74</ele>
        <time>2019-12-16T14:37:03Z</time>
      </trkpt>
      <trkpt lat="43.58199" lon="5.07398">
        <ele>74</ele>
        <time>2019-12-16T14:37:04Z</time>
      </trkpt>
      <trkpt lat="43.58199" lon="5.074">
        <ele>74</ele>
        <time>2019-12-16T14:37:05Z</time>
      </trkpt>
      <trkpt lat="43.582" lon="5.07402">
        <ele>74</ele>
        <time>2019-12-16T14:37:06Z</time>
      </trkpt>
      <trkpt lat="43.58201" lon="5.07404">
        <ele>74</ele>
        <time>2019-12-16T14:37:07Z</time>
      </trkpt>
      <trkpt lat="43.58201" lon="5.07406">
        <ele>74</ele>
        <time>2019-12-16T14:37:08Z</time>
      </trkpt>
      <trkpt lat="43.58202" lon="5.07407">
        <ele>74</ele>
        <time>2019-12-16T14:37:09Z</time>
      </trkpt>
      <trkpt lat="43.58202" lon="5.07408">
        <ele>74</ele>
        <time>2019-12-16T14:37:10Z</time>
      </trkpt>
      <trkpt lat="43.58203" lon="5.0741">
        <ele>74</ele>
        <time>2019-12-16T14:37:11Z</time>
      </trkpt>
      <trkpt lat="43.58204" lon="5.07411">
        <ele>74</ele>
        <time>2019-12-16T14:37:12Z</time>
      </trkpt>
      <trkpt lat="43.58205" lon="5.07412">
        <ele>74</ele>
        <time>2019-12-16T14:37:13Z</time>
      </trkpt>
      <trkpt lat="43.58205" lon="5.07414">
        <ele>74</ele>
        <time>2019-12-16T14:37:14Z</time>
      </trkpt>
      <trkpt lat="43.58206" lon="5.07415">
        <ele>74</ele>
        <time>2019-12-16T14:37:15Z</time>
      </trkpt>
      <trkpt lat="43.58207" lon="5.07416">
        <ele>74</ele>
        <time>2019-12-16T14:37:16Z</time>
      </trkpt>
      <trkpt lat="43.58208" lon="5.07418">
        <ele>75</ele>
        <time>2019-12-16T14:37:17Z</time>
      </trkpt>
      <trkpt lat="43.58209" lon="5.07419">
        <ele>75</ele>
        <time>2019-12-16T14:37:18Z</time>
      </trkpt>
      <trkpt lat="43.58209" lon="5.07421">
        <ele>75</ele>
        <time>2019-12-16T14:37:19Z</time>
      </trkpt>
      <trkpt lat="43.5821" lon="5.07422">
        <ele>75</ele>
        <time>2019-12-16T14:37:20Z</time>
      </trkpt>
      <trkpt lat="43.58211" lon="5.07424">
        <ele>75</ele>
        <time>2019-12-16T14:37:21Z</time>
      </trkpt>
      <trkpt lat="43.58212" lon="5.07425">
        <ele>75</ele>
        <time>2019-12-16T14:37:22Z</time>
      </trkpt>
      <trkpt lat="43.58212" lon="5.07427">
        <ele>75</ele>
        <time>2019-12-16T14:37:23Z</time>
      </trkpt>
      <trkpt lat="43.58213" lon="5.07428">
        <ele>75</ele>
        <time>2019-12-16T14:37:24Z</time>
      </trkpt>
      <trkpt lat="43.58213" lon="5.0743">
        <ele>75</ele>
        <time>2019-12-16T14:37:25Z</time>
      </trkpt>
      <trkpt lat="43.58214" lon="5.07432">
        <ele>75</ele>
        <time>2019-12-16T14:37:26Z</time>
      </trkpt>
      <trkpt lat="43.58214" lon="5.07434">
        <ele>75</ele>
        <time>2019-12-16T14:37:27Z</time>
      </trkpt>
      <trkpt lat="43.58214" lon="5.07435">
        <ele>75</ele>
        <time>2019-12-16T14:37:28Z</time>
      </trkpt>
      <trkpt lat="43.58214" lon="5.07437">
        <ele>75</ele>
        <time>2019-12-16T14:37:29Z</time>
      </trkpt>
      <trkpt lat="43.58214" lon="5.07439">
        <ele>75</ele>
        <time>2019-12-16T14:37:30Z</time>
      </trkpt>
      <trkpt lat="43.58214" lon="5.07441">
        <ele>75</ele>
        <time>2019-12-16T14:37:31Z</time>
      </trkpt>
      <trkpt lat="43.58214" lon="5.07443">
        <ele>75</ele>
        <time>2019-12-16T14:37:32Z</time>
      </trkpt>
      <trkpt lat="43.58214" lon="5.07444">
        <ele>75</ele>
        <time>2019-12-16T14:37:33Z</time>
      </trkpt>
      <trkpt lat="43.58214" lon="5.07446">
        <ele>75</ele>
        <time>2019-12-16T14:37:34Z</time>
      </trkpt>
      <trkpt lat="43.58214" lon="5.07448">
        <ele>75</ele>
        <time>2019-12-16T14:37:35Z</time>
      </trkpt>
      <trkpt lat="43.58214" lon="5.0745">
        <ele>75</ele>
        <time>2019-12-16T14:37:36Z</time>
      </trkpt>
      <trkpt lat="43.58213" lon="5.07451">
        <ele>75</ele>
        <time>2019-12-16T14:37:37Z</time>
      </trkpt>
      <trkpt lat="43.58213" lon="5.07453">
        <ele>76</ele>
        <time>2019-12-16T14:37:38Z</time>
      </trkpt>
      <trkpt lat="43.58212" lon="5.07455">
        <ele>76</ele>
        <time>2019-12-16T14:37:39Z</time>
      </trkpt>
      <trkpt lat="43.58212" lon="5.07456">
        <ele>76</ele>
        <time>2019-12-16T14:37:40Z</time>
      </trkpt>
      <trkpt lat="43.58211" lon="5.07458">
        <ele>76</ele>
        <time>2019-12-16T14:37:41Z</time>
      </trkpt>
      <trkpt lat="43.58211" lon="5.07459">
        <ele>76</ele>
        <time>2019-12-16T14:37:42Z</time>
      </trkpt>
      <trkpt lat="43.5821" lon="5.07461">
        <ele>76</ele>
        <time>2019-12-16T14:37:43Z</time>
      </trkpt>
      <trkpt lat="43.58209" lon="5.07462">
        <ele>76</ele>
        <time>2019-12-16T14:37:44Z</time>
      </trkpt>
      <trkpt lat="43.58208" lon="5.07463">
        <ele>76</ele>
        <time>2019-12-16T14:37:45Z</time>
      </trkpt>
      <trkpt lat="43.58208" lon="5.07465">
        <ele>76</ele>
        <time>2019-12-16T14:37:46Z</time>
      </trkpt>
      <trkpt lat="43.58207" lon="5.07466">
        <ele>76</ele>
        <time>2019-12-16T14:37:47Z</time>
      </trkpt>
      <trkpt lat="43.58207" lon="5.07467">
        <ele>76</ele>
        <time>2019-12-16T14:37:48Z</time>
      </trkpt>
      <trkpt lat="43.58206" lon="5.07469">
        <ele>76</ele>
        <time>2019-12-16T14:37:49Z</time>
      </trkpt>
      <trkpt lat="43.58206" lon="5.0747">
        <ele>76</ele>
        <time>2019-12-16T14:37:50Z</time>
      </trkpt>
      <trkpt lat="43.58205" lon="5.07471">
        <ele>76</ele>
        <time>2019-12-16T14:37:51Z</time>
      </trkpt>
      <trkpt lat="43.58205" lon="5.07473">
        <ele>76</ele>
        <time>2019-12-16T14:37:52Z</time>
      </trkpt>
      <trkpt lat="43.58205" lon="5.07474">
        <ele>76</ele>
        <time>2019-12-16T14:37:53Z</time>
      </trkpt>
      <trkpt lat="43.58205" lon="5.07475">
        <ele>76</ele>
        <time>2019-12-16T14:37:54Z</time>
      </trkpt>
      <trkpt lat="43.58205" lon="5.07477">
        <ele>76</ele>
        <time>2019-12-16T14:37:55Z</time>
      </trkpt>
      <trkpt lat="43.58204" lon="5.07478">
        <ele>76</ele>
        <time>2019-12-16T14:37:56Z</time>
      </trkpt>
      <trkpt lat="43.58204" lon="5.07479">
        <ele>76</ele>
        <time>2019-12-16T14:37:57Z</time>
      </trkpt>
      <trkpt lat="43.58204" lon="5.0748">
        <ele>76</ele>
        <time>2019-12-16T14:37:58Z</time>
      </trkpt>
      <trkpt lat="43.58204" lon="5.07482">
        <ele>76</ele>
        <time>2019-12-16T14:37:59Z</time>
      </trkpt>
      <trkpt lat="43.58203" lon="5.07483">
        <ele>76</ele>
        <time>2019-12-16T14:38:00Z</time>
      </trkpt>
      <trkpt lat="43.58203" lon="5.07484">
        <ele>76</ele>
        <time>2019-12-16T14:38:01Z</time>
      </trkpt>
      <trkpt lat="43.58203" lon="5.07486">
        <ele>76</ele>
        <time>2019-12-16T14:38:02Z</time>
      </trkpt>
      <trkpt lat="43.58203" lon="5.07487">
        <ele>76</ele>
        <time>2019-12-16T14:38:03Z</time>
      </trkpt>
      <trkpt lat="43.58202" lon="5.07489">
        <ele>76</ele>
        <time>2019-12-16T14:38:04Z</time>
      </trkpt>
      <trkpt lat="43.58202" lon="5.0749">
        <ele>76</ele>
        <time>2019-12-16T14:38:05Z</time>
      </trkpt>
      <trkpt lat="43.58202" lon="5.07492">
        <ele>76</ele>
        <time>2019-12-16T14:38:06Z</time>
      </trkpt>
      <trkpt lat="43.58201" lon="5.07493">
        <ele>76</ele>
        <time>2019-12-16T14:38:07Z</time>
      </trkpt>
      <trkpt lat="43.58201" lon="5.07495">
        <ele>76</ele>
        <time>2019-12-16T14:38:08Z</time>
      </trkpt>
      <trkpt lat="43.58201" lon="5.07496">
        <ele>76</ele>
        <time>2019-12-16T14:38:09Z</time>
      </trkpt>
      <trkpt lat="43.58201" lon="5.07498">
        <ele>76</ele>
        <time>2019-12-16T14:38:10Z</time>
      </trkpt>
      <trkpt lat="43.582" lon="5.07499">
        <ele>76</ele>
        <time>2019-12-16T14:38:11Z</time>
      </trkpt>
      <trkpt lat="43.582" lon="5.075">
        <ele>76</ele>
        <time>2019-12-16T14:38:12Z</time>
      </trkpt>
      <trkpt lat="43.582" lon="5.07502">
        <ele>76</ele>
        <time>2019-12-16T14:38:13Z</time>
      </trkpt>
      <trkpt lat="43.582" lon="5.07503">
        <ele>76</ele>
        <time>2019-12-16T14:38:14Z</time>
      </trkpt>
      <trkpt lat="43.582" lon="5.07504">
        <ele>76</ele>
        <time>2019-12-16T14:38:15Z</time>
      </trkpt>
      <trkpt lat="43.582" lon="5.07506">
        <ele>76</ele>
        <time>2019-12-16T14:38:16Z</time>
      </trkpt>
      <trkpt lat="43.58201" lon="5.07507">
        <ele>76</ele>
        <time>2019-12-16T14:38:17Z</time>
      </trkpt>
      <trkpt lat="43.58201" lon="5.07508">
        <ele>76</ele>
        <time>2019-12-16T14:38:18Z</time>
      </trkpt>
      <trkpt lat="43.58201" lon="5.0751">
        <ele>76</ele>
        <time>2019-12-16T14:38:19Z</time>
      </trkpt>
      <trkpt lat="43.58202" lon="5.07511">
        <ele>76</ele>
        <time>2019-12-16T14:38:20Z</time>
      </trkpt>
      <trkpt lat="43.58202" lon="5.07512">
        <ele>76</ele>
        <time>2019-12-16T14:38:21Z</time>
      </trkpt>
      <trkpt lat="43.58202" lon="5.07514">
        <ele>76</ele>
        <time>2019-12-16T14:38:22Z</time>
      </trkpt>
      <trkpt lat="43.58202" lon="5.07515">
        <ele>76</ele>
        <time>2019-12-16T14:38:23Z</time>
      </trkpt>
      <trkpt lat="43.58203" lon="5.07516">
        <ele>76</ele>
        <time>2019-12-16T14:38:24Z</time>
      </trkpt>
      <trkpt lat="43.58203" lon="5.07518">
        <ele>76</ele>
        <time>2019-12-16T14:38:25Z</time>
      </trkpt>
      <trkpt lat="43.58203" lon="5.07519">
        <ele>76</ele>
        <time>2019-12-16T14:38:26Z</time>
      </trkpt>
      <trkpt lat="43.58204" lon="5.07521">
        <ele>76</ele>
        <time>2019-12-16T14:38:27Z</time>
      </trkpt>
      <trkpt lat="43.58204" lon="5.07522">
        <ele>76</ele>
        <time>2019-12-16T14:38:28Z</time>
      </trkpt>
      <trkpt lat="43.58204" lon="5.07523">
        <ele>76</ele>
        <time>2019-12-16T14:38:29Z</time>
      </trkpt>
      <trkpt lat="43.58204" lon="5.07525">
        <ele>76</ele>
        <time>2019-12-16T14:38:30Z</time>
      </trkpt>
      <trkpt lat="43.58205" lon="5.07527">
        <ele>76</ele>
        <time>2019-12-16T14:38:31Z</time>
      </trkpt>
      <trkpt lat="43.58205" lon="5.07528">
        <ele>76</ele>
        <time>2019-12-16T14:38:32Z</time>
      </trkpt>
      <trkpt lat="43.58205" lon="5.07529">
        <ele>76</ele>
        <time>2019-12-16T14:38:33Z</time>
      </trkpt>
      <trkpt lat="43.58206" lon="5.07531">
        <ele>76</ele>
        <time>2019-12-16T14:38:34Z</time>
      </trkpt>
      <trkpt lat="43.58206" lon="5.07532">
        <ele>76</ele>
        <time>2019-12-16T14:38:35Z</time>
      </trkpt>
      <trkpt lat="43.58207" lon="5.07534">
        <ele>76</ele>
        <time>2019-12-16T14:38:36Z</time>
      </trkpt>
      <trkpt lat="43.58207" lon="5.07535">
        <ele>76</ele>
        <time>2019-12-16T14:38:37Z</time>
      </trkpt>
      <trkpt lat="43.58208" lon="5.07537">
        <ele>76</ele>
        <time>2019-12-16T14:38:38Z</time>
      </trkpt>
      <trkpt lat="43.58208" lon="5.07538">
        <ele>76</ele>
        <time>2019-12-16T14:38:39Z</time>
      </trkpt>
      <trkpt lat="43.58209" lon="5.0754">
        <ele>76</ele>
        <time>2019-12-16T14:38:40Z</time>
      </trkpt>
      <trkpt lat="43.5821" lon="5.07541">
        <ele>76</ele>
        <time>2019-12-16T14:38:41Z</time>
      </trkpt>
      <trkpt lat="43.5821" lon="5.07542">
        <ele>76</ele>
        <time>2019-12-16T14:38:42Z</time>
      </trkpt>
      <trkpt lat="43.58211" lon="5.07544">
        <ele>75</ele>
        <time>2019-12-16T14:38:43Z</time>
      </trkpt>
      <trkpt lat="43.58212" lon="5.07545">
        <ele>75</ele>
        <time>2019-12-16T14:38:44Z</time>
      </trkpt>
      <trkpt lat="43.58213" lon="5.07546">
        <ele>75</ele>
        <time>2019-12-16T14:38:45Z</time>
      </trkpt>
      <trkpt lat="43.58213" lon="5.07548">
        <ele>75</ele>
        <time>2019-12-16T14:38:46Z</time>
      </trkpt>
      <trkpt lat="43.58214" lon="5.07549">
        <ele>75</ele>
        <time>2019-12-16T14:38:47Z</time>
      </trkpt>
      <trkpt lat="43.58215" lon="5.0755">
        <ele>75</ele>
        <time>2019-12-16T14:38:48Z</time>
      </trkpt>
      <trkpt lat="43.58216" lon="5.07551">
        <ele>75</ele>
        <time>2019-12-16T14:38:49Z</time>
      </trkpt>
      <trkpt lat="43.58216" lon="5.07553">
        <ele>75</ele>
        <time>2019-12-16T14:38:50Z</time>
      </trkpt>
      <trkpt lat="43.58217" lon="5.07554">
        <ele>75</ele>
        <time>2019-12-16T14:38:51Z</time>
      </trkpt>
      <trkpt lat="43.58218" lon="5.07555">
        <ele>75</ele>
        <time>2019-12-16T14:38:52Z</time>
      </trkpt>
      <trkpt lat="43.58219" lon="5.07556">
        <ele>75</ele>
        <time>2019-12-16T14:38:53Z</time>
      </trkpt>
      <trkpt lat="43.5822" lon="5.07557">
        <ele>75</ele>
        <time>2019-12-16T14:38:54Z</time>
      </trkpt>
      <trkpt lat="43.5822" lon="5.07558">
        <ele>75</ele>
        <time>2019-12-16T14:38:55Z</time>
      </trkpt>
      <trkpt lat="43.58221" lon="5.07559">
        <ele>75</ele>
        <time>2019-12-16T14:38:56Z</time>
      </trkpt>
      <trkpt lat="43.58222" lon="5.07559">
        <ele>75</ele>
        <time>2019-12-16T14:38:57Z</time>
      </trkpt>
      <trkpt lat="43.58223" lon="5.0756">
        <ele>75</ele>
        <time>2019-12-16T14:38:58Z</time>
      </trkpt>
      <trkpt lat="43.58224" lon="5.07561">
        <ele>75</ele>
        <time>2019-12-16T14:38:59Z</time>
      </trkpt>
      <trkpt lat="43.58225" lon="5.07562">
        <ele>75</ele>
        <time>2019-12-16T14:39:00Z</time>
      </trkpt>
      <trkpt lat="43.58226" lon="5.07562">
        <ele>75</ele>
        <time>2019-12-16T14:39:01Z</time>
      </trkpt>
      <trkpt lat="43.58227" lon="5.07563">
        <ele>75</ele>
        <time>2019-12-16T14:39:02Z</time>
      </trkpt>
      <trkpt lat="43.58228" lon="5.07563">
        <ele>75</ele>
        <time>2019-12-16T14:39:03Z</time>
      </trkpt>
      <trkpt lat="43.58229" lon="5.07564">
        <ele>75</ele>
        <time>2019-12-16T14:39:04Z</time>
      </trkpt>
      <trkpt lat="43.5823" lon="5.07564">
        <ele>75</ele>
        <time>2019-12-16T14:39:05Z</time>
      </trkpt>
      <trkpt lat="43.58231" lon="5.07564">
        <ele>75</ele>
        <time>2019-12-16T14:39:06Z</time>
      </trkpt>
      <trkpt lat="43.58232" lon="5.07565">
        <ele>75</ele>
        <time>2019-12-16T14:39:07Z</time>
      </trkpt>
      <trkpt lat="43.58233" lon="5.07565">
        <ele>75</ele>
        <time>2019-12-16T14:39:08Z</time>
      </trkpt>
      <trkpt lat="43.58234" lon="5.07565">
        <ele>75</ele>
        <time>2019-12-16T14:39:09Z</time>
      </trkpt>
      <trkpt lat="43.58235" lon="5.07565">
        <ele>75</ele>
        <time>2019-12-16T14:39:10Z</time>
      </trkpt>
      <trkpt lat="43.58236" lon="5.07566">
        <ele>75</ele>
        <time>2019-12-16T14:39:11Z</time>
      </trkpt>
      <trkpt lat="43.58238" lon="5.07566">
        <ele>75</ele>
        <time>2019-12-16T14:39:12Z</time>
      </trkpt>
      <trkpt lat="43.58239" lon="5.07566">
        <ele>75</ele>
        <time>2019-12-16T14:39:13Z</time>
      </trkpt>
      <trkpt lat="43.5824" lon="5.07566">
        <ele>75</ele>
        <time>2019-12-16T14:39:14Z</time>
      </trkpt>
      <trkpt lat="43.58241" lon="5.07566">
        <ele>75</ele>
        <time>2019-12-16T14:39:15Z</time>
      </trkpt>
      <trkpt lat="43.58242" lon="5.07566">
        <ele>75</ele>
        <time>2019-12-16T14:39:16Z</time>
      </trkpt>
      <trkpt lat="43.58243" lon="5.07566">
        <ele>75</ele>
        <time>2019-12-16T14:39:17Z</time>
      </trkpt>
      <trkpt lat="43.58244" lon="5.07566">
        <ele>75</ele>
        <time>2019-12-16T14:39:18Z</time>
      </trkpt>
      <trkpt lat="43.58246" lon="5.07566">
        <ele>75</ele>
        <time>2019-12-16T14:39:19Z</time>
      </trkpt>
      <trkpt lat="43.58247" lon="5.07566">
        <ele>75</ele>
        <time>2019-12-16T14:39:20Z</time>
      </trkpt>
      <trkpt lat="43.58248" lon="5.07566">
        <ele>75</ele>
        <time>2019-12-16T14:39:21Z</time>
      </trkpt>
      <trkpt lat="43.58249" lon="5.07566">
        <ele>75</ele>
        <time>2019-12-16T14:39:22Z</time>
      </trkpt>
      <trkpt lat="43.5825" lon="5.07566">
        <ele>75</ele>
        <time>2019-12-16T14:39:23Z</time>
      </trkpt>
      <trkpt lat="43.58251" lon="5.07566">
        <ele>75</ele>
        <time>2019-12-16T14:39:24Z</time>
      </trkpt>
      <trkpt lat="43.58253" lon="5.07566">
        <ele>75</ele>
        <time>2019-12-16T14:39:25Z</time>
      </trkpt>
      <trkpt lat="43.58254" lon="5.07566">
        <ele>76</ele>
        <time>2019-12-16T14:39:26Z</time>
      </trkpt>
      <trkpt lat="43.58255" lon="5.07566">
        <ele>76</ele>
        <time>2019-12-16T14:39:27Z</time>
      </trkpt>
      <trkpt lat="43.58256" lon="5.07566">
        <ele>76</ele>
        <time>2019-12-16T14:39:28Z</time>
      </trkpt>
      <trkpt lat="43.58257" lon="5.07566">
        <ele>76</ele>
        <time>2019-12-16T14:39:29Z</time>
      </trkpt>
      <trkpt lat="43.58258" lon="5.07565">
        <ele>76</ele>
        <time>2019-12-16T14:39:30Z</time>
      </trkpt>
      <trkpt lat="43.5826" lon="5.07565">
        <ele>76</ele>
        <time>2019-12-16T14:39:31Z</time>
      </trkpt>
      <trkpt lat="43.58261" lon="5.07565">
        <ele>76</ele>
        <time>2019-12-16T14:39:32Z</time>
      </trkpt>
      <trkpt lat="43.58262" lon="5.07565">
        <ele>76</ele>
        <time>2019-12-16T14:39:33Z</time>
      </trkpt>
      <trkpt lat="43.58263" lon="5.07565">
        <ele>76</ele>
        <time>2019-12-16T14:39:34Z</time>
      </trkpt>
      <trkpt lat="43.58265" lon="5.07564">
        <ele>76</ele>
        <time>2019-12-16T14:39:35Z</time>
      </trkpt>
      <trkpt lat="43.58266" lon="5.07564">
        <ele>76</ele>
        <time>2019-12-16T14:39:36Z</time>
      </trkpt>
      <trkpt lat="43.58267" lon="5.07564">
        <ele>76</ele>
        <time>2019-12-16T14:39:37Z</time>
      </trkpt>
      <trkpt lat="43.58268" lon="5.07563">
        <ele>76</ele>
        <time>2019-12-16T14:39:38Z</time>
      </trkpt>
      <trkpt lat="43.5827" lon="5.07563">
        <ele>76</ele>
        <time>2019-12-16T14:39:39Z</time>
      </trkpt>
      <trkpt lat="43.58271" lon="5.07563">
        <ele>76</ele>
        <time>2019-12-16T14:39:40Z</time>
      </trkpt>
      <trkpt lat="43.58272" lon="5.07563">
        <ele>76</ele>
        <time>2019-12-16T14:39:41Z</time>
      </trkpt>
      <trkpt lat="43.58273" lon="5.07563">
        <ele>76</ele>
        <time>2019-12-16T14:39:42Z</time>
      </trkpt>
      <trkpt lat="43.58275" lon="5.07563">
        <ele>76</ele>
        <time>2019-12-16T14:39:43Z</time>
      </trkpt>
      <trkpt lat="43.58276" lon="5.07563">
        <ele>76</ele>
        <time>2019-12-16T14:39:44Z</time>
      </trkpt>
      <trkpt lat="43.58277" lon="5.07563">
        <ele>76</ele>
        <time>2019-12-16T14:39:45Z</time>
      </trkpt>
      <trkpt lat="43.58278" lon="5.07563">
        <ele>76</ele>
        <time>2019-12-16T14:39:46Z</time>
      </trkpt>
      <trkpt lat="43.58279" lon="5.07563">
        <ele>76</ele>
        <time>2019-12-16T14:39:47Z</time>
      </trkpt>
      <trkpt lat="43.58281" lon="5.07564">
        <ele>76</ele>
        <time>2019-12-16T14:39:48Z</time>
      </trkpt>
      <trkpt lat="43.58282" lon="5.07564">
        <ele>76</ele>
        <time>2019-12-16T14:39:49Z</time>
      </trkpt>
      <trkpt lat="43.58283" lon="5.07565">
        <ele>76</ele>
        <time>2019-12-16T14:39:50Z</time>
      </trkpt>
      <trkpt lat="43.58284" lon="5.07565">
        <ele>76</ele>
        <time>2019-12-16T14:39:51Z</time>
      </trkpt>
      <trkpt lat="43.58285" lon="5.07565">
        <ele>76</ele>
        <time>2019-12-16T14:39:52Z</time>
      </trkpt>
      <trkpt lat="43.58286" lon="5.07566">
        <ele>76</ele>
        <time>2019-12-16T14:39:53Z</time>
      </trkpt>
      <trkpt lat="43.58287" lon="5.07566">
        <ele>76</ele>
        <time>2019-12-16T14:39:54Z</time>
      </trkpt>
      <trkpt lat="43.58289" lon="5.07567">
        <ele>76</ele>
        <time>2019-12-16T14:39:55Z</time>
      </trkpt>
      <trkpt lat="43.5829" lon="5.07567">
        <ele>76</ele>
        <time>2019-12-16T14:39:56Z</time>
      </trkpt>
      <trkpt lat="43.58291" lon="5.07568">
        <ele>76</ele>
        <time>2019-12-16T14:39:57Z</time>
      </trkpt>
      <trkpt lat="43.58292" lon="5.07568">
        <ele>76</ele>
        <time>2019-12-16T14:39:58Z</time>
      </trkpt>
      <trkpt lat="43.58293" lon="5.07569">
        <ele>76</ele>
        <time>2019-12-16T14:39:59Z</time>
      </trkpt>
      <trkpt lat="43.58295" lon="5.07569">
        <ele>76</ele>
        <time>2019-12-16T14:40:00Z</time>
      </trkpt>
      <trkpt lat="43.58296" lon="5.07569">
        <ele>76</ele>
        <time>2019-12-16T14:40:01Z</time>
      </trkpt>
      <trkpt lat="43.58297" lon="5.0757">
        <ele>76</ele>
        <time>2019-12-16T14:40:02Z</time>
      </trkpt>
      <trkpt lat="43.58298" lon="5.0757">
        <ele>76</ele>
        <time>2019-12-16T14:40:03Z</time>
      </trkpt>
      <trkpt lat="43.58299" lon="5.07571">
        <ele>76</ele>
        <time>2019-12-16T14:40:04Z</time>
      </trkpt>
      <trkpt lat="43.58301" lon="5.07571">
        <ele>76</ele>
        <time>2019-12-16T14:40:05Z</time>
      </trkpt>
      <trkpt lat="43.58302" lon="5.07572">
        <ele>76</ele>
        <time>2019-12-16T14:40:06Z</time>
      </trkpt>
      <trkpt lat="43.58303" lon="5.07572">
        <ele>76</ele>
        <time>2019-12-16T14:40:07Z</time>
      </trkpt>
      <trkpt lat="43.58304" lon="5.07572">
        <ele>76</ele>
        <time>2019-12-16T14:40:08Z</time>
      </trkpt>
      <trkpt lat="43.58305" lon="5.07573">
        <ele>76</ele>
        <time>2019-12-16T14:40:09Z</time>
      </trkpt>
      <trkpt lat="43.58306" lon="5.07573">
        <ele>76</ele>
        <time>2019-12-16T14:40:10Z</time>
      </trkpt>
      <trkpt lat="43.58307" lon="5.07574">
        <ele>76</ele>
        <time>2019-12-16T14:40:11Z</time>
      </trkpt>
      <trkpt lat="43.58309" lon="5.07574">
        <ele>75</ele>
        <time>2019-12-16T14:40:12Z</time>
      </trkpt>
      <trkpt lat="43.5831" lon="5.07575">
        <ele>75</ele>
        <time>2019-12-16T14:40:13Z</time>
      </trkpt>
      <trkpt lat="43.58311" lon="5.07576">
        <ele>75</ele>
        <time>2019-12-16T14:40:14Z</time>
      </trkpt>
      <trkpt lat="43.58312" lon="5.07576">
        <ele>75</ele>
        <time>2019-12-16T14:40:15Z</time>
      </trkpt>
      <trkpt lat="43.58313" lon="5.07577">
        <ele>75</ele>
        <time>2019-12-16T14:40:16Z</time>
      </trkpt>
      <trkpt lat="43.58314" lon="5.07577">
        <ele>75</ele>
        <time>2019-12-16T14:40:17Z</time>
      </trkpt>
      <trkpt lat="43.58315" lon="5.07578">
        <ele>75</ele>
        <time>2019-12-16T14:40:18Z</time>
      </trkpt>
      <trkpt lat="43.58316" lon="5.07578">
        <ele>75</ele>
        <time>2019-12-16T14:40:19Z</time>
      </trkpt>
      <trkpt lat="43.58317" lon="5.07579">
        <ele>75</ele>
        <time>2019-12-16T14:40:20Z</time>
      </trkpt>
      <trkpt lat="43.58319" lon="5.07579">
        <ele>75</ele>
        <time>2019-12-16T14:40:21Z</time>
      </trkpt>
      <trkpt lat="43.58319" lon="5.07579">
        <ele>75</ele>
        <time>2019-12-16T14:40:22Z</time>
      </trkpt>
      <trkpt lat="43.5832" lon="5.0758">
        <ele>75</ele>
        <time>2019-12-16T14:40:23Z</time>
      </trkpt>
      <trkpt lat="43.5832" lon="5.0758">
        <ele>75</ele>
        <time>2019-12-16T14:40:24Z</time>
      </trkpt>
      <trkpt lat="43.5832" lon="5.0758">
        <ele>75</ele>
        <time>2019-12-16T14:40:25Z</time>
      </trkpt>
      <trkpt lat="43.58322" lon="5.07581">
        <ele>75</ele>
        <time>2019-12-16T14:40:26Z</time>
      </trkpt>
      <trkpt lat="43.58323" lon="5.07581">
        <ele>74</ele>
        <time>2019-12-16T14:40:27Z</time>
      </trkpt>
      <trkpt lat="43.58324" lon="5.07582">
        <ele>74</ele>
        <time>2019-12-16T14:40:28Z</time>
      </trkpt>
      <trkpt lat="43.58326" lon="5.07583">
        <ele>74</ele>
        <time>2019-12-16T14:40:29Z</time>
      </trkpt>
      <trkpt lat="43.58327" lon="5.07583">
        <ele>72</ele>
        <time>2019-12-16T14:40:30Z</time>
      </trkpt>
      <trkpt lat="43.58329" lon="5.07584">
        <ele>73</ele>
        <time>2019-12-16T14:40:31Z</time>
      </trkpt>
      <trkpt lat="43.5833" lon="5.07585">
        <ele>73</ele>
        <time>2019-12-16T14:40:32Z</time>
      </trkpt>
      <trkpt lat="43.58331" lon="5.07586">
        <ele>73</ele>
        <time>2019-12-16T14:40:33Z</time>
      </trkpt>
      <trkpt lat="43.58332" lon="5.07586">
        <ele>73</ele>
        <time>2019-12-16T14:40:34Z</time>
      </trkpt>
      <trkpt lat="43.58334" lon="5.07587">
        <ele>73</ele>
        <time>2019-12-16T14:40:35Z</time>
      </trkpt>
      <trkpt lat="43.58335" lon="5.07587">
        <ele>72</ele>
        <time>2019-12-16T14:40:36Z</time>
      </trkpt>
      <trkpt lat="43.58336" lon="5.07588">
        <ele>72</ele>
        <time>2019-12-16T14:40:37Z</time>
      </trkpt>
      <trkpt lat="43.58337" lon="5.07588">
        <ele>72</ele>
        <time>2019-12-16T14:40:38Z</time>
      </trkpt>
      <trkpt lat="43.58339" lon="5.07589">
        <ele>72</ele>
        <time>2019-12-16T14:40:39Z</time>
      </trkpt>
      <trkpt lat="43.5834" lon="5.07589">
        <ele>72</ele>
        <time>2019-12-16T14:40:40Z</time>
      </trkpt>
      <trkpt lat="43.58341" lon="5.0759">
        <ele>72</ele>
        <time>2019-12-16T14:40:41Z</time>
      </trkpt>
      <trkpt lat="43.58342" lon="5.0759">
        <ele>72</ele>
        <time>2019-12-16T14:40:42Z</time>
      </trkpt>
      <trkpt lat="43.58344" lon="5.07591">
        <ele>72</ele>
        <time>2019-12-16T14:40:43Z</time>
      </trkpt>
      <trkpt lat="43.58345" lon="5.07591">
        <ele>72</ele>
        <time>2019-12-16T14:40:44Z</time>
      </trkpt>
      <trkpt lat="43.58346" lon="5.07591">
        <ele>72</ele>
        <time>2019-12-16T14:40:45Z</time>
      </trkpt>
      <trkpt lat="43.58348" lon="5.07592">
        <ele>71</ele>
        <time>2019-12-16T14:40:46Z</time>
      </trkpt>
      <trkpt lat="43.58349" lon="5.07592">
        <ele>71</ele>
        <time>2019-12-16T14:40:47Z</time>
      </trkpt>
      <trkpt lat="43.5835" lon="5.07592">
        <ele>71</ele>
        <time>2019-12-16T14:40:48Z</time>
      </trkpt>
      <trkpt lat="43.58352" lon="5.07592">
        <ele>71</ele>
        <time>2019-12-16T14:40:49Z</time>
      </trkpt>
      <trkpt lat="43.58353" lon="5.07593">
        <ele>71</ele>
        <time>2019-12-16T14:40:50Z</time>
      </trkpt>
      <trkpt lat="43.58354" lon="5.07593">
        <ele>71</ele>
        <time>2019-12-16T14:40:51Z</time>
      </trkpt>
      <trkpt lat="43.58356" lon="5.07594">
        <ele>71</ele>
        <time>2019-12-16T14:40:52Z</time>
      </trkpt>
      <trkpt lat="43.58357" lon="5.07594">
        <ele>71</ele>
        <time>2019-12-16T14:40:53Z</time>
      </trkpt>
      <trkpt lat="43.58358" lon="5.07595">
        <ele>71</ele>
        <time>2019-12-16T14:40:54Z</time>
      </trkpt>
      <trkpt lat="43.58359" lon="5.07596">
        <ele>71</ele>
        <time>2019-12-16T14:40:55Z</time>
      </trkpt>
      <trkpt lat="43.58361" lon="5.07597">
        <ele>71</ele>
        <time>2019-12-16T14:40:56Z</time>
      </trkpt>
      <trkpt lat="43.58362" lon="5.07598">
        <ele>71</ele>
        <time>2019-12-16T14:40:57Z</time>
      </trkpt>
      <trkpt lat="43.58363" lon="5.07599">
        <ele>71</ele>
        <time>2019-12-16T14:40:58Z</time>
      </trkpt>
      <trkpt lat="43.58364" lon="5.076">
        <ele>71</ele>
        <time>2019-12-16T14:40:59Z</time>
      </trkpt>
      <trkpt lat="43.58365" lon="5.07602">
        <ele>71</ele>
        <time>2019-12-16T14:41:00Z</time>
      </trkpt>
      <trkpt lat="43.58366" lon="5.07603">
        <ele>71</ele>
        <time>2019-12-16T14:41:01Z</time>
      </trkpt>
      <trkpt lat="43.58368" lon="5.07605">
        <ele>70</ele>
        <time>2019-12-16T14:41:02Z</time>
      </trkpt>
      <trkpt lat="43.58369" lon="5.07606">
        <ele>70</ele>
        <time>2019-12-16T14:41:03Z</time>
      </trkpt>
      <trkpt lat="43.58369" lon="5.07608">
        <ele>70</ele>
        <time>2019-12-16T14:41:04Z</time>
      </trkpt>
      <trkpt lat="43.5837" lon="5.0761">
        <ele>70</ele>
        <time>2019-12-16T14:41:05Z</time>
      </trkpt>
      <trkpt lat="43.58371" lon="5.07611">
        <ele>70</ele>
        <time>2019-12-16T14:41:06Z</time>
      </trkpt>
      <trkpt lat="43.58372" lon="5.07613">
        <ele>70</ele>
        <time>2019-12-16T14:41:07Z</time>
      </trkpt>
      <trkpt lat="43.58372" lon="5.07615">
        <ele>70</ele>
        <time>2019-12-16T14:41:08Z</time>
      </trkpt>
      <trkpt lat="43.58373" lon="5.07616">
        <ele>70</ele>
        <time>2019-12-16T14:41:09Z</time>
      </trkpt>
      <trkpt lat="43.58374" lon="5.07618">
        <ele>70</ele>
        <time>2019-12-16T14:41:10Z</time>
      </trkpt>
      <trkpt lat="43.58374" lon="5.0762">
        <ele>70</ele>
        <time>2019-12-16T14:41:11Z</time>
      </trkpt>
      <trkpt lat="43.58375" lon="5.07622">
        <ele>70</ele>
        <time>2019-12-16T14:41:12Z</time>
      </trkpt>
      <trkpt lat="43.58375" lon="5.07623">
        <ele>70</ele>
        <time>2019-12-16T14:41:13Z</time>
      </trkpt>
      <trkpt lat="43.58376" lon="5.07625">
        <ele>70</ele>
        <time>2019-12-16T14:41:14Z</time>
      </trkpt>
      <trkpt lat="43.58376" lon="5.07627">
        <ele>70</ele>
        <time>2019-12-16T14:41:15Z</time>
      </trkpt>
      <trkpt lat="43.58377" lon="5.07628">
        <ele>70</ele>
        <time>2019-12-16T14:41:16Z</time>
      </trkpt>
      <trkpt lat="43.58377" lon="5.0763">
        <ele>70</ele>
        <time>2019-12-16T14:41:17Z</time>
      </trkpt>
      <trkpt lat="43.58378" lon="5.07632">
        <ele>70</ele>
        <time>2019-12-16T14:41:18Z</time>
      </trkpt>
      <trkpt lat="43.58379" lon="5.07633">
        <ele>70</ele>
        <time>2019-12-16T14:41:19Z</time>
      </trkpt>
      <trkpt lat="43.58379" lon="5.07635">
        <ele>70</ele>
        <time>2019-12-16T14:41:20Z</time>
      </trkpt>
      <trkpt lat="43.5838" lon="5.07636">
        <ele>70</ele>
        <time>2019-12-16T14:41:21Z</time>
      </trkpt>
      <trkpt lat="43.5838" lon="5.07638">
        <ele>70</ele>
        <time>2019-12-16T14:41:22Z</time>
      </trkpt>
      <trkpt lat="43.58381" lon="5.07639">
        <ele>70</ele>
        <time>2019-12-16T14:41:23Z</time>
      </trkpt>
      <trkpt lat="43.58381" lon="5.07641">
        <ele>70</ele>
        <time>2019-12-16T14:41:24Z</time>
      </trkpt>
      <trkpt lat="43.58382" lon="5.07642">
        <ele>70</ele>
        <time>2019-12-16T14:41:25Z</time>
      </trkpt>
      <trkpt lat="43.58382" lon="5.07644">
        <ele>70</ele>
        <time>2019-12-16T14:41:26Z</time>
      </trkpt>
      <trkpt lat="43.58383" lon="5.07645">
        <ele>70</ele>
        <time>2019-12-16T14:41:27Z</time>
      </trkpt>
      <trkpt lat="43.58383" lon="5.07647">
        <ele>70</ele>
        <time>2019-12-16T14:41:28Z</time>
      </trkpt>
      <trkpt lat="43.58384" lon="5.07648">
        <ele>70</ele>
        <time>2019-12-16T14:41:29Z</time>
      </trkpt>
      <trkpt lat="43.58384" lon="5.0765">
        <ele>70</ele>
        <time>2019-12-16T14:41:30Z</time>
      </trkpt>
      <trkpt lat="43.58385" lon="5.07651">
        <ele>70</ele>
        <time>2019-12-16T14:41:31Z</time>
      </trkpt>
      <trkpt lat="43.58385" lon="5.07653">
        <ele>70</ele>
        <time>2019-12-16T14:41:32Z</time>
      </trkpt>
      <trkpt lat="43.58386" lon="5.07655">
        <ele>70</ele>
        <time>2019-12-16T14:41:33Z</time>
      </trkpt>
      <trkpt lat="43.58386" lon="5.07656">
        <ele>70</ele>
        <time>2019-12-16T14:41:34Z</time>
      </trkpt>
      <trkpt lat="43.58386" lon="5.07658">
        <ele>70</ele>
        <time>2019-12-16T14:41:35Z</time>
      </trkpt>
      <trkpt lat="43.58387" lon="5.07659">
        <ele>69</ele>
        <time>2019-12-16T14:41:36Z</time>
      </trkpt>
      <trkpt lat="43.58387" lon="5.07661">
        <ele>69</ele>
        <time>2019-12-16T14:41:37Z</time>
      </trkpt>
      <trkpt lat="43.58387" lon="5.07662">
        <ele>69</ele>
        <time>2019-12-16T14:41:38Z</time>
      </trkpt>
      <trkpt lat="43.58388" lon="5.07664">
        <ele>69</ele>
        <time>2019-12-16T14:41:39Z</time>
      </trkpt>
      <trkpt lat="43.58388" lon="5.07666">
        <ele>69</ele>
        <time>2019-12-16T14:41:40Z</time>
      </trkpt>
      <trkpt lat="43.58388" lon="5.07668">
        <ele>68</ele>
        <time>2019-12-16T14:41:41Z</time>
      </trkpt>
      <trkpt lat="43.58389" lon="5.07669">
        <ele>68</ele>
        <time>2019-12-16T14:41:42Z</time>
      </trkpt>
      <trkpt lat="43.58389" lon="5.07671">
        <ele>68</ele>
        <time>2019-12-16T14:41:43Z</time>
      </trkpt>
      <trkpt lat="43.58389" lon="5.07673">
        <ele>68</ele>
        <time>2019-12-16T14:41:44Z</time>
      </trkpt>
      <trkpt lat="43.58389" lon="5.07674">
        <ele>68</ele>
        <time>2019-12-16T14:41:45Z</time>
      </trkpt>
      <trkpt lat="43.58389" lon="5.07676">
        <ele>68</ele>
        <time>2019-12-16T14:41:46Z</time>
      </trkpt>
      <trkpt lat="43.58389" lon="5.07678">
        <ele>68</ele>
        <time>2019-12-16T14:41:47Z</time>
      </trkpt>
      <trkpt lat="43.5839" lon="5.0768">
        <ele>68</ele>
        <time>2019-12-16T14:41:48Z</time>
      </trkpt>
      <trkpt lat="43.5839" lon="5.07681">
        <ele>68</ele>
        <time>2019-12-16T14:41:49Z</time>
      </trkpt>
      <trkpt lat="43.5839" lon="5.07683">
        <ele>68</ele>
        <time>2019-12-16T14:41:50Z</time>
      </trkpt>
      <trkpt lat="43.5839" lon="5.07685">
        <ele>68</ele>
        <time>2019-12-16T14:41:51Z</time>
      </trkpt>
      <trkpt lat="43.58391" lon="5.07687">
        <ele>68</ele>
        <time>2019-12-16T14:41:52Z</time>
      </trkpt>
      <trkpt lat="43.58391" lon="5.07688">
        <ele>68</ele>
        <time>2019-12-16T14:41:53Z</time>
      </trkpt>
      <trkpt lat="43.58391" lon="5.0769">
        <ele>68</ele>
        <time>2019-12-16T14:41:54Z</time>
      </trkpt>
      <trkpt lat="43.58391" lon="5.07692">
        <ele>68</ele>
        <time>2019-12-16T14:41:55Z</time>
      </trkpt>
      <trkpt lat="43.58391" lon="5.07694">
        <ele>68</ele>
        <time>2019-12-16T14:41:56Z</time>
      </trkpt>
      <trkpt lat="43.58392" lon="5.07695">
        <ele>68</ele>
        <time>2019-12-16T14:41:57Z</time>
      </trkpt>
      <trkpt lat="43.58392" lon="5.07697">
        <ele>68</ele>
        <time>2019-12-16T14:41:58Z</time>
      </trkpt>
      <trkpt lat="43.58392" lon="5.07699">
        <ele>68</ele>
        <time>2019-12-16T14:41:59Z</time>
      </trkpt>
      <trkpt lat="43.58392" lon="5.07701">
        <ele>68</ele>
        <time>2019-12-16T14:42:00Z</time>
      </trkpt>
      <trkpt lat="43.58393" lon="5.07702">
        <ele>68</ele>
        <time>2019-12-16T14:42:01Z</time>
      </trkpt>
      <trkpt lat="43.58393" lon="5.07704">
        <ele>68</ele>
        <time>2019-12-16T14:42:02Z</time>
      </trkpt>
      <trkpt lat="43.58394" lon="5.07706">
        <ele>68</ele>
        <time>2019-12-16T14:42:03Z</time>
      </trkpt>
      <trkpt lat="43.58394" lon="5.07707">
        <ele>68</ele>
        <time>2019-12-16T14:42:04Z</time>
      </trkpt>
      <trkpt lat="43.58395" lon="5.07708">
        <ele>68</ele>
        <time>2019-12-16T14:42:05Z</time>
      </trkpt>
      <trkpt lat="43.58395" lon="5.0771">
        <ele>68</ele>
        <time>2019-12-16T14:42:06Z</time>
      </trkpt>
      <trkpt lat="43.58396" lon="5.07711">
        <ele>68</ele>
        <time>2019-12-16T14:42:07Z</time>
      </trkpt>
      <trkpt lat="43.58397" lon="5.07712">
        <ele>68</ele>
        <time>2019-12-16T14:42:08Z</time>
      </trkpt>
      <trkpt lat="43.58398" lon="5.07713">
        <ele>68</ele>
        <time>2019-12-16T14:42:09Z</time>
      </trkpt>
      <trkpt lat="43.58398" lon="5.07714">
        <ele>68</ele>
        <time>2019-12-16T14:42:10Z</time>
      </trkpt>
      <trkpt lat="43.58399" lon="5.07715">
        <ele>68</ele>
        <time>2019-12-16T14:42:11Z</time>
      </trkpt>
      <trkpt lat="43.584" lon="5.07717">
        <ele>68</ele>
        <time>2019-12-16T14:42:12Z</time>
      </trkpt>
      <trkpt lat="43.58401" lon="5.07718">
        <ele>68</ele>
        <time>2019-12-16T14:42:13Z</time>
      </trkpt>
      <trkpt lat="43.58401" lon="5.0772">
        <ele>68</ele>
        <time>2019-12-16T14:42:14Z</time>
      </trkpt>
      <trkpt lat="43.58402" lon="5.07721">
        <ele>68</ele>
        <time>2019-12-16T14:42:15Z</time>
      </trkpt>
      <trkpt lat="43.58402" lon="5.07723">
        <ele>68</ele>
        <time>2019-12-16T14:42:16Z</time>
      </trkpt>
      <trkpt lat="43.58403" lon="5.07725">
        <ele>68</ele>
        <time>2019-12-16T14:42:17Z</time>
      </trkpt>
      <trkpt lat="43.58403" lon="5.07727">
        <ele>68</ele>
        <time>2019-12-16T14:42:18Z</time>
      </trkpt>
      <trkpt lat="43.58403" lon="5.0773">
        <ele>68</ele>
        <time>2019-12-16T14:42:19Z</time>
      </trkpt>
      <trkpt lat="43.58403" lon="5.07732">
        <ele>68</ele>
        <time>2019-12-16T14:42:20Z</time>
      </trkpt>
      <trkpt lat="43.58403" lon="5.07734">
        <ele>68</ele>
        <time>2019-12-16T14:42:21Z</time>
      </trkpt>
      <trkpt lat="43.58402" lon="5.07736">
        <ele>68</ele>
        <time>2019-12-16T14:42:22Z</time>
      </trkpt>
      <trkpt lat="43.58402" lon="5.07738">
        <ele>68</ele>
        <time>2019-12-16T14:42:23Z</time>
      </trkpt>
      <trkpt lat="43.58401" lon="5.0774">
        <ele>68</ele>
        <time>2019-12-16T14:42:24Z</time>
      </trkpt>
      <trkpt lat="43.58401" lon="5.07741">
        <ele>68</ele>
        <time>2019-12-16T14:42:25Z</time>
      </trkpt>
      <trkpt lat="43.584" lon="5.07743">
        <ele>68</ele>
        <time>2019-12-16T14:42:26Z</time>
      </trkpt>
      <trkpt lat="43.58399" lon="5.07745">
        <ele>68</ele>
        <time>2019-12-16T14:42:27Z</time>
      </trkpt>
      <trkpt lat="43.58399" lon="5.07746">
        <ele>68</ele>
        <time>2019-12-16T14:42:28Z</time>
      </trkpt>
      <trkpt lat="43.58398" lon="5.07748">
        <ele>68</ele>
        <time>2019-12-16T14:42:29Z</time>
      </trkpt>
      <trkpt lat="43.58397" lon="5.07749">
        <ele>68</ele>
        <time>2019-12-16T14:42:30Z</time>
      </trkpt>
      <trkpt lat="43.58397" lon="5.0775">
        <ele>68</ele>
        <time>2019-12-16T14:42:31Z</time>
      </trkpt>
      <trkpt lat="43.58396" lon="5.07752">
        <ele>68</ele>
        <time>2019-12-16T14:42:32Z</time>
      </trkpt>
      <trkpt lat="43.58395" lon="5.07753">
        <ele>68</ele>
        <time>2019-12-16T14:42:33Z</time>
      </trkpt>
      <trkpt lat="43.58395" lon="5.07755">
        <ele>68</ele>
        <time>2019-12-16T14:42:34Z</time>
      </trkpt>
      <trkpt lat="43.58394" lon="5.07756">
        <ele>68</ele>
        <time>2019-12-16T14:42:35Z</time>
      </trkpt>
      <trkpt lat="43.58393" lon="5.07757">
        <ele>68</ele>
        <time>2019-12-16T14:42:36Z</time>
      </trkpt>
      <trkpt lat="43.58393" lon="5.07759">
        <ele>68</ele>
        <time>2019-12-16T14:42:37Z</time>
      </trkpt>
      <trkpt lat="43.58392" lon="5.0776">
        <ele>68</ele>
        <time>2019-12-16T14:42:38Z</time>
      </trkpt>
      <trkpt lat="43.58392" lon="5.07762">
        <ele>68</ele>
        <time>2019-12-16T14:42:39Z</time>
      </trkpt>
      <trkpt lat="43.58392" lon="5.07764">
        <ele>68</ele>
        <time>2019-12-16T14:42:40Z</time>
      </trkpt>
      <trkpt lat="43.58392" lon="5.07765">
        <ele>68</ele>
        <time>2019-12-16T14:42:41Z</time>
      </trkpt>
      <trkpt lat="43.58391" lon="5.07767">
        <ele>68</ele>
        <time>2019-12-16T14:42:42Z</time>
      </trkpt>
      <trkpt lat="43.58391" lon="5.07768">
        <ele>68</ele>
        <time>2019-12-16T14:42:43Z</time>
      </trkpt>
      <trkpt lat="43.58391" lon="5.0777">
        <ele>68</ele>
        <time>2019-12-16T14:42:44Z</time>
      </trkpt>
      <trkpt lat="43.58391" lon="5.07772">
        <ele>68</ele>
        <time>2019-12-16T14:42:45Z</time>
      </trkpt>
      <trkpt lat="43.58391" lon="5.07773">
        <ele>68</ele>
        <time>2019-12-16T14:42:46Z</time>
      </trkpt>
      <trkpt lat="43.58391" lon="5.07775">
        <ele>68</ele>
        <time>2019-12-16T14:42:47Z</time>
      </trkpt>
      <trkpt lat="43.58391" lon="5.07776">
        <ele>68</ele>
        <time>2019-12-16T14:42:48Z</time>
      </trkpt>
      <trkpt lat="43.58391" lon="5.07778">
        <ele>68</ele>
        <time>2019-12-16T14:42:49Z</time>
      </trkpt>
      <trkpt lat="43.58391" lon="5.0778">
        <ele>68</ele>
        <time>2019-12-16T14:42:50Z</time>
      </trkpt>
      <trkpt lat="43.58392" lon="5.07781">
        <ele>68</ele>
        <time>2019-12-16T14:42:51Z</time>
      </trkpt>
      <trkpt lat="43.58392" lon="5.07783">
        <ele>68</ele>
        <time>2019-12-16T14:42:52Z</time>
      </trkpt>
      <trkpt lat="43.58392" lon="5.07784">
        <ele>68</ele>
        <time>2019-12-16T14:42:53Z</time>
      </trkpt>
      <trkpt lat="43.58393" lon="5.07786">
        <ele>68</ele>
        <time>2019-12-16T14:42:54Z</time>
      </trkpt>
      <trkpt lat="43.58393" lon="5.07787">
        <ele>68</ele>
        <time>2019-12-16T14:42:55Z</time>
      </trkpt>
      <trkpt lat="43.58394" lon="5.07789">
        <ele>68</ele>
        <time>2019-12-16T14:42:56Z</time>
      </trkpt>
      <trkpt lat="43.58394" lon="5.0779">
        <ele>68</ele>
        <time>2019-12-16T14:42:57Z</time>
      </trkpt>
      <trkpt lat="43.58395" lon="5.07792">
        <ele>68</ele>
        <time>2019-12-16T14:42:58Z</time>
      </trkpt>
      <trkpt lat="43.58396" lon="5.07793">
        <ele>68</ele>
        <time>2019-12-16T14:42:59Z</time>
      </trkpt>
      <trkpt lat="43.58396" lon="5.07794">
        <ele>68</ele>
        <time>2019-12-16T14:43:00Z</time>
      </trkpt>
      <trkpt lat="43.58397" lon="5.07796">
        <ele>68</ele>
        <time>2019-12-16T14:43:01Z</time>
      </trkpt>
      <trkpt lat="43.58398" lon="5.07797">
        <ele>68</ele>
        <time>2019-12-16T14:43:02Z</time>
      </trkpt>
      <trkpt lat="43.58399" lon="5.07798">
        <ele>68</ele>
        <time>2019-12-16T14:43:03Z</time>
      </trkpt>
      <trkpt lat="43.584" lon="5.07799">
        <ele>68</ele>
        <time>2019-12-16T14:43:04Z</time>
      </trkpt>
      <trkpt lat="43.58401" lon="5.078">
        <ele>68</ele>
        <time>2019-12-16T14:43:05Z</time>
      </trkpt>
      <trkpt lat="43.58402" lon="5.07801">
        <ele>68</ele>
        <time>2019-12-16T14:43:06Z</time>
      </trkpt>
      <trkpt lat="43.58403" lon="5.07802">
        <ele>68</ele>
        <time>2019-12-16T14:43:07Z</time>
      </trkpt>
      <trkpt lat="43.58404" lon="5.07803">
        <ele>68</ele>
        <time>2019-12-16T14:43:08Z</time>
      </trkpt>
      <trkpt lat="43.58405" lon="5.07803">
        <ele>68</ele>
        <time>2019-12-16T14:43:09Z</time>
      </trkpt>
      <trkpt lat="43.58406" lon="5.07804">
        <ele>68</ele>
        <time>2019-12-16T14:43:10Z</time>
      </trkpt>
      <trkpt lat="43.58408" lon="5.07805">
        <ele>68</ele>
        <time>2019-12-16T14:43:11Z</time>
      </trkpt>
      <trkpt lat="43.58409" lon="5.07806">
        <ele>68</ele>
        <time>2019-12-16T14:43:12Z</time>
      </trkpt>
      <trkpt lat="43.5841" lon="5.07807">
        <ele>68</ele>
        <time>2019-12-16T14:43:13Z</time>
      </trkpt>
      <trkpt lat="43.58411" lon="5.07808">
        <ele>68</ele>
        <time>2019-12-16T14:43:14Z</time>
      </trkpt>
      <trkpt lat="43.58412" lon="5.07809">
        <ele>68</ele>
        <time>2019-12-16T14:43:15Z</time>
      </trkpt>
      <trkpt lat="43.58412" lon="5.0781">
        <ele>68</ele>
        <time>2019-12-16T14:43:16Z</time>
      </trkpt>
      <trkpt lat="43.58413" lon="5.07811">
        <ele>68</ele>
        <time>2019-12-16T14:43:17Z</time>
      </trkpt>
      <trkpt lat="43.58414" lon="5.07813">
        <ele>68</ele>
        <time>2019-12-16T14:43:18Z</time>
      </trkpt>
      <trkpt lat="43.58415" lon="5.07814">
        <ele>68</ele>
        <time>2019-12-16T14:43:19Z</time>
      </trkpt>
      <trkpt lat="43.58415" lon="5.07816">
        <ele>68</ele>
        <time>2019-12-16T14:43:20Z</time>
      </trkpt>
      <trkpt lat="43.58416" lon="5.07817">
        <ele>68</ele>
        <time>2019-12-16T14:43:21Z</time>
      </trkpt>
      <trkpt lat="43.58416" lon="5.07819">
        <ele>68</ele>
        <time>2019-12-16T14:43:22Z</time>
      </trkpt>
      <trkpt lat="43.58416" lon="5.07821">
        <ele>68</ele>
        <time>2019-12-16T14:43:23Z</time>
      </trkpt>
      <trkpt lat="43.58417" lon="5.07822">
        <ele>68</ele>
        <time>2019-12-16T14:43:24Z</time>
      </trkpt>
      <trkpt lat="43.58417" lon="5.07824">
        <ele>68</ele>
        <time>2019-12-16T14:43:25Z</time>
      </trkpt>
      <trkpt lat="43.58417" lon="5.07826">
        <ele>68</ele>
        <time>2019-12-16T14:43:26Z</time>
      </trkpt>
      <trkpt lat="43.58418" lon="5.07828">
        <ele>68</ele>
        <time>2019-12-16T14:43:27Z</time>
      </trkpt>
      <trkpt lat="43.58418" lon="5.07829">
        <ele>68</ele>
        <time>2019-12-16T14:43:28Z</time>
      </trkpt>
      <trkpt lat="43.58418" lon="5.07831">
        <ele>68</ele>
        <time>2019-12-16T14:43:29Z</time>
      </trkpt>
      <trkpt lat="43.58418" lon="5.07832">
        <ele>68</ele>
        <time>2019-12-16T14:43:30Z</time>
      </trkpt>
      <trkpt lat="43.58418" lon="5.07834">
        <ele>68</ele>
        <time>2019-12-16T14:43:31Z</time>
      </trkpt>
      <trkpt lat="43.58418" lon="5.07836">
        <ele>68</ele>
        <time>2019-12-16T14:43:32Z</time>
      </trkpt>
      <trkpt lat="43.58418" lon="5.07837">
        <ele>68</ele>
        <time>2019-12-16T14:43:33Z</time>
      </trkpt>
      <trkpt lat="43.58418" lon="5.07839">
        <ele>68</ele>
        <time>2019-12-16T14:43:34Z</time>
      </trkpt>
      <trkpt lat="43.58419" lon="5.07841">
        <ele>67</ele>
        <time>2019-12-16T14:43:35Z</time>
      </trkpt>
      <trkpt lat="43.58419" lon="5.07842">
        <ele>67</ele>
        <time>2019-12-16T14:43:36Z</time>
      </trkpt>
      <trkpt lat="43.58419" lon="5.07844">
        <ele>67</ele>
        <time>2019-12-16T14:43:37Z</time>
      </trkpt>
      <trkpt lat="43.58419" lon="5.07846">
        <ele>67</ele>
        <time>2019-12-16T14:43:38Z</time>
      </trkpt>
      <trkpt lat="43.5842" lon="5.07847">
        <ele>67</ele>
        <time>2019-12-16T14:43:39Z</time>
      </trkpt>
      <trkpt lat="43.5842" lon="5.07849">
        <ele>67</ele>
        <time>2019-12-16T14:43:40Z</time>
      </trkpt>
      <trkpt lat="43.58421" lon="5.0785">
        <ele>67</ele>
        <time>2019-12-16T14:43:41Z</time>
      </trkpt>
      <trkpt lat="43.58422" lon="5.07852">
        <ele>67</ele>
        <time>2019-12-16T14:43:42Z</time>
      </trkpt>
      <trkpt lat="43.58422" lon="5.07853">
        <ele>67</ele>
        <time>2019-12-16T14:43:43Z</time>
      </trkpt>
      <trkpt lat="43.58423" lon="5.07854">
        <ele>67</ele>
        <time>2019-12-16T14:43:44Z</time>
      </trkpt>
      <trkpt lat="43.58424" lon="5.07855">
        <ele>67</ele>
        <time>2019-12-16T14:43:45Z</time>
      </trkpt>
      <trkpt lat="43.58425" lon="5.07856">
        <ele>67</ele>
        <time>2019-12-16T14:43:46Z</time>
      </trkpt>
      <trkpt lat="43.58426" lon="5.07856">
        <ele>67</ele>
        <time>2019-12-16T14:43:47Z</time>
      </trkpt>
      <trkpt lat="43.58427" lon="5.07857">
        <ele>67</ele>
        <time>2019-12-16T14:43:48Z</time>
      </trkpt>
      <trkpt lat="43.58429" lon="5.07857">
        <ele>67</ele>
        <time>2019-12-16T14:43:49Z</time>
      </trkpt>
      <trkpt lat="43.5843" lon="5.07856">
        <ele>67</ele>
        <time>2019-12-16T14:43:50Z</time>
      </trkpt>
      <trkpt lat="43.58431" lon="5.07856">
        <ele>67</ele>
        <time>2019-12-16T14:43:51Z</time>
      </trkpt>
      <trkpt lat="43.58433" lon="5.07856">
        <ele>67</ele>
        <time>2019-12-16T14:43:52Z</time>
      </trkpt>
      <trkpt lat="43.58434" lon="5.07855">
        <ele>67</ele>
        <time>2019-12-16T14:43:53Z</time>
      </trkpt>
      <trkpt lat="43.58435" lon="5.07855">
        <ele>66</ele>
        <time>2019-12-16T14:43:54Z</time>
      </trkpt>
      <trkpt lat="43.58436" lon="5.07854">
        <ele>66</ele>
        <time>2019-12-16T14:43:55Z</time>
      </trkpt>
      <trkpt lat="43.58437" lon="5.07854">
        <ele>66</ele>
        <time>2019-12-16T14:43:56Z</time>
      </trkpt>
      <trkpt lat="43.58438" lon="5.07854">
        <ele>66</ele>
        <time>2019-12-16T14:43:57Z</time>
      </trkpt>
      <trkpt lat="43.58439" lon="5.07853">
        <ele>66</ele>
        <time>2019-12-16T14:43:58Z</time>
      </trkpt>
      <trkpt lat="43.5844" lon="5.07853">
        <ele>66</ele>
        <time>2019-12-16T14:43:59Z</time>
      </trkpt>
      <trkpt lat="43.58441" lon="5.07852">
        <ele>66</ele>
        <time>2019-12-16T14:44:00Z</time>
      </trkpt>
      <trkpt lat="43.58443" lon="5.07852">
        <ele>66</ele>
        <time>2019-12-16T14:44:01Z</time>
      </trkpt>
      <trkpt lat="43.58444" lon="5.07852">
        <ele>66</ele>
        <time>2019-12-16T14:44:02Z</time>
      </trkpt>
      <trkpt lat="43.58445" lon="5.07852">
        <ele>66</ele>
        <time>2019-12-16T14:44:03Z</time>
      </trkpt>
      <trkpt lat="43.58446" lon="5.07851">
        <ele>66</ele>
        <time>2019-12-16T14:44:04Z</time>
      </trkpt>
      <trkpt lat="43.58447" lon="5.07851">
        <ele>66</ele>
        <time>2019-12-16T14:44:05Z</time>
      </trkpt>
      <trkpt lat="43.58448" lon="5.07851">
        <ele>66</ele>
        <time>2019-12-16T14:44:06Z</time>
      </trkpt>
      <trkpt lat="43.5845" lon="5.07851">
        <ele>66</ele>
        <time>2019-12-16T14:44:07Z</time>
      </trkpt>
      <trkpt lat="43.58451" lon="5.0785">
        <ele>66</ele>
        <time>2019-12-16T14:44:08Z</time>
      </trkpt>
      <trkpt lat="43.58452" lon="5.0785">
        <ele>66</ele>
        <time>2019-12-16T14:44:09Z</time>
      </trkpt>
      <trkpt lat="43.58453" lon="5.07849">
        <ele>66</ele>
        <time>2019-12-16T14:44:10Z</time>
      </trkpt>
      <trkpt lat="43.58454" lon="5.07849">
        <ele>66</ele>
        <time>2019-12-16T14:44:11Z</time>
      </trkpt>
      <trkpt lat="43.58455" lon="5.07849">
        <ele>66</ele>
        <time>2019-12-16T14:44:12Z</time>
      </trkpt>
      <trkpt lat="43.58456" lon="5.07848">
        <ele>66</ele>
        <time>2019-12-16T14:44:13Z</time>
      </trkpt>
      <trkpt lat="43.58457" lon="5.07848">
        <ele>66</ele>
        <time>2019-12-16T14:44:14Z</time>
      </trkpt>
      <trkpt lat="43.58458" lon="5.07847">
        <ele>66</ele>
        <time>2019-12-16T14:44:15Z</time>
      </trkpt>
      <trkpt lat="43.58459" lon="5.07847">
        <ele>66</ele>
        <time>2019-12-16T14:44:16Z</time>
      </trkpt>
      <trkpt lat="43.5846" lon="5.07846">
        <ele>66</ele>
        <time>2019-12-16T14:44:17Z</time>
      </trkpt>
      <trkpt lat="43.58461" lon="5.07846">
        <ele>66</ele>
        <time>2019-12-16T14:44:18Z</time>
      </trkpt>
      <trkpt lat="43.58462" lon="5.07845">
        <ele>66</ele>
        <time>2019-12-16T14:44:19Z</time>
      </trkpt>
      <trkpt lat="43.58464" lon="5.07845">
        <ele>66</ele>
        <time>2019-12-16T14:44:20Z</time>
      </trkpt>
      <trkpt lat="43.58465" lon="5.07845">
        <ele>66</ele>
        <time>2019-12-16T14:44:21Z</time>
      </trkpt>
      <trkpt lat="43.58466" lon="5.07844">
        <ele>66</ele>
        <time>2019-12-16T14:44:22Z</time>
      </trkpt>
      <trkpt lat="43.58467" lon="5.07844">
        <ele>66</ele>
        <time>2019-12-16T14:44:23Z</time>
      </trkpt>
      <trkpt lat="43.58468" lon="5.07844">
        <ele>66</ele>
        <time>2019-12-16T14:44:24Z</time>
      </trkpt>
      <trkpt lat="43.58469" lon="5.07843">
        <ele>66</ele>
        <time>2019-12-16T14:44:25Z</time>
      </trkpt>
      <trkpt lat="43.5847" lon="5.07843">
        <ele>66</ele>
        <time>2019-12-16T14:44:26Z</time>
      </trkpt>
      <trkpt lat="43.58472" lon="5.07843">
        <ele>66</ele>
        <time>2019-12-16T14:44:27Z</time>
      </trkpt>
      <trkpt lat="43.58473" lon="5.07842">
        <ele>66</ele>
        <time>2019-12-16T14:44:28Z</time>
      </trkpt>
      <trkpt lat="43.58474" lon="5.07842">
        <ele>66</ele>
        <time>2019-12-16T14:44:29Z</time>
      </trkpt>
      <trkpt lat="43.58475" lon="5.07842">
        <ele>66</ele>
        <time>2019-12-16T14:44:30Z</time>
      </trkpt>
      <trkpt lat="43.58477" lon="5.07842">
        <ele>66</ele>
        <time>2019-12-16T14:44:31Z</time>
      </trkpt>
      <trkpt lat="43.58478" lon="5.07841">
        <ele>66</ele>
        <time>2019-12-16T14:44:32Z</time>
      </trkpt>
      <trkpt lat="43.58479" lon="5.07841">
        <ele>66</ele>
        <time>2019-12-16T14:44:33Z</time>
      </trkpt>
      <trkpt lat="43.5848" lon="5.07841">
        <ele>66</ele>
        <time>2019-12-16T14:44:34Z</time>
      </trkpt>
      <trkpt lat="43.58481" lon="5.07841">
        <ele>66</ele>
        <time>2019-12-16T14:44:35Z</time>
      </trkpt>
      <trkpt lat="43.58483" lon="5.07841">
        <ele>66</ele>
        <time>2019-12-16T14:44:36Z</time>
      </trkpt>
      <trkpt lat="43.58484" lon="5.0784">
        <ele>66</ele>
        <time>2019-12-16T14:44:37Z</time>
      </trkpt>
      <trkpt lat="43.58485" lon="5.0784">
        <ele>66</ele>
        <time>2019-12-16T14:44:38Z</time>
      </trkpt>
      <trkpt lat="43.58487" lon="5.0784">
        <ele>66</ele>
        <time>2019-12-16T14:44:39Z</time>
      </trkpt>
      <trkpt lat="43.58488" lon="5.0784">
        <ele>66</ele>
        <time>2019-12-16T14:44:40Z</time>
      </trkpt>
      <trkpt lat="43.58489" lon="5.0784">
        <ele>66</ele>
        <time>2019-12-16T14:44:41Z</time>
      </trkpt>
      <trkpt lat="43.5849" lon="5.0784">
        <ele>66</ele>
        <time>2019-12-16T14:44:42Z</time>
      </trkpt>
      <trkpt lat="43.58492" lon="5.0784">
        <ele>66</ele>
        <time>2019-12-16T14:44:43Z</time>
      </trkpt>
      <trkpt lat="43.58493" lon="5.0784">
        <ele>66</ele>
        <time>2019-12-16T14:44:44Z</time>
      </trkpt>
      <trkpt lat="43.58494" lon="5.0784">
        <ele>66</ele>
        <time>2019-12-16T14:44:45Z</time>
      </trkpt>
      <trkpt lat="43.58496" lon="5.0784">
        <ele>66</ele>
        <time>2019-12-16T14:44:46Z</time>
      </trkpt>
      <trkpt lat="43.58497" lon="5.0784">
        <ele>66</ele>
        <time>2019-12-16T14:44:47Z</time>
      </trkpt>
      <trkpt lat="43.58498" lon="5.0784">
        <ele>66</ele>
        <time>2019-12-16T14:44:48Z</time>
      </trkpt>
      <trkpt lat="43.58499" lon="5.0784">
        <ele>66</ele>
        <time>2019-12-16T14:44:49Z</time>
      </trkpt>
      <trkpt lat="43.585" lon="5.0784">
        <ele>66</ele>
        <time>2019-12-16T14:44:50Z</time>
      </trkpt>
      <trkpt lat="43.58502" lon="5.07839">
        <ele>66</ele>
        <time>2019-12-16T14:44:51Z</time>
      </trkpt>
      <trkpt lat="43.58503" lon="5.07839">
        <ele>66</ele>
        <time>2019-12-16T14:44:52Z</time>
      </trkpt>
      <trkpt lat="43.58504" lon="5.07839">
        <ele>66</ele>
        <time>2019-12-16T14:44:53Z</time>
      </trkpt>
      <trkpt lat="43.58505" lon="5.07839">
        <ele>66</ele>
        <time>2019-12-16T14:44:54Z</time>
      </trkpt>
      <trkpt lat="43.58507" lon="5.07839">
        <ele>65</ele>
        <time>2019-12-16T14:44:55Z</time>
      </trkpt>
      <trkpt lat="43.58508" lon="5.07839">
        <ele>65</ele>
        <time>2019-12-16T14:44:56Z</time>
      </trkpt>
      <trkpt lat="43.58509" lon="5.07839">
        <ele>65</ele>
        <time>2019-12-16T14:44:57Z</time>
      </trkpt>
      <trkpt lat="43.5851" lon="5.07838">
        <ele>65</ele>
        <time>2019-12-16T14:44:58Z</time>
      </trkpt>
      <trkpt lat="43.58511" lon="5.07838">
        <ele>65</ele>
        <time>2019-12-16T14:44:59Z</time>
      </trkpt>
      <trkpt lat="43.58512" lon="5.07838">
        <ele>65</ele>
        <time>2019-12-16T14:45:00Z</time>
      </trkpt>
      <trkpt lat="43.58514" lon="5.07837">
        <ele>65</ele>
        <time>2019-12-16T14:45:01Z</time>
      </trkpt>
      <trkpt lat="43.58515" lon="5.07837">
        <ele>65</ele>
        <time>2019-12-16T14:45:02Z</time>
      </trkpt>
      <trkpt lat="43.58516" lon="5.07837">
        <ele>65</ele>
        <time>2019-12-16T14:45:03Z</time>
      </trkpt>
      <trkpt lat="43.58517" lon="5.07837">
        <ele>65</ele>
        <time>2019-12-16T14:45:04Z</time>
      </trkpt>
      <trkpt lat="43.58518" lon="5.07836">
        <ele>65</ele>
        <time>2019-12-16T14:45:05Z</time>
      </trkpt>
      <trkpt lat="43.58519" lon="5.07836">
        <ele>65</ele>
        <time>2019-12-16T14:45:06Z</time>
      </trkpt>
      <trkpt lat="43.58521" lon="5.07836">
        <ele>65</ele>
        <time>2019-12-16T14:45:07Z</time>
      </trkpt>
      <trkpt lat="43.58522" lon="5.07836">
        <ele>65</ele>
        <time>2019-12-16T14:45:08Z</time>
      </trkpt>
      <trkpt lat="43.58523" lon="5.07836">
        <ele>65</ele>
        <time>2019-12-16T14:45:09Z</time>
      </trkpt>
      <trkpt lat="43.58524" lon="5.07835">
        <ele>65</ele>
        <time>2019-12-16T14:45:10Z</time>
      </trkpt>
      <trkpt lat="43.58526" lon="5.07835">
        <ele>65</ele>
        <time>2019-12-16T14:45:11Z</time>
      </trkpt>
      <trkpt lat="43.58527" lon="5.07835">
        <ele>65</ele>
        <time>2019-12-16T14:45:12Z</time>
      </trkpt>
      <trkpt lat="43.58528" lon="5.07836">
        <ele>65</ele>
        <time>2019-12-16T14:45:13Z</time>
      </trkpt>
      <trkpt lat="43.58529" lon="5.07836">
        <ele>65</ele>
        <time>2019-12-16T14:45:14Z</time>
      </trkpt>
      <trkpt lat="43.58531" lon="5.07836">
        <ele>65</ele>
        <time>2019-12-16T14:45:15Z</time>
      </trkpt>
      <trkpt lat="43.58532" lon="5.07836">
        <ele>65</ele>
        <time>2019-12-16T14:45:16Z</time>
      </trkpt>
      <trkpt lat="43.58533" lon="5.07836">
        <ele>65</ele>
        <time>2019-12-16T14:45:17Z</time>
      </trkpt>
      <trkpt lat="43.58534" lon="5.07836">
        <ele>65</ele>
        <time>2019-12-16T14:45:18Z</time>
      </trkpt>
      <trkpt lat="43.58536" lon="5.07836">
        <ele>65</ele>
        <time>2019-12-16T14:45:19Z</time>
      </trkpt>
      <trkpt lat="43.58537" lon="5.07836">
        <ele>65</ele>
        <time>2019-12-16T14:45:20Z</time>
      </trkpt>
      <trkpt lat="43.58538" lon="5.07836">
        <ele>65</ele>
        <time>2019-12-16T14:45:21Z</time>
      </trkpt>
      <trkpt lat="43.58539" lon="5.07836">
        <ele>65</ele>
        <time>2019-12-16T14:45:22Z</time>
      </trkpt>
      <trkpt lat="43.58541" lon="5.07836">
        <ele>65</ele>
        <time>2019-12-16T14:45:23Z</time>
      </trkpt>
      <trkpt lat="43.58542" lon="5.07836">
        <ele>65</ele>
        <time>2019-12-16T14:45:24Z</time>
      </trkpt>
      <trkpt lat="43.58543" lon="5.07836">
        <ele>65</ele>
        <time>2019-12-16T14:45:25Z</time>
      </trkpt>
      <trkpt lat="43.58544" lon="5.07836">
        <ele>65</ele>
        <time>2019-12-16T14:45:26Z</time>
      </trkpt>
      <trkpt lat="43.58546" lon="5.07836">
        <ele>65</ele>
        <time>2019-12-16T14:45:27Z</time>
      </trkpt>
      <trkpt lat="43.58547" lon="5.07836">
        <ele>65</ele>
        <time>2019-12-16T14:45:28Z</time>
      </trkpt>
      <trkpt lat="43.58548" lon="5.07836">
        <ele>65</ele>
        <time>2019-12-16T14:45:29Z</time>
      </trkpt>
      <trkpt lat="43.58549" lon="5.07836">
        <ele>65</ele>
        <time>2019-12-16T14:45:30Z</time>
      </trkpt>
      <trkpt lat="43.5855" lon="5.07835">
        <ele>65</ele>
        <time>2019-12-16T14:45:31Z</time>
      </trkpt>
      <trkpt lat="43.58552" lon="5.07835">
        <ele>65</ele>
        <time>2019-12-16T14:45:32Z</time>
      </trkpt>
      <trkpt lat="43.58553" lon="5.07835">
        <ele>65</ele>
        <time>2019-12-16T14:45:33Z</time>
      </trkpt>
      <trkpt lat="43.58554" lon="5.07835">
        <ele>65</ele>
        <time>2019-12-16T14:45:34Z</time>
      </trkpt>
      <trkpt lat="43.58555" lon="5.07835">
        <ele>65</ele>
        <time>2019-12-16T14:45:35Z</time>
      </trkpt>
      <trkpt lat="43.58556" lon="5.07836">
        <ele>65</ele>
        <time>2019-12-16T14:45:36Z</time>
      </trkpt>
      <trkpt lat="43.58558" lon="5.07836">
        <ele>65</ele>
        <time>2019-12-16T14:45:37Z</time>
      </trkpt>
      <trkpt lat="43.58559" lon="5.07836">
        <ele>65</ele>
        <time>2019-12-16T14:45:38Z</time>
      </trkpt>
      <trkpt lat="43.5856" lon="5.07836">
        <ele>65</ele>
        <time>2019-12-16T14:45:39Z</time>
      </trkpt>
      <trkpt lat="43.58561" lon="5.07836">
        <ele>65</ele>
        <time>2019-12-16T14:45:40Z</time>
      </trkpt>
      <trkpt lat="43.58562" lon="5.07837">
        <ele>65</ele>
        <time>2019-12-16T14:45:41Z</time>
      </trkpt>
      <trkpt lat="43.58563" lon="5.07837">
        <ele>65</ele>
        <time>2019-12-16T14:45:42Z</time>
      </trkpt>
      <trkpt lat="43.58564" lon="5.07837">
        <ele>65</ele>
        <time>2019-12-16T14:45:43Z</time>
      </trkpt>
      <trkpt lat="43.58566" lon="5.07838">
        <ele>65</ele>
        <time>2019-12-16T14:45:44Z</time>
      </trkpt>
      <trkpt lat="43.58567" lon="5.07838">
        <ele>65</ele>
        <time>2019-12-16T14:45:45Z</time>
      </trkpt>
      <trkpt lat="43.58568" lon="5.07838">
        <ele>65</ele>
        <time>2019-12-16T14:45:46Z</time>
      </trkpt>
      <trkpt lat="43.58569" lon="5.07839">
        <ele>65</ele>
        <time>2019-12-16T14:45:47Z</time>
      </trkpt>
      <trkpt lat="43.5857" lon="5.07839">
        <ele>65</ele>
        <time>2019-12-16T14:45:48Z</time>
      </trkpt>
      <trkpt lat="43.58572" lon="5.0784">
        <ele>65</ele>
        <time>2019-12-16T14:45:49Z</time>
      </trkpt>
      <trkpt lat="43.58573" lon="5.0784">
        <ele>65</ele>
        <time>2019-12-16T14:45:50Z</time>
      </trkpt>
      <trkpt lat="43.58574" lon="5.07841">
        <ele>65</ele>
        <time>2019-12-16T14:45:51Z</time>
      </trkpt>
      <trkpt lat="43.58575" lon="5.07841">
        <ele>65</ele>
        <time>2019-12-16T14:45:52Z</time>
      </trkpt>
      <trkpt lat="43.58576" lon="5.07842">
        <ele>65</ele>
        <time>2019-12-16T14:45:53Z</time>
      </trkpt>
      <trkpt lat="43.58577" lon="5.07843">
        <ele>65</ele>
        <time>2019-12-16T14:45:54Z</time>
      </trkpt>
      <trkpt lat="43.58578" lon="5.07843">
        <ele>65</ele>
        <time>2019-12-16T14:45:55Z</time>
      </trkpt>
      <trkpt lat="43.58579" lon="5.07844">
        <ele>65</ele>
        <time>2019-12-16T14:45:56Z</time>
      </trkpt>
      <trkpt lat="43.5858" lon="5.07845">
        <ele>65</ele>
        <time>2019-12-16T14:45:57Z</time>
      </trkpt>
      <trkpt lat="43.58581" lon="5.07847">
        <ele>65</ele>
        <time>2019-12-16T14:45:58Z</time>
      </trkpt>
      <trkpt lat="43.58582" lon="5.07848">
        <ele>65</ele>
        <time>2019-12-16T14:45:59Z</time>
      </trkpt>
      <trkpt lat="43.58582" lon="5.07849">
        <ele>65</ele>
        <time>2019-12-16T14:46:00Z</time>
      </trkpt>
      <trkpt lat="43.58583" lon="5.07851">
        <ele>65</ele>
        <time>2019-12-16T14:46:01Z</time>
      </trkpt>
      <trkpt lat="43.58583" lon="5.07852">
        <ele>64</ele>
        <time>2019-12-16T14:46:02Z</time>
      </trkpt>
      <trkpt lat="43.58584" lon="5.07854">
        <ele>64</ele>
        <time>2019-12-16T14:46:03Z</time>
      </trkpt>
      <trkpt lat="43.58584" lon="5.07856">
        <ele>64</ele>
        <time>2019-12-16T14:46:04Z</time>
      </trkpt>
      <trkpt lat="43.58585" lon="5.07858">
        <ele>64</ele>
        <time>2019-12-16T14:46:05Z</time>
      </trkpt>
      <trkpt lat="43.58585" lon="5.07859">
        <ele>63</ele>
        <time>2019-12-16T14:46:06Z</time>
      </trkpt>
      <trkpt lat="43.58585" lon="5.07861">
        <ele>63</ele>
        <time>2019-12-16T14:46:07Z</time>
      </trkpt>
      <trkpt lat="43.58585" lon="5.07863">
        <ele>63</ele>
        <time>2019-12-16T14:46:08Z</time>
      </trkpt>
      <trkpt lat="43.58585" lon="5.07865">
        <ele>63</ele>
        <time>2019-12-16T14:46:09Z</time>
      </trkpt>
      <trkpt lat="43.58585" lon="5.07867">
        <ele>63</ele>
        <time>2019-12-16T14:46:10Z</time>
      </trkpt>
      <trkpt lat="43.58585" lon="5.07868">
        <ele>63</ele>
        <time>2019-12-16T14:46:11Z</time>
      </trkpt>
      <trkpt lat="43.58585" lon="5.0787">
        <ele>63</ele>
        <time>2019-12-16T14:46:12Z</time>
      </trkpt>
      <trkpt lat="43.58585" lon="5.07872">
        <ele>63</ele>
        <time>2019-12-16T14:46:13Z</time>
      </trkpt>
      <trkpt lat="43.58586" lon="5.07874">
        <ele>63</ele>
        <time>2019-12-16T14:46:14Z</time>
      </trkpt>
      <trkpt lat="43.58586" lon="5.07875">
        <ele>63</ele>
        <time>2019-12-16T14:46:15Z</time>
      </trkpt>
      <trkpt lat="43.58586" lon="5.07876">
        <ele>63</ele>
        <time>2019-12-16T14:46:16Z</time>
      </trkpt>
      <trkpt lat="43.58587" lon="5.07878">
        <ele>63</ele>
        <time>2019-12-16T14:46:17Z</time>
      </trkpt>
      <trkpt lat="43.58588" lon="5.07878">
        <ele>63</ele>
        <time>2019-12-16T14:46:18Z</time>
      </trkpt>
      <trkpt lat="43.58588" lon="5.07879">
        <ele>63</ele>
        <time>2019-12-16T14:46:19Z</time>
      </trkpt>
      <trkpt lat="43.58589" lon="5.0788">
        <ele>63</ele>
        <time>2019-12-16T14:46:20Z</time>
      </trkpt>
      <trkpt lat="43.5859" lon="5.07881">
        <ele>63</ele>
        <time>2019-12-16T14:46:21Z</time>
      </trkpt>
      <trkpt lat="43.58591" lon="5.07881">
        <ele>63</ele>
        <time>2019-12-16T14:46:22Z</time>
      </trkpt>
      <trkpt lat="43.58592" lon="5.07882">
        <ele>63</ele>
        <time>2019-12-16T14:46:23Z</time>
      </trkpt>
      <trkpt lat="43.58593" lon="5.07882">
        <ele>63</ele>
        <time>2019-12-16T14:46:24Z</time>
      </trkpt>
      <trkpt lat="43.58594" lon="5.07883">
        <ele>63</ele>
        <time>2019-12-16T14:46:25Z</time>
      </trkpt>
      <trkpt lat="43.58595" lon="5.07883">
        <ele>63</ele>
        <time>2019-12-16T14:46:26Z</time>
      </trkpt>
      <trkpt lat="43.58596" lon="5.07883">
        <ele>63</ele>
        <time>2019-12-16T14:46:27Z</time>
      </trkpt>
      <trkpt lat="43.58597" lon="5.07884">
        <ele>63</ele>
        <time>2019-12-16T14:46:28Z</time>
      </trkpt>
      <trkpt lat="43.58598" lon="5.07884">
        <ele>63</ele>
        <time>2019-12-16T14:46:29Z</time>
      </trkpt>
      <trkpt lat="43.58599" lon="5.07884">
        <ele>63</ele>
        <time>2019-12-16T14:46:30Z</time>
      </trkpt>
      <trkpt lat="43.586" lon="5.07884">
        <ele>63</ele>
        <time>2019-12-16T14:46:31Z</time>
      </trkpt>
      <trkpt lat="43.58601" lon="5.07884">
        <ele>63</ele>
        <time>2019-12-16T14:46:32Z</time>
      </trkpt>
      <trkpt lat="43.58602" lon="5.07884">
        <ele>63</ele>
        <time>2019-12-16T14:46:33Z</time>
      </trkpt>
      <trkpt lat="43.58603" lon="5.07884">
        <ele>63</ele>
        <time>2019-12-16T14:46:34Z</time>
      </trkpt>
      <trkpt lat="43.58604" lon="5.07884">
        <ele>63</ele>
        <time>2019-12-16T14:46:35Z</time>
      </trkpt>
      <trkpt lat="43.58605" lon="5.07884">
        <ele>63</ele>
        <time>2019-12-16T14:46:36Z</time>
      </trkpt>
      <trkpt lat="43.58607" lon="5.07884">
        <ele>63</ele>
        <time>2019-12-16T14:46:37Z</time>
      </trkpt>
      <trkpt lat="43.58608" lon="5.07884">
        <ele>63</ele>
        <time>2019-12-16T14:46:38Z</time>
      </trkpt>
      <trkpt lat="43.58609" lon="5.07884">
        <ele>63</ele>
        <time>2019-12-16T14:46:39Z</time>
      </trkpt>
      <trkpt lat="43.5861" lon="5.07884">
        <ele>63</ele>
        <time>2019-12-16T14:46:40Z</time>
      </trkpt>
      <trkpt lat="43.58612" lon="5.07884">
        <ele>63</ele>
        <time>2019-12-16T14:46:41Z</time>
      </trkpt>
      <trkpt lat="43.58613" lon="5.07885">
        <ele>63</ele>
        <time>2019-12-16T14:46:42Z</time>
      </trkpt>
      <trkpt lat="43.58614" lon="5.07885">
        <ele>63</ele>
        <time>2019-12-16T14:46:43Z</time>
      </trkpt>
      <trkpt lat="43.58615" lon="5.07885">
        <ele>63</ele>
        <time>2019-12-16T14:46:44Z</time>
      </trkpt>
      <trkpt lat="43.58617" lon="5.07885">
        <ele>63</ele>
        <time>2019-12-16T14:46:45Z</time>
      </trkpt>
      <trkpt lat="43.58618" lon="5.07885">
        <ele>63</ele>
        <time>2019-12-16T14:46:46Z</time>
      </trkpt>
      <trkpt lat="43.58619" lon="5.07886">
        <ele>62</ele>
        <time>2019-12-16T14:46:47Z</time>
      </trkpt>
      <trkpt lat="43.5862" lon="5.07886">
        <ele>62</ele>
        <time>2019-12-16T14:46:48Z</time>
      </trkpt>
      <trkpt lat="43.58622" lon="5.07887">
        <ele>62</ele>
        <time>2019-12-16T14:46:49Z</time>
      </trkpt>
      <trkpt lat="43.58623" lon="5.07888">
        <ele>62</ele>
        <time>2019-12-16T14:46:50Z</time>
      </trkpt>
      <trkpt lat="43.58624" lon="5.07889">
        <ele>62</ele>
        <time>2019-12-16T14:46:51Z</time>
      </trkpt>
      <trkpt lat="43.58625" lon="5.0789">
        <ele>62</ele>
        <time>2019-12-16T14:46:52Z</time>
      </trkpt>
      <trkpt lat="43.58626" lon="5.07891">
        <ele>62</ele>
        <time>2019-12-16T14:46:53Z</time>
      </trkpt>
      <trkpt lat="43.58627" lon="5.07893">
        <ele>62</ele>
        <time>2019-12-16T14:46:54Z</time>
      </trkpt>
      <trkpt lat="43.58628" lon="5.07894">
        <ele>62</ele>
        <time>2019-12-16T14:46:55Z</time>
      </trkpt>
      <trkpt lat="43.58628" lon="5.07896">
        <ele>62</ele>
        <time>2019-12-16T14:46:56Z</time>
      </trkpt>
      <trkpt lat="43.58629" lon="5.07898">
        <ele>62</ele>
        <time>2019-12-16T14:46:57Z</time>
      </trkpt>
      <trkpt lat="43.58629" lon="5.079">
        <ele>62</ele>
        <time>2019-12-16T14:46:58Z</time>
      </trkpt>
      <trkpt lat="43.5863" lon="5.07902">
        <ele>62</ele>
        <time>2019-12-16T14:46:59Z</time>
      </trkpt>
      <trkpt lat="43.5863" lon="5.07903">
        <ele>62</ele>
        <time>2019-12-16T14:47:00Z</time>
      </trkpt>
      <trkpt lat="43.58631" lon="5.07905">
        <ele>62</ele>
        <time>2019-12-16T14:47:01Z</time>
      </trkpt>
      <trkpt lat="43.58631" lon="5.07907">
        <ele>62</ele>
        <time>2019-12-16T14:47:02Z</time>
      </trkpt>
      <trkpt lat="43.58631" lon="5.07908">
        <ele>62</ele>
        <time>2019-12-16T14:47:03Z</time>
      </trkpt>
      <trkpt lat="43.58632" lon="5.0791">
        <ele>62</ele>
        <time>2019-12-16T14:47:04Z</time>
      </trkpt>
      <trkpt lat="43.58632" lon="5.07912">
        <ele>62</ele>
        <time>2019-12-16T14:47:05Z</time>
      </trkpt>
      <trkpt lat="43.58632" lon="5.07914">
        <ele>62</ele>
        <time>2019-12-16T14:47:06Z</time>
      </trkpt>
      <trkpt lat="43.58632" lon="5.07915">
        <ele>62</ele>
        <time>2019-12-16T14:47:07Z</time>
      </trkpt>
      <trkpt lat="43.58632" lon="5.07917">
        <ele>61</ele>
        <time>2019-12-16T14:47:08Z</time>
      </trkpt>
      <trkpt lat="43.58632" lon="5.07918">
        <ele>61</ele>
        <time>2019-12-16T14:47:09Z</time>
      </trkpt>
      <trkpt lat="43.58632" lon="5.0792">
        <ele>61</ele>
        <time>2019-12-16T14:47:10Z</time>
      </trkpt>
      <trkpt lat="43.58632" lon="5.07922">
        <ele>61</ele>
        <time>2019-12-16T14:47:11Z</time>
      </trkpt>
      <trkpt lat="43.58633" lon="5.07923">
        <ele>61</ele>
        <time>2019-12-16T14:47:12Z</time>
      </trkpt>
      <trkpt lat="43.58633" lon="5.07925">
        <ele>61</ele>
        <time>2019-12-16T14:47:13Z</time>
      </trkpt>
      <trkpt lat="43.58633" lon="5.07927">
        <ele>61</ele>
        <time>2019-12-16T14:47:14Z</time>
      </trkpt>
      <trkpt lat="43.58633" lon="5.07928">
        <ele>61</ele>
        <time>2019-12-16T14:47:15Z</time>
      </trkpt>
      <trkpt lat="43.58633" lon="5.0793">
        <ele>61</ele>
        <time>2019-12-16T14:47:16Z</time>
      </trkpt>
      <trkpt lat="43.58633" lon="5.07931">
        <ele>61</ele>
        <time>2019-12-16T14:47:17Z</time>
      </trkpt>
      <trkpt lat="43.58633" lon="5.07933">
        <ele>61</ele>
        <time>2019-12-16T14:47:18Z</time>
      </trkpt>
      <trkpt lat="43.58633" lon="5.07935">
        <ele>61</ele>
        <time>2019-12-16T14:47:19Z</time>
      </trkpt>
      <trkpt lat="43.58634" lon="5.07936">
        <ele>61</ele>
        <time>2019-12-16T14:47:20Z</time>
      </trkpt>
      <trkpt lat="43.58634" lon="5.07938">
        <ele>61</ele>
        <time>2019-12-16T14:47:21Z</time>
      </trkpt>
      <trkpt lat="43.58634" lon="5.0794">
        <ele>61</ele>
        <time>2019-12-16T14:47:22Z</time>
      </trkpt>
      <trkpt lat="43.58634" lon="5.07941">
        <ele>61</ele>
        <time>2019-12-16T14:47:23Z</time>
      </trkpt>
      <trkpt lat="43.58634" lon="5.07943">
        <ele>61</ele>
        <time>2019-12-16T14:47:24Z</time>
      </trkpt>
      <trkpt lat="43.58635" lon="5.07945">
        <ele>61</ele>
        <time>2019-12-16T14:47:25Z</time>
      </trkpt>
      <trkpt lat="43.58635" lon="5.07946">
        <ele>61</ele>
        <time>2019-12-16T14:47:26Z</time>
      </trkpt>
      <trkpt lat="43.58635" lon="5.07948">
        <ele>61</ele>
        <time>2019-12-16T14:47:27Z</time>
      </trkpt>
      <trkpt lat="43.58635" lon="5.07949">
        <ele>61</ele>
        <time>2019-12-16T14:47:28Z</time>
      </trkpt>
      <trkpt lat="43.58635" lon="5.07951">
        <ele>61</ele>
        <time>2019-12-16T14:47:29Z</time>
      </trkpt>
      <trkpt lat="43.58636" lon="5.07953">
        <ele>61</ele>
        <time>2019-12-16T14:47:30Z</time>
      </trkpt>
      <trkpt lat="43.58636" lon="5.07954">
        <ele>61</ele>
        <time>2019-12-16T14:47:31Z</time>
      </trkpt>
      <trkpt lat="43.58636" lon="5.07956">
        <ele>61</ele>
        <time>2019-12-16T14:47:32Z</time>
      </trkpt>
      <trkpt lat="43.58636" lon="5.07957">
        <ele>61</ele>
        <time>2019-12-16T14:47:33Z</time>
      </trkpt>
      <trkpt lat="43.58636" lon="5.07959">
        <ele>61</ele>
        <time>2019-12-16T14:47:34Z</time>
      </trkpt>
      <trkpt lat="43.58637" lon="5.0796">
        <ele>61</ele>
        <time>2019-12-16T14:47:35Z</time>
      </trkpt>
      <trkpt lat="43.58637" lon="5.07962">
        <ele>61</ele>
        <time>2019-12-16T14:47:36Z</time>
      </trkpt>
      <trkpt lat="43.58637" lon="5.07963">
        <ele>61</ele>
        <time>2019-12-16T14:47:37Z</time>
      </trkpt>
      <trkpt lat="43.58637" lon="5.07965">
        <ele>61</ele>
        <time>2019-12-16T14:47:38Z</time>
      </trkpt>
      <trkpt lat="43.58638" lon="5.07966">
        <ele>61</ele>
        <time>2019-12-16T14:47:39Z</time>
      </trkpt>
      <trkpt lat="43.58638" lon="5.07968">
        <ele>61</ele>
        <time>2019-12-16T14:47:40Z</time>
      </trkpt>
      <trkpt lat="43.58638" lon="5.0797">
        <ele>61</ele>
        <time>2019-12-16T14:47:41Z</time>
      </trkpt>
      <trkpt lat="43.58639" lon="5.07971">
        <ele>61</ele>
        <time>2019-12-16T14:47:42Z</time>
      </trkpt>
      <trkpt lat="43.58639" lon="5.07973">
        <ele>61</ele>
        <time>2019-12-16T14:47:43Z</time>
      </trkpt>
      <trkpt lat="43.5864" lon="5.07974">
        <ele>61</ele>
        <time>2019-12-16T14:47:44Z</time>
      </trkpt>
      <trkpt lat="43.5864" lon="5.07976">
        <ele>61</ele>
        <time>2019-12-16T14:47:45Z</time>
      </trkpt>
      <trkpt lat="43.58641" lon="5.07977">
        <ele>61</ele>
        <time>2019-12-16T14:47:46Z</time>
      </trkpt>
      <trkpt lat="43.58641" lon="5.07979">
        <ele>61</ele>
        <time>2019-12-16T14:47:47Z</time>
      </trkpt>
      <trkpt lat="43.58642" lon="5.0798">
        <ele>61</ele>
        <time>2019-12-16T14:47:48Z</time>
      </trkpt>
      <trkpt lat="43.58643" lon="5.07982">
        <ele>61</ele>
        <time>2019-12-16T14:47:49Z</time>
      </trkpt>
      <trkpt lat="43.58643" lon="5.07983">
        <ele>61</ele>
        <time>2019-12-16T14:47:50Z</time>
      </trkpt>
      <trkpt lat="43.58644" lon="5.07985">
        <ele>61</ele>
        <time>2019-12-16T14:47:51Z</time>
      </trkpt>
      <trkpt lat="43.58644" lon="5.07986">
        <ele>61</ele>
        <time>2019-12-16T14:47:52Z</time>
      </trkpt>
      <trkpt lat="43.58645" lon="5.07988">
        <ele>61</ele>
        <time>2019-12-16T14:47:53Z</time>
      </trkpt>
      <trkpt lat="43.58645" lon="5.07989">
        <ele>61</ele>
        <time>2019-12-16T14:47:54Z</time>
      </trkpt>
      <trkpt lat="43.58646" lon="5.07991">
        <ele>61</ele>
        <time>2019-12-16T14:47:55Z</time>
      </trkpt>
      <trkpt lat="43.58647" lon="5.07992">
        <ele>61</ele>
        <time>2019-12-16T14:47:56Z</time>
      </trkpt>
      <trkpt lat="43.58647" lon="5.07994">
        <ele>61</ele>
        <time>2019-12-16T14:47:57Z</time>
      </trkpt>
      <trkpt lat="43.58647" lon="5.07995">
        <ele>61</ele>
        <time>2019-12-16T14:47:58Z</time>
      </trkpt>
      <trkpt lat="43.58647" lon="5.07996">
        <ele>61</ele>
        <time>2019-12-16T14:47:59Z</time>
      </trkpt>
      <trkpt lat="43.58648" lon="5.07998">
        <ele>61</ele>
        <time>2019-12-16T14:48:00Z</time>
      </trkpt>
      <trkpt lat="43.58648" lon="5.07999">
        <ele>61</ele>
        <time>2019-12-16T14:48:01Z</time>
      </trkpt>
      <trkpt lat="43.58648" lon="5.08">
        <ele>61</ele>
        <time>2019-12-16T14:48:02Z</time>
      </trkpt>
      <trkpt lat="43.58648" lon="5.08002">
        <ele>61</ele>
        <time>2019-12-16T14:48:03Z</time>
      </trkpt>
      <trkpt lat="43.58648" lon="5.08003">
        <ele>61</ele>
        <time>2019-12-16T14:48:04Z</time>
      </trkpt>
      <trkpt lat="43.58648" lon="5.08005">
        <ele>61</ele>
        <time>2019-12-16T14:48:05Z</time>
      </trkpt>
      <trkpt lat="43.58648" lon="5.08006">
        <ele>61</ele>
        <time>2019-12-16T14:48:06Z</time>
      </trkpt>
      <trkpt lat="43.58648" lon="5.08008">
        <ele>61</ele>
        <time>2019-12-16T14:48:07Z</time>
      </trkpt>
      <trkpt lat="43.58649" lon="5.08009">
        <ele>61</ele>
        <time>2019-12-16T14:48:08Z</time>
      </trkpt>
      <trkpt lat="43.58649" lon="5.08011">
        <ele>61</ele>
        <time>2019-12-16T14:48:09Z</time>
      </trkpt>
      <trkpt lat="43.5865" lon="5.08013">
        <ele>61</ele>
        <time>2019-12-16T14:48:10Z</time>
      </trkpt>
      <trkpt lat="43.5865" lon="5.08014">
        <ele>61</ele>
        <time>2019-12-16T14:48:11Z</time>
      </trkpt>
      <trkpt lat="43.58651" lon="5.08016">
        <ele>61</ele>
        <time>2019-12-16T14:48:12Z</time>
      </trkpt>
      <trkpt lat="43.58651" lon="5.08017">
        <ele>61</ele>
        <time>2019-12-16T14:48:13Z</time>
      </trkpt>
      <trkpt lat="43.58652" lon="5.08019">
        <ele>61</ele>
        <time>2019-12-16T14:48:14Z</time>
      </trkpt>
      <trkpt lat="43.58652" lon="5.0802">
        <ele>61</ele>
        <time>2019-12-16T14:48:15Z</time>
      </trkpt>
      <trkpt lat="43.58653" lon="5.08021">
        <ele>61</ele>
        <time>2019-12-16T14:48:16Z</time>
      </trkpt>
      <trkpt lat="43.58654" lon="5.08022">
        <ele>61</ele>
        <time>2019-12-16T14:48:17Z</time>
      </trkpt>
      <trkpt lat="43.58654" lon="5.08023">
        <ele>61</ele>
        <time>2019-12-16T14:48:18Z</time>
      </trkpt>
      <trkpt lat="43.58655" lon="5.08024">
        <ele>61</ele>
        <time>2019-12-16T14:48:19Z</time>
      </trkpt>
      <trkpt lat="43.58656" lon="5.08025">
        <ele>61</ele>
        <time>2019-12-16T14:48:20Z</time>
      </trkpt>
      <trkpt lat="43.58657" lon="5.08026">
        <ele>61</ele>
        <time>2019-12-16T14:48:21Z</time>
      </trkpt>
      <trkpt lat="43.58658" lon="5.08027">
        <ele>61</ele>
        <time>2019-12-16T14:48:22Z</time>
      </trkpt>
      <trkpt lat="43.58659" lon="5.08028">
        <ele>61</ele>
        <time>2019-12-16T14:48:23Z</time>
      </trkpt>
      <trkpt lat="43.5866" lon="5.08029">
        <ele>61</ele>
        <time>2019-12-16T14:48:24Z</time>
      </trkpt>
      <trkpt lat="43.58661" lon="5.08031">
        <ele>61</ele>
        <time>2019-12-16T14:48:25Z</time>
      </trkpt>
      <trkpt lat="43.58662" lon="5.08032">
        <ele>61</ele>
        <time>2019-12-16T14:48:26Z</time>
      </trkpt>
      <trkpt lat="43.58662" lon="5.08033">
        <ele>61</ele>
        <time>2019-12-16T14:48:27Z</time>
      </trkpt>
      <trkpt lat="43.58663" lon="5.08035">
        <ele>62</ele>
        <time>2019-12-16T14:48:28Z</time>
      </trkpt>
      <trkpt lat="43.58664" lon="5.08036">
        <ele>62</ele>
        <time>2019-12-16T14:48:29Z</time>
      </trkpt>
      <trkpt lat="43.58665" lon="5.08038">
        <ele>62</ele>
        <time>2019-12-16T14:48:30Z</time>
      </trkpt>
      <trkpt lat="43.58665" lon="5.08039">
        <ele>62</ele>
        <time>2019-12-16T14:48:31Z</time>
      </trkpt>
      <trkpt lat="43.58666" lon="5.0804">
        <ele>62</ele>
        <time>2019-12-16T14:48:32Z</time>
      </trkpt>
      <trkpt lat="43.58667" lon="5.08041">
        <ele>60</ele>
        <time>2019-12-16T14:48:33Z</time>
      </trkpt>
      <trkpt lat="43.58668" lon="5.08043">
        <ele>60</ele>
        <time>2019-12-16T14:48:34Z</time>
      </trkpt>
      <trkpt lat="43.58668" lon="5.08044">
        <ele>60</ele>
        <time>2019-12-16T14:48:35Z</time>
      </trkpt>
      <trkpt lat="43.5867" lon="5.08045">
        <ele>60</ele>
        <time>2019-12-16T14:48:36Z</time>
      </trkpt>
      <trkpt lat="43.5867" lon="5.08047">
        <ele>60</ele>
        <time>2019-12-16T14:48:37Z</time>
      </trkpt>
      <trkpt lat="43.58671" lon="5.08048">
        <ele>60</ele>
        <time>2019-12-16T14:48:38Z</time>
      </trkpt>
      <trkpt lat="43.58672" lon="5.0805">
        <ele>61</ele>
        <time>2019-12-16T14:48:39Z</time>
      </trkpt>
      <trkpt lat="43.58673" lon="5.08051">
        <ele>61</ele>
        <time>2019-12-16T14:48:40Z</time>
      </trkpt>
      <trkpt lat="43.58674" lon="5.08052">
        <ele>61</ele>
        <time>2019-12-16T14:48:41Z</time>
      </trkpt>
      <trkpt lat="43.58674" lon="5.08054">
        <ele>61</ele>
        <time>2019-12-16T14:48:42Z</time>
      </trkpt>
      <trkpt lat="43.58675" lon="5.08055">
        <ele>61</ele>
        <time>2019-12-16T14:48:43Z</time>
      </trkpt>
      <trkpt lat="43.58675" lon="5.08057">
        <ele>61</ele>
        <time>2019-12-16T14:48:44Z</time>
      </trkpt>
      <trkpt lat="43.58676" lon="5.08059">
        <ele>61</ele>
        <time>2019-12-16T14:48:45Z</time>
      </trkpt>
      <trkpt lat="43.58676" lon="5.0806">
        <ele>61</ele>
        <time>2019-12-16T14:48:46Z</time>
      </trkpt>
      <trkpt lat="43.58677" lon="5.08062">
        <ele>61</ele>
        <time>2019-12-16T14:48:47Z</time>
      </trkpt>
      <trkpt lat="43.58677" lon="5.08063">
        <ele>61</ele>
        <time>2019-12-16T14:48:48Z</time>
      </trkpt>
      <trkpt lat="43.58678" lon="5.08065">
        <ele>61</ele>
        <time>2019-12-16T14:48:49Z</time>
      </trkpt>
      <trkpt lat="43.58678" lon="5.08066">
        <ele>61</ele>
        <time>2019-12-16T14:48:50Z</time>
      </trkpt>
      <trkpt lat="43.58678" lon="5.08068">
        <ele>61</ele>
        <time>2019-12-16T14:48:51Z</time>
      </trkpt>
      <trkpt lat="43.58679" lon="5.0807">
        <ele>61</ele>
        <time>2019-12-16T14:48:52Z</time>
      </trkpt>
      <trkpt lat="43.58679" lon="5.08071">
        <ele>61</ele>
        <time>2019-12-16T14:48:53Z</time>
      </trkpt>
      <trkpt lat="43.58679" lon="5.08073">
        <ele>61</ele>
        <time>2019-12-16T14:48:54Z</time>
      </trkpt>
      <trkpt lat="43.5868" lon="5.08075">
        <ele>61</ele>
        <time>2019-12-16T14:48:55Z</time>
      </trkpt>
      <trkpt lat="43.5868" lon="5.08076">
        <ele>61</ele>
        <time>2019-12-16T14:48:56Z</time>
      </trkpt>
      <trkpt lat="43.5868" lon="5.08078">
        <ele>61</ele>
        <time>2019-12-16T14:48:57Z</time>
      </trkpt>
      <trkpt lat="43.58681" lon="5.08079">
        <ele>61</ele>
        <time>2019-12-16T14:48:58Z</time>
      </trkpt>
      <trkpt lat="43.58681" lon="5.08081">
        <ele>61</ele>
        <time>2019-12-16T14:48:59Z</time>
      </trkpt>
      <trkpt lat="43.58681" lon="5.08083">
        <ele>61</ele>
        <time>2019-12-16T14:49:00Z</time>
      </trkpt>
      <trkpt lat="43.58681" lon="5.08084">
        <ele>62</ele>
        <time>2019-12-16T14:49:01Z</time>
      </trkpt>
      <trkpt lat="43.58682" lon="5.08086">
        <ele>62</ele>
        <time>2019-12-16T14:49:02Z</time>
      </trkpt>
      <trkpt lat="43.58682" lon="5.08088">
        <ele>62</ele>
        <time>2019-12-16T14:49:03Z</time>
      </trkpt>
      <trkpt lat="43.58682" lon="5.08089">
        <ele>62</ele>
        <time>2019-12-16T14:49:04Z</time>
      </trkpt>
      <trkpt lat="43.58683" lon="5.08091">
        <ele>62</ele>
        <time>2019-12-16T14:49:05Z</time>
      </trkpt>
      <trkpt lat="43.58683" lon="5.08092">
        <ele>62</ele>
        <time>2019-12-16T14:49:06Z</time>
      </trkpt>
      <trkpt lat="43.58683" lon="5.08094">
        <ele>62</ele>
        <time>2019-12-16T14:49:07Z</time>
      </trkpt>
      <trkpt lat="43.58683" lon="5.08096">
        <ele>62</ele>
        <time>2019-12-16T14:49:08Z</time>
      </trkpt>
      <trkpt lat="43.58684" lon="5.08097">
        <ele>62</ele>
        <time>2019-12-16T14:49:09Z</time>
      </trkpt>
      <trkpt lat="43.58684" lon="5.08099">
        <ele>62</ele>
        <time>2019-12-16T14:49:10Z</time>
      </trkpt>
      <trkpt lat="43.58684" lon="5.081">
        <ele>62</ele>
        <time>2019-12-16T14:49:11Z</time>
      </trkpt>
      <trkpt lat="43.58684" lon="5.08102">
        <ele>62</ele>
        <time>2019-12-16T14:49:12Z</time>
      </trkpt>
      <trkpt lat="43.58684" lon="5.08103">
        <ele>62</ele>
        <time>2019-12-16T14:49:13Z</time>
      </trkpt>
      <trkpt lat="43.58684" lon="5.08105">
        <ele>62</ele>
        <time>2019-12-16T14:49:14Z</time>
      </trkpt>
      <trkpt lat="43.58685" lon="5.08106">
        <ele>62</ele>
        <time>2019-12-16T14:49:15Z</time>
      </trkpt>
      <trkpt lat="43.58685" lon="5.08108">
        <ele>62</ele>
        <time>2019-12-16T14:49:16Z</time>
      </trkpt>
      <trkpt lat="43.58685" lon="5.08109">
        <ele>62</ele>
        <time>2019-12-16T14:49:17Z</time>
      </trkpt>
      <trkpt lat="43.58686" lon="5.08111">
        <ele>62</ele>
        <time>2019-12-16T14:49:18Z</time>
      </trkpt>
      <trkpt lat="43.58686" lon="5.08112">
        <ele>62</ele>
        <time>2019-12-16T14:49:19Z</time>
      </trkpt>
      <trkpt lat="43.58687" lon="5.08114">
        <ele>62</ele>
        <time>2019-12-16T14:49:20Z</time>
      </trkpt>
      <trkpt lat="43.58687" lon="5.08115">
        <ele>62</ele>
        <time>2019-12-16T14:49:21Z</time>
      </trkpt>
      <trkpt lat="43.58688" lon="5.08116">
        <ele>62</ele>
        <time>2019-12-16T14:49:22Z</time>
      </trkpt>
      <trkpt lat="43.58688" lon="5.08118">
        <ele>62</ele>
        <time>2019-12-16T14:49:23Z</time>
      </trkpt>
      <trkpt lat="43.58689" lon="5.0812">
        <ele>62</ele>
        <time>2019-12-16T14:49:24Z</time>
      </trkpt>
      <trkpt lat="43.58689" lon="5.08121">
        <ele>62</ele>
        <time>2019-12-16T14:49:25Z</time>
      </trkpt>
      <trkpt lat="43.58689" lon="5.08123">
        <ele>62</ele>
        <time>2019-12-16T14:49:26Z</time>
      </trkpt>
      <trkpt lat="43.58688" lon="5.08124">
        <ele>62</ele>
        <time>2019-12-16T14:49:27Z</time>
      </trkpt>
      <trkpt lat="43.58688" lon="5.08126">
        <ele>62</ele>
        <time>2019-12-16T14:49:28Z</time>
      </trkpt>
      <trkpt lat="43.58687" lon="5.08127">
        <ele>62</ele>
        <time>2019-12-16T14:49:29Z</time>
      </trkpt>
      <trkpt lat="43.58686" lon="5.08128">
        <ele>62</ele>
        <time>2019-12-16T14:49:30Z</time>
      </trkpt>
      <trkpt lat="43.58685" lon="5.0813">
        <ele>62</ele>
        <time>2019-12-16T14:49:31Z</time>
      </trkpt>
      <trkpt lat="43.58684" lon="5.08131">
        <ele>62</ele>
        <time>2019-12-16T14:49:32Z</time>
      </trkpt>
      <trkpt lat="43.58683" lon="5.08132">
        <ele>62</ele>
        <time>2019-12-16T14:49:33Z</time>
      </trkpt>
      <trkpt lat="43.58681" lon="5.08133">
        <ele>62</ele>
        <time>2019-12-16T14:49:34Z</time>
      </trkpt>
      <trkpt lat="43.5868" lon="5.08134">
        <ele>62</ele>
        <time>2019-12-16T14:49:35Z</time>
      </trkpt>
      <trkpt lat="43.5868" lon="5.08135">
        <ele>62</ele>
        <time>2019-12-16T14:49:36Z</time>
      </trkpt>
      <trkpt lat="43.58679" lon="5.08137">
        <ele>62</ele>
        <time>2019-12-16T14:49:37Z</time>
      </trkpt>
      <trkpt lat="43.58678" lon="5.08138">
        <ele>62</ele>
        <time>2019-12-16T14:49:38Z</time>
      </trkpt>
      <trkpt lat="43.58677" lon="5.08139">
        <ele>62</ele>
        <time>2019-12-16T14:49:39Z</time>
      </trkpt>
      <trkpt lat="43.58677" lon="5.0814">
        <ele>62</ele>
        <time>2019-12-16T14:49:40Z</time>
      </trkpt>
      <trkpt lat="43.58676" lon="5.08142">
        <ele>62</ele>
        <time>2019-12-16T14:49:41Z</time>
      </trkpt>
      <trkpt lat="43.58676" lon="5.08143">
        <ele>62</ele>
        <time>2019-12-16T14:49:42Z</time>
      </trkpt>
      <trkpt lat="43.58675" lon="5.08144">
        <ele>62</ele>
        <time>2019-12-16T14:49:43Z</time>
      </trkpt>
      <trkpt lat="43.58675" lon="5.08146">
        <ele>62</ele>
        <time>2019-12-16T14:49:44Z</time>
      </trkpt>
      <trkpt lat="43.58674" lon="5.08147">
        <ele>62</ele>
        <time>2019-12-16T14:49:45Z</time>
      </trkpt>
      <trkpt lat="43.58674" lon="5.08148">
        <ele>62</ele>
        <time>2019-12-16T14:49:46Z</time>
      </trkpt>
      <trkpt lat="43.58674" lon="5.0815">
        <ele>63</ele>
        <time>2019-12-16T14:49:47Z</time>
      </trkpt>
      <trkpt lat="43.58673" lon="5.08151">
        <ele>63</ele>
        <time>2019-12-16T14:49:48Z</time>
      </trkpt>
      <trkpt lat="43.58673" lon="5.08153">
        <ele>63</ele>
        <time>2019-12-16T14:49:49Z</time>
      </trkpt>
      <trkpt lat="43.58672" lon="5.08155">
        <ele>63</ele>
        <time>2019-12-16T14:49:50Z</time>
      </trkpt>
      <trkpt lat="43.58672" lon="5.08156">
        <ele>63</ele>
        <time>2019-12-16T14:49:51Z</time>
      </trkpt>
      <trkpt lat="43.58672" lon="5.08158">
        <ele>63</ele>
        <time>2019-12-16T14:49:52Z</time>
      </trkpt>
      <trkpt lat="43.58671" lon="5.0816">
        <ele>63</ele>
        <time>2019-12-16T14:49:53Z</time>
      </trkpt>
      <trkpt lat="43.58671" lon="5.08161">
        <ele>63</ele>
        <time>2019-12-16T14:49:54Z</time>
      </trkpt>
      <trkpt lat="43.58671" lon="5.08163">
        <ele>63</ele>
        <time>2019-12-16T14:49:55Z</time>
      </trkpt>
      <trkpt lat="43.58671" lon="5.08165">
        <ele>63</ele>
        <time>2019-12-16T14:49:56Z</time>
      </trkpt>
      <trkpt lat="43.58671" lon="5.08166">
        <ele>63</ele>
        <time>2019-12-16T14:49:57Z</time>
      </trkpt>
      <trkpt lat="43.5867" lon="5.08168">
        <ele>63</ele>
        <time>2019-12-16T14:49:58Z</time>
      </trkpt>
      <trkpt lat="43.5867" lon="5.08169">
        <ele>63</ele>
        <time>2019-12-16T14:49:59Z</time>
      </trkpt>
      <trkpt lat="43.5867" lon="5.08171">
        <ele>63</ele>
        <time>2019-12-16T14:50:00Z</time>
      </trkpt>
      <trkpt lat="43.5867" lon="5.08172">
        <ele>63</ele>
        <time>2019-12-16T14:50:01Z</time>
      </trkpt>
      <trkpt lat="43.58671" lon="5.08173">
        <ele>63</ele>
        <time>2019-12-16T14:50:02Z</time>
      </trkpt>
      <trkpt lat="43.58671" lon="5.08174">
        <ele>63</ele>
        <time>2019-12-16T14:50:03Z</time>
      </trkpt>
      <trkpt lat="43.58671" lon="5.08175">
        <ele>63</ele>
        <time>2019-12-16T14:50:04Z</time>
      </trkpt>
      <trkpt lat="43.58672" lon="5.08176">
        <ele>63</ele>
        <time>2019-12-16T14:50:05Z</time>
      </trkpt>
      <trkpt lat="43.58673" lon="5.08177">
        <ele>63</ele>
        <time>2019-12-16T14:50:06Z</time>
      </trkpt>
      <trkpt lat="43.58674" lon="5.08179">
        <ele>63</ele>
        <time>2019-12-16T14:50:07Z</time>
      </trkpt>
      <trkpt lat="43.58675" lon="5.0818">
        <ele>63</ele>
        <time>2019-12-16T14:50:08Z</time>
      </trkpt>
      <trkpt lat="43.58676" lon="5.08181">
        <ele>64</ele>
        <time>2019-12-16T14:50:09Z</time>
      </trkpt>
      <trkpt lat="43.58677" lon="5.08183">
        <ele>64</ele>
        <time>2019-12-16T14:50:10Z</time>
      </trkpt>
      <trkpt lat="43.58677" lon="5.08184">
        <ele>64</ele>
        <time>2019-12-16T14:50:11Z</time>
      </trkpt>
      <trkpt lat="43.58678" lon="5.08186">
        <ele>64</ele>
        <time>2019-12-16T14:50:12Z</time>
      </trkpt>
      <trkpt lat="43.58678" lon="5.08188">
        <ele>64</ele>
        <time>2019-12-16T14:50:13Z</time>
      </trkpt>
      <trkpt lat="43.58678" lon="5.08189">
        <ele>64</ele>
        <time>2019-12-16T14:50:14Z</time>
      </trkpt>
      <trkpt lat="43.58678" lon="5.08191">
        <ele>64</ele>
        <time>2019-12-16T14:50:15Z</time>
      </trkpt>
      <trkpt lat="43.58678" lon="5.08192">
        <ele>64</ele>
        <time>2019-12-16T14:50:16Z</time>
      </trkpt>
      <trkpt lat="43.58678" lon="5.08194">
        <ele>64</ele>
        <time>2019-12-16T14:50:17Z</time>
      </trkpt>
      <trkpt lat="43.58677" lon="5.08195">
        <ele>64</ele>
        <time>2019-12-16T14:50:18Z</time>
      </trkpt>
      <trkpt lat="43.58677" lon="5.08196">
        <ele>64</ele>
        <time>2019-12-16T14:50:19Z</time>
      </trkpt>
      <trkpt lat="43.58677" lon="5.08197">
        <ele>64</ele>
        <time>2019-12-16T14:50:20Z</time>
      </trkpt>
      <trkpt lat="43.58677" lon="5.08199">
        <ele>64</ele>
        <time>2019-12-16T14:50:21Z</time>
      </trkpt>
      <trkpt lat="43.58677" lon="5.082">
        <ele>64</ele>
        <time>2019-12-16T14:50:22Z</time>
      </trkpt>
      <trkpt lat="43.58678" lon="5.08202">
        <ele>64</ele>
        <time>2019-12-16T14:50:23Z</time>
      </trkpt>
      <trkpt lat="43.58678" lon="5.08203">
        <ele>64</ele>
        <time>2019-12-16T14:50:24Z</time>
      </trkpt>
      <trkpt lat="43.58678" lon="5.08205">
        <ele>64</ele>
        <time>2019-12-16T14:50:25Z</time>
      </trkpt>
      <trkpt lat="43.58679" lon="5.08206">
        <ele>64</ele>
        <time>2019-12-16T14:50:26Z</time>
      </trkpt>
      <trkpt lat="43.5868" lon="5.08208">
        <ele>64</ele>
        <time>2019-12-16T14:50:27Z</time>
      </trkpt>
      <trkpt lat="43.5868" lon="5.08209">
        <ele>64</ele>
        <time>2019-12-16T14:50:28Z</time>
      </trkpt>
      <trkpt lat="43.58681" lon="5.08211">
        <ele>64</ele>
        <time>2019-12-16T14:50:29Z</time>
      </trkpt>
      <trkpt lat="43.58681" lon="5.08212">
        <ele>64</ele>
        <time>2019-12-16T14:50:30Z</time>
      </trkpt>
      <trkpt lat="43.58682" lon="5.08214">
        <ele>64</ele>
        <time>2019-12-16T14:50:31Z</time>
      </trkpt>
      <trkpt lat="43.58683" lon="5.08215">
        <ele>64</ele>
        <time>2019-12-16T14:50:32Z</time>
      </trkpt>
      <trkpt lat="43.58683" lon="5.08217">
        <ele>64</ele>
        <time>2019-12-16T14:50:33Z</time>
      </trkpt>
      <trkpt lat="43.58684" lon="5.08218">
        <ele>64</ele>
        <time>2019-12-16T14:50:34Z</time>
      </trkpt>
      <trkpt lat="43.58684" lon="5.0822">
        <ele>64</ele>
        <time>2019-12-16T14:50:35Z</time>
      </trkpt>
      <trkpt lat="43.58685" lon="5.08221">
        <ele>64</ele>
        <time>2019-12-16T14:50:36Z</time>
      </trkpt>
      <trkpt lat="43.58685" lon="5.08223">
        <ele>64</ele>
        <time>2019-12-16T14:50:37Z</time>
      </trkpt>
      <trkpt lat="43.58685" lon="5.08224">
        <ele>64</ele>
        <time>2019-12-16T14:50:38Z</time>
      </trkpt>
      <trkpt lat="43.58686" lon="5.08225">
        <ele>64</ele>
        <time>2019-12-16T14:50:39Z</time>
      </trkpt>
      <trkpt lat="43.58686" lon="5.08227">
        <ele>64</ele>
        <time>2019-12-16T14:50:40Z</time>
      </trkpt>
      <trkpt lat="43.58686" lon="5.08228">
        <ele>64</ele>
        <time>2019-12-16T14:50:41Z</time>
      </trkpt>
      <trkpt lat="43.58686" lon="5.08229">
        <ele>64</ele>
        <time>2019-12-16T14:50:42Z</time>
      </trkpt>
      <trkpt lat="43.58686" lon="5.0823">
        <ele>64</ele>
        <time>2019-12-16T14:50:43Z</time>
      </trkpt>
      <trkpt lat="43.58687" lon="5.08231">
        <ele>64</ele>
        <time>2019-12-16T14:50:44Z</time>
      </trkpt>
      <trkpt lat="43.58687" lon="5.08232">
        <ele>64</ele>
        <time>2019-12-16T14:50:45Z</time>
      </trkpt>
      <trkpt lat="43.58687" lon="5.08233">
        <ele>64</ele>
        <time>2019-12-16T14:50:46Z</time>
      </trkpt>
      <trkpt lat="43.58687" lon="5.08234">
        <ele>64</ele>
        <time>2019-12-16T14:50:47Z</time>
      </trkpt>
      <trkpt lat="43.58688" lon="5.08235">
        <ele>64</ele>
        <time>2019-12-16T14:50:48Z</time>
      </trkpt>
      <trkpt lat="43.58688" lon="5.08236">
        <ele>64</ele>
        <time>2019-12-16T14:50:49Z</time>
      </trkpt>
      <trkpt lat="43.58689" lon="5.08236">
        <ele>64</ele>
        <time>2019-12-16T14:50:50Z</time>
      </trkpt>
      <trkpt lat="43.5869" lon="5.08238">
        <ele>64</ele>
        <time>2019-12-16T14:50:51Z</time>
      </trkpt>
      <trkpt lat="43.5869" lon="5.08239">
        <ele>64</ele>
        <time>2019-12-16T14:50:52Z</time>
      </trkpt>
      <trkpt lat="43.58691" lon="5.08239">
        <ele>64</ele>
        <time>2019-12-16T14:50:53Z</time>
      </trkpt>
      <trkpt lat="43.58692" lon="5.0824">
        <ele>64</ele>
        <time>2019-12-16T14:50:54Z</time>
      </trkpt>
      <trkpt lat="43.58692" lon="5.08241">
        <ele>64</ele>
        <time>2019-12-16T14:50:55Z</time>
      </trkpt>
      <trkpt lat="43.58693" lon="5.08242">
        <ele>64</ele>
        <time>2019-12-16T14:50:56Z</time>
      </trkpt>
      <trkpt lat="43.58694" lon="5.08243">
        <ele>64</ele>
        <time>2019-12-16T14:50:57Z</time>
      </trkpt>
      <trkpt lat="43.58694" lon="5.08243">
        <ele>64</ele>
        <time>2019-12-16T14:50:58Z</time>
      </trkpt>
      <trkpt lat="43.58695" lon="5.08243">
        <ele>64</ele>
        <time>2019-12-16T14:50:59Z</time>
      </trkpt>
      <trkpt lat="43.58696" lon="5.08243">
        <ele>64</ele>
        <time>2019-12-16T14:51:00Z</time>
      </trkpt>
      <trkpt lat="43.58697" lon="5.08243">
        <ele>64</ele>
        <time>2019-12-16T14:51:01Z</time>
      </trkpt>
      <trkpt lat="43.58697" lon="5.08243">
        <ele>64</ele>
        <time>2019-12-16T14:51:02Z</time>
      </trkpt>
      <trkpt lat="43.58698" lon="5.08243">
        <ele>64</ele>
        <time>2019-12-16T14:51:03Z</time>
      </trkpt>
      <trkpt lat="43.58699" lon="5.08242">
        <ele>64</ele>
        <time>2019-12-16T14:51:04Z</time>
      </trkpt>
      <trkpt lat="43.587" lon="5.08242">
        <ele>64</ele>
        <time>2019-12-16T14:51:05Z</time>
      </trkpt>
      <trkpt lat="43.58701" lon="5.08241">
        <ele>64</ele>
        <time>2019-12-16T14:51:06Z</time>
      </trkpt>
      <trkpt lat="43.58702" lon="5.08241">
        <ele>64</ele>
        <time>2019-12-16T14:51:07Z</time>
      </trkpt>
      <trkpt lat="43.58703" lon="5.08241">
        <ele>64</ele>
        <time>2019-12-16T14:51:08Z</time>
      </trkpt>
      <trkpt lat="43.58704" lon="5.0824">
        <ele>64</ele>
        <time>2019-12-16T14:51:09Z</time>
      </trkpt>
      <trkpt lat="43.58705" lon="5.0824">
        <ele>64</ele>
        <time>2019-12-16T14:51:10Z</time>
      </trkpt>
      <trkpt lat="43.58706" lon="5.0824">
        <ele>64</ele>
        <time>2019-12-16T14:51:11Z</time>
      </trkpt>
      <trkpt lat="43.58707" lon="5.0824">
        <ele>64</ele>
        <time>2019-12-16T14:51:12Z</time>
      </trkpt>
      <trkpt lat="43.58708" lon="5.0824">
        <ele>64</ele>
        <time>2019-12-16T14:51:13Z</time>
      </trkpt>
      <trkpt lat="43.58709" lon="5.0824">
        <ele>64</ele>
        <time>2019-12-16T14:51:14Z</time>
      </trkpt>
      <trkpt lat="43.5871" lon="5.08239">
        <ele>64</ele>
        <time>2019-12-16T14:51:15Z</time>
      </trkpt>
      <trkpt lat="43.58711" lon="5.08239">
        <ele>64</ele>
        <time>2019-12-16T14:51:16Z</time>
      </trkpt>
      <trkpt lat="43.58712" lon="5.08238">
        <ele>64</ele>
        <time>2019-12-16T14:51:17Z</time>
      </trkpt>
      <trkpt lat="43.58713" lon="5.08237">
        <ele>64</ele>
        <time>2019-12-16T14:51:18Z</time>
      </trkpt>
      <trkpt lat="43.58714" lon="5.08236">
        <ele>64</ele>
        <time>2019-12-16T14:51:19Z</time>
      </trkpt>
      <trkpt lat="43.58715" lon="5.08235">
        <ele>64</ele>
        <time>2019-12-16T14:51:20Z</time>
      </trkpt>
      <trkpt lat="43.58716" lon="5.08234">
        <ele>64</ele>
        <time>2019-12-16T14:51:21Z</time>
      </trkpt>
      <trkpt lat="43.58717" lon="5.08233">
        <ele>64</ele>
        <time>2019-12-16T14:51:22Z</time>
      </trkpt>
      <trkpt lat="43.58718" lon="5.08232">
        <ele>64</ele>
        <time>2019-12-16T14:51:23Z</time>
      </trkpt>
      <trkpt lat="43.5872" lon="5.08232">
        <ele>64</ele>
        <time>2019-12-16T14:51:24Z</time>
      </trkpt>
      <trkpt lat="43.58721" lon="5.08232">
        <ele>64</ele>
        <time>2019-12-16T14:51:25Z</time>
      </trkpt>
      <trkpt lat="43.58722" lon="5.08233">
        <ele>64</ele>
        <time>2019-12-16T14:51:26Z</time>
      </trkpt>
      <trkpt lat="43.58723" lon="5.08233">
        <ele>64</ele>
        <time>2019-12-16T14:51:27Z</time>
      </trkpt>
      <trkpt lat="43.58724" lon="5.08234">
        <ele>64</ele>
        <time>2019-12-16T14:51:28Z</time>
      </trkpt>
      <trkpt lat="43.58726" lon="5.08235">
        <ele>64</ele>
        <time>2019-12-16T14:51:29Z</time>
      </trkpt>
      <trkpt lat="43.58727" lon="5.08235">
        <ele>64</ele>
        <time>2019-12-16T14:51:30Z</time>
      </trkpt>
      <trkpt lat="43.58728" lon="5.08235">
        <ele>64</ele>
        <time>2019-12-16T14:51:31Z</time>
      </trkpt>
      <trkpt lat="43.58729" lon="5.08235">
        <ele>64</ele>
        <time>2019-12-16T14:51:32Z</time>
      </trkpt>
      <trkpt lat="43.5873" lon="5.08235">
        <ele>64</ele>
        <time>2019-12-16T14:51:33Z</time>
      </trkpt>
      <trkpt lat="43.58732" lon="5.08236">
        <ele>64</ele>
        <time>2019-12-16T14:51:34Z</time>
      </trkpt>
      <trkpt lat="43.58733" lon="5.08236">
        <ele>64</ele>
        <time>2019-12-16T14:51:35Z</time>
      </trkpt>
      <trkpt lat="43.58734" lon="5.08237">
        <ele>64</ele>
        <time>2019-12-16T14:51:36Z</time>
      </trkpt>
      <trkpt lat="43.58736" lon="5.08238">
        <ele>64</ele>
        <time>2019-12-16T14:51:37Z</time>
      </trkpt>
      <trkpt lat="43.58737" lon="5.08239">
        <ele>65</ele>
        <time>2019-12-16T14:51:38Z</time>
      </trkpt>
      <trkpt lat="43.58738" lon="5.0824">
        <ele>65</ele>
        <time>2019-12-16T14:51:39Z</time>
      </trkpt>
      <trkpt lat="43.58739" lon="5.08241">
        <ele>65</ele>
        <time>2019-12-16T14:51:40Z</time>
      </trkpt>
      <trkpt lat="43.58741" lon="5.08242">
        <ele>65</ele>
        <time>2019-12-16T14:51:41Z</time>
      </trkpt>
      <trkpt lat="43.58742" lon="5.08243">
        <ele>65</ele>
        <time>2019-12-16T14:51:42Z</time>
      </trkpt>
      <trkpt lat="43.58743" lon="5.08244">
        <ele>65</ele>
        <time>2019-12-16T14:51:43Z</time>
      </trkpt>
      <trkpt lat="43.58744" lon="5.08246">
        <ele>65</ele>
        <time>2019-12-16T14:51:44Z</time>
      </trkpt>
      <trkpt lat="43.58745" lon="5.08247">
        <ele>65</ele>
        <time>2019-12-16T14:51:45Z</time>
      </trkpt>
      <trkpt lat="43.58745" lon="5.08248">
        <ele>65</ele>
        <time>2019-12-16T14:51:46Z</time>
      </trkpt>
      <trkpt lat="43.58746" lon="5.0825">
        <ele>65</ele>
        <time>2019-12-16T14:51:47Z</time>
      </trkpt>
      <trkpt lat="43.58747" lon="5.08252">
        <ele>65</ele>
        <time>2019-12-16T14:51:48Z</time>
      </trkpt>
      <trkpt lat="43.58747" lon="5.08253">
        <ele>65</ele>
        <time>2019-12-16T14:51:49Z</time>
      </trkpt>
      <trkpt lat="43.58747" lon="5.08255">
        <ele>65</ele>
        <time>2019-12-16T14:51:50Z</time>
      </trkpt>
      <trkpt lat="43.58748" lon="5.08257">
        <ele>65</ele>
        <time>2019-12-16T14:51:51Z</time>
      </trkpt>
      <trkpt lat="43.58748" lon="5.08259">
        <ele>65</ele>
        <time>2019-12-16T14:51:52Z</time>
      </trkpt>
      <trkpt lat="43.58748" lon="5.0826">
        <ele>65</ele>
        <time>2019-12-16T14:51:53Z</time>
      </trkpt>
      <trkpt lat="43.58749" lon="5.08262">
        <ele>66</ele>
        <time>2019-12-16T14:51:54Z</time>
      </trkpt>
      <trkpt lat="43.58749" lon="5.08264">
        <ele>66</ele>
        <time>2019-12-16T14:51:55Z</time>
      </trkpt>
      <trkpt lat="43.58749" lon="5.08265">
        <ele>66</ele>
        <time>2019-12-16T14:51:56Z</time>
      </trkpt>
      <trkpt lat="43.5875" lon="5.08267">
        <ele>66</ele>
        <time>2019-12-16T14:51:57Z</time>
      </trkpt>
      <trkpt lat="43.5875" lon="5.08269">
        <ele>65</ele>
        <time>2019-12-16T14:51:58Z</time>
      </trkpt>
      <trkpt lat="43.58751" lon="5.0827">
        <ele>65</ele>
        <time>2019-12-16T14:51:59Z</time>
      </trkpt>
      <trkpt lat="43.58751" lon="5.08272">
        <ele>65</ele>
        <time>2019-12-16T14:52:00Z</time>
      </trkpt>
      <trkpt lat="43.58752" lon="5.08273">
        <ele>65</ele>
        <time>2019-12-16T14:52:01Z</time>
      </trkpt>
      <trkpt lat="43.58752" lon="5.08275">
        <ele>65</ele>
        <time>2019-12-16T14:52:02Z</time>
      </trkpt>
      <trkpt lat="43.58753" lon="5.08276">
        <ele>65</ele>
        <time>2019-12-16T14:52:03Z</time>
      </trkpt>
      <trkpt lat="43.58753" lon="5.08278">
        <ele>65</ele>
        <time>2019-12-16T14:52:04Z</time>
      </trkpt>
      <trkpt lat="43.58753" lon="5.08279">
        <ele>65</ele>
        <time>2019-12-16T14:52:05Z</time>
      </trkpt>
      <trkpt lat="43.58754" lon="5.08281">
        <ele>66</ele>
        <time>2019-12-16T14:52:06Z</time>
      </trkpt>
      <trkpt lat="43.58754" lon="5.08282">
        <ele>66</ele>
        <time>2019-12-16T14:52:07Z</time>
      </trkpt>
      <trkpt lat="43.58755" lon="5.08284">
        <ele>66</ele>
        <time>2019-12-16T14:52:08Z</time>
      </trkpt>
      <trkpt lat="43.58755" lon="5.08285">
        <ele>66</ele>
        <time>2019-12-16T14:52:09Z</time>
      </trkpt>
      <trkpt lat="43.58755" lon="5.08287">
        <ele>66</ele>
        <time>2019-12-16T14:52:10Z</time>
      </trkpt>
      <trkpt lat="43.58756" lon="5.08288">
        <ele>66</ele>
        <time>2019-12-16T14:52:11Z</time>
      </trkpt>
      <trkpt lat="43.58756" lon="5.0829">
        <ele>66</ele>
        <time>2019-12-16T14:52:12Z</time>
      </trkpt>
      <trkpt lat="43.58756" lon="5.08291">
        <ele>66</ele>
        <time>2019-12-16T14:52:13Z</time>
      </trkpt>
      <trkpt lat="43.58757" lon="5.08293">
        <ele>66</ele>
        <time>2019-12-16T14:52:14Z</time>
      </trkpt>
      <trkpt lat="43.58757" lon="5.08294">
        <ele>66</ele>
        <time>2019-12-16T14:52:15Z</time>
      </trkpt>
      <trkpt lat="43.58757" lon="5.08296">
        <ele>66</ele>
        <time>2019-12-16T14:52:16Z</time>
      </trkpt>
      <trkpt lat="43.58758" lon="5.08297">
        <ele>66</ele>
        <time>2019-12-16T14:52:17Z</time>
      </trkpt>
      <trkpt lat="43.58758" lon="5.08299">
        <ele>66</ele>
        <time>2019-12-16T14:52:18Z</time>
      </trkpt>
      <trkpt lat="43.58759" lon="5.083">
        <ele>66</ele>
        <time>2019-12-16T14:52:19Z</time>
      </trkpt>
      <trkpt lat="43.58759" lon="5.08302">
        <ele>66</ele>
        <time>2019-12-16T14:52:20Z</time>
      </trkpt>
      <trkpt lat="43.58759" lon="5.08303">
        <ele>66</ele>
        <time>2019-12-16T14:52:21Z</time>
      </trkpt>
      <trkpt lat="43.5876" lon="5.08305">
        <ele>66</ele>
        <time>2019-12-16T14:52:22Z</time>
      </trkpt>
      <trkpt lat="43.5876" lon="5.08307">
        <ele>66</ele>
        <time>2019-12-16T14:52:23Z</time>
      </trkpt>
      <trkpt lat="43.58761" lon="5.08308">
        <ele>66</ele>
        <time>2019-12-16T14:52:24Z</time>
      </trkpt>
      <trkpt lat="43.58761" lon="5.0831">
        <ele>66</ele>
        <time>2019-12-16T14:52:25Z</time>
      </trkpt>
      <trkpt lat="43.58762" lon="5.08311">
        <ele>66</ele>
        <time>2019-12-16T14:52:26Z</time>
      </trkpt>
      <trkpt lat="43.58762" lon="5.08313">
        <ele>66</ele>
        <time>2019-12-16T14:52:27Z</time>
      </trkpt>
      <trkpt lat="43.58762" lon="5.08314">
        <ele>66</ele>
        <time>2019-12-16T14:52:28Z</time>
      </trkpt>
      <trkpt lat="43.58763" lon="5.08316">
        <ele>66</ele>
        <time>2019-12-16T14:52:29Z</time>
      </trkpt>
      <trkpt lat="43.58763" lon="5.08318">
        <ele>66</ele>
        <time>2019-12-16T14:52:30Z</time>
      </trkpt>
      <trkpt lat="43.58763" lon="5.0832">
        <ele>66</ele>
        <time>2019-12-16T14:52:31Z</time>
      </trkpt>
      <trkpt lat="43.58763" lon="5.08321">
        <ele>66</ele>
        <time>2019-12-16T14:52:32Z</time>
      </trkpt>
      <trkpt lat="43.58763" lon="5.08323">
        <ele>66</ele>
        <time>2019-12-16T14:52:33Z</time>
      </trkpt>
      <trkpt lat="43.58763" lon="5.08325">
        <ele>66</ele>
        <time>2019-12-16T14:52:34Z</time>
      </trkpt>
      <trkpt lat="43.58763" lon="5.08326">
        <ele>66</ele>
        <time>2019-12-16T14:52:35Z</time>
      </trkpt>
      <trkpt lat="43.58763" lon="5.08328">
        <ele>66</ele>
        <time>2019-12-16T14:52:36Z</time>
      </trkpt>
      <trkpt lat="43.58763" lon="5.0833">
        <ele>66</ele>
        <time>2019-12-16T14:52:37Z</time>
      </trkpt>
      <trkpt lat="43.58763" lon="5.08331">
        <ele>66</ele>
        <time>2019-12-16T14:52:38Z</time>
      </trkpt>
      <trkpt lat="43.58762" lon="5.08333">
        <ele>66</ele>
        <time>2019-12-16T14:52:39Z</time>
      </trkpt>
      <trkpt lat="43.58762" lon="5.08334">
        <ele>67</ele>
        <time>2019-12-16T14:52:40Z</time>
      </trkpt>
      <trkpt lat="43.58762" lon="5.08336">
        <ele>67</ele>
        <time>2019-12-16T14:52:41Z</time>
      </trkpt>
      <trkpt lat="43.58762" lon="5.08337">
        <ele>67</ele>
        <time>2019-12-16T14:52:42Z</time>
      </trkpt>
      <trkpt lat="43.58762" lon="5.08338">
        <ele>67</ele>
        <time>2019-12-16T14:52:43Z</time>
      </trkpt>
      <trkpt lat="43.58762" lon="5.0834">
        <ele>67</ele>
        <time>2019-12-16T14:52:44Z</time>
      </trkpt>
      <trkpt lat="43.58762" lon="5.08341">
        <ele>67</ele>
        <time>2019-12-16T14:52:45Z</time>
      </trkpt>
      <trkpt lat="43.58763" lon="5.08342">
        <ele>67</ele>
        <time>2019-12-16T14:52:46Z</time>
      </trkpt>
      <trkpt lat="43.58765" lon="5.08343">
        <ele>67</ele>
        <time>2019-12-16T14:52:47Z</time>
      </trkpt>
      <trkpt lat="43.58766" lon="5.08344">
        <ele>67</ele>
        <time>2019-12-16T14:52:48Z</time>
      </trkpt>
      <trkpt lat="43.58767" lon="5.08345">
        <ele>67</ele>
        <time>2019-12-16T14:52:49Z</time>
      </trkpt>
      <trkpt lat="43.58769" lon="5.08347">
        <ele>67</ele>
        <time>2019-12-16T14:52:50Z</time>
      </trkpt>
      <trkpt lat="43.58769" lon="5.08348">
        <ele>67</ele>
        <time>2019-12-16T14:52:51Z</time>
      </trkpt>
      <trkpt lat="43.58769" lon="5.0835">
        <ele>67</ele>
        <time>2019-12-16T14:52:52Z</time>
      </trkpt>
      <trkpt lat="43.58769" lon="5.08351">
        <ele>67</ele>
        <time>2019-12-16T14:52:53Z</time>
      </trkpt>
      <trkpt lat="43.58769" lon="5.08353">
        <ele>67</ele>
        <time>2019-12-16T14:52:54Z</time>
      </trkpt>
      <trkpt lat="43.58769" lon="5.08354">
        <ele>67</ele>
        <time>2019-12-16T14:52:55Z</time>
      </trkpt>
      <trkpt lat="43.58769" lon="5.08356">
        <ele>67</ele>
        <time>2019-12-16T14:52:56Z</time>
      </trkpt>
      <trkpt lat="43.58768" lon="5.08357">
        <ele>67</ele>
        <time>2019-12-16T14:52:57Z</time>
      </trkpt>
      <trkpt lat="43.58768" lon="5.08358">
        <ele>67</ele>
        <time>2019-12-16T14:52:58Z</time>
      </trkpt>
      <trkpt lat="43.58768" lon="5.0836">
        <ele>67</ele>
        <time>2019-12-16T14:52:59Z</time>
      </trkpt>
      <trkpt lat="43.58768" lon="5.08361">
        <ele>67</ele>
        <time>2019-12-16T14:53:00Z</time>
      </trkpt>
      <trkpt lat="43.58768" lon="5.08363">
        <ele>67</ele>
        <time>2019-12-16T14:53:01Z</time>
      </trkpt>
      <trkpt lat="43.58769" lon="5.08364">
        <ele>67</ele>
        <time>2019-12-16T14:53:02Z</time>
      </trkpt>
      <trkpt lat="43.58769" lon="5.08366">
        <ele>67</ele>
        <time>2019-12-16T14:53:03Z</time>
      </trkpt>
      <trkpt lat="43.58769" lon="5.08367">
        <ele>67</ele>
        <time>2019-12-16T14:53:04Z</time>
      </trkpt>
      <trkpt lat="43.5877" lon="5.08368">
        <ele>67</ele>
        <time>2019-12-16T14:53:05Z</time>
      </trkpt>
      <trkpt lat="43.58771" lon="5.0837">
        <ele>67</ele>
        <time>2019-12-16T14:53:06Z</time>
      </trkpt>
      <trkpt lat="43.58772" lon="5.08371">
        <ele>67</ele>
        <time>2019-12-16T14:53:07Z</time>
      </trkpt>
      <trkpt lat="43.58772" lon="5.08373">
        <ele>67</ele>
        <time>2019-12-16T14:53:08Z</time>
      </trkpt>
      <trkpt lat="43.58773" lon="5.08374">
        <ele>67</ele>
        <time>2019-12-16T14:53:09Z</time>
      </trkpt>
      <trkpt lat="43.58773" lon="5.08376">
        <ele>67</ele>
        <time>2019-12-16T14:53:10Z</time>
      </trkpt>
      <trkpt lat="43.58774" lon="5.08377">
        <ele>67</ele>
        <time>2019-12-16T14:53:11Z</time>
      </trkpt>
      <trkpt lat="43.58775" lon="5.08379">
        <ele>67</ele>
        <time>2019-12-16T14:53:12Z</time>
      </trkpt>
      <trkpt lat="43.58775" lon="5.08381">
        <ele>67</ele>
        <time>2019-12-16T14:53:13Z</time>
      </trkpt>
      <trkpt lat="43.58775" lon="5.08382">
        <ele>67</ele>
        <time>2019-12-16T14:53:14Z</time>
      </trkpt>
      <trkpt lat="43.58775" lon="5.08384">
        <ele>67</ele>
        <time>2019-12-16T14:53:15Z</time>
      </trkpt>
      <trkpt lat="43.58776" lon="5.08386">
        <ele>67</ele>
        <time>2019-12-16T14:53:16Z</time>
      </trkpt>
      <trkpt lat="43.58776" lon="5.08387">
        <ele>67</ele>
        <time>2019-12-16T14:53:17Z</time>
      </trkpt>
      <trkpt lat="43.58776" lon="5.08389">
        <ele>67</ele>
        <time>2019-12-16T14:53:18Z</time>
      </trkpt>
      <trkpt lat="43.58776" lon="5.0839">
        <ele>67</ele>
        <time>2019-12-16T14:53:19Z</time>
      </trkpt>
      <trkpt lat="43.58776" lon="5.08392">
        <ele>67</ele>
        <time>2019-12-16T14:53:20Z</time>
      </trkpt>
      <trkpt lat="43.58776" lon="5.08394">
        <ele>67</ele>
        <time>2019-12-16T14:53:21Z</time>
      </trkpt>
      <trkpt lat="43.58776" lon="5.08395">
        <ele>67</ele>
        <time>2019-12-16T14:53:22Z</time>
      </trkpt>
      <trkpt lat="43.58776" lon="5.08397">
        <ele>67</ele>
        <time>2019-12-16T14:53:23Z</time>
      </trkpt>
      <trkpt lat="43.58776" lon="5.08398">
        <ele>67</ele>
        <time>2019-12-16T14:53:24Z</time>
      </trkpt>
      <trkpt lat="43.58776" lon="5.084">
        <ele>67</ele>
        <time>2019-12-16T14:53:25Z</time>
      </trkpt>
      <trkpt lat="43.58776" lon="5.08402">
        <ele>67</ele>
        <time>2019-12-16T14:53:26Z</time>
      </trkpt>
      <trkpt lat="43.58777" lon="5.08403">
        <ele>67</ele>
        <time>2019-12-16T14:53:27Z</time>
      </trkpt>
      <trkpt lat="43.58777" lon="5.08405">
        <ele>67</ele>
        <time>2019-12-16T14:53:28Z</time>
      </trkpt>
      <trkpt lat="43.58777" lon="5.08406">
        <ele>67</ele>
        <time>2019-12-16T14:53:29Z</time>
      </trkpt>
      <trkpt lat="43.58777" lon="5.08408">
        <ele>67</ele>
        <time>2019-12-16T14:53:30Z</time>
      </trkpt>
      <trkpt lat="43.58777" lon="5.0841">
        <ele>67</ele>
        <time>2019-12-16T14:53:31Z</time>
      </trkpt>
      <trkpt lat="43.58777" lon="5.08411">
        <ele>67</ele>
        <time>2019-12-16T14:53:32Z</time>
      </trkpt>
      <trkpt lat="43.58777" lon="5.08413">
        <ele>67</ele>
        <time>2019-12-16T14:53:33Z</time>
      </trkpt>
      <trkpt lat="43.58778" lon="5.08415">
        <ele>67</ele>
        <time>2019-12-16T14:53:34Z</time>
      </trkpt>
      <trkpt lat="43.58778" lon="5.08416">
        <ele>67</ele>
        <time>2019-12-16T14:53:35Z</time>
      </trkpt>
      <trkpt lat="43.58778" lon="5.08418">
        <ele>67</ele>
        <time>2019-12-16T14:53:36Z</time>
      </trkpt>
      <trkpt lat="43.58778" lon="5.0842">
        <ele>67</ele>
        <time>2019-12-16T14:53:37Z</time>
      </trkpt>
      <trkpt lat="43.58778" lon="5.08422">
        <ele>67</ele>
        <time>2019-12-16T14:53:38Z</time>
      </trkpt>
      <trkpt lat="43.58777" lon="5.08423">
        <ele>67</ele>
        <time>2019-12-16T14:53:39Z</time>
      </trkpt>
      <trkpt lat="43.58777" lon="5.08425">
        <ele>67</ele>
        <time>2019-12-16T14:53:40Z</time>
      </trkpt>
      <trkpt lat="43.58777" lon="5.08427">
        <ele>67</ele>
        <time>2019-12-16T14:53:41Z</time>
      </trkpt>
      <trkpt lat="43.58776" lon="5.08428">
        <ele>67</ele>
        <time>2019-12-16T14:53:42Z</time>
      </trkpt>
      <trkpt lat="43.58776" lon="5.08429">
        <ele>67</ele>
        <time>2019-12-16T14:53:43Z</time>
      </trkpt>
      <trkpt lat="43.58775" lon="5.08431">
        <ele>67</ele>
        <time>2019-12-16T14:53:44Z</time>
      </trkpt>
      <trkpt lat="43.58774" lon="5.08432">
        <ele>67</ele>
        <time>2019-12-16T14:53:45Z</time>
      </trkpt>
      <trkpt lat="43.58774" lon="5.08433">
        <ele>67</ele>
        <time>2019-12-16T14:53:46Z</time>
      </trkpt>
      <trkpt lat="43.58774" lon="5.08435">
        <ele>67</ele>
        <time>2019-12-16T14:53:47Z</time>
      </trkpt>
      <trkpt lat="43.58774" lon="5.08436">
        <ele>67</ele>
        <time>2019-12-16T14:53:48Z</time>
      </trkpt>
      <trkpt lat="43.58773" lon="5.08438">
        <ele>67</ele>
        <time>2019-12-16T14:53:49Z</time>
      </trkpt>
      <trkpt lat="43.58773" lon="5.08439">
        <ele>67</ele>
        <time>2019-12-16T14:53:50Z</time>
      </trkpt>
      <trkpt lat="43.58773" lon="5.0844">
        <ele>67</ele>
        <time>2019-12-16T14:53:51Z</time>
      </trkpt>
      <trkpt lat="43.58773" lon="5.08442">
        <ele>67</ele>
        <time>2019-12-16T14:53:52Z</time>
      </trkpt>
      <trkpt lat="43.58773" lon="5.08444">
        <ele>67</ele>
        <time>2019-12-16T14:53:53Z</time>
      </trkpt>
      <trkpt lat="43.58773" lon="5.08445">
        <ele>67</ele>
        <time>2019-12-16T14:53:54Z</time>
      </trkpt>
      <trkpt lat="43.58772" lon="5.08447">
        <ele>67</ele>
        <time>2019-12-16T14:53:55Z</time>
      </trkpt>
      <trkpt lat="43.58773" lon="5.08448">
        <ele>67</ele>
        <time>2019-12-16T14:53:56Z</time>
      </trkpt>
      <trkpt lat="43.58773" lon="5.0845">
        <ele>67</ele>
        <time>2019-12-16T14:53:57Z</time>
      </trkpt>
      <trkpt lat="43.58773" lon="5.08451">
        <ele>67</ele>
        <time>2019-12-16T14:53:58Z</time>
      </trkpt>
      <trkpt lat="43.58774" lon="5.08452">
        <ele>67</ele>
        <time>2019-12-16T14:53:59Z</time>
      </trkpt>
      <trkpt lat="43.58775" lon="5.08452">
        <ele>67</ele>
        <time>2019-12-16T14:54:00Z</time>
      </trkpt>
      <trkpt lat="43.58776" lon="5.08453">
        <ele>67</ele>
        <time>2019-12-16T14:54:01Z</time>
      </trkpt>
      <trkpt lat="43.58776" lon="5.08454">
        <ele>67</ele>
        <time>2019-12-16T14:54:02Z</time>
      </trkpt>
      <trkpt lat="43.58777" lon="5.08455">
        <ele>67</ele>
        <time>2019-12-16T14:54:03Z</time>
      </trkpt>
      <trkpt lat="43.58778" lon="5.08455">
        <ele>67</ele>
        <time>2019-12-16T14:54:04Z</time>
      </trkpt>
      <trkpt lat="43.58779" lon="5.08456">
        <ele>67</ele>
        <time>2019-12-16T14:54:05Z</time>
      </trkpt>
      <trkpt lat="43.58779" lon="5.08456">
        <ele>67</ele>
        <time>2019-12-16T14:54:06Z</time>
      </trkpt>
      <trkpt lat="43.58779" lon="5.08456">
        <ele>67</ele>
        <time>2019-12-16T14:54:07Z</time>
      </trkpt>
      <trkpt lat="43.58779" lon="5.08456">
        <ele>67</ele>
        <time>2019-12-16T14:54:08Z</time>
      </trkpt>
      <trkpt lat="43.58779" lon="5.08457">
        <ele>67</ele>
        <time>2019-12-16T14:54:09Z</time>
      </trkpt>
      <trkpt lat="43.58779" lon="5.08456">
        <ele>67</ele>
        <time>2019-12-16T14:54:10Z</time>
      </trkpt>
      <trkpt lat="43.58779" lon="5.08456">
        <ele>67</ele>
        <time>2019-12-16T14:54:11Z</time>
      </trkpt>
      <trkpt lat="43.58779" lon="5.08456">
        <ele>67</ele>
        <time>2019-12-16T14:54:12Z</time>
      </trkpt>
      <trkpt lat="43.58779" lon="5.08456">
        <ele>67</ele>
        <time>2019-12-16T14:54:13Z</time>
      </trkpt>
      <trkpt lat="43.58779" lon="5.08456">
        <ele>67</ele>
        <time>2019-12-16T14:54:14Z</time>
      </trkpt>
      <trkpt lat="43.58779" lon="5.08456">
        <ele>67</ele>
        <time>2019-12-16T14:54:15Z</time>
      </trkpt>
      <trkpt lat="43.58779" lon="5.08457">
        <ele>67</ele>
        <time>2019-12-16T14:54:16Z</time>
      </trkpt>
      <trkpt lat="43.5878" lon="5.08457">
        <ele>67</ele>
        <time>2019-12-16T14:54:17Z</time>
      </trkpt>
      <trkpt lat="43.5878" lon="5.08457">
        <ele>67</ele>
        <time>2019-12-16T14:54:18Z</time>
      </trkpt>
      <trkpt lat="43.5878" lon="5.08458">
        <ele>67</ele>
        <time>2019-12-16T14:54:19Z</time>
      </trkpt>
      <trkpt lat="43.58781" lon="5.08458">
        <ele>67</ele>
        <time>2019-12-16T14:54:20Z</time>
      </trkpt>
      <trkpt lat="43.58781" lon="5.08458">
        <ele>67</ele>
        <time>2019-12-16T14:54:21Z</time>
      </trkpt>
      <trkpt lat="43.58781" lon="5.08459">
        <ele>67</ele>
        <time>2019-12-16T14:54:22Z</time>
      </trkpt>
      <trkpt lat="43.58781" lon="5.08459">
        <ele>67</ele>
        <time>2019-12-16T14:54:23Z</time>
      </trkpt>
      <trkpt lat="43.58781" lon="5.08459">
        <ele>67</ele>
        <time>2019-12-16T14:54:24Z</time>
      </trkpt>
      <trkpt lat="43.58781" lon="5.08459">
        <ele>67</ele>
        <time>2019-12-16T14:54:25Z</time>
      </trkpt>
      <trkpt lat="43.58781" lon="5.08459">
        <ele>67</ele>
        <time>2019-12-16T14:54:26Z</time>
      </trkpt>
      <trkpt lat="43.58781" lon="5.08459">
        <ele>67</ele>
        <time>2019-12-16T14:54:27Z</time>
      </trkpt>
      <trkpt lat="43.58782" lon="5.08459">
        <ele>67</ele>
        <time>2019-12-16T14:54:28Z</time>
      </trkpt>
      <trkpt lat="43.58782" lon="5.0846">
        <ele>67</ele>
        <time>2019-12-16T14:54:29Z</time>
      </trkpt>
      <trkpt lat="43.58783" lon="5.08461">
        <ele>67</ele>
        <time>2019-12-16T14:54:30Z</time>
      </trkpt>
      <trkpt lat="43.58784" lon="5.08462">
        <ele>67</ele>
        <time>2019-12-16T14:54:31Z</time>
      </trkpt>
      <trkpt lat="43.58785" lon="5.08463">
        <ele>67</ele>
        <time>2019-12-16T14:54:32Z</time>
      </trkpt>
      <trkpt lat="43.58785" lon="5.08465">
        <ele>67</ele>
        <time>2019-12-16T14:54:33Z</time>
      </trkpt>
      <trkpt lat="43.58786" lon="5.08466">
        <ele>67</ele>
        <time>2019-12-16T14:54:34Z</time>
      </trkpt>
      <trkpt lat="43.58786" lon="5.08468">
        <ele>67</ele>
        <time>2019-12-16T14:54:35Z</time>
      </trkpt>
      <trkpt lat="43.58787" lon="5.08469">
        <ele>67</ele>
        <time>2019-12-16T14:54:36Z</time>
      </trkpt>
      <trkpt lat="43.58787" lon="5.08471">
        <ele>67</ele>
        <time>2019-12-16T14:54:37Z</time>
      </trkpt>
      <trkpt lat="43.58787" lon="5.08472">
        <ele>67</ele>
        <time>2019-12-16T14:54:38Z</time>
      </trkpt>
      <trkpt lat="43.58787" lon="5.08474">
        <ele>67</ele>
        <time>2019-12-16T14:54:39Z</time>
      </trkpt>
      <trkpt lat="43.58787" lon="5.08476">
        <ele>67</ele>
        <time>2019-12-16T14:54:40Z</time>
      </trkpt>
      <trkpt lat="43.58787" lon="5.08478">
        <ele>67</ele>
        <time>2019-12-16T14:54:41Z</time>
      </trkpt>
      <trkpt lat="43.58787" lon="5.0848">
        <ele>67</ele>
        <time>2019-12-16T14:54:42Z</time>
      </trkpt>
      <trkpt lat="43.58786" lon="5.08481">
        <ele>66</ele>
        <time>2019-12-16T14:54:43Z</time>
      </trkpt>
      <trkpt lat="43.58786" lon="5.08483">
        <ele>66</ele>
        <time>2019-12-16T14:54:44Z</time>
      </trkpt>
      <trkpt lat="43.58786" lon="5.08485">
        <ele>66</ele>
        <time>2019-12-16T14:54:45Z</time>
      </trkpt>
      <trkpt lat="43.58786" lon="5.08486">
        <ele>66</ele>
        <time>2019-12-16T14:54:46Z</time>
      </trkpt>
      <trkpt lat="43.58786" lon="5.08487">
        <ele>66</ele>
        <time>2019-12-16T14:54:47Z</time>
      </trkpt>
      <trkpt lat="43.58787" lon="5.08488">
        <ele>66</ele>
        <time>2019-12-16T14:54:48Z</time>
      </trkpt>
      <trkpt lat="43.58788" lon="5.08489">
        <ele>66</ele>
        <time>2019-12-16T14:54:49Z</time>
      </trkpt>
      <trkpt lat="43.58789" lon="5.0849">
        <ele>66</ele>
        <time>2019-12-16T14:54:50Z</time>
      </trkpt>
      <trkpt lat="43.5879" lon="5.0849">
        <ele>66</ele>
        <time>2019-12-16T14:54:51Z</time>
      </trkpt>
      <trkpt lat="43.58791" lon="5.0849">
        <ele>66</ele>
        <time>2019-12-16T14:54:52Z</time>
      </trkpt>
      <trkpt lat="43.58792" lon="5.0849">
        <ele>67</ele>
        <time>2019-12-16T14:54:53Z</time>
      </trkpt>
      <trkpt lat="43.58793" lon="5.08491">
        <ele>67</ele>
        <time>2019-12-16T14:54:54Z</time>
      </trkpt>
      <trkpt lat="43.58794" lon="5.08491">
        <ele>67</ele>
        <time>2019-12-16T14:54:55Z</time>
      </trkpt>
      <trkpt lat="43.58795" lon="5.08491">
        <ele>67</ele>
        <time>2019-12-16T14:54:56Z</time>
      </trkpt>
      <trkpt lat="43.58796" lon="5.08491">
        <ele>67</ele>
        <time>2019-12-16T14:54:57Z</time>
      </trkpt>
      <trkpt lat="43.58797" lon="5.08491">
        <ele>67</ele>
        <time>2019-12-16T14:54:58Z</time>
      </trkpt>
      <trkpt lat="43.58799" lon="5.08491">
        <ele>67</ele>
        <time>2019-12-16T14:54:59Z</time>
      </trkpt>
      <trkpt lat="43.588" lon="5.08491">
        <ele>67</ele>
        <time>2019-12-16T14:55:00Z</time>
      </trkpt>
      <trkpt lat="43.58801" lon="5.08491">
        <ele>67</ele>
        <time>2019-12-16T14:55:01Z</time>
      </trkpt>
      <trkpt lat="43.58802" lon="5.08491">
        <ele>67</ele>
        <time>2019-12-16T14:55:02Z</time>
      </trkpt>
      <trkpt lat="43.58803" lon="5.08491">
        <ele>67</ele>
        <time>2019-12-16T14:55:03Z</time>
      </trkpt>
      <trkpt lat="43.58804" lon="5.08491">
        <ele>67</ele>
        <time>2019-12-16T14:55:04Z</time>
      </trkpt>
      <trkpt lat="43.58805" lon="5.08491">
        <ele>67</ele>
        <time>2019-12-16T14:55:05Z</time>
      </trkpt>
      <trkpt lat="43.58806" lon="5.08491">
        <ele>67</ele>
        <time>2019-12-16T14:55:06Z</time>
      </trkpt>
      <trkpt lat="43.58808" lon="5.08492">
        <ele>67</ele>
        <time>2019-12-16T14:55:07Z</time>
      </trkpt>
      <trkpt lat="43.58809" lon="5.08492">
        <ele>67</ele>
        <time>2019-12-16T14:55:08Z</time>
      </trkpt>
      <trkpt lat="43.5881" lon="5.08492">
        <ele>67</ele>
        <time>2019-12-16T14:55:09Z</time>
      </trkpt>
      <trkpt lat="43.58811" lon="5.08492">
        <ele>67</ele>
        <time>2019-12-16T14:55:10Z</time>
      </trkpt>
      <trkpt lat="43.58812" lon="5.08492">
        <ele>67</ele>
        <time>2019-12-16T14:55:11Z</time>
      </trkpt>
      <trkpt lat="43.58813" lon="5.08493">
        <ele>67</ele>
        <time>2019-12-16T14:55:12Z</time>
      </trkpt>
      <trkpt lat="43.58815" lon="5.08493">
        <ele>67</ele>
        <time>2019-12-16T14:55:13Z</time>
      </trkpt>
      <trkpt lat="43.58816" lon="5.08493">
        <ele>67</ele>
        <time>2019-12-16T14:55:14Z</time>
      </trkpt>
      <trkpt lat="43.58817" lon="5.08493">
        <ele>67</ele>
        <time>2019-12-16T14:55:15Z</time>
      </trkpt>
      <trkpt lat="43.58818" lon="5.08493">
        <ele>67</ele>
        <time>2019-12-16T14:55:16Z</time>
      </trkpt>
      <trkpt lat="43.5882" lon="5.08494">
        <ele>67</ele>
        <time>2019-12-16T14:55:17Z</time>
      </trkpt>
      <trkpt lat="43.58821" lon="5.08494">
        <ele>67</ele>
        <time>2019-12-16T14:55:18Z</time>
      </trkpt>
      <trkpt lat="43.58822" lon="5.08494">
        <ele>67</ele>
        <time>2019-12-16T14:55:19Z</time>
      </trkpt>
      <trkpt lat="43.58823" lon="5.08493">
        <ele>67</ele>
        <time>2019-12-16T14:55:20Z</time>
      </trkpt>
      <trkpt lat="43.58825" lon="5.08493">
        <ele>67</ele>
        <time>2019-12-16T14:55:21Z</time>
      </trkpt>
      <trkpt lat="43.58826" lon="5.08493">
        <ele>67</ele>
        <time>2019-12-16T14:55:22Z</time>
      </trkpt>
      <trkpt lat="43.58827" lon="5.08493">
        <ele>67</ele>
        <time>2019-12-16T14:55:23Z</time>
      </trkpt>
      <trkpt lat="43.58828" lon="5.08492">
        <ele>67</ele>
        <time>2019-12-16T14:55:24Z</time>
      </trkpt>
      <trkpt lat="43.58829" lon="5.08492">
        <ele>67</ele>
        <time>2019-12-16T14:55:25Z</time>
      </trkpt>
      <trkpt lat="43.58831" lon="5.08491">
        <ele>67</ele>
        <time>2019-12-16T14:55:26Z</time>
      </trkpt>
      <trkpt lat="43.58832" lon="5.08491">
        <ele>67</ele>
        <time>2019-12-16T14:55:27Z</time>
      </trkpt>
      <trkpt lat="43.58833" lon="5.0849">
        <ele>67</ele>
        <time>2019-12-16T14:55:28Z</time>
      </trkpt>
      <trkpt lat="43.58834" lon="5.08489">
        <ele>67</ele>
        <time>2019-12-16T14:55:29Z</time>
      </trkpt>
      <trkpt lat="43.58836" lon="5.08489">
        <ele>67</ele>
        <time>2019-12-16T14:55:30Z</time>
      </trkpt>
      <trkpt lat="43.58837" lon="5.08488">
        <ele>67</ele>
        <time>2019-12-16T14:55:31Z</time>
      </trkpt>
      <trkpt lat="43.58838" lon="5.08488">
        <ele>67</ele>
        <time>2019-12-16T14:55:32Z</time>
      </trkpt>
      <trkpt lat="43.58839" lon="5.08487">
        <ele>67</ele>
        <time>2019-12-16T14:55:33Z</time>
      </trkpt>
      <trkpt lat="43.5884" lon="5.08486">
        <ele>67</ele>
        <time>2019-12-16T14:55:34Z</time>
      </trkpt>
      <trkpt lat="43.58842" lon="5.08486">
        <ele>67</ele>
        <time>2019-12-16T14:55:35Z</time>
      </trkpt>
      <trkpt lat="43.58843" lon="5.08485">
        <ele>67</ele>
        <time>2019-12-16T14:55:36Z</time>
      </trkpt>
      <trkpt lat="43.58844" lon="5.08485">
        <ele>67</ele>
        <time>2019-12-16T14:55:37Z</time>
      </trkpt>
      <trkpt lat="43.58845" lon="5.08484">
        <ele>67</ele>
        <time>2019-12-16T14:55:38Z</time>
      </trkpt>
      <trkpt lat="43.58846" lon="5.08483">
        <ele>67</ele>
        <time>2019-12-16T14:55:39Z</time>
      </trkpt>
      <trkpt lat="43.58847" lon="5.08483">
        <ele>67</ele>
        <time>2019-12-16T14:55:40Z</time>
      </trkpt>
      <trkpt lat="43.58848" lon="5.08482">
        <ele>67</ele>
        <time>2019-12-16T14:55:41Z</time>
      </trkpt>
      <trkpt lat="43.58849" lon="5.08482">
        <ele>67</ele>
        <time>2019-12-16T14:55:42Z</time>
      </trkpt>
      <trkpt lat="43.58851" lon="5.08481">
        <ele>67</ele>
        <time>2019-12-16T14:55:43Z</time>
      </trkpt>
      <trkpt lat="43.58852" lon="5.0848">
        <ele>67</ele>
        <time>2019-12-16T14:55:44Z</time>
      </trkpt>
      <trkpt lat="43.58853" lon="5.0848">
        <ele>67</ele>
        <time>2019-12-16T14:55:45Z</time>
      </trkpt>
      <trkpt lat="43.58854" lon="5.08479">
        <ele>67</ele>
        <time>2019-12-16T14:55:46Z</time>
      </trkpt>
      <trkpt lat="43.58855" lon="5.08478">
        <ele>67</ele>
        <time>2019-12-16T14:55:47Z</time>
      </trkpt>
      <trkpt lat="43.58856" lon="5.08478">
        <ele>67</ele>
        <time>2019-12-16T14:55:48Z</time>
      </trkpt>
      <trkpt lat="43.58858" lon="5.08477">
        <ele>67</ele>
        <time>2019-12-16T14:55:49Z</time>
      </trkpt>
      <trkpt lat="43.58859" lon="5.08476">
        <ele>67</ele>
        <time>2019-12-16T14:55:50Z</time>
      </trkpt>
      <trkpt lat="43.5886" lon="5.08476">
        <ele>67</ele>
        <time>2019-12-16T14:55:51Z</time>
      </trkpt>
      <trkpt lat="43.58861" lon="5.08475">
        <ele>67</ele>
        <time>2019-12-16T14:55:52Z</time>
      </trkpt>
      <trkpt lat="43.58862" lon="5.08474">
        <ele>67</ele>
        <time>2019-12-16T14:55:53Z</time>
      </trkpt>
      <trkpt lat="43.58864" lon="5.08474">
        <ele>67</ele>
        <time>2019-12-16T14:55:54Z</time>
      </trkpt>
      <trkpt lat="43.58865" lon="5.08473">
        <ele>67</ele>
        <time>2019-12-16T14:55:55Z</time>
      </trkpt>
      <trkpt lat="43.58866" lon="5.08472">
        <ele>67</ele>
        <time>2019-12-16T14:55:56Z</time>
      </trkpt>
      <trkpt lat="43.58867" lon="5.08472">
        <ele>67</ele>
        <time>2019-12-16T14:55:57Z</time>
      </trkpt>
      <trkpt lat="43.58868" lon="5.08471">
        <ele>67</ele>
        <time>2019-12-16T14:55:58Z</time>
      </trkpt>
      <trkpt lat="43.5887" lon="5.08471">
        <ele>67</ele>
        <time>2019-12-16T14:55:59Z</time>
      </trkpt>
      <trkpt lat="43.58871" lon="5.0847">
        <ele>67</ele>
        <time>2019-12-16T14:56:00Z</time>
      </trkpt>
      <trkpt lat="43.58872" lon="5.08469">
        <ele>67</ele>
        <time>2019-12-16T14:56:01Z</time>
      </trkpt>
      <trkpt lat="43.58873" lon="5.08469">
        <ele>67</ele>
        <time>2019-12-16T14:56:02Z</time>
      </trkpt>
      <trkpt lat="43.58874" lon="5.08468">
        <ele>67</ele>
        <time>2019-12-16T14:56:03Z</time>
      </trkpt>
      <trkpt lat="43.58875" lon="5.08468">
        <ele>67</ele>
        <time>2019-12-16T14:56:04Z</time>
      </trkpt>
      <trkpt lat="43.58876" lon="5.08468">
        <ele>67</ele>
        <time>2019-12-16T14:56:05Z</time>
      </trkpt>
      <trkpt lat="43.58878" lon="5.08467">
        <ele>67</ele>
        <time>2019-12-16T14:56:06Z</time>
      </trkpt>
      <trkpt lat="43.58879" lon="5.08467">
        <ele>67</ele>
        <time>2019-12-16T14:56:07Z</time>
      </trkpt>
      <trkpt lat="43.5888" lon="5.08466">
        <ele>67</ele>
        <time>2019-12-16T14:56:08Z</time>
      </trkpt>
      <trkpt lat="43.58881" lon="5.08466">
        <ele>67</ele>
        <time>2019-12-16T14:56:09Z</time>
      </trkpt>
      <trkpt lat="43.58882" lon="5.08465">
        <ele>67</ele>
        <time>2019-12-16T14:56:10Z</time>
      </trkpt>
      <trkpt lat="43.58883" lon="5.08465">
        <ele>67</ele>
        <time>2019-12-16T14:56:11Z</time>
      </trkpt>
      <trkpt lat="43.58884" lon="5.08465">
        <ele>67</ele>
        <time>2019-12-16T14:56:12Z</time>
      </trkpt>
      <trkpt lat="43.58886" lon="5.08464">
        <ele>67</ele>
        <time>2019-12-16T14:56:13Z</time>
      </trkpt>
      <trkpt lat="43.58887" lon="5.08464">
        <ele>67</ele>
        <time>2019-12-16T14:56:14Z</time>
      </trkpt>
      <trkpt lat="43.58888" lon="5.08464">
        <ele>67</ele>
        <time>2019-12-16T14:56:15Z</time>
      </trkpt>
      <trkpt lat="43.58889" lon="5.08463">
        <ele>67</ele>
        <time>2019-12-16T14:56:16Z</time>
      </trkpt>
      <trkpt lat="43.5889" lon="5.08463">
        <ele>67</ele>
        <time>2019-12-16T14:56:17Z</time>
      </trkpt>
      <trkpt lat="43.58891" lon="5.08462">
        <ele>67</ele>
        <time>2019-12-16T14:56:18Z</time>
      </trkpt>
      <trkpt lat="43.58893" lon="5.08462">
        <ele>67</ele>
        <time>2019-12-16T14:56:19Z</time>
      </trkpt>
      <trkpt lat="43.58894" lon="5.08462">
        <ele>67</ele>
        <time>2019-12-16T14:56:20Z</time>
      </trkpt>
      <trkpt lat="43.58895" lon="5.08461">
        <ele>67</ele>
        <time>2019-12-16T14:56:21Z</time>
      </trkpt>
      <trkpt lat="43.58896" lon="5.08461">
        <ele>67</ele>
        <time>2019-12-16T14:56:22Z</time>
      </trkpt>
      <trkpt lat="43.58897" lon="5.08461">
        <ele>67</ele>
        <time>2019-12-16T14:56:23Z</time>
      </trkpt>
      <trkpt lat="43.58898" lon="5.0846">
        <ele>67</ele>
        <time>2019-12-16T14:56:24Z</time>
      </trkpt>
      <trkpt lat="43.589" lon="5.0846">
        <ele>67</ele>
        <time>2019-12-16T14:56:25Z</time>
      </trkpt>
      <trkpt lat="43.58901" lon="5.08459">
        <ele>67</ele>
        <time>2019-12-16T14:56:26Z</time>
      </trkpt>
      <trkpt lat="43.58902" lon="5.08459">
        <ele>67</ele>
        <time>2019-12-16T14:56:27Z</time>
      </trkpt>
      <trkpt lat="43.58903" lon="5.08459">
        <ele>67</ele>
        <time>2019-12-16T14:56:28Z</time>
      </trkpt>
      <trkpt lat="43.58904" lon="5.08458">
        <ele>67</ele>
        <time>2019-12-16T14:56:29Z</time>
      </trkpt>
      <trkpt lat="43.58906" lon="5.08458">
        <ele>67</ele>
        <time>2019-12-16T14:56:30Z</time>
      </trkpt>
      <trkpt lat="43.58907" lon="5.08458">
        <ele>67</ele>
        <time>2019-12-16T14:56:31Z</time>
      </trkpt>
      <trkpt lat="43.58908" lon="5.08458">
        <ele>67</ele>
        <time>2019-12-16T14:56:32Z</time>
      </trkpt>
      <trkpt lat="43.5891" lon="5.08457">
        <ele>67</ele>
        <time>2019-12-16T14:56:33Z</time>
      </trkpt>
      <trkpt lat="43.58911" lon="5.08457">
        <ele>67</ele>
        <time>2019-12-16T14:56:34Z</time>
      </trkpt>
      <trkpt lat="43.58912" lon="5.08457">
        <ele>67</ele>
        <time>2019-12-16T14:56:35Z</time>
      </trkpt>
      <trkpt lat="43.58913" lon="5.08457">
        <ele>67</ele>
        <time>2019-12-16T14:56:36Z</time>
      </trkpt>
      <trkpt lat="43.58915" lon="5.08457">
        <ele>67</ele>
        <time>2019-12-16T14:56:37Z</time>
      </trkpt>
      <trkpt lat="43.58916" lon="5.08457">
        <ele>67</ele>
        <time>2019-12-16T14:56:38Z</time>
      </trkpt>
      <trkpt lat="43.58917" lon="5.08457">
        <ele>67</ele>
        <time>2019-12-16T14:56:39Z</time>
      </trkpt>
      <trkpt lat="43.58918" lon="5.08457">
        <ele>67</ele>
        <time>2019-12-16T14:56:40Z</time>
      </trkpt>
      <trkpt lat="43.5892" lon="5.08457">
        <ele>67</ele>
        <time>2019-12-16T14:56:41Z</time>
      </trkpt>
      <trkpt lat="43.58921" lon="5.08457">
        <ele>67</ele>
        <time>2019-12-16T14:56:42Z</time>
      </trkpt>
      <trkpt lat="43.58922" lon="5.08457">
        <ele>67</ele>
        <time>2019-12-16T14:56:43Z</time>
      </trkpt>
      <trkpt lat="43.58923" lon="5.08457">
        <ele>67</ele>
        <time>2019-12-16T14:56:44Z</time>
      </trkpt>
      <trkpt lat="43.58924" lon="5.08456">
        <ele>67</ele>
        <time>2019-12-16T14:56:45Z</time>
      </trkpt>
      <trkpt lat="43.58925" lon="5.08456">
        <ele>67</ele>
        <time>2019-12-16T14:56:46Z</time>
      </trkpt>
      <trkpt lat="43.58926" lon="5.08455">
        <ele>67</ele>
        <time>2019-12-16T14:56:47Z</time>
      </trkpt>
      <trkpt lat="43.58927" lon="5.08455">
        <ele>67</ele>
        <time>2019-12-16T14:56:48Z</time>
      </trkpt>
      <trkpt lat="43.58928" lon="5.08455">
        <ele>67</ele>
        <time>2019-12-16T14:56:49Z</time>
      </trkpt>
      <trkpt lat="43.58929" lon="5.08454">
        <ele>67</ele>
        <time>2019-12-16T14:56:50Z</time>
      </trkpt>
      <trkpt lat="43.5893" lon="5.08453">
        <ele>67</ele>
        <time>2019-12-16T14:56:51Z</time>
      </trkpt>
      <trkpt lat="43.58931" lon="5.08453">
        <ele>67</ele>
        <time>2019-12-16T14:56:52Z</time>
      </trkpt>
      <trkpt lat="43.58932" lon="5.08452">
        <ele>67</ele>
        <time>2019-12-16T14:56:53Z</time>
      </trkpt>
      <trkpt lat="43.58933" lon="5.08452">
        <ele>67</ele>
        <time>2019-12-16T14:56:54Z</time>
      </trkpt>
      <trkpt lat="43.58935" lon="5.08451">
        <ele>67</ele>
        <time>2019-12-16T14:56:55Z</time>
      </trkpt>
      <trkpt lat="43.58936" lon="5.0845">
        <ele>67</ele>
        <time>2019-12-16T14:56:56Z</time>
      </trkpt>
      <trkpt lat="43.58937" lon="5.08449">
        <ele>67</ele>
        <time>2019-12-16T14:56:57Z</time>
      </trkpt>
      <trkpt lat="43.58938" lon="5.08449">
        <ele>67</ele>
        <time>2019-12-16T14:56:58Z</time>
      </trkpt>
      <trkpt lat="43.58939" lon="5.08448">
        <ele>67</ele>
        <time>2019-12-16T14:56:59Z</time>
      </trkpt>
      <trkpt lat="43.5894" lon="5.08447">
        <ele>67</ele>
        <time>2019-12-16T14:57:00Z</time>
      </trkpt>
      <trkpt lat="43.58941" lon="5.08447">
        <ele>67</ele>
        <time>2019-12-16T14:57:01Z</time>
      </trkpt>
      <trkpt lat="43.58943" lon="5.08446">
        <ele>67</ele>
        <time>2019-12-16T14:57:02Z</time>
      </trkpt>
      <trkpt lat="43.58944" lon="5.08445">
        <ele>67</ele>
        <time>2019-12-16T14:57:03Z</time>
      </trkpt>
      <trkpt lat="43.58945" lon="5.08445">
        <ele>67</ele>
        <time>2019-12-16T14:57:04Z</time>
      </trkpt>
      <trkpt lat="43.58946" lon="5.08444">
        <ele>67</ele>
        <time>2019-12-16T14:57:05Z</time>
      </trkpt>
      <trkpt lat="43.58947" lon="5.08443">
        <ele>67</ele>
        <time>2019-12-16T14:57:06Z</time>
      </trkpt>
      <trkpt lat="43.58948" lon="5.08442">
        <ele>67</ele>
        <time>2019-12-16T14:57:07Z</time>
      </trkpt>
      <trkpt lat="43.5895" lon="5.08442">
        <ele>67</ele>
        <time>2019-12-16T14:57:08Z</time>
      </trkpt>
      <trkpt lat="43.58951" lon="5.08441">
        <ele>67</ele>
        <time>2019-12-16T14:57:09Z</time>
      </trkpt>
      <trkpt lat="43.58952" lon="5.0844">
        <ele>67</ele>
        <time>2019-12-16T14:57:10Z</time>
      </trkpt>
      <trkpt lat="43.58953" lon="5.0844">
        <ele>67</ele>
        <time>2019-12-16T14:57:11Z</time>
      </trkpt>
      <trkpt lat="43.58954" lon="5.08439">
        <ele>67</ele>
        <time>2019-12-16T14:57:12Z</time>
      </trkpt>
      <trkpt lat="43.58955" lon="5.08438">
        <ele>67</ele>
        <time>2019-12-16T14:57:13Z</time>
      </trkpt>
      <trkpt lat="43.58956" lon="5.08438">
        <ele>67</ele>
        <time>2019-12-16T14:57:14Z</time>
      </trkpt>
      <trkpt lat="43.58958" lon="5.08437">
        <ele>67</ele>
        <time>2019-12-16T14:57:15Z</time>
      </trkpt>
      <trkpt lat="43.58959" lon="5.08436">
        <ele>67</ele>
        <time>2019-12-16T14:57:16Z</time>
      </trkpt>
      <trkpt lat="43.5896" lon="5.08436">
        <ele>66</ele>
        <time>2019-12-16T14:57:17Z</time>
      </trkpt>
      <trkpt lat="43.58961" lon="5.08435">
        <ele>66</ele>
        <time>2019-12-16T14:57:18Z</time>
      </trkpt>
      <trkpt lat="43.58962" lon="5.08434">
        <ele>66</ele>
        <time>2019-12-16T14:57:19Z</time>
      </trkpt>
      <trkpt lat="43.58963" lon="5.08434">
        <ele>66</ele>
        <time>2019-12-16T14:57:20Z</time>
      </trkpt>
      <trkpt lat="43.58964" lon="5.08433">
        <ele>66</ele>
        <time>2019-12-16T14:57:21Z</time>
      </trkpt>
      <trkpt lat="43.58966" lon="5.08433">
        <ele>66</ele>
        <time>2019-12-16T14:57:22Z</time>
      </trkpt>
      <trkpt lat="43.58967" lon="5.08432">
        <ele>66</ele>
        <time>2019-12-16T14:57:23Z</time>
      </trkpt>
      <trkpt lat="43.58968" lon="5.08431">
        <ele>66</ele>
        <time>2019-12-16T14:57:24Z</time>
      </trkpt>
      <trkpt lat="43.58969" lon="5.08431">
        <ele>66</ele>
        <time>2019-12-16T14:57:25Z</time>
      </trkpt>
      <trkpt lat="43.5897" lon="5.0843">
        <ele>66</ele>
        <time>2019-12-16T14:57:26Z</time>
      </trkpt>
      <trkpt lat="43.58971" lon="5.08429">
        <ele>66</ele>
        <time>2019-12-16T14:57:27Z</time>
      </trkpt>
      <trkpt lat="43.58972" lon="5.08429">
        <ele>66</ele>
        <time>2019-12-16T14:57:28Z</time>
      </trkpt>
      <trkpt lat="43.58973" lon="5.08428">
        <ele>66</ele>
        <time>2019-12-16T14:57:29Z</time>
      </trkpt>
      <trkpt lat="43.58974" lon="5.08428">
        <ele>66</ele>
        <time>2019-12-16T14:57:30Z</time>
      </trkpt>
      <trkpt lat="43.58976" lon="5.08427">
        <ele>66</ele>
        <time>2019-12-16T14:57:31Z</time>
      </trkpt>
      <trkpt lat="43.58977" lon="5.08427">
        <ele>66</ele>
        <time>2019-12-16T14:57:32Z</time>
      </trkpt>
      <trkpt lat="43.58978" lon="5.08426">
        <ele>66</ele>
        <time>2019-12-16T14:57:33Z</time>
      </trkpt>
      <trkpt lat="43.58979" lon="5.08426">
        <ele>66</ele>
        <time>2019-12-16T14:57:34Z</time>
      </trkpt>
      <trkpt lat="43.5898" lon="5.08425">
        <ele>66</ele>
        <time>2019-12-16T14:57:35Z</time>
      </trkpt>
      <trkpt lat="43.58981" lon="5.08425">
        <ele>66</ele>
        <time>2019-12-16T14:57:36Z</time>
      </trkpt>
      <trkpt lat="43.58983" lon="5.08424">
        <ele>66</ele>
        <time>2019-12-16T14:57:37Z</time>
      </trkpt>
      <trkpt lat="43.58984" lon="5.08423">
        <ele>66</ele>
        <time>2019-12-16T14:57:38Z</time>
      </trkpt>
      <trkpt lat="43.58985" lon="5.08423">
        <ele>65</ele>
        <time>2019-12-16T14:57:39Z</time>
      </trkpt>
      <trkpt lat="43.58986" lon="5.08422">
        <ele>65</ele>
        <time>2019-12-16T14:57:40Z</time>
      </trkpt>
      <trkpt lat="43.58987" lon="5.08422">
        <ele>65</ele>
        <time>2019-12-16T14:57:41Z</time>
      </trkpt>
      <trkpt lat="43.58988" lon="5.08421">
        <ele>65</ele>
        <time>2019-12-16T14:57:42Z</time>
      </trkpt>
      <trkpt lat="43.5899" lon="5.0842">
        <ele>65</ele>
        <time>2019-12-16T14:57:43Z</time>
      </trkpt>
      <trkpt lat="43.58991" lon="5.08419">
        <ele>65</ele>
        <time>2019-12-16T14:57:44Z</time>
      </trkpt>
      <trkpt lat="43.58992" lon="5.08419">
        <ele>65</ele>
        <time>2019-12-16T14:57:45Z</time>
      </trkpt>
      <trkpt lat="43.58993" lon="5.08418">
        <ele>65</ele>
        <time>2019-12-16T14:57:46Z</time>
      </trkpt>
      <trkpt lat="43.58994" lon="5.08417">
        <ele>65</ele>
        <time>2019-12-16T14:57:47Z</time>
      </trkpt>
      <trkpt lat="43.58995" lon="5.08417">
        <ele>65</ele>
        <time>2019-12-16T14:57:48Z</time>
      </trkpt>
      <trkpt lat="43.58997" lon="5.08416">
        <ele>64</ele>
        <time>2019-12-16T14:57:49Z</time>
      </trkpt>
      <trkpt lat="43.58998" lon="5.08415">
        <ele>64</ele>
        <time>2019-12-16T14:57:50Z</time>
      </trkpt>
      <trkpt lat="43.58999" lon="5.08414">
        <ele>64</ele>
        <time>2019-12-16T14:57:51Z</time>
      </trkpt>
      <trkpt lat="43.59" lon="5.08414">
        <ele>64</ele>
        <time>2019-12-16T14:57:52Z</time>
      </trkpt>
      <trkpt lat="43.59001" lon="5.08413">
        <ele>64</ele>
        <time>2019-12-16T14:57:53Z</time>
      </trkpt>
      <trkpt lat="43.59002" lon="5.08412">
        <ele>64</ele>
        <time>2019-12-16T14:57:54Z</time>
      </trkpt>
      <trkpt lat="43.59004" lon="5.08411">
        <ele>64</ele>
        <time>2019-12-16T14:57:55Z</time>
      </trkpt>
      <trkpt lat="43.59005" lon="5.0841">
        <ele>64</ele>
        <time>2019-12-16T14:57:56Z</time>
      </trkpt>
      <trkpt lat="43.59006" lon="5.0841">
        <ele>64</ele>
        <time>2019-12-16T14:57:57Z</time>
      </trkpt>
      <trkpt lat="43.59007" lon="5.08409">
        <ele>64</ele>
        <time>2019-12-16T14:57:58Z</time>
      </trkpt>
      <trkpt lat="43.59008" lon="5.08408">
        <ele>64</ele>
        <time>2019-12-16T14:57:59Z</time>
      </trkpt>
      <trkpt lat="43.59009" lon="5.08407">
        <ele>64</ele>
        <time>2019-12-16T14:58:00Z</time>
      </trkpt>
      <trkpt lat="43.5901" lon="5.08406">
        <ele>64</ele>
        <time>2019-12-16T14:58:01Z</time>
      </trkpt>
      <trkpt lat="43.59011" lon="5.08406">
        <ele>64</ele>
        <time>2019-12-16T14:58:02Z</time>
      </trkpt>
      <trkpt lat="43.59012" lon="5.08405">
        <ele>64</ele>
        <time>2019-12-16T14:58:03Z</time>
      </trkpt>
      <trkpt lat="43.59014" lon="5.08404">
        <ele>64</ele>
        <time>2019-12-16T14:58:04Z</time>
      </trkpt>
      <trkpt lat="43.59015" lon="5.08403">
        <ele>64</ele>
        <time>2019-12-16T14:58:05Z</time>
      </trkpt>
      <trkpt lat="43.59016" lon="5.08402">
        <ele>64</ele>
        <time>2019-12-16T14:58:06Z</time>
      </trkpt>
      <trkpt lat="43.59017" lon="5.08401">
        <ele>64</ele>
        <time>2019-12-16T14:58:07Z</time>
      </trkpt>
      <trkpt lat="43.59018" lon="5.08401">
        <ele>64</ele>
        <time>2019-12-16T14:58:08Z</time>
      </trkpt>
      <trkpt lat="43.59019" lon="5.084">
        <ele>64</ele>
        <time>2019-12-16T14:58:09Z</time>
      </trkpt>
      <trkpt lat="43.5902" lon="5.08399">
        <ele>64</ele>
        <time>2019-12-16T14:58:10Z</time>
      </trkpt>
      <trkpt lat="43.59021" lon="5.08398">
        <ele>64</ele>
        <time>2019-12-16T14:58:11Z</time>
      </trkpt>
      <trkpt lat="43.59022" lon="5.08397">
        <ele>64</ele>
        <time>2019-12-16T14:58:12Z</time>
      </trkpt>
      <trkpt lat="43.59023" lon="5.08396">
        <ele>64</ele>
        <time>2019-12-16T14:58:13Z</time>
      </trkpt>
      <trkpt lat="43.59024" lon="5.08396">
        <ele>64</ele>
        <time>2019-12-16T14:58:14Z</time>
      </trkpt>
      <trkpt lat="43.59025" lon="5.08395">
        <ele>64</ele>
        <time>2019-12-16T14:58:15Z</time>
      </trkpt>
      <trkpt lat="43.59026" lon="5.08394">
        <ele>64</ele>
        <time>2019-12-16T14:58:16Z</time>
      </trkpt>
      <trkpt lat="43.59027" lon="5.08393">
        <ele>64</ele>
        <time>2019-12-16T14:58:17Z</time>
      </trkpt>
      <trkpt lat="43.59028" lon="5.08392">
        <ele>64</ele>
        <time>2019-12-16T14:58:18Z</time>
      </trkpt>
      <trkpt lat="43.59029" lon="5.08391">
        <ele>64</ele>
        <time>2019-12-16T14:58:19Z</time>
      </trkpt>
      <trkpt lat="43.5903" lon="5.0839">
        <ele>64</ele>
        <time>2019-12-16T14:58:20Z</time>
      </trkpt>
      <trkpt lat="43.59031" lon="5.0839">
        <ele>64</ele>
        <time>2019-12-16T14:58:21Z</time>
      </trkpt>
      <trkpt lat="43.59032" lon="5.08389">
        <ele>64</ele>
        <time>2019-12-16T14:58:22Z</time>
      </trkpt>
      <trkpt lat="43.59033" lon="5.08388">
        <ele>64</ele>
        <time>2019-12-16T14:58:23Z</time>
      </trkpt>
      <trkpt lat="43.59034" lon="5.08387">
        <ele>64</ele>
        <time>2019-12-16T14:58:24Z</time>
      </trkpt>
      <trkpt lat="43.59035" lon="5.08386">
        <ele>64</ele>
        <time>2019-12-16T14:58:25Z</time>
      </trkpt>
      <trkpt lat="43.59036" lon="5.08385">
        <ele>64</ele>
        <time>2019-12-16T14:58:26Z</time>
      </trkpt>
      <trkpt lat="43.59037" lon="5.08384">
        <ele>64</ele>
        <time>2019-12-16T14:58:27Z</time>
      </trkpt>
      <trkpt lat="43.59038" lon="5.08383">
        <ele>64</ele>
        <time>2019-12-16T14:58:28Z</time>
      </trkpt>
      <trkpt lat="43.59039" lon="5.08382">
        <ele>64</ele>
        <time>2019-12-16T14:58:29Z</time>
      </trkpt>
      <trkpt lat="43.59039" lon="5.08381">
        <ele>64</ele>
        <time>2019-12-16T14:58:30Z</time>
      </trkpt>
      <trkpt lat="43.5904" lon="5.08381">
        <ele>64</ele>
        <time>2019-12-16T14:58:31Z</time>
      </trkpt>
      <trkpt lat="43.59041" lon="5.0838">
        <ele>64</ele>
        <time>2019-12-16T14:58:32Z</time>
      </trkpt>
      <trkpt lat="43.59042" lon="5.08379">
        <ele>64</ele>
        <time>2019-12-16T14:58:33Z</time>
      </trkpt>
      <trkpt lat="43.59043" lon="5.08378">
        <ele>64</ele>
        <time>2019-12-16T14:58:34Z</time>
      </trkpt>
      <trkpt lat="43.59044" lon="5.08377">
        <ele>64</ele>
        <time>2019-12-16T14:58:35Z</time>
      </trkpt>
      <trkpt lat="43.59045" lon="5.08376">
        <ele>64</ele>
        <time>2019-12-16T14:58:36Z</time>
      </trkpt>
      <trkpt lat="43.59046" lon="5.08376">
        <ele>64</ele>
        <time>2019-12-16T14:58:37Z</time>
      </trkpt>
      <trkpt lat="43.59047" lon="5.08375">
        <ele>64</ele>
        <time>2019-12-16T14:58:38Z</time>
      </trkpt>
      <trkpt lat="43.59048" lon="5.08374">
        <ele>64</ele>
        <time>2019-12-16T14:58:39Z</time>
      </trkpt>
      <trkpt lat="43.59049" lon="5.08373">
        <ele>64</ele>
        <time>2019-12-16T14:58:40Z</time>
      </trkpt>
      <trkpt lat="43.5905" lon="5.08373">
        <ele>63</ele>
        <time>2019-12-16T14:58:41Z</time>
      </trkpt>
      <trkpt lat="43.59051" lon="5.08372">
        <ele>63</ele>
        <time>2019-12-16T14:58:42Z</time>
      </trkpt>
      <trkpt lat="43.59052" lon="5.08371">
        <ele>63</ele>
        <time>2019-12-16T14:58:43Z</time>
      </trkpt>
      <trkpt lat="43.59053" lon="5.0837">
        <ele>63</ele>
        <time>2019-12-16T14:58:44Z</time>
      </trkpt>
      <trkpt lat="43.59054" lon="5.0837">
        <ele>63</ele>
        <time>2019-12-16T14:58:45Z</time>
      </trkpt>
      <trkpt lat="43.59055" lon="5.08369">
        <ele>63</ele>
        <time>2019-12-16T14:58:46Z</time>
      </trkpt>
      <trkpt lat="43.59056" lon="5.08368">
        <ele>63</ele>
        <time>2019-12-16T14:58:47Z</time>
      </trkpt>
      <trkpt lat="43.59057" lon="5.08367">
        <ele>63</ele>
        <time>2019-12-16T14:58:48Z</time>
      </trkpt>
      <trkpt lat="43.59058" lon="5.08367">
        <ele>63</ele>
        <time>2019-12-16T14:58:49Z</time>
      </trkpt>
      <trkpt lat="43.59059" lon="5.08366">
        <ele>63</ele>
        <time>2019-12-16T14:58:50Z</time>
      </trkpt>
      <trkpt lat="43.5906" lon="5.08365">
        <ele>63</ele>
        <time>2019-12-16T14:58:51Z</time>
      </trkpt>
      <trkpt lat="43.59061" lon="5.08364">
        <ele>63</ele>
        <time>2019-12-16T14:58:52Z</time>
      </trkpt>
      <trkpt lat="43.59062" lon="5.08364">
        <ele>63</ele>
        <time>2019-12-16T14:58:53Z</time>
      </trkpt>
      <trkpt lat="43.59063" lon="5.08363">
        <ele>63</ele>
        <time>2019-12-16T14:58:54Z</time>
      </trkpt>
      <trkpt lat="43.59064" lon="5.08362">
        <ele>63</ele>
        <time>2019-12-16T14:58:55Z</time>
      </trkpt>
      <trkpt lat="43.59065" lon="5.0836">
        <ele>63</ele>
        <time>2019-12-16T14:58:56Z</time>
      </trkpt>
      <trkpt lat="43.59066" lon="5.08359">
        <ele>63</ele>
        <time>2019-12-16T14:58:57Z</time>
      </trkpt>
      <trkpt lat="43.59067" lon="5.08358">
        <ele>63</ele>
        <time>2019-12-16T14:58:58Z</time>
      </trkpt>
      <trkpt lat="43.59068" lon="5.08357">
        <ele>63</ele>
        <time>2019-12-16T14:58:59Z</time>
      </trkpt>
      <trkpt lat="43.59069" lon="5.08356">
        <ele>63</ele>
        <time>2019-12-16T14:59:00Z</time>
      </trkpt>
      <trkpt lat="43.59069" lon="5.08355">
        <ele>63</ele>
        <time>2019-12-16T14:59:01Z</time>
      </trkpt>
      <trkpt lat="43.5907" lon="5.08354">
        <ele>63</ele>
        <time>2019-12-16T14:59:02Z</time>
      </trkpt>
      <trkpt lat="43.59071" lon="5.08352">
        <ele>63</ele>
        <time>2019-12-16T14:59:03Z</time>
      </trkpt>
      <trkpt lat="43.59072" lon="5.08351">
        <ele>63</ele>
        <time>2019-12-16T14:59:04Z</time>
      </trkpt>
      <trkpt lat="43.59073" lon="5.0835">
        <ele>63</ele>
        <time>2019-12-16T14:59:05Z</time>
      </trkpt>
      <trkpt lat="43.59074" lon="5.08349">
        <ele>63</ele>
        <time>2019-12-16T14:59:06Z</time>
      </trkpt>
      <trkpt lat="43.59075" lon="5.08348">
        <ele>63</ele>
        <time>2019-12-16T14:59:07Z</time>
      </trkpt>
      <trkpt lat="43.59076" lon="5.08347">
        <ele>63</ele>
        <time>2019-12-16T14:59:08Z</time>
      </trkpt>
      <trkpt lat="43.59077" lon="5.08345">
        <ele>63</ele>
        <time>2019-12-16T14:59:09Z</time>
      </trkpt>
      <trkpt lat="43.59078" lon="5.08344">
        <ele>63</ele>
        <time>2019-12-16T14:59:10Z</time>
      </trkpt>
      <trkpt lat="43.59078" lon="5.08343">
        <ele>63</ele>
        <time>2019-12-16T14:59:11Z</time>
      </trkpt>
      <trkpt lat="43.59079" lon="5.08342">
        <ele>63</ele>
        <time>2019-12-16T14:59:12Z</time>
      </trkpt>
      <trkpt lat="43.59081" lon="5.08341">
        <ele>62</ele>
        <time>2019-12-16T14:59:13Z</time>
      </trkpt>
      <trkpt lat="43.59082" lon="5.08341">
        <ele>62</ele>
        <time>2019-12-16T14:59:14Z</time>
      </trkpt>
      <trkpt lat="43.59083" lon="5.0834">
        <ele>62</ele>
        <time>2019-12-16T14:59:15Z</time>
      </trkpt>
      <trkpt lat="43.59084" lon="5.08339">
        <ele>63</ele>
        <time>2019-12-16T14:59:16Z</time>
      </trkpt>
      <trkpt lat="43.59085" lon="5.08338">
        <ele>63</ele>
        <time>2019-12-16T14:59:17Z</time>
      </trkpt>
      <trkpt lat="43.59086" lon="5.08337">
        <ele>63</ele>
        <time>2019-12-16T14:59:18Z</time>
      </trkpt>
      <trkpt lat="43.59087" lon="5.08337">
        <ele>63</ele>
        <time>2019-12-16T14:59:19Z</time>
      </trkpt>
      <trkpt lat="43.59088" lon="5.08336">
        <ele>63</ele>
        <time>2019-12-16T14:59:20Z</time>
      </trkpt>
      <trkpt lat="43.59089" lon="5.08335">
        <ele>63</ele>
        <time>2019-12-16T14:59:21Z</time>
      </trkpt>
      <trkpt lat="43.59091" lon="5.08335">
        <ele>63</ele>
        <time>2019-12-16T14:59:22Z</time>
      </trkpt>
      <trkpt lat="43.59092" lon="5.08334">
        <ele>63</ele>
        <time>2019-12-16T14:59:23Z</time>
      </trkpt>
      <trkpt lat="43.59093" lon="5.08334">
        <ele>63</ele>
        <time>2019-12-16T14:59:24Z</time>
      </trkpt>
      <trkpt lat="43.59094" lon="5.08333">
        <ele>62</ele>
        <time>2019-12-16T14:59:25Z</time>
      </trkpt>
      <trkpt lat="43.59095" lon="5.08333">
        <ele>62</ele>
        <time>2019-12-16T14:59:26Z</time>
      </trkpt>
      <trkpt lat="43.59096" lon="5.08332">
        <ele>62</ele>
        <time>2019-12-16T14:59:27Z</time>
      </trkpt>
      <trkpt lat="43.59097" lon="5.08332">
        <ele>62</ele>
        <time>2019-12-16T14:59:28Z</time>
      </trkpt>
      <trkpt lat="43.59098" lon="5.08331">
        <ele>62</ele>
        <time>2019-12-16T14:59:29Z</time>
      </trkpt>
      <trkpt lat="43.59099" lon="5.08331">
        <ele>62</ele>
        <time>2019-12-16T14:59:30Z</time>
      </trkpt>
      <trkpt lat="43.591" lon="5.0833">
        <ele>62</ele>
        <time>2019-12-16T14:59:31Z</time>
      </trkpt>
      <trkpt lat="43.59101" lon="5.0833">
        <ele>62</ele>
        <time>2019-12-16T14:59:32Z</time>
      </trkpt>
      <trkpt lat="43.59102" lon="5.08329">
        <ele>62</ele>
        <time>2019-12-16T14:59:33Z</time>
      </trkpt>
      <trkpt lat="43.59104" lon="5.08329">
        <ele>62</ele>
        <time>2019-12-16T14:59:34Z</time>
      </trkpt>
      <trkpt lat="43.59105" lon="5.08328">
        <ele>62</ele>
        <time>2019-12-16T14:59:35Z</time>
      </trkpt>
      <trkpt lat="43.59106" lon="5.08327">
        <ele>62</ele>
        <time>2019-12-16T14:59:36Z</time>
      </trkpt>
      <trkpt lat="43.59107" lon="5.08327">
        <ele>62</ele>
        <time>2019-12-16T14:59:37Z</time>
      </trkpt>
      <trkpt lat="43.59109" lon="5.08327">
        <ele>62</ele>
        <time>2019-12-16T14:59:38Z</time>
      </trkpt>
      <trkpt lat="43.5911" lon="5.08326">
        <ele>63</ele>
        <time>2019-12-16T14:59:39Z</time>
      </trkpt>
      <trkpt lat="43.59111" lon="5.08326">
        <ele>63</ele>
        <time>2019-12-16T14:59:40Z</time>
      </trkpt>
      <trkpt lat="43.59113" lon="5.08326">
        <ele>63</ele>
        <time>2019-12-16T14:59:41Z</time>
      </trkpt>
      <trkpt lat="43.59114" lon="5.08326">
        <ele>63</ele>
        <time>2019-12-16T14:59:42Z</time>
      </trkpt>
      <trkpt lat="43.59115" lon="5.08326">
        <ele>63</ele>
        <time>2019-12-16T14:59:43Z</time>
      </trkpt>
      <trkpt lat="43.59116" lon="5.08326">
        <ele>63</ele>
        <time>2019-12-16T14:59:44Z</time>
      </trkpt>
      <trkpt lat="43.59117" lon="5.08327">
        <ele>63</ele>
        <time>2019-12-16T14:59:45Z</time>
      </trkpt>
      <trkpt lat="43.59118" lon="5.08327">
        <ele>63</ele>
        <time>2019-12-16T14:59:46Z</time>
      </trkpt>
      <trkpt lat="43.59119" lon="5.08328">
        <ele>63</ele>
        <time>2019-12-16T14:59:47Z</time>
      </trkpt>
      <trkpt lat="43.5912" lon="5.08329">
        <ele>63</ele>
        <time>2019-12-16T14:59:48Z</time>
      </trkpt>
      <trkpt lat="43.59121" lon="5.08331">
        <ele>63</ele>
        <time>2019-12-16T14:59:49Z</time>
      </trkpt>
      <trkpt lat="43.59122" lon="5.08332">
        <ele>63</ele>
        <time>2019-12-16T14:59:50Z</time>
      </trkpt>
      <trkpt lat="43.59123" lon="5.08333">
        <ele>63</ele>
        <time>2019-12-16T14:59:51Z</time>
      </trkpt>
      <trkpt lat="43.59124" lon="5.08334">
        <ele>65</ele>
        <time>2019-12-16T14:59:52Z</time>
      </trkpt>
      <trkpt lat="43.59125" lon="5.08335">
        <ele>65</ele>
        <time>2019-12-16T14:59:53Z</time>
      </trkpt>
      <trkpt lat="43.59126" lon="5.08336">
        <ele>65</ele>
        <time>2019-12-16T14:59:54Z</time>
      </trkpt>
      <trkpt lat="43.59127" lon="5.08337">
        <ele>65</ele>
        <time>2019-12-16T14:59:55Z</time>
      </trkpt>
      <trkpt lat="43.59128" lon="5.08338">
        <ele>65</ele>
        <time>2019-12-16T14:59:56Z</time>
      </trkpt>
      <trkpt lat="43.59129" lon="5.08339">
        <ele>65</ele>
        <time>2019-12-16T14:59:57Z</time>
      </trkpt>
      <trkpt lat="43.5913" lon="5.08339">
        <ele>65</ele>
        <time>2019-12-16T14:59:58Z</time>
      </trkpt>
      <trkpt lat="43.59131" lon="5.0834">
        <ele>65</ele>
        <time>2019-12-16T14:59:59Z</time>
      </trkpt>
      <trkpt lat="43.59133" lon="5.0834">
        <ele>65</ele>
        <time>2019-12-16T15:00:00Z</time>
      </trkpt>
      <trkpt lat="43.59134" lon="5.0834">
        <ele>65</ele>
        <time>2019-12-16T15:00:01Z</time>
      </trkpt>
      <trkpt lat="43.59135" lon="5.08339">
        <ele>65</ele>
        <time>2019-12-16T15:00:02Z</time>
      </trkpt>
      <trkpt lat="43.59136" lon="5.08339">
        <ele>65</ele>
        <time>2019-12-16T15:00:03Z</time>
      </trkpt>
      <trkpt lat="43.59137" lon="5.08338">
        <ele>65</ele>
        <time>2019-12-16T15:00:04Z</time>
      </trkpt>
      <trkpt lat="43.59138" lon="5.08337">
        <ele>65</ele>
        <time>2019-12-16T15:00:05Z</time>
      </trkpt>
      <trkpt lat="43.59139" lon="5.08337">
        <ele>65</ele>
        <time>2019-12-16T15:00:06Z</time>
      </trkpt>
      <trkpt lat="43.5914" lon="5.08336">
        <ele>65</ele>
        <time>2019-12-16T15:00:07Z</time>
      </trkpt>
      <trkpt lat="43.59141" lon="5.08335">
        <ele>65</ele>
        <time>2019-12-16T15:00:08Z</time>
      </trkpt>
      <trkpt lat="43.59142" lon="5.08334">
        <ele>65</ele>
        <time>2019-12-16T15:00:09Z</time>
      </trkpt>
      <trkpt lat="43.59143" lon="5.08334">
        <ele>65</ele>
        <time>2019-12-16T15:00:10Z</time>
      </trkpt>
      <trkpt lat="43.59144" lon="5.08333">
        <ele>64</ele>
        <time>2019-12-16T15:00:11Z</time>
      </trkpt>
      <trkpt lat="43.59145" lon="5.08332">
        <ele>64</ele>
        <time>2019-12-16T15:00:12Z</time>
      </trkpt>
      <trkpt lat="43.59146" lon="5.08331">
        <ele>64</ele>
        <time>2019-12-16T15:00:13Z</time>
      </trkpt>
      <trkpt lat="43.59147" lon="5.0833">
        <ele>64</ele>
        <time>2019-12-16T15:00:14Z</time>
      </trkpt>
      <trkpt lat="43.59148" lon="5.0833">
        <ele>64</ele>
        <time>2019-12-16T15:00:15Z</time>
      </trkpt>
      <trkpt lat="43.5915" lon="5.08329">
        <ele>64</ele>
        <time>2019-12-16T15:00:16Z</time>
      </trkpt>
      <trkpt lat="43.59151" lon="5.08328">
        <ele>64</ele>
        <time>2019-12-16T15:00:17Z</time>
      </trkpt>
      <trkpt lat="43.59152" lon="5.08327">
        <ele>64</ele>
        <time>2019-12-16T15:00:18Z</time>
      </trkpt>
      <trkpt lat="43.59153" lon="5.08327">
        <ele>64</ele>
        <time>2019-12-16T15:00:19Z</time>
      </trkpt>
      <trkpt lat="43.59154" lon="5.08326">
        <ele>64</ele>
        <time>2019-12-16T15:00:20Z</time>
      </trkpt>
      <trkpt lat="43.59155" lon="5.08325">
        <ele>64</ele>
        <time>2019-12-16T15:00:21Z</time>
      </trkpt>
      <trkpt lat="43.59156" lon="5.08324">
        <ele>64</ele>
        <time>2019-12-16T15:00:22Z</time>
      </trkpt>
      <trkpt lat="43.59157" lon="5.08324">
        <ele>64</ele>
        <time>2019-12-16T15:00:23Z</time>
      </trkpt>
      <trkpt lat="43.59158" lon="5.08323">
        <ele>64</ele>
        <time>2019-12-16T15:00:24Z</time>
      </trkpt>
      <trkpt lat="43.5916" lon="5.08322">
        <ele>64</ele>
        <time>2019-12-16T15:00:25Z</time>
      </trkpt>
      <trkpt lat="43.5916" lon="5.08321">
        <ele>64</ele>
        <time>2019-12-16T15:00:26Z</time>
      </trkpt>
      <trkpt lat="43.59162" lon="5.08321">
        <ele>64</ele>
        <time>2019-12-16T15:00:27Z</time>
      </trkpt>
      <trkpt lat="43.59163" lon="5.0832">
        <ele>64</ele>
        <time>2019-12-16T15:00:28Z</time>
      </trkpt>
      <trkpt lat="43.59164" lon="5.08319">
        <ele>64</ele>
        <time>2019-12-16T15:00:29Z</time>
      </trkpt>
      <trkpt lat="43.59165" lon="5.08318">
        <ele>64</ele>
        <time>2019-12-16T15:00:30Z</time>
      </trkpt>
      <trkpt lat="43.59166" lon="5.08318">
        <ele>64</ele>
        <time>2019-12-16T15:00:31Z</time>
      </trkpt>
      <trkpt lat="43.59167" lon="5.08317">
        <ele>65</ele>
        <time>2019-12-16T15:00:32Z</time>
      </trkpt>
      <trkpt lat="43.59168" lon="5.08316">
        <ele>65</ele>
        <time>2019-12-16T15:00:33Z</time>
      </trkpt>
      <trkpt lat="43.59169" lon="5.08316">
        <ele>65</ele>
        <time>2019-12-16T15:00:34Z</time>
      </trkpt>
      <trkpt lat="43.5917" lon="5.08315">
        <ele>65</ele>
        <time>2019-12-16T15:00:35Z</time>
      </trkpt>
      <trkpt lat="43.59171" lon="5.08314">
        <ele>65</ele>
        <time>2019-12-16T15:00:36Z</time>
      </trkpt>
      <trkpt lat="43.59172" lon="5.08313">
        <ele>65</ele>
        <time>2019-12-16T15:00:37Z</time>
      </trkpt>
      <trkpt lat="43.59173" lon="5.08312">
        <ele>65</ele>
        <time>2019-12-16T15:00:38Z</time>
      </trkpt>
      <trkpt lat="43.59174" lon="5.08311">
        <ele>65</ele>
        <time>2019-12-16T15:00:39Z</time>
      </trkpt>
      <trkpt lat="43.59176" lon="5.08311">
        <ele>65</ele>
        <time>2019-12-16T15:00:40Z</time>
      </trkpt>
      <trkpt lat="43.59177" lon="5.0831">
        <ele>65</ele>
        <time>2019-12-16T15:00:41Z</time>
      </trkpt>
      <trkpt lat="43.59178" lon="5.08309">
        <ele>65</ele>
        <time>2019-12-16T15:00:42Z</time>
      </trkpt>
      <trkpt lat="43.59179" lon="5.08308">
        <ele>65</ele>
        <time>2019-12-16T15:00:43Z</time>
      </trkpt>
      <trkpt lat="43.5918" lon="5.08307">
        <ele>65</ele>
        <time>2019-12-16T15:00:44Z</time>
      </trkpt>
      <trkpt lat="43.59181" lon="5.08307">
        <ele>65</ele>
        <time>2019-12-16T15:00:45Z</time>
      </trkpt>
      <trkpt lat="43.59182" lon="5.08306">
        <ele>65</ele>
        <time>2019-12-16T15:00:46Z</time>
      </trkpt>
      <trkpt lat="43.59183" lon="5.08305">
        <ele>65</ele>
        <time>2019-12-16T15:00:47Z</time>
      </trkpt>
      <trkpt lat="43.59184" lon="5.08304">
        <ele>65</ele>
        <time>2019-12-16T15:00:48Z</time>
      </trkpt>
      <trkpt lat="43.59185" lon="5.08304">
        <ele>65</ele>
        <time>2019-12-16T15:00:49Z</time>
      </trkpt>
      <trkpt lat="43.59186" lon="5.08303">
        <ele>65</ele>
        <time>2019-12-16T15:00:50Z</time>
      </trkpt>
      <trkpt lat="43.59187" lon="5.08302">
        <ele>65</ele>
        <time>2019-12-16T15:00:51Z</time>
      </trkpt>
      <trkpt lat="43.59188" lon="5.08301">
        <ele>65</ele>
        <time>2019-12-16T15:00:52Z</time>
      </trkpt>
      <trkpt lat="43.59189" lon="5.08301">
        <ele>65</ele>
        <time>2019-12-16T15:00:53Z</time>
      </trkpt>
      <trkpt lat="43.5919" lon="5.083">
        <ele>65</ele>
        <time>2019-12-16T15:00:54Z</time>
      </trkpt>
      <trkpt lat="43.59191" lon="5.08299">
        <ele>65</ele>
        <time>2019-12-16T15:00:55Z</time>
      </trkpt>
      <trkpt lat="43.59192" lon="5.08299">
        <ele>65</ele>
        <time>2019-12-16T15:00:56Z</time>
      </trkpt>
      <trkpt lat="43.59193" lon="5.08298">
        <ele>65</ele>
        <time>2019-12-16T15:00:57Z</time>
      </trkpt>
      <trkpt lat="43.59195" lon="5.08298">
        <ele>65</ele>
        <time>2019-12-16T15:00:58Z</time>
      </trkpt>
      <trkpt lat="43.59196" lon="5.08297">
        <ele>65</ele>
        <time>2019-12-16T15:00:59Z</time>
      </trkpt>
      <trkpt lat="43.59197" lon="5.08296">
        <ele>65</ele>
        <time>2019-12-16T15:01:00Z</time>
      </trkpt>
      <trkpt lat="43.59198" lon="5.08296">
        <ele>65</ele>
        <time>2019-12-16T15:01:01Z</time>
      </trkpt>
      <trkpt lat="43.59199" lon="5.08295">
        <ele>65</ele>
        <time>2019-12-16T15:01:02Z</time>
      </trkpt>
      <trkpt lat="43.592" lon="5.08294">
        <ele>65</ele>
        <time>2019-12-16T15:01:03Z</time>
      </trkpt>
      <trkpt lat="43.59201" lon="5.08294">
        <ele>65</ele>
        <time>2019-12-16T15:01:04Z</time>
      </trkpt>
      <trkpt lat="43.59202" lon="5.08293">
        <ele>65</ele>
        <time>2019-12-16T15:01:05Z</time>
      </trkpt>
      <trkpt lat="43.59203" lon="5.08292">
        <ele>65</ele>
        <time>2019-12-16T15:01:06Z</time>
      </trkpt>
      <trkpt lat="43.59205" lon="5.08291">
        <ele>65</ele>
        <time>2019-12-16T15:01:07Z</time>
      </trkpt>
      <trkpt lat="43.59206" lon="5.08291">
        <ele>65</ele>
        <time>2019-12-16T15:01:08Z</time>
      </trkpt>
      <trkpt lat="43.59207" lon="5.0829">
        <ele>65</ele>
        <time>2019-12-16T15:01:09Z</time>
      </trkpt>
      <trkpt lat="43.59208" lon="5.08289">
        <ele>65</ele>
        <time>2019-12-16T15:01:10Z</time>
      </trkpt>
      <trkpt lat="43.59209" lon="5.08289">
        <ele>65</ele>
        <time>2019-12-16T15:01:11Z</time>
      </trkpt>
      <trkpt lat="43.5921" lon="5.08288">
        <ele>65</ele>
        <time>2019-12-16T15:01:12Z</time>
      </trkpt>
      <trkpt lat="43.5921" lon="5.08288">
        <ele>65</ele>
        <time>2019-12-16T15:01:13Z</time>
      </trkpt>
      <trkpt lat="43.59211" lon="5.08287">
        <ele>65</ele>
        <time>2019-12-16T15:01:14Z</time>
      </trkpt>
      <trkpt lat="43.59211" lon="5.08287">
        <ele>65</ele>
        <time>2019-12-16T15:01:15Z</time>
      </trkpt>
      <trkpt lat="43.59211" lon="5.08287">
        <ele>65</ele>
        <time>2019-12-16T15:01:16Z</time>
      </trkpt>
      <trkpt lat="43.59212" lon="5.08287">
        <ele>65</ele>
        <time>2019-12-16T15:01:17Z</time>
      </trkpt>
      <trkpt lat="43.59211" lon="5.08287">
        <ele>65</ele>
        <time>2019-12-16T15:01:18Z</time>
      </trkpt>
      <trkpt lat="43.59211" lon="5.08287">
        <ele>65</ele>
        <time>2019-12-16T15:01:19Z</time>
      </trkpt>
      <trkpt lat="43.59211" lon="5.08287">
        <ele>65</ele>
        <time>2019-12-16T15:01:20Z</time>
      </trkpt>
      <trkpt lat="43.5921" lon="5.08287">
        <ele>65</ele>
        <time>2019-12-16T15:01:21Z</time>
      </trkpt>
      <trkpt lat="43.5921" lon="5.08286">
        <ele>65</ele>
        <time>2019-12-16T15:01:22Z</time>
      </trkpt>
      <trkpt lat="43.59209" lon="5.08286">
        <ele>65</ele>
        <time>2019-12-16T15:01:23Z</time>
      </trkpt>
      <trkpt lat="43.59209" lon="5.08285">
        <ele>65</ele>
        <time>2019-12-16T15:01:24Z</time>
      </trkpt>
      <trkpt lat="43.59209" lon="5.08285">
        <ele>65</ele>
        <time>2019-12-16T15:01:25Z</time>
      </trkpt>
      <trkpt lat="43.5921" lon="5.08285">
        <ele>65</ele>
        <time>2019-12-16T15:01:26Z</time>
      </trkpt>
      <trkpt lat="43.59211" lon="5.08285">
        <ele>65</ele>
        <time>2019-12-16T15:01:27Z</time>
      </trkpt>
      <trkpt lat="43.59212" lon="5.08285">
        <ele>65</ele>
        <time>2019-12-16T15:01:28Z</time>
      </trkpt>
      <trkpt lat="43.59213" lon="5.08286">
        <ele>65</ele>
        <time>2019-12-16T15:01:29Z</time>
      </trkpt>
      <trkpt lat="43.59214" lon="5.08286">
        <ele>65</ele>
        <time>2019-12-16T15:01:30Z</time>
      </trkpt>
      <trkpt lat="43.59215" lon="5.08286">
        <ele>65</ele>
        <time>2019-12-16T15:01:31Z</time>
      </trkpt>
      <trkpt lat="43.59216" lon="5.08285">
        <ele>65</ele>
        <time>2019-12-16T15:01:32Z</time>
      </trkpt>
      <trkpt lat="43.59216" lon="5.08285">
        <ele>65</ele>
        <time>2019-12-16T15:01:33Z</time>
      </trkpt>
      <trkpt lat="43.59217" lon="5.08284">
        <ele>65</ele>
        <time>2019-12-16T15:01:34Z</time>
      </trkpt>
      <trkpt lat="43.59217" lon="5.08283">
        <ele>65</ele>
        <time>2019-12-16T15:01:35Z</time>
      </trkpt>
      <trkpt lat="43.59217" lon="5.08282">
        <ele>65</ele>
        <time>2019-12-16T15:01:36Z</time>
      </trkpt>
      <trkpt lat="43.59216" lon="5.08281">
        <ele>65</ele>
        <time>2019-12-16T15:01:37Z</time>
      </trkpt>
      <trkpt lat="43.59216" lon="5.0828">
        <ele>65</ele>
        <time>2019-12-16T15:01:38Z</time>
      </trkpt>
      <trkpt lat="43.59215" lon="5.08279">
        <ele>65</ele>
        <time>2019-12-16T15:01:39Z</time>
      </trkpt>
      <trkpt lat="43.59215" lon="5.08278">
        <ele>65</ele>
        <time>2019-12-16T15:01:40Z</time>
      </trkpt>
      <trkpt lat="43.59214" lon="5.08277">
        <ele>65</ele>
        <time>2019-12-16T15:01:41Z</time>
      </trkpt>
      <trkpt lat="43.59213" lon="5.08276">
        <ele>65</ele>
        <time>2019-12-16T15:01:42Z</time>
      </trkpt>
      <trkpt lat="43.59213" lon="5.08274">
        <ele>65</ele>
        <time>2019-12-16T15:01:43Z</time>
      </trkpt>
      <trkpt lat="43.59212" lon="5.08273">
        <ele>65</ele>
        <time>2019-12-16T15:01:44Z</time>
      </trkpt>
      <trkpt lat="43.59212" lon="5.08272">
        <ele>65</ele>
        <time>2019-12-16T15:01:45Z</time>
      </trkpt>
      <trkpt lat="43.59211" lon="5.0827">
        <ele>65</ele>
        <time>2019-12-16T15:01:46Z</time>
      </trkpt>
      <trkpt lat="43.5921" lon="5.08269">
        <ele>65</ele>
        <time>2019-12-16T15:01:47Z</time>
      </trkpt>
      <trkpt lat="43.5921" lon="5.08267">
        <ele>65</ele>
        <time>2019-12-16T15:01:48Z</time>
      </trkpt>
      <trkpt lat="43.59209" lon="5.08266">
        <ele>65</ele>
        <time>2019-12-16T15:01:49Z</time>
      </trkpt>
      <trkpt lat="43.59209" lon="5.08265">
        <ele>65</ele>
        <time>2019-12-16T15:01:50Z</time>
      </trkpt>
      <trkpt lat="43.59209" lon="5.08263">
        <ele>65</ele>
        <time>2019-12-16T15:01:51Z</time>
      </trkpt>
      <trkpt lat="43.59208" lon="5.08262">
        <ele>65</ele>
        <time>2019-12-16T15:01:52Z</time>
      </trkpt>
      <trkpt lat="43.59208" lon="5.08261">
        <ele>65</ele>
        <time>2019-12-16T15:01:53Z</time>
      </trkpt>
      <trkpt lat="43.59207" lon="5.0826">
        <ele>65</ele>
        <time>2019-12-16T15:01:54Z</time>
      </trkpt>
      <trkpt lat="43.59207" lon="5.08259">
        <ele>65</ele>
        <time>2019-12-16T15:01:55Z</time>
      </trkpt>
      <trkpt lat="43.59207" lon="5.08258">
        <ele>65</ele>
        <time>2019-12-16T15:01:56Z</time>
      </trkpt>
      <trkpt lat="43.59206" lon="5.08257">
        <ele>65</ele>
        <time>2019-12-16T15:01:57Z</time>
      </trkpt>
      <trkpt lat="43.59206" lon="5.08256">
        <ele>65</ele>
        <time>2019-12-16T15:01:58Z</time>
      </trkpt>
      <trkpt lat="43.59206" lon="5.08256">
        <ele>65</ele>
        <time>2019-12-16T15:01:59Z</time>
      </trkpt>
      <trkpt lat="43.59206" lon="5.08255">
        <ele>65</ele>
        <time>2019-12-16T15:02:00Z</time>
      </trkpt>
      <trkpt lat="43.59206" lon="5.08255">
        <ele>65</ele>
        <time>2019-12-16T15:02:01Z</time>
      </trkpt>
      <trkpt lat="43.59206" lon="5.08255">
        <ele>65</ele>
        <time>2019-12-16T15:02:02Z</time>
      </trkpt>
      <trkpt lat="43.59206" lon="5.08255">
        <ele>65</ele>
        <time>2019-12-16T15:02:03Z</time>
      </trkpt>
      <trkpt lat="43.59206" lon="5.08255">
        <ele>65</ele>
        <time>2019-12-16T15:02:04Z</time>
      </trkpt>
      <trkpt lat="43.59206" lon="5.08255">
        <ele>65</ele>
        <time>2019-12-16T15:02:05Z</time>
      </trkpt>
      <trkpt lat="43.59206" lon="5.08255">
        <ele>65</ele>
        <time>2019-12-16T15:02:06Z</time>
      </trkpt>
      <trkpt lat="43.59206" lon="5.08254">
        <ele>65</ele>
        <time>2019-12-16T15:02:07Z</time>
      </trkpt>
      <trkpt lat="43.59206" lon="5.08253">
        <ele>65</ele>
        <time>2019-12-16T15:02:08Z</time>
      </trkpt>
      <trkpt lat="43.59205" lon="5.08253">
        <ele>65</ele>
        <time>2019-12-16T15:02:09Z</time>
      </trkpt>
      <trkpt lat="43.59205" lon="5.08252">
        <ele>64</ele>
        <time>2019-12-16T15:02:10Z</time>
      </trkpt>
      <trkpt lat="43.59205" lon="5.08251">
        <ele>64</ele>
        <time>2019-12-16T15:02:11Z</time>
      </trkpt>
      <trkpt lat="43.59204" lon="5.08249">
        <ele>64</ele>
        <time>2019-12-16T15:02:12Z</time>
      </trkpt>
      <trkpt lat="43.59204" lon="5.08249">
        <ele>64</ele>
        <time>2019-12-16T15:02:13Z</time>
      </trkpt>
      <trkpt lat="43.59204" lon="5.08248">
        <ele>64</ele>
        <time>2019-12-16T15:02:14Z</time>
      </trkpt>
      <trkpt lat="43.59204" lon="5.08247">
        <ele>64</ele>
        <time>2019-12-16T15:02:15Z</time>
      </trkpt>
      <trkpt lat="43.59204" lon="5.08247">
        <ele>64</ele>
        <time>2019-12-16T15:02:16Z</time>
      </trkpt>
      <trkpt lat="43.59204" lon="5.08247">
        <ele>64</ele>
        <time>2019-12-16T15:02:17Z</time>
      </trkpt>
      <trkpt lat="43.59204" lon="5.08247">
        <ele>64</ele>
        <time>2019-12-16T15:02:18Z</time>
      </trkpt>
      <trkpt lat="43.59204" lon="5.08247">
        <ele>64</ele>
        <time>2019-12-16T15:02:19Z</time>
      </trkpt>
      <trkpt lat="43.59204" lon="5.08247">
        <ele>64</ele>
        <time>2019-12-16T15:02:20Z</time>
      </trkpt>
      <trkpt lat="43.59203" lon="5.08247">
        <ele>64</ele>
        <time>2019-12-16T15:02:21Z</time>
      </trkpt>
      <trkpt lat="43.59203" lon="5.08246">
        <ele>64</ele>
        <time>2019-12-16T15:02:22Z</time>
      </trkpt>
      <trkpt lat="43.59203" lon="5.08246">
        <ele>64</ele>
        <time>2019-12-16T15:02:23Z</time>
      </trkpt>
      <trkpt lat="43.59203" lon="5.08245">
        <ele>64</ele>
        <time>2019-12-16T15:02:24Z</time>
      </trkpt>
      <trkpt lat="43.59203" lon="5.08244">
        <ele>64</ele>
        <time>2019-12-16T15:02:25Z</time>
      </trkpt>
      <trkpt lat="43.59203" lon="5.08243">
        <ele>64</ele>
        <time>2019-12-16T15:02:26Z</time>
      </trkpt>
      <trkpt lat="43.59203" lon="5.08243">
        <ele>64</ele>
        <time>2019-12-16T15:02:27Z</time>
      </trkpt>
      <trkpt lat="43.59204" lon="5.08242">
        <ele>64</ele>
        <time>2019-12-16T15:02:28Z</time>
      </trkpt>
      <trkpt lat="43.59204" lon="5.08241">
        <ele>64</ele>
        <time>2019-12-16T15:02:29Z</time>
      </trkpt>
      <trkpt lat="43.59205" lon="5.0824">
        <ele>64</ele>
        <time>2019-12-16T15:02:30Z</time>
      </trkpt>
      <trkpt lat="43.59205" lon="5.0824">
        <ele>64</ele>
        <time>2019-12-16T15:02:31Z</time>
      </trkpt>
      <trkpt lat="43.59205" lon="5.08239">
        <ele>64</ele>
        <time>2019-12-16T15:02:32Z</time>
      </trkpt>
      <trkpt lat="43.59206" lon="5.08238">
        <ele>64</ele>
        <time>2019-12-16T15:02:33Z</time>
      </trkpt>
      <trkpt lat="43.59206" lon="5.08238">
        <ele>64</ele>
        <time>2019-12-16T15:02:34Z</time>
      </trkpt>
      <trkpt lat="43.59206" lon="5.08238">
        <ele>64</ele>
        <time>2019-12-16T15:02:35Z</time>
      </trkpt>
      <trkpt lat="43.59206" lon="5.08237">
        <ele>64</ele>
        <time>2019-12-16T15:02:36Z</time>
      </trkpt>
      <trkpt lat="43.59206" lon="5.08237">
        <ele>64</ele>
        <time>2019-12-16T15:02:37Z</time>
      </trkpt>
      <trkpt lat="43.59206" lon="5.08237">
        <ele>64</ele>
        <time>2019-12-16T15:02:38Z</time>
      </trkpt>
      <trkpt lat="43.59206" lon="5.08237">
        <ele>64</ele>
        <time>2019-12-16T15:02:39Z</time>
      </trkpt>
      <trkpt lat="43.59206" lon="5.08237">
        <ele>64</ele>
        <time>2019-12-16T15:02:40Z</time>
      </trkpt>
      <trkpt lat="43.59206" lon="5.08237">
        <ele>64</ele>
        <time>2019-12-16T15:02:41Z</time>
      </trkpt>
      <trkpt lat="43.59206" lon="5.08237">
        <ele>64</ele>
        <time>2019-12-16T15:02:42Z</time>
      </trkpt>
      <trkpt lat="43.59206" lon="5.08237">
        <ele>64</ele>
        <time>2019-12-16T15:02:43Z</time>
      </trkpt>
      <trkpt lat="43.59206" lon="5.08237">
        <ele>64</ele>
        <time>2019-12-16T15:02:44Z</time>
      </trkpt>
      <trkpt lat="43.59207" lon="5.08236">
        <ele>64</ele>
        <time>2019-12-16T15:02:45Z</time>
      </trkpt>
      <trkpt lat="43.59207" lon="5.08236">
        <ele>64</ele>
        <time>2019-12-16T15:02:46Z</time>
      </trkpt>
      <trkpt lat="43.59208" lon="5.08235">
        <ele>64</ele>
        <time>2019-12-16T15:02:47Z</time>
      </trkpt>
      <trkpt lat="43.59209" lon="5.08235">
        <ele>64</ele>
        <time>2019-12-16T15:02:48Z</time>
      </trkpt>
      <trkpt lat="43.59209" lon="5.08235">
        <ele>64</ele>
        <time>2019-12-16T15:02:49Z</time>
      </trkpt>
      <trkpt lat="43.5921" lon="5.08236">
        <ele>64</ele>
        <time>2019-12-16T15:02:50Z</time>
      </trkpt>
      <trkpt lat="43.59211" lon="5.08236">
        <ele>64</ele>
        <time>2019-12-16T15:02:51Z</time>
      </trkpt>
      <trkpt lat="43.59212" lon="5.08237">
        <ele>64</ele>
        <time>2019-12-16T15:02:52Z</time>
      </trkpt>
      <trkpt lat="43.59213" lon="5.08238">
        <ele>64</ele>
        <time>2019-12-16T15:02:53Z</time>
      </trkpt>
      <trkpt lat="43.59213" lon="5.08238">
        <ele>64</ele>
        <time>2019-12-16T15:02:54Z</time>
      </trkpt>
      <trkpt lat="43.59213" lon="5.08239">
        <ele>64</ele>
        <time>2019-12-16T15:02:55Z</time>
      </trkpt>
      <trkpt lat="43.59213" lon="5.08239">
        <ele>64</ele>
        <time>2019-12-16T15:02:56Z</time>
      </trkpt>
      <trkpt lat="43.59212" lon="5.08239">
        <ele>64</ele>
        <time>2019-12-16T15:02:57Z</time>
      </trkpt>
      <trkpt lat="43.59211" lon="5.08239">
        <ele>64</ele>
        <time>2019-12-16T15:02:58Z</time>
      </trkpt>
      <trkpt lat="43.5921" lon="5.08239">
        <ele>64</ele>
        <time>2019-12-16T15:02:59Z</time>
      </trkpt>
      <trkpt lat="43.59209" lon="5.0824">
        <ele>64</ele>
        <time>2019-12-16T15:03:00Z</time>
      </trkpt>
      <trkpt lat="43.59209" lon="5.0824">
        <ele>64</ele>
        <time>2019-12-16T15:03:01Z</time>
      </trkpt>
      <trkpt lat="43.59208" lon="5.0824">
        <ele>64</ele>
        <time>2019-12-16T15:03:02Z</time>
      </trkpt>
      <trkpt lat="43.59207" lon="5.08241">
        <ele>64</ele>
        <time>2019-12-16T15:03:03Z</time>
      </trkpt>
      <trkpt lat="43.59207" lon="5.08241">
        <ele>64</ele>
        <time>2019-12-16T15:03:04Z</time>
      </trkpt>
      <trkpt lat="43.59207" lon="5.08241">
        <ele>64</ele>
        <time>2019-12-16T15:03:05Z</time>
      </trkpt>
      <trkpt lat="43.59207" lon="5.08241">
        <ele>64</ele>
        <time>2019-12-16T15:03:06Z</time>
      </trkpt>
      <trkpt lat="43.59206" lon="5.08241">
        <ele>64</ele>
        <time>2019-12-16T15:03:07Z</time>
      </trkpt>
      <trkpt lat="43.59206" lon="5.08241">
        <ele>64</ele>
        <time>2019-12-16T15:03:08Z</time>
      </trkpt>
      <trkpt lat="43.59206" lon="5.08241">
        <ele>64</ele>
        <time>2019-12-16T15:03:09Z</time>
      </trkpt>
      <trkpt lat="43.59207" lon="5.08242">
        <ele>64</ele>
        <time>2019-12-16T15:03:10Z</time>
      </trkpt>
      <trkpt lat="43.59207" lon="5.08242">
        <ele>64</ele>
        <time>2019-12-16T15:03:11Z</time>
      </trkpt>
      <trkpt lat="43.59207" lon="5.08243">
        <ele>64</ele>
        <time>2019-12-16T15:03:12Z</time>
      </trkpt>
      <trkpt lat="43.59207" lon="5.08244">
        <ele>64</ele>
        <time>2019-12-16T15:03:13Z</time>
      </trkpt>
      <trkpt lat="43.59208" lon="5.08245">
        <ele>64</ele>
        <time>2019-12-16T15:03:14Z</time>
      </trkpt>
      <trkpt lat="43.59208" lon="5.08247">
        <ele>64</ele>
        <time>2019-12-16T15:03:15Z</time>
      </trkpt>
      <trkpt lat="43.59208" lon="5.08248">
        <ele>64</ele>
        <time>2019-12-16T15:03:16Z</time>
      </trkpt>
      <trkpt lat="43.59208" lon="5.08249">
        <ele>64</ele>
        <time>2019-12-16T15:03:17Z</time>
      </trkpt>
      <trkpt lat="43.59209" lon="5.08249">
        <ele>64</ele>
        <time>2019-12-16T15:03:18Z</time>
      </trkpt>
      <trkpt lat="43.59209" lon="5.08249">
        <ele>64</ele>
        <time>2019-12-16T15:03:19Z</time>
      </trkpt>
      <trkpt lat="43.59209" lon="5.08249">
        <ele>64</ele>
        <time>2019-12-16T15:03:20Z</time>
      </trkpt>
      <trkpt lat="43.59209" lon="5.08249">
        <ele>64</ele>
        <time>2019-12-16T15:03:21Z</time>
      </trkpt>
      <trkpt lat="43.59209" lon="5.08249">
        <ele>64</ele>
        <time>2019-12-16T15:03:22Z</time>
      </trkpt>
      <trkpt lat="43.59209" lon="5.08249">
        <ele>64</ele>
        <time>2019-12-16T15:03:23Z</time>
      </trkpt>
      <trkpt lat="43.59209" lon="5.08249">
        <ele>64</ele>
        <time>2019-12-16T15:03:24Z</time>
      </trkpt>
      <trkpt lat="43.59209" lon="5.08249">
        <ele>64</ele>
        <time>2019-12-16T15:03:25Z</time>
      </trkpt>
      <trkpt lat="43.5921" lon="5.0825">
        <ele>65</ele>
        <time>2019-12-16T15:03:26Z</time>
      </trkpt>
      <trkpt lat="43.5921" lon="5.08251">
        <ele>65</ele>
        <time>2019-12-16T15:03:27Z</time>
      </trkpt>
      <trkpt lat="43.5921" lon="5.08251">
        <ele>65</ele>
        <time>2019-12-16T15:03:28Z</time>
      </trkpt>
      <trkpt lat="43.5921" lon="5.08252">
        <ele>65</ele>
        <time>2019-12-16T15:03:29Z</time>
      </trkpt>
      <trkpt lat="43.5921" lon="5.08251">
        <ele>65</ele>
        <time>2019-12-16T15:03:30Z</time>
      </trkpt>
      <trkpt lat="43.59211" lon="5.0825">
        <ele>65</ele>
        <time>2019-12-16T15:03:31Z</time>
      </trkpt>
      <trkpt lat="43.59211" lon="5.08249">
        <ele>64</ele>
        <time>2019-12-16T15:03:32Z</time>
      </trkpt>
      <trkpt lat="43.59211" lon="5.08249">
        <ele>64</ele>
        <time>2019-12-16T15:03:33Z</time>
      </trkpt>
      <trkpt lat="43.59211" lon="5.08249">
        <ele>64</ele>
        <time>2019-12-16T15:03:34Z</time>
      </trkpt>
      <trkpt lat="43.59211" lon="5.08249">
        <ele>64</ele>
        <time>2019-12-16T15:03:35Z</time>
      </trkpt>
      <trkpt lat="43.59211" lon="5.08249">
        <ele>64</ele>
        <time>2019-12-16T15:03:36Z</time>
      </trkpt>
      <trkpt lat="43.59211" lon="5.08249">
        <ele>64</ele>
        <time>2019-12-16T15:03:37Z</time>
      </trkpt>
      <trkpt lat="43.59211" lon="5.08249">
        <ele>64</ele>
        <time>2019-12-16T15:03:38Z</time>
      </trkpt>
      <trkpt lat="43.5921" lon="5.08249">
        <ele>64</ele>
        <time>2019-12-16T15:03:39Z</time>
      </trkpt>
      <trkpt lat="43.5921" lon="5.08249">
        <ele>64</ele>
        <time>2019-12-16T15:03:40Z</time>
      </trkpt>
      <trkpt lat="43.5921" lon="5.08249">
        <ele>64</ele>
        <time>2019-12-16T15:03:41Z</time>
      </trkpt>
      <trkpt lat="43.5921" lon="5.08249">
        <ele>64</ele>
        <time>2019-12-16T15:03:42Z</time>
      </trkpt>
      <trkpt lat="43.59211" lon="5.08249">
        <ele>64</ele>
        <time>2019-12-16T15:03:43Z</time>
      </trkpt>
      <trkpt lat="43.59211" lon="5.08249">
        <ele>64</ele>
        <time>2019-12-16T15:03:44Z</time>
      </trkpt>
      <trkpt lat="43.59211" lon="5.08249">
        <ele>64</ele>
        <time>2019-12-16T15:03:45Z</time>
      </trkpt>
      <trkpt lat="43.59211" lon="5.0825">
        <ele>64</ele>
        <time>2019-12-16T15:03:46Z</time>
      </trkpt>
      <trkpt lat="43.59211" lon="5.08251">
        <ele>65</ele>
        <time>2019-12-16T15:03:47Z</time>
      </trkpt>
      <trkpt lat="43.59212" lon="5.08252">
        <ele>65</ele>
        <time>2019-12-16T15:03:48Z</time>
      </trkpt>
      <trkpt lat="43.59212" lon="5.08253">
        <ele>65</ele>
        <time>2019-12-16T15:03:49Z</time>
      </trkpt>
      <trkpt lat="43.59212" lon="5.08254">
        <ele>65</ele>
        <time>2019-12-16T15:03:50Z</time>
      </trkpt>
      <trkpt lat="43.59212" lon="5.08256">
        <ele>65</ele>
        <time>2019-12-16T15:03:51Z</time>
      </trkpt>
      <trkpt lat="43.59213" lon="5.08258">
        <ele>65</ele>
        <time>2019-12-16T15:03:52Z</time>
      </trkpt>
      <trkpt lat="43.59213" lon="5.08259">
        <ele>65</ele>
        <time>2019-12-16T15:03:53Z</time>
      </trkpt>
      <trkpt lat="43.59213" lon="5.08261">
        <ele>65</ele>
        <time>2019-12-16T15:03:54Z</time>
      </trkpt>
      <trkpt lat="43.59214" lon="5.08263">
        <ele>65</ele>
        <time>2019-12-16T15:03:55Z</time>
      </trkpt>
      <trkpt lat="43.59214" lon="5.08265">
        <ele>65</ele>
        <time>2019-12-16T15:03:56Z</time>
      </trkpt>
      <trkpt lat="43.59214" lon="5.08266">
        <ele>65</ele>
        <time>2019-12-16T15:03:57Z</time>
      </trkpt>
      <trkpt lat="43.59215" lon="5.08267">
        <ele>65</ele>
        <time>2019-12-16T15:03:58Z</time>
      </trkpt>
      <trkpt lat="43.59215" lon="5.08269">
        <ele>65</ele>
        <time>2019-12-16T15:03:59Z</time>
      </trkpt>
      <trkpt lat="43.59215" lon="5.0827">
        <ele>65</ele>
        <time>2019-12-16T15:04:00Z</time>
      </trkpt>
      <trkpt lat="43.59216" lon="5.0827">
        <ele>65</ele>
        <time>2019-12-16T15:04:01Z</time>
      </trkpt>
      <trkpt lat="43.59217" lon="5.08271">
        <ele>65</ele>
        <time>2019-12-16T15:04:02Z</time>
      </trkpt>
      <trkpt lat="43.59218" lon="5.08271">
        <ele>65</ele>
        <time>2019-12-16T15:04:03Z</time>
      </trkpt>
      <trkpt lat="43.59219" lon="5.08271">
        <ele>65</ele>
        <time>2019-12-16T15:04:04Z</time>
      </trkpt>
      <trkpt lat="43.59219" lon="5.08271">
        <ele>65</ele>
        <time>2019-12-16T15:04:05Z</time>
      </trkpt>
      <trkpt lat="43.59219" lon="5.08271">
        <ele>65</ele>
        <time>2019-12-16T15:04:06Z</time>
      </trkpt>
      <trkpt lat="43.59219" lon="5.08271">
        <ele>65</ele>
        <time>2019-12-16T15:04:07Z</time>
      </trkpt>
      <trkpt lat="43.59219" lon="5.08271">
        <ele>65</ele>
        <time>2019-12-16T15:04:08Z</time>
      </trkpt>
      <trkpt lat="43.5922" lon="5.08271">
        <ele>65</ele>
        <time>2019-12-16T15:04:09Z</time>
      </trkpt>
      <trkpt lat="43.5922" lon="5.0827">
        <ele>65</ele>
        <time>2019-12-16T15:04:10Z</time>
      </trkpt>
      <trkpt lat="43.5922" lon="5.0827">
        <ele>65</ele>
        <time>2019-12-16T15:04:11Z</time>
      </trkpt>
      <trkpt lat="43.59221" lon="5.08269">
        <ele>65</ele>
        <time>2019-12-16T15:04:12Z</time>
      </trkpt>
      <trkpt lat="43.59222" lon="5.08268">
        <ele>65</ele>
        <time>2019-12-16T15:04:13Z</time>
      </trkpt>
      <trkpt lat="43.59222" lon="5.08268">
        <ele>65</ele>
        <time>2019-12-16T15:04:14Z</time>
      </trkpt>
      <trkpt lat="43.59223" lon="5.08267">
        <ele>65</ele>
        <time>2019-12-16T15:04:15Z</time>
      </trkpt>
      <trkpt lat="43.59224" lon="5.08266">
        <ele>65</ele>
        <time>2019-12-16T15:04:16Z</time>
      </trkpt>
      <trkpt lat="43.59225" lon="5.08265">
        <ele>65</ele>
        <time>2019-12-16T15:04:17Z</time>
      </trkpt>
      <trkpt lat="43.59226" lon="5.08264">
        <ele>65</ele>
        <time>2019-12-16T15:04:18Z</time>
      </trkpt>
      <trkpt lat="43.59227" lon="5.08263">
        <ele>65</ele>
        <time>2019-12-16T15:04:19Z</time>
      </trkpt>
      <trkpt lat="43.59229" lon="5.08262">
        <ele>65</ele>
        <time>2019-12-16T15:04:20Z</time>
      </trkpt>
      <trkpt lat="43.5923" lon="5.08261">
        <ele>65</ele>
        <time>2019-12-16T15:04:21Z</time>
      </trkpt>
      <trkpt lat="43.59231" lon="5.0826">
        <ele>65</ele>
        <time>2019-12-16T15:04:22Z</time>
      </trkpt>
      <trkpt lat="43.59232" lon="5.08259">
        <ele>65</ele>
        <time>2019-12-16T15:04:23Z</time>
      </trkpt>
      <trkpt lat="43.59233" lon="5.08258">
        <ele>65</ele>
        <time>2019-12-16T15:04:24Z</time>
      </trkpt>
      <trkpt lat="43.59234" lon="5.08257">
        <ele>65</ele>
        <time>2019-12-16T15:04:25Z</time>
      </trkpt>
      <trkpt lat="43.59234" lon="5.08256">
        <ele>65</ele>
        <time>2019-12-16T15:04:26Z</time>
      </trkpt>
      <trkpt lat="43.59235" lon="5.08255">
        <ele>65</ele>
        <time>2019-12-16T15:04:27Z</time>
      </trkpt>
      <trkpt lat="43.59235" lon="5.08255">
        <ele>65</ele>
        <time>2019-12-16T15:04:28Z</time>
      </trkpt>
      <trkpt lat="43.59235" lon="5.08254">
        <ele>65</ele>
        <time>2019-12-16T15:04:29Z</time>
      </trkpt>
      <trkpt lat="43.59236" lon="5.08253">
        <ele>65</ele>
        <time>2019-12-16T15:04:30Z</time>
      </trkpt>
      <trkpt lat="43.59236" lon="5.08252">
        <ele>65</ele>
        <time>2019-12-16T15:04:31Z</time>
      </trkpt>
      <trkpt lat="43.59235" lon="5.08252">
        <ele>65</ele>
        <time>2019-12-16T15:04:32Z</time>
      </trkpt>
      <trkpt lat="43.59235" lon="5.08251">
        <ele>65</ele>
        <time>2019-12-16T15:04:33Z</time>
      </trkpt>
      <trkpt lat="43.59235" lon="5.08251">
        <ele>65</ele>
        <time>2019-12-16T15:04:34Z</time>
      </trkpt>
      <trkpt lat="43.59234" lon="5.0825">
        <ele>65</ele>
        <time>2019-12-16T15:04:35Z</time>
      </trkpt>
      <trkpt lat="43.59234" lon="5.08249">
        <ele>64</ele>
        <time>2019-12-16T15:04:36Z</time>
      </trkpt>
      <trkpt lat="43.59233" lon="5.08249">
        <ele>64</ele>
        <time>2019-12-16T15:04:37Z</time>
      </trkpt>
      <trkpt lat="43.59232" lon="5.08248">
        <ele>64</ele>
        <time>2019-12-16T15:04:38Z</time>
      </trkpt>
      <trkpt lat="43.59232" lon="5.08248">
        <ele>64</ele>
        <time>2019-12-16T15:04:39Z</time>
      </trkpt>
      <trkpt lat="43.59231" lon="5.08247">
        <ele>64</ele>
        <time>2019-12-16T15:04:40Z</time>
      </trkpt>
      <trkpt lat="43.5923" lon="5.08247">
        <ele>64</ele>
        <time>2019-12-16T15:04:41Z</time>
      </trkpt>
      <trkpt lat="43.59229" lon="5.08246">
        <ele>64</ele>
        <time>2019-12-16T15:04:42Z</time>
      </trkpt>
      <trkpt lat="43.59228" lon="5.08246">
        <ele>64</ele>
        <time>2019-12-16T15:04:43Z</time>
      </trkpt>
      <trkpt lat="43.59228" lon="5.08245">
        <ele>64</ele>
        <time>2019-12-16T15:04:44Z</time>
      </trkpt>
      <trkpt lat="43.59227" lon="5.08245">
        <ele>64</ele>
        <time>2019-12-16T15:04:45Z</time>
      </trkpt>
      <trkpt lat="43.59226" lon="5.08245">
        <ele>64</ele>
        <time>2019-12-16T15:04:46Z</time>
      </trkpt>
      <trkpt lat="43.59225" lon="5.08244">
        <ele>64</ele>
        <time>2019-12-16T15:04:47Z</time>
      </trkpt>
      <trkpt lat="43.59224" lon="5.08244">
        <ele>64</ele>
        <time>2019-12-16T15:04:48Z</time>
      </trkpt>
      <trkpt lat="43.59223" lon="5.08243">
        <ele>64</ele>
        <time>2019-12-16T15:04:49Z</time>
      </trkpt>
      <trkpt lat="43.59223" lon="5.08243">
        <ele>64</ele>
        <time>2019-12-16T15:04:50Z</time>
      </trkpt>
      <trkpt lat="43.59223" lon="5.08243">
        <ele>64</ele>
        <time>2019-12-16T15:04:51Z</time>
      </trkpt>
      <trkpt lat="43.59223" lon="5.08243">
        <ele>64</ele>
        <time>2019-12-16T15:04:52Z</time>
      </trkpt>
      <trkpt lat="43.59223" lon="5.08243">
        <ele>64</ele>
        <time>2019-12-16T15:04:53Z</time>
      </trkpt>
      <trkpt lat="43.59223" lon="5.08243">
        <ele>64</ele>
        <time>2019-12-16T15:04:54Z</time>
      </trkpt>
      <trkpt lat="43.59223" lon="5.08243">
        <ele>64</ele>
        <time>2019-12-16T15:04:55Z</time>
      </trkpt>
      <trkpt lat="43.59223" lon="5.08243">
        <ele>64</ele>
        <time>2019-12-16T15:04:56Z</time>
      </trkpt>
      <trkpt lat="43.59223" lon="5.08243">
        <ele>64</ele>
        <time>2019-12-16T15:04:57Z</time>
      </trkpt>
      <trkpt lat="43.59223" lon="5.08243">
        <ele>64</ele>
        <time>2019-12-16T15:04:58Z</time>
      </trkpt>
      <trkpt lat="43.59223" lon="5.08243">
        <ele>64</ele>
        <time>2019-12-16T15:04:59Z</time>
      </trkpt>
      <trkpt lat="43.59223" lon="5.08243">
        <ele>64</ele>
        <time>2019-12-16T15:05:00Z</time>
      </trkpt>
      <trkpt lat="43.59223" lon="5.08243">
        <ele>64</ele>
        <time>2019-12-16T15:05:01Z</time>
      </trkpt>
      <trkpt lat="43.59223" lon="5.08243">
        <ele>64</ele>
        <time>2019-12-16T15:05:02Z</time>
      </trkpt>
      <trkpt lat="43.59223" lon="5.08244">
        <ele>64</ele>
        <time>2019-12-16T15:05:03Z</time>
      </trkpt>
      <trkpt lat="43.59223" lon="5.08245">
        <ele>64</ele>
        <time>2019-12-16T15:05:04Z</time>
      </trkpt>
      <trkpt lat="43.59224" lon="5.08245">
        <ele>64</ele>
        <time>2019-12-16T15:05:05Z</time>
      </trkpt>
      <trkpt lat="43.59224" lon="5.08246">
        <ele>64</ele>
        <time>2019-12-16T15:05:06Z</time>
      </trkpt>
      <trkpt lat="43.59225" lon="5.08246">
        <ele>64</ele>
        <time>2019-12-16T15:05:07Z</time>
      </trkpt>
      <trkpt lat="43.59225" lon="5.08247">
        <ele>64</ele>
        <time>2019-12-16T15:05:08Z</time>
      </trkpt>
      <trkpt lat="43.59226" lon="5.08247">
        <ele>64</ele>
        <time>2019-12-16T15:05:09Z</time>
      </trkpt>
      <trkpt lat="43.59227" lon="5.08247">
        <ele>64</ele>
        <time>2019-12-16T15:05:10Z</time>
      </trkpt>
      <trkpt lat="43.59228" lon="5.08247">
        <ele>64</ele>
        <time>2019-12-16T15:05:11Z</time>
      </trkpt>
      <trkpt lat="43.59229" lon="5.08247">
        <ele>64</ele>
        <time>2019-12-16T15:05:12Z</time>
      </trkpt>
      <trkpt lat="43.5923" lon="5.08247">
        <ele>64</ele>
        <time>2019-12-16T15:05:13Z</time>
      </trkpt>
      <trkpt lat="43.59232" lon="5.08247">
        <ele>64</ele>
        <time>2019-12-16T15:05:14Z</time>
      </trkpt>
      <trkpt lat="43.59233" lon="5.08247">
        <ele>64</ele>
        <time>2019-12-16T15:05:15Z</time>
      </trkpt>
      <trkpt lat="43.59234" lon="5.08247">
        <ele>64</ele>
        <time>2019-12-16T15:05:16Z</time>
      </trkpt>
      <trkpt lat="43.59235" lon="5.08246">
        <ele>64</ele>
        <time>2019-12-16T15:05:17Z</time>
      </trkpt>
      <trkpt lat="43.59236" lon="5.08246">
        <ele>64</ele>
        <time>2019-12-16T15:05:18Z</time>
      </trkpt>
      <trkpt lat="43.59237" lon="5.08246">
        <ele>64</ele>
        <time>2019-12-16T15:05:19Z</time>
      </trkpt>
      <trkpt lat="43.59239" lon="5.08246">
        <ele>65</ele>
        <time>2019-12-16T15:05:20Z</time>
      </trkpt>
      <trkpt lat="43.5924" lon="5.08246">
        <ele>65</ele>
        <time>2019-12-16T15:05:21Z</time>
      </trkpt>
      <trkpt lat="43.59241" lon="5.08245">
        <ele>65</ele>
        <time>2019-12-16T15:05:22Z</time>
      </trkpt>
      <trkpt lat="43.59242" lon="5.08245">
        <ele>65</ele>
        <time>2019-12-16T15:05:23Z</time>
      </trkpt>
      <trkpt lat="43.59243" lon="5.08245">
        <ele>65</ele>
        <time>2019-12-16T15:05:24Z</time>
      </trkpt>
      <trkpt lat="43.59244" lon="5.08245">
        <ele>65</ele>
        <time>2019-12-16T15:05:25Z</time>
      </trkpt>
      <trkpt lat="43.59245" lon="5.08244">
        <ele>65</ele>
        <time>2019-12-16T15:05:26Z</time>
      </trkpt>
      <trkpt lat="43.59246" lon="5.08244">
        <ele>65</ele>
        <time>2019-12-16T15:05:27Z</time>
      </trkpt>
      <trkpt lat="43.59247" lon="5.08243">
        <ele>65</ele>
        <time>2019-12-16T15:05:28Z</time>
      </trkpt>
      <trkpt lat="43.59248" lon="5.08242">
        <ele>65</ele>
        <time>2019-12-16T15:05:29Z</time>
      </trkpt>
      <trkpt lat="43.59249" lon="5.08241">
        <ele>65</ele>
        <time>2019-12-16T15:05:30Z</time>
      </trkpt>
      <trkpt lat="43.59251" lon="5.0824">
        <ele>65</ele>
        <time>2019-12-16T15:05:31Z</time>
      </trkpt>
      <trkpt lat="43.59252" lon="5.08239">
        <ele>66</ele>
        <time>2019-12-16T15:05:32Z</time>
      </trkpt>
      <trkpt lat="43.59252" lon="5.08238">
        <ele>66</ele>
        <time>2019-12-16T15:05:33Z</time>
      </trkpt>
      <trkpt lat="43.59253" lon="5.08238">
        <ele>66</ele>
        <time>2019-12-16T15:05:34Z</time>
      </trkpt>
      <trkpt lat="43.59253" lon="5.08237">
        <ele>66</ele>
        <time>2019-12-16T15:05:35Z</time>
      </trkpt>
      <trkpt lat="43.59254" lon="5.08237">
        <ele>66</ele>
        <time>2019-12-16T15:05:36Z</time>
      </trkpt>
      <trkpt lat="43.59254" lon="5.08237">
        <ele>66</ele>
        <time>2019-12-16T15:05:37Z</time>
      </trkpt>
      <trkpt lat="43.59255" lon="5.08236">
        <ele>66</ele>
        <time>2019-12-16T15:05:38Z</time>
      </trkpt>
      <trkpt lat="43.59255" lon="5.08236">
        <ele>66</ele>
        <time>2019-12-16T15:05:39Z</time>
      </trkpt>
      <trkpt lat="43.59256" lon="5.08235">
        <ele>66</ele>
        <time>2019-12-16T15:05:40Z</time>
      </trkpt>
      <trkpt lat="43.59257" lon="5.08234">
        <ele>66</ele>
        <time>2019-12-16T15:05:41Z</time>
      </trkpt>
      <trkpt lat="43.59258" lon="5.08233">
        <ele>66</ele>
        <time>2019-12-16T15:05:42Z</time>
      </trkpt>
      <trkpt lat="43.59258" lon="5.08232">
        <ele>66</ele>
        <time>2019-12-16T15:05:43Z</time>
      </trkpt>
      <trkpt lat="43.59259" lon="5.08231">
        <ele>66</ele>
        <time>2019-12-16T15:05:44Z</time>
      </trkpt>
      <trkpt lat="43.59261" lon="5.0823">
        <ele>66</ele>
        <time>2019-12-16T15:05:45Z</time>
      </trkpt>
      <trkpt lat="43.59262" lon="5.08229">
        <ele>66</ele>
        <time>2019-12-16T15:05:46Z</time>
      </trkpt>
      <trkpt lat="43.59263" lon="5.08228">
        <ele>66</ele>
        <time>2019-12-16T15:05:47Z</time>
      </trkpt>
      <trkpt lat="43.59264" lon="5.08227">
        <ele>66</ele>
        <time>2019-12-16T15:05:48Z</time>
      </trkpt>
      <trkpt lat="43.59265" lon="5.08227">
        <ele>66</ele>
        <time>2019-12-16T15:05:49Z</time>
      </trkpt>
      <trkpt lat="43.59266" lon="5.08226">
        <ele>66</ele>
        <time>2019-12-16T15:05:50Z</time>
      </trkpt>
      <trkpt lat="43.59267" lon="5.08225">
        <ele>66</ele>
        <time>2019-12-16T15:05:51Z</time>
      </trkpt>
      <trkpt lat="43.59268" lon="5.08225">
        <ele>66</ele>
        <time>2019-12-16T15:05:52Z</time>
      </trkpt>
      <trkpt lat="43.59269" lon="5.08224">
        <ele>66</ele>
        <time>2019-12-16T15:05:53Z</time>
      </trkpt>
      <trkpt lat="43.5927" lon="5.08223">
        <ele>66</ele>
        <time>2019-12-16T15:05:54Z</time>
      </trkpt>
      <trkpt lat="43.59271" lon="5.08223">
        <ele>66</ele>
        <time>2019-12-16T15:05:55Z</time>
      </trkpt>
      <trkpt lat="43.59272" lon="5.08222">
        <ele>66</ele>
        <time>2019-12-16T15:05:56Z</time>
      </trkpt>
      <trkpt lat="43.59274" lon="5.08222">
        <ele>66</ele>
        <time>2019-12-16T15:05:57Z</time>
      </trkpt>
      <trkpt lat="43.59275" lon="5.08222">
        <ele>66</ele>
        <time>2019-12-16T15:05:58Z</time>
      </trkpt>
      <trkpt lat="43.59276" lon="5.08221">
        <ele>66</ele>
        <time>2019-12-16T15:05:59Z</time>
      </trkpt>
      <trkpt lat="43.59277" lon="5.08221">
        <ele>66</ele>
        <time>2019-12-16T15:06:00Z</time>
      </trkpt>
      <trkpt lat="43.59278" lon="5.0822">
        <ele>66</ele>
        <time>2019-12-16T15:06:01Z</time>
      </trkpt>
      <trkpt lat="43.59279" lon="5.0822">
        <ele>66</ele>
        <time>2019-12-16T15:06:02Z</time>
      </trkpt>
      <trkpt lat="43.5928" lon="5.08219">
        <ele>66</ele>
        <time>2019-12-16T15:06:03Z</time>
      </trkpt>
      <trkpt lat="43.59281" lon="5.08219">
        <ele>66</ele>
        <time>2019-12-16T15:06:04Z</time>
      </trkpt>
      <trkpt lat="43.59282" lon="5.08218">
        <ele>66</ele>
        <time>2019-12-16T15:06:05Z</time>
      </trkpt>
      <trkpt lat="43.59283" lon="5.08218">
        <ele>66</ele>
        <time>2019-12-16T15:06:06Z</time>
      </trkpt>
      <trkpt lat="43.59284" lon="5.08217">
        <ele>66</ele>
        <time>2019-12-16T15:06:07Z</time>
      </trkpt>
      <trkpt lat="43.59285" lon="5.08216">
        <ele>66</ele>
        <time>2019-12-16T15:06:08Z</time>
      </trkpt>
      <trkpt lat="43.59285" lon="5.08215">
        <ele>66</ele>
        <time>2019-12-16T15:06:09Z</time>
      </trkpt>
      <trkpt lat="43.59286" lon="5.08214">
        <ele>66</ele>
        <time>2019-12-16T15:06:10Z</time>
      </trkpt>
      <trkpt lat="43.59287" lon="5.08213">
        <ele>66</ele>
        <time>2019-12-16T15:06:11Z</time>
      </trkpt>
      <trkpt lat="43.59288" lon="5.08212">
        <ele>66</ele>
        <time>2019-12-16T15:06:12Z</time>
      </trkpt>
      <trkpt lat="43.59289" lon="5.08211">
        <ele>66</ele>
        <time>2019-12-16T15:06:13Z</time>
      </trkpt>
      <trkpt lat="43.5929" lon="5.0821">
        <ele>66</ele>
        <time>2019-12-16T15:06:14Z</time>
      </trkpt>
      <trkpt lat="43.5929" lon="5.08209">
        <ele>66</ele>
        <time>2019-12-16T15:06:15Z</time>
      </trkpt>
      <trkpt lat="43.59291" lon="5.08208">
        <ele>66</ele>
        <time>2019-12-16T15:06:16Z</time>
      </trkpt>
      <trkpt lat="43.59292" lon="5.08208">
        <ele>67</ele>
        <time>2019-12-16T15:06:17Z</time>
      </trkpt>
      <trkpt lat="43.59292" lon="5.08207">
        <ele>67</ele>
        <time>2019-12-16T15:06:18Z</time>
      </trkpt>
      <trkpt lat="43.59293" lon="5.08206">
        <ele>67</ele>
        <time>2019-12-16T15:06:19Z</time>
      </trkpt>
      <trkpt lat="43.59294" lon="5.08206">
        <ele>67</ele>
        <time>2019-12-16T15:06:20Z</time>
      </trkpt>
      <trkpt lat="43.59294" lon="5.08206">
        <ele>67</ele>
        <time>2019-12-16T15:06:21Z</time>
      </trkpt>
      <trkpt lat="43.59294" lon="5.08205">
        <ele>67</ele>
        <time>2019-12-16T15:06:22Z</time>
      </trkpt>
      <trkpt lat="43.59295" lon="5.08205">
        <ele>67</ele>
        <time>2019-12-16T15:06:23Z</time>
      </trkpt>
      <trkpt lat="43.59295" lon="5.08205">
        <ele>67</ele>
        <time>2019-12-16T15:06:24Z</time>
      </trkpt>
      <trkpt lat="43.59295" lon="5.08205">
        <ele>67</ele>
        <time>2019-12-16T15:06:25Z</time>
      </trkpt>
      <trkpt lat="43.59296" lon="5.08204">
        <ele>67</ele>
        <time>2019-12-16T15:06:26Z</time>
      </trkpt>
      <trkpt lat="43.59296" lon="5.08204">
        <ele>67</ele>
        <time>2019-12-16T15:06:27Z</time>
      </trkpt>
      <trkpt lat="43.59296" lon="5.08204">
        <ele>67</ele>
        <time>2019-12-16T15:06:28Z</time>
      </trkpt>
      <trkpt lat="43.59296" lon="5.08204">
        <ele>67</ele>
        <time>2019-12-16T15:06:29Z</time>
      </trkpt>
      <trkpt lat="43.59296" lon="5.08203">
        <ele>67</ele>
        <time>2019-12-16T15:06:30Z</time>
      </trkpt>
      <trkpt lat="43.59297" lon="5.08203">
        <ele>67</ele>
        <time>2019-12-16T15:06:31Z</time>
      </trkpt>
      <trkpt lat="43.59297" lon="5.08203">
        <ele>67</ele>
        <time>2019-12-16T15:06:32Z</time>
      </trkpt>
      <trkpt lat="43.59297" lon="5.08202">
        <ele>67</ele>
        <time>2019-12-16T15:06:33Z</time>
      </trkpt>
      <trkpt lat="43.59297" lon="5.08202">
        <ele>67</ele>
        <time>2019-12-16T15:06:34Z</time>
      </trkpt>
      <trkpt lat="43.59297" lon="5.08202">
        <ele>67</ele>
        <time>2019-12-16T15:06:35Z</time>
      </trkpt>
      <trkpt lat="43.59297" lon="5.08201">
        <ele>67</ele>
        <time>2019-12-16T15:06:36Z</time>
      </trkpt>
      <trkpt lat="43.59297" lon="5.08201">
        <ele>67</ele>
        <time>2019-12-16T15:06:37Z</time>
      </trkpt>
      <trkpt lat="43.59297" lon="5.08201">
        <ele>67</ele>
        <time>2019-12-16T15:06:38Z</time>
      </trkpt>
      <trkpt lat="43.59297" lon="5.082">
        <ele>67</ele>
        <time>2019-12-16T15:06:39Z</time>
      </trkpt>
      <trkpt lat="43.59297" lon="5.082">
        <ele>67</ele>
        <time>2019-12-16T15:06:40Z</time>
      </trkpt>
      <trkpt lat="43.59297" lon="5.082">
        <ele>67</ele>
        <time>2019-12-16T15:06:41Z</time>
      </trkpt>
      <trkpt lat="43.59297" lon="5.082">
        <ele>67</ele>
        <time>2019-12-16T15:06:42Z</time>
      </trkpt>
      <trkpt lat="43.59297" lon="5.082">
        <ele>67</ele>
        <time>2019-12-16T15:06:43Z</time>
      </trkpt>
      <trkpt lat="43.59297" lon="5.082">
        <ele>67</ele>
        <time>2019-12-16T15:06:44Z</time>
      </trkpt>
      <trkpt lat="43.59297" lon="5.082">
        <ele>67</ele>
        <time>2019-12-16T15:06:45Z</time>
      </trkpt>
      <trkpt lat="43.59297" lon="5.082">
        <ele>67</ele>
        <time>2019-12-16T15:06:46Z</time>
      </trkpt>
      <trkpt lat="43.59297" lon="5.082">
        <ele>67</ele>
        <time>2019-12-16T15:06:47Z</time>
      </trkpt>
      <trkpt lat="43.59297" lon="5.082">
        <ele>67</ele>
        <time>2019-12-16T15:06:48Z</time>
      </trkpt>
      <trkpt lat="43.59297" lon="5.082">
        <ele>67</ele>
        <time>2019-12-16T15:06:49Z</time>
      </trkpt>
      <trkpt lat="43.59297" lon="5.082">
        <ele>67</ele>
        <time>2019-12-16T15:06:50Z</time>
      </trkpt>
      <trkpt lat="43.59297" lon="5.082">
        <ele>67</ele>
        <time>2019-12-16T15:06:51Z</time>
      </trkpt>
      <trkpt lat="43.59297" lon="5.082">
        <ele>67</ele>
        <time>2019-12-16T15:06:52Z</time>
      </trkpt>
      <trkpt lat="43.59297" lon="5.082">
        <ele>67</ele>
        <time>2019-12-16T15:06:53Z</time>
      </trkpt>
      <trkpt lat="43.59297" lon="5.082">
        <ele>67</ele>
        <time>2019-12-16T15:06:54Z</time>
      </trkpt>
      <trkpt lat="43.59297" lon="5.082">
        <ele>67</ele>
        <time>2019-12-16T15:06:55Z</time>
      </trkpt>
      <trkpt lat="43.59297" lon="5.082">
        <ele>67</ele>
        <time>2019-12-16T15:06:56Z</time>
      </trkpt>
      <trkpt lat="43.59297" lon="5.082">
        <ele>67</ele>
        <time>2019-12-16T15:06:57Z</time>
      </trkpt>
      <trkpt lat="43.59297" lon="5.082">
        <ele>67</ele>
        <time>2019-12-16T15:06:58Z</time>
      </trkpt>
      <trkpt lat="43.59297" lon="5.082">
        <ele>67</ele>
        <time>2019-12-16T15:06:59Z</time>
      </trkpt>
      <trkpt lat="43.59297" lon="5.082">
        <ele>67</ele>
        <time>2019-12-16T15:07:00Z</time>
      </trkpt>
      <trkpt lat="43.59297" lon="5.082">
        <ele>67</ele>
        <time>2019-12-16T15:07:01Z</time>
      </trkpt>
      <trkpt lat="43.59297" lon="5.082">
        <ele>67</ele>
        <time>2019-12-16T15:07:02Z</time>
      </trkpt>
      <trkpt lat="43.59297" lon="5.082">
        <ele>67</ele>
        <time>2019-12-16T15:07:03Z</time>
      </trkpt>
      <trkpt lat="43.59297" lon="5.082">
        <ele>67</ele>
        <time>2019-12-16T15:07:04Z</time>
      </trkpt>
      <trkpt lat="43.59297" lon="5.082">
        <ele>67</ele>
        <time>2019-12-16T15:07:05Z</time>
      </trkpt>
      <trkpt lat="43.59297" lon="5.082">
        <ele>67</ele>
        <time>2019-12-16T15:07:06Z</time>
      </trkpt>
      <trkpt lat="43.59297" lon="5.082">
        <ele>67</ele>
        <time>2019-12-16T15:07:07Z</time>
      </trkpt>
      <trkpt lat="43.59297" lon="5.082">
        <ele>67</ele>
        <time>2019-12-16T15:07:08Z</time>
      </trkpt>
      <trkpt lat="43.59297" lon="5.082">
        <ele>67</ele>
        <time>2019-12-16T15:07:09Z</time>
      </trkpt>
      <trkpt lat="43.59297" lon="5.082">
        <ele>67</ele>
        <time>2019-12-16T15:07:10Z</time>
      </trkpt>
      <trkpt lat="43.59297" lon="5.082">
        <ele>67</ele>
        <time>2019-12-16T15:07:11Z</time>
      </trkpt>
      <trkpt lat="43.59297" lon="5.082">
        <ele>67</ele>
        <time>2019-12-16T15:07:12Z</time>
      </trkpt>
      <trkpt lat="43.59297" lon="5.082">
        <ele>67</ele>
        <time>2019-12-16T15:07:13Z</time>
      </trkpt>
      <trkpt lat="43.59297" lon="5.082">
        <ele>67</ele>
        <time>2019-12-16T15:07:14Z</time>
      </trkpt>
      <trkpt lat="43.59297" lon="5.082">
        <ele>67</ele>
        <time>2019-12-16T15:07:15Z</time>
      </trkpt>
      <trkpt lat="43.59297" lon="5.082">
        <ele>67</ele>
        <time>2019-12-16T15:07:16Z</time>
      </trkpt>
      <trkpt lat="43.59297" lon="5.082">
        <ele>67</ele>
        <time>2019-12-16T15:07:17Z</time>
      </trkpt>
      <trkpt lat="43.59297" lon="5.082">
        <ele>67</ele>
        <time>2019-12-16T15:07:18Z</time>
      </trkpt>
      <trkpt lat="43.59297" lon="5.082">
        <ele>67</ele>
        <time>2019-12-16T15:07:19Z</time>
      </trkpt>
      <trkpt lat="43.59297" lon="5.082">
        <ele>67</ele>
        <time>2019-12-16T15:07:20Z</time>
      </trkpt>
      <trkpt lat="43.59297" lon="5.082">
        <ele>67</ele>
        <time>2019-12-16T15:07:21Z</time>
      </trkpt>
      <trkpt lat="43.59298" lon="5.082">
        <ele>67</ele>
        <time>2019-12-16T15:07:22Z</time>
      </trkpt>
      <trkpt lat="43.59298" lon="5.08199">
        <ele>67</ele>
        <time>2019-12-16T15:07:23Z</time>
      </trkpt>
      <trkpt lat="43.59299" lon="5.08199">
        <ele>67</ele>
        <time>2019-12-16T15:07:24Z</time>
      </trkpt>
      <trkpt lat="43.593" lon="5.08199">
        <ele>67</ele>
        <time>2019-12-16T15:07:25Z</time>
      </trkpt>
      <trkpt lat="43.593" lon="5.08199">
        <ele>67</ele>
        <time>2019-12-16T15:07:26Z</time>
      </trkpt>
      <trkpt lat="43.593" lon="5.08199">
        <ele>67</ele>
        <time>2019-12-16T15:07:27Z</time>
      </trkpt>
      <trkpt lat="43.593" lon="5.08199">
        <ele>67</ele>
        <time>2019-12-16T15:07:28Z</time>
      </trkpt>
      <trkpt lat="43.593" lon="5.08199">
        <ele>67</ele>
        <time>2019-12-16T15:07:29Z</time>
      </trkpt>
      <trkpt lat="43.59301" lon="5.08199">
        <ele>67</ele>
        <time>2019-12-16T15:07:30Z</time>
      </trkpt>
      <trkpt lat="43.59301" lon="5.082">
        <ele>67</ele>
        <time>2019-12-16T15:07:31Z</time>
      </trkpt>
      <trkpt lat="43.59302" lon="5.082">
        <ele>67</ele>
        <time>2019-12-16T15:07:32Z</time>
      </trkpt>
      <trkpt lat="43.59302" lon="5.082">
        <ele>67</ele>
        <time>2019-12-16T15:07:33Z</time>
      </trkpt>
      <trkpt lat="43.59303" lon="5.08201">
        <ele>67</ele>
        <time>2019-12-16T15:07:34Z</time>
      </trkpt>
      <trkpt lat="43.59303" lon="5.08201">
        <ele>67</ele>
        <time>2019-12-16T15:07:35Z</time>
      </trkpt>
      <trkpt lat="43.59304" lon="5.08202">
        <ele>67</ele>
        <time>2019-12-16T15:07:36Z</time>
      </trkpt>
      <trkpt lat="43.59304" lon="5.08202">
        <ele>67</ele>
        <time>2019-12-16T15:07:37Z</time>
      </trkpt>
      <trkpt lat="43.59304" lon="5.08202">
        <ele>67</ele>
        <time>2019-12-16T15:07:38Z</time>
      </trkpt>
      <trkpt lat="43.59305" lon="5.08202">
        <ele>67</ele>
        <time>2019-12-16T15:07:39Z</time>
      </trkpt>
      <trkpt lat="43.59305" lon="5.08202">
        <ele>67</ele>
        <time>2019-12-16T15:07:40Z</time>
      </trkpt>
      <trkpt lat="43.59305" lon="5.08202">
        <ele>67</ele>
        <time>2019-12-16T15:07:41Z</time>
      </trkpt>
      <trkpt lat="43.59305" lon="5.08202">
        <ele>67</ele>
        <time>2019-12-16T15:07:42Z</time>
      </trkpt>
      <trkpt lat="43.59305" lon="5.08202">
        <ele>67</ele>
        <time>2019-12-16T15:07:43Z</time>
      </trkpt>
      <trkpt lat="43.59305" lon="5.08202">
        <ele>67</ele>
        <time>2019-12-16T15:07:44Z</time>
      </trkpt>
      <trkpt lat="43.59305" lon="5.08202">
        <ele>67</ele>
        <time>2019-12-16T15:07:45Z</time>
      </trkpt>
      <trkpt lat="43.59305" lon="5.08202">
        <ele>67</ele>
        <time>2019-12-16T15:07:46Z</time>
      </trkpt>
      <trkpt lat="43.59305" lon="5.08202">
        <ele>67</ele>
        <time>2019-12-16T15:07:47Z</time>
      </trkpt>
      <trkpt lat="43.59305" lon="5.08202">
        <ele>67</ele>
        <time>2019-12-16T15:07:48Z</time>
      </trkpt>
      <trkpt lat="43.59306" lon="5.08202">
        <ele>67</ele>
        <time>2019-12-16T15:07:49Z</time>
      </trkpt>
      <trkpt lat="43.59306" lon="5.08202">
        <ele>67</ele>
        <time>2019-12-16T15:07:50Z</time>
      </trkpt>
      <trkpt lat="43.59307" lon="5.08202">
        <ele>67</ele>
        <time>2019-12-16T15:07:51Z</time>
      </trkpt>
      <trkpt lat="43.59307" lon="5.08202">
        <ele>67</ele>
        <time>2019-12-16T15:07:52Z</time>
      </trkpt>
      <trkpt lat="43.59307" lon="5.08202">
        <ele>67</ele>
        <time>2019-12-16T15:07:53Z</time>
      </trkpt>
      <trkpt lat="43.59307" lon="5.08202">
        <ele>67</ele>
        <time>2019-12-16T15:07:54Z</time>
      </trkpt>
      <trkpt lat="43.59306" lon="5.08202">
        <ele>67</ele>
        <time>2019-12-16T15:07:55Z</time>
      </trkpt>
      <trkpt lat="43.59305" lon="5.08202">
        <ele>67</ele>
        <time>2019-12-16T15:07:56Z</time>
      </trkpt>
      <trkpt lat="43.59304" lon="5.08202">
        <ele>67</ele>
        <time>2019-12-16T15:07:57Z</time>
      </trkpt>
      <trkpt lat="43.59303" lon="5.08202">
        <ele>67</ele>
        <time>2019-12-16T15:07:58Z</time>
      </trkpt>
      <trkpt lat="43.59302" lon="5.08202">
        <ele>67</ele>
        <time>2019-12-16T15:07:59Z</time>
      </trkpt>
      <trkpt lat="43.59301" lon="5.08202">
        <ele>67</ele>
        <time>2019-12-16T15:08:00Z</time>
      </trkpt>
      <trkpt lat="43.593" lon="5.08203">
        <ele>67</ele>
        <time>2019-12-16T15:08:01Z</time>
      </trkpt>
      <trkpt lat="43.59299" lon="5.08204">
        <ele>67</ele>
        <time>2019-12-16T15:08:02Z</time>
      </trkpt>
      <trkpt lat="43.59299" lon="5.08205">
        <ele>67</ele>
        <time>2019-12-16T15:08:03Z</time>
      </trkpt>
      <trkpt lat="43.59298" lon="5.08206">
        <ele>67</ele>
        <time>2019-12-16T15:08:04Z</time>
      </trkpt>
      <trkpt lat="43.59298" lon="5.08207">
        <ele>67</ele>
        <time>2019-12-16T15:08:05Z</time>
      </trkpt>
      <trkpt lat="43.59297" lon="5.08208">
        <ele>67</ele>
        <time>2019-12-16T15:08:06Z</time>
      </trkpt>
      <trkpt lat="43.59297" lon="5.08209">
        <ele>67</ele>
        <time>2019-12-16T15:08:07Z</time>
      </trkpt>
      <trkpt lat="43.59297" lon="5.08211">
        <ele>67</ele>
        <time>2019-12-16T15:08:08Z</time>
      </trkpt>
      <trkpt lat="43.59297" lon="5.08212">
        <ele>67</ele>
        <time>2019-12-16T15:08:09Z</time>
      </trkpt>
      <trkpt lat="43.59297" lon="5.08213">
        <ele>67</ele>
        <time>2019-12-16T15:08:10Z</time>
      </trkpt>
      <trkpt lat="43.59297" lon="5.08215">
        <ele>67</ele>
        <time>2019-12-16T15:08:11Z</time>
      </trkpt>
      <trkpt lat="43.59297" lon="5.08216">
        <ele>67</ele>
        <time>2019-12-16T15:08:12Z</time>
      </trkpt>
      <trkpt lat="43.59297" lon="5.08217">
        <ele>67</ele>
        <time>2019-12-16T15:08:13Z</time>
      </trkpt>
      <trkpt lat="43.59297" lon="5.08218">
        <ele>67</ele>
        <time>2019-12-16T15:08:14Z</time>
      </trkpt>
      <trkpt lat="43.59297" lon="5.08219">
        <ele>67</ele>
        <time>2019-12-16T15:08:15Z</time>
      </trkpt>
      <trkpt lat="43.59297" lon="5.0822">
        <ele>67</ele>
        <time>2019-12-16T15:08:16Z</time>
      </trkpt>
      <trkpt lat="43.59298" lon="5.08221">
        <ele>67</ele>
        <time>2019-12-16T15:08:17Z</time>
      </trkpt>
      <trkpt lat="43.59298" lon="5.08222">
        <ele>67</ele>
        <time>2019-12-16T15:08:18Z</time>
      </trkpt>
      <trkpt lat="43.59298" lon="5.08222">
        <ele>67</ele>
        <time>2019-12-16T15:08:19Z</time>
      </trkpt>
      <trkpt lat="43.59298" lon="5.08223">
        <ele>67</ele>
        <time>2019-12-16T15:08:20Z</time>
      </trkpt>
      <trkpt lat="43.59299" lon="5.08223">
        <ele>67</ele>
        <time>2019-12-16T15:08:21Z</time>
      </trkpt>
      <trkpt lat="43.59299" lon="5.08224">
        <ele>67</ele>
        <time>2019-12-16T15:08:22Z</time>
      </trkpt>
      <trkpt lat="43.593" lon="5.08224">
        <ele>67</ele>
        <time>2019-12-16T15:08:23Z</time>
      </trkpt>
      <trkpt lat="43.593" lon="5.08224">
        <ele>67</ele>
        <time>2019-12-16T15:08:24Z</time>
      </trkpt>
      <trkpt lat="43.593" lon="5.08225">
        <ele>67</ele>
        <time>2019-12-16T15:08:25Z</time>
      </trkpt>
      <trkpt lat="43.59301" lon="5.08225">
        <ele>67</ele>
        <time>2019-12-16T15:08:26Z</time>
      </trkpt>
      <trkpt lat="43.59301" lon="5.08225">
        <ele>67</ele>
        <time>2019-12-16T15:08:27Z</time>
      </trkpt>
      <trkpt lat="43.59302" lon="5.08225">
        <ele>67</ele>
        <time>2019-12-16T15:08:28Z</time>
      </trkpt>
      <trkpt lat="43.59302" lon="5.08225">
        <ele>67</ele>
        <time>2019-12-16T15:08:29Z</time>
      </trkpt>
      <trkpt lat="43.59303" lon="5.08225">
        <ele>67</ele>
        <time>2019-12-16T15:08:30Z</time>
      </trkpt>
      <trkpt lat="43.59303" lon="5.08225">
        <ele>67</ele>
        <time>2019-12-16T15:08:31Z</time>
      </trkpt>
      <trkpt lat="43.59304" lon="5.08224">
        <ele>67</ele>
        <time>2019-12-16T15:08:32Z</time>
      </trkpt>
      <trkpt lat="43.59304" lon="5.08224">
        <ele>67</ele>
        <time>2019-12-16T15:08:33Z</time>
      </trkpt>
      <trkpt lat="43.59305" lon="5.08223">
        <ele>67</ele>
        <time>2019-12-16T15:08:34Z</time>
      </trkpt>
      <trkpt lat="43.59306" lon="5.08222">
        <ele>67</ele>
        <time>2019-12-16T15:08:35Z</time>
      </trkpt>
      <trkpt lat="43.59307" lon="5.08222">
        <ele>67</ele>
        <time>2019-12-16T15:08:36Z</time>
      </trkpt>
      <trkpt lat="43.59308" lon="5.08221">
        <ele>67</ele>
        <time>2019-12-16T15:08:37Z</time>
      </trkpt>
      <trkpt lat="43.59308" lon="5.0822">
        <ele>67</ele>
        <time>2019-12-16T15:08:38Z</time>
      </trkpt>
      <trkpt lat="43.59309" lon="5.08219">
        <ele>67</ele>
        <time>2019-12-16T15:08:39Z</time>
      </trkpt>
      <trkpt lat="43.5931" lon="5.08219">
        <ele>67</ele>
        <time>2019-12-16T15:08:40Z</time>
      </trkpt>
      <trkpt lat="43.59311" lon="5.08218">
        <ele>67</ele>
        <time>2019-12-16T15:08:41Z</time>
      </trkpt>
      <trkpt lat="43.59312" lon="5.08217">
        <ele>67</ele>
        <time>2019-12-16T15:08:42Z</time>
      </trkpt>
      <trkpt lat="43.59312" lon="5.08216">
        <ele>67</ele>
        <time>2019-12-16T15:08:43Z</time>
      </trkpt>
      <trkpt lat="43.59313" lon="5.08216">
        <ele>67</ele>
        <time>2019-12-16T15:08:44Z</time>
      </trkpt>
      <trkpt lat="43.59314" lon="5.08215">
        <ele>67</ele>
        <time>2019-12-16T15:08:45Z</time>
      </trkpt>
      <trkpt lat="43.59315" lon="5.08214">
        <ele>67</ele>
        <time>2019-12-16T15:08:46Z</time>
      </trkpt>
      <trkpt lat="43.59316" lon="5.08213">
        <ele>67</ele>
        <time>2019-12-16T15:08:47Z</time>
      </trkpt>
      <trkpt lat="43.59317" lon="5.08213">
        <ele>67</ele>
        <time>2019-12-16T15:08:48Z</time>
      </trkpt>
      <trkpt lat="43.59318" lon="5.08212">
        <ele>67</ele>
        <time>2019-12-16T15:08:49Z</time>
      </trkpt>
      <trkpt lat="43.59318" lon="5.08211">
        <ele>67</ele>
        <time>2019-12-16T15:08:50Z</time>
      </trkpt>
      <trkpt lat="43.59319" lon="5.08211">
        <ele>67</ele>
        <time>2019-12-16T15:08:51Z</time>
      </trkpt>
      <trkpt lat="43.5932" lon="5.0821">
        <ele>67</ele>
        <time>2019-12-16T15:08:52Z</time>
      </trkpt>
      <trkpt lat="43.59321" lon="5.08209">
        <ele>67</ele>
        <time>2019-12-16T15:08:53Z</time>
      </trkpt>
      <trkpt lat="43.59321" lon="5.08209">
        <ele>67</ele>
        <time>2019-12-16T15:08:54Z</time>
      </trkpt>
      <trkpt lat="43.59322" lon="5.08208">
        <ele>67</ele>
        <time>2019-12-16T15:08:55Z</time>
      </trkpt>
      <trkpt lat="43.59323" lon="5.08207">
        <ele>67</ele>
        <time>2019-12-16T15:08:56Z</time>
      </trkpt>
      <trkpt lat="43.59324" lon="5.08206">
        <ele>67</ele>
        <time>2019-12-16T15:08:57Z</time>
      </trkpt>
      <trkpt lat="43.59326" lon="5.08206">
        <ele>67</ele>
        <time>2019-12-16T15:08:58Z</time>
      </trkpt>
      <trkpt lat="43.59327" lon="5.08205">
        <ele>67</ele>
        <time>2019-12-16T15:08:59Z</time>
      </trkpt>
      <trkpt lat="43.59328" lon="5.08204">
        <ele>67</ele>
        <time>2019-12-16T15:09:00Z</time>
      </trkpt>
      <trkpt lat="43.59329" lon="5.08204">
        <ele>67</ele>
        <time>2019-12-16T15:09:01Z</time>
      </trkpt>
      <trkpt lat="43.5933" lon="5.08203">
        <ele>67</ele>
        <time>2019-12-16T15:09:02Z</time>
      </trkpt>
      <trkpt lat="43.59331" lon="5.08203">
        <ele>67</ele>
        <time>2019-12-16T15:09:03Z</time>
      </trkpt>
      <trkpt lat="43.59333" lon="5.08203">
        <ele>67</ele>
        <time>2019-12-16T15:09:04Z</time>
      </trkpt>
      <trkpt lat="43.59334" lon="5.08202">
        <ele>67</ele>
        <time>2019-12-16T15:09:05Z</time>
      </trkpt>
      <trkpt lat="43.59335" lon="5.08202">
        <ele>67</ele>
        <time>2019-12-16T15:09:06Z</time>
      </trkpt>
      <trkpt lat="43.59336" lon="5.08202">
        <ele>67</ele>
        <time>2019-12-16T15:09:07Z</time>
      </trkpt>
      <trkpt lat="43.59337" lon="5.08201">
        <ele>67</ele>
        <time>2019-12-16T15:09:08Z</time>
      </trkpt>
      <trkpt lat="43.59338" lon="5.08201">
        <ele>67</ele>
        <time>2019-12-16T15:09:09Z</time>
      </trkpt>
      <trkpt lat="43.59339" lon="5.082">
        <ele>67</ele>
        <time>2019-12-16T15:09:10Z</time>
      </trkpt>
      <trkpt lat="43.59341" lon="5.08199">
        <ele>67</ele>
        <time>2019-12-16T15:09:11Z</time>
      </trkpt>
      <trkpt lat="43.59342" lon="5.08198">
        <ele>67</ele>
        <time>2019-12-16T15:09:12Z</time>
      </trkpt>
      <trkpt lat="43.59343" lon="5.08197">
        <ele>67</ele>
        <time>2019-12-16T15:09:13Z</time>
      </trkpt>
      <trkpt lat="43.59344" lon="5.08197">
        <ele>67</ele>
        <time>2019-12-16T15:09:14Z</time>
      </trkpt>
      <trkpt lat="43.59345" lon="5.08196">
        <ele>67</ele>
        <time>2019-12-16T15:09:15Z</time>
      </trkpt>
      <trkpt lat="43.59346" lon="5.08195">
        <ele>67</ele>
        <time>2019-12-16T15:09:16Z</time>
      </trkpt>
      <trkpt lat="43.59348" lon="5.08194">
        <ele>67</ele>
        <time>2019-12-16T15:09:17Z</time>
      </trkpt>
      <trkpt lat="43.59349" lon="5.08193">
        <ele>67</ele>
        <time>2019-12-16T15:09:18Z</time>
      </trkpt>
      <trkpt lat="43.5935" lon="5.08192">
        <ele>67</ele>
        <time>2019-12-16T15:09:19Z</time>
      </trkpt>
      <trkpt lat="43.59351" lon="5.08191">
        <ele>67</ele>
        <time>2019-12-16T15:09:20Z</time>
      </trkpt>
      <trkpt lat="43.59352" lon="5.08191">
        <ele>67</ele>
        <time>2019-12-16T15:09:21Z</time>
      </trkpt>
      <trkpt lat="43.59353" lon="5.0819">
        <ele>67</ele>
        <time>2019-12-16T15:09:22Z</time>
      </trkpt>
      <trkpt lat="43.59354" lon="5.0819">
        <ele>67</ele>
        <time>2019-12-16T15:09:23Z</time>
      </trkpt>
      <trkpt lat="43.59355" lon="5.08189">
        <ele>67</ele>
        <time>2019-12-16T15:09:24Z</time>
      </trkpt>
      <trkpt lat="43.59356" lon="5.08189">
        <ele>67</ele>
        <time>2019-12-16T15:09:25Z</time>
      </trkpt>
      <trkpt lat="43.59357" lon="5.08188">
        <ele>67</ele>
        <time>2019-12-16T15:09:26Z</time>
      </trkpt>
      <trkpt lat="43.59358" lon="5.08188">
        <ele>67</ele>
        <time>2019-12-16T15:09:27Z</time>
      </trkpt>
      <trkpt lat="43.59359" lon="5.08188">
        <ele>67</ele>
        <time>2019-12-16T15:09:28Z</time>
      </trkpt>
      <trkpt lat="43.5936" lon="5.08187">
        <ele>67</ele>
        <time>2019-12-16T15:09:29Z</time>
      </trkpt>
      <trkpt lat="43.59361" lon="5.08187">
        <ele>67</ele>
        <time>2019-12-16T15:09:30Z</time>
      </trkpt>
      <trkpt lat="43.59362" lon="5.08186">
        <ele>67</ele>
        <time>2019-12-16T15:09:31Z</time>
      </trkpt>
      <trkpt lat="43.59363" lon="5.08186">
        <ele>67</ele>
        <time>2019-12-16T15:09:32Z</time>
      </trkpt>
      <trkpt lat="43.59364" lon="5.08186">
        <ele>67</ele>
        <time>2019-12-16T15:09:33Z</time>
      </trkpt>
      <trkpt lat="43.59365" lon="5.08185">
        <ele>67</ele>
        <time>2019-12-16T15:09:34Z</time>
      </trkpt>
      <trkpt lat="43.59367" lon="5.08184">
        <ele>67</ele>
        <time>2019-12-16T15:09:35Z</time>
      </trkpt>
      <trkpt lat="43.59368" lon="5.08184">
        <ele>67</ele>
        <time>2019-12-16T15:09:36Z</time>
      </trkpt>
      <trkpt lat="43.59369" lon="5.08183">
        <ele>67</ele>
        <time>2019-12-16T15:09:37Z</time>
      </trkpt>
      <trkpt lat="43.5937" lon="5.08182">
        <ele>67</ele>
        <time>2019-12-16T15:09:38Z</time>
      </trkpt>
      <trkpt lat="43.59371" lon="5.08182">
        <ele>67</ele>
        <time>2019-12-16T15:09:39Z</time>
      </trkpt>
      <trkpt lat="43.59372" lon="5.08181">
        <ele>67</ele>
        <time>2019-12-16T15:09:40Z</time>
      </trkpt>
      <trkpt lat="43.59374" lon="5.0818">
        <ele>67</ele>
        <time>2019-12-16T15:09:41Z</time>
      </trkpt>
      <trkpt lat="43.59375" lon="5.0818">
        <ele>67</ele>
        <time>2019-12-16T15:09:42Z</time>
      </trkpt>
      <trkpt lat="43.59376" lon="5.08179">
        <ele>67</ele>
        <time>2019-12-16T15:09:43Z</time>
      </trkpt>
      <trkpt lat="43.59377" lon="5.08178">
        <ele>67</ele>
        <time>2019-12-16T15:09:44Z</time>
      </trkpt>
      <trkpt lat="43.59378" lon="5.08177">
        <ele>67</ele>
        <time>2019-12-16T15:09:45Z</time>
      </trkpt>
      <trkpt lat="43.59379" lon="5.08177">
        <ele>67</ele>
        <time>2019-12-16T15:09:46Z</time>
      </trkpt>
      <trkpt lat="43.5938" lon="5.08176">
        <ele>67</ele>
        <time>2019-12-16T15:09:47Z</time>
      </trkpt>
      <trkpt lat="43.59381" lon="5.08175">
        <ele>67</ele>
        <time>2019-12-16T15:09:48Z</time>
      </trkpt>
      <trkpt lat="43.59382" lon="5.08175">
        <ele>67</ele>
        <time>2019-12-16T15:09:49Z</time>
      </trkpt>
      <trkpt lat="43.59383" lon="5.08174">
        <ele>67</ele>
        <time>2019-12-16T15:09:50Z</time>
      </trkpt>
      <trkpt lat="43.59384" lon="5.08173">
        <ele>66</ele>
        <time>2019-12-16T15:09:51Z</time>
      </trkpt>
      <trkpt lat="43.59386" lon="5.08173">
        <ele>66</ele>
        <time>2019-12-16T15:09:52Z</time>
      </trkpt>
      <trkpt lat="43.59387" lon="5.08172">
        <ele>66</ele>
        <time>2019-12-16T15:09:53Z</time>
      </trkpt>
      <trkpt lat="43.59388" lon="5.08172">
        <ele>66</ele>
        <time>2019-12-16T15:09:54Z</time>
      </trkpt>
      <trkpt lat="43.59389" lon="5.08171">
        <ele>66</ele>
        <time>2019-12-16T15:09:55Z</time>
      </trkpt>
      <trkpt lat="43.5939" lon="5.08171">
        <ele>66</ele>
        <time>2019-12-16T15:09:56Z</time>
      </trkpt>
      <trkpt lat="43.5939" lon="5.0817">
        <ele>66</ele>
        <time>2019-12-16T15:09:57Z</time>
      </trkpt>
      <trkpt lat="43.59391" lon="5.08169">
        <ele>66</ele>
        <time>2019-12-16T15:09:58Z</time>
      </trkpt>
      <trkpt lat="43.59392" lon="5.08169">
        <ele>66</ele>
        <time>2019-12-16T15:09:59Z</time>
      </trkpt>
      <trkpt lat="43.59393" lon="5.08168">
        <ele>66</ele>
        <time>2019-12-16T15:10:00Z</time>
      </trkpt>
      <trkpt lat="43.59393" lon="5.08167">
        <ele>66</ele>
        <time>2019-12-16T15:10:01Z</time>
      </trkpt>
      <trkpt lat="43.59394" lon="5.08166">
        <ele>65</ele>
        <time>2019-12-16T15:10:02Z</time>
      </trkpt>
      <trkpt lat="43.59394" lon="5.08165">
        <ele>65</ele>
        <time>2019-12-16T15:10:03Z</time>
      </trkpt>
      <trkpt lat="43.59395" lon="5.08164">
        <ele>65</ele>
        <time>2019-12-16T15:10:04Z</time>
      </trkpt>
      <trkpt lat="43.59396" lon="5.08163">
        <ele>65</ele>
        <time>2019-12-16T15:10:05Z</time>
      </trkpt>
      <trkpt lat="43.59396" lon="5.08162">
        <ele>65</ele>
        <time>2019-12-16T15:10:06Z</time>
      </trkpt>
      <trkpt lat="43.59397" lon="5.08161">
        <ele>65</ele>
        <time>2019-12-16T15:10:07Z</time>
      </trkpt>
      <trkpt lat="43.59398" lon="5.08159">
        <ele>65</ele>
        <time>2019-12-16T15:10:08Z</time>
      </trkpt>
      <trkpt lat="43.59399" lon="5.08158">
        <ele>65</ele>
        <time>2019-12-16T15:10:09Z</time>
      </trkpt>
      <trkpt lat="43.594" lon="5.08157">
        <ele>65</ele>
        <time>2019-12-16T15:10:10Z</time>
      </trkpt>
      <trkpt lat="43.594" lon="5.08155">
        <ele>65</ele>
        <time>2019-12-16T15:10:11Z</time>
      </trkpt>
      <trkpt lat="43.59401" lon="5.08154">
        <ele>65</ele>
        <time>2019-12-16T15:10:12Z</time>
      </trkpt>
      <trkpt lat="43.59402" lon="5.08152">
        <ele>65</ele>
        <time>2019-12-16T15:10:13Z</time>
      </trkpt>
      <trkpt lat="43.59403" lon="5.08151">
        <ele>65</ele>
        <time>2019-12-16T15:10:14Z</time>
      </trkpt>
      <trkpt lat="43.59403" lon="5.08149">
        <ele>65</ele>
        <time>2019-12-16T15:10:15Z</time>
      </trkpt>
      <trkpt lat="43.59404" lon="5.08148">
        <ele>65</ele>
        <time>2019-12-16T15:10:16Z</time>
      </trkpt>
      <trkpt lat="43.59404" lon="5.08146">
        <ele>65</ele>
        <time>2019-12-16T15:10:17Z</time>
      </trkpt>
      <trkpt lat="43.59405" lon="5.08144">
        <ele>65</ele>
        <time>2019-12-16T15:10:18Z</time>
      </trkpt>
      <trkpt lat="43.59405" lon="5.08143">
        <ele>65</ele>
        <time>2019-12-16T15:10:19Z</time>
      </trkpt>
      <trkpt lat="43.59406" lon="5.08142">
        <ele>65</ele>
        <time>2019-12-16T15:10:20Z</time>
      </trkpt>
      <trkpt lat="43.59406" lon="5.0814">
        <ele>65</ele>
        <time>2019-12-16T15:10:21Z</time>
      </trkpt>
      <trkpt lat="43.59407" lon="5.08139">
        <ele>65</ele>
        <time>2019-12-16T15:10:22Z</time>
      </trkpt>
      <trkpt lat="43.59407" lon="5.08137">
        <ele>65</ele>
        <time>2019-12-16T15:10:23Z</time>
      </trkpt>
      <trkpt lat="43.59408" lon="5.08136">
        <ele>65</ele>
        <time>2019-12-16T15:10:24Z</time>
      </trkpt>
      <trkpt lat="43.59408" lon="5.08135">
        <ele>65</ele>
        <time>2019-12-16T15:10:25Z</time>
      </trkpt>
      <trkpt lat="43.59409" lon="5.08133">
        <ele>65</ele>
        <time>2019-12-16T15:10:26Z</time>
      </trkpt>
      <trkpt lat="43.59409" lon="5.08132">
        <ele>65</ele>
        <time>2019-12-16T15:10:27Z</time>
      </trkpt>
      <trkpt lat="43.5941" lon="5.08131">
        <ele>65</ele>
        <time>2019-12-16T15:10:28Z</time>
      </trkpt>
      <trkpt lat="43.59411" lon="5.0813">
        <ele>65</ele>
        <time>2019-12-16T15:10:29Z</time>
      </trkpt>
      <trkpt lat="43.59411" lon="5.08128">
        <ele>65</ele>
        <time>2019-12-16T15:10:30Z</time>
      </trkpt>
      <trkpt lat="43.59412" lon="5.08127">
        <ele>65</ele>
        <time>2019-12-16T15:10:31Z</time>
      </trkpt>
      <trkpt lat="43.59413" lon="5.08125">
        <ele>65</ele>
        <time>2019-12-16T15:10:32Z</time>
      </trkpt>
      <trkpt lat="43.59414" lon="5.08124">
        <ele>65</ele>
        <time>2019-12-16T15:10:33Z</time>
      </trkpt>
      <trkpt lat="43.59415" lon="5.08123">
        <ele>65</ele>
        <time>2019-12-16T15:10:34Z</time>
      </trkpt>
      <trkpt lat="43.59415" lon="5.08122">
        <ele>65</ele>
        <time>2019-12-16T15:10:35Z</time>
      </trkpt>
      <trkpt lat="43.59416" lon="5.0812">
        <ele>65</ele>
        <time>2019-12-16T15:10:36Z</time>
      </trkpt>
      <trkpt lat="43.59417" lon="5.08119">
        <ele>65</ele>
        <time>2019-12-16T15:10:37Z</time>
      </trkpt>
      <trkpt lat="43.59418" lon="5.08118">
        <ele>65</ele>
        <time>2019-12-16T15:10:38Z</time>
      </trkpt>
      <trkpt lat="43.59419" lon="5.08117">
        <ele>65</ele>
        <time>2019-12-16T15:10:39Z</time>
      </trkpt>
      <trkpt lat="43.5942" lon="5.08115">
        <ele>65</ele>
        <time>2019-12-16T15:10:40Z</time>
      </trkpt>
      <trkpt lat="43.59421" lon="5.08114">
        <ele>65</ele>
        <time>2019-12-16T15:10:41Z</time>
      </trkpt>
      <trkpt lat="43.59422" lon="5.08113">
        <ele>65</ele>
        <time>2019-12-16T15:10:42Z</time>
      </trkpt>
      <trkpt lat="43.59423" lon="5.08112">
        <ele>65</ele>
        <time>2019-12-16T15:10:43Z</time>
      </trkpt>
      <trkpt lat="43.59424" lon="5.08111">
        <ele>65</ele>
        <time>2019-12-16T15:10:44Z</time>
      </trkpt>
      <trkpt lat="43.59425" lon="5.0811">
        <ele>65</ele>
        <time>2019-12-16T15:10:45Z</time>
      </trkpt>
      <trkpt lat="43.59426" lon="5.08108">
        <ele>64</ele>
        <time>2019-12-16T15:10:46Z</time>
      </trkpt>
      <trkpt lat="43.59427" lon="5.08108">
        <ele>64</ele>
        <time>2019-12-16T15:10:47Z</time>
      </trkpt>
      <trkpt lat="43.59428" lon="5.08107">
        <ele>64</ele>
        <time>2019-12-16T15:10:48Z</time>
      </trkpt>
      <trkpt lat="43.59429" lon="5.08106">
        <ele>64</ele>
        <time>2019-12-16T15:10:49Z</time>
      </trkpt>
      <trkpt lat="43.5943" lon="5.08105">
        <ele>64</ele>
        <time>2019-12-16T15:10:50Z</time>
      </trkpt>
      <trkpt lat="43.59431" lon="5.08104">
        <ele>64</ele>
        <time>2019-12-16T15:10:51Z</time>
      </trkpt>
      <trkpt lat="43.59432" lon="5.08103">
        <ele>64</ele>
        <time>2019-12-16T15:10:52Z</time>
      </trkpt>
      <trkpt lat="43.59433" lon="5.08102">
        <ele>64</ele>
        <time>2019-12-16T15:10:53Z</time>
      </trkpt>
      <trkpt lat="43.59434" lon="5.08101">
        <ele>64</ele>
        <time>2019-12-16T15:10:54Z</time>
      </trkpt>
      <trkpt lat="43.59435" lon="5.08101">
        <ele>64</ele>
        <time>2019-12-16T15:10:55Z</time>
      </trkpt>
      <trkpt lat="43.59436" lon="5.081">
        <ele>64</ele>
        <time>2019-12-16T15:10:56Z</time>
      </trkpt>
      <trkpt lat="43.59437" lon="5.08099">
        <ele>64</ele>
        <time>2019-12-16T15:10:57Z</time>
      </trkpt>
      <trkpt lat="43.59438" lon="5.08098">
        <ele>64</ele>
        <time>2019-12-16T15:10:58Z</time>
      </trkpt>
      <trkpt lat="43.59439" lon="5.08098">
        <ele>64</ele>
        <time>2019-12-16T15:10:59Z</time>
      </trkpt>
      <trkpt lat="43.5944" lon="5.08097">
        <ele>64</ele>
        <time>2019-12-16T15:11:00Z</time>
      </trkpt>
      <trkpt lat="43.59441" lon="5.08097">
        <ele>64</ele>
        <time>2019-12-16T15:11:01Z</time>
      </trkpt>
      <trkpt lat="43.59442" lon="5.08096">
        <ele>64</ele>
        <time>2019-12-16T15:11:02Z</time>
      </trkpt>
      <trkpt lat="43.59443" lon="5.08095">
        <ele>64</ele>
        <time>2019-12-16T15:11:03Z</time>
      </trkpt>
      <trkpt lat="43.59444" lon="5.08095">
        <ele>64</ele>
        <time>2019-12-16T15:11:04Z</time>
      </trkpt>
      <trkpt lat="43.59445" lon="5.08094">
        <ele>64</ele>
        <time>2019-12-16T15:11:05Z</time>
      </trkpt>
      <trkpt lat="43.59446" lon="5.08093">
        <ele>64</ele>
        <time>2019-12-16T15:11:06Z</time>
      </trkpt>
      <trkpt lat="43.59447" lon="5.08093">
        <ele>64</ele>
        <time>2019-12-16T15:11:07Z</time>
      </trkpt>
      <trkpt lat="43.59449" lon="5.08092">
        <ele>64</ele>
        <time>2019-12-16T15:11:08Z</time>
      </trkpt>
      <trkpt lat="43.59449" lon="5.08091">
        <ele>64</ele>
        <time>2019-12-16T15:11:09Z</time>
      </trkpt>
      <trkpt lat="43.59451" lon="5.08091">
        <ele>64</ele>
        <time>2019-12-16T15:11:10Z</time>
      </trkpt>
      <trkpt lat="43.59452" lon="5.0809">
        <ele>64</ele>
        <time>2019-12-16T15:11:11Z</time>
      </trkpt>
      <trkpt lat="43.59453" lon="5.08089">
        <ele>64</ele>
        <time>2019-12-16T15:11:12Z</time>
      </trkpt>
      <trkpt lat="43.59454" lon="5.08089">
        <ele>64</ele>
        <time>2019-12-16T15:11:13Z</time>
      </trkpt>
      <trkpt lat="43.59455" lon="5.08088">
        <ele>64</ele>
        <time>2019-12-16T15:11:14Z</time>
      </trkpt>
      <trkpt lat="43.59456" lon="5.08087">
        <ele>64</ele>
        <time>2019-12-16T15:11:15Z</time>
      </trkpt>
      <trkpt lat="43.59457" lon="5.08086">
        <ele>64</ele>
        <time>2019-12-16T15:11:16Z</time>
      </trkpt>
      <trkpt lat="43.59458" lon="5.08086">
        <ele>64</ele>
        <time>2019-12-16T15:11:17Z</time>
      </trkpt>
      <trkpt lat="43.5946" lon="5.08085">
        <ele>64</ele>
        <time>2019-12-16T15:11:18Z</time>
      </trkpt>
      <trkpt lat="43.59461" lon="5.08084">
        <ele>64</ele>
        <time>2019-12-16T15:11:19Z</time>
      </trkpt>
      <trkpt lat="43.59462" lon="5.08083">
        <ele>64</ele>
        <time>2019-12-16T15:11:20Z</time>
      </trkpt>
      <trkpt lat="43.59463" lon="5.08083">
        <ele>64</ele>
        <time>2019-12-16T15:11:21Z</time>
      </trkpt>
      <trkpt lat="43.59464" lon="5.08082">
        <ele>64</ele>
        <time>2019-12-16T15:11:22Z</time>
      </trkpt>
      <trkpt lat="43.59465" lon="5.08081">
        <ele>64</ele>
        <time>2019-12-16T15:11:23Z</time>
      </trkpt>
      <trkpt lat="43.59466" lon="5.08081">
        <ele>64</ele>
        <time>2019-12-16T15:11:24Z</time>
      </trkpt>
      <trkpt lat="43.59468" lon="5.0808">
        <ele>64</ele>
        <time>2019-12-16T15:11:25Z</time>
      </trkpt>
      <trkpt lat="43.59469" lon="5.08079">
        <ele>64</ele>
        <time>2019-12-16T15:11:26Z</time>
      </trkpt>
      <trkpt lat="43.5947" lon="5.08079">
        <ele>64</ele>
        <time>2019-12-16T15:11:27Z</time>
      </trkpt>
      <trkpt lat="43.59471" lon="5.08078">
        <ele>64</ele>
        <time>2019-12-16T15:11:28Z</time>
      </trkpt>
      <trkpt lat="43.59472" lon="5.08078">
        <ele>64</ele>
        <time>2019-12-16T15:11:29Z</time>
      </trkpt>
      <trkpt lat="43.59474" lon="5.08077">
        <ele>64</ele>
        <time>2019-12-16T15:11:30Z</time>
      </trkpt>
      <trkpt lat="43.59475" lon="5.08077">
        <ele>64</ele>
        <time>2019-12-16T15:11:31Z</time>
      </trkpt>
      <trkpt lat="43.59476" lon="5.08077">
        <ele>64</ele>
        <time>2019-12-16T15:11:32Z</time>
      </trkpt>
      <trkpt lat="43.59477" lon="5.08076">
        <ele>64</ele>
        <time>2019-12-16T15:11:33Z</time>
      </trkpt>
      <trkpt lat="43.59478" lon="5.08076">
        <ele>64</ele>
        <time>2019-12-16T15:11:34Z</time>
      </trkpt>
      <trkpt lat="43.59479" lon="5.08076">
        <ele>64</ele>
        <time>2019-12-16T15:11:35Z</time>
      </trkpt>
      <trkpt lat="43.59481" lon="5.08075">
        <ele>64</ele>
        <time>2019-12-16T15:11:36Z</time>
      </trkpt>
      <trkpt lat="43.59482" lon="5.08075">
        <ele>64</ele>
        <time>2019-12-16T15:11:37Z</time>
      </trkpt>
      <trkpt lat="43.59483" lon="5.08075">
        <ele>64</ele>
        <time>2019-12-16T15:11:38Z</time>
      </trkpt>
      <trkpt lat="43.59484" lon="5.08075">
        <ele>64</ele>
        <time>2019-12-16T15:11:39Z</time>
      </trkpt>
      <trkpt lat="43.59485" lon="5.08074">
        <ele>64</ele>
        <time>2019-12-16T15:11:40Z</time>
      </trkpt>
      <trkpt lat="43.59486" lon="5.08074">
        <ele>64</ele>
        <time>2019-12-16T15:11:41Z</time>
      </trkpt>
      <trkpt lat="43.59487" lon="5.08074">
        <ele>64</ele>
        <time>2019-12-16T15:11:42Z</time>
      </trkpt>
      <trkpt lat="43.59488" lon="5.08073">
        <ele>64</ele>
        <time>2019-12-16T15:11:43Z</time>
      </trkpt>
      <trkpt lat="43.59489" lon="5.08073">
        <ele>64</ele>
        <time>2019-12-16T15:11:44Z</time>
      </trkpt>
      <trkpt lat="43.5949" lon="5.08072">
        <ele>64</ele>
        <time>2019-12-16T15:11:45Z</time>
      </trkpt>
      <trkpt lat="43.59491" lon="5.08072">
        <ele>64</ele>
        <time>2019-12-16T15:11:46Z</time>
      </trkpt>
      <trkpt lat="43.59492" lon="5.08071">
        <ele>64</ele>
        <time>2019-12-16T15:11:47Z</time>
      </trkpt>
      <trkpt lat="43.59493" lon="5.08071">
        <ele>64</ele>
        <time>2019-12-16T15:11:48Z</time>
      </trkpt>
      <trkpt lat="43.59494" lon="5.08071">
        <ele>64</ele>
        <time>2019-12-16T15:11:49Z</time>
      </trkpt>
      <trkpt lat="43.59496" lon="5.0807">
        <ele>64</ele>
        <time>2019-12-16T15:11:50Z</time>
      </trkpt>
      <trkpt lat="43.59497" lon="5.0807">
        <ele>64</ele>
        <time>2019-12-16T15:11:51Z</time>
      </trkpt>
      <trkpt lat="43.59498" lon="5.08069">
        <ele>64</ele>
        <time>2019-12-16T15:11:52Z</time>
      </trkpt>
      <trkpt lat="43.59499" lon="5.08069">
        <ele>64</ele>
        <time>2019-12-16T15:11:53Z</time>
      </trkpt>
      <trkpt lat="43.59501" lon="5.08068">
        <ele>64</ele>
        <time>2019-12-16T15:11:54Z</time>
      </trkpt>
      <trkpt lat="43.59502" lon="5.08067">
        <ele>64</ele>
        <time>2019-12-16T15:11:55Z</time>
      </trkpt>
      <trkpt lat="43.59503" lon="5.08067">
        <ele>64</ele>
        <time>2019-12-16T15:11:56Z</time>
      </trkpt>
      <trkpt lat="43.59505" lon="5.08066">
        <ele>64</ele>
        <time>2019-12-16T15:11:57Z</time>
      </trkpt>
      <trkpt lat="43.59506" lon="5.08065">
        <ele>64</ele>
        <time>2019-12-16T15:11:58Z</time>
      </trkpt>
      <trkpt lat="43.59507" lon="5.08065">
        <ele>64</ele>
        <time>2019-12-16T15:11:59Z</time>
      </trkpt>
      <trkpt lat="43.59508" lon="5.08064">
        <ele>64</ele>
        <time>2019-12-16T15:12:00Z</time>
      </trkpt>
      <trkpt lat="43.59509" lon="5.08063">
        <ele>64</ele>
        <time>2019-12-16T15:12:01Z</time>
      </trkpt>
      <trkpt lat="43.5951" lon="5.08062">
        <ele>64</ele>
        <time>2019-12-16T15:12:02Z</time>
      </trkpt>
      <trkpt lat="43.59511" lon="5.08061">
        <ele>64</ele>
        <time>2019-12-16T15:12:03Z</time>
      </trkpt>
      <trkpt lat="43.59513" lon="5.0806">
        <ele>64</ele>
        <time>2019-12-16T15:12:04Z</time>
      </trkpt>
      <trkpt lat="43.59514" lon="5.08059">
        <ele>64</ele>
        <time>2019-12-16T15:12:05Z</time>
      </trkpt>
      <trkpt lat="43.59515" lon="5.08058">
        <ele>64</ele>
        <time>2019-12-16T15:12:06Z</time>
      </trkpt>
      <trkpt lat="43.59516" lon="5.08057">
        <ele>64</ele>
        <time>2019-12-16T15:12:07Z</time>
      </trkpt>
      <trkpt lat="43.59517" lon="5.08056">
        <ele>64</ele>
        <time>2019-12-16T15:12:08Z</time>
      </trkpt>
      <trkpt lat="43.59518" lon="5.08055">
        <ele>64</ele>
        <time>2019-12-16T15:12:09Z</time>
      </trkpt>
      <trkpt lat="43.59519" lon="5.08054">
        <ele>64</ele>
        <time>2019-12-16T15:12:10Z</time>
      </trkpt>
      <trkpt lat="43.5952" lon="5.08053">
        <ele>64</ele>
        <time>2019-12-16T15:12:11Z</time>
      </trkpt>
      <trkpt lat="43.59521" lon="5.08052">
        <ele>64</ele>
        <time>2019-12-16T15:12:12Z</time>
      </trkpt>
      <trkpt lat="43.59522" lon="5.08051">
        <ele>64</ele>
        <time>2019-12-16T15:12:13Z</time>
      </trkpt>
      <trkpt lat="43.59523" lon="5.0805">
        <ele>64</ele>
        <time>2019-12-16T15:12:14Z</time>
      </trkpt>
      <trkpt lat="43.59524" lon="5.08049">
        <ele>64</ele>
        <time>2019-12-16T15:12:15Z</time>
      </trkpt>
      <trkpt lat="43.59525" lon="5.08048">
        <ele>64</ele>
        <time>2019-12-16T15:12:16Z</time>
      </trkpt>
      <trkpt lat="43.59526" lon="5.08047">
        <ele>64</ele>
        <time>2019-12-16T15:12:17Z</time>
      </trkpt>
      <trkpt lat="43.59527" lon="5.08046">
        <ele>64</ele>
        <time>2019-12-16T15:12:18Z</time>
      </trkpt>
      <trkpt lat="43.59528" lon="5.08045">
        <ele>64</ele>
        <time>2019-12-16T15:12:19Z</time>
      </trkpt>
      <trkpt lat="43.59529" lon="5.08044">
        <ele>64</ele>
        <time>2019-12-16T15:12:20Z</time>
      </trkpt>
      <trkpt lat="43.5953" lon="5.08043">
        <ele>64</ele>
        <time>2019-12-16T15:12:21Z</time>
      </trkpt>
      <trkpt lat="43.59531" lon="5.08042">
        <ele>64</ele>
        <time>2019-12-16T15:12:22Z</time>
      </trkpt>
      <trkpt lat="43.59532" lon="5.08041">
        <ele>64</ele>
        <time>2019-12-16T15:12:23Z</time>
      </trkpt>
      <trkpt lat="43.59533" lon="5.08039">
        <ele>64</ele>
        <time>2019-12-16T15:12:24Z</time>
      </trkpt>
      <trkpt lat="43.59534" lon="5.08038">
        <ele>64</ele>
        <time>2019-12-16T15:12:25Z</time>
      </trkpt>
      <trkpt lat="43.59535" lon="5.08037">
        <ele>64</ele>
        <time>2019-12-16T15:12:26Z</time>
      </trkpt>
      <trkpt lat="43.59536" lon="5.08036">
        <ele>64</ele>
        <time>2019-12-16T15:12:27Z</time>
      </trkpt>
      <trkpt lat="43.59537" lon="5.08035">
        <ele>64</ele>
        <time>2019-12-16T15:12:28Z</time>
      </trkpt>
      <trkpt lat="43.59538" lon="5.08034">
        <ele>64</ele>
        <time>2019-12-16T15:12:29Z</time>
      </trkpt>
      <trkpt lat="43.59539" lon="5.08033">
        <ele>64</ele>
        <time>2019-12-16T15:12:30Z</time>
      </trkpt>
      <trkpt lat="43.5954" lon="5.08032">
        <ele>64</ele>
        <time>2019-12-16T15:12:31Z</time>
      </trkpt>
      <trkpt lat="43.59541" lon="5.08031">
        <ele>64</ele>
        <time>2019-12-16T15:12:32Z</time>
      </trkpt>
      <trkpt lat="43.59542" lon="5.08029">
        <ele>64</ele>
        <time>2019-12-16T15:12:33Z</time>
      </trkpt>
      <trkpt lat="43.59543" lon="5.08028">
        <ele>64</ele>
        <time>2019-12-16T15:12:34Z</time>
      </trkpt>
      <trkpt lat="43.59544" lon="5.08027">
        <ele>64</ele>
        <time>2019-12-16T15:12:35Z</time>
      </trkpt>
      <trkpt lat="43.59545" lon="5.08026">
        <ele>64</ele>
        <time>2019-12-16T15:12:36Z</time>
      </trkpt>
      <trkpt lat="43.59545" lon="5.08025">
        <ele>64</ele>
        <time>2019-12-16T15:12:37Z</time>
      </trkpt>
      <trkpt lat="43.59546" lon="5.08024">
        <ele>64</ele>
        <time>2019-12-16T15:12:38Z</time>
      </trkpt>
      <trkpt lat="43.59547" lon="5.08022">
        <ele>64</ele>
        <time>2019-12-16T15:12:39Z</time>
      </trkpt>
      <trkpt lat="43.59548" lon="5.08021">
        <ele>64</ele>
        <time>2019-12-16T15:12:40Z</time>
      </trkpt>
      <trkpt lat="43.59549" lon="5.0802">
        <ele>64</ele>
        <time>2019-12-16T15:12:41Z</time>
      </trkpt>
      <trkpt lat="43.5955" lon="5.08019">
        <ele>64</ele>
        <time>2019-12-16T15:12:42Z</time>
      </trkpt>
      <trkpt lat="43.59551" lon="5.08018">
        <ele>64</ele>
        <time>2019-12-16T15:12:43Z</time>
      </trkpt>
      <trkpt lat="43.59552" lon="5.08017">
        <ele>64</ele>
        <time>2019-12-16T15:12:44Z</time>
      </trkpt>
      <trkpt lat="43.59553" lon="5.08015">
        <ele>64</ele>
        <time>2019-12-16T15:12:45Z</time>
      </trkpt>
      <trkpt lat="43.59554" lon="5.08014">
        <ele>64</ele>
        <time>2019-12-16T15:12:46Z</time>
      </trkpt>
      <trkpt lat="43.59554" lon="5.08013">
        <ele>64</ele>
        <time>2019-12-16T15:12:47Z</time>
      </trkpt>
      <trkpt lat="43.59555" lon="5.08012">
        <ele>64</ele>
        <time>2019-12-16T15:12:48Z</time>
      </trkpt>
      <trkpt lat="43.59556" lon="5.08011">
        <ele>64</ele>
        <time>2019-12-16T15:12:49Z</time>
      </trkpt>
      <trkpt lat="43.59557" lon="5.08009">
        <ele>64</ele>
        <time>2019-12-16T15:12:50Z</time>
      </trkpt>
      <trkpt lat="43.59558" lon="5.08008">
        <ele>64</ele>
        <time>2019-12-16T15:12:51Z</time>
      </trkpt>
      <trkpt lat="43.59559" lon="5.08007">
        <ele>64</ele>
        <time>2019-12-16T15:12:52Z</time>
      </trkpt>
      <trkpt lat="43.5956" lon="5.08006">
        <ele>64</ele>
        <time>2019-12-16T15:12:53Z</time>
      </trkpt>
      <trkpt lat="43.59561" lon="5.08005">
        <ele>64</ele>
        <time>2019-12-16T15:12:54Z</time>
      </trkpt>
      <trkpt lat="43.59562" lon="5.08004">
        <ele>64</ele>
        <time>2019-12-16T15:12:55Z</time>
      </trkpt>
      <trkpt lat="43.59563" lon="5.08003">
        <ele>64</ele>
        <time>2019-12-16T15:12:56Z</time>
      </trkpt>
      <trkpt lat="43.59563" lon="5.08001">
        <ele>64</ele>
        <time>2019-12-16T15:12:57Z</time>
      </trkpt>
      <trkpt lat="43.59564" lon="5.08">
        <ele>64</ele>
        <time>2019-12-16T15:12:58Z</time>
      </trkpt>
      <trkpt lat="43.59565" lon="5.07999">
        <ele>64</ele>
        <time>2019-12-16T15:12:59Z</time>
      </trkpt>
      <trkpt lat="43.59566" lon="5.07998">
        <ele>64</ele>
        <time>2019-12-16T15:13:00Z</time>
      </trkpt>
      <trkpt lat="43.59567" lon="5.07997">
        <ele>64</ele>
        <time>2019-12-16T15:13:01Z</time>
      </trkpt>
      <trkpt lat="43.59568" lon="5.07996">
        <ele>64</ele>
        <time>2019-12-16T15:13:02Z</time>
      </trkpt>
      <trkpt lat="43.59569" lon="5.07994">
        <ele>64</ele>
        <time>2019-12-16T15:13:03Z</time>
      </trkpt>
      <trkpt lat="43.5957" lon="5.07993">
        <ele>64</ele>
        <time>2019-12-16T15:13:04Z</time>
      </trkpt>
      <trkpt lat="43.59571" lon="5.07992">
        <ele>64</ele>
        <time>2019-12-16T15:13:05Z</time>
      </trkpt>
      <trkpt lat="43.59571" lon="5.07991">
        <ele>64</ele>
        <time>2019-12-16T15:13:06Z</time>
      </trkpt>
      <trkpt lat="43.59572" lon="5.0799">
        <ele>64</ele>
        <time>2019-12-16T15:13:07Z</time>
      </trkpt>
      <trkpt lat="43.59573" lon="5.07989">
        <ele>64</ele>
        <time>2019-12-16T15:13:08Z</time>
      </trkpt>
      <trkpt lat="43.59574" lon="5.07987">
        <ele>64</ele>
        <time>2019-12-16T15:13:09Z</time>
      </trkpt>
      <trkpt lat="43.59575" lon="5.07986">
        <ele>64</ele>
        <time>2019-12-16T15:13:10Z</time>
      </trkpt>
      <trkpt lat="43.59576" lon="5.07985">
        <ele>64</ele>
        <time>2019-12-16T15:13:11Z</time>
      </trkpt>
      <trkpt lat="43.59577" lon="5.07984">
        <ele>64</ele>
        <time>2019-12-16T15:13:12Z</time>
      </trkpt>
      <trkpt lat="43.59578" lon="5.07983">
        <ele>64</ele>
        <time>2019-12-16T15:13:13Z</time>
      </trkpt>
      <trkpt lat="43.59579" lon="5.07982">
        <ele>64</ele>
        <time>2019-12-16T15:13:14Z</time>
      </trkpt>
      <trkpt lat="43.5958" lon="5.07981">
        <ele>64</ele>
        <time>2019-12-16T15:13:15Z</time>
      </trkpt>
      <trkpt lat="43.59581" lon="5.0798">
        <ele>64</ele>
        <time>2019-12-16T15:13:16Z</time>
      </trkpt>
      <trkpt lat="43.59582" lon="5.07979">
        <ele>64</ele>
        <time>2019-12-16T15:13:17Z</time>
      </trkpt>
      <trkpt lat="43.59583" lon="5.07977">
        <ele>64</ele>
        <time>2019-12-16T15:13:18Z</time>
      </trkpt>
      <trkpt lat="43.59584" lon="5.07976">
        <ele>64</ele>
        <time>2019-12-16T15:13:19Z</time>
      </trkpt>
      <trkpt lat="43.59585" lon="5.07976">
        <ele>64</ele>
        <time>2019-12-16T15:13:20Z</time>
      </trkpt>
      <trkpt lat="43.59585" lon="5.07974">
        <ele>64</ele>
        <time>2019-12-16T15:13:21Z</time>
      </trkpt>
      <trkpt lat="43.59586" lon="5.07973">
        <ele>64</ele>
        <time>2019-12-16T15:13:22Z</time>
      </trkpt>
      <trkpt lat="43.59587" lon="5.07972">
        <ele>64</ele>
        <time>2019-12-16T15:13:23Z</time>
      </trkpt>
      <trkpt lat="43.59588" lon="5.07971">
        <ele>64</ele>
        <time>2019-12-16T15:13:24Z</time>
      </trkpt>
      <trkpt lat="43.59589" lon="5.0797">
        <ele>64</ele>
        <time>2019-12-16T15:13:25Z</time>
      </trkpt>
      <trkpt lat="43.59589" lon="5.07969">
        <ele>64</ele>
        <time>2019-12-16T15:13:26Z</time>
      </trkpt>
      <trkpt lat="43.5959" lon="5.07968">
        <ele>64</ele>
        <time>2019-12-16T15:13:27Z</time>
      </trkpt>
      <trkpt lat="43.59591" lon="5.07966">
        <ele>64</ele>
        <time>2019-12-16T15:13:28Z</time>
      </trkpt>
      <trkpt lat="43.59592" lon="5.07965">
        <ele>64</ele>
        <time>2019-12-16T15:13:29Z</time>
      </trkpt>
      <trkpt lat="43.59592" lon="5.07964">
        <ele>64</ele>
        <time>2019-12-16T15:13:30Z</time>
      </trkpt>
      <trkpt lat="43.59593" lon="5.07963">
        <ele>64</ele>
        <time>2019-12-16T15:13:31Z</time>
      </trkpt>
      <trkpt lat="43.59594" lon="5.07962">
        <ele>64</ele>
        <time>2019-12-16T15:13:32Z</time>
      </trkpt>
      <trkpt lat="43.59594" lon="5.0796">
        <ele>64</ele>
        <time>2019-12-16T15:13:33Z</time>
      </trkpt>
      <trkpt lat="43.59595" lon="5.07959">
        <ele>64</ele>
        <time>2019-12-16T15:13:34Z</time>
      </trkpt>
      <trkpt lat="43.59596" lon="5.07958">
        <ele>64</ele>
        <time>2019-12-16T15:13:35Z</time>
      </trkpt>
      <trkpt lat="43.59597" lon="5.07957">
        <ele>64</ele>
        <time>2019-12-16T15:13:36Z</time>
      </trkpt>
      <trkpt lat="43.59597" lon="5.07956">
        <ele>64</ele>
        <time>2019-12-16T15:13:37Z</time>
      </trkpt>
      <trkpt lat="43.59598" lon="5.07955">
        <ele>64</ele>
        <time>2019-12-16T15:13:38Z</time>
      </trkpt>
      <trkpt lat="43.59599" lon="5.07954">
        <ele>64</ele>
        <time>2019-12-16T15:13:39Z</time>
      </trkpt>
      <trkpt lat="43.596" lon="5.07953">
        <ele>64</ele>
        <time>2019-12-16T15:13:40Z</time>
      </trkpt>
      <trkpt lat="43.596" lon="5.07953">
        <ele>64</ele>
        <time>2019-12-16T15:13:41Z</time>
      </trkpt>
      <trkpt lat="43.59601" lon="5.07952">
        <ele>64</ele>
        <time>2019-12-16T15:13:42Z</time>
      </trkpt>
      <trkpt lat="43.59602" lon="5.07951">
        <ele>64</ele>
        <time>2019-12-16T15:13:43Z</time>
      </trkpt>
      <trkpt lat="43.59603" lon="5.0795">
        <ele>64</ele>
        <time>2019-12-16T15:13:44Z</time>
      </trkpt>
      <trkpt lat="43.59604" lon="5.07949">
        <ele>64</ele>
        <time>2019-12-16T15:13:45Z</time>
      </trkpt>
      <trkpt lat="43.59605" lon="5.07948">
        <ele>64</ele>
        <time>2019-12-16T15:13:46Z</time>
      </trkpt>
      <trkpt lat="43.59606" lon="5.07947">
        <ele>64</ele>
        <time>2019-12-16T15:13:47Z</time>
      </trkpt>
      <trkpt lat="43.59606" lon="5.07946">
        <ele>64</ele>
        <time>2019-12-16T15:13:48Z</time>
      </trkpt>
      <trkpt lat="43.59607" lon="5.07945">
        <ele>64</ele>
        <time>2019-12-16T15:13:49Z</time>
      </trkpt>
      <trkpt lat="43.59608" lon="5.07944">
        <ele>64</ele>
        <time>2019-12-16T15:13:50Z</time>
      </trkpt>
      <trkpt lat="43.5961" lon="5.07943">
        <ele>64</ele>
        <time>2019-12-16T15:13:51Z</time>
      </trkpt>
      <trkpt lat="43.59611" lon="5.07942">
        <ele>64</ele>
        <time>2019-12-16T15:13:52Z</time>
      </trkpt>
      <trkpt lat="43.59612" lon="5.07941">
        <ele>64</ele>
        <time>2019-12-16T15:13:53Z</time>
      </trkpt>
      <trkpt lat="43.59613" lon="5.0794">
        <ele>64</ele>
        <time>2019-12-16T15:13:54Z</time>
      </trkpt>
      <trkpt lat="43.59614" lon="5.07939">
        <ele>64</ele>
        <time>2019-12-16T15:13:55Z</time>
      </trkpt>
      <trkpt lat="43.59615" lon="5.07938">
        <ele>64</ele>
        <time>2019-12-16T15:13:56Z</time>
      </trkpt>
      <trkpt lat="43.59616" lon="5.07937">
        <ele>64</ele>
        <time>2019-12-16T15:13:57Z</time>
      </trkpt>
      <trkpt lat="43.59618" lon="5.07936">
        <ele>64</ele>
        <time>2019-12-16T15:13:58Z</time>
      </trkpt>
      <trkpt lat="43.59619" lon="5.07935">
        <ele>64</ele>
        <time>2019-12-16T15:13:59Z</time>
      </trkpt>
      <trkpt lat="43.5962" lon="5.07934">
        <ele>64</ele>
        <time>2019-12-16T15:14:00Z</time>
      </trkpt>
      <trkpt lat="43.59621" lon="5.07933">
        <ele>64</ele>
        <time>2019-12-16T15:14:01Z</time>
      </trkpt>
      <trkpt lat="43.59622" lon="5.07932">
        <ele>64</ele>
        <time>2019-12-16T15:14:02Z</time>
      </trkpt>
      <trkpt lat="43.59623" lon="5.07931">
        <ele>64</ele>
        <time>2019-12-16T15:14:03Z</time>
      </trkpt>
      <trkpt lat="43.59624" lon="5.0793">
        <ele>64</ele>
        <time>2019-12-16T15:14:04Z</time>
      </trkpt>
      <trkpt lat="43.59625" lon="5.0793">
        <ele>64</ele>
        <time>2019-12-16T15:14:05Z</time>
      </trkpt>
      <trkpt lat="43.59626" lon="5.07929">
        <ele>64</ele>
        <time>2019-12-16T15:14:06Z</time>
      </trkpt>
      <trkpt lat="43.59627" lon="5.07928">
        <ele>64</ele>
        <time>2019-12-16T15:14:07Z</time>
      </trkpt>
      <trkpt lat="43.59628" lon="5.07927">
        <ele>64</ele>
        <time>2019-12-16T15:14:08Z</time>
      </trkpt>
      <trkpt lat="43.59629" lon="5.07926">
        <ele>64</ele>
        <time>2019-12-16T15:14:09Z</time>
      </trkpt>
      <trkpt lat="43.5963" lon="5.07925">
        <ele>64</ele>
        <time>2019-12-16T15:14:10Z</time>
      </trkpt>
      <trkpt lat="43.59631" lon="5.07924">
        <ele>64</ele>
        <time>2019-12-16T15:14:11Z</time>
      </trkpt>
      <trkpt lat="43.59632" lon="5.07924">
        <ele>64</ele>
        <time>2019-12-16T15:14:12Z</time>
      </trkpt>
      <trkpt lat="43.59633" lon="5.07923">
        <ele>64</ele>
        <time>2019-12-16T15:14:13Z</time>
      </trkpt>
      <trkpt lat="43.59634" lon="5.07922">
        <ele>64</ele>
        <time>2019-12-16T15:14:14Z</time>
      </trkpt>
      <trkpt lat="43.59635" lon="5.07921">
        <ele>64</ele>
        <time>2019-12-16T15:14:15Z</time>
      </trkpt>
      <trkpt lat="43.59636" lon="5.0792">
        <ele>64</ele>
        <time>2019-12-16T15:14:16Z</time>
      </trkpt>
      <trkpt lat="43.59637" lon="5.07919">
        <ele>64</ele>
        <time>2019-12-16T15:14:17Z</time>
      </trkpt>
      <trkpt lat="43.59637" lon="5.07918">
        <ele>64</ele>
        <time>2019-12-16T15:14:18Z</time>
      </trkpt>
      <trkpt lat="43.59639" lon="5.07917">
        <ele>64</ele>
        <time>2019-12-16T15:14:19Z</time>
      </trkpt>
      <trkpt lat="43.59639" lon="5.07916">
        <ele>64</ele>
        <time>2019-12-16T15:14:20Z</time>
      </trkpt>
      <trkpt lat="43.5964" lon="5.07915">
        <ele>64</ele>
        <time>2019-12-16T15:14:21Z</time>
      </trkpt>
      <trkpt lat="43.59641" lon="5.07914">
        <ele>64</ele>
        <time>2019-12-16T15:14:22Z</time>
      </trkpt>
      <trkpt lat="43.59642" lon="5.07913">
        <ele>64</ele>
        <time>2019-12-16T15:14:23Z</time>
      </trkpt>
      <trkpt lat="43.59643" lon="5.07911">
        <ele>64</ele>
        <time>2019-12-16T15:14:24Z</time>
      </trkpt>
      <trkpt lat="43.59644" lon="5.0791">
        <ele>64</ele>
        <time>2019-12-16T15:14:25Z</time>
      </trkpt>
      <trkpt lat="43.59645" lon="5.07909">
        <ele>64</ele>
        <time>2019-12-16T15:14:26Z</time>
      </trkpt>
      <trkpt lat="43.59646" lon="5.07908">
        <ele>64</ele>
        <time>2019-12-16T15:14:27Z</time>
      </trkpt>
      <trkpt lat="43.59647" lon="5.07907">
        <ele>64</ele>
        <time>2019-12-16T15:14:28Z</time>
      </trkpt>
      <trkpt lat="43.59648" lon="5.07906">
        <ele>64</ele>
        <time>2019-12-16T15:14:29Z</time>
      </trkpt>
      <trkpt lat="43.59649" lon="5.07905">
        <ele>64</ele>
        <time>2019-12-16T15:14:30Z</time>
      </trkpt>
      <trkpt lat="43.59651" lon="5.07904">
        <ele>64</ele>
        <time>2019-12-16T15:14:31Z</time>
      </trkpt>
      <trkpt lat="43.59652" lon="5.07903">
        <ele>64</ele>
        <time>2019-12-16T15:14:32Z</time>
      </trkpt>
      <trkpt lat="43.59653" lon="5.07902">
        <ele>64</ele>
        <time>2019-12-16T15:14:33Z</time>
      </trkpt>
      <trkpt lat="43.59655" lon="5.07901">
        <ele>64</ele>
        <time>2019-12-16T15:14:34Z</time>
      </trkpt>
      <trkpt lat="43.59656" lon="5.079">
        <ele>64</ele>
        <time>2019-12-16T15:14:35Z</time>
      </trkpt>
      <trkpt lat="43.59657" lon="5.079">
        <ele>64</ele>
        <time>2019-12-16T15:14:36Z</time>
      </trkpt>
      <trkpt lat="43.59659" lon="5.07899">
        <ele>64</ele>
        <time>2019-12-16T15:14:37Z</time>
      </trkpt>
      <trkpt lat="43.5966" lon="5.07898">
        <ele>64</ele>
        <time>2019-12-16T15:14:38Z</time>
      </trkpt>
      <trkpt lat="43.59661" lon="5.07897">
        <ele>64</ele>
        <time>2019-12-16T15:14:39Z</time>
      </trkpt>
      <trkpt lat="43.59662" lon="5.07896">
        <ele>64</ele>
        <time>2019-12-16T15:14:40Z</time>
      </trkpt>
      <trkpt lat="43.59663" lon="5.07895">
        <ele>64</ele>
        <time>2019-12-16T15:14:41Z</time>
      </trkpt>
      <trkpt lat="43.59664" lon="5.07894">
        <ele>64</ele>
        <time>2019-12-16T15:14:42Z</time>
      </trkpt>
      <trkpt lat="43.59665" lon="5.07894">
        <ele>64</ele>
        <time>2019-12-16T15:14:43Z</time>
      </trkpt>
      <trkpt lat="43.59666" lon="5.07893">
        <ele>64</ele>
        <time>2019-12-16T15:14:44Z</time>
      </trkpt>
      <trkpt lat="43.59667" lon="5.07892">
        <ele>62</ele>
        <time>2019-12-16T15:14:45Z</time>
      </trkpt>
      <trkpt lat="43.59668" lon="5.07891">
        <ele>62</ele>
        <time>2019-12-16T15:14:46Z</time>
      </trkpt>
      <trkpt lat="43.59669" lon="5.0789">
        <ele>62</ele>
        <time>2019-12-16T15:14:47Z</time>
      </trkpt>
      <trkpt lat="43.5967" lon="5.0789">
        <ele>62</ele>
        <time>2019-12-16T15:14:48Z</time>
      </trkpt>
      <trkpt lat="43.59671" lon="5.07889">
        <ele>62</ele>
        <time>2019-12-16T15:14:49Z</time>
      </trkpt>
      <trkpt lat="43.59672" lon="5.07888">
        <ele>62</ele>
        <time>2019-12-16T15:14:50Z</time>
      </trkpt>
      <trkpt lat="43.59673" lon="5.07888">
        <ele>62</ele>
        <time>2019-12-16T15:14:51Z</time>
      </trkpt>
      <trkpt lat="43.59674" lon="5.07887">
        <ele>62</ele>
        <time>2019-12-16T15:14:52Z</time>
      </trkpt>
      <trkpt lat="43.59675" lon="5.07886">
        <ele>62</ele>
        <time>2019-12-16T15:14:53Z</time>
      </trkpt>
      <trkpt lat="43.59676" lon="5.07885">
        <ele>62</ele>
        <time>2019-12-16T15:14:54Z</time>
      </trkpt>
      <trkpt lat="43.59677" lon="5.07885">
        <ele>62</ele>
        <time>2019-12-16T15:14:55Z</time>
      </trkpt>
      <trkpt lat="43.59678" lon="5.07884">
        <ele>62</ele>
        <time>2019-12-16T15:14:56Z</time>
      </trkpt>
      <trkpt lat="43.59679" lon="5.07883">
        <ele>62</ele>
        <time>2019-12-16T15:14:57Z</time>
      </trkpt>
      <trkpt lat="43.5968" lon="5.07883">
        <ele>62</ele>
        <time>2019-12-16T15:14:58Z</time>
      </trkpt>
      <trkpt lat="43.59681" lon="5.07882">
        <ele>62</ele>
        <time>2019-12-16T15:14:59Z</time>
      </trkpt>
      <trkpt lat="43.59682" lon="5.07881">
        <ele>62</ele>
        <time>2019-12-16T15:15:00Z</time>
      </trkpt>
      <trkpt lat="43.59683" lon="5.07881">
        <ele>62</ele>
        <time>2019-12-16T15:15:01Z</time>
      </trkpt>
      <trkpt lat="43.59684" lon="5.0788">
        <ele>62</ele>
        <time>2019-12-16T15:15:02Z</time>
      </trkpt>
      <trkpt lat="43.59685" lon="5.0788">
        <ele>62</ele>
        <time>2019-12-16T15:15:03Z</time>
      </trkpt>
      <trkpt lat="43.59686" lon="5.07879">
        <ele>62</ele>
        <time>2019-12-16T15:15:04Z</time>
      </trkpt>
      <trkpt lat="43.59687" lon="5.07879">
        <ele>62</ele>
        <time>2019-12-16T15:15:05Z</time>
      </trkpt>
      <trkpt lat="43.59688" lon="5.07878">
        <ele>62</ele>
        <time>2019-12-16T15:15:06Z</time>
      </trkpt>
      <trkpt lat="43.59689" lon="5.07878">
        <ele>62</ele>
        <time>2019-12-16T15:15:07Z</time>
      </trkpt>
      <trkpt lat="43.5969" lon="5.07877">
        <ele>62</ele>
        <time>2019-12-16T15:15:08Z</time>
      </trkpt>
      <trkpt lat="43.5969" lon="5.07877">
        <ele>62</ele>
        <time>2019-12-16T15:15:09Z</time>
      </trkpt>
      <trkpt lat="43.59691" lon="5.07876">
        <ele>62</ele>
        <time>2019-12-16T15:15:10Z</time>
      </trkpt>
      <trkpt lat="43.59691" lon="5.07876">
        <ele>62</ele>
        <time>2019-12-16T15:15:11Z</time>
      </trkpt>
      <trkpt lat="43.59691" lon="5.07875">
        <ele>62</ele>
        <time>2019-12-16T15:15:12Z</time>
      </trkpt>
      <trkpt lat="43.59692" lon="5.07875">
        <ele>62</ele>
        <time>2019-12-16T15:15:13Z</time>
      </trkpt>
      <trkpt lat="43.59692" lon="5.07874">
        <ele>62</ele>
        <time>2019-12-16T15:15:14Z</time>
      </trkpt>
      <trkpt lat="43.59693" lon="5.07874">
        <ele>62</ele>
        <time>2019-12-16T15:15:15Z</time>
      </trkpt>
      <trkpt lat="43.59694" lon="5.07873">
        <ele>62</ele>
        <time>2019-12-16T15:15:16Z</time>
      </trkpt>
      <trkpt lat="43.59695" lon="5.07873">
        <ele>62</ele>
        <time>2019-12-16T15:15:17Z</time>
      </trkpt>
      <trkpt lat="43.59695" lon="5.07872">
        <ele>62</ele>
        <time>2019-12-16T15:15:18Z</time>
      </trkpt>
      <trkpt lat="43.59696" lon="5.07871">
        <ele>62</ele>
        <time>2019-12-16T15:15:19Z</time>
      </trkpt>
      <trkpt lat="43.59697" lon="5.07871">
        <ele>62</ele>
        <time>2019-12-16T15:15:20Z</time>
      </trkpt>
      <trkpt lat="43.59698" lon="5.0787">
        <ele>62</ele>
        <time>2019-12-16T15:15:21Z</time>
      </trkpt>
      <trkpt lat="43.59699" lon="5.0787">
        <ele>62</ele>
        <time>2019-12-16T15:15:22Z</time>
      </trkpt>
      <trkpt lat="43.597" lon="5.07869">
        <ele>62</ele>
        <time>2019-12-16T15:15:23Z</time>
      </trkpt>
      <trkpt lat="43.59701" lon="5.07868">
        <ele>62</ele>
        <time>2019-12-16T15:15:24Z</time>
      </trkpt>
      <trkpt lat="43.59702" lon="5.07868">
        <ele>62</ele>
        <time>2019-12-16T15:15:25Z</time>
      </trkpt>
      <trkpt lat="43.59703" lon="5.07867">
        <ele>62</ele>
        <time>2019-12-16T15:15:26Z</time>
      </trkpt>
      <trkpt lat="43.59704" lon="5.07867">
        <ele>62</ele>
        <time>2019-12-16T15:15:27Z</time>
      </trkpt>
      <trkpt lat="43.59705" lon="5.07866">
        <ele>62</ele>
        <time>2019-12-16T15:15:28Z</time>
      </trkpt>
      <trkpt lat="43.59706" lon="5.07865">
        <ele>62</ele>
        <time>2019-12-16T15:15:29Z</time>
      </trkpt>
      <trkpt lat="43.59708" lon="5.07865">
        <ele>62</ele>
        <time>2019-12-16T15:15:30Z</time>
      </trkpt>
      <trkpt lat="43.59709" lon="5.07864">
        <ele>62</ele>
        <time>2019-12-16T15:15:31Z</time>
      </trkpt>
      <trkpt lat="43.5971" lon="5.07864">
        <ele>62</ele>
        <time>2019-12-16T15:15:32Z</time>
      </trkpt>
      <trkpt lat="43.59711" lon="5.07863">
        <ele>62</ele>
        <time>2019-12-16T15:15:33Z</time>
      </trkpt>
      <trkpt lat="43.59712" lon="5.07862">
        <ele>62</ele>
        <time>2019-12-16T15:15:34Z</time>
      </trkpt>
      <trkpt lat="43.59713" lon="5.07861">
        <ele>62</ele>
        <time>2019-12-16T15:15:35Z</time>
      </trkpt>
      <trkpt lat="43.59715" lon="5.07861">
        <ele>62</ele>
        <time>2019-12-16T15:15:36Z</time>
      </trkpt>
      <trkpt lat="43.59716" lon="5.0786">
        <ele>62</ele>
        <time>2019-12-16T15:15:37Z</time>
      </trkpt>
      <trkpt lat="43.59717" lon="5.07859">
        <ele>62</ele>
        <time>2019-12-16T15:15:38Z</time>
      </trkpt>
      <trkpt lat="43.59718" lon="5.07858">
        <ele>62</ele>
        <time>2019-12-16T15:15:39Z</time>
      </trkpt>
      <trkpt lat="43.59719" lon="5.07857">
        <ele>62</ele>
        <time>2019-12-16T15:15:40Z</time>
      </trkpt>
      <trkpt lat="43.5972" lon="5.07856">
        <ele>62</ele>
        <time>2019-12-16T15:15:41Z</time>
      </trkpt>
      <trkpt lat="43.59721" lon="5.07855">
        <ele>62</ele>
        <time>2019-12-16T15:15:42Z</time>
      </trkpt>
      <trkpt lat="43.59722" lon="5.07854">
        <ele>62</ele>
        <time>2019-12-16T15:15:43Z</time>
      </trkpt>
      <trkpt lat="43.59722" lon="5.07853">
        <ele>62</ele>
        <time>2019-12-16T15:15:44Z</time>
      </trkpt>
      <trkpt lat="43.59723" lon="5.07852">
        <ele>62</ele>
        <time>2019-12-16T15:15:45Z</time>
      </trkpt>
      <trkpt lat="43.59723" lon="5.0785">
        <ele>62</ele>
        <time>2019-12-16T15:15:46Z</time>
      </trkpt>
      <trkpt lat="43.59723" lon="5.07849">
        <ele>62</ele>
        <time>2019-12-16T15:15:47Z</time>
      </trkpt>
      <trkpt lat="43.59723" lon="5.07848">
        <ele>62</ele>
        <time>2019-12-16T15:15:48Z</time>
      </trkpt>
      <trkpt lat="43.59723" lon="5.07846">
        <ele>62</ele>
        <time>2019-12-16T15:15:49Z</time>
      </trkpt>
      <trkpt lat="43.59723" lon="5.07845">
        <ele>62</ele>
        <time>2019-12-16T15:15:50Z</time>
      </trkpt>
      <trkpt lat="43.59723" lon="5.07843">
        <ele>62</ele>
        <time>2019-12-16T15:15:51Z</time>
      </trkpt>
      <trkpt lat="43.59723" lon="5.07842">
        <ele>62</ele>
        <time>2019-12-16T15:15:52Z</time>
      </trkpt>
      <trkpt lat="43.59722" lon="5.0784">
        <ele>62</ele>
        <time>2019-12-16T15:15:53Z</time>
      </trkpt>
      <trkpt lat="43.59722" lon="5.07839">
        <ele>62</ele>
        <time>2019-12-16T15:15:54Z</time>
      </trkpt>
      <trkpt lat="43.59722" lon="5.07837">
        <ele>62</ele>
        <time>2019-12-16T15:15:55Z</time>
      </trkpt>
      <trkpt lat="43.59721" lon="5.07836">
        <ele>62</ele>
        <time>2019-12-16T15:15:56Z</time>
      </trkpt>
      <trkpt lat="43.59721" lon="5.07834">
        <ele>62</ele>
        <time>2019-12-16T15:15:57Z</time>
      </trkpt>
      <trkpt lat="43.5972" lon="5.07833">
        <ele>61</ele>
        <time>2019-12-16T15:15:58Z</time>
      </trkpt>
      <trkpt lat="43.5972" lon="5.07832">
        <ele>61</ele>
        <time>2019-12-16T15:15:59Z</time>
      </trkpt>
      <trkpt lat="43.59719" lon="5.0783">
        <ele>61</ele>
        <time>2019-12-16T15:16:00Z</time>
      </trkpt>
      <trkpt lat="43.59718" lon="5.07829">
        <ele>61</ele>
        <time>2019-12-16T15:16:01Z</time>
      </trkpt>
      <trkpt lat="43.59718" lon="5.07827">
        <ele>61</ele>
        <time>2019-12-16T15:16:02Z</time>
      </trkpt>
      <trkpt lat="43.59717" lon="5.07826">
        <ele>61</ele>
        <time>2019-12-16T15:16:03Z</time>
      </trkpt>
      <trkpt lat="43.59717" lon="5.07824">
        <ele>61</ele>
        <time>2019-12-16T15:16:04Z</time>
      </trkpt>
      <trkpt lat="43.59716" lon="5.07823">
        <ele>61</ele>
        <time>2019-12-16T15:16:05Z</time>
      </trkpt>
      <trkpt lat="43.59715" lon="5.07822">
        <ele>61</ele>
        <time>2019-12-16T15:16:06Z</time>
      </trkpt>
      <trkpt lat="43.59715" lon="5.0782">
        <ele>61</ele>
        <time>2019-12-16T15:16:07Z</time>
      </trkpt>
      <trkpt lat="43.59714" lon="5.07819">
        <ele>61</ele>
        <time>2019-12-16T15:16:08Z</time>
      </trkpt>
      <trkpt lat="43.59714" lon="5.07817">
        <ele>61</ele>
        <time>2019-12-16T15:16:09Z</time>
      </trkpt>
      <trkpt lat="43.59713" lon="5.07816">
        <ele>61</ele>
        <time>2019-12-16T15:16:10Z</time>
      </trkpt>
      <trkpt lat="43.59713" lon="5.07814">
        <ele>61</ele>
        <time>2019-12-16T15:16:11Z</time>
      </trkpt>
      <trkpt lat="43.59712" lon="5.07813">
        <ele>61</ele>
        <time>2019-12-16T15:16:12Z</time>
      </trkpt>
      <trkpt lat="43.59712" lon="5.07811">
        <ele>61</ele>
        <time>2019-12-16T15:16:13Z</time>
      </trkpt>
      <trkpt lat="43.59711" lon="5.0781">
        <ele>61</ele>
        <time>2019-12-16T15:16:14Z</time>
      </trkpt>
      <trkpt lat="43.59711" lon="5.07808">
        <ele>61</ele>
        <time>2019-12-16T15:16:15Z</time>
      </trkpt>
      <trkpt lat="43.59711" lon="5.07806">
        <ele>61</ele>
        <time>2019-12-16T15:16:16Z</time>
      </trkpt>
      <trkpt lat="43.59711" lon="5.07805">
        <ele>61</ele>
        <time>2019-12-16T15:16:17Z</time>
      </trkpt>
      <trkpt lat="43.59711" lon="5.07803">
        <ele>61</ele>
        <time>2019-12-16T15:16:18Z</time>
      </trkpt>
      <trkpt lat="43.5971" lon="5.07802">
        <ele>61</ele>
        <time>2019-12-16T15:16:19Z</time>
      </trkpt>
      <trkpt lat="43.5971" lon="5.078">
        <ele>61</ele>
        <time>2019-12-16T15:16:20Z</time>
      </trkpt>
      <trkpt lat="43.5971" lon="5.07799">
        <ele>61</ele>
        <time>2019-12-16T15:16:21Z</time>
      </trkpt>
      <trkpt lat="43.5971" lon="5.07798">
        <ele>61</ele>
        <time>2019-12-16T15:16:22Z</time>
      </trkpt>
      <trkpt lat="43.5971" lon="5.07796">
        <ele>61</ele>
        <time>2019-12-16T15:16:23Z</time>
      </trkpt>
      <trkpt lat="43.5971" lon="5.07795">
        <ele>61</ele>
        <time>2019-12-16T15:16:24Z</time>
      </trkpt>
      <trkpt lat="43.5971" lon="5.07794">
        <ele>61</ele>
        <time>2019-12-16T15:16:25Z</time>
      </trkpt>
      <trkpt lat="43.5971" lon="5.07793">
        <ele>61</ele>
        <time>2019-12-16T15:16:26Z</time>
      </trkpt>
      <trkpt lat="43.59711" lon="5.07792">
        <ele>61</ele>
        <time>2019-12-16T15:16:27Z</time>
      </trkpt>
      <trkpt lat="43.59711" lon="5.07792">
        <ele>61</ele>
        <time>2019-12-16T15:16:28Z</time>
      </trkpt>
      <trkpt lat="43.59712" lon="5.07791">
        <ele>61</ele>
        <time>2019-12-16T15:16:29Z</time>
      </trkpt>
      <trkpt lat="43.59713" lon="5.07791">
        <ele>61</ele>
        <time>2019-12-16T15:16:30Z</time>
      </trkpt>
      <trkpt lat="43.59714" lon="5.0779">
        <ele>61</ele>
        <time>2019-12-16T15:16:31Z</time>
      </trkpt>
      <trkpt lat="43.59715" lon="5.0779">
        <ele>61</ele>
        <time>2019-12-16T15:16:32Z</time>
      </trkpt>
      <trkpt lat="43.59717" lon="5.0779">
        <ele>61</ele>
        <time>2019-12-16T15:16:33Z</time>
      </trkpt>
      <trkpt lat="43.59718" lon="5.07789">
        <ele>61</ele>
        <time>2019-12-16T15:16:34Z</time>
      </trkpt>
      <trkpt lat="43.59719" lon="5.07789">
        <ele>61</ele>
        <time>2019-12-16T15:16:35Z</time>
      </trkpt>
      <trkpt lat="43.5972" lon="5.07788">
        <ele>61</ele>
        <time>2019-12-16T15:16:36Z</time>
      </trkpt>
      <trkpt lat="43.59722" lon="5.07787">
        <ele>61</ele>
        <time>2019-12-16T15:16:37Z</time>
      </trkpt>
      <trkpt lat="43.59723" lon="5.07786">
        <ele>61</ele>
        <time>2019-12-16T15:16:38Z</time>
      </trkpt>
      <trkpt lat="43.59724" lon="5.07785">
        <ele>61</ele>
        <time>2019-12-16T15:16:39Z</time>
      </trkpt>
      <trkpt lat="43.59725" lon="5.07784">
        <ele>61</ele>
        <time>2019-12-16T15:16:40Z</time>
      </trkpt>
      <trkpt lat="43.59726" lon="5.07783">
        <ele>61</ele>
        <time>2019-12-16T15:16:41Z</time>
      </trkpt>
      <trkpt lat="43.59727" lon="5.07782">
        <ele>61</ele>
        <time>2019-12-16T15:16:42Z</time>
      </trkpt>
      <trkpt lat="43.59728" lon="5.07781">
        <ele>61</ele>
        <time>2019-12-16T15:16:43Z</time>
      </trkpt>
      <trkpt lat="43.59729" lon="5.07779">
        <ele>61</ele>
        <time>2019-12-16T15:16:44Z</time>
      </trkpt>
      <trkpt lat="43.59729" lon="5.07778">
        <ele>61</ele>
        <time>2019-12-16T15:16:45Z</time>
      </trkpt>
      <trkpt lat="43.5973" lon="5.07777">
        <ele>61</ele>
        <time>2019-12-16T15:16:46Z</time>
      </trkpt>
      <trkpt lat="43.59731" lon="5.07776">
        <ele>61</ele>
        <time>2019-12-16T15:16:47Z</time>
      </trkpt>
      <trkpt lat="43.59732" lon="5.07776">
        <ele>61</ele>
        <time>2019-12-16T15:16:48Z</time>
      </trkpt>
      <trkpt lat="43.59733" lon="5.07775">
        <ele>61</ele>
        <time>2019-12-16T15:16:49Z</time>
      </trkpt>
      <trkpt lat="43.59733" lon="5.07774">
        <ele>61</ele>
        <time>2019-12-16T15:16:50Z</time>
      </trkpt>
      <trkpt lat="43.59734" lon="5.07773">
        <ele>61</ele>
        <time>2019-12-16T15:16:51Z</time>
      </trkpt>
      <trkpt lat="43.59734" lon="5.07772">
        <ele>61</ele>
        <time>2019-12-16T15:16:52Z</time>
      </trkpt>
      <trkpt lat="43.59735" lon="5.07771">
        <ele>61</ele>
        <time>2019-12-16T15:16:53Z</time>
      </trkpt>
      <trkpt lat="43.59735" lon="5.0777">
        <ele>61</ele>
        <time>2019-12-16T15:16:54Z</time>
      </trkpt>
      <trkpt lat="43.59736" lon="5.07769">
        <ele>61</ele>
        <time>2019-12-16T15:16:55Z</time>
      </trkpt>
      <trkpt lat="43.59736" lon="5.07768">
        <ele>61</ele>
        <time>2019-12-16T15:16:56Z</time>
      </trkpt>
      <trkpt lat="43.59737" lon="5.07767">
        <ele>61</ele>
        <time>2019-12-16T15:16:57Z</time>
      </trkpt>
      <trkpt lat="43.59737" lon="5.07766">
        <ele>61</ele>
        <time>2019-12-16T15:16:58Z</time>
      </trkpt>
      <trkpt lat="43.59737" lon="5.07765">
        <ele>61</ele>
        <time>2019-12-16T15:16:59Z</time>
      </trkpt>
      <trkpt lat="43.59737" lon="5.07764">
        <ele>61</ele>
        <time>2019-12-16T15:17:00Z</time>
      </trkpt>
      <trkpt lat="43.59737" lon="5.07763">
        <ele>61</ele>
        <time>2019-12-16T15:17:01Z</time>
      </trkpt>
      <trkpt lat="43.59737" lon="5.07761">
        <ele>61</ele>
        <time>2019-12-16T15:17:02Z</time>
      </trkpt>
      <trkpt lat="43.59737" lon="5.0776">
        <ele>61</ele>
        <time>2019-12-16T15:17:03Z</time>
      </trkpt>
      <trkpt lat="43.59737" lon="5.07758">
        <ele>61</ele>
        <time>2019-12-16T15:17:04Z</time>
      </trkpt>
      <trkpt lat="43.59736" lon="5.07756">
        <ele>61</ele>
        <time>2019-12-16T15:17:05Z</time>
      </trkpt>
      <trkpt lat="43.59736" lon="5.07755">
        <ele>61</ele>
        <time>2019-12-16T15:17:06Z</time>
      </trkpt>
      <trkpt lat="43.59735" lon="5.07753">
        <ele>61</ele>
        <time>2019-12-16T15:17:07Z</time>
      </trkpt>
      <trkpt lat="43.59735" lon="5.07751">
        <ele>61</ele>
        <time>2019-12-16T15:17:08Z</time>
      </trkpt>
      <trkpt lat="43.59734" lon="5.0775">
        <ele>61</ele>
        <time>2019-12-16T15:17:09Z</time>
      </trkpt>
      <trkpt lat="43.59734" lon="5.07748">
        <ele>61</ele>
        <time>2019-12-16T15:17:10Z</time>
      </trkpt>
      <trkpt lat="43.59734" lon="5.07747">
        <ele>61</ele>
        <time>2019-12-16T15:17:11Z</time>
      </trkpt>
      <trkpt lat="43.59733" lon="5.07745">
        <ele>61</ele>
        <time>2019-12-16T15:17:12Z</time>
      </trkpt>
      <trkpt lat="43.59733" lon="5.07744">
        <ele>61</ele>
        <time>2019-12-16T15:17:13Z</time>
      </trkpt>
      <trkpt lat="43.59732" lon="5.07742">
        <ele>61</ele>
        <time>2019-12-16T15:17:14Z</time>
      </trkpt>
      <trkpt lat="43.59732" lon="5.07741">
        <ele>61</ele>
        <time>2019-12-16T15:17:15Z</time>
      </trkpt>
      <trkpt lat="43.59732" lon="5.07739">
        <ele>61</ele>
        <time>2019-12-16T15:17:16Z</time>
      </trkpt>
      <trkpt lat="43.59732" lon="5.07737">
        <ele>61</ele>
        <time>2019-12-16T15:17:17Z</time>
      </trkpt>
      <trkpt lat="43.59731" lon="5.07736">
        <ele>61</ele>
        <time>2019-12-16T15:17:18Z</time>
      </trkpt>
      <trkpt lat="43.59731" lon="5.07734">
        <ele>61</ele>
        <time>2019-12-16T15:17:19Z</time>
      </trkpt>
      <trkpt lat="43.59731" lon="5.07732">
        <ele>61</ele>
        <time>2019-12-16T15:17:20Z</time>
      </trkpt>
      <trkpt lat="43.59731" lon="5.0773">
        <ele>61</ele>
        <time>2019-12-16T15:17:21Z</time>
      </trkpt>
      <trkpt lat="43.59731" lon="5.07728">
        <ele>61</ele>
        <time>2019-12-16T15:17:22Z</time>
      </trkpt>
      <trkpt lat="43.59731" lon="5.07727">
        <ele>61</ele>
        <time>2019-12-16T15:17:23Z</time>
      </trkpt>
      <trkpt lat="43.59731" lon="5.07725">
        <ele>61</ele>
        <time>2019-12-16T15:17:24Z</time>
      </trkpt>
      <trkpt lat="43.59731" lon="5.07723">
        <ele>61</ele>
        <time>2019-12-16T15:17:25Z</time>
      </trkpt>
      <trkpt lat="43.59731" lon="5.07721">
        <ele>61</ele>
        <time>2019-12-16T15:17:26Z</time>
      </trkpt>
      <trkpt lat="43.59731" lon="5.0772">
        <ele>62</ele>
        <time>2019-12-16T15:17:27Z</time>
      </trkpt>
      <trkpt lat="43.59731" lon="5.07718">
        <ele>62</ele>
        <time>2019-12-16T15:17:28Z</time>
      </trkpt>
      <trkpt lat="43.59731" lon="5.07717">
        <ele>62</ele>
        <time>2019-12-16T15:17:29Z</time>
      </trkpt>
      <trkpt lat="43.59731" lon="5.07716">
        <ele>62</ele>
        <time>2019-12-16T15:17:30Z</time>
      </trkpt>
      <trkpt lat="43.59732" lon="5.07715">
        <ele>62</ele>
        <time>2019-12-16T15:17:31Z</time>
      </trkpt>
      <trkpt lat="43.59732" lon="5.07714">
        <ele>62</ele>
        <time>2019-12-16T15:17:32Z</time>
      </trkpt>
      <trkpt lat="43.59733" lon="5.07713">
        <ele>62</ele>
        <time>2019-12-16T15:17:33Z</time>
      </trkpt>
      <trkpt lat="43.59733" lon="5.07711">
        <ele>62</ele>
        <time>2019-12-16T15:17:34Z</time>
      </trkpt>
      <trkpt lat="43.59734" lon="5.0771">
        <ele>62</ele>
        <time>2019-12-16T15:17:35Z</time>
      </trkpt>
      <trkpt lat="43.59735" lon="5.07709">
        <ele>62</ele>
        <time>2019-12-16T15:17:36Z</time>
      </trkpt>
      <trkpt lat="43.59736" lon="5.07708">
        <ele>62</ele>
        <time>2019-12-16T15:17:37Z</time>
      </trkpt>
      <trkpt lat="43.59737" lon="5.07707">
        <ele>62</ele>
        <time>2019-12-16T15:17:38Z</time>
      </trkpt>
      <trkpt lat="43.59738" lon="5.07706">
        <ele>62</ele>
        <time>2019-12-16T15:17:39Z</time>
      </trkpt>
      <trkpt lat="43.59739" lon="5.07705">
        <ele>62</ele>
        <time>2019-12-16T15:17:40Z</time>
      </trkpt>
      <trkpt lat="43.5974" lon="5.07704">
        <ele>62</ele>
        <time>2019-12-16T15:17:41Z</time>
      </trkpt>
      <trkpt lat="43.59741" lon="5.07703">
        <ele>62</ele>
        <time>2019-12-16T15:17:42Z</time>
      </trkpt>
      <trkpt lat="43.59742" lon="5.07702">
        <ele>62</ele>
        <time>2019-12-16T15:17:43Z</time>
      </trkpt>
      <trkpt lat="43.59743" lon="5.07701">
        <ele>61</ele>
        <time>2019-12-16T15:17:44Z</time>
      </trkpt>
      <trkpt lat="43.59744" lon="5.077">
        <ele>61</ele>
        <time>2019-12-16T15:17:45Z</time>
      </trkpt>
      <trkpt lat="43.59745" lon="5.07699">
        <ele>61</ele>
        <time>2019-12-16T15:17:46Z</time>
      </trkpt>
      <trkpt lat="43.59746" lon="5.07698">
        <ele>61</ele>
        <time>2019-12-16T15:17:47Z</time>
      </trkpt>
      <trkpt lat="43.59747" lon="5.07697">
        <ele>61</ele>
        <time>2019-12-16T15:17:48Z</time>
      </trkpt>
      <trkpt lat="43.59748" lon="5.07696">
        <ele>61</ele>
        <time>2019-12-16T15:17:49Z</time>
      </trkpt>
      <trkpt lat="43.59749" lon="5.07695">
        <ele>61</ele>
        <time>2019-12-16T15:17:50Z</time>
      </trkpt>
      <trkpt lat="43.5975" lon="5.07694">
        <ele>61</ele>
        <time>2019-12-16T15:17:51Z</time>
      </trkpt>
      <trkpt lat="43.5975" lon="5.07694">
        <ele>61</ele>
        <time>2019-12-16T15:17:52Z</time>
      </trkpt>
      <trkpt lat="43.59751" lon="5.07693">
        <ele>61</ele>
        <time>2019-12-16T15:17:53Z</time>
      </trkpt>
      <trkpt lat="43.59752" lon="5.07692">
        <ele>61</ele>
        <time>2019-12-16T15:17:54Z</time>
      </trkpt>
      <trkpt lat="43.59753" lon="5.07691">
        <ele>61</ele>
        <time>2019-12-16T15:17:55Z</time>
      </trkpt>
      <trkpt lat="43.59754" lon="5.0769">
        <ele>61</ele>
        <time>2019-12-16T15:17:56Z</time>
      </trkpt>
      <trkpt lat="43.59755" lon="5.07689">
        <ele>61</ele>
        <time>2019-12-16T15:17:57Z</time>
      </trkpt>
      <trkpt lat="43.59756" lon="5.07688">
        <ele>61</ele>
        <time>2019-12-16T15:17:58Z</time>
      </trkpt>
      <trkpt lat="43.59757" lon="5.07688">
        <ele>61</ele>
        <time>2019-12-16T15:17:59Z</time>
      </trkpt>
      <trkpt lat="43.59758" lon="5.07687">
        <ele>61</ele>
        <time>2019-12-16T15:18:00Z</time>
      </trkpt>
      <trkpt lat="43.59759" lon="5.07686">
        <ele>61</ele>
        <time>2019-12-16T15:18:01Z</time>
      </trkpt>
      <trkpt lat="43.5976" lon="5.07685">
        <ele>61</ele>
        <time>2019-12-16T15:18:02Z</time>
      </trkpt>
      <trkpt lat="43.59761" lon="5.07684">
        <ele>61</ele>
        <time>2019-12-16T15:18:03Z</time>
      </trkpt>
      <trkpt lat="43.59762" lon="5.07683">
        <ele>61</ele>
        <time>2019-12-16T15:18:04Z</time>
      </trkpt>
      <trkpt lat="43.59763" lon="5.07682">
        <ele>61</ele>
        <time>2019-12-16T15:18:05Z</time>
      </trkpt>
      <trkpt lat="43.59764" lon="5.07681">
        <ele>61</ele>
        <time>2019-12-16T15:18:06Z</time>
      </trkpt>
      <trkpt lat="43.59765" lon="5.07679">
        <ele>61</ele>
        <time>2019-12-16T15:18:07Z</time>
      </trkpt>
      <trkpt lat="43.59766" lon="5.07678">
        <ele>61</ele>
        <time>2019-12-16T15:18:08Z</time>
      </trkpt>
      <trkpt lat="43.59767" lon="5.07676">
        <ele>61</ele>
        <time>2019-12-16T15:18:09Z</time>
      </trkpt>
      <trkpt lat="43.59767" lon="5.07674">
        <ele>61</ele>
        <time>2019-12-16T15:18:10Z</time>
      </trkpt>
      <trkpt lat="43.59768" lon="5.07673">
        <ele>61</ele>
        <time>2019-12-16T15:18:11Z</time>
      </trkpt>
      <trkpt lat="43.59768" lon="5.07671">
        <ele>61</ele>
        <time>2019-12-16T15:18:12Z</time>
      </trkpt>
      <trkpt lat="43.59768" lon="5.0767">
        <ele>61</ele>
        <time>2019-12-16T15:18:13Z</time>
      </trkpt>
      <trkpt lat="43.59769" lon="5.07668">
        <ele>61</ele>
        <time>2019-12-16T15:18:14Z</time>
      </trkpt>
      <trkpt lat="43.59769" lon="5.07667">
        <ele>61</ele>
        <time>2019-12-16T15:18:15Z</time>
      </trkpt>
      <trkpt lat="43.59769" lon="5.07665">
        <ele>60</ele>
        <time>2019-12-16T15:18:16Z</time>
      </trkpt>
      <trkpt lat="43.5977" lon="5.07664">
        <ele>60</ele>
        <time>2019-12-16T15:18:17Z</time>
      </trkpt>
      <trkpt lat="43.5977" lon="5.07662">
        <ele>60</ele>
        <time>2019-12-16T15:18:18Z</time>
      </trkpt>
      <trkpt lat="43.5977" lon="5.0766">
        <ele>60</ele>
        <time>2019-12-16T15:18:19Z</time>
      </trkpt>
      <trkpt lat="43.59771" lon="5.07659">
        <ele>60</ele>
        <time>2019-12-16T15:18:20Z</time>
      </trkpt>
      <trkpt lat="43.59771" lon="5.07657">
        <ele>60</ele>
        <time>2019-12-16T15:18:21Z</time>
      </trkpt>
      <trkpt lat="43.59771" lon="5.07656">
        <ele>60</ele>
        <time>2019-12-16T15:18:22Z</time>
      </trkpt>
      <trkpt lat="43.59771" lon="5.07654">
        <ele>60</ele>
        <time>2019-12-16T15:18:23Z</time>
      </trkpt>
      <trkpt lat="43.59771" lon="5.07652">
        <ele>60</ele>
        <time>2019-12-16T15:18:24Z</time>
      </trkpt>
      <trkpt lat="43.59772" lon="5.07651">
        <ele>60</ele>
        <time>2019-12-16T15:18:25Z</time>
      </trkpt>
      <trkpt lat="43.59772" lon="5.07649">
        <ele>60</ele>
        <time>2019-12-16T15:18:26Z</time>
      </trkpt>
      <trkpt lat="43.59772" lon="5.07648">
        <ele>60</ele>
        <time>2019-12-16T15:18:27Z</time>
      </trkpt>
      <trkpt lat="43.59772" lon="5.07646">
        <ele>60</ele>
        <time>2019-12-16T15:18:28Z</time>
      </trkpt>
      <trkpt lat="43.59773" lon="5.07645">
        <ele>60</ele>
        <time>2019-12-16T15:18:29Z</time>
      </trkpt>
      <trkpt lat="43.59773" lon="5.07643">
        <ele>60</ele>
        <time>2019-12-16T15:18:30Z</time>
      </trkpt>
      <trkpt lat="43.59773" lon="5.07641">
        <ele>60</ele>
        <time>2019-12-16T15:18:31Z</time>
      </trkpt>
      <trkpt lat="43.59773" lon="5.0764">
        <ele>60</ele>
        <time>2019-12-16T15:18:32Z</time>
      </trkpt>
      <trkpt lat="43.59774" lon="5.07638">
        <ele>60</ele>
        <time>2019-12-16T15:18:33Z</time>
      </trkpt>
      <trkpt lat="43.59774" lon="5.07637">
        <ele>60</ele>
        <time>2019-12-16T15:18:34Z</time>
      </trkpt>
      <trkpt lat="43.59774" lon="5.07635">
        <ele>60</ele>
        <time>2019-12-16T15:18:35Z</time>
      </trkpt>
      <trkpt lat="43.59775" lon="5.07634">
        <ele>60</ele>
        <time>2019-12-16T15:18:36Z</time>
      </trkpt>
      <trkpt lat="43.59775" lon="5.07632">
        <ele>60</ele>
        <time>2019-12-16T15:18:37Z</time>
      </trkpt>
      <trkpt lat="43.59775" lon="5.07631">
        <ele>60</ele>
        <time>2019-12-16T15:18:38Z</time>
      </trkpt>
      <trkpt lat="43.59776" lon="5.07629">
        <ele>60</ele>
        <time>2019-12-16T15:18:39Z</time>
      </trkpt>
      <trkpt lat="43.59776" lon="5.07628">
        <ele>60</ele>
        <time>2019-12-16T15:18:40Z</time>
      </trkpt>
      <trkpt lat="43.59776" lon="5.07626">
        <ele>60</ele>
        <time>2019-12-16T15:18:41Z</time>
      </trkpt>
      <trkpt lat="43.59777" lon="5.07625">
        <ele>60</ele>
        <time>2019-12-16T15:18:42Z</time>
      </trkpt>
      <trkpt lat="43.59777" lon="5.07624">
        <ele>60</ele>
        <time>2019-12-16T15:18:43Z</time>
      </trkpt>
      <trkpt lat="43.59777" lon="5.07622">
        <ele>60</ele>
        <time>2019-12-16T15:18:44Z</time>
      </trkpt>
      <trkpt lat="43.59778" lon="5.07621">
        <ele>60</ele>
        <time>2019-12-16T15:18:45Z</time>
      </trkpt>
      <trkpt lat="43.59778" lon="5.07619">
        <ele>60</ele>
        <time>2019-12-16T15:18:46Z</time>
      </trkpt>
      <trkpt lat="43.59778" lon="5.07618">
        <ele>60</ele>
        <time>2019-12-16T15:18:47Z</time>
      </trkpt>
      <trkpt lat="43.59779" lon="5.07616">
        <ele>60</ele>
        <time>2019-12-16T15:18:48Z</time>
      </trkpt>
      <trkpt lat="43.59779" lon="5.07615">
        <ele>60</ele>
        <time>2019-12-16T15:18:49Z</time>
      </trkpt>
      <trkpt lat="43.59779" lon="5.07613">
        <ele>60</ele>
        <time>2019-12-16T15:18:50Z</time>
      </trkpt>
      <trkpt lat="43.5978" lon="5.07612">
        <ele>60</ele>
        <time>2019-12-16T15:18:51Z</time>
      </trkpt>
      <trkpt lat="43.5978" lon="5.0761">
        <ele>60</ele>
        <time>2019-12-16T15:18:52Z</time>
      </trkpt>
      <trkpt lat="43.5978" lon="5.07609">
        <ele>60</ele>
        <time>2019-12-16T15:18:53Z</time>
      </trkpt>
      <trkpt lat="43.59781" lon="5.07607">
        <ele>60</ele>
        <time>2019-12-16T15:18:54Z</time>
      </trkpt>
      <trkpt lat="43.59781" lon="5.07605">
        <ele>60</ele>
        <time>2019-12-16T15:18:55Z</time>
      </trkpt>
      <trkpt lat="43.59781" lon="5.07604">
        <ele>59</ele>
        <time>2019-12-16T15:18:56Z</time>
      </trkpt>
      <trkpt lat="43.59781" lon="5.07602">
        <ele>59</ele>
        <time>2019-12-16T15:18:57Z</time>
      </trkpt>
      <trkpt lat="43.59782" lon="5.07601">
        <ele>59</ele>
        <time>2019-12-16T15:18:58Z</time>
      </trkpt>
      <trkpt lat="43.59782" lon="5.07599">
        <ele>59</ele>
        <time>2019-12-16T15:18:59Z</time>
      </trkpt>
      <trkpt lat="43.59783" lon="5.07597">
        <ele>59</ele>
        <time>2019-12-16T15:19:00Z</time>
      </trkpt>
      <trkpt lat="43.59783" lon="5.07596">
        <ele>59</ele>
        <time>2019-12-16T15:19:01Z</time>
      </trkpt>
      <trkpt lat="43.59783" lon="5.07595">
        <ele>59</ele>
        <time>2019-12-16T15:19:02Z</time>
      </trkpt>
      <trkpt lat="43.59784" lon="5.07593">
        <ele>59</ele>
        <time>2019-12-16T15:19:03Z</time>
      </trkpt>
      <trkpt lat="43.59784" lon="5.07592">
        <ele>59</ele>
        <time>2019-12-16T15:19:04Z</time>
      </trkpt>
      <trkpt lat="43.59785" lon="5.0759">
        <ele>59</ele>
        <time>2019-12-16T15:19:05Z</time>
      </trkpt>
      <trkpt lat="43.59785" lon="5.07589">
        <ele>59</ele>
        <time>2019-12-16T15:19:06Z</time>
      </trkpt>
      <trkpt lat="43.59786" lon="5.07588">
        <ele>59</ele>
        <time>2019-12-16T15:19:07Z</time>
      </trkpt>
      <trkpt lat="43.59786" lon="5.07586">
        <ele>59</ele>
        <time>2019-12-16T15:19:08Z</time>
      </trkpt>
      <trkpt lat="43.59786" lon="5.07585">
        <ele>59</ele>
        <time>2019-12-16T15:19:09Z</time>
      </trkpt>
      <trkpt lat="43.59787" lon="5.07583">
        <ele>58</ele>
        <time>2019-12-16T15:19:10Z</time>
      </trkpt>
      <trkpt lat="43.59787" lon="5.07582">
        <ele>58</ele>
        <time>2019-12-16T15:19:11Z</time>
      </trkpt>
      <trkpt lat="43.59787" lon="5.0758">
        <ele>58</ele>
        <time>2019-12-16T15:19:12Z</time>
      </trkpt>
      <trkpt lat="43.59787" lon="5.07579">
        <ele>58</ele>
        <time>2019-12-16T15:19:13Z</time>
      </trkpt>
      <trkpt lat="43.59787" lon="5.07577">
        <ele>58</ele>
        <time>2019-12-16T15:19:14Z</time>
      </trkpt>
      <trkpt lat="43.59788" lon="5.07576">
        <ele>58</ele>
        <time>2019-12-16T15:19:15Z</time>
      </trkpt>
      <trkpt lat="43.59788" lon="5.07574">
        <ele>58</ele>
        <time>2019-12-16T15:19:16Z</time>
      </trkpt>
      <trkpt lat="43.59788" lon="5.07573">
        <ele>58</ele>
        <time>2019-12-16T15:19:17Z</time>
      </trkpt>
      <trkpt lat="43.59789" lon="5.07571">
        <ele>58</ele>
        <time>2019-12-16T15:19:18Z</time>
      </trkpt>
      <trkpt lat="43.59789" lon="5.07569">
        <ele>58</ele>
        <time>2019-12-16T15:19:19Z</time>
      </trkpt>
      <trkpt lat="43.5979" lon="5.07568">
        <ele>58</ele>
        <time>2019-12-16T15:19:20Z</time>
      </trkpt>
      <trkpt lat="43.5979" lon="5.07566">
        <ele>58</ele>
        <time>2019-12-16T15:19:21Z</time>
      </trkpt>
      <trkpt lat="43.59791" lon="5.07565">
        <ele>58</ele>
        <time>2019-12-16T15:19:22Z</time>
      </trkpt>
      <trkpt lat="43.59791" lon="5.07563">
        <ele>58</ele>
        <time>2019-12-16T15:19:23Z</time>
      </trkpt>
      <trkpt lat="43.59792" lon="5.07562">
        <ele>58</ele>
        <time>2019-12-16T15:19:24Z</time>
      </trkpt>
      <trkpt lat="43.59793" lon="5.07561">
        <ele>58</ele>
        <time>2019-12-16T15:19:25Z</time>
      </trkpt>
      <trkpt lat="43.59793" lon="5.07559">
        <ele>58</ele>
        <time>2019-12-16T15:19:26Z</time>
      </trkpt>
      <trkpt lat="43.59794" lon="5.07558">
        <ele>58</ele>
        <time>2019-12-16T15:19:27Z</time>
      </trkpt>
      <trkpt lat="43.59795" lon="5.07557">
        <ele>58</ele>
        <time>2019-12-16T15:19:28Z</time>
      </trkpt>
      <trkpt lat="43.59796" lon="5.07556">
        <ele>58</ele>
        <time>2019-12-16T15:19:29Z</time>
      </trkpt>
      <trkpt lat="43.59797" lon="5.07555">
        <ele>58</ele>
        <time>2019-12-16T15:19:30Z</time>
      </trkpt>
      <trkpt lat="43.59798" lon="5.07554">
        <ele>58</ele>
        <time>2019-12-16T15:19:31Z</time>
      </trkpt>
      <trkpt lat="43.59799" lon="5.07553">
        <ele>58</ele>
        <time>2019-12-16T15:19:32Z</time>
      </trkpt>
      <trkpt lat="43.598" lon="5.07552">
        <ele>58</ele>
        <time>2019-12-16T15:19:33Z</time>
      </trkpt>
      <trkpt lat="43.59801" lon="5.07551">
        <ele>58</ele>
        <time>2019-12-16T15:19:34Z</time>
      </trkpt>
      <trkpt lat="43.59802" lon="5.0755">
        <ele>58</ele>
        <time>2019-12-16T15:19:35Z</time>
      </trkpt>
      <trkpt lat="43.59803" lon="5.0755">
        <ele>58</ele>
        <time>2019-12-16T15:19:36Z</time>
      </trkpt>
      <trkpt lat="43.59804" lon="5.07549">
        <ele>58</ele>
        <time>2019-12-16T15:19:37Z</time>
      </trkpt>
      <trkpt lat="43.59805" lon="5.07548">
        <ele>58</ele>
        <time>2019-12-16T15:19:38Z</time>
      </trkpt>
      <trkpt lat="43.59807" lon="5.07547">
        <ele>58</ele>
        <time>2019-12-16T15:19:39Z</time>
      </trkpt>
      <trkpt lat="43.59807" lon="5.07546">
        <ele>58</ele>
        <time>2019-12-16T15:19:40Z</time>
      </trkpt>
      <trkpt lat="43.59809" lon="5.07545">
        <ele>58</ele>
        <time>2019-12-16T15:19:41Z</time>
      </trkpt>
      <trkpt lat="43.5981" lon="5.07544">
        <ele>58</ele>
        <time>2019-12-16T15:19:42Z</time>
      </trkpt>
      <trkpt lat="43.59811" lon="5.07544">
        <ele>58</ele>
        <time>2019-12-16T15:19:43Z</time>
      </trkpt>
      <trkpt lat="43.59812" lon="5.07543">
        <ele>58</ele>
        <time>2019-12-16T15:19:44Z</time>
      </trkpt>
      <trkpt lat="43.59813" lon="5.07542">
        <ele>58</ele>
        <time>2019-12-16T15:19:45Z</time>
      </trkpt>
      <trkpt lat="43.59814" lon="5.07541">
        <ele>58</ele>
        <time>2019-12-16T15:19:46Z</time>
      </trkpt>
      <trkpt lat="43.59814" lon="5.0754">
        <ele>58</ele>
        <time>2019-12-16T15:19:47Z</time>
      </trkpt>
      <trkpt lat="43.59815" lon="5.07539">
        <ele>58</ele>
        <time>2019-12-16T15:19:48Z</time>
      </trkpt>
      <trkpt lat="43.59816" lon="5.07538">
        <ele>58</ele>
        <time>2019-12-16T15:19:49Z</time>
      </trkpt>
      <trkpt lat="43.59817" lon="5.07537">
        <ele>58</ele>
        <time>2019-12-16T15:19:50Z</time>
      </trkpt>
      <trkpt lat="43.59818" lon="5.07536">
        <ele>58</ele>
        <time>2019-12-16T15:19:51Z</time>
      </trkpt>
      <trkpt lat="43.59819" lon="5.07535">
        <ele>58</ele>
        <time>2019-12-16T15:19:52Z</time>
      </trkpt>
      <trkpt lat="43.5982" lon="5.07534">
        <ele>58</ele>
        <time>2019-12-16T15:19:53Z</time>
      </trkpt>
      <trkpt lat="43.59821" lon="5.07533">
        <ele>58</ele>
        <time>2019-12-16T15:19:54Z</time>
      </trkpt>
      <trkpt lat="43.59822" lon="5.07532">
        <ele>58</ele>
        <time>2019-12-16T15:19:55Z</time>
      </trkpt>
      <trkpt lat="43.59823" lon="5.07531">
        <ele>58</ele>
        <time>2019-12-16T15:19:56Z</time>
      </trkpt>
      <trkpt lat="43.59824" lon="5.07531">
        <ele>58</ele>
        <time>2019-12-16T15:19:57Z</time>
      </trkpt>
      <trkpt lat="43.59825" lon="5.0753">
        <ele>58</ele>
        <time>2019-12-16T15:19:58Z</time>
      </trkpt>
      <trkpt lat="43.59826" lon="5.07529">
        <ele>58</ele>
        <time>2019-12-16T15:19:59Z</time>
      </trkpt>
      <trkpt lat="43.59827" lon="5.07529">
        <ele>58</ele>
        <time>2019-12-16T15:20:00Z</time>
      </trkpt>
      <trkpt lat="43.59828" lon="5.07528">
        <ele>58</ele>
        <time>2019-12-16T15:20:01Z</time>
      </trkpt>
      <trkpt lat="43.59829" lon="5.07527">
        <ele>58</ele>
        <time>2019-12-16T15:20:02Z</time>
      </trkpt>
      <trkpt lat="43.5983" lon="5.07526">
        <ele>58</ele>
        <time>2019-12-16T15:20:03Z</time>
      </trkpt>
      <trkpt lat="43.59831" lon="5.07525">
        <ele>58</ele>
        <time>2019-12-16T15:20:04Z</time>
      </trkpt>
      <trkpt lat="43.59832" lon="5.07524">
        <ele>58</ele>
        <time>2019-12-16T15:20:05Z</time>
      </trkpt>
      <trkpt lat="43.59832" lon="5.07523">
        <ele>59</ele>
        <time>2019-12-16T15:20:06Z</time>
      </trkpt>
      <trkpt lat="43.59833" lon="5.07522">
        <ele>59</ele>
        <time>2019-12-16T15:20:07Z</time>
      </trkpt>
      <trkpt lat="43.59834" lon="5.07521">
        <ele>58</ele>
        <time>2019-12-16T15:20:08Z</time>
      </trkpt>
      <trkpt lat="43.59834" lon="5.0752">
        <ele>58</ele>
        <time>2019-12-16T15:20:09Z</time>
      </trkpt>
      <trkpt lat="43.59835" lon="5.07519">
        <ele>58</ele>
        <time>2019-12-16T15:20:10Z</time>
      </trkpt>
      <trkpt lat="43.59835" lon="5.07517">
        <ele>58</ele>
        <time>2019-12-16T15:20:11Z</time>
      </trkpt>
      <trkpt lat="43.59835" lon="5.07516">
        <ele>59</ele>
        <time>2019-12-16T15:20:12Z</time>
      </trkpt>
      <trkpt lat="43.59836" lon="5.07514">
        <ele>59</ele>
        <time>2019-12-16T15:20:13Z</time>
      </trkpt>
      <trkpt lat="43.59836" lon="5.07513">
        <ele>59</ele>
        <time>2019-12-16T15:20:14Z</time>
      </trkpt>
      <trkpt lat="43.59836" lon="5.07511">
        <ele>59</ele>
        <time>2019-12-16T15:20:15Z</time>
      </trkpt>
      <trkpt lat="43.59835" lon="5.0751">
        <ele>59</ele>
        <time>2019-12-16T15:20:16Z</time>
      </trkpt>
      <trkpt lat="43.59835" lon="5.07508">
        <ele>59</ele>
        <time>2019-12-16T15:20:17Z</time>
      </trkpt>
      <trkpt lat="43.59835" lon="5.07507">
        <ele>59</ele>
        <time>2019-12-16T15:20:18Z</time>
      </trkpt>
      <trkpt lat="43.59834" lon="5.07506">
        <ele>59</ele>
        <time>2019-12-16T15:20:19Z</time>
      </trkpt>
      <trkpt lat="43.59834" lon="5.07504">
        <ele>59</ele>
        <time>2019-12-16T15:20:20Z</time>
      </trkpt>
      <trkpt lat="43.59834" lon="5.07503">
        <ele>59</ele>
        <time>2019-12-16T15:20:21Z</time>
      </trkpt>
      <trkpt lat="43.59833" lon="5.07501">
        <ele>59</ele>
        <time>2019-12-16T15:20:22Z</time>
      </trkpt>
      <trkpt lat="43.59833" lon="5.075">
        <ele>59</ele>
        <time>2019-12-16T15:20:23Z</time>
      </trkpt>
      <trkpt lat="43.59832" lon="5.07499">
        <ele>59</ele>
        <time>2019-12-16T15:20:24Z</time>
      </trkpt>
      <trkpt lat="43.59832" lon="5.07497">
        <ele>59</ele>
        <time>2019-12-16T15:20:25Z</time>
      </trkpt>
      <trkpt lat="43.59831" lon="5.07496">
        <ele>59</ele>
        <time>2019-12-16T15:20:26Z</time>
      </trkpt>
      <trkpt lat="43.5983" lon="5.07495">
        <ele>59</ele>
        <time>2019-12-16T15:20:27Z</time>
      </trkpt>
      <trkpt lat="43.5983" lon="5.07493">
        <ele>59</ele>
        <time>2019-12-16T15:20:28Z</time>
      </trkpt>
      <trkpt lat="43.5983" lon="5.07492">
        <ele>59</ele>
        <time>2019-12-16T15:20:29Z</time>
      </trkpt>
      <trkpt lat="43.59829" lon="5.0749">
        <ele>59</ele>
        <time>2019-12-16T15:20:30Z</time>
      </trkpt>
      <trkpt lat="43.59829" lon="5.07488">
        <ele>59</ele>
        <time>2019-12-16T15:20:31Z</time>
      </trkpt>
      <trkpt lat="43.59829" lon="5.07487">
        <ele>58</ele>
        <time>2019-12-16T15:20:32Z</time>
      </trkpt>
      <trkpt lat="43.59828" lon="5.07485">
        <ele>58</ele>
        <time>2019-12-16T15:20:33Z</time>
      </trkpt>
      <trkpt lat="43.59828" lon="5.07484">
        <ele>58</ele>
        <time>2019-12-16T15:20:34Z</time>
      </trkpt>
      <trkpt lat="43.59828" lon="5.07482">
        <ele>58</ele>
        <time>2019-12-16T15:20:35Z</time>
      </trkpt>
      <trkpt lat="43.59827" lon="5.07481">
        <ele>58</ele>
        <time>2019-12-16T15:20:36Z</time>
      </trkpt>
      <trkpt lat="43.59827" lon="5.07479">
        <ele>58</ele>
        <time>2019-12-16T15:20:37Z</time>
      </trkpt>
      <trkpt lat="43.59827" lon="5.07478">
        <ele>58</ele>
        <time>2019-12-16T15:20:38Z</time>
      </trkpt>
      <trkpt lat="43.59826" lon="5.07476">
        <ele>58</ele>
        <time>2019-12-16T15:20:39Z</time>
      </trkpt>
      <trkpt lat="43.59826" lon="5.07475">
        <ele>58</ele>
        <time>2019-12-16T15:20:40Z</time>
      </trkpt>
      <trkpt lat="43.59826" lon="5.07473">
        <ele>58</ele>
        <time>2019-12-16T15:20:41Z</time>
      </trkpt>
      <trkpt lat="43.59825" lon="5.07472">
        <ele>58</ele>
        <time>2019-12-16T15:20:42Z</time>
      </trkpt>
      <trkpt lat="43.59825" lon="5.0747">
        <ele>58</ele>
        <time>2019-12-16T15:20:43Z</time>
      </trkpt>
      <trkpt lat="43.59824" lon="5.07469">
        <ele>58</ele>
        <time>2019-12-16T15:20:44Z</time>
      </trkpt>
      <trkpt lat="43.59824" lon="5.07467">
        <ele>58</ele>
        <time>2019-12-16T15:20:45Z</time>
      </trkpt>
      <trkpt lat="43.59823" lon="5.07466">
        <ele>58</ele>
        <time>2019-12-16T15:20:46Z</time>
      </trkpt>
      <trkpt lat="43.59823" lon="5.07464">
        <ele>58</ele>
        <time>2019-12-16T15:20:47Z</time>
      </trkpt>
      <trkpt lat="43.59823" lon="5.07463">
        <ele>58</ele>
        <time>2019-12-16T15:20:48Z</time>
      </trkpt>
      <trkpt lat="43.59823" lon="5.07461">
        <ele>58</ele>
        <time>2019-12-16T15:20:49Z</time>
      </trkpt>
      <trkpt lat="43.59823" lon="5.0746">
        <ele>58</ele>
        <time>2019-12-16T15:20:50Z</time>
      </trkpt>
      <trkpt lat="43.59823" lon="5.07458">
        <ele>58</ele>
        <time>2019-12-16T15:20:51Z</time>
      </trkpt>
      <trkpt lat="43.59823" lon="5.07457">
        <ele>58</ele>
        <time>2019-12-16T15:20:52Z</time>
      </trkpt>
      <trkpt lat="43.59824" lon="5.07455">
        <ele>58</ele>
        <time>2019-12-16T15:20:53Z</time>
      </trkpt>
      <trkpt lat="43.59824" lon="5.07454">
        <ele>58</ele>
        <time>2019-12-16T15:20:54Z</time>
      </trkpt>
      <trkpt lat="43.59825" lon="5.07452">
        <ele>58</ele>
        <time>2019-12-16T15:20:55Z</time>
      </trkpt>
      <trkpt lat="43.59826" lon="5.07451">
        <ele>58</ele>
        <time>2019-12-16T15:20:56Z</time>
      </trkpt>
      <trkpt lat="43.59827" lon="5.0745">
        <ele>58</ele>
        <time>2019-12-16T15:20:57Z</time>
      </trkpt>
      <trkpt lat="43.59828" lon="5.07449">
        <ele>58</ele>
        <time>2019-12-16T15:20:58Z</time>
      </trkpt>
      <trkpt lat="43.59829" lon="5.07448">
        <ele>58</ele>
        <time>2019-12-16T15:20:59Z</time>
      </trkpt>
      <trkpt lat="43.5983" lon="5.07448">
        <ele>58</ele>
        <time>2019-12-16T15:21:00Z</time>
      </trkpt>
      <trkpt lat="43.59831" lon="5.07447">
        <ele>58</ele>
        <time>2019-12-16T15:21:01Z</time>
      </trkpt>
      <trkpt lat="43.59832" lon="5.07446">
        <ele>58</ele>
        <time>2019-12-16T15:21:02Z</time>
      </trkpt>
      <trkpt lat="43.59833" lon="5.07446">
        <ele>58</ele>
        <time>2019-12-16T15:21:03Z</time>
      </trkpt>
      <trkpt lat="43.59834" lon="5.07445">
        <ele>58</ele>
        <time>2019-12-16T15:21:04Z</time>
      </trkpt>
      <trkpt lat="43.59835" lon="5.07445">
        <ele>58</ele>
        <time>2019-12-16T15:21:05Z</time>
      </trkpt>
      <trkpt lat="43.59836" lon="5.07444">
        <ele>58</ele>
        <time>2019-12-16T15:21:06Z</time>
      </trkpt>
      <trkpt lat="43.59837" lon="5.07444">
        <ele>58</ele>
        <time>2019-12-16T15:21:07Z</time>
      </trkpt>
      <trkpt lat="43.59838" lon="5.07443">
        <ele>58</ele>
        <time>2019-12-16T15:21:08Z</time>
      </trkpt>
      <trkpt lat="43.59839" lon="5.07442">
        <ele>58</ele>
        <time>2019-12-16T15:21:09Z</time>
      </trkpt>
      <trkpt lat="43.5984" lon="5.07442">
        <ele>58</ele>
        <time>2019-12-16T15:21:10Z</time>
      </trkpt>
      <trkpt lat="43.59841" lon="5.07441">
        <ele>58</ele>
        <time>2019-12-16T15:21:11Z</time>
      </trkpt>
      <trkpt lat="43.59842" lon="5.0744">
        <ele>58</ele>
        <time>2019-12-16T15:21:12Z</time>
      </trkpt>
      <trkpt lat="43.59843" lon="5.0744">
        <ele>58</ele>
        <time>2019-12-16T15:21:13Z</time>
      </trkpt>
      <trkpt lat="43.59844" lon="5.07439">
        <ele>58</ele>
        <time>2019-12-16T15:21:14Z</time>
      </trkpt>
      <trkpt lat="43.59845" lon="5.07438">
        <ele>58</ele>
        <time>2019-12-16T15:21:15Z</time>
      </trkpt>
      <trkpt lat="43.59846" lon="5.07438">
        <ele>58</ele>
        <time>2019-12-16T15:21:16Z</time>
      </trkpt>
      <trkpt lat="43.59847" lon="5.07437">
        <ele>58</ele>
        <time>2019-12-16T15:21:17Z</time>
      </trkpt>
      <trkpt lat="43.59848" lon="5.07436">
        <ele>58</ele>
        <time>2019-12-16T15:21:18Z</time>
      </trkpt>
      <trkpt lat="43.59849" lon="5.07435">
        <ele>58</ele>
        <time>2019-12-16T15:21:19Z</time>
      </trkpt>
      <trkpt lat="43.5985" lon="5.07435">
        <ele>58</ele>
        <time>2019-12-16T15:21:20Z</time>
      </trkpt>
      <trkpt lat="43.59852" lon="5.07434">
        <ele>58</ele>
        <time>2019-12-16T15:21:21Z</time>
      </trkpt>
      <trkpt lat="43.59853" lon="5.07433">
        <ele>58</ele>
        <time>2019-12-16T15:21:22Z</time>
      </trkpt>
      <trkpt lat="43.59854" lon="5.07432">
        <ele>58</ele>
        <time>2019-12-16T15:21:23Z</time>
      </trkpt>
      <trkpt lat="43.59855" lon="5.07431">
        <ele>58</ele>
        <time>2019-12-16T15:21:24Z</time>
      </trkpt>
      <trkpt lat="43.59856" lon="5.07431">
        <ele>58</ele>
        <time>2019-12-16T15:21:25Z</time>
      </trkpt>
      <trkpt lat="43.59857" lon="5.0743">
        <ele>58</ele>
        <time>2019-12-16T15:21:26Z</time>
      </trkpt>
      <trkpt lat="43.59858" lon="5.07429">
        <ele>58</ele>
        <time>2019-12-16T15:21:27Z</time>
      </trkpt>
      <trkpt lat="43.59859" lon="5.07428">
        <ele>58</ele>
        <time>2019-12-16T15:21:28Z</time>
      </trkpt>
      <trkpt lat="43.59861" lon="5.07427">
        <ele>58</ele>
        <time>2019-12-16T15:21:29Z</time>
      </trkpt>
      <trkpt lat="43.59862" lon="5.07427">
        <ele>59</ele>
        <time>2019-12-16T15:21:30Z</time>
      </trkpt>
      <trkpt lat="43.59863" lon="5.07426">
        <ele>59</ele>
        <time>2019-12-16T15:21:31Z</time>
      </trkpt>
      <trkpt lat="43.59864" lon="5.07425">
        <ele>59</ele>
        <time>2019-12-16T15:21:32Z</time>
      </trkpt>
      <trkpt lat="43.59865" lon="5.07424">
        <ele>59</ele>
        <time>2019-12-16T15:21:33Z</time>
      </trkpt>
      <trkpt lat="43.59866" lon="5.07423">
        <ele>59</ele>
        <time>2019-12-16T15:21:34Z</time>
      </trkpt>
      <trkpt lat="43.59867" lon="5.07422">
        <ele>59</ele>
        <time>2019-12-16T15:21:35Z</time>
      </trkpt>
      <trkpt lat="43.59868" lon="5.07421">
        <ele>59</ele>
        <time>2019-12-16T15:21:36Z</time>
      </trkpt>
      <trkpt lat="43.59869" lon="5.07421">
        <ele>59</ele>
        <time>2019-12-16T15:21:37Z</time>
      </trkpt>
      <trkpt lat="43.5987" lon="5.0742">
        <ele>59</ele>
        <time>2019-12-16T15:21:38Z</time>
      </trkpt>
      <trkpt lat="43.59871" lon="5.07419">
        <ele>59</ele>
        <time>2019-12-16T15:21:39Z</time>
      </trkpt>
      <trkpt lat="43.59872" lon="5.07418">
        <ele>59</ele>
        <time>2019-12-16T15:21:40Z</time>
      </trkpt>
      <trkpt lat="43.59873" lon="5.07417">
        <ele>59</ele>
        <time>2019-12-16T15:21:41Z</time>
      </trkpt>
      <trkpt lat="43.59874" lon="5.07416">
        <ele>60</ele>
        <time>2019-12-16T15:21:42Z</time>
      </trkpt>
      <trkpt lat="43.59875" lon="5.07416">
        <ele>60</ele>
        <time>2019-12-16T15:21:43Z</time>
      </trkpt>
      <trkpt lat="43.59876" lon="5.07415">
        <ele>60</ele>
        <time>2019-12-16T15:21:44Z</time>
      </trkpt>
      <trkpt lat="43.59877" lon="5.07414">
        <ele>60</ele>
        <time>2019-12-16T15:21:45Z</time>
      </trkpt>
      <trkpt lat="43.59878" lon="5.07413">
        <ele>60</ele>
        <time>2019-12-16T15:21:46Z</time>
      </trkpt>
      <trkpt lat="43.59879" lon="5.07412">
        <ele>60</ele>
        <time>2019-12-16T15:21:47Z</time>
      </trkpt>
      <trkpt lat="43.59881" lon="5.07411">
        <ele>60</ele>
        <time>2019-12-16T15:21:48Z</time>
      </trkpt>
      <trkpt lat="43.59882" lon="5.0741">
        <ele>60</ele>
        <time>2019-12-16T15:21:49Z</time>
      </trkpt>
      <trkpt lat="43.59883" lon="5.07409">
        <ele>60</ele>
        <time>2019-12-16T15:21:50Z</time>
      </trkpt>
      <trkpt lat="43.59884" lon="5.07408">
        <ele>60</ele>
        <time>2019-12-16T15:21:51Z</time>
      </trkpt>
      <trkpt lat="43.59885" lon="5.07407">
        <ele>60</ele>
        <time>2019-12-16T15:21:52Z</time>
      </trkpt>
      <trkpt lat="43.59886" lon="5.07406">
        <ele>60</ele>
        <time>2019-12-16T15:21:53Z</time>
      </trkpt>
      <trkpt lat="43.59887" lon="5.07405">
        <ele>60</ele>
        <time>2019-12-16T15:21:54Z</time>
      </trkpt>
      <trkpt lat="43.59888" lon="5.07405">
        <ele>60</ele>
        <time>2019-12-16T15:21:55Z</time>
      </trkpt>
      <trkpt lat="43.59889" lon="5.07404">
        <ele>60</ele>
        <time>2019-12-16T15:21:56Z</time>
      </trkpt>
      <trkpt lat="43.5989" lon="5.07403">
        <ele>60</ele>
        <time>2019-12-16T15:21:57Z</time>
      </trkpt>
      <trkpt lat="43.59891" lon="5.07402">
        <ele>60</ele>
        <time>2019-12-16T15:21:58Z</time>
      </trkpt>
      <trkpt lat="43.59892" lon="5.07402">
        <ele>60</ele>
        <time>2019-12-16T15:21:59Z</time>
      </trkpt>
      <trkpt lat="43.59892" lon="5.07401">
        <ele>60</ele>
        <time>2019-12-16T15:22:00Z</time>
      </trkpt>
      <trkpt lat="43.59893" lon="5.074">
        <ele>60</ele>
        <time>2019-12-16T15:22:01Z</time>
      </trkpt>
      <trkpt lat="43.59894" lon="5.074">
        <ele>60</ele>
        <time>2019-12-16T15:22:02Z</time>
      </trkpt>
      <trkpt lat="43.59895" lon="5.07399">
        <ele>60</ele>
        <time>2019-12-16T15:22:03Z</time>
      </trkpt>
      <trkpt lat="43.59896" lon="5.07398">
        <ele>60</ele>
        <time>2019-12-16T15:22:04Z</time>
      </trkpt>
      <trkpt lat="43.59896" lon="5.07398">
        <ele>60</ele>
        <time>2019-12-16T15:22:05Z</time>
      </trkpt>
      <trkpt lat="43.59897" lon="5.07397">
        <ele>60</ele>
        <time>2019-12-16T15:22:06Z</time>
      </trkpt>
      <trkpt lat="43.59898" lon="5.07396">
        <ele>60</ele>
        <time>2019-12-16T15:22:07Z</time>
      </trkpt>
      <trkpt lat="43.59899" lon="5.07395">
        <ele>60</ele>
        <time>2019-12-16T15:22:08Z</time>
      </trkpt>
      <trkpt lat="43.599" lon="5.07394">
        <ele>60</ele>
        <time>2019-12-16T15:22:09Z</time>
      </trkpt>
      <trkpt lat="43.599" lon="5.07393">
        <ele>60</ele>
        <time>2019-12-16T15:22:10Z</time>
      </trkpt>
      <trkpt lat="43.59901" lon="5.07392">
        <ele>60</ele>
        <time>2019-12-16T15:22:11Z</time>
      </trkpt>
      <trkpt lat="43.59902" lon="5.07391">
        <ele>60</ele>
        <time>2019-12-16T15:22:12Z</time>
      </trkpt>
      <trkpt lat="43.59903" lon="5.07389">
        <ele>60</ele>
        <time>2019-12-16T15:22:13Z</time>
      </trkpt>
      <trkpt lat="43.59903" lon="5.07388">
        <ele>60</ele>
        <time>2019-12-16T15:22:14Z</time>
      </trkpt>
      <trkpt lat="43.59904" lon="5.07387">
        <ele>60</ele>
        <time>2019-12-16T15:22:15Z</time>
      </trkpt>
      <trkpt lat="43.59905" lon="5.07386">
        <ele>61</ele>
        <time>2019-12-16T15:22:16Z</time>
      </trkpt>
      <trkpt lat="43.59905" lon="5.07385">
        <ele>61</ele>
        <time>2019-12-16T15:22:17Z</time>
      </trkpt>
      <trkpt lat="43.59906" lon="5.07383">
        <ele>61</ele>
        <time>2019-12-16T15:22:18Z</time>
      </trkpt>
      <trkpt lat="43.59906" lon="5.07382">
        <ele>61</ele>
        <time>2019-12-16T15:22:19Z</time>
      </trkpt>
      <trkpt lat="43.59906" lon="5.07381">
        <ele>61</ele>
        <time>2019-12-16T15:22:20Z</time>
      </trkpt>
      <trkpt lat="43.59906" lon="5.0738">
        <ele>61</ele>
        <time>2019-12-16T15:22:21Z</time>
      </trkpt>
      <trkpt lat="43.59907" lon="5.07379">
        <ele>61</ele>
        <time>2019-12-16T15:22:22Z</time>
      </trkpt>
      <trkpt lat="43.59907" lon="5.07377">
        <ele>61</ele>
        <time>2019-12-16T15:22:23Z</time>
      </trkpt>
      <trkpt lat="43.59906" lon="5.07376">
        <ele>61</ele>
        <time>2019-12-16T15:22:24Z</time>
      </trkpt>
      <trkpt lat="43.59906" lon="5.07375">
        <ele>61</ele>
        <time>2019-12-16T15:22:25Z</time>
      </trkpt>
      <trkpt lat="43.59906" lon="5.07373">
        <ele>61</ele>
        <time>2019-12-16T15:22:26Z</time>
      </trkpt>
      <trkpt lat="43.59906" lon="5.07372">
        <ele>61</ele>
        <time>2019-12-16T15:22:27Z</time>
      </trkpt>
      <trkpt lat="43.59906" lon="5.07371">
        <ele>61</ele>
        <time>2019-12-16T15:22:28Z</time>
      </trkpt>
      <trkpt lat="43.59906" lon="5.07369">
        <ele>61</ele>
        <time>2019-12-16T15:22:29Z</time>
      </trkpt>
      <trkpt lat="43.59906" lon="5.07368">
        <ele>61</ele>
        <time>2019-12-16T15:22:30Z</time>
      </trkpt>
      <trkpt lat="43.59906" lon="5.07366">
        <ele>61</ele>
        <time>2019-12-16T15:22:31Z</time>
      </trkpt>
      <trkpt lat="43.59906" lon="5.07364">
        <ele>61</ele>
        <time>2019-12-16T15:22:32Z</time>
      </trkpt>
      <trkpt lat="43.59906" lon="5.07363">
        <ele>61</ele>
        <time>2019-12-16T15:22:33Z</time>
      </trkpt>
      <trkpt lat="43.59906" lon="5.07361">
        <ele>61</ele>
        <time>2019-12-16T15:22:34Z</time>
      </trkpt>
      <trkpt lat="43.59906" lon="5.0736">
        <ele>61</ele>
        <time>2019-12-16T15:22:35Z</time>
      </trkpt>
      <trkpt lat="43.59906" lon="5.07359">
        <ele>61</ele>
        <time>2019-12-16T15:22:36Z</time>
      </trkpt>
      <trkpt lat="43.59906" lon="5.07357">
        <ele>62</ele>
        <time>2019-12-16T15:22:37Z</time>
      </trkpt>
      <trkpt lat="43.59906" lon="5.07356">
        <ele>62</ele>
        <time>2019-12-16T15:22:38Z</time>
      </trkpt>
      <trkpt lat="43.59906" lon="5.07354">
        <ele>62</ele>
        <time>2019-12-16T15:22:39Z</time>
      </trkpt>
      <trkpt lat="43.59906" lon="5.07353">
        <ele>62</ele>
        <time>2019-12-16T15:22:40Z</time>
      </trkpt>
      <trkpt lat="43.59906" lon="5.07351">
        <ele>62</ele>
        <time>2019-12-16T15:22:41Z</time>
      </trkpt>
      <trkpt lat="43.59906" lon="5.0735">
        <ele>62</ele>
        <time>2019-12-16T15:22:42Z</time>
      </trkpt>
      <trkpt lat="43.59906" lon="5.07348">
        <ele>62</ele>
        <time>2019-12-16T15:22:43Z</time>
      </trkpt>
      <trkpt lat="43.59906" lon="5.07347">
        <ele>62</ele>
        <time>2019-12-16T15:22:44Z</time>
      </trkpt>
      <trkpt lat="43.59906" lon="5.07345">
        <ele>62</ele>
        <time>2019-12-16T15:22:45Z</time>
      </trkpt>
      <trkpt lat="43.59906" lon="5.07344">
        <ele>62</ele>
        <time>2019-12-16T15:22:46Z</time>
      </trkpt>
      <trkpt lat="43.59906" lon="5.07342">
        <ele>62</ele>
        <time>2019-12-16T15:22:47Z</time>
      </trkpt>
      <trkpt lat="43.59906" lon="5.07341">
        <ele>62</ele>
        <time>2019-12-16T15:22:48Z</time>
      </trkpt>
      <trkpt lat="43.59906" lon="5.07339">
        <ele>63</ele>
        <time>2019-12-16T15:22:49Z</time>
      </trkpt>
      <trkpt lat="43.59906" lon="5.07338">
        <ele>63</ele>
        <time>2019-12-16T15:22:50Z</time>
      </trkpt>
      <trkpt lat="43.59906" lon="5.07337">
        <ele>63</ele>
        <time>2019-12-16T15:22:51Z</time>
      </trkpt>
      <trkpt lat="43.59906" lon="5.07336">
        <ele>63</ele>
        <time>2019-12-16T15:22:52Z</time>
      </trkpt>
      <trkpt lat="43.59906" lon="5.07334">
        <ele>63</ele>
        <time>2019-12-16T15:22:53Z</time>
      </trkpt>
      <trkpt lat="43.59906" lon="5.07333">
        <ele>63</ele>
        <time>2019-12-16T15:22:54Z</time>
      </trkpt>
      <trkpt lat="43.59906" lon="5.07332">
        <ele>63</ele>
        <time>2019-12-16T15:22:55Z</time>
      </trkpt>
      <trkpt lat="43.59906" lon="5.0733">
        <ele>63</ele>
        <time>2019-12-16T15:22:56Z</time>
      </trkpt>
      <trkpt lat="43.59907" lon="5.07329">
        <ele>63</ele>
        <time>2019-12-16T15:22:57Z</time>
      </trkpt>
      <trkpt lat="43.59907" lon="5.07328">
        <ele>63</ele>
        <time>2019-12-16T15:22:58Z</time>
      </trkpt>
      <trkpt lat="43.59907" lon="5.07327">
        <ele>63</ele>
        <time>2019-12-16T15:22:59Z</time>
      </trkpt>
      <trkpt lat="43.59908" lon="5.07325">
        <ele>63</ele>
        <time>2019-12-16T15:23:00Z</time>
      </trkpt>
      <trkpt lat="43.59908" lon="5.07324">
        <ele>63</ele>
        <time>2019-12-16T15:23:01Z</time>
      </trkpt>
      <trkpt lat="43.59908" lon="5.07323">
        <ele>63</ele>
        <time>2019-12-16T15:23:02Z</time>
      </trkpt>
      <trkpt lat="43.59909" lon="5.07321">
        <ele>63</ele>
        <time>2019-12-16T15:23:03Z</time>
      </trkpt>
      <trkpt lat="43.59909" lon="5.0732">
        <ele>63</ele>
        <time>2019-12-16T15:23:04Z</time>
      </trkpt>
      <trkpt lat="43.5991" lon="5.07319">
        <ele>63</ele>
        <time>2019-12-16T15:23:05Z</time>
      </trkpt>
      <trkpt lat="43.59911" lon="5.07317">
        <ele>63</ele>
        <time>2019-12-16T15:23:06Z</time>
      </trkpt>
      <trkpt lat="43.59911" lon="5.07316">
        <ele>63</ele>
        <time>2019-12-16T15:23:07Z</time>
      </trkpt>
      <trkpt lat="43.59912" lon="5.07315">
        <ele>63</ele>
        <time>2019-12-16T15:23:08Z</time>
      </trkpt>
      <trkpt lat="43.59912" lon="5.07313">
        <ele>63</ele>
        <time>2019-12-16T15:23:09Z</time>
      </trkpt>
      <trkpt lat="43.59913" lon="5.07312">
        <ele>63</ele>
        <time>2019-12-16T15:23:10Z</time>
      </trkpt>
      <trkpt lat="43.59914" lon="5.07311">
        <ele>63</ele>
        <time>2019-12-16T15:23:11Z</time>
      </trkpt>
      <trkpt lat="43.59914" lon="5.07309">
        <ele>63</ele>
        <time>2019-12-16T15:23:12Z</time>
      </trkpt>
      <trkpt lat="43.59915" lon="5.07308">
        <ele>63</ele>
        <time>2019-12-16T15:23:13Z</time>
      </trkpt>
      <trkpt lat="43.59915" lon="5.07307">
        <ele>62</ele>
        <time>2019-12-16T15:23:14Z</time>
      </trkpt>
      <trkpt lat="43.59916" lon="5.07305">
        <ele>62</ele>
        <time>2019-12-16T15:23:15Z</time>
      </trkpt>
      <trkpt lat="43.59916" lon="5.07304">
        <ele>62</ele>
        <time>2019-12-16T15:23:16Z</time>
      </trkpt>
      <trkpt lat="43.59917" lon="5.07302">
        <ele>63</ele>
        <time>2019-12-16T15:23:17Z</time>
      </trkpt>
      <trkpt lat="43.59918" lon="5.07301">
        <ele>63</ele>
        <time>2019-12-16T15:23:18Z</time>
      </trkpt>
      <trkpt lat="43.59918" lon="5.07299">
        <ele>63</ele>
        <time>2019-12-16T15:23:19Z</time>
      </trkpt>
      <trkpt lat="43.59919" lon="5.07298">
        <ele>63</ele>
        <time>2019-12-16T15:23:20Z</time>
      </trkpt>
      <trkpt lat="43.59919" lon="5.07297">
        <ele>63</ele>
        <time>2019-12-16T15:23:21Z</time>
      </trkpt>
      <trkpt lat="43.5992" lon="5.07295">
        <ele>63</ele>
        <time>2019-12-16T15:23:22Z</time>
      </trkpt>
      <trkpt lat="43.5992" lon="5.07294">
        <ele>63</ele>
        <time>2019-12-16T15:23:23Z</time>
      </trkpt>
      <trkpt lat="43.59921" lon="5.07292">
        <ele>63</ele>
        <time>2019-12-16T15:23:24Z</time>
      </trkpt>
      <trkpt lat="43.59921" lon="5.07291">
        <ele>63</ele>
        <time>2019-12-16T15:23:25Z</time>
      </trkpt>
      <trkpt lat="43.59922" lon="5.07289">
        <ele>63</ele>
        <time>2019-12-16T15:23:26Z</time>
      </trkpt>
      <trkpt lat="43.59922" lon="5.07288">
        <ele>63</ele>
        <time>2019-12-16T15:23:27Z</time>
      </trkpt>
      <trkpt lat="43.59923" lon="5.07286">
        <ele>63</ele>
        <time>2019-12-16T15:23:28Z</time>
      </trkpt>
      <trkpt lat="43.59923" lon="5.07285">
        <ele>63</ele>
        <time>2019-12-16T15:23:29Z</time>
      </trkpt>
      <trkpt lat="43.59924" lon="5.07283">
        <ele>63</ele>
        <time>2019-12-16T15:23:30Z</time>
      </trkpt>
      <trkpt lat="43.59924" lon="5.07282">
        <ele>63</ele>
        <time>2019-12-16T15:23:31Z</time>
      </trkpt>
      <trkpt lat="43.59925" lon="5.0728">
        <ele>63</ele>
        <time>2019-12-16T15:23:32Z</time>
      </trkpt>
      <trkpt lat="43.59925" lon="5.07279">
        <ele>63</ele>
        <time>2019-12-16T15:23:33Z</time>
      </trkpt>
      <trkpt lat="43.59925" lon="5.07277">
        <ele>63</ele>
        <time>2019-12-16T15:23:34Z</time>
      </trkpt>
      <trkpt lat="43.59926" lon="5.07276">
        <ele>63</ele>
        <time>2019-12-16T15:23:35Z</time>
      </trkpt>
      <trkpt lat="43.59926" lon="5.07275">
        <ele>63</ele>
        <time>2019-12-16T15:23:36Z</time>
      </trkpt>
      <trkpt lat="43.59927" lon="5.07273">
        <ele>63</ele>
        <time>2019-12-16T15:23:37Z</time>
      </trkpt>
      <trkpt lat="43.59927" lon="5.07272">
        <ele>63</ele>
        <time>2019-12-16T15:23:38Z</time>
      </trkpt>
      <trkpt lat="43.59928" lon="5.07271">
        <ele>63</ele>
        <time>2019-12-16T15:23:39Z</time>
      </trkpt>
      <trkpt lat="43.59928" lon="5.07269">
        <ele>63</ele>
        <time>2019-12-16T15:23:40Z</time>
      </trkpt>
      <trkpt lat="43.59928" lon="5.07268">
        <ele>63</ele>
        <time>2019-12-16T15:23:41Z</time>
      </trkpt>
      <trkpt lat="43.59929" lon="5.07267">
        <ele>63</ele>
        <time>2019-12-16T15:23:42Z</time>
      </trkpt>
      <trkpt lat="43.59929" lon="5.07265">
        <ele>63</ele>
        <time>2019-12-16T15:23:43Z</time>
      </trkpt>
      <trkpt lat="43.5993" lon="5.07264">
        <ele>63</ele>
        <time>2019-12-16T15:23:44Z</time>
      </trkpt>
      <trkpt lat="43.5993" lon="5.07263">
        <ele>63</ele>
        <time>2019-12-16T15:23:45Z</time>
      </trkpt>
      <trkpt lat="43.59931" lon="5.07262">
        <ele>63</ele>
        <time>2019-12-16T15:23:46Z</time>
      </trkpt>
      <trkpt lat="43.59931" lon="5.07261">
        <ele>63</ele>
        <time>2019-12-16T15:23:47Z</time>
      </trkpt>
      <trkpt lat="43.59931" lon="5.0726">
        <ele>63</ele>
        <time>2019-12-16T15:23:48Z</time>
      </trkpt>
      <trkpt lat="43.59932" lon="5.07258">
        <ele>63</ele>
        <time>2019-12-16T15:23:49Z</time>
      </trkpt>
      <trkpt lat="43.59933" lon="5.07257">
        <ele>63</ele>
        <time>2019-12-16T15:23:50Z</time>
      </trkpt>
      <trkpt lat="43.59933" lon="5.07256">
        <ele>63</ele>
        <time>2019-12-16T15:23:51Z</time>
      </trkpt>
      <trkpt lat="43.59934" lon="5.07255">
        <ele>63</ele>
        <time>2019-12-16T15:23:52Z</time>
      </trkpt>
      <trkpt lat="43.59935" lon="5.07254">
        <ele>63</ele>
        <time>2019-12-16T15:23:53Z</time>
      </trkpt>
      <trkpt lat="43.59935" lon="5.07253">
        <ele>63</ele>
        <time>2019-12-16T15:23:54Z</time>
      </trkpt>
      <trkpt lat="43.59936" lon="5.07251">
        <ele>63</ele>
        <time>2019-12-16T15:23:55Z</time>
      </trkpt>
      <trkpt lat="43.59936" lon="5.0725">
        <ele>63</ele>
        <time>2019-12-16T15:23:56Z</time>
      </trkpt>
      <trkpt lat="43.59937" lon="5.07249">
        <ele>63</ele>
        <time>2019-12-16T15:23:57Z</time>
      </trkpt>
      <trkpt lat="43.59938" lon="5.07247">
        <ele>63</ele>
        <time>2019-12-16T15:23:58Z</time>
      </trkpt>
      <trkpt lat="43.59938" lon="5.07246">
        <ele>63</ele>
        <time>2019-12-16T15:23:59Z</time>
      </trkpt>
      <trkpt lat="43.59938" lon="5.07245">
        <ele>63</ele>
        <time>2019-12-16T15:24:00Z</time>
      </trkpt>
      <trkpt lat="43.59939" lon="5.07243">
        <ele>63</ele>
        <time>2019-12-16T15:24:01Z</time>
      </trkpt>
      <trkpt lat="43.59939" lon="5.07242">
        <ele>63</ele>
        <time>2019-12-16T15:24:02Z</time>
      </trkpt>
      <trkpt lat="43.5994" lon="5.0724">
        <ele>63</ele>
        <time>2019-12-16T15:24:03Z</time>
      </trkpt>
      <trkpt lat="43.5994" lon="5.07239">
        <ele>63</ele>
        <time>2019-12-16T15:24:04Z</time>
      </trkpt>
      <trkpt lat="43.59941" lon="5.07237">
        <ele>63</ele>
        <time>2019-12-16T15:24:05Z</time>
      </trkpt>
      <trkpt lat="43.59941" lon="5.07236">
        <ele>63</ele>
        <time>2019-12-16T15:24:06Z</time>
      </trkpt>
      <trkpt lat="43.59942" lon="5.07234">
        <ele>63</ele>
        <time>2019-12-16T15:24:07Z</time>
      </trkpt>
      <trkpt lat="43.59942" lon="5.07233">
        <ele>63</ele>
        <time>2019-12-16T15:24:08Z</time>
      </trkpt>
      <trkpt lat="43.59942" lon="5.07231">
        <ele>63</ele>
        <time>2019-12-16T15:24:09Z</time>
      </trkpt>
      <trkpt lat="43.59943" lon="5.0723">
        <ele>63</ele>
        <time>2019-12-16T15:24:10Z</time>
      </trkpt>
      <trkpt lat="43.59943" lon="5.07228">
        <ele>63</ele>
        <time>2019-12-16T15:24:11Z</time>
      </trkpt>
      <trkpt lat="43.59944" lon="5.07227">
        <ele>63</ele>
        <time>2019-12-16T15:24:12Z</time>
      </trkpt>
      <trkpt lat="43.59944" lon="5.07225">
        <ele>63</ele>
        <time>2019-12-16T15:24:13Z</time>
      </trkpt>
      <trkpt lat="43.59944" lon="5.07224">
        <ele>63</ele>
        <time>2019-12-16T15:24:14Z</time>
      </trkpt>
      <trkpt lat="43.59945" lon="5.07222">
        <ele>63</ele>
        <time>2019-12-16T15:24:15Z</time>
      </trkpt>
      <trkpt lat="43.59945" lon="5.07221">
        <ele>63</ele>
        <time>2019-12-16T15:24:16Z</time>
      </trkpt>
      <trkpt lat="43.59945" lon="5.07219">
        <ele>63</ele>
        <time>2019-12-16T15:24:17Z</time>
      </trkpt>
      <trkpt lat="43.59946" lon="5.07218">
        <ele>63</ele>
        <time>2019-12-16T15:24:18Z</time>
      </trkpt>
      <trkpt lat="43.59946" lon="5.07216">
        <ele>63</ele>
        <time>2019-12-16T15:24:19Z</time>
      </trkpt>
      <trkpt lat="43.59946" lon="5.07214">
        <ele>63</ele>
        <time>2019-12-16T15:24:20Z</time>
      </trkpt>
      <trkpt lat="43.59947" lon="5.07213">
        <ele>63</ele>
        <time>2019-12-16T15:24:21Z</time>
      </trkpt>
      <trkpt lat="43.59947" lon="5.07211">
        <ele>63</ele>
        <time>2019-12-16T15:24:22Z</time>
      </trkpt>
      <trkpt lat="43.59948" lon="5.0721">
        <ele>63</ele>
        <time>2019-12-16T15:24:23Z</time>
      </trkpt>
      <trkpt lat="43.59948" lon="5.07208">
        <ele>63</ele>
        <time>2019-12-16T15:24:24Z</time>
      </trkpt>
      <trkpt lat="43.59948" lon="5.07206">
        <ele>63</ele>
        <time>2019-12-16T15:24:25Z</time>
      </trkpt>
      <trkpt lat="43.59948" lon="5.07205">
        <ele>63</ele>
        <time>2019-12-16T15:24:26Z</time>
      </trkpt>
      <trkpt lat="43.59949" lon="5.07203">
        <ele>63</ele>
        <time>2019-12-16T15:24:27Z</time>
      </trkpt>
      <trkpt lat="43.59949" lon="5.07202">
        <ele>63</ele>
        <time>2019-12-16T15:24:28Z</time>
      </trkpt>
      <trkpt lat="43.5995" lon="5.072">
        <ele>63</ele>
        <time>2019-12-16T15:24:29Z</time>
      </trkpt>
      <trkpt lat="43.5995" lon="5.07198">
        <ele>63</ele>
        <time>2019-12-16T15:24:30Z</time>
      </trkpt>
      <trkpt lat="43.5995" lon="5.07197">
        <ele>63</ele>
        <time>2019-12-16T15:24:31Z</time>
      </trkpt>
      <trkpt lat="43.59951" lon="5.07195">
        <ele>63</ele>
        <time>2019-12-16T15:24:32Z</time>
      </trkpt>
      <trkpt lat="43.59951" lon="5.07194">
        <ele>63</ele>
        <time>2019-12-16T15:24:33Z</time>
      </trkpt>
      <trkpt lat="43.59951" lon="5.07192">
        <ele>63</ele>
        <time>2019-12-16T15:24:34Z</time>
      </trkpt>
      <trkpt lat="43.59952" lon="5.0719">
        <ele>63</ele>
        <time>2019-12-16T15:24:35Z</time>
      </trkpt>
      <trkpt lat="43.59952" lon="5.07189">
        <ele>63</ele>
        <time>2019-12-16T15:24:36Z</time>
      </trkpt>
      <trkpt lat="43.59952" lon="5.07187">
        <ele>63</ele>
        <time>2019-12-16T15:24:37Z</time>
      </trkpt>
      <trkpt lat="43.59953" lon="5.07186">
        <ele>63</ele>
        <time>2019-12-16T15:24:38Z</time>
      </trkpt>
      <trkpt lat="43.59953" lon="5.07184">
        <ele>63</ele>
        <time>2019-12-16T15:24:39Z</time>
      </trkpt>
      <trkpt lat="43.59954" lon="5.07182">
        <ele>63</ele>
        <time>2019-12-16T15:24:40Z</time>
      </trkpt>
      <trkpt lat="43.59954" lon="5.07181">
        <ele>63</ele>
        <time>2019-12-16T15:24:41Z</time>
      </trkpt>
      <trkpt lat="43.59954" lon="5.07179">
        <ele>63</ele>
        <time>2019-12-16T15:24:42Z</time>
      </trkpt>
      <trkpt lat="43.59955" lon="5.07178">
        <ele>63</ele>
        <time>2019-12-16T15:24:43Z</time>
      </trkpt>
      <trkpt lat="43.59955" lon="5.07176">
        <ele>63</ele>
        <time>2019-12-16T15:24:44Z</time>
      </trkpt>
      <trkpt lat="43.59955" lon="5.07175">
        <ele>63</ele>
        <time>2019-12-16T15:24:45Z</time>
      </trkpt>
      <trkpt lat="43.59956" lon="5.07173">
        <ele>63</ele>
        <time>2019-12-16T15:24:46Z</time>
      </trkpt>
      <trkpt lat="43.59956" lon="5.07171">
        <ele>63</ele>
        <time>2019-12-16T15:24:47Z</time>
      </trkpt>
      <trkpt lat="43.59957" lon="5.0717">
        <ele>63</ele>
        <time>2019-12-16T15:24:48Z</time>
      </trkpt>
      <trkpt lat="43.59957" lon="5.07168">
        <ele>63</ele>
        <time>2019-12-16T15:24:49Z</time>
      </trkpt>
      <trkpt lat="43.59957" lon="5.07166">
        <ele>63</ele>
        <time>2019-12-16T15:24:50Z</time>
      </trkpt>
      <trkpt lat="43.59958" lon="5.07165">
        <ele>63</ele>
        <time>2019-12-16T15:24:51Z</time>
      </trkpt>
      <trkpt lat="43.59958" lon="5.07163">
        <ele>63</ele>
        <time>2019-12-16T15:24:52Z</time>
      </trkpt>
      <trkpt lat="43.59959" lon="5.07161">
        <ele>63</ele>
        <time>2019-12-16T15:24:53Z</time>
      </trkpt>
      <trkpt lat="43.59959" lon="5.07159">
        <ele>63</ele>
        <time>2019-12-16T15:24:54Z</time>
      </trkpt>
      <trkpt lat="43.5996" lon="5.07158">
        <ele>63</ele>
        <time>2019-12-16T15:24:55Z</time>
      </trkpt>
      <trkpt lat="43.5996" lon="5.07156">
        <ele>63</ele>
        <time>2019-12-16T15:24:56Z</time>
      </trkpt>
      <trkpt lat="43.5996" lon="5.07155">
        <ele>63</ele>
        <time>2019-12-16T15:24:57Z</time>
      </trkpt>
      <trkpt lat="43.59961" lon="5.07153">
        <ele>63</ele>
        <time>2019-12-16T15:24:58Z</time>
      </trkpt>
      <trkpt lat="43.59961" lon="5.07151">
        <ele>63</ele>
        <time>2019-12-16T15:24:59Z</time>
      </trkpt>
      <trkpt lat="43.59962" lon="5.0715">
        <ele>63</ele>
        <time>2019-12-16T15:25:00Z</time>
      </trkpt>
      <trkpt lat="43.59962" lon="5.07148">
        <ele>63</ele>
        <time>2019-12-16T15:25:01Z</time>
      </trkpt>
      <trkpt lat="43.59963" lon="5.07147">
        <ele>63</ele>
        <time>2019-12-16T15:25:02Z</time>
      </trkpt>
      <trkpt lat="43.59963" lon="5.07145">
        <ele>63</ele>
        <time>2019-12-16T15:25:03Z</time>
      </trkpt>
      <trkpt lat="43.59964" lon="5.07144">
        <ele>62</ele>
        <time>2019-12-16T15:25:04Z</time>
      </trkpt>
      <trkpt lat="43.59964" lon="5.07142">
        <ele>62</ele>
        <time>2019-12-16T15:25:05Z</time>
      </trkpt>
      <trkpt lat="43.59965" lon="5.07141">
        <ele>62</ele>
        <time>2019-12-16T15:25:06Z</time>
      </trkpt>
      <trkpt lat="43.59966" lon="5.07139">
        <ele>62</ele>
        <time>2019-12-16T15:25:07Z</time>
      </trkpt>
      <trkpt lat="43.59966" lon="5.07138">
        <ele>62</ele>
        <time>2019-12-16T15:25:08Z</time>
      </trkpt>
      <trkpt lat="43.59967" lon="5.07137">
        <ele>62</ele>
        <time>2019-12-16T15:25:09Z</time>
      </trkpt>
      <trkpt lat="43.59968" lon="5.07136">
        <ele>62</ele>
        <time>2019-12-16T15:25:10Z</time>
      </trkpt>
      <trkpt lat="43.59969" lon="5.07134">
        <ele>62</ele>
        <time>2019-12-16T15:25:11Z</time>
      </trkpt>
      <trkpt lat="43.5997" lon="5.07133">
        <ele>62</ele>
        <time>2019-12-16T15:25:12Z</time>
      </trkpt>
      <trkpt lat="43.59971" lon="5.07132">
        <ele>62</ele>
        <time>2019-12-16T15:25:13Z</time>
      </trkpt>
      <trkpt lat="43.59972" lon="5.07131">
        <ele>62</ele>
        <time>2019-12-16T15:25:14Z</time>
      </trkpt>
      <trkpt lat="43.59973" lon="5.07129">
        <ele>62</ele>
        <time>2019-12-16T15:25:15Z</time>
      </trkpt>
      <trkpt lat="43.59974" lon="5.07128">
        <ele>62</ele>
        <time>2019-12-16T15:25:16Z</time>
      </trkpt>
      <trkpt lat="43.59974" lon="5.07127">
        <ele>63</ele>
        <time>2019-12-16T15:25:17Z</time>
      </trkpt>
      <trkpt lat="43.59975" lon="5.07126">
        <ele>63</ele>
        <time>2019-12-16T15:25:18Z</time>
      </trkpt>
      <trkpt lat="43.59977" lon="5.07125">
        <ele>63</ele>
        <time>2019-12-16T15:25:19Z</time>
      </trkpt>
      <trkpt lat="43.59977" lon="5.07124">
        <ele>63</ele>
        <time>2019-12-16T15:25:20Z</time>
      </trkpt>
      <trkpt lat="43.59978" lon="5.07123">
        <ele>63</ele>
        <time>2019-12-16T15:25:21Z</time>
      </trkpt>
      <trkpt lat="43.5998" lon="5.07122">
        <ele>63</ele>
        <time>2019-12-16T15:25:22Z</time>
      </trkpt>
      <trkpt lat="43.59981" lon="5.07121">
        <ele>63</ele>
        <time>2019-12-16T15:25:23Z</time>
      </trkpt>
      <trkpt lat="43.59981" lon="5.0712">
        <ele>63</ele>
        <time>2019-12-16T15:25:24Z</time>
      </trkpt>
      <trkpt lat="43.59983" lon="5.07119">
        <ele>63</ele>
        <time>2019-12-16T15:25:25Z</time>
      </trkpt>
      <trkpt lat="43.59984" lon="5.07118">
        <ele>63</ele>
        <time>2019-12-16T15:25:26Z</time>
      </trkpt>
      <trkpt lat="43.59984" lon="5.07117">
        <ele>63</ele>
        <time>2019-12-16T15:25:27Z</time>
      </trkpt>
      <trkpt lat="43.59985" lon="5.07116">
        <ele>63</ele>
        <time>2019-12-16T15:25:28Z</time>
      </trkpt>
      <trkpt lat="43.59986" lon="5.07115">
        <ele>63</ele>
        <time>2019-12-16T15:25:29Z</time>
      </trkpt>
      <trkpt lat="43.59987" lon="5.07114">
        <ele>63</ele>
        <time>2019-12-16T15:25:30Z</time>
      </trkpt>
      <trkpt lat="43.59988" lon="5.07113">
        <ele>63</ele>
        <time>2019-12-16T15:25:31Z</time>
      </trkpt>
      <trkpt lat="43.59989" lon="5.07112">
        <ele>63</ele>
        <time>2019-12-16T15:25:32Z</time>
      </trkpt>
      <trkpt lat="43.5999" lon="5.07111">
        <ele>63</ele>
        <time>2019-12-16T15:25:33Z</time>
      </trkpt>
      <trkpt lat="43.59991" lon="5.0711">
        <ele>63</ele>
        <time>2019-12-16T15:25:34Z</time>
      </trkpt>
      <trkpt lat="43.59992" lon="5.07109">
        <ele>63</ele>
        <time>2019-12-16T15:25:35Z</time>
      </trkpt>
      <trkpt lat="43.59993" lon="5.07108">
        <ele>63</ele>
        <time>2019-12-16T15:25:36Z</time>
      </trkpt>
      <trkpt lat="43.59993" lon="5.07107">
        <ele>63</ele>
        <time>2019-12-16T15:25:37Z</time>
      </trkpt>
      <trkpt lat="43.59994" lon="5.07106">
        <ele>63</ele>
        <time>2019-12-16T15:25:38Z</time>
      </trkpt>
      <trkpt lat="43.59995" lon="5.07105">
        <ele>63</ele>
        <time>2019-12-16T15:25:39Z</time>
      </trkpt>
      <trkpt lat="43.59996" lon="5.07104">
        <ele>63</ele>
        <time>2019-12-16T15:25:40Z</time>
      </trkpt>
      <trkpt lat="43.59997" lon="5.07103">
        <ele>63</ele>
        <time>2019-12-16T15:25:41Z</time>
      </trkpt>
      <trkpt lat="43.59998" lon="5.07103">
        <ele>63</ele>
        <time>2019-12-16T15:25:42Z</time>
      </trkpt>
      <trkpt lat="43.59999" lon="5.07102">
        <ele>63</ele>
        <time>2019-12-16T15:25:43Z</time>
      </trkpt>
      <trkpt lat="43.6" lon="5.07101">
        <ele>63</ele>
        <time>2019-12-16T15:25:44Z</time>
      </trkpt>
      <trkpt lat="43.60001" lon="5.071">
        <ele>63</ele>
        <time>2019-12-16T15:25:45Z</time>
      </trkpt>
      <trkpt lat="43.60002" lon="5.07099">
        <ele>63</ele>
        <time>2019-12-16T15:25:46Z</time>
      </trkpt>
      <trkpt lat="43.60003" lon="5.07099">
        <ele>63</ele>
        <time>2019-12-16T15:25:47Z</time>
      </trkpt>
      <trkpt lat="43.60004" lon="5.07098">
        <ele>63</ele>
        <time>2019-12-16T15:25:48Z</time>
      </trkpt>
      <trkpt lat="43.60005" lon="5.07097">
        <ele>63</ele>
        <time>2019-12-16T15:25:49Z</time>
      </trkpt>
      <trkpt lat="43.60006" lon="5.07097">
        <ele>63</ele>
        <time>2019-12-16T15:25:50Z</time>
      </trkpt>
      <trkpt lat="43.60007" lon="5.07096">
        <ele>63</ele>
        <time>2019-12-16T15:25:51Z</time>
      </trkpt>
      <trkpt lat="43.60008" lon="5.07095">
        <ele>63</ele>
        <time>2019-12-16T15:25:52Z</time>
      </trkpt>
      <trkpt lat="43.60009" lon="5.07095">
        <ele>63</ele>
        <time>2019-12-16T15:25:53Z</time>
      </trkpt>
      <trkpt lat="43.6001" lon="5.07094">
        <ele>63</ele>
        <time>2019-12-16T15:25:54Z</time>
      </trkpt>
      <trkpt lat="43.60011" lon="5.07093">
        <ele>63</ele>
        <time>2019-12-16T15:25:55Z</time>
      </trkpt>
      <trkpt lat="43.60012" lon="5.07093">
        <ele>63</ele>
        <time>2019-12-16T15:25:56Z</time>
      </trkpt>
      <trkpt lat="43.60013" lon="5.07092">
        <ele>63</ele>
        <time>2019-12-16T15:25:57Z</time>
      </trkpt>
      <trkpt lat="43.60015" lon="5.07091">
        <ele>63</ele>
        <time>2019-12-16T15:25:58Z</time>
      </trkpt>
      <trkpt lat="43.60016" lon="5.07091">
        <ele>63</ele>
        <time>2019-12-16T15:25:59Z</time>
      </trkpt>
      <trkpt lat="43.60017" lon="5.0709">
        <ele>64</ele>
        <time>2019-12-16T15:26:00Z</time>
      </trkpt>
      <trkpt lat="43.60018" lon="5.07089">
        <ele>64</ele>
        <time>2019-12-16T15:26:01Z</time>
      </trkpt>
      <trkpt lat="43.60019" lon="5.07089">
        <ele>64</ele>
        <time>2019-12-16T15:26:02Z</time>
      </trkpt>
      <trkpt lat="43.6002" lon="5.07088">
        <ele>64</ele>
        <time>2019-12-16T15:26:03Z</time>
      </trkpt>
      <trkpt lat="43.6002" lon="5.07087">
        <ele>64</ele>
        <time>2019-12-16T15:26:04Z</time>
      </trkpt>
      <trkpt lat="43.60021" lon="5.07087">
        <ele>64</ele>
        <time>2019-12-16T15:26:05Z</time>
      </trkpt>
      <trkpt lat="43.60023" lon="5.07086">
        <ele>64</ele>
        <time>2019-12-16T15:26:06Z</time>
      </trkpt>
      <trkpt lat="43.60023" lon="5.07086">
        <ele>64</ele>
        <time>2019-12-16T15:26:07Z</time>
      </trkpt>
      <trkpt lat="43.60024" lon="5.07085">
        <ele>64</ele>
        <time>2019-12-16T15:26:08Z</time>
      </trkpt>
      <trkpt lat="43.60026" lon="5.07085">
        <ele>64</ele>
        <time>2019-12-16T15:26:09Z</time>
      </trkpt>
      <trkpt lat="43.60027" lon="5.07084">
        <ele>64</ele>
        <time>2019-12-16T15:26:10Z</time>
      </trkpt>
      <trkpt lat="43.60028" lon="5.07084">
        <ele>64</ele>
        <time>2019-12-16T15:26:11Z</time>
      </trkpt>
      <trkpt lat="43.60029" lon="5.07084">
        <ele>64</ele>
        <time>2019-12-16T15:26:12Z</time>
      </trkpt>
      <trkpt lat="43.6003" lon="5.07083">
        <ele>64</ele>
        <time>2019-12-16T15:26:13Z</time>
      </trkpt>
      <trkpt lat="43.60031" lon="5.07083">
        <ele>63</ele>
        <time>2019-12-16T15:26:14Z</time>
      </trkpt>
      <trkpt lat="43.60032" lon="5.07083">
        <ele>63</ele>
        <time>2019-12-16T15:26:15Z</time>
      </trkpt>
      <trkpt lat="43.60033" lon="5.07083">
        <ele>63</ele>
        <time>2019-12-16T15:26:16Z</time>
      </trkpt>
      <trkpt lat="43.60034" lon="5.07083">
        <ele>63</ele>
        <time>2019-12-16T15:26:17Z</time>
      </trkpt>
      <trkpt lat="43.60035" lon="5.07083">
        <ele>63</ele>
        <time>2019-12-16T15:26:18Z</time>
      </trkpt>
      <trkpt lat="43.60036" lon="5.07082">
        <ele>63</ele>
        <time>2019-12-16T15:26:19Z</time>
      </trkpt>
      <trkpt lat="43.60038" lon="5.07082">
        <ele>63</ele>
        <time>2019-12-16T15:26:20Z</time>
      </trkpt>
      <trkpt lat="43.60039" lon="5.07082">
        <ele>63</ele>
        <time>2019-12-16T15:26:21Z</time>
      </trkpt>
      <trkpt lat="43.6004" lon="5.07082">
        <ele>63</ele>
        <time>2019-12-16T15:26:22Z</time>
      </trkpt>
      <trkpt lat="43.60041" lon="5.07082">
        <ele>63</ele>
        <time>2019-12-16T15:26:23Z</time>
      </trkpt>
      <trkpt lat="43.60042" lon="5.07082">
        <ele>63</ele>
        <time>2019-12-16T15:26:24Z</time>
      </trkpt>
      <trkpt lat="43.60043" lon="5.07082">
        <ele>63</ele>
        <time>2019-12-16T15:26:25Z</time>
      </trkpt>
      <trkpt lat="43.60044" lon="5.07082">
        <ele>63</ele>
        <time>2019-12-16T15:26:26Z</time>
      </trkpt>
      <trkpt lat="43.60045" lon="5.07082">
        <ele>63</ele>
        <time>2019-12-16T15:26:27Z</time>
      </trkpt>
      <trkpt lat="43.60046" lon="5.07082">
        <ele>63</ele>
        <time>2019-12-16T15:26:28Z</time>
      </trkpt>
      <trkpt lat="43.60048" lon="5.07082">
        <ele>63</ele>
        <time>2019-12-16T15:26:29Z</time>
      </trkpt>
      <trkpt lat="43.60049" lon="5.07082">
        <ele>63</ele>
        <time>2019-12-16T15:26:30Z</time>
      </trkpt>
      <trkpt lat="43.6005" lon="5.07082">
        <ele>63</ele>
        <time>2019-12-16T15:26:31Z</time>
      </trkpt>
      <trkpt lat="43.60051" lon="5.07081">
        <ele>63</ele>
        <time>2019-12-16T15:26:32Z</time>
      </trkpt>
      <trkpt lat="43.60052" lon="5.07081">
        <ele>63</ele>
        <time>2019-12-16T15:26:33Z</time>
      </trkpt>
      <trkpt lat="43.60053" lon="5.07081">
        <ele>63</ele>
        <time>2019-12-16T15:26:34Z</time>
      </trkpt>
      <trkpt lat="43.60054" lon="5.07081">
        <ele>63</ele>
        <time>2019-12-16T15:26:35Z</time>
      </trkpt>
      <trkpt lat="43.60055" lon="5.07081">
        <ele>63</ele>
        <time>2019-12-16T15:26:36Z</time>
      </trkpt>
      <trkpt lat="43.60056" lon="5.07081">
        <ele>63</ele>
        <time>2019-12-16T15:26:37Z</time>
      </trkpt>
      <trkpt lat="43.60057" lon="5.0708">
        <ele>63</ele>
        <time>2019-12-16T15:26:38Z</time>
      </trkpt>
      <trkpt lat="43.60058" lon="5.0708">
        <ele>63</ele>
        <time>2019-12-16T15:26:39Z</time>
      </trkpt>
      <trkpt lat="43.60059" lon="5.0708">
        <ele>63</ele>
        <time>2019-12-16T15:26:40Z</time>
      </trkpt>
      <trkpt lat="43.60061" lon="5.0708">
        <ele>63</ele>
        <time>2019-12-16T15:26:41Z</time>
      </trkpt>
      <trkpt lat="43.60062" lon="5.0708">
        <ele>63</ele>
        <time>2019-12-16T15:26:42Z</time>
      </trkpt>
      <trkpt lat="43.60063" lon="5.0708">
        <ele>63</ele>
        <time>2019-12-16T15:26:43Z</time>
      </trkpt>
      <trkpt lat="43.60064" lon="5.0708">
        <ele>63</ele>
        <time>2019-12-16T15:26:44Z</time>
      </trkpt>
      <trkpt lat="43.60065" lon="5.0708">
        <ele>63</ele>
        <time>2019-12-16T15:26:45Z</time>
      </trkpt>
      <trkpt lat="43.60066" lon="5.0708">
        <ele>63</ele>
        <time>2019-12-16T15:26:46Z</time>
      </trkpt>
      <trkpt lat="43.60067" lon="5.0708">
        <ele>63</ele>
        <time>2019-12-16T15:26:47Z</time>
      </trkpt>
      <trkpt lat="43.60068" lon="5.0708">
        <ele>63</ele>
        <time>2019-12-16T15:26:48Z</time>
      </trkpt>
      <trkpt lat="43.60069" lon="5.0708">
        <ele>63</ele>
        <time>2019-12-16T15:26:49Z</time>
      </trkpt>
      <trkpt lat="43.6007" lon="5.0708">
        <ele>63</ele>
        <time>2019-12-16T15:26:50Z</time>
      </trkpt>
      <trkpt lat="43.60072" lon="5.0708">
        <ele>63</ele>
        <time>2019-12-16T15:26:51Z</time>
      </trkpt>
      <trkpt lat="43.60073" lon="5.07079">
        <ele>63</ele>
        <time>2019-12-16T15:26:52Z</time>
      </trkpt>
      <trkpt lat="43.60074" lon="5.07079">
        <ele>63</ele>
        <time>2019-12-16T15:26:53Z</time>
      </trkpt>
      <trkpt lat="43.60075" lon="5.07079">
        <ele>63</ele>
        <time>2019-12-16T15:26:54Z</time>
      </trkpt>
      <trkpt lat="43.60076" lon="5.07079">
        <ele>64</ele>
        <time>2019-12-16T15:26:55Z</time>
      </trkpt>
      <trkpt lat="43.60077" lon="5.07079">
        <ele>64</ele>
        <time>2019-12-16T15:26:56Z</time>
      </trkpt>
      <trkpt lat="43.60078" lon="5.07079">
        <ele>64</ele>
        <time>2019-12-16T15:26:57Z</time>
      </trkpt>
      <trkpt lat="43.60079" lon="5.07078">
        <ele>64</ele>
        <time>2019-12-16T15:26:58Z</time>
      </trkpt>
      <trkpt lat="43.60081" lon="5.07078">
        <ele>64</ele>
        <time>2019-12-16T15:26:59Z</time>
      </trkpt>
      <trkpt lat="43.60082" lon="5.07078">
        <ele>64</ele>
        <time>2019-12-16T15:27:00Z</time>
      </trkpt>
      <trkpt lat="43.60083" lon="5.07078">
        <ele>64</ele>
        <time>2019-12-16T15:27:01Z</time>
      </trkpt>
      <trkpt lat="43.60084" lon="5.07078">
        <ele>64</ele>
        <time>2019-12-16T15:27:02Z</time>
      </trkpt>
      <trkpt lat="43.60085" lon="5.07078">
        <ele>64</ele>
        <time>2019-12-16T15:27:03Z</time>
      </trkpt>
      <trkpt lat="43.60086" lon="5.07078">
        <ele>64</ele>
        <time>2019-12-16T15:27:04Z</time>
      </trkpt>
      <trkpt lat="43.60087" lon="5.07078">
        <ele>64</ele>
        <time>2019-12-16T15:27:05Z</time>
      </trkpt>
      <trkpt lat="43.60088" lon="5.07078">
        <ele>64</ele>
        <time>2019-12-16T15:27:06Z</time>
      </trkpt>
      <trkpt lat="43.60089" lon="5.07078">
        <ele>64</ele>
        <time>2019-12-16T15:27:07Z</time>
      </trkpt>
      <trkpt lat="43.60091" lon="5.07078">
        <ele>64</ele>
        <time>2019-12-16T15:27:08Z</time>
      </trkpt>
      <trkpt lat="43.60092" lon="5.07078">
        <ele>64</ele>
        <time>2019-12-16T15:27:09Z</time>
      </trkpt>
      <trkpt lat="43.60093" lon="5.07078">
        <ele>64</ele>
        <time>2019-12-16T15:27:10Z</time>
      </trkpt>
      <trkpt lat="43.60094" lon="5.07078">
        <ele>64</ele>
        <time>2019-12-16T15:27:11Z</time>
      </trkpt>
      <trkpt lat="43.60095" lon="5.07079">
        <ele>64</ele>
        <time>2019-12-16T15:27:12Z</time>
      </trkpt>
      <trkpt lat="43.60096" lon="5.07079">
        <ele>64</ele>
        <time>2019-12-16T15:27:13Z</time>
      </trkpt>
      <trkpt lat="43.60097" lon="5.07079">
        <ele>64</ele>
        <time>2019-12-16T15:27:14Z</time>
      </trkpt>
      <trkpt lat="43.60099" lon="5.07079">
        <ele>64</ele>
        <time>2019-12-16T15:27:15Z</time>
      </trkpt>
      <trkpt lat="43.601" lon="5.07079">
        <ele>64</ele>
        <time>2019-12-16T15:27:16Z</time>
      </trkpt>
      <trkpt lat="43.60101" lon="5.07079">
        <ele>64</ele>
        <time>2019-12-16T15:27:17Z</time>
      </trkpt>
      <trkpt lat="43.60102" lon="5.07079">
        <ele>64</ele>
        <time>2019-12-16T15:27:18Z</time>
      </trkpt>
      <trkpt lat="43.60103" lon="5.07079">
        <ele>64</ele>
        <time>2019-12-16T15:27:19Z</time>
      </trkpt>
      <trkpt lat="43.60104" lon="5.07079">
        <ele>64</ele>
        <time>2019-12-16T15:27:20Z</time>
      </trkpt>
      <trkpt lat="43.60105" lon="5.07079">
        <ele>64</ele>
        <time>2019-12-16T15:27:21Z</time>
      </trkpt>
      <trkpt lat="43.60107" lon="5.07079">
        <ele>64</ele>
        <time>2019-12-16T15:27:22Z</time>
      </trkpt>
      <trkpt lat="43.60108" lon="5.07079">
        <ele>64</ele>
        <time>2019-12-16T15:27:23Z</time>
      </trkpt>
      <trkpt lat="43.60109" lon="5.07079">
        <ele>64</ele>
        <time>2019-12-16T15:27:24Z</time>
      </trkpt>
      <trkpt lat="43.6011" lon="5.07079">
        <ele>64</ele>
        <time>2019-12-16T15:27:25Z</time>
      </trkpt>
      <trkpt lat="43.60111" lon="5.07079">
        <ele>64</ele>
        <time>2019-12-16T15:27:26Z</time>
      </trkpt>
      <trkpt lat="43.60112" lon="5.07079">
        <ele>64</ele>
        <time>2019-12-16T15:27:27Z</time>
      </trkpt>
      <trkpt lat="43.60114" lon="5.07079">
        <ele>64</ele>
        <time>2019-12-16T15:27:28Z</time>
      </trkpt>
      <trkpt lat="43.60115" lon="5.07079">
        <ele>64</ele>
        <time>2019-12-16T15:27:29Z</time>
      </trkpt>
      <trkpt lat="43.60116" lon="5.07079">
        <ele>64</ele>
        <time>2019-12-16T15:27:30Z</time>
      </trkpt>
      <trkpt lat="43.60117" lon="5.07079">
        <ele>64</ele>
        <time>2019-12-16T15:27:31Z</time>
      </trkpt>
      <trkpt lat="43.60118" lon="5.07079">
        <ele>64</ele>
        <time>2019-12-16T15:27:32Z</time>
      </trkpt>
      <trkpt lat="43.60119" lon="5.07079">
        <ele>64</ele>
        <time>2019-12-16T15:27:33Z</time>
      </trkpt>
      <trkpt lat="43.6012" lon="5.07079">
        <ele>64</ele>
        <time>2019-12-16T15:27:34Z</time>
      </trkpt>
      <trkpt lat="43.60122" lon="5.0708">
        <ele>64</ele>
        <time>2019-12-16T15:27:35Z</time>
      </trkpt>
      <trkpt lat="43.60123" lon="5.0708">
        <ele>64</ele>
        <time>2019-12-16T15:27:36Z</time>
      </trkpt>
      <trkpt lat="43.60124" lon="5.0708">
        <ele>64</ele>
        <time>2019-12-16T15:27:37Z</time>
      </trkpt>
      <trkpt lat="43.60125" lon="5.0708">
        <ele>64</ele>
        <time>2019-12-16T15:27:38Z</time>
      </trkpt>
      <trkpt lat="43.60126" lon="5.0708">
        <ele>64</ele>
        <time>2019-12-16T15:27:39Z</time>
      </trkpt>
      <trkpt lat="43.60127" lon="5.0708">
        <ele>64</ele>
        <time>2019-12-16T15:27:40Z</time>
      </trkpt>
      <trkpt lat="43.60128" lon="5.0708">
        <ele>64</ele>
        <time>2019-12-16T15:27:41Z</time>
      </trkpt>
      <trkpt lat="43.60129" lon="5.0708">
        <ele>64</ele>
        <time>2019-12-16T15:27:42Z</time>
      </trkpt>
      <trkpt lat="43.6013" lon="5.07081">
        <ele>64</ele>
        <time>2019-12-16T15:27:43Z</time>
      </trkpt>
      <trkpt lat="43.60131" lon="5.07081">
        <ele>64</ele>
        <time>2019-12-16T15:27:44Z</time>
      </trkpt>
      <trkpt lat="43.60132" lon="5.07081">
        <ele>64</ele>
        <time>2019-12-16T15:27:45Z</time>
      </trkpt>
      <trkpt lat="43.60133" lon="5.07081">
        <ele>64</ele>
        <time>2019-12-16T15:27:46Z</time>
      </trkpt>
      <trkpt lat="43.60134" lon="5.07081">
        <ele>64</ele>
        <time>2019-12-16T15:27:47Z</time>
      </trkpt>
      <trkpt lat="43.60135" lon="5.07082">
        <ele>64</ele>
        <time>2019-12-16T15:27:48Z</time>
      </trkpt>
      <trkpt lat="43.60136" lon="5.07082">
        <ele>64</ele>
        <time>2019-12-16T15:27:49Z</time>
      </trkpt>
      <trkpt lat="43.60137" lon="5.07082">
        <ele>64</ele>
        <time>2019-12-16T15:27:50Z</time>
      </trkpt>
      <trkpt lat="43.60138" lon="5.07082">
        <ele>64</ele>
        <time>2019-12-16T15:27:51Z</time>
      </trkpt>
      <trkpt lat="43.60139" lon="5.07083">
        <ele>64</ele>
        <time>2019-12-16T15:27:52Z</time>
      </trkpt>
      <trkpt lat="43.6014" lon="5.07083">
        <ele>64</ele>
        <time>2019-12-16T15:27:53Z</time>
      </trkpt>
      <trkpt lat="43.60141" lon="5.07083">
        <ele>64</ele>
        <time>2019-12-16T15:27:54Z</time>
      </trkpt>
      <trkpt lat="43.60142" lon="5.07083">
        <ele>64</ele>
        <time>2019-12-16T15:27:55Z</time>
      </trkpt>
      <trkpt lat="43.60143" lon="5.07082">
        <ele>64</ele>
        <time>2019-12-16T15:27:56Z</time>
      </trkpt>
      <trkpt lat="43.60144" lon="5.07082">
        <ele>64</ele>
        <time>2019-12-16T15:27:57Z</time>
      </trkpt>
      <trkpt lat="43.60145" lon="5.07081">
        <ele>64</ele>
        <time>2019-12-16T15:27:58Z</time>
      </trkpt>
      <trkpt lat="43.60146" lon="5.07081">
        <ele>64</ele>
        <time>2019-12-16T15:27:59Z</time>
      </trkpt>
      <trkpt lat="43.60147" lon="5.0708">
        <ele>64</ele>
        <time>2019-12-16T15:28:00Z</time>
      </trkpt>
      <trkpt lat="43.60148" lon="5.07079">
        <ele>64</ele>
        <time>2019-12-16T15:28:01Z</time>
      </trkpt>
      <trkpt lat="43.60148" lon="5.07078">
        <ele>64</ele>
        <time>2019-12-16T15:28:02Z</time>
      </trkpt>
      <trkpt lat="43.60149" lon="5.07077">
        <ele>64</ele>
        <time>2019-12-16T15:28:03Z</time>
      </trkpt>
      <trkpt lat="43.60149" lon="5.07075">
        <ele>64</ele>
        <time>2019-12-16T15:28:04Z</time>
      </trkpt>
      <trkpt lat="43.60149" lon="5.07074">
        <ele>64</ele>
        <time>2019-12-16T15:28:05Z</time>
      </trkpt>
      <trkpt lat="43.60149" lon="5.07072">
        <ele>64</ele>
        <time>2019-12-16T15:28:06Z</time>
      </trkpt>
      <trkpt lat="43.60149" lon="5.07071">
        <ele>64</ele>
        <time>2019-12-16T15:28:07Z</time>
      </trkpt>
      <trkpt lat="43.60149" lon="5.07069">
        <ele>64</ele>
        <time>2019-12-16T15:28:08Z</time>
      </trkpt>
      <trkpt lat="43.60149" lon="5.07067">
        <ele>64</ele>
        <time>2019-12-16T15:28:09Z</time>
      </trkpt>
      <trkpt lat="43.60149" lon="5.07066">
        <ele>64</ele>
        <time>2019-12-16T15:28:10Z</time>
      </trkpt>
      <trkpt lat="43.60149" lon="5.07064">
        <ele>64</ele>
        <time>2019-12-16T15:28:11Z</time>
      </trkpt>
      <trkpt lat="43.60149" lon="5.07062">
        <ele>64</ele>
        <time>2019-12-16T15:28:12Z</time>
      </trkpt>
      <trkpt lat="43.60149" lon="5.07061">
        <ele>64</ele>
        <time>2019-12-16T15:28:13Z</time>
      </trkpt>
      <trkpt lat="43.60149" lon="5.07059">
        <ele>64</ele>
        <time>2019-12-16T15:28:14Z</time>
      </trkpt>
      <trkpt lat="43.60149" lon="5.07058">
        <ele>64</ele>
        <time>2019-12-16T15:28:15Z</time>
      </trkpt>
      <trkpt lat="43.6015" lon="5.07056">
        <ele>64</ele>
        <time>2019-12-16T15:28:16Z</time>
      </trkpt>
      <trkpt lat="43.6015" lon="5.07055">
        <ele>64</ele>
        <time>2019-12-16T15:28:17Z</time>
      </trkpt>
      <trkpt lat="43.6015" lon="5.07053">
        <ele>64</ele>
        <time>2019-12-16T15:28:18Z</time>
      </trkpt>
      <trkpt lat="43.6015" lon="5.07052">
        <ele>64</ele>
        <time>2019-12-16T15:28:19Z</time>
      </trkpt>
      <trkpt lat="43.6015" lon="5.0705">
        <ele>64</ele>
        <time>2019-12-16T15:28:20Z</time>
      </trkpt>
      <trkpt lat="43.6015" lon="5.07049">
        <ele>64</ele>
        <time>2019-12-16T15:28:21Z</time>
      </trkpt>
      <trkpt lat="43.6015" lon="5.07047">
        <ele>64</ele>
        <time>2019-12-16T15:28:22Z</time>
      </trkpt>
      <trkpt lat="43.6015" lon="5.07045">
        <ele>64</ele>
        <time>2019-12-16T15:28:23Z</time>
      </trkpt>
      <trkpt lat="43.6015" lon="5.07044">
        <ele>64</ele>
        <time>2019-12-16T15:28:24Z</time>
      </trkpt>
      <trkpt lat="43.6015" lon="5.07042">
        <ele>64</ele>
        <time>2019-12-16T15:28:25Z</time>
      </trkpt>
      <trkpt lat="43.6015" lon="5.07041">
        <ele>64</ele>
        <time>2019-12-16T15:28:26Z</time>
      </trkpt>
      <trkpt lat="43.6015" lon="5.07039">
        <ele>64</ele>
        <time>2019-12-16T15:28:27Z</time>
      </trkpt>
      <trkpt lat="43.6015" lon="5.07038">
        <ele>64</ele>
        <time>2019-12-16T15:28:28Z</time>
      </trkpt>
      <trkpt lat="43.6015" lon="5.07036">
        <ele>64</ele>
        <time>2019-12-16T15:28:29Z</time>
      </trkpt>
      <trkpt lat="43.6015" lon="5.07035">
        <ele>64</ele>
        <time>2019-12-16T15:28:30Z</time>
      </trkpt>
      <trkpt lat="43.60149" lon="5.07033">
        <ele>64</ele>
        <time>2019-12-16T15:28:31Z</time>
      </trkpt>
      <trkpt lat="43.60149" lon="5.07031">
        <ele>64</ele>
        <time>2019-12-16T15:28:32Z</time>
      </trkpt>
      <trkpt lat="43.60149" lon="5.0703">
        <ele>64</ele>
        <time>2019-12-16T15:28:33Z</time>
      </trkpt>
      <trkpt lat="43.60149" lon="5.07028">
        <ele>64</ele>
        <time>2019-12-16T15:28:34Z</time>
      </trkpt>
      <trkpt lat="43.60149" lon="5.07027">
        <ele>64</ele>
        <time>2019-12-16T15:28:35Z</time>
      </trkpt>
      <trkpt lat="43.60149" lon="5.07025">
        <ele>64</ele>
        <time>2019-12-16T15:28:36Z</time>
      </trkpt>
      <trkpt lat="43.60149" lon="5.07024">
        <ele>64</ele>
        <time>2019-12-16T15:28:37Z</time>
      </trkpt>
      <trkpt lat="43.60149" lon="5.07022">
        <ele>64</ele>
        <time>2019-12-16T15:28:38Z</time>
      </trkpt>
      <trkpt lat="43.60149" lon="5.0702">
        <ele>64</ele>
        <time>2019-12-16T15:28:39Z</time>
      </trkpt>
      <trkpt lat="43.60149" lon="5.07019">
        <ele>64</ele>
        <time>2019-12-16T15:28:40Z</time>
      </trkpt>
      <trkpt lat="43.60149" lon="5.07017">
        <ele>64</ele>
        <time>2019-12-16T15:28:41Z</time>
      </trkpt>
      <trkpt lat="43.60149" lon="5.07016">
        <ele>64</ele>
        <time>2019-12-16T15:28:42Z</time>
      </trkpt>
      <trkpt lat="43.60149" lon="5.07014">
        <ele>64</ele>
        <time>2019-12-16T15:28:43Z</time>
      </trkpt>
      <trkpt lat="43.60149" lon="5.07012">
        <ele>64</ele>
        <time>2019-12-16T15:28:44Z</time>
      </trkpt>
      <trkpt lat="43.60149" lon="5.07011">
        <ele>64</ele>
        <time>2019-12-16T15:28:45Z</time>
      </trkpt>
      <trkpt lat="43.60149" lon="5.07009">
        <ele>64</ele>
        <time>2019-12-16T15:28:46Z</time>
      </trkpt>
      <trkpt lat="43.60149" lon="5.07008">
        <ele>64</ele>
        <time>2019-12-16T15:28:47Z</time>
      </trkpt>
      <trkpt lat="43.60149" lon="5.07006">
        <ele>64</ele>
        <time>2019-12-16T15:28:48Z</time>
      </trkpt>
      <trkpt lat="43.60149" lon="5.07005">
        <ele>64</ele>
        <time>2019-12-16T15:28:49Z</time>
      </trkpt>
      <trkpt lat="43.60149" lon="5.07003">
        <ele>64</ele>
        <time>2019-12-16T15:28:50Z</time>
      </trkpt>
      <trkpt lat="43.60149" lon="5.07001">
        <ele>64</ele>
        <time>2019-12-16T15:28:51Z</time>
      </trkpt>
      <trkpt lat="43.60149" lon="5.07">
        <ele>63</ele>
        <time>2019-12-16T15:28:52Z</time>
      </trkpt>
      <trkpt lat="43.60149" lon="5.06998">
        <ele>63</ele>
        <time>2019-12-16T15:28:53Z</time>
      </trkpt>
      <trkpt lat="43.60149" lon="5.06997">
        <ele>63</ele>
        <time>2019-12-16T15:28:54Z</time>
      </trkpt>
      <trkpt lat="43.60149" lon="5.06995">
        <ele>63</ele>
        <time>2019-12-16T15:28:55Z</time>
      </trkpt>
      <trkpt lat="43.60149" lon="5.06993">
        <ele>63</ele>
        <time>2019-12-16T15:28:56Z</time>
      </trkpt>
      <trkpt lat="43.60149" lon="5.06992">
        <ele>63</ele>
        <time>2019-12-16T15:28:57Z</time>
      </trkpt>
      <trkpt lat="43.60149" lon="5.0699">
        <ele>63</ele>
        <time>2019-12-16T15:28:58Z</time>
      </trkpt>
      <trkpt lat="43.60149" lon="5.06989">
        <ele>63</ele>
        <time>2019-12-16T15:28:59Z</time>
      </trkpt>
      <trkpt lat="43.60149" lon="5.06987">
        <ele>63</ele>
        <time>2019-12-16T15:29:00Z</time>
      </trkpt>
      <trkpt lat="43.60149" lon="5.06985">
        <ele>63</ele>
        <time>2019-12-16T15:29:01Z</time>
      </trkpt>
      <trkpt lat="43.60149" lon="5.06984">
        <ele>63</ele>
        <time>2019-12-16T15:29:02Z</time>
      </trkpt>
      <trkpt lat="43.60149" lon="5.06982">
        <ele>63</ele>
        <time>2019-12-16T15:29:03Z</time>
      </trkpt>
      <trkpt lat="43.60149" lon="5.06981">
        <ele>63</ele>
        <time>2019-12-16T15:29:04Z</time>
      </trkpt>
      <trkpt lat="43.60149" lon="5.06979">
        <ele>63</ele>
        <time>2019-12-16T15:29:05Z</time>
      </trkpt>
      <trkpt lat="43.60149" lon="5.06978">
        <ele>63</ele>
        <time>2019-12-16T15:29:06Z</time>
      </trkpt>
      <trkpt lat="43.60149" lon="5.06976">
        <ele>63</ele>
        <time>2019-12-16T15:29:07Z</time>
      </trkpt>
      <trkpt lat="43.60149" lon="5.06975">
        <ele>63</ele>
        <time>2019-12-16T15:29:08Z</time>
      </trkpt>
      <trkpt lat="43.60149" lon="5.06973">
        <ele>63</ele>
        <time>2019-12-16T15:29:09Z</time>
      </trkpt>
      <trkpt lat="43.60149" lon="5.06972">
        <ele>63</ele>
        <time>2019-12-16T15:29:10Z</time>
      </trkpt>
      <trkpt lat="43.60149" lon="5.0697">
        <ele>63</ele>
        <time>2019-12-16T15:29:11Z</time>
      </trkpt>
      <trkpt lat="43.60149" lon="5.06969">
        <ele>63</ele>
        <time>2019-12-16T15:29:12Z</time>
      </trkpt>
      <trkpt lat="43.60149" lon="5.06968">
        <ele>63</ele>
        <time>2019-12-16T15:29:13Z</time>
      </trkpt>
      <trkpt lat="43.60149" lon="5.06966">
        <ele>63</ele>
        <time>2019-12-16T15:29:14Z</time>
      </trkpt>
      <trkpt lat="43.60149" lon="5.06965">
        <ele>63</ele>
        <time>2019-12-16T15:29:15Z</time>
      </trkpt>
      <trkpt lat="43.60149" lon="5.06963">
        <ele>63</ele>
        <time>2019-12-16T15:29:16Z</time>
      </trkpt>
      <trkpt lat="43.60149" lon="5.06962">
        <ele>63</ele>
        <time>2019-12-16T15:29:17Z</time>
      </trkpt>
      <trkpt lat="43.60149" lon="5.06961">
        <ele>63</ele>
        <time>2019-12-16T15:29:18Z</time>
      </trkpt>
      <trkpt lat="43.60149" lon="5.06959">
        <ele>63</ele>
        <time>2019-12-16T15:29:19Z</time>
      </trkpt>
      <trkpt lat="43.60149" lon="5.06958">
        <ele>63</ele>
        <time>2019-12-16T15:29:20Z</time>
      </trkpt>
      <trkpt lat="43.60148" lon="5.06957">
        <ele>63</ele>
        <time>2019-12-16T15:29:21Z</time>
      </trkpt>
      <trkpt lat="43.60148" lon="5.06955">
        <ele>63</ele>
        <time>2019-12-16T15:29:22Z</time>
      </trkpt>
      <trkpt lat="43.60148" lon="5.06954">
        <ele>63</ele>
        <time>2019-12-16T15:29:23Z</time>
      </trkpt>
      <trkpt lat="43.60148" lon="5.06952">
        <ele>63</ele>
        <time>2019-12-16T15:29:24Z</time>
      </trkpt>
      <trkpt lat="43.60148" lon="5.06951">
        <ele>63</ele>
        <time>2019-12-16T15:29:25Z</time>
      </trkpt>
      <trkpt lat="43.60148" lon="5.06949">
        <ele>63</ele>
        <time>2019-12-16T15:29:26Z</time>
      </trkpt>
      <trkpt lat="43.60147" lon="5.06948">
        <ele>63</ele>
        <time>2019-12-16T15:29:27Z</time>
      </trkpt>
      <trkpt lat="43.60147" lon="5.06946">
        <ele>63</ele>
        <time>2019-12-16T15:29:28Z</time>
      </trkpt>
      <trkpt lat="43.60147" lon="5.06945">
        <ele>63</ele>
        <time>2019-12-16T15:29:29Z</time>
      </trkpt>
      <trkpt lat="43.60147" lon="5.06943">
        <ele>63</ele>
        <time>2019-12-16T15:29:30Z</time>
      </trkpt>
      <trkpt lat="43.60147" lon="5.06942">
        <ele>63</ele>
        <time>2019-12-16T15:29:31Z</time>
      </trkpt>
      <trkpt lat="43.60147" lon="5.0694">
        <ele>63</ele>
        <time>2019-12-16T15:29:32Z</time>
      </trkpt>
      <trkpt lat="43.60147" lon="5.06939">
        <ele>63</ele>
        <time>2019-12-16T15:29:33Z</time>
      </trkpt>
      <trkpt lat="43.60146" lon="5.06937">
        <ele>63</ele>
        <time>2019-12-16T15:29:34Z</time>
      </trkpt>
      <trkpt lat="43.60146" lon="5.06936">
        <ele>63</ele>
        <time>2019-12-16T15:29:35Z</time>
      </trkpt>
      <trkpt lat="43.60146" lon="5.06934">
        <ele>63</ele>
        <time>2019-12-16T15:29:36Z</time>
      </trkpt>
      <trkpt lat="43.60146" lon="5.06932">
        <ele>63</ele>
        <time>2019-12-16T15:29:37Z</time>
      </trkpt>
      <trkpt lat="43.60146" lon="5.0693">
        <ele>63</ele>
        <time>2019-12-16T15:29:38Z</time>
      </trkpt>
      <trkpt lat="43.60146" lon="5.06929">
        <ele>63</ele>
        <time>2019-12-16T15:29:39Z</time>
      </trkpt>
      <trkpt lat="43.60146" lon="5.06927">
        <ele>63</ele>
        <time>2019-12-16T15:29:40Z</time>
      </trkpt>
      <trkpt lat="43.60146" lon="5.06925">
        <ele>63</ele>
        <time>2019-12-16T15:29:41Z</time>
      </trkpt>
      <trkpt lat="43.60146" lon="5.06923">
        <ele>63</ele>
        <time>2019-12-16T15:29:42Z</time>
      </trkpt>
      <trkpt lat="43.60145" lon="5.06921">
        <ele>63</ele>
        <time>2019-12-16T15:29:43Z</time>
      </trkpt>
      <trkpt lat="43.60145" lon="5.0692">
        <ele>63</ele>
        <time>2019-12-16T15:29:44Z</time>
      </trkpt>
      <trkpt lat="43.60145" lon="5.06918">
        <ele>63</ele>
        <time>2019-12-16T15:29:45Z</time>
      </trkpt>
      <trkpt lat="43.60145" lon="5.06917">
        <ele>63</ele>
        <time>2019-12-16T15:29:46Z</time>
      </trkpt>
      <trkpt lat="43.60145" lon="5.06915">
        <ele>63</ele>
        <time>2019-12-16T15:29:47Z</time>
      </trkpt>
      <trkpt lat="43.60145" lon="5.06914">
        <ele>63</ele>
        <time>2019-12-16T15:29:48Z</time>
      </trkpt>
      <trkpt lat="43.60145" lon="5.06912">
        <ele>63</ele>
        <time>2019-12-16T15:29:49Z</time>
      </trkpt>
      <trkpt lat="43.60145" lon="5.06911">
        <ele>63</ele>
        <time>2019-12-16T15:29:50Z</time>
      </trkpt>
      <trkpt lat="43.60145" lon="5.0691">
        <ele>63</ele>
        <time>2019-12-16T15:29:51Z</time>
      </trkpt>
      <trkpt lat="43.60145" lon="5.06909">
        <ele>63</ele>
        <time>2019-12-16T15:29:52Z</time>
      </trkpt>
      <trkpt lat="43.60145" lon="5.06907">
        <ele>63</ele>
        <time>2019-12-16T15:29:53Z</time>
      </trkpt>
      <trkpt lat="43.60145" lon="5.06906">
        <ele>63</ele>
        <time>2019-12-16T15:29:54Z</time>
      </trkpt>
      <trkpt lat="43.60145" lon="5.06905">
        <ele>63</ele>
        <time>2019-12-16T15:29:55Z</time>
      </trkpt>
      <trkpt lat="43.60145" lon="5.06904">
        <ele>63</ele>
        <time>2019-12-16T15:29:56Z</time>
      </trkpt>
      <trkpt lat="43.60145" lon="5.06902">
        <ele>63</ele>
        <time>2019-12-16T15:29:57Z</time>
      </trkpt>
      <trkpt lat="43.60145" lon="5.06901">
        <ele>63</ele>
        <time>2019-12-16T15:29:58Z</time>
      </trkpt>
      <trkpt lat="43.60145" lon="5.069">
        <ele>63</ele>
        <time>2019-12-16T15:29:59Z</time>
      </trkpt>
      <trkpt lat="43.60145" lon="5.06898">
        <ele>63</ele>
        <time>2019-12-16T15:30:00Z</time>
      </trkpt>
      <trkpt lat="43.60145" lon="5.06897">
        <ele>63</ele>
        <time>2019-12-16T15:30:01Z</time>
      </trkpt>
      <trkpt lat="43.60145" lon="5.06895">
        <ele>63</ele>
        <time>2019-12-16T15:30:02Z</time>
      </trkpt>
      <trkpt lat="43.60145" lon="5.06894">
        <ele>63</ele>
        <time>2019-12-16T15:30:03Z</time>
      </trkpt>
      <trkpt lat="43.60144" lon="5.06892">
        <ele>63</ele>
        <time>2019-12-16T15:30:04Z</time>
      </trkpt>
      <trkpt lat="43.60144" lon="5.0689">
        <ele>63</ele>
        <time>2019-12-16T15:30:05Z</time>
      </trkpt>
      <trkpt lat="43.60144" lon="5.06888">
        <ele>63</ele>
        <time>2019-12-16T15:30:06Z</time>
      </trkpt>
      <trkpt lat="43.60144" lon="5.06887">
        <ele>63</ele>
        <time>2019-12-16T15:30:07Z</time>
      </trkpt>
      <trkpt lat="43.60144" lon="5.06885">
        <ele>63</ele>
        <time>2019-12-16T15:30:08Z</time>
      </trkpt>
      <trkpt lat="43.60143" lon="5.06883">
        <ele>63</ele>
        <time>2019-12-16T15:30:09Z</time>
      </trkpt>
      <trkpt lat="43.60143" lon="5.06881">
        <ele>63</ele>
        <time>2019-12-16T15:30:10Z</time>
      </trkpt>
      <trkpt lat="43.60143" lon="5.0688">
        <ele>63</ele>
        <time>2019-12-16T15:30:11Z</time>
      </trkpt>
      <trkpt lat="43.60143" lon="5.06878">
        <ele>63</ele>
        <time>2019-12-16T15:30:12Z</time>
      </trkpt>
      <trkpt lat="43.60143" lon="5.06877">
        <ele>63</ele>
        <time>2019-12-16T15:30:13Z</time>
      </trkpt>
      <trkpt lat="43.60143" lon="5.06875">
        <ele>63</ele>
        <time>2019-12-16T15:30:14Z</time>
      </trkpt>
      <trkpt lat="43.60143" lon="5.06874">
        <ele>63</ele>
        <time>2019-12-16T15:30:15Z</time>
      </trkpt>
      <trkpt lat="43.60143" lon="5.06872">
        <ele>63</ele>
        <time>2019-12-16T15:30:16Z</time>
      </trkpt>
      <trkpt lat="43.60143" lon="5.06871">
        <ele>63</ele>
        <time>2019-12-16T15:30:17Z</time>
      </trkpt>
      <trkpt lat="43.60143" lon="5.0687">
        <ele>63</ele>
        <time>2019-12-16T15:30:18Z</time>
      </trkpt>
      <trkpt lat="43.60143" lon="5.06868">
        <ele>63</ele>
        <time>2019-12-16T15:30:19Z</time>
      </trkpt>
      <trkpt lat="43.60143" lon="5.06867">
        <ele>63</ele>
        <time>2019-12-16T15:30:20Z</time>
      </trkpt>
      <trkpt lat="43.60143" lon="5.06865">
        <ele>63</ele>
        <time>2019-12-16T15:30:21Z</time>
      </trkpt>
      <trkpt lat="43.60143" lon="5.06863">
        <ele>63</ele>
        <time>2019-12-16T15:30:22Z</time>
      </trkpt>
      <trkpt lat="43.60142" lon="5.06862">
        <ele>63</ele>
        <time>2019-12-16T15:30:23Z</time>
      </trkpt>
      <trkpt lat="43.60142" lon="5.0686">
        <ele>63</ele>
        <time>2019-12-16T15:30:24Z</time>
      </trkpt>
      <trkpt lat="43.60142" lon="5.06858">
        <ele>63</ele>
        <time>2019-12-16T15:30:25Z</time>
      </trkpt>
      <trkpt lat="43.60142" lon="5.06857">
        <ele>63</ele>
        <time>2019-12-16T15:30:26Z</time>
      </trkpt>
      <trkpt lat="43.60142" lon="5.06855">
        <ele>63</ele>
        <time>2019-12-16T15:30:27Z</time>
      </trkpt>
      <trkpt lat="43.60142" lon="5.06853">
        <ele>63</ele>
        <time>2019-12-16T15:30:28Z</time>
      </trkpt>
      <trkpt lat="43.60142" lon="5.06852">
        <ele>63</ele>
        <time>2019-12-16T15:30:29Z</time>
      </trkpt>
      <trkpt lat="43.60143" lon="5.0685">
        <ele>63</ele>
        <time>2019-12-16T15:30:30Z</time>
      </trkpt>
      <trkpt lat="43.60143" lon="5.06848">
        <ele>63</ele>
        <time>2019-12-16T15:30:31Z</time>
      </trkpt>
      <trkpt lat="43.60144" lon="5.06847">
        <ele>63</ele>
        <time>2019-12-16T15:30:32Z</time>
      </trkpt>
      <trkpt lat="43.60145" lon="5.06846">
        <ele>63</ele>
        <time>2019-12-16T15:30:33Z</time>
      </trkpt>
      <trkpt lat="43.60145" lon="5.06844">
        <ele>63</ele>
        <time>2019-12-16T15:30:34Z</time>
      </trkpt>
      <trkpt lat="43.60146" lon="5.06843">
        <ele>63</ele>
        <time>2019-12-16T15:30:35Z</time>
      </trkpt>
      <trkpt lat="43.60147" lon="5.06842">
        <ele>63</ele>
        <time>2019-12-16T15:30:36Z</time>
      </trkpt>
      <trkpt lat="43.60148" lon="5.06841">
        <ele>63</ele>
        <time>2019-12-16T15:30:37Z</time>
      </trkpt>
      <trkpt lat="43.60149" lon="5.0684">
        <ele>63</ele>
        <time>2019-12-16T15:30:38Z</time>
      </trkpt>
      <trkpt lat="43.60151" lon="5.06839">
        <ele>63</ele>
        <time>2019-12-16T15:30:39Z</time>
      </trkpt>
      <trkpt lat="43.60152" lon="5.06838">
        <ele>63</ele>
        <time>2019-12-16T15:30:40Z</time>
      </trkpt>
      <trkpt lat="43.60153" lon="5.06837">
        <ele>63</ele>
        <time>2019-12-16T15:30:41Z</time>
      </trkpt>
      <trkpt lat="43.60154" lon="5.06836">
        <ele>63</ele>
        <time>2019-12-16T15:30:42Z</time>
      </trkpt>
      <trkpt lat="43.60155" lon="5.06835">
        <ele>63</ele>
        <time>2019-12-16T15:30:43Z</time>
      </trkpt>
      <trkpt lat="43.60156" lon="5.06834">
        <ele>63</ele>
        <time>2019-12-16T15:30:44Z</time>
      </trkpt>
      <trkpt lat="43.60158" lon="5.06834">
        <ele>63</ele>
        <time>2019-12-16T15:30:45Z</time>
      </trkpt>
      <trkpt lat="43.60159" lon="5.06833">
        <ele>63</ele>
        <time>2019-12-16T15:30:46Z</time>
      </trkpt>
      <trkpt lat="43.6016" lon="5.06832">
        <ele>63</ele>
        <time>2019-12-16T15:30:47Z</time>
      </trkpt>
      <trkpt lat="43.60161" lon="5.06831">
        <ele>63</ele>
        <time>2019-12-16T15:30:48Z</time>
      </trkpt>
      <trkpt lat="43.60162" lon="5.06831">
        <ele>63</ele>
        <time>2019-12-16T15:30:49Z</time>
      </trkpt>
      <trkpt lat="43.60163" lon="5.0683">
        <ele>63</ele>
        <time>2019-12-16T15:30:50Z</time>
      </trkpt>
      <trkpt lat="43.60164" lon="5.06829">
        <ele>63</ele>
        <time>2019-12-16T15:30:51Z</time>
      </trkpt>
      <trkpt lat="43.60165" lon="5.06829">
        <ele>63</ele>
        <time>2019-12-16T15:30:52Z</time>
      </trkpt>
      <trkpt lat="43.60166" lon="5.06828">
        <ele>63</ele>
        <time>2019-12-16T15:30:53Z</time>
      </trkpt>
      <trkpt lat="43.60167" lon="5.06828">
        <ele>63</ele>
        <time>2019-12-16T15:30:54Z</time>
      </trkpt>
      <trkpt lat="43.60168" lon="5.06827">
        <ele>63</ele>
        <time>2019-12-16T15:30:55Z</time>
      </trkpt>
      <trkpt lat="43.60168" lon="5.06827">
        <ele>63</ele>
        <time>2019-12-16T15:30:56Z</time>
      </trkpt>
      <trkpt lat="43.60169" lon="5.06826">
        <ele>63</ele>
        <time>2019-12-16T15:30:57Z</time>
      </trkpt>
      <trkpt lat="43.6017" lon="5.06826">
        <ele>63</ele>
        <time>2019-12-16T15:30:58Z</time>
      </trkpt>
      <trkpt lat="43.60171" lon="5.06826">
        <ele>63</ele>
        <time>2019-12-16T15:30:59Z</time>
      </trkpt>
      <trkpt lat="43.60172" lon="5.06825">
        <ele>63</ele>
        <time>2019-12-16T15:31:00Z</time>
      </trkpt>
      <trkpt lat="43.60173" lon="5.06825">
        <ele>64</ele>
        <time>2019-12-16T15:31:01Z</time>
      </trkpt>
      <trkpt lat="43.60173" lon="5.06825">
        <ele>64</ele>
        <time>2019-12-16T15:31:02Z</time>
      </trkpt>
      <trkpt lat="43.60174" lon="5.06825">
        <ele>64</ele>
        <time>2019-12-16T15:31:03Z</time>
      </trkpt>
      <trkpt lat="43.60175" lon="5.06825">
        <ele>64</ele>
        <time>2019-12-16T15:31:04Z</time>
      </trkpt>
      <trkpt lat="43.60175" lon="5.06825">
        <ele>64</ele>
        <time>2019-12-16T15:31:05Z</time>
      </trkpt>
      <trkpt lat="43.60176" lon="5.06825">
        <ele>64</ele>
        <time>2019-12-16T15:31:06Z</time>
      </trkpt>
      <trkpt lat="43.60177" lon="5.06825">
        <ele>64</ele>
        <time>2019-12-16T15:31:07Z</time>
      </trkpt>
      <trkpt lat="43.60178" lon="5.06824">
        <ele>64</ele>
        <time>2019-12-16T15:31:08Z</time>
      </trkpt>
      <trkpt lat="43.60178" lon="5.06824">
        <ele>64</ele>
        <time>2019-12-16T15:31:09Z</time>
      </trkpt>
      <trkpt lat="43.60179" lon="5.06824">
        <ele>64</ele>
        <time>2019-12-16T15:31:10Z</time>
      </trkpt>
      <trkpt lat="43.6018" lon="5.06823">
        <ele>64</ele>
        <time>2019-12-16T15:31:11Z</time>
      </trkpt>
      <trkpt lat="43.60181" lon="5.06822">
        <ele>64</ele>
        <time>2019-12-16T15:31:12Z</time>
      </trkpt>
      <trkpt lat="43.60182" lon="5.06821">
        <ele>64</ele>
        <time>2019-12-16T15:31:13Z</time>
      </trkpt>
      <trkpt lat="43.60183" lon="5.06821">
        <ele>64</ele>
        <time>2019-12-16T15:31:14Z</time>
      </trkpt>
      <trkpt lat="43.60184" lon="5.0682">
        <ele>64</ele>
        <time>2019-12-16T15:31:15Z</time>
      </trkpt>
      <trkpt lat="43.60185" lon="5.06819">
        <ele>64</ele>
        <time>2019-12-16T15:31:16Z</time>
      </trkpt>
      <trkpt lat="43.60186" lon="5.06818">
        <ele>64</ele>
        <time>2019-12-16T15:31:17Z</time>
      </trkpt>
      <trkpt lat="43.60187" lon="5.06818">
        <ele>64</ele>
        <time>2019-12-16T15:31:18Z</time>
      </trkpt>
      <trkpt lat="43.60188" lon="5.06817">
        <ele>64</ele>
        <time>2019-12-16T15:31:19Z</time>
      </trkpt>
      <trkpt lat="43.60189" lon="5.06817">
        <ele>64</ele>
        <time>2019-12-16T15:31:20Z</time>
      </trkpt>
      <trkpt lat="43.6019" lon="5.06816">
        <ele>64</ele>
        <time>2019-12-16T15:31:21Z</time>
      </trkpt>
      <trkpt lat="43.60191" lon="5.06816">
        <ele>64</ele>
        <time>2019-12-16T15:31:22Z</time>
      </trkpt>
      <trkpt lat="43.60193" lon="5.06815">
        <ele>64</ele>
        <time>2019-12-16T15:31:23Z</time>
      </trkpt>
      <trkpt lat="43.60194" lon="5.06815">
        <ele>64</ele>
        <time>2019-12-16T15:31:24Z</time>
      </trkpt>
      <trkpt lat="43.60195" lon="5.06814">
        <ele>64</ele>
        <time>2019-12-16T15:31:25Z</time>
      </trkpt>
      <trkpt lat="43.60196" lon="5.06814">
        <ele>64</ele>
        <time>2019-12-16T15:31:26Z</time>
      </trkpt>
      <trkpt lat="43.60197" lon="5.06813">
        <ele>64</ele>
        <time>2019-12-16T15:31:27Z</time>
      </trkpt>
      <trkpt lat="43.60198" lon="5.06813">
        <ele>64</ele>
        <time>2019-12-16T15:31:28Z</time>
      </trkpt>
      <trkpt lat="43.60199" lon="5.06812">
        <ele>64</ele>
        <time>2019-12-16T15:31:29Z</time>
      </trkpt>
      <trkpt lat="43.602" lon="5.06812">
        <ele>64</ele>
        <time>2019-12-16T15:31:30Z</time>
      </trkpt>
      <trkpt lat="43.60201" lon="5.06811">
        <ele>64</ele>
        <time>2019-12-16T15:31:31Z</time>
      </trkpt>
      <trkpt lat="43.60202" lon="5.06811">
        <ele>64</ele>
        <time>2019-12-16T15:31:32Z</time>
      </trkpt>
      <trkpt lat="43.60203" lon="5.0681">
        <ele>64</ele>
        <time>2019-12-16T15:31:33Z</time>
      </trkpt>
      <trkpt lat="43.60204" lon="5.0681">
        <ele>64</ele>
        <time>2019-12-16T15:31:34Z</time>
      </trkpt>
      <trkpt lat="43.60204" lon="5.0681">
        <ele>64</ele>
        <time>2019-12-16T15:31:35Z</time>
      </trkpt>
      <trkpt lat="43.60205" lon="5.06809">
        <ele>64</ele>
        <time>2019-12-16T15:31:36Z</time>
      </trkpt>
      <trkpt lat="43.60206" lon="5.06809">
        <ele>64</ele>
        <time>2019-12-16T15:31:37Z</time>
      </trkpt>
      <trkpt lat="43.60207" lon="5.06808">
        <ele>64</ele>
        <time>2019-12-16T15:31:38Z</time>
      </trkpt>
      <trkpt lat="43.60208" lon="5.06807">
        <ele>64</ele>
        <time>2019-12-16T15:31:39Z</time>
      </trkpt>
      <trkpt lat="43.60209" lon="5.06807">
        <ele>64</ele>
        <time>2019-12-16T15:31:40Z</time>
      </trkpt>
      <trkpt lat="43.6021" lon="5.06806">
        <ele>64</ele>
        <time>2019-12-16T15:31:41Z</time>
      </trkpt>
      <trkpt lat="43.60211" lon="5.06806">
        <ele>64</ele>
        <time>2019-12-16T15:31:42Z</time>
      </trkpt>
      <trkpt lat="43.60211" lon="5.06805">
        <ele>64</ele>
        <time>2019-12-16T15:31:43Z</time>
      </trkpt>
      <trkpt lat="43.60212" lon="5.06805">
        <ele>64</ele>
        <time>2019-12-16T15:31:44Z</time>
      </trkpt>
      <trkpt lat="43.60213" lon="5.06804">
        <ele>64</ele>
        <time>2019-12-16T15:31:45Z</time>
      </trkpt>
      <trkpt lat="43.60214" lon="5.06804">
        <ele>64</ele>
        <time>2019-12-16T15:31:46Z</time>
      </trkpt>
      <trkpt lat="43.60214" lon="5.06804">
        <ele>64</ele>
        <time>2019-12-16T15:31:47Z</time>
      </trkpt>
      <trkpt lat="43.60214" lon="5.06804">
        <ele>64</ele>
        <time>2019-12-16T15:31:48Z</time>
      </trkpt>
      <trkpt lat="43.60214" lon="5.06804">
        <ele>64</ele>
        <time>2019-12-16T15:31:49Z</time>
      </trkpt>
      <trkpt lat="43.60214" lon="5.06804">
        <ele>64</ele>
        <time>2019-12-16T15:31:50Z</time>
      </trkpt>
      <trkpt lat="43.60214" lon="5.06804">
        <ele>64</ele>
        <time>2019-12-16T15:31:51Z</time>
      </trkpt>
      <trkpt lat="43.60214" lon="5.06804">
        <ele>64</ele>
        <time>2019-12-16T15:31:52Z</time>
      </trkpt>
      <trkpt lat="43.60214" lon="5.06804">
        <ele>64</ele>
        <time>2019-12-16T15:31:53Z</time>
      </trkpt>
      <trkpt lat="43.60214" lon="5.06804">
        <ele>64</ele>
        <time>2019-12-16T15:31:54Z</time>
      </trkpt>
      <trkpt lat="43.60214" lon="5.06804">
        <ele>64</ele>
        <time>2019-12-16T15:31:55Z</time>
      </trkpt>
      <trkpt lat="43.60214" lon="5.06804">
        <ele>64</ele>
        <time>2019-12-16T15:31:56Z</time>
      </trkpt>
      <trkpt lat="43.60214" lon="5.06804">
        <ele>64</ele>
        <time>2019-12-16T15:31:57Z</time>
      </trkpt>
      <trkpt lat="43.60214" lon="5.06804">
        <ele>64</ele>
        <time>2019-12-16T15:31:58Z</time>
      </trkpt>
      <trkpt lat="43.60214" lon="5.06804">
        <ele>64</ele>
        <time>2019-12-16T15:31:59Z</time>
      </trkpt>
      <trkpt lat="43.60214" lon="5.06804">
        <ele>64</ele>
        <time>2019-12-16T15:32:00Z</time>
      </trkpt>
      <trkpt lat="43.60214" lon="5.06804">
        <ele>64</ele>
        <time>2019-12-16T15:32:01Z</time>
      </trkpt>
      <trkpt lat="43.60214" lon="5.06804">
        <ele>64</ele>
        <time>2019-12-16T15:32:02Z</time>
      </trkpt>
      <trkpt lat="43.60214" lon="5.06804">
        <ele>64</ele>
        <time>2019-12-16T15:32:03Z</time>
      </trkpt>
      <trkpt lat="43.60214" lon="5.06804">
        <ele>64</ele>
        <time>2019-12-16T15:32:04Z</time>
      </trkpt>
      <trkpt lat="43.60214" lon="5.06804">
        <ele>64</ele>
        <time>2019-12-16T15:32:05Z</time>
      </trkpt>
      <trkpt lat="43.60214" lon="5.06804">
        <ele>64</ele>
        <time>2019-12-16T15:32:06Z</time>
      </trkpt>
      <trkpt lat="43.60214" lon="5.06804">
        <ele>64</ele>
        <time>2019-12-16T15:32:07Z</time>
      </trkpt>
      <trkpt lat="43.60214" lon="5.06804">
        <ele>64</ele>
        <time>2019-12-16T15:32:08Z</time>
      </trkpt>
      <trkpt lat="43.60214" lon="5.06804">
        <ele>64</ele>
        <time>2019-12-16T15:32:09Z</time>
      </trkpt>
      <trkpt lat="43.60214" lon="5.06804">
        <ele>64</ele>
        <time>2019-12-16T15:32:10Z</time>
      </trkpt>
      <trkpt lat="43.60214" lon="5.06804">
        <ele>64</ele>
        <time>2019-12-16T15:32:11Z</time>
      </trkpt>
      <trkpt lat="43.60214" lon="5.06804">
        <ele>64</ele>
        <time>2019-12-16T15:32:12Z</time>
      </trkpt>
      <trkpt lat="43.60214" lon="5.06804">
        <ele>64</ele>
        <time>2019-12-16T15:32:13Z</time>
      </trkpt>
      <trkpt lat="43.60214" lon="5.06804">
        <ele>64</ele>
        <time>2019-12-16T15:32:14Z</time>
      </trkpt>
      <trkpt lat="43.60214" lon="5.06804">
        <ele>64</ele>
        <time>2019-12-16T15:32:15Z</time>
      </trkpt>
      <trkpt lat="43.60214" lon="5.06804">
        <ele>64</ele>
        <time>2019-12-16T15:32:16Z</time>
      </trkpt>
      <trkpt lat="43.60214" lon="5.06804">
        <ele>64</ele>
        <time>2019-12-16T15:32:17Z</time>
      </trkpt>
      <trkpt lat="43.60214" lon="5.06804">
        <ele>64</ele>
        <time>2019-12-16T15:32:18Z</time>
      </trkpt>
      <trkpt lat="43.60214" lon="5.06804">
        <ele>64</ele>
        <time>2019-12-16T15:32:19Z</time>
      </trkpt>
      <trkpt lat="43.60214" lon="5.06804">
        <ele>64</ele>
        <time>2019-12-16T15:32:20Z</time>
      </trkpt>
      <trkpt lat="43.60214" lon="5.06804">
        <ele>64</ele>
        <time>2019-12-16T15:32:21Z</time>
      </trkpt>
      <trkpt lat="43.60214" lon="5.06804">
        <ele>64</ele>
        <time>2019-12-16T15:32:22Z</time>
      </trkpt>
      <trkpt lat="43.60214" lon="5.06804">
        <ele>64</ele>
        <time>2019-12-16T15:32:23Z</time>
      </trkpt>
      <trkpt lat="43.60215" lon="5.06804">
        <ele>64</ele>
        <time>2019-12-16T15:32:24Z</time>
      </trkpt>
      <trkpt lat="43.60215" lon="5.06804">
        <ele>64</ele>
        <time>2019-12-16T15:32:25Z</time>
      </trkpt>
      <trkpt lat="43.60215" lon="5.06804">
        <ele>64</ele>
        <time>2019-12-16T15:32:26Z</time>
      </trkpt>
      <trkpt lat="43.60215" lon="5.06804">
        <ele>64</ele>
        <time>2019-12-16T15:32:27Z</time>
      </trkpt>
      <trkpt lat="43.60215" lon="5.06804">
        <ele>64</ele>
        <time>2019-12-16T15:32:28Z</time>
      </trkpt>
      <trkpt lat="43.60215" lon="5.06804">
        <ele>64</ele>
        <time>2019-12-16T15:32:29Z</time>
      </trkpt>
      <trkpt lat="43.60215" lon="5.06804">
        <ele>64</ele>
        <time>2019-12-16T15:32:30Z</time>
      </trkpt>
      <trkpt lat="43.60215" lon="5.06804">
        <ele>64</ele>
        <time>2019-12-16T15:32:31Z</time>
      </trkpt>
      <trkpt lat="43.60215" lon="5.06804">
        <ele>64</ele>
        <time>2019-12-16T15:32:32Z</time>
      </trkpt>
      <trkpt lat="43.60215" lon="5.06804">
        <ele>64</ele>
        <time>2019-12-16T15:32:33Z</time>
      </trkpt>
      <trkpt lat="43.60215" lon="5.06804">
        <ele>64</ele>
        <time>2019-12-16T15:32:34Z</time>
      </trkpt>
      <trkpt lat="43.60215" lon="5.06804">
        <ele>64</ele>
        <time>2019-12-16T15:32:35Z</time>
      </trkpt>
      <trkpt lat="43.60215" lon="5.06804">
        <ele>64</ele>
        <time>2019-12-16T15:32:36Z</time>
      </trkpt>
      <trkpt lat="43.60215" lon="5.06804">
        <ele>64</ele>
        <time>2019-12-16T15:32:37Z</time>
      </trkpt>
      <trkpt lat="43.60215" lon="5.06804">
        <ele>64</ele>
        <time>2019-12-16T15:32:38Z</time>
      </trkpt>
      <trkpt lat="43.60215" lon="5.06804">
        <ele>64</ele>
        <time>2019-12-16T15:32:39Z</time>
      </trkpt>
      <trkpt lat="43.60215" lon="5.06804">
        <ele>64</ele>
        <time>2019-12-16T15:32:40Z</time>
      </trkpt>
      <trkpt lat="43.60215" lon="5.06804">
        <ele>64</ele>
        <time>2019-12-16T15:32:41Z</time>
      </trkpt>
      <trkpt lat="43.60216" lon="5.06804">
        <ele>64</ele>
        <time>2019-12-16T15:32:42Z</time>
      </trkpt>
      <trkpt lat="43.60216" lon="5.06803">
        <ele>64</ele>
        <time>2019-12-16T15:32:43Z</time>
      </trkpt>
      <trkpt lat="43.60216" lon="5.06803">
        <ele>64</ele>
        <time>2019-12-16T15:32:44Z</time>
      </trkpt>
      <trkpt lat="43.60216" lon="5.06803">
        <ele>64</ele>
        <time>2019-12-16T15:32:45Z</time>
      </trkpt>
      <trkpt lat="43.60216" lon="5.06803">
        <ele>64</ele>
        <time>2019-12-16T15:32:46Z</time>
      </trkpt>
      <trkpt lat="43.60216" lon="5.06803">
        <ele>64</ele>
        <time>2019-12-16T15:32:47Z</time>
      </trkpt>
      <trkpt lat="43.60216" lon="5.06803">
        <ele>64</ele>
        <time>2019-12-16T15:32:48Z</time>
      </trkpt>
      <trkpt lat="43.60216" lon="5.06803">
        <ele>64</ele>
        <time>2019-12-16T15:32:49Z</time>
      </trkpt>
      <trkpt lat="43.60216" lon="5.06803">
        <ele>64</ele>
        <time>2019-12-16T15:32:50Z</time>
      </trkpt>
      <trkpt lat="43.60216" lon="5.06803">
        <ele>64</ele>
        <time>2019-12-16T15:32:51Z</time>
      </trkpt>
      <trkpt lat="43.60216" lon="5.06803">
        <ele>64</ele>
        <time>2019-12-16T15:32:52Z</time>
      </trkpt>
      <trkpt lat="43.60216" lon="5.06803">
        <ele>64</ele>
        <time>2019-12-16T15:32:53Z</time>
      </trkpt>
      <trkpt lat="43.60216" lon="5.06803">
        <ele>64</ele>
        <time>2019-12-16T15:32:54Z</time>
      </trkpt>
      <trkpt lat="43.60216" lon="5.06803">
        <ele>64</ele>
        <time>2019-12-16T15:32:55Z</time>
      </trkpt>
      <trkpt lat="43.60216" lon="5.06803">
        <ele>64</ele>
        <time>2019-12-16T15:32:56Z</time>
      </trkpt>
      <trkpt lat="43.60216" lon="5.06803">
        <ele>64</ele>
        <time>2019-12-16T15:32:57Z</time>
      </trkpt>
      <trkpt lat="43.60216" lon="5.06803">
        <ele>64</ele>
        <time>2019-12-16T15:32:58Z</time>
      </trkpt>
      <trkpt lat="43.60216" lon="5.06803">
        <ele>64</ele>
        <time>2019-12-16T15:32:59Z</time>
      </trkpt>
      <trkpt lat="43.60216" lon="5.06803">
        <ele>64</ele>
        <time>2019-12-16T15:33:00Z</time>
      </trkpt>
      <trkpt lat="43.60216" lon="5.06803">
        <ele>64</ele>
        <time>2019-12-16T15:33:01Z</time>
      </trkpt>
      <trkpt lat="43.60216" lon="5.06803">
        <ele>64</ele>
        <time>2019-12-16T15:33:02Z</time>
      </trkpt>
      <trkpt lat="43.60216" lon="5.06803">
        <ele>64</ele>
        <time>2019-12-16T15:33:03Z</time>
      </trkpt>
      <trkpt lat="43.60216" lon="5.06803">
        <ele>64</ele>
        <time>2019-12-16T15:33:04Z</time>
      </trkpt>
      <trkpt lat="43.60216" lon="5.06803">
        <ele>64</ele>
        <time>2019-12-16T15:33:05Z</time>
      </trkpt>
      <trkpt lat="43.60216" lon="5.06803">
        <ele>64</ele>
        <time>2019-12-16T15:33:06Z</time>
      </trkpt>
      <trkpt lat="43.60216" lon="5.06803">
        <ele>64</ele>
        <time>2019-12-16T15:33:07Z</time>
      </trkpt>
      <trkpt lat="43.60216" lon="5.06803">
        <ele>64</ele>
        <time>2019-12-16T15:33:08Z</time>
      </trkpt>
      <trkpt lat="43.60216" lon="5.06803">
        <ele>64</ele>
        <time>2019-12-16T15:33:09Z</time>
      </trkpt>
      <trkpt lat="43.60216" lon="5.06802">
        <ele>65</ele>
        <time>2019-12-16T15:33:10Z</time>
      </trkpt>
      <trkpt lat="43.60216" lon="5.06802">
        <ele>65</ele>
        <time>2019-12-16T15:33:11Z</time>
      </trkpt>
      <trkpt lat="43.60216" lon="5.06802">
        <ele>65</ele>
        <time>2019-12-16T15:33:12Z</time>
      </trkpt>
      <trkpt lat="43.60217" lon="5.06802">
        <ele>65</ele>
        <time>2019-12-16T15:33:13Z</time>
      </trkpt>
      <trkpt lat="43.60217" lon="5.06802">
        <ele>65</ele>
        <time>2019-12-16T15:33:14Z</time>
      </trkpt>
      <trkpt lat="43.60217" lon="5.06802">
        <ele>65</ele>
        <time>2019-12-16T15:33:15Z</time>
      </trkpt>
      <trkpt lat="43.60217" lon="5.06802">
        <ele>65</ele>
        <time>2019-12-16T15:33:16Z</time>
      </trkpt>
      <trkpt lat="43.60217" lon="5.06802">
        <ele>65</ele>
        <time>2019-12-16T15:33:17Z</time>
      </trkpt>
      <trkpt lat="43.60217" lon="5.06802">
        <ele>65</ele>
        <time>2019-12-16T15:33:18Z</time>
      </trkpt>
      <trkpt lat="43.60217" lon="5.06802">
        <ele>65</ele>
        <time>2019-12-16T15:33:19Z</time>
      </trkpt>
      <trkpt lat="43.60217" lon="5.06802">
        <ele>65</ele>
        <time>2019-12-16T15:33:20Z</time>
      </trkpt>
      <trkpt lat="43.60217" lon="5.06802">
        <ele>65</ele>
        <time>2019-12-16T15:33:21Z</time>
      </trkpt>
      <trkpt lat="43.60217" lon="5.06802">
        <ele>65</ele>
        <time>2019-12-16T15:33:22Z</time>
      </trkpt>
      <trkpt lat="43.60217" lon="5.06802">
        <ele>65</ele>
        <time>2019-12-16T15:33:23Z</time>
      </trkpt>
      <trkpt lat="43.60217" lon="5.06802">
        <ele>65</ele>
        <time>2019-12-16T15:33:24Z</time>
      </trkpt>
      <trkpt lat="43.60217" lon="5.06802">
        <ele>65</ele>
        <time>2019-12-16T15:33:25Z</time>
      </trkpt>
      <trkpt lat="43.60217" lon="5.06802">
        <ele>65</ele>
        <time>2019-12-16T15:33:26Z</time>
      </trkpt>
      <trkpt lat="43.60217" lon="5.06802">
        <ele>65</ele>
        <time>2019-12-16T15:33:27Z</time>
      </trkpt>
      <trkpt lat="43.60217" lon="5.06802">
        <ele>65</ele>
        <time>2019-12-16T15:33:28Z</time>
      </trkpt>
      <trkpt lat="43.60217" lon="5.06802">
        <ele>65</ele>
        <time>2019-12-16T15:33:29Z</time>
      </trkpt>
      <trkpt lat="43.60217" lon="5.06802">
        <ele>65</ele>
        <time>2019-12-16T15:33:30Z</time>
      </trkpt>
      <trkpt lat="43.60217" lon="5.06802">
        <ele>65</ele>
        <time>2019-12-16T15:33:31Z</time>
      </trkpt>
      <trkpt lat="43.60217" lon="5.06802">
        <ele>65</ele>
        <time>2019-12-16T15:33:32Z</time>
      </trkpt>
      <trkpt lat="43.60217" lon="5.06801">
        <ele>65</ele>
        <time>2019-12-16T15:33:33Z</time>
      </trkpt>
      <trkpt lat="43.60217" lon="5.06801">
        <ele>65</ele>
        <time>2019-12-16T15:33:34Z</time>
      </trkpt>
      <trkpt lat="43.60217" lon="5.06801">
        <ele>65</ele>
        <time>2019-12-16T15:33:35Z</time>
      </trkpt>
      <trkpt lat="43.60217" lon="5.06801">
        <ele>65</ele>
        <time>2019-12-16T15:33:36Z</time>
      </trkpt>
      <trkpt lat="43.60217" lon="5.068">
        <ele>65</ele>
        <time>2019-12-16T15:33:37Z</time>
      </trkpt>
      <trkpt lat="43.60218" lon="5.068">
        <ele>65</ele>
        <time>2019-12-16T15:33:38Z</time>
      </trkpt>
      <trkpt lat="43.60218" lon="5.068">
        <ele>65</ele>
        <time>2019-12-16T15:33:39Z</time>
      </trkpt>
      <trkpt lat="43.60218" lon="5.068">
        <ele>65</ele>
        <time>2019-12-16T15:33:40Z</time>
      </trkpt>
      <trkpt lat="43.60218" lon="5.068">
        <ele>65</ele>
        <time>2019-12-16T15:33:41Z</time>
      </trkpt>
      <trkpt lat="43.60218" lon="5.06799">
        <ele>65</ele>
        <time>2019-12-16T15:33:42Z</time>
      </trkpt>
      <trkpt lat="43.60218" lon="5.06799">
        <ele>65</ele>
        <time>2019-12-16T15:33:43Z</time>
      </trkpt>
      <trkpt lat="43.60218" lon="5.06798">
        <ele>65</ele>
        <time>2019-12-16T15:33:44Z</time>
      </trkpt>
      <trkpt lat="43.60219" lon="5.06797">
        <ele>65</ele>
        <time>2019-12-16T15:33:45Z</time>
      </trkpt>
      <trkpt lat="43.6022" lon="5.06796">
        <ele>65</ele>
        <time>2019-12-16T15:33:46Z</time>
      </trkpt>
      <trkpt lat="43.6022" lon="5.06795">
        <ele>65</ele>
        <time>2019-12-16T15:33:47Z</time>
      </trkpt>
      <trkpt lat="43.6022" lon="5.06794">
        <ele>65</ele>
        <time>2019-12-16T15:33:48Z</time>
      </trkpt>
      <trkpt lat="43.60221" lon="5.06793">
        <ele>65</ele>
        <time>2019-12-16T15:33:49Z</time>
      </trkpt>
      <trkpt lat="43.60221" lon="5.06792">
        <ele>65</ele>
        <time>2019-12-16T15:33:50Z</time>
      </trkpt>
      <trkpt lat="43.60221" lon="5.06792">
        <ele>65</ele>
        <time>2019-12-16T15:33:51Z</time>
      </trkpt>
      <trkpt lat="43.60221" lon="5.06792">
        <ele>65</ele>
        <time>2019-12-16T15:33:52Z</time>
      </trkpt>
      <trkpt lat="43.60221" lon="5.06792">
        <ele>65</ele>
        <time>2019-12-16T15:33:53Z</time>
      </trkpt>
      <trkpt lat="43.60221" lon="5.06792">
        <ele>65</ele>
        <time>2019-12-16T15:33:54Z</time>
      </trkpt>
      <trkpt lat="43.60221" lon="5.06792">
        <ele>65</ele>
        <time>2019-12-16T15:33:55Z</time>
      </trkpt>
      <trkpt lat="43.60221" lon="5.06792">
        <ele>65</ele>
        <time>2019-12-16T15:33:56Z</time>
      </trkpt>
      <trkpt lat="43.60221" lon="5.06792">
        <ele>65</ele>
        <time>2019-12-16T15:33:57Z</time>
      </trkpt>
      <trkpt lat="43.60221" lon="5.06791">
        <ele>65</ele>
        <time>2019-12-16T15:33:58Z</time>
      </trkpt>
      <trkpt lat="43.60221" lon="5.06791">
        <ele>65</ele>
        <time>2019-12-16T15:33:59Z</time>
      </trkpt>
      <trkpt lat="43.60222" lon="5.0679">
        <ele>65</ele>
        <time>2019-12-16T15:34:00Z</time>
      </trkpt>
      <trkpt lat="43.60222" lon="5.06788">
        <ele>65</ele>
        <time>2019-12-16T15:34:01Z</time>
      </trkpt>
      <trkpt lat="43.60223" lon="5.06787">
        <ele>65</ele>
        <time>2019-12-16T15:34:02Z</time>
      </trkpt>
      <trkpt lat="43.60223" lon="5.06786">
        <ele>65</ele>
        <time>2019-12-16T15:34:03Z</time>
      </trkpt>
      <trkpt lat="43.60224" lon="5.06785">
        <ele>65</ele>
        <time>2019-12-16T15:34:04Z</time>
      </trkpt>
      <trkpt lat="43.60224" lon="5.06784">
        <ele>65</ele>
        <time>2019-12-16T15:34:05Z</time>
      </trkpt>
      <trkpt lat="43.60224" lon="5.06782">
        <ele>65</ele>
        <time>2019-12-16T15:34:06Z</time>
      </trkpt>
      <trkpt lat="43.60225" lon="5.06781">
        <ele>65</ele>
        <time>2019-12-16T15:34:07Z</time>
      </trkpt>
      <trkpt lat="43.60225" lon="5.06779">
        <ele>65</ele>
        <time>2019-12-16T15:34:08Z</time>
      </trkpt>
      <trkpt lat="43.60226" lon="5.06778">
        <ele>65</ele>
        <time>2019-12-16T15:34:09Z</time>
      </trkpt>
      <trkpt lat="43.60226" lon="5.06777">
        <ele>65</ele>
        <time>2019-12-16T15:34:10Z</time>
      </trkpt>
      <trkpt lat="43.60226" lon="5.06775">
        <ele>65</ele>
        <time>2019-12-16T15:34:11Z</time>
      </trkpt>
      <trkpt lat="43.60226" lon="5.06774">
        <ele>65</ele>
        <time>2019-12-16T15:34:12Z</time>
      </trkpt>
      <trkpt lat="43.60227" lon="5.06772">
        <ele>65</ele>
        <time>2019-12-16T15:34:13Z</time>
      </trkpt>
      <trkpt lat="43.60227" lon="5.06771">
        <ele>65</ele>
        <time>2019-12-16T15:34:14Z</time>
      </trkpt>
      <trkpt lat="43.60227" lon="5.0677">
        <ele>65</ele>
        <time>2019-12-16T15:34:15Z</time>
      </trkpt>
      <trkpt lat="43.60227" lon="5.06768">
        <ele>65</ele>
        <time>2019-12-16T15:34:16Z</time>
      </trkpt>
      <trkpt lat="43.60227" lon="5.06767">
        <ele>65</ele>
        <time>2019-12-16T15:34:17Z</time>
      </trkpt>
      <trkpt lat="43.60227" lon="5.06765">
        <ele>65</ele>
        <time>2019-12-16T15:34:18Z</time>
      </trkpt>
      <trkpt lat="43.60228" lon="5.06764">
        <ele>65</ele>
        <time>2019-12-16T15:34:19Z</time>
      </trkpt>
      <trkpt lat="43.60228" lon="5.06763">
        <ele>65</ele>
        <time>2019-12-16T15:34:20Z</time>
      </trkpt>
      <trkpt lat="43.60228" lon="5.06762">
        <ele>65</ele>
        <time>2019-12-16T15:34:21Z</time>
      </trkpt>
      <trkpt lat="43.60228" lon="5.06761">
        <ele>65</ele>
        <time>2019-12-16T15:34:22Z</time>
      </trkpt>
      <trkpt lat="43.60228" lon="5.06759">
        <ele>65</ele>
        <time>2019-12-16T15:34:23Z</time>
      </trkpt>
      <trkpt lat="43.60228" lon="5.06758">
        <ele>65</ele>
        <time>2019-12-16T15:34:24Z</time>
      </trkpt>
      <trkpt lat="43.60228" lon="5.06757">
        <ele>65</ele>
        <time>2019-12-16T15:34:25Z</time>
      </trkpt>
      <trkpt lat="43.60228" lon="5.06756">
        <ele>65</ele>
        <time>2019-12-16T15:34:26Z</time>
      </trkpt>
      <trkpt lat="43.60228" lon="5.06755">
        <ele>65</ele>
        <time>2019-12-16T15:34:27Z</time>
      </trkpt>
      <trkpt lat="43.60228" lon="5.06754">
        <ele>65</ele>
        <time>2019-12-16T15:34:28Z</time>
      </trkpt>
      <trkpt lat="43.60227" lon="5.06753">
        <ele>65</ele>
        <time>2019-12-16T15:34:29Z</time>
      </trkpt>
      <trkpt lat="43.60227" lon="5.06753">
        <ele>65</ele>
        <time>2019-12-16T15:34:30Z</time>
      </trkpt>
      <trkpt lat="43.60227" lon="5.06752">
        <ele>65</ele>
        <time>2019-12-16T15:34:31Z</time>
      </trkpt>
      <trkpt lat="43.60227" lon="5.06751">
        <ele>65</ele>
        <time>2019-12-16T15:34:32Z</time>
      </trkpt>
      <trkpt lat="43.60227" lon="5.0675">
        <ele>65</ele>
        <time>2019-12-16T15:34:33Z</time>
      </trkpt>
      <trkpt lat="43.60227" lon="5.06749">
        <ele>66</ele>
        <time>2019-12-16T15:34:34Z</time>
      </trkpt>
      <trkpt lat="43.60227" lon="5.06748">
        <ele>66</ele>
        <time>2019-12-16T15:34:35Z</time>
      </trkpt>
      <trkpt lat="43.60226" lon="5.06748">
        <ele>66</ele>
        <time>2019-12-16T15:34:36Z</time>
      </trkpt>
      <trkpt lat="43.60226" lon="5.06747">
        <ele>66</ele>
        <time>2019-12-16T15:34:37Z</time>
      </trkpt>
      <trkpt lat="43.60226" lon="5.06746">
        <ele>66</ele>
        <time>2019-12-16T15:34:38Z</time>
      </trkpt>
      <trkpt lat="43.60226" lon="5.06745">
        <ele>66</ele>
        <time>2019-12-16T15:34:39Z</time>
      </trkpt>
      <trkpt lat="43.60226" lon="5.06744">
        <ele>66</ele>
        <time>2019-12-16T15:34:40Z</time>
      </trkpt>
      <trkpt lat="43.60225" lon="5.06743">
        <ele>66</ele>
        <time>2019-12-16T15:34:41Z</time>
      </trkpt>
      <trkpt lat="43.60225" lon="5.06742">
        <ele>66</ele>
        <time>2019-12-16T15:34:42Z</time>
      </trkpt>
    </trkseg>
  </trk>
</gpx>